<?xml version='1.0' encoding='UTF-8'?><gpx version="1.1" creator="JPX - https://github.com/jenetics/jpx" xmlns="http://www.topografix.com/GPX/1/1"><trk><trkseg><trkpt lat="43.938584970012364" lon="11.016369909772425"><ele>99.0</ele><time>2026-05-01T12:33:58.939Z</time></trkpt><trkpt lat="43.93861908663831" lon="11.01629242087922"><ele>99.0</ele><time>2026-05-01T12:33:59.939Z</time></trkpt><trkpt lat="43.938652193859646" lon="11.016216405529644"><ele>99.0</ele><time>2026-05-01T12:34:00.938Z</time></trkpt><trkpt lat="43.93868323627758" lon="11.01607788908246"><ele>99.0</ele><time>2026-05-01T12:34:02.936Z</time></trkpt><trkpt lat="43.93857926837546" lon="11.015998192965691"><ele>99.0</ele><time>2026-05-01T12:34:04.935Z</time></trkpt><trkpt lat="43.93844797495288" lon="11.016012900772559"><ele>98.4</ele><time>2026-05-01T12:34:06.934Z</time></trkpt><trkpt lat="43.93835564466409" lon="11.015996430720122"><ele>97.80000000000001</ele><time>2026-05-01T12:34:07.933Z</time></trkpt><trkpt lat="43.93826041703092" lon="11.015986443179745"><ele>97.19999999999999</ele><time>2026-05-01T12:34:08.932Z</time></trkpt><trkpt lat="43.9381634149109" lon="11.015974614018798"><ele>96.6</ele><time>2026-05-01T12:34:09.932Z</time></trkpt><trkpt lat="43.938058806928524" lon="11.015964606886483"><ele>96.0</ele><time>2026-05-01T12:34:10.932Z</time></trkpt><trkpt lat="43.93795457596401" lon="11.015949528597655"><ele>96.0</ele><time>2026-05-01T12:34:11.931Z</time></trkpt><trkpt lat="43.93784464559425" lon="11.015935318092877"><ele>96.0</ele><time>2026-05-01T12:34:12.931Z</time></trkpt><trkpt lat="43.93772840695287" lon="11.01592029518061"><ele>96.0</ele><time>2026-05-01T12:34:13.93Z</time></trkpt><trkpt lat="43.93761579438926" lon="11.01590903151616"><ele>96.0</ele><time>2026-05-01T12:34:14.93Z</time></trkpt><trkpt lat="43.93750166993672" lon="11.015898966302943"><ele>95.6</ele><time>2026-05-01T12:34:15.93Z</time></trkpt><trkpt lat="43.93739358822255" lon="11.015885076068786"><ele>95.19999999999999</ele><time>2026-05-01T12:34:16.929Z</time></trkpt><trkpt lat="43.93728845123457" lon="11.01587116251243"><ele>94.80000000000001</ele><time>2026-05-01T12:34:17.929Z</time></trkpt><trkpt lat="43.93718293954638" lon="11.015859796186358"><ele>94.4</ele><time>2026-05-01T12:34:18.929Z</time></trkpt><trkpt lat="43.93707186148643" lon="11.015840405461155"><ele>94.0</ele><time>2026-05-01T12:34:19.928Z</time></trkpt><trkpt lat="43.93696080334687" lon="11.015817165233434"><ele>94.0</ele><time>2026-05-01T12:34:20.928Z</time></trkpt><trkpt lat="43.936847154414856" lon="11.015796683436395"><ele>94.0</ele><time>2026-05-01T12:34:21.928Z</time></trkpt><trkpt lat="43.93674445182286" lon="11.015771417554653"><ele>94.0</ele><time>2026-05-01T12:34:22.928Z</time></trkpt><trkpt lat="43.93666267096775" lon="11.015754554065138"><ele>94.0</ele><time>2026-05-01T12:34:23.928Z</time></trkpt><trkpt lat="43.93656574530462" lon="11.015718603756971"><ele>94.0</ele><time>2026-05-01T12:34:25.927Z</time></trkpt><trkpt lat="43.936435101961216" lon="11.015662698994069"><ele>94.0</ele><time>2026-05-01T12:34:27.927Z</time></trkpt><trkpt lat="43.93633693370611" lon="11.015657619020827"><ele>94.0</ele><time>2026-05-01T12:34:28.927Z</time></trkpt><trkpt lat="43.936232488856554" lon="11.015653973776757"><ele>94.0</ele><time>2026-05-01T12:34:29.927Z</time></trkpt><trkpt lat="43.93611670252097" lon="11.015640113590878"><ele>94.0</ele><time>2026-05-01T12:34:30.926Z</time></trkpt><trkpt lat="43.936001001469904" lon="11.015623166269291"><ele>94.0</ele><time>2026-05-01T12:34:31.926Z</time></trkpt><trkpt lat="43.93586721742329" lon="11.015621418448768"><ele>93.0</ele><time>2026-05-01T12:34:32.926Z</time></trkpt><trkpt lat="43.935746607421514" lon="11.0156025750023"><ele>92.0</ele><time>2026-05-01T12:34:33.926Z</time></trkpt><trkpt lat="43.93561470857867" lon="11.015578594663513"><ele>91.0</ele><time>2026-05-01T12:34:34.926Z</time></trkpt><trkpt lat="43.93554979597126" lon="11.015551022866926"><ele>90.0</ele><time>2026-05-01T12:34:35.926Z</time></trkpt><trkpt lat="43.93542621161849" lon="11.015568083536156"><ele>89.0</ele><time>2026-05-01T12:34:37.926Z</time></trkpt><trkpt lat="43.935315629024" lon="11.015556265526119"><ele>89.0</ele><time>2026-05-01T12:34:38.926Z</time></trkpt><trkpt lat="43.93521257360444" lon="11.015556966393056"><ele>89.0</ele><time>2026-05-01T12:34:39.925Z</time></trkpt><trkpt lat="43.935132953713236" lon="11.015542741330092"><ele>89.0</ele><time>2026-05-01T12:34:40.925Z</time></trkpt><trkpt lat="43.93505507985169" lon="11.015538619457198"><ele>89.0</ele><time>2026-05-01T12:34:41.925Z</time></trkpt><trkpt lat="43.93495747674972" lon="11.015540728941312"><ele>89.0</ele><time>2026-05-01T12:34:43.925Z</time></trkpt><trkpt lat="43.93488501006527" lon="11.015528385537182"><ele>89.0</ele><time>2026-05-01T12:34:45.925Z</time></trkpt><trkpt lat="43.9349035242664" lon="11.015298896623898"><ele>88.25</ele><time>2026-05-01T12:34:46.925Z</time></trkpt><trkpt lat="43.93491458126041" lon="11.015139786846166"><ele>87.5</ele><time>2026-05-01T12:34:47.925Z</time></trkpt><trkpt lat="43.93489504473474" lon="11.014948509185846"><ele>86.75</ele><time>2026-05-01T12:34:48.925Z</time></trkpt><trkpt lat="43.934882955644945" lon="11.014753253659986"><ele>86.0</ele><time>2026-05-01T12:34:49.925Z</time></trkpt><trkpt lat="43.934893554837345" lon="11.014575126653849"><ele>85.75</ele><time>2026-05-01T12:34:50.925Z</time></trkpt><trkpt lat="43.93489182008021" lon="11.014379520450646"><ele>85.5</ele><time>2026-05-01T12:34:51.925Z</time></trkpt><trkpt lat="43.93488941139066" lon="11.014182962823748"><ele>85.25</ele><time>2026-05-01T12:34:52.925Z</time></trkpt><trkpt lat="43.934873891274385" lon="11.01399267086681"><ele>85.0</ele><time>2026-05-01T12:34:53.925Z</time></trkpt><trkpt lat="43.93487304943271" lon="11.013781262356385"><ele>85.66666666666666</ele><time>2026-05-01T12:34:54.925Z</time></trkpt><trkpt lat="43.93486362518075" lon="11.01356088299507"><ele>86.33333333333333</ele><time>2026-05-01T12:34:55.925Z</time></trkpt><trkpt lat="43.934862347011496" lon="11.013340678242274"><ele>87.0</ele><time>2026-05-01T12:34:56.925Z</time></trkpt><trkpt lat="43.934860351863406" lon="11.01311391208299"><ele>87.0</ele><time>2026-05-01T12:34:57.925Z</time></trkpt><trkpt lat="43.934857316530575" lon="11.012887977645512"><ele>87.0</ele><time>2026-05-01T12:34:58.925Z</time></trkpt><trkpt lat="43.93485345516591" lon="11.012653140231025"><ele>87.0</ele><time>2026-05-01T12:34:59.925Z</time></trkpt><trkpt lat="43.93485753517007" lon="11.012416652840066"><ele>86.33333333333333</ele><time>2026-05-01T12:35:00.925Z</time></trkpt><trkpt lat="43.93485016640941" lon="11.01216409479287"><ele>85.66666666666666</ele><time>2026-05-01T12:35:01.925Z</time></trkpt><trkpt lat="43.93483754301425" lon="11.011903328009288"><ele>85.0</ele><time>2026-05-01T12:35:02.925Z</time></trkpt><trkpt lat="43.934851012264794" lon="11.01166335446084"><ele>84.25</ele><time>2026-05-01T12:35:03.924Z</time></trkpt><trkpt lat="43.934838521272646" lon="11.011462002980018"><ele>83.5</ele><time>2026-05-01T12:35:04.924Z</time></trkpt><trkpt lat="43.93484553317184" lon="11.011313061336605"><ele>82.75</ele><time>2026-05-01T12:35:05.924Z</time></trkpt><trkpt lat="43.9348452512442" lon="11.011150590538705"><ele>82.0</ele><time>2026-05-01T12:35:06.924Z</time></trkpt><trkpt lat="43.934845774806966" lon="11.010975672377024"><ele>81.75</ele><time>2026-05-01T12:35:07.924Z</time></trkpt><trkpt lat="43.934843336041" lon="11.010793957689444"><ele>81.5</ele><time>2026-05-01T12:35:08.924Z</time></trkpt><trkpt lat="43.93483681714896" lon="11.010595417176289"><ele>81.25</ele><time>2026-05-01T12:35:09.924Z</time></trkpt><trkpt lat="43.9348300270701" lon="11.010388173315485"><ele>81.0</ele><time>2026-05-01T12:35:10.924Z</time></trkpt><trkpt lat="43.93482838243812" lon="11.01016592406328"><ele>81.33333333333333</ele><time>2026-05-01T12:35:11.924Z</time></trkpt><trkpt lat="43.9348221393956" lon="11.00992353578743"><ele>81.66666666666666</ele><time>2026-05-01T12:35:12.924Z</time></trkpt><trkpt lat="43.934820002152044" lon="11.009677047095147"><ele>82.0</ele><time>2026-05-01T12:35:13.924Z</time></trkpt><trkpt lat="43.934809253188796" lon="11.009431070461359"><ele>82.0</ele><time>2026-05-01T12:35:14.924Z</time></trkpt><trkpt lat="43.934804569120885" lon="11.009194117823888"><ele>82.0</ele><time>2026-05-01T12:35:15.924Z</time></trkpt><trkpt lat="43.93479652229125" lon="11.008941173643446"><ele>82.0</ele><time>2026-05-01T12:35:16.924Z</time></trkpt><trkpt lat="43.934786228166075" lon="11.008678259732934"><ele>81.0</ele><time>2026-05-01T12:35:17.924Z</time></trkpt><trkpt lat="43.934785648556556" lon="11.00840671510533"><ele>80.0</ele><time>2026-05-01T12:35:18.924Z</time></trkpt><trkpt lat="43.934775294620316" lon="11.008139401914189"><ele>79.0</ele><time>2026-05-01T12:35:19.924Z</time></trkpt><trkpt lat="43.93476970768674" lon="11.007879390404856"><ele>78.0</ele><time>2026-05-01T12:35:20.924Z</time></trkpt><trkpt lat="43.93476720597512" lon="11.007618593897401"><ele>77.0</ele><time>2026-05-01T12:35:21.924Z</time></trkpt><trkpt lat="43.93476195907172" lon="11.007367071705481"><ele>76.0</ele><time>2026-05-01T12:35:22.923Z</time></trkpt><trkpt lat="43.9347596000527" lon="11.007127881982754"><ele>76.0</ele><time>2026-05-01T12:35:23.923Z</time></trkpt><trkpt lat="43.934758799165245" lon="11.006893764574913"><ele>76.0</ele><time>2026-05-01T12:35:24.923Z</time></trkpt><trkpt lat="43.93475440078722" lon="11.006652747186266"><ele>76.0</ele><time>2026-05-01T12:35:25.922Z</time></trkpt><trkpt lat="43.93475036697202" lon="11.006400542495651"><ele>76.33333333333333</ele><time>2026-05-01T12:35:26.923Z</time></trkpt><trkpt lat="43.93474544837037" lon="11.006146144863626"><ele>76.66666666666667</ele><time>2026-05-01T12:35:27.923Z</time></trkpt><trkpt lat="43.93473858929258" lon="11.005886119194844"><ele>77.0</ele><time>2026-05-01T12:35:28.923Z</time></trkpt><trkpt lat="43.93473261894639" lon="11.005630688831392"><ele>77.0</ele><time>2026-05-01T12:35:29.923Z</time></trkpt><trkpt lat="43.93472697766061" lon="11.005377322327135"><ele>77.0</ele><time>2026-05-01T12:35:30.923Z</time></trkpt><trkpt lat="43.9347258581773" lon="11.005121257593743"><ele>77.0</ele><time>2026-05-01T12:35:31.923Z</time></trkpt><trkpt lat="43.93472353987676" lon="11.004859964948214"><ele>76.66666666666667</ele><time>2026-05-01T12:35:32.922Z</time></trkpt><trkpt lat="43.934715767291095" lon="11.004602739198875"><ele>76.33333333333333</ele><time>2026-05-01T12:35:33.922Z</time></trkpt><trkpt lat="43.93471233554844" lon="11.004360845817153"><ele>76.0</ele><time>2026-05-01T12:35:34.923Z</time></trkpt><trkpt lat="43.93470934175661" lon="11.00412721142769"><ele>75.66666666666666</ele><time>2026-05-01T12:35:35.923Z</time></trkpt><trkpt lat="43.93470402050515" lon="11.003911504544924"><ele>75.33333333333333</ele><time>2026-05-01T12:35:36.923Z</time></trkpt><trkpt lat="43.93469666772938" lon="11.003700973618175"><ele>75.0</ele><time>2026-05-01T12:35:37.923Z</time></trkpt><trkpt lat="43.93468999299345" lon="11.003497016063074"><ele>75.0</ele><time>2026-05-01T12:35:38.923Z</time></trkpt><trkpt lat="43.93468605195616" lon="11.003297205402585"><ele>75.0</ele><time>2026-05-01T12:35:39.923Z</time></trkpt><trkpt lat="43.934680444144796" lon="11.003115471974338"><ele>75.0</ele><time>2026-05-01T12:35:40.923Z</time></trkpt><trkpt lat="43.934667957994506" lon="11.002956703120157"><ele>75.0</ele><time>2026-05-01T12:35:41.923Z</time></trkpt><trkpt lat="43.93460541915018" lon="11.002826112857445"><ele>75.0</ele><time>2026-05-01T12:35:42.923Z</time></trkpt><trkpt lat="43.93455672118635" lon="11.002702623909945"><ele>75.0</ele><time>2026-05-01T12:35:43.923Z</time></trkpt><trkpt lat="43.93464759464787" lon="11.002484664160598"><ele>75.0</ele><time>2026-05-01T12:35:44.923Z</time></trkpt><trkpt lat="43.93466783080546" lon="11.00228937957526"><ele>75.0</ele><time>2026-05-01T12:35:45.923Z</time></trkpt><trkpt lat="43.934661136136086" lon="11.002060198126028"><ele>75.33333333333333</ele><time>2026-05-01T12:35:46.923Z</time></trkpt><trkpt lat="43.93467229961329" lon="11.001805621787861"><ele>75.66666666666666</ele><time>2026-05-01T12:35:47.923Z</time></trkpt><trkpt lat="43.934670323534974" lon="11.001516724924343"><ele>76.0</ele><time>2026-05-01T12:35:48.923Z</time></trkpt><trkpt lat="43.9346662675053" lon="11.001215861899409"><ele>76.0</ele><time>2026-05-01T12:35:49.923Z</time></trkpt><trkpt lat="43.93464833061409" lon="11.000899370136674"><ele>76.0</ele><time>2026-05-01T12:35:50.923Z</time></trkpt><trkpt lat="43.93464319285004" lon="11.000579676730938"><ele>77.5</ele><time>2026-05-01T12:35:51.923Z</time></trkpt><trkpt lat="43.934637021738816" lon="11.00026140131127"><ele>79.0</ele><time>2026-05-01T12:35:52.923Z</time></trkpt><trkpt lat="43.93462788925327" lon="10.999941316413633"><ele>79.0</ele><time>2026-05-01T12:35:53.923Z</time></trkpt><trkpt lat="43.93462002153885" lon="10.999636385560006"><ele>79.0</ele><time>2026-05-01T12:35:54.923Z</time></trkpt><trkpt lat="43.93461658990554" lon="10.999346853071776"><ele>79.0</ele><time>2026-05-01T12:35:55.923Z</time></trkpt><trkpt lat="43.93461443234023" lon="10.999057027628345"><ele>80.0</ele><time>2026-05-01T12:35:56.923Z</time></trkpt><trkpt lat="43.934611262312906" lon="10.998768318214106"><ele>81.0</ele><time>2026-05-01T12:35:57.923Z</time></trkpt><trkpt lat="43.93460419925949" lon="10.99848372765378"><ele>82.0</ele><time>2026-05-01T12:35:58.923Z</time></trkpt><trkpt lat="43.934594648320875" lon="10.998205244038848"><ele>83.33333333333333</ele><time>2026-05-01T12:35:59.923Z</time></trkpt><trkpt lat="43.93459150037774" lon="10.997925434573435"><ele>84.66666666666667</ele><time>2026-05-01T12:36:00.923Z</time></trkpt><trkpt lat="43.934596751554466" lon="10.997662688386072"><ele>86.0</ele><time>2026-05-01T12:36:01.923Z</time></trkpt><trkpt lat="43.934597014103694" lon="10.997409528068887"><ele>86.0</ele><time>2026-05-01T12:36:02.923Z</time></trkpt><trkpt lat="43.93459999805216" lon="10.997156118257879"><ele>86.0</ele><time>2026-05-01T12:36:03.923Z</time></trkpt><trkpt lat="43.93460762833556" lon="10.996895203397074"><ele>86.0</ele><time>2026-05-01T12:36:04.923Z</time></trkpt><trkpt lat="43.93462441174227" lon="10.996638377558853"><ele>83.33333333333334</ele><time>2026-05-01T12:36:05.923Z</time></trkpt><trkpt lat="43.93465513039855" lon="10.996399447905528"><ele>80.66666666666667</ele><time>2026-05-01T12:36:06.923Z</time></trkpt><trkpt lat="43.93469771545508" lon="10.996170250385006"><ele>78.0</ele><time>2026-05-01T12:36:07.923Z</time></trkpt><trkpt lat="43.93474732862034" lon="10.995952189769545"><ele>76.0</ele><time>2026-05-01T12:36:08.923Z</time></trkpt><trkpt lat="43.934805648518754" lon="10.995740960928778"><ele>74.0</ele><time>2026-05-01T12:36:09.923Z</time></trkpt><trkpt lat="43.93486457438828" lon="10.995538237541103"><ele>72.0</ele><time>2026-05-01T12:36:10.923Z</time></trkpt><trkpt lat="43.934925340266325" lon="10.995339455793165"><ele>72.0</ele><time>2026-05-01T12:36:11.923Z</time></trkpt><trkpt lat="43.934993209487104" lon="10.995151008246497"><ele>72.0</ele><time>2026-05-01T12:36:12.923Z</time></trkpt><trkpt lat="43.93506266341332" lon="10.994971671002448"><ele>72.0</ele><time>2026-05-01T12:36:13.923Z</time></trkpt><trkpt lat="43.935135818280834" lon="10.994808833090959"><ele>72.0</ele><time>2026-05-01T12:36:14.923Z</time></trkpt><trkpt lat="43.93521604832599" lon="10.994651678166223"><ele>71.25</ele><time>2026-05-01T12:36:15.923Z</time></trkpt><trkpt lat="43.93529737315535" lon="10.9944960205107"><ele>70.5</ele><time>2026-05-01T12:36:16.923Z</time></trkpt><trkpt lat="43.93538288528133" lon="10.994345461717177"><ele>69.75</ele><time>2026-05-01T12:36:17.923Z</time></trkpt><trkpt lat="43.93547406201134" lon="10.994193744984546"><ele>69.0</ele><time>2026-05-01T12:36:18.923Z</time></trkpt><trkpt lat="43.93556741312967" lon="10.994061174091295"><ele>68.25</ele><time>2026-05-01T12:36:19.923Z</time></trkpt><trkpt lat="43.935666983932414" lon="10.993930988427987"><ele>67.5</ele><time>2026-05-01T12:36:20.923Z</time></trkpt><trkpt lat="43.93576262805038" lon="10.993811477288528"><ele>66.75</ele><time>2026-05-01T12:36:21.923Z</time></trkpt><trkpt lat="43.93586274800746" lon="10.993712822943198"><ele>66.0</ele><time>2026-05-01T12:36:22.923Z</time></trkpt><trkpt lat="43.935951009894715" lon="10.99360444082549"><ele>66.0</ele><time>2026-05-01T12:36:23.923Z</time></trkpt><trkpt lat="43.93603343402813" lon="10.993504014030723"><ele>66.0</ele><time>2026-05-01T12:36:24.923Z</time></trkpt><trkpt lat="43.93611844387523" lon="10.993404956981454"><ele>66.0</ele><time>2026-05-01T12:36:25.923Z</time></trkpt><trkpt lat="43.93620316584124" lon="10.993306235405582"><ele>66.0</ele><time>2026-05-01T12:36:26.923Z</time></trkpt><trkpt lat="43.93629550609461" lon="10.993198338955779"><ele>66.5</ele><time>2026-05-01T12:36:27.923Z</time></trkpt><trkpt lat="43.93639227698967" lon="10.993085128791355"><ele>67.0</ele><time>2026-05-01T12:36:28.923Z</time></trkpt><trkpt lat="43.93649080336889" lon="10.99296986479236"><ele>67.5</ele><time>2026-05-01T12:36:29.923Z</time></trkpt><trkpt lat="43.93658495427057" lon="10.992858090027735"><ele>68.0</ele><time>2026-05-01T12:36:30.923Z</time></trkpt><trkpt lat="43.936668975931916" lon="10.992756907152025"><ele>68.75</ele><time>2026-05-01T12:36:31.923Z</time></trkpt><trkpt lat="43.936751341684236" lon="10.992654562714597"><ele>69.5</ele><time>2026-05-01T12:36:32.923Z</time></trkpt><trkpt lat="43.93683277527251" lon="10.992550511787938"><ele>70.25</ele><time>2026-05-01T12:36:33.923Z</time></trkpt><trkpt lat="43.93691269732748" lon="10.992434317467772"><ele>71.0</ele><time>2026-05-01T12:36:34.923Z</time></trkpt><trkpt lat="43.936991638468285" lon="10.992314536571648"><ele>71.25</ele><time>2026-05-01T12:36:35.923Z</time></trkpt><trkpt lat="43.93707898583212" lon="10.992182000699584"><ele>71.5</ele><time>2026-05-01T12:36:36.923Z</time></trkpt><trkpt lat="43.937162497051474" lon="10.992055285391434"><ele>71.75</ele><time>2026-05-01T12:36:37.923Z</time></trkpt><trkpt lat="43.93725477145265" lon="10.991915273539407"><ele>72.0</ele><time>2026-05-01T12:36:38.923Z</time></trkpt><trkpt lat="43.937360483848146" lon="10.991754871384243"><ele>72.5</ele><time>2026-05-01T12:36:39.923Z</time></trkpt><trkpt lat="43.93750705100601" lon="10.99153025993811"><ele>73.0</ele><time>2026-05-01T12:36:40.923Z</time></trkpt><trkpt lat="43.93767640581008" lon="10.991269305475702"><ele>73.5</ele><time>2026-05-01T12:36:41.923Z</time></trkpt><trkpt lat="43.937839297608896" lon="10.991020202605727"><ele>74.0</ele><time>2026-05-01T12:36:42.923Z</time></trkpt><trkpt lat="43.93800028133769" lon="10.9907953170323"><ele>74.66666666666667</ele><time>2026-05-01T12:36:43.923Z</time></trkpt><trkpt lat="43.938147987037325" lon="10.990560960078229"><ele>75.33333333333333</ele><time>2026-05-01T12:36:44.923Z</time></trkpt><trkpt lat="43.938296362079896" lon="10.990328485319564"><ele>76.0</ele><time>2026-05-01T12:36:45.923Z</time></trkpt><trkpt lat="43.938431392053346" lon="10.990085397672827"><ele>81.0</ele><time>2026-05-01T12:36:46.923Z</time></trkpt><trkpt lat="43.93856797273384" lon="10.989836168404954"><ele>86.0</ele><time>2026-05-01T12:36:47.923Z</time></trkpt><trkpt lat="43.93868084753403" lon="10.98956385554829"><ele>86.0</ele><time>2026-05-01T12:36:48.923Z</time></trkpt><trkpt lat="43.938779931564646" lon="10.989288613442142"><ele>86.0</ele><time>2026-05-01T12:36:49.923Z</time></trkpt><trkpt lat="43.93887769317999" lon="10.989015296007723"><ele>86.0</ele><time>2026-05-01T12:36:50.923Z</time></trkpt><trkpt lat="43.938977043494944" lon="10.988737335014731"><ele>85.33333333333334</ele><time>2026-05-01T12:36:51.923Z</time></trkpt><trkpt lat="43.93908012624223" lon="10.988452963549959"><ele>84.66666666666667</ele><time>2026-05-01T12:36:52.923Z</time></trkpt><trkpt lat="43.93917462733125" lon="10.988178814504472"><ele>84.0</ele><time>2026-05-01T12:36:53.923Z</time></trkpt><trkpt lat="43.93926730655032" lon="10.98789712806861"><ele>83.5</ele><time>2026-05-01T12:36:54.923Z</time></trkpt><trkpt lat="43.93936230272224" lon="10.9876074996222"><ele>83.0</ele><time>2026-05-01T12:36:55.923Z</time></trkpt><trkpt lat="43.939463429896776" lon="10.987313866081868"><ele>82.5</ele><time>2026-05-01T12:36:56.923Z</time></trkpt><trkpt lat="43.9395639136908" lon="10.987028174275112"><ele>82.0</ele><time>2026-05-01T12:36:57.922Z</time></trkpt><trkpt lat="43.93966157205854" lon="10.986745682043539"><ele>82.0</ele><time>2026-05-01T12:36:58.922Z</time></trkpt><trkpt lat="43.93975482973108" lon="10.986476161821905"><ele>82.0</ele><time>2026-05-01T12:36:59.922Z</time></trkpt><trkpt lat="43.93985427196446" lon="10.986195431675153"><ele>82.0</ele><time>2026-05-01T12:37:00.922Z</time></trkpt><trkpt lat="43.93995019799578" lon="10.985914099300299"><ele>85.5</ele><time>2026-05-01T12:37:01.922Z</time></trkpt><trkpt lat="43.94006180348126" lon="10.98561681163047"><ele>89.0</ele><time>2026-05-01T12:37:02.922Z</time></trkpt><trkpt lat="43.940168329548" lon="10.985281968791224"><ele>89.5</ele><time>2026-05-01T12:37:03.922Z</time></trkpt><trkpt lat="43.94027604039952" lon="10.984965425513106"><ele>90.0</ele><time>2026-05-01T12:37:04.922Z</time></trkpt><trkpt lat="43.94037529553449" lon="10.98466639757359"><ele>90.0</ele><time>2026-05-01T12:37:05.922Z</time></trkpt><trkpt lat="43.94047054988347" lon="10.984363018109299"><ele>90.0</ele><time>2026-05-01T12:37:06.922Z</time></trkpt><trkpt lat="43.94056270490228" lon="10.984050549503166"><ele>89.0</ele><time>2026-05-01T12:37:07.922Z</time></trkpt><trkpt lat="43.940656913050425" lon="10.9837439509192"><ele>88.0</ele><time>2026-05-01T12:37:08.922Z</time></trkpt><trkpt lat="43.94075254482558" lon="10.983436245420219"><ele>88.5</ele><time>2026-05-01T12:37:09.922Z</time></trkpt><trkpt lat="43.94084962969934" lon="10.983123611125189"><ele>89.0</ele><time>2026-05-01T12:37:10.922Z</time></trkpt><trkpt lat="43.940954860026025" lon="10.982829568594518"><ele>91.0</ele><time>2026-05-01T12:37:11.922Z</time></trkpt><trkpt lat="43.94105130225358" lon="10.98254423214931"><ele>93.0</ele><time>2026-05-01T12:37:12.922Z</time></trkpt><trkpt lat="43.94114140639313" lon="10.982257519230934"><ele>93.0</ele><time>2026-05-01T12:37:13.922Z</time></trkpt><trkpt lat="43.9412406028765" lon="10.981993720979277"><ele>93.0</ele><time>2026-05-01T12:37:14.922Z</time></trkpt><trkpt lat="43.94132687934588" lon="10.981732298774931"><ele>93.0</ele><time>2026-05-01T12:37:15.922Z</time></trkpt><trkpt lat="43.94140652045095" lon="10.981462475301702"><ele>93.66666666666667</ele><time>2026-05-01T12:37:16.922Z</time></trkpt><trkpt lat="43.94148872062469" lon="10.981181441474359"><ele>94.33333333333334</ele><time>2026-05-01T12:37:17.922Z</time></trkpt><trkpt lat="43.94157664081969" lon="10.980893645746646"><ele>95.0</ele><time>2026-05-01T12:37:18.922Z</time></trkpt><trkpt lat="43.94166932866329" lon="10.98061537614814"><ele>101.0</ele><time>2026-05-01T12:37:19.922Z</time></trkpt><trkpt lat="43.94176532130192" lon="10.9803320246541"><ele>107.0</ele><time>2026-05-01T12:37:20.922Z</time></trkpt><trkpt lat="43.94186054356878" lon="10.98004683662302"><ele>106.66666666666666</ele><time>2026-05-01T12:37:21.922Z</time></trkpt><trkpt lat="43.94195918696336" lon="10.979759587310646"><ele>106.33333333333334</ele><time>2026-05-01T12:37:22.922Z</time></trkpt><trkpt lat="43.94206053612435" lon="10.97948813602961"><ele>106.0</ele><time>2026-05-01T12:37:23.922Z</time></trkpt><trkpt lat="43.94215946355241" lon="10.979236540688778"><ele>103.66666666666667</ele><time>2026-05-01T12:37:24.922Z</time></trkpt><trkpt lat="43.94225429213487" lon="10.97897203268433"><ele>101.33333333333334</ele><time>2026-05-01T12:37:25.922Z</time></trkpt><trkpt lat="43.942356663316986" lon="10.978702134109739"><ele>99.0</ele><time>2026-05-01T12:37:26.922Z</time></trkpt><trkpt lat="43.94245601661162" lon="10.978436839205433"><ele>97.66666666666667</ele><time>2026-05-01T12:37:27.922Z</time></trkpt><trkpt lat="43.94254420364083" lon="10.978166138052485"><ele>96.33333333333334</ele><time>2026-05-01T12:37:28.92Z</time></trkpt><trkpt lat="43.942615527415896" lon="10.977887986622328"><ele>95.0</ele><time>2026-05-01T12:37:29.92Z</time></trkpt><trkpt lat="43.94265259336852" lon="10.977601958418987"><ele>97.66666666666667</ele><time>2026-05-01T12:37:30.92Z</time></trkpt><trkpt lat="43.94266682951267" lon="10.97731584670155"><ele>100.33333333333334</ele><time>2026-05-01T12:37:31.92Z</time></trkpt><trkpt lat="43.94266383615555" lon="10.977042033196495"><ele>103.0</ele><time>2026-05-01T12:37:32.921Z</time></trkpt><trkpt lat="43.942632523520814" lon="10.976765556819544"><ele>100.33333333333334</ele><time>2026-05-01T12:37:33.921Z</time></trkpt><trkpt lat="43.94258945460482" lon="10.976481942101888"><ele>97.66666666666667</ele><time>2026-05-01T12:37:34.921Z</time></trkpt><trkpt lat="43.942563270799" lon="10.976149491957154"><ele>95.0</ele><time>2026-05-01T12:37:35.92Z</time></trkpt><trkpt lat="43.94251813676772" lon="10.975881786282248"><ele>94.0</ele><time>2026-05-01T12:37:36.92Z</time></trkpt><trkpt lat="43.94249027360765" lon="10.975622415562663"><ele>93.0</ele><time>2026-05-01T12:37:37.921Z</time></trkpt><trkpt lat="43.9424796718351" lon="10.97536374760735"><ele>92.0</ele><time>2026-05-01T12:37:38.92Z</time></trkpt><trkpt lat="43.94250717274778" lon="10.975096165043146"><ele>91.66666666666667</ele><time>2026-05-01T12:37:39.92Z</time></trkpt><trkpt lat="43.942545170402134" lon="10.974818933491823"><ele>91.33333333333333</ele><time>2026-05-01T12:37:40.921Z</time></trkpt><trkpt lat="43.942585985831016" lon="10.97453130681205"><ele>91.0</ele><time>2026-05-01T12:37:41.92Z</time></trkpt><trkpt lat="43.942615472712674" lon="10.974231723798047"><ele>91.33333333333333</ele><time>2026-05-01T12:37:42.92Z</time></trkpt><trkpt lat="43.94265372392138" lon="10.973935515699113"><ele>91.66666666666667</ele><time>2026-05-01T12:37:43.92Z</time></trkpt><trkpt lat="43.9427077286301" lon="10.973665436486478"><ele>92.0</ele><time>2026-05-01T12:37:44.92Z</time></trkpt><trkpt lat="43.9427405037148" lon="10.973383864382127"><ele>91.66666666666667</ele><time>2026-05-01T12:37:45.92Z</time></trkpt><trkpt lat="43.94276560705917" lon="10.973099089044407"><ele>91.33333333333333</ele><time>2026-05-01T12:37:46.92Z</time></trkpt><trkpt lat="43.942792099938025" lon="10.972815457919198"><ele>91.0</ele><time>2026-05-01T12:37:47.92Z</time></trkpt><trkpt lat="43.942801785308404" lon="10.972523671895237"><ele>91.0</ele><time>2026-05-01T12:37:48.92Z</time></trkpt><trkpt lat="43.94280968281347" lon="10.972225601763041"><ele>91.0</ele><time>2026-05-01T12:37:49.92Z</time></trkpt><trkpt lat="43.942815432581625" lon="10.97192755676801"><ele>91.0</ele><time>2026-05-01T12:37:50.92Z</time></trkpt><trkpt lat="43.942818419471664" lon="10.97165303081179"><ele>91.0</ele><time>2026-05-01T12:37:51.92Z</time></trkpt><trkpt lat="43.94281530452423" lon="10.971395314478828"><ele>91.0</ele><time>2026-05-01T12:37:52.92Z</time></trkpt><trkpt lat="43.942791674405626" lon="10.971153127447323"><ele>91.0</ele><time>2026-05-01T12:37:53.92Z</time></trkpt><trkpt lat="43.94273716470911" lon="10.970943471780297"><ele>91.75</ele><time>2026-05-01T12:37:54.92Z</time></trkpt><trkpt lat="43.94265261488649" lon="10.97076065970745"><ele>92.5</ele><time>2026-05-01T12:37:55.92Z</time></trkpt><trkpt lat="43.942558565275455" lon="10.970605113603206"><ele>93.25</ele><time>2026-05-01T12:37:56.92Z</time></trkpt><trkpt lat="43.94246954708066" lon="10.970459929060715"><ele>94.0</ele><time>2026-05-01T12:37:57.92Z</time></trkpt><trkpt lat="43.942381935205205" lon="10.970370686077501"><ele>92.5</ele><time>2026-05-01T12:37:58.92Z</time></trkpt><trkpt lat="43.94230200461518" lon="10.970181841370287"><ele>91.0</ele><time>2026-05-01T12:37:59.92Z</time></trkpt><trkpt lat="43.94224863700211" lon="10.970026483246551"><ele>89.5</ele><time>2026-05-01T12:38:00.92Z</time></trkpt><trkpt lat="43.94222189139243" lon="10.969868882681084"><ele>88.0</ele><time>2026-05-01T12:38:01.92Z</time></trkpt><trkpt lat="43.94220471610957" lon="10.969696077178945"><ele>88.0</ele><time>2026-05-01T12:38:02.92Z</time></trkpt><trkpt lat="43.94219264253783" lon="10.969495674943909"><ele>88.0</ele><time>2026-05-01T12:38:03.92Z</time></trkpt><trkpt lat="43.94216954638359" lon="10.969241173035252"><ele>88.0</ele><time>2026-05-01T12:38:04.92Z</time></trkpt><trkpt lat="43.94216659145101" lon="10.96893101064849"><ele>88.0</ele><time>2026-05-01T12:38:05.92Z</time></trkpt><trkpt lat="43.942184998301094" lon="10.96860888010642"><ele>88.0</ele><time>2026-05-01T12:38:06.92Z</time></trkpt><trkpt lat="43.94227550863129" lon="10.968315155063344"><ele>88.0</ele><time>2026-05-01T12:38:07.92Z</time></trkpt><trkpt lat="43.942385586397876" lon="10.968030533368943"><ele>88.0</ele><time>2026-05-01T12:38:08.92Z</time></trkpt><trkpt lat="43.94248022364034" lon="10.967756177874888"><ele>90.0</ele><time>2026-05-01T12:38:09.92Z</time></trkpt><trkpt lat="43.94257995856283" lon="10.967507429434866"><ele>92.0</ele><time>2026-05-01T12:38:10.92Z</time></trkpt><trkpt lat="43.942639353955656" lon="10.96724167337307"><ele>94.0</ele><time>2026-05-01T12:38:11.92Z</time></trkpt><trkpt lat="43.94267239915027" lon="10.966950634208423"><ele>95.0</ele><time>2026-05-01T12:38:12.92Z</time></trkpt><trkpt lat="43.94269402765449" lon="10.966656202317822"><ele>96.0</ele><time>2026-05-01T12:38:13.92Z</time></trkpt><trkpt lat="43.942716099357185" lon="10.96634981729891"><ele>97.0</ele><time>2026-05-01T12:38:14.92Z</time></trkpt><trkpt lat="43.94275282943395" lon="10.96606397953188"><ele>96.33333333333334</ele><time>2026-05-01T12:38:15.92Z</time></trkpt><trkpt lat="43.94278558705375" lon="10.965790518628092"><ele>95.66666666666667</ele><time>2026-05-01T12:38:16.92Z</time></trkpt><trkpt lat="43.94281848617546" lon="10.965514387664362"><ele>95.0</ele><time>2026-05-01T12:38:17.92Z</time></trkpt><trkpt lat="43.94282773950827" lon="10.965237462159314"><ele>94.66666666666667</ele><time>2026-05-01T12:38:18.92Z</time></trkpt><trkpt lat="43.94280080709415" lon="10.964946442900501"><ele>94.33333333333333</ele><time>2026-05-01T12:38:19.92Z</time></trkpt><trkpt lat="43.942740964223816" lon="10.964652592039057"><ele>94.0</ele><time>2026-05-01T12:38:20.92Z</time></trkpt><trkpt lat="43.942667495917455" lon="10.96434745522855"><ele>95.0</ele><time>2026-05-01T12:38:21.92Z</time></trkpt><trkpt lat="43.94260022826743" lon="10.964049881523168"><ele>96.0</ele><time>2026-05-01T12:38:22.92Z</time></trkpt><trkpt lat="43.94253632665403" lon="10.9637499181501"><ele>92.0</ele><time>2026-05-01T12:38:23.92Z</time></trkpt><trkpt lat="43.94246907570447" lon="10.963436631397181"><ele>88.0</ele><time>2026-05-01T12:38:24.92Z</time></trkpt><trkpt lat="43.94239787941217" lon="10.963116710840369"><ele>88.0</ele><time>2026-05-01T12:38:25.92Z</time></trkpt><trkpt lat="43.94232598351563" lon="10.962793506519223"><ele>88.0</ele><time>2026-05-01T12:38:26.92Z</time></trkpt><trkpt lat="43.942257017106066" lon="10.962463409911644"><ele>89.5</ele><time>2026-05-01T12:38:27.92Z</time></trkpt><trkpt lat="43.942183220381835" lon="10.962128783821951"><ele>91.0</ele><time>2026-05-01T12:38:28.92Z</time></trkpt><trkpt lat="43.94210765688961" lon="10.961794200838375"><ele>92.0</ele><time>2026-05-01T12:38:29.92Z</time></trkpt><trkpt lat="43.94205159826447" lon="10.961455806487393"><ele>93.0</ele><time>2026-05-01T12:38:30.92Z</time></trkpt><trkpt lat="43.941969864201596" lon="10.961140318399206"><ele>93.66666666666667</ele><time>2026-05-01T12:38:31.92Z</time></trkpt><trkpt lat="43.94190960114732" lon="10.96084465362943"><ele>94.33333333333334</ele><time>2026-05-01T12:38:32.92Z</time></trkpt><trkpt lat="43.94184940189822" lon="10.960563895551214"><ele>95.0</ele><time>2026-05-01T12:38:33.92Z</time></trkpt><trkpt lat="43.9418058997999" lon="10.960291712469662"><ele>95.0</ele><time>2026-05-01T12:38:34.92Z</time></trkpt><trkpt lat="43.941752938737736" lon="10.960040777337467"><ele>95.0</ele><time>2026-05-01T12:38:35.92Z</time></trkpt><trkpt lat="43.9416893480797" lon="10.959817203836918"><ele>95.0</ele><time>2026-05-01T12:38:36.92Z</time></trkpt><trkpt lat="43.94165527530691" lon="10.959581708816858"><ele>92.75</ele><time>2026-05-01T12:38:37.92Z</time></trkpt><trkpt lat="43.941620096828764" lon="10.959373674761535"><ele>90.5</ele><time>2026-05-01T12:38:38.92Z</time></trkpt><trkpt lat="43.94160122932241" lon="10.959165979095875"><ele>88.25</ele><time>2026-05-01T12:38:39.92Z</time></trkpt><trkpt lat="43.94160311133283" lon="10.958974857467124"><ele>86.0</ele><time>2026-05-01T12:38:40.92Z</time></trkpt><trkpt lat="43.941604993339745" lon="10.958814284422587"><ele>86.0</ele><time>2026-05-01T12:38:41.92Z</time></trkpt><trkpt lat="43.94160462967244" lon="10.9586569369761"><ele>86.0</ele><time>2026-05-01T12:38:42.92Z</time></trkpt><trkpt lat="43.941612013262436" lon="10.958511758893692"><ele>86.0</ele><time>2026-05-01T12:38:43.92Z</time></trkpt><trkpt lat="43.94161980329815" lon="10.958397457667171"><ele>86.0</ele><time>2026-05-01T12:38:44.92Z</time></trkpt><trkpt lat="43.94161956260232" lon="10.958304317769336"><ele>86.0</ele><time>2026-05-01T12:38:45.92Z</time></trkpt><trkpt lat="43.94162233819487" lon="10.958179983848046"><ele>86.5</ele><time>2026-05-01T12:38:47.92Z</time></trkpt><trkpt lat="43.94162175146501" lon="10.958063809058556"><ele>87.0</ele><time>2026-05-01T12:39:37.919Z</time></trkpt><trkpt lat="43.941631631420435" lon="10.957865830505972"><ele>87.5</ele><time>2026-05-01T12:39:39.919Z</time></trkpt><trkpt lat="43.94163552848561" lon="10.95769938860418"><ele>88.0</ele><time>2026-05-01T12:39:40.919Z</time></trkpt><trkpt lat="43.941640587196936" lon="10.957518114675667"><ele>88.0</ele><time>2026-05-01T12:39:41.919Z</time></trkpt><trkpt lat="43.94164332595469" lon="10.957336289743319"><ele>88.0</ele><time>2026-05-01T12:39:42.919Z</time></trkpt><trkpt lat="43.94165268379924" lon="10.957148558101062"><ele>88.0</ele><time>2026-05-01T12:39:43.919Z</time></trkpt><trkpt lat="43.94166580930557" lon="10.95695057998543"><ele>88.0</ele><time>2026-05-01T12:39:44.919Z</time></trkpt><trkpt lat="43.941681728062036" lon="10.956743806571776"><ele>87.33333333333333</ele><time>2026-05-01T12:39:45.918Z</time></trkpt><trkpt lat="43.941693524925704" lon="10.956526798636414"><ele>86.66666666666667</ele><time>2026-05-01T12:39:46.919Z</time></trkpt><trkpt lat="43.941724582907746" lon="10.956314866769102"><ele>86.0</ele><time>2026-05-01T12:39:47.919Z</time></trkpt><trkpt lat="43.94173459051079" lon="10.956091542682888"><ele>86.0</ele><time>2026-05-01T12:39:48.919Z</time></trkpt><trkpt lat="43.94174393408429" lon="10.955866007422609"><ele>86.0</ele><time>2026-05-01T12:39:49.919Z</time></trkpt><trkpt lat="43.94175868593262" lon="10.95563619968065"><ele>86.0</ele><time>2026-05-01T12:39:50.919Z</time></trkpt><trkpt lat="43.941768912083496" lon="10.955401066050197"><ele>86.0</ele><time>2026-05-01T12:39:51.919Z</time></trkpt><trkpt lat="43.94177900376295" lon="10.955163865614017"><ele>86.0</ele><time>2026-05-01T12:39:52.919Z</time></trkpt><trkpt lat="43.94179658481677" lon="10.95492195528298"><ele>86.0</ele><time>2026-05-01T12:39:53.919Z</time></trkpt><trkpt lat="43.941790043751084" lon="10.954660274182508"><ele>84.66666666666667</ele><time>2026-05-01T12:39:54.919Z</time></trkpt><trkpt lat="43.94178455400673" lon="10.954402438672043"><ele>83.33333333333333</ele><time>2026-05-01T12:39:55.918Z</time></trkpt><trkpt lat="43.94176555738606" lon="10.954162623312266"><ele>82.0</ele><time>2026-05-01T12:39:56.918Z</time></trkpt><trkpt lat="43.94174154124984" lon="10.953943806187345"><ele>81.25</ele><time>2026-05-01T12:39:57.918Z</time></trkpt><trkpt lat="43.94171570669337" lon="10.953741347206945"><ele>80.5</ele><time>2026-05-01T12:39:58.918Z</time></trkpt><trkpt lat="43.94169498653283" lon="10.95354816929027"><ele>79.75</ele><time>2026-05-01T12:39:59.918Z</time></trkpt><trkpt lat="43.94166910817504" lon="10.953360226054773"><ele>79.0</ele><time>2026-05-01T12:40:00.918Z</time></trkpt><trkpt lat="43.941645825801885" lon="10.953179886065383"><ele>79.0</ele><time>2026-05-01T12:40:01.918Z</time></trkpt><trkpt lat="43.94162686946122" lon="10.953007745212275"><ele>79.0</ele><time>2026-05-01T12:40:02.918Z</time></trkpt><trkpt lat="43.94161254294209" lon="10.952847465057856"><ele>79.0</ele><time>2026-05-01T12:40:03.918Z</time></trkpt><trkpt lat="43.94159249744832" lon="10.952711091930318"><ele>79.0</ele><time>2026-05-01T12:40:04.918Z</time></trkpt><trkpt lat="43.941581141096215" lon="10.95259682722228"><ele>79.0</ele><time>2026-05-01T12:40:05.918Z</time></trkpt><trkpt lat="43.94157226050213" lon="10.952492266833874"><ele>78.8</ele><time>2026-05-01T12:40:06.918Z</time></trkpt><trkpt lat="43.94156294389713" lon="10.952387804907199"><ele>78.60000000000001</ele><time>2026-05-01T12:40:08.918Z</time></trkpt><trkpt lat="43.941538210336276" lon="10.952264702248995"><ele>78.4</ele><time>2026-05-01T12:40:34.918Z</time></trkpt><trkpt lat="43.94150043934799" lon="10.952165951703842"><ele>78.2</ele><time>2026-05-01T12:40:35.918Z</time></trkpt><trkpt lat="43.94144974933517" lon="10.952050513682865"><ele>78.0</ele><time>2026-05-01T12:40:36.918Z</time></trkpt><trkpt lat="43.941408234434505" lon="10.951907834093843"><ele>78.0</ele><time>2026-05-01T12:40:37.918Z</time></trkpt><trkpt lat="43.94138798497582" lon="10.951758250131872"><ele>78.0</ele><time>2026-05-01T12:40:38.918Z</time></trkpt><trkpt lat="43.94139806516267" lon="10.951589678129675"><ele>78.0</ele><time>2026-05-01T12:40:39.918Z</time></trkpt><trkpt lat="43.94140294294146" lon="10.951401670590217"><ele>78.0</ele><time>2026-05-01T12:40:40.918Z</time></trkpt><trkpt lat="43.94140479922477" lon="10.951188982168922"><ele>78.66666666666667</ele><time>2026-05-01T12:40:41.918Z</time></trkpt><trkpt lat="43.94137135497486" lon="10.95099507880602"><ele>79.33333333333334</ele><time>2026-05-01T12:40:42.918Z</time></trkpt><trkpt lat="43.94135659524311" lon="10.950774221392251"><ele>80.0</ele><time>2026-05-01T12:40:43.918Z</time></trkpt><trkpt lat="43.94133601371031" lon="10.950537336895842"><ele>80.0</ele><time>2026-05-01T12:40:44.918Z</time></trkpt><trkpt lat="43.941317025907026" lon="10.950292612067171"><ele>80.0</ele><time>2026-05-01T12:40:45.918Z</time></trkpt><trkpt lat="43.9412967242181" lon="10.950044789900977"><ele>80.0</ele><time>2026-05-01T12:40:46.918Z</time></trkpt><trkpt lat="43.94127619413405" lon="10.949827416731827"><ele>80.0</ele><time>2026-05-01T12:40:47.918Z</time></trkpt><trkpt lat="43.94126002601441" lon="10.949620458469871"><ele>80.0</ele><time>2026-05-01T12:40:48.918Z</time></trkpt><trkpt lat="43.941250761571254" lon="10.949427601124414"><ele>80.0</ele><time>2026-05-01T12:40:49.918Z</time></trkpt><trkpt lat="43.94124578252206" lon="10.949237510462977"><ele>80.0</ele><time>2026-05-01T12:40:50.918Z</time></trkpt><trkpt lat="43.94124461819998" lon="10.949061847408089"><ele>79.8</ele><time>2026-05-01T12:40:51.918Z</time></trkpt><trkpt lat="43.941239390417635" lon="10.948898015096157"><ele>79.6</ele><time>2026-05-01T12:40:52.918Z</time></trkpt><trkpt lat="43.941233574333566" lon="10.948744710934921"><ele>79.4</ele><time>2026-05-01T12:40:53.918Z</time></trkpt><trkpt lat="43.94123054687384" lon="10.94859855423819"><ele>79.2</ele><time>2026-05-01T12:40:54.918Z</time></trkpt><trkpt lat="43.94122943424377" lon="10.948458967774934"><ele>79.0</ele><time>2026-05-01T12:40:55.918Z</time></trkpt><trkpt lat="43.941228782501184" lon="10.948318490362322"><ele>78.8</ele><time>2026-05-01T12:40:56.918Z</time></trkpt><trkpt lat="43.941227385073354" lon="10.948181758896176"><ele>78.60000000000001</ele><time>2026-05-01T12:40:57.918Z</time></trkpt><trkpt lat="43.94122944248724" lon="10.948052390531268"><ele>78.4</ele><time>2026-05-01T12:40:58.918Z</time></trkpt><trkpt lat="43.94123454176963" lon="10.947925747521015"><ele>78.2</ele><time>2026-05-01T12:40:59.918Z</time></trkpt><trkpt lat="43.94123758691693" lon="10.94779646219993"><ele>78.0</ele><time>2026-05-01T12:41:00.918Z</time></trkpt><trkpt lat="43.941266489257806" lon="10.947646889529796"><ele>78.0</ele><time>2026-05-01T12:41:01.918Z</time></trkpt><trkpt lat="43.941269815410735" lon="10.947477030641158"><ele>78.0</ele><time>2026-05-01T12:41:02.918Z</time></trkpt><trkpt lat="43.94127238465356" lon="10.9472847149528"><ele>78.0</ele><time>2026-05-01T12:41:03.918Z</time></trkpt><trkpt lat="43.94127210039911" lon="10.947070029366575"><ele>78.0</ele><time>2026-05-01T12:41:04.918Z</time></trkpt><trkpt lat="43.941257770199925" lon="10.946832770977316"><ele>78.0</ele><time>2026-05-01T12:41:05.918Z</time></trkpt><trkpt lat="43.94125693189209" lon="10.946613042094468"><ele>78.0</ele><time>2026-05-01T12:41:06.918Z</time></trkpt><trkpt lat="43.94125361808069" lon="10.94638972497434"><ele>78.0</ele><time>2026-05-01T12:41:07.918Z</time></trkpt><trkpt lat="43.941246794020486" lon="10.946159322208443"><ele>78.0</ele><time>2026-05-01T12:41:08.918Z</time></trkpt><trkpt lat="43.94124614647639" lon="10.945923628933558"><ele>78.0</ele><time>2026-05-01T12:41:09.918Z</time></trkpt><trkpt lat="43.94123723235958" lon="10.945678613235192"><ele>78.0</ele><time>2026-05-01T12:41:10.918Z</time></trkpt><trkpt lat="43.941227703411734" lon="10.945442671208438"><ele>78.0</ele><time>2026-05-01T12:41:11.918Z</time></trkpt><trkpt lat="43.94122842633817" lon="10.945220053387565"><ele>78.0</ele><time>2026-05-01T12:41:12.918Z</time></trkpt><trkpt lat="43.94121767398394" lon="10.94497935089465"><ele>78.0</ele><time>2026-05-01T12:41:13.918Z</time></trkpt><trkpt lat="43.941199546764395" lon="10.94473599456435"><ele>77.66666666666667</ele><time>2026-05-01T12:41:14.918Z</time></trkpt><trkpt lat="43.94117286173953" lon="10.944481332198373"><ele>77.33333333333334</ele><time>2026-05-01T12:41:15.918Z</time></trkpt><trkpt lat="43.94113235730524" lon="10.944230499705755"><ele>77.0</ele><time>2026-05-01T12:41:16.918Z</time></trkpt><trkpt lat="43.941088369770334" lon="10.943981019041653"><ele>77.0</ele><time>2026-05-01T12:41:17.918Z</time></trkpt><trkpt lat="43.941041861845115" lon="10.943751961076572"><ele>77.0</ele><time>2026-05-01T12:41:18.918Z</time></trkpt><trkpt lat="43.941001627126596" lon="10.943531676126641"><ele>77.0</ele><time>2026-05-01T12:41:19.918Z</time></trkpt><trkpt lat="43.94097772398396" lon="10.943316943088437"><ele>77.33333333333334</ele><time>2026-05-01T12:41:20.918Z</time></trkpt><trkpt lat="43.9409523971109" lon="10.943106606870188"><ele>77.66666666666667</ele><time>2026-05-01T12:41:21.918Z</time></trkpt><trkpt lat="43.94093475562232" lon="10.942891476794859"><ele>78.0</ele><time>2026-05-01T12:41:22.918Z</time></trkpt><trkpt lat="43.94093249841034" lon="10.942678258081365"><ele>77.0</ele><time>2026-05-01T12:41:23.918Z</time></trkpt><trkpt lat="43.94094147923958" lon="10.942460287048338"><ele>76.0</ele><time>2026-05-01T12:41:24.918Z</time></trkpt><trkpt lat="43.94094568797552" lon="10.942250866500132"><ele>75.0</ele><time>2026-05-01T12:41:25.918Z</time></trkpt><trkpt lat="43.94094872353535" lon="10.942044691179616"><ele>75.0</ele><time>2026-05-01T12:41:26.918Z</time></trkpt><trkpt lat="43.940945632306935" lon="10.941840158499934"><ele>75.0</ele><time>2026-05-01T12:41:27.918Z</time></trkpt><trkpt lat="43.94093259989267" lon="10.941636809544367"><ele>75.0</ele><time>2026-05-01T12:41:28.918Z</time></trkpt><trkpt lat="43.94090842913577" lon="10.941426607425532"><ele>75.0</ele><time>2026-05-01T12:41:29.918Z</time></trkpt><trkpt lat="43.940887419445744" lon="10.941207708942024"><ele>75.0</ele><time>2026-05-01T12:41:30.918Z</time></trkpt><trkpt lat="43.940875473327935" lon="10.940973561976138"><ele>75.0</ele><time>2026-05-01T12:41:31.918Z</time></trkpt><trkpt lat="43.940868952841114" lon="10.940732330138678"><ele>75.0</ele><time>2026-05-01T12:41:32.918Z</time></trkpt><trkpt lat="43.94091223046238" lon="10.940483375319973"><ele>75.0</ele><time>2026-05-01T12:41:33.918Z</time></trkpt><trkpt lat="43.940911268844474" lon="10.940233850792596"><ele>75.0</ele><time>2026-05-01T12:41:34.918Z</time></trkpt><trkpt lat="43.940910343782846" lon="10.939982373350725"><ele>75.0</ele><time>2026-05-01T12:41:35.918Z</time></trkpt><trkpt lat="43.940907372679504" lon="10.939732666666398"><ele>75.0</ele><time>2026-05-01T12:41:36.918Z</time></trkpt><trkpt lat="43.94090246606956" lon="10.939476525435404"><ele>75.0</ele><time>2026-05-01T12:41:37.918Z</time></trkpt><trkpt lat="43.940847990473856" lon="10.939226054784342"><ele>75.0</ele><time>2026-05-01T12:41:38.918Z</time></trkpt><trkpt lat="43.94084004578771" lon="10.938970952502503"><ele>75.0</ele><time>2026-05-01T12:41:39.917Z</time></trkpt><trkpt lat="43.94083840441218" lon="10.93872063596428"><ele>75.0</ele><time>2026-05-01T12:41:40.918Z</time></trkpt><trkpt lat="43.9408377388122" lon="10.938472097208871"><ele>75.0</ele><time>2026-05-01T12:41:41.918Z</time></trkpt><trkpt lat="43.94083909369926" lon="10.938247015923315"><ele>75.0</ele><time>2026-05-01T12:41:42.918Z</time></trkpt><trkpt lat="43.94083778313723" lon="10.938035193642252"><ele>75.0</ele><time>2026-05-01T12:41:43.917Z</time></trkpt><trkpt lat="43.94088480018936" lon="10.937828000190445"><ele>75.0</ele><time>2026-05-01T12:41:44.917Z</time></trkpt><trkpt lat="43.94088348872895" lon="10.93762634831429"><ele>75.25</ele><time>2026-05-01T12:41:45.918Z</time></trkpt><trkpt lat="43.94081749128241" lon="10.937434191921055"><ele>75.5</ele><time>2026-05-01T12:41:46.917Z</time></trkpt><trkpt lat="43.9408129786831" lon="10.937251050395622"><ele>75.75</ele><time>2026-05-01T12:41:47.917Z</time></trkpt><trkpt lat="43.94081385628665" lon="10.937059858765329"><ele>76.0</ele><time>2026-05-01T12:41:48.918Z</time></trkpt><trkpt lat="43.94083359835224" lon="10.936850734620029"><ele>76.0</ele><time>2026-05-01T12:41:49.918Z</time></trkpt><trkpt lat="43.940850658653545" lon="10.936632185844323"><ele>76.0</ele><time>2026-05-01T12:41:50.918Z</time></trkpt><trkpt lat="43.940855693033335" lon="10.93639846883288"><ele>76.0</ele><time>2026-05-01T12:41:51.917Z</time></trkpt><trkpt lat="43.94085639214488" lon="10.936173253773052"><ele>76.0</ele><time>2026-05-01T12:41:52.917Z</time></trkpt><trkpt lat="43.94085560366129" lon="10.935946007357078"><ele>76.0</ele><time>2026-05-01T12:41:53.917Z</time></trkpt><trkpt lat="43.94085695276109" lon="10.935711994936623"><ele>76.0</ele><time>2026-05-01T12:41:54.917Z</time></trkpt><trkpt lat="43.94086247121231" lon="10.93547404352473"><ele>76.0</ele><time>2026-05-01T12:41:55.917Z</time></trkpt><trkpt lat="43.94086078230029" lon="10.935233181747936"><ele>76.0</ele><time>2026-05-01T12:41:56.917Z</time></trkpt><trkpt lat="43.940845633212916" lon="10.934994998094002"><ele>76.0</ele><time>2026-05-01T12:41:57.917Z</time></trkpt><trkpt lat="43.940834203636626" lon="10.934760774237711"><ele>76.0</ele><time>2026-05-01T12:41:58.917Z</time></trkpt><trkpt lat="43.940813439410384" lon="10.934529329456518"><ele>76.0</ele><time>2026-05-01T12:41:59.917Z</time></trkpt><trkpt lat="43.9408054750718" lon="10.934285031443748"><ele>76.0</ele><time>2026-05-01T12:42:00.917Z</time></trkpt><trkpt lat="43.940792283916565" lon="10.934028509904596"><ele>75.33333333333333</ele><time>2026-05-01T12:42:01.917Z</time></trkpt><trkpt lat="43.940775946528206" lon="10.933772044484765"><ele>74.66666666666667</ele><time>2026-05-01T12:42:02.917Z</time></trkpt><trkpt lat="43.94075410444731" lon="10.933515389316472"><ele>74.0</ele><time>2026-05-01T12:42:03.917Z</time></trkpt><trkpt lat="43.940735216005294" lon="10.933258896761616"><ele>73.66666666666667</ele><time>2026-05-01T12:42:04.917Z</time></trkpt><trkpt lat="43.940729606761494" lon="10.933010304491894"><ele>73.33333333333333</ele><time>2026-05-01T12:42:05.917Z</time></trkpt><trkpt lat="43.94071736433061" lon="10.932777253492116"><ele>73.0</ele><time>2026-05-01T12:42:06.917Z</time></trkpt><trkpt lat="43.940699952927645" lon="10.932553809746226"><ele>73.0</ele><time>2026-05-01T12:42:07.917Z</time></trkpt><trkpt lat="43.940683409748914" lon="10.932316428736366"><ele>73.0</ele><time>2026-05-01T12:42:08.917Z</time></trkpt><trkpt lat="43.94066665697949" lon="10.932078164855083"><ele>73.0</ele><time>2026-05-01T12:42:09.917Z</time></trkpt><trkpt lat="43.94065157528567" lon="10.931838301023909"><ele>73.5</ele><time>2026-05-01T12:42:10.917Z</time></trkpt><trkpt lat="43.94064560648832" lon="10.931613607729766"><ele>74.0</ele><time>2026-05-01T12:42:11.917Z</time></trkpt><trkpt lat="43.940636597341985" lon="10.931404849875033"><ele>74.5</ele><time>2026-05-01T12:42:12.917Z</time></trkpt><trkpt lat="43.94062466622205" lon="10.931225540507064"><ele>75.0</ele><time>2026-05-01T12:42:13.917Z</time></trkpt><trkpt lat="43.940616129792396" lon="10.93107106237685"><ele>75.0</ele><time>2026-05-01T12:42:14.917Z</time></trkpt><trkpt lat="43.940604674410764" lon="10.930952075045518"><ele>75.0</ele><time>2026-05-01T12:42:15.917Z</time></trkpt><trkpt lat="43.94060531841936" lon="10.9308604390089"><ele>75.0</ele><time>2026-05-01T12:42:16.917Z</time></trkpt><trkpt lat="43.94063875057724" lon="10.930735769970918"><ele>75.0</ele><time>2026-05-01T12:42:18.917Z</time></trkpt><trkpt lat="43.94064372661106" lon="10.930645262478011"><ele>75.0</ele><time>2026-05-01T12:42:19.917Z</time></trkpt><trkpt lat="43.940647430766944" lon="10.930549242783982"><ele>75.0</ele><time>2026-05-01T12:42:20.917Z</time></trkpt><trkpt lat="43.940583687111584" lon="10.930441422165122"><ele>73.5</ele><time>2026-05-01T12:42:21.917Z</time></trkpt><trkpt lat="43.94056257557633" lon="10.93028418646986"><ele>72.0</ele><time>2026-05-01T12:42:22.917Z</time></trkpt><trkpt lat="43.940551156864416" lon="10.930103308487142"><ele>70.5</ele><time>2026-05-01T12:42:23.917Z</time></trkpt><trkpt lat="43.940538228673525" lon="10.929920080444855"><ele>69.0</ele><time>2026-05-01T12:42:24.917Z</time></trkpt><trkpt lat="43.940520545466576" lon="10.929712942755971"><ele>69.0</ele><time>2026-05-01T12:42:25.917Z</time></trkpt><trkpt lat="43.94050337458945" lon="10.929502220607887"><ele>69.0</ele><time>2026-05-01T12:42:26.917Z</time></trkpt><trkpt lat="43.940490578598585" lon="10.929275608755537"><ele>69.0</ele><time>2026-05-01T12:42:27.917Z</time></trkpt><trkpt lat="43.94047364476218" lon="10.929050401826622"><ele>69.0</ele><time>2026-05-01T12:42:28.917Z</time></trkpt><trkpt lat="43.94047231523303" lon="10.928811675239514"><ele>69.0</ele><time>2026-05-01T12:42:29.917Z</time></trkpt><trkpt lat="43.940457881757496" lon="10.928569707245956"><ele>69.0</ele><time>2026-05-01T12:42:30.917Z</time></trkpt><trkpt lat="43.94044289724982" lon="10.928324154975085"><ele>68.33333333333333</ele><time>2026-05-01T12:42:31.917Z</time></trkpt><trkpt lat="43.9404280732255" lon="10.928085867911298"><ele>67.66666666666666</ele><time>2026-05-01T12:42:32.917Z</time></trkpt><trkpt lat="43.940427402857864" lon="10.927870304065053"><ele>67.0</ele><time>2026-05-01T12:42:33.917Z</time></trkpt><trkpt lat="43.940407307684794" lon="10.927675262450995"><ele>66.75</ele><time>2026-05-01T12:42:34.917Z</time></trkpt><trkpt lat="43.94039937142172" lon="10.927497191990078"><ele>66.5</ele><time>2026-05-01T12:42:35.917Z</time></trkpt><trkpt lat="43.94039721880844" lon="10.9273283297951"><ele>66.25</ele><time>2026-05-01T12:42:36.917Z</time></trkpt><trkpt lat="43.940404496969705" lon="10.927172843406423"><ele>66.0</ele><time>2026-05-01T12:42:37.917Z</time></trkpt><trkpt lat="43.9404354261639" lon="10.927044037347594"><ele>66.0</ele><time>2026-05-01T12:42:38.917Z</time></trkpt><trkpt lat="43.94049438738803" lon="10.926933430490262"><ele>66.0</ele><time>2026-05-01T12:42:39.917Z</time></trkpt><trkpt lat="43.94055158297414" lon="10.926846218383279"><ele>66.0</ele><time>2026-05-01T12:42:40.917Z</time></trkpt><trkpt lat="43.9406018446751" lon="10.926788504653578"><ele>66.0</ele><time>2026-05-01T12:42:41.917Z</time></trkpt><trkpt lat="43.94059280517313" lon="10.926589906510555"><ele>66.0</ele><time>2026-05-01T12:42:43.917Z</time></trkpt><trkpt lat="43.940760305194175" lon="10.926814839899826"><ele>66.0</ele><time>2026-05-01T12:42:44.917Z</time></trkpt><trkpt lat="43.94085266759936" lon="10.926847332354683"><ele>66.0</ele><time>2026-05-01T12:42:46.917Z</time></trkpt><trkpt lat="43.94091557658023" lon="10.926734957278525"><ele>66.0</ele><time>2026-05-01T12:42:47.917Z</time></trkpt><trkpt lat="43.940973264264414" lon="10.926625800305285"><ele>66.0</ele><time>2026-05-01T12:42:48.917Z</time></trkpt><trkpt lat="43.9410467413606" lon="10.926501644502236"><ele>66.0</ele><time>2026-05-01T12:42:49.917Z</time></trkpt><trkpt lat="43.94112312292596" lon="10.926378107325359"><ele>66.5</ele><time>2026-05-01T12:42:50.917Z</time></trkpt><trkpt lat="43.941214333028306" lon="10.926262231198846"><ele>67.0</ele><time>2026-05-01T12:42:51.917Z</time></trkpt><trkpt lat="43.94129623232916" lon="10.926118942201256"><ele>67.5</ele><time>2026-05-01T12:42:52.917Z</time></trkpt><trkpt lat="43.941380190135156" lon="10.925988684794126"><ele>68.0</ele><time>2026-05-01T12:42:53.917Z</time></trkpt><trkpt lat="43.94144706984852" lon="10.925868274257844"><ele>68.16666666666667</ele><time>2026-05-01T12:42:54.917Z</time></trkpt><trkpt lat="43.941512496679984" lon="10.925765168175362"><ele>68.33333333333334</ele><time>2026-05-01T12:42:55.917Z</time></trkpt><trkpt lat="43.94157583684846" lon="10.925665935436813"><ele>68.5</ele><time>2026-05-01T12:42:56.917Z</time></trkpt><trkpt lat="43.941637187915056" lon="10.925580938689611"><ele>68.66666666666667</ele><time>2026-05-01T12:42:57.917Z</time></trkpt><trkpt lat="43.94169364529666" lon="10.925517869000428"><ele>68.83333333333333</ele><time>2026-05-01T12:42:58.917Z</time></trkpt><trkpt lat="43.941770993457816" lon="10.925469866376758"><ele>69.0</ele><time>2026-05-01T12:42:59.917Z</time></trkpt><trkpt lat="43.94185615637318" lon="10.925415753616157"><ele>69.5</ele><time>2026-05-01T12:43:00.917Z</time></trkpt><trkpt lat="43.94191568513563" lon="10.925315745789673"><ele>70.0</ele><time>2026-05-01T12:43:01.917Z</time></trkpt><trkpt lat="43.94199045257246" lon="10.925201572806289"><ele>70.5</ele><time>2026-05-01T12:43:02.917Z</time></trkpt><trkpt lat="43.94209718439826" lon="10.92508077873223"><ele>71.0</ele><time>2026-05-01T12:43:03.917Z</time></trkpt><trkpt lat="43.94220573221256" lon="10.924952024395878"><ele>71.25</ele><time>2026-05-01T12:43:04.917Z</time></trkpt><trkpt lat="43.94231560433399" lon="10.924833884361934"><ele>71.5</ele><time>2026-05-01T12:43:05.917Z</time></trkpt><trkpt lat="43.94244585676092" lon="10.92475044295315"><ele>71.75</ele><time>2026-05-01T12:43:06.917Z</time></trkpt><trkpt lat="43.94259034670569" lon="10.924702316448855"><ele>72.0</ele><time>2026-05-01T12:43:07.917Z</time></trkpt><trkpt lat="43.9427463295859" lon="10.924667952228825"><ele>72.25</ele><time>2026-05-01T12:43:08.917Z</time></trkpt><trkpt lat="43.94290322247764" lon="10.924642436435171"><ele>72.5</ele><time>2026-05-01T12:43:09.917Z</time></trkpt><trkpt lat="43.94304657950163" lon="10.924611731957961"><ele>72.75</ele><time>2026-05-01T12:43:10.917Z</time></trkpt><trkpt lat="43.94317781654171" lon="10.924579767581225"><ele>73.0</ele><time>2026-05-01T12:43:11.917Z</time></trkpt><trkpt lat="43.943291658158195" lon="10.924555315940323"><ele>73.4</ele><time>2026-05-01T12:43:12.917Z</time></trkpt><trkpt lat="43.94339781844684" lon="10.924529875838404"><ele>73.8</ele><time>2026-05-01T12:43:13.917Z</time></trkpt><trkpt lat="43.94349368591473" lon="10.924504563753125"><ele>74.2</ele><time>2026-05-01T12:43:14.917Z</time></trkpt><trkpt lat="43.94357651552722" lon="10.924484392597591"><ele>74.6</ele><time>2026-05-01T12:43:15.917Z</time></trkpt><trkpt lat="43.943647483541206" lon="10.924432628743999"><ele>75.0</ele><time>2026-05-01T12:43:16.917Z</time></trkpt><trkpt lat="43.9437366411471" lon="10.924438137688544"><ele>75.0</ele><time>2026-05-01T12:43:17.917Z</time></trkpt><trkpt lat="43.94381153569475" lon="10.92438642958096"><ele>75.0</ele><time>2026-05-01T12:43:18.917Z</time></trkpt><trkpt lat="43.94388043309031" lon="10.924314236150606"><ele>75.0</ele><time>2026-05-01T12:43:19.917Z</time></trkpt><trkpt lat="43.943895901487366" lon="10.92417514905868"><ele>75.0</ele><time>2026-05-01T12:43:20.917Z</time></trkpt><trkpt lat="43.94382770892216" lon="10.924072830476524"><ele>75.0</ele><time>2026-05-01T12:43:21.917Z</time></trkpt><trkpt lat="43.943760599070366" lon="10.923966969880846"><ele>74.5</ele><time>2026-05-01T12:43:22.917Z</time></trkpt><trkpt lat="43.9437106968378" lon="10.923823781202637"><ele>74.0</ele><time>2026-05-01T12:43:23.917Z</time></trkpt><trkpt lat="43.94369970963732" lon="10.92364569849113"><ele>73.5</ele><time>2026-05-01T12:43:24.917Z</time></trkpt><trkpt lat="43.94370078195418" lon="10.92343234017462"><ele>73.0</ele><time>2026-05-01T12:43:25.917Z</time></trkpt><trkpt lat="43.94369877510158" lon="10.923185619366208"><ele>73.0</ele><time>2026-05-01T12:43:26.917Z</time></trkpt><trkpt lat="43.943691646626824" lon="10.922946460389948"><ele>73.0</ele><time>2026-05-01T12:43:27.917Z</time></trkpt><trkpt lat="43.9436940435943" lon="10.922689739784229"><ele>73.0</ele><time>2026-05-01T12:43:28.917Z</time></trkpt><trkpt lat="43.94370320841064" lon="10.922437796080025"><ele>73.66666666666666</ele><time>2026-05-01T12:43:29.917Z</time></trkpt><trkpt lat="43.94370811897968" lon="10.922180086543714"><ele>74.33333333333333</ele><time>2026-05-01T12:43:30.917Z</time></trkpt><trkpt lat="43.943720974763835" lon="10.921928244639053"><ele>75.0</ele><time>2026-05-01T12:43:31.917Z</time></trkpt><trkpt lat="43.943756547846206" lon="10.921674099159247"><ele>76.0</ele><time>2026-05-01T12:43:32.917Z</time></trkpt><trkpt lat="43.943760878630094" lon="10.921413603398516"><ele>77.0</ele><time>2026-05-01T12:43:33.917Z</time></trkpt><trkpt lat="43.943758013110774" lon="10.92116922285462"><ele>78.0</ele><time>2026-05-01T12:43:34.917Z</time></trkpt><trkpt lat="43.9437365354652" lon="10.920932864722515"><ele>77.5</ele><time>2026-05-01T12:43:35.917Z</time></trkpt><trkpt lat="43.943734158746025" lon="10.92070698852939"><ele>77.0</ele><time>2026-05-01T12:43:36.917Z</time></trkpt><trkpt lat="43.94373029747259" lon="10.920502205280368"><ele>76.5</ele><time>2026-05-01T12:43:37.917Z</time></trkpt><trkpt lat="43.9437252490295" lon="10.92032477933778"><ele>76.0</ele><time>2026-05-01T12:43:38.917Z</time></trkpt><trkpt lat="43.943731160651346" lon="10.920169021120776"><ele>76.39999999999999</ele><time>2026-05-01T12:43:39.917Z</time></trkpt><trkpt lat="43.94376224529408" lon="10.920036290730652"><ele>76.8</ele><time>2026-05-01T12:43:40.917Z</time></trkpt><trkpt lat="43.94382539727471" lon="10.919934658873379"><ele>77.19999999999999</ele><time>2026-05-01T12:43:41.917Z</time></trkpt><trkpt lat="43.9439087428991" lon="10.919842712261294"><ele>77.6</ele><time>2026-05-01T12:43:42.917Z</time></trkpt><trkpt lat="43.943970237268715" lon="10.919721125641415"><ele>78.0</ele><time>2026-05-01T12:43:43.917Z</time></trkpt><trkpt lat="43.943978153461316" lon="10.919587561538597"><ele>78.0</ele><time>2026-05-01T12:43:44.917Z</time></trkpt><trkpt lat="43.94394318407785" lon="10.91948385151679"><ele>78.0</ele><time>2026-05-01T12:43:45.916Z</time></trkpt><trkpt lat="43.943881793998244" lon="10.919416651797185"><ele>78.0</ele><time>2026-05-01T12:43:46.916Z</time></trkpt><trkpt lat="43.94379169063731" lon="10.919364338629899"><ele>78.0</ele><time>2026-05-01T12:43:47.916Z</time></trkpt><trkpt lat="43.94368511106388" lon="10.919299819482314"><ele>78.0</ele><time>2026-05-01T12:43:48.915Z</time></trkpt><trkpt lat="43.943589298749814" lon="10.919182902940566"><ele>77.5</ele><time>2026-05-01T12:43:49.916Z</time></trkpt><trkpt lat="43.94352197173521" lon="10.91903517172923"><ele>77.0</ele><time>2026-05-01T12:43:50.916Z</time></trkpt><trkpt lat="43.943496897802824" lon="10.918881420262148"><ele>76.5</ele><time>2026-05-01T12:43:51.915Z</time></trkpt><trkpt lat="43.94349660994428" lon="10.918697671222215"><ele>76.0</ele><time>2026-05-01T12:43:52.915Z</time></trkpt><trkpt lat="43.943490245543295" lon="10.918494102542365"><ele>76.0</ele><time>2026-05-01T12:43:53.915Z</time></trkpt><trkpt lat="43.94348781352257" lon="10.918316012399155"><ele>76.0</ele><time>2026-05-01T12:43:54.915Z</time></trkpt><trkpt lat="43.943492071895456" lon="10.918156043991274"><ele>76.0</ele><time>2026-05-01T12:43:55.915Z</time></trkpt><trkpt lat="43.94349716907031" lon="10.918003460395374"><ele>76.0</ele><time>2026-05-01T12:43:56.915Z</time></trkpt><trkpt lat="43.943492388680646" lon="10.917842383911307"><ele>76.0</ele><time>2026-05-01T12:43:57.915Z</time></trkpt><trkpt lat="43.94348147875605" lon="10.91764753968271"><ele>76.0</ele><time>2026-05-01T12:43:58.915Z</time></trkpt><trkpt lat="43.94348235845213" lon="10.917434557352886"><ele>76.0</ele><time>2026-05-01T12:43:59.915Z</time></trkpt><trkpt lat="43.943509096292075" lon="10.917223640258111"><ele>76.0</ele><time>2026-05-01T12:44:00.915Z</time></trkpt><trkpt lat="43.943546277089325" lon="10.917017009413616"><ele>76.0</ele><time>2026-05-01T12:44:01.915Z</time></trkpt><trkpt lat="43.94357444887881" lon="10.916804402771353"><ele>76.0</ele><time>2026-05-01T12:44:02.915Z</time></trkpt><trkpt lat="43.943594843678824" lon="10.916574643899576"><ele>76.0</ele><time>2026-05-01T12:44:03.915Z</time></trkpt><trkpt lat="43.94360358306927" lon="10.916325363930122"><ele>75.66666666666666</ele><time>2026-05-01T12:44:04.915Z</time></trkpt><trkpt lat="43.943635939784436" lon="10.916087417908034"><ele>75.33333333333333</ele><time>2026-05-01T12:44:05.915Z</time></trkpt><trkpt lat="43.94367404316164" lon="10.915866585611099"><ele>75.0</ele><time>2026-05-01T12:44:06.915Z</time></trkpt><trkpt lat="43.94370502679534" lon="10.915645390426018"><ele>74.33333333333333</ele><time>2026-05-01T12:44:07.915Z</time></trkpt><trkpt lat="43.943749890108236" lon="10.915423307816225"><ele>73.66666666666666</ele><time>2026-05-01T12:44:08.915Z</time></trkpt><trkpt lat="43.943804973516734" lon="10.915202926351936"><ele>73.0</ele><time>2026-05-01T12:44:09.915Z</time></trkpt><trkpt lat="43.94386369713553" lon="10.914979113300387"><ele>72.33333333333333</ele><time>2026-05-01T12:44:10.915Z</time></trkpt><trkpt lat="43.94392348666682" lon="10.914757392737638"><ele>71.66666666666667</ele><time>2026-05-01T12:44:11.915Z</time></trkpt><trkpt lat="43.943981716285755" lon="10.914538752650378"><ele>71.0</ele><time>2026-05-01T12:44:12.915Z</time></trkpt><trkpt lat="43.944031087148566" lon="10.914287373436087"><ele>71.66666666666667</ele><time>2026-05-01T12:44:13.915Z</time></trkpt><trkpt lat="43.94405874782797" lon="10.91404838170187"><ele>72.33333333333333</ele><time>2026-05-01T12:44:14.915Z</time></trkpt><trkpt lat="43.94407257637479" lon="10.913822055298004"><ele>73.0</ele><time>2026-05-01T12:44:15.915Z</time></trkpt><trkpt lat="43.94407467462373" lon="10.913580839234253"><ele>73.0</ele><time>2026-05-01T12:44:16.915Z</time></trkpt><trkpt lat="43.94407437961548" lon="10.913341302351428"><ele>73.0</ele><time>2026-05-01T12:44:17.915Z</time></trkpt><trkpt lat="43.944078657899844" lon="10.913106428187772"><ele>73.0</ele><time>2026-05-01T12:44:18.915Z</time></trkpt><trkpt lat="43.94409409591981" lon="10.91288392734438"><ele>73.0</ele><time>2026-05-01T12:44:19.915Z</time></trkpt><trkpt lat="43.94410027850235" lon="10.912673345272827"><ele>73.0</ele><time>2026-05-01T12:44:20.915Z</time></trkpt><trkpt lat="43.94411030033248" lon="10.912486217662916"><ele>73.0</ele><time>2026-05-01T12:44:21.915Z</time></trkpt><trkpt lat="43.944115178648396" lon="10.912322780170696"><ele>73.0</ele><time>2026-05-01T12:44:22.915Z</time></trkpt><trkpt lat="43.944119617008084" lon="10.912163674671483"><ele>73.0</ele><time>2026-05-01T12:44:23.915Z</time></trkpt><trkpt lat="43.94413858400635" lon="10.912024753693174"><ele>73.0</ele><time>2026-05-01T12:44:24.915Z</time></trkpt><trkpt lat="43.94415321419624" lon="10.911911335139235"><ele>73.0</ele><time>2026-05-01T12:44:25.915Z</time></trkpt><trkpt lat="43.94416657726255" lon="10.911804612144701"><ele>73.0</ele><time>2026-05-01T12:44:26.915Z</time></trkpt><trkpt lat="43.94415657971921" lon="10.911679206179237"><ele>73.0</ele><time>2026-05-01T12:44:27.915Z</time></trkpt><trkpt lat="43.94419322663781" lon="10.911574580886006"><ele>73.0</ele><time>2026-05-01T12:44:28.915Z</time></trkpt><trkpt lat="43.94426970973871" lon="10.911427897702175"><ele>73.33333333333333</ele><time>2026-05-01T12:44:29.915Z</time></trkpt><trkpt lat="43.94432565353443" lon="10.91130333762988"><ele>73.66666666666666</ele><time>2026-05-01T12:44:31.915Z</time></trkpt><trkpt lat="43.94431525066545" lon="10.911205286111777"><ele>74.0</ele><time>2026-05-01T12:44:32.915Z</time></trkpt><trkpt lat="43.94430370602289" lon="10.911095025926668"><ele>74.33333333333333</ele><time>2026-05-01T12:44:33.915Z</time></trkpt><trkpt lat="43.94430147536119" lon="10.910983972670719"><ele>74.66666666666667</ele><time>2026-05-01T12:44:34.915Z</time></trkpt><trkpt lat="43.94431509762051" lon="10.910876504989039"><ele>75.0</ele><time>2026-05-01T12:44:35.915Z</time></trkpt><trkpt lat="43.94434714733168" lon="10.9107640189078"><ele>75.0</ele><time>2026-05-01T12:44:36.915Z</time></trkpt><trkpt lat="43.94438600019751" lon="10.910644861964203"><ele>75.0</ele><time>2026-05-01T12:44:37.915Z</time></trkpt><trkpt lat="43.94443331777476" lon="10.910523127315358"><ele>75.0</ele><time>2026-05-01T12:44:38.915Z</time></trkpt><trkpt lat="43.94448408116368" lon="10.910395055255556"><ele>75.0</ele><time>2026-05-01T12:44:39.915Z</time></trkpt><trkpt lat="43.944541460540954" lon="10.910260297382486"><ele>75.0</ele><time>2026-05-01T12:44:40.915Z</time></trkpt><trkpt lat="43.94460285714309" lon="10.910087449120134"><ele>75.66666666666667</ele><time>2026-05-01T12:44:41.915Z</time></trkpt><trkpt lat="43.944706048269715" lon="10.909855953054283"><ele>76.33333333333334</ele><time>2026-05-01T12:44:42.915Z</time></trkpt><trkpt lat="43.94482962095047" lon="10.909569410565588"><ele>77.0</ele><time>2026-05-01T12:44:43.915Z</time></trkpt><trkpt lat="43.9449602828494" lon="10.909266670721339"><ele>79.5</ele><time>2026-05-01T12:44:44.915Z</time></trkpt><trkpt lat="43.94509064613622" lon="10.908964129591403"><ele>82.0</ele><time>2026-05-01T12:44:45.915Z</time></trkpt><trkpt lat="43.94520552635526" lon="10.908697203223534"><ele>82.0</ele><time>2026-05-01T12:44:46.915Z</time></trkpt><trkpt lat="43.94531916290072" lon="10.908427661302742"><ele>82.0</ele><time>2026-05-01T12:44:47.915Z</time></trkpt><trkpt lat="43.945409231347945" lon="10.90812880847627"><ele>83.66666666666666</ele><time>2026-05-01T12:44:48.915Z</time></trkpt><trkpt lat="43.94539168763211" lon="10.907810307113055"><ele>85.33333333333333</ele><time>2026-05-01T12:44:49.915Z</time></trkpt><trkpt lat="43.94544757362354" lon="10.907594739286752"><ele>87.0</ele><time>2026-05-01T12:44:50.915Z</time></trkpt><trkpt lat="43.945455161643814" lon="10.907969090277387"><ele>87.0</ele><time>2026-05-01T12:44:51.915Z</time></trkpt><trkpt lat="43.94544916701701" lon="10.907777787763209"><ele>87.0</ele><time>2026-05-01T12:44:52.915Z</time></trkpt><trkpt lat="43.94542911351276" lon="10.907583309628906"><ele>87.0</ele><time>2026-05-01T12:44:53.915Z</time></trkpt><trkpt lat="43.94539098362596" lon="10.907389699547986"><ele>87.0</ele><time>2026-05-01T12:44:54.915Z</time></trkpt><trkpt lat="43.945353468958494" lon="10.907217740028365"><ele>87.5</ele><time>2026-05-01T12:44:55.915Z</time></trkpt><trkpt lat="43.94531829410476" lon="10.9070629653914"><ele>88.0</ele><time>2026-05-01T12:44:56.915Z</time></trkpt><trkpt lat="43.945283671520485" lon="10.906916717839183"><ele>88.5</ele><time>2026-05-01T12:44:57.915Z</time></trkpt><trkpt lat="43.94525311529709" lon="10.906773692100975"><ele>89.0</ele><time>2026-05-01T12:44:58.915Z</time></trkpt><trkpt lat="43.945219997506406" lon="10.906619487486424"><ele>89.25</ele><time>2026-05-01T12:44:59.915Z</time></trkpt><trkpt lat="43.94517820738042" lon="10.906450474208828"><ele>89.5</ele><time>2026-05-01T12:45:00.915Z</time></trkpt><trkpt lat="43.94511196406139" lon="10.906284826868088"><ele>89.75</ele><time>2026-05-01T12:45:01.915Z</time></trkpt><trkpt lat="43.945049180217275" lon="10.906127420446388"><ele>90.0</ele><time>2026-05-01T12:45:02.915Z</time></trkpt><trkpt lat="43.94497330550495" lon="10.905975861194733"><ele>90.0</ele><time>2026-05-01T12:45:03.915Z</time></trkpt><trkpt lat="43.94491880481175" lon="10.905758492515046"><ele>90.0</ele><time>2026-05-01T12:45:04.915Z</time></trkpt><trkpt lat="43.94485109168819" lon="10.90549721356695"><ele>90.0</ele><time>2026-05-01T12:45:05.915Z</time></trkpt><trkpt lat="43.944764833116494" lon="10.90524685561612"><ele>90.0</ele><time>2026-05-01T12:45:06.915Z</time></trkpt><trkpt lat="43.94470315665486" lon="10.904971483284568"><ele>90.0</ele><time>2026-05-01T12:45:07.915Z</time></trkpt><trkpt lat="43.94462585236408" lon="10.904685377371809"><ele>90.0</ele><time>2026-05-01T12:45:08.915Z</time></trkpt><trkpt lat="43.94454923667876" lon="10.904404612029774"><ele>89.33333333333333</ele><time>2026-05-01T12:45:09.915Z</time></trkpt><trkpt lat="43.94447147786844" lon="10.904120094707299"><ele>88.66666666666666</ele><time>2026-05-01T12:45:10.915Z</time></trkpt><trkpt lat="43.94440341915693" lon="10.903857901576506"><ele>88.0</ele><time>2026-05-01T12:45:11.915Z</time></trkpt><trkpt lat="43.944350795047164" lon="10.903615747578026"><ele>88.0</ele><time>2026-05-01T12:45:12.915Z</time></trkpt><trkpt lat="43.94432108210792" lon="10.903384694670521"><ele>88.0</ele><time>2026-05-01T12:45:13.915Z</time></trkpt><trkpt lat="43.94433044856607" lon="10.903158445680429"><ele>88.0</ele><time>2026-05-01T12:45:14.915Z</time></trkpt><trkpt lat="43.94434238732652" lon="10.90292859134346"><ele>88.0</ele><time>2026-05-01T12:45:15.915Z</time></trkpt><trkpt lat="43.944370556915736" lon="10.902717301091304"><ele>88.0</ele><time>2026-05-01T12:45:16.915Z</time></trkpt><trkpt lat="43.9444113692143" lon="10.902511290721565"><ele>88.0</ele><time>2026-05-01T12:45:17.915Z</time></trkpt><trkpt lat="43.94445798994885" lon="10.902295564495542"><ele>88.33333333333333</ele><time>2026-05-01T12:45:18.915Z</time></trkpt><trkpt lat="43.944501723287594" lon="10.902073287038895"><ele>88.66666666666667</ele><time>2026-05-01T12:45:19.915Z</time></trkpt><trkpt lat="43.94454169789139" lon="10.901831209157136"><ele>89.0</ele><time>2026-05-01T12:45:20.915Z</time></trkpt><trkpt lat="43.94459024524542" lon="10.90158478178904"><ele>89.33333333333334</ele><time>2026-05-01T12:45:21.915Z</time></trkpt><trkpt lat="43.94463901112532" lon="10.901324464190326"><ele>89.66666666666667</ele><time>2026-05-01T12:45:22.915Z</time></trkpt><trkpt lat="43.94469178358153" lon="10.901058529668017"><ele>90.0</ele><time>2026-05-01T12:45:23.915Z</time></trkpt><trkpt lat="43.94474214091472" lon="10.900788244152402"><ele>90.0</ele><time>2026-05-01T12:45:24.915Z</time></trkpt><trkpt lat="43.94479276916981" lon="10.900519030984817"><ele>90.0</ele><time>2026-05-01T12:45:25.915Z</time></trkpt><trkpt lat="43.944847113050464" lon="10.900264632249224"><ele>90.0</ele><time>2026-05-01T12:45:26.915Z</time></trkpt><trkpt lat="43.94488592952256" lon="10.900033038510797"><ele>89.33333333333333</ele><time>2026-05-01T12:45:27.915Z</time></trkpt><trkpt lat="43.94492214834081" lon="10.899789403088848"><ele>88.66666666666666</ele><time>2026-05-01T12:45:28.915Z</time></trkpt><trkpt lat="43.94495243415429" lon="10.89954039953916"><ele>88.0</ele><time>2026-05-01T12:45:29.915Z</time></trkpt><trkpt lat="43.944967233420876" lon="10.89928214317443"><ele>87.33333333333333</ele><time>2026-05-01T12:45:30.915Z</time></trkpt><trkpt lat="43.944966328412534" lon="10.899014038662472"><ele>86.66666666666667</ele><time>2026-05-01T12:45:31.915Z</time></trkpt><trkpt lat="43.9449486585188" lon="10.89872971971624"><ele>86.0</ele><time>2026-05-01T12:45:32.915Z</time></trkpt><trkpt lat="43.94491977971259" lon="10.89843661841384"><ele>86.33333333333334</ele><time>2026-05-01T12:45:33.915Z</time></trkpt><trkpt lat="43.94488333415768" lon="10.898139406768278"><ele>86.66666666666667</ele><time>2026-05-01T12:45:34.915Z</time></trkpt><trkpt lat="43.944844439239645" lon="10.897843562396144"><ele>87.0</ele><time>2026-05-01T12:45:35.915Z</time></trkpt><trkpt lat="43.94481729385322" lon="10.897546678890036"><ele>87.0</ele><time>2026-05-01T12:45:36.915Z</time></trkpt><trkpt lat="43.94478782351629" lon="10.897252248278486"><ele>87.0</ele><time>2026-05-01T12:45:37.915Z</time></trkpt><trkpt lat="43.94475937624745" lon="10.896957377499065"><ele>87.0</ele><time>2026-05-01T12:45:38.915Z</time></trkpt><trkpt lat="43.94473522152659" lon="10.896680171245944"><ele>87.0</ele><time>2026-05-01T12:45:39.915Z</time></trkpt><trkpt lat="43.94471456346739" lon="10.8964124516696"><ele>87.0</ele><time>2026-05-01T12:45:40.915Z</time></trkpt><trkpt lat="43.9446974555055" lon="10.896142519226256"><ele>87.0</ele><time>2026-05-01T12:45:41.915Z</time></trkpt><trkpt lat="43.94468632586275" lon="10.895876284893657"><ele>87.0</ele><time>2026-05-01T12:45:42.915Z</time></trkpt><trkpt lat="43.944654439015466" lon="10.895623125126818"><ele>87.0</ele><time>2026-05-01T12:45:43.915Z</time></trkpt><trkpt lat="43.94463160023149" lon="10.89540843043562"><ele>87.0</ele><time>2026-05-01T12:45:44.915Z</time></trkpt><trkpt lat="43.94463710674137" lon="10.89525315299305"><ele>87.0</ele><time>2026-05-01T12:45:45.914Z</time></trkpt><trkpt lat="43.944676881673345" lon="10.895142368422528"><ele>87.0</ele><time>2026-05-01T12:45:46.914Z</time></trkpt><trkpt lat="43.94474912979859" lon="10.895061227034914"><ele>87.0</ele><time>2026-05-01T12:45:47.914Z</time></trkpt><trkpt lat="43.94483927769012" lon="10.895020049605346"><ele>87.0</ele><time>2026-05-01T12:45:48.914Z</time></trkpt><trkpt lat="43.94494624288494" lon="10.895026606378218"><ele>87.0</ele><time>2026-05-01T12:45:49.914Z</time></trkpt><trkpt lat="43.94505917280747" lon="10.89506048685382"><ele>87.0</ele><time>2026-05-01T12:45:50.914Z</time></trkpt><trkpt lat="43.945189430261856" lon="10.895065932702021"><ele>87.0</ele><time>2026-05-01T12:45:51.913Z</time></trkpt><trkpt lat="43.94534323646069" lon="10.895141440996627"><ele>87.0</ele><time>2026-05-01T12:45:52.913Z</time></trkpt><trkpt lat="43.9455339760409" lon="10.895200816026938"><ele>87.66666666666667</ele><time>2026-05-01T12:45:53.913Z</time></trkpt><trkpt lat="43.94572944647756" lon="10.895259283888624"><ele>88.33333333333334</ele><time>2026-05-01T12:45:54.913Z</time></trkpt><trkpt lat="43.945922574852396" lon="10.895318729104329"><ele>89.0</ele><time>2026-05-01T12:45:55.913Z</time></trkpt><trkpt lat="43.94612083978645" lon="10.89538001626599"><ele>89.0</ele><time>2026-05-01T12:45:56.913Z</time></trkpt><trkpt lat="43.94632726785958" lon="10.89544137992911"><ele>89.0</ele><time>2026-05-01T12:45:57.913Z</time></trkpt><trkpt lat="43.94653103988293" lon="10.895495126848019"><ele>89.0</ele><time>2026-05-01T12:45:58.913Z</time></trkpt><trkpt lat="43.9467320737822" lon="10.895558125472927"><ele>89.33333333333334</ele><time>2026-05-01T12:45:59.913Z</time></trkpt><trkpt lat="43.946936771775434" lon="10.895631987003823"><ele>89.66666666666667</ele><time>2026-05-01T12:46:00.913Z</time></trkpt><trkpt lat="43.94714167521302" lon="10.895705164979411"><ele>90.0</ele><time>2026-05-01T12:46:01.913Z</time></trkpt><trkpt lat="43.94733476115227" lon="10.895770784911019"><ele>90.0</ele><time>2026-05-01T12:46:02.913Z</time></trkpt><trkpt lat="43.94752474643761" lon="10.895834960582135"><ele>90.0</ele><time>2026-05-01T12:46:03.912Z</time></trkpt><trkpt lat="43.9477207652187" lon="10.895895280885666"><ele>90.0</ele><time>2026-05-01T12:46:04.913Z</time></trkpt><trkpt lat="43.94791767825536" lon="10.89596003950362"><ele>90.66666666666667</ele><time>2026-05-01T12:46:05.913Z</time></trkpt><trkpt lat="43.94812591384719" lon="10.896025196445907"><ele>91.33333333333334</ele><time>2026-05-01T12:46:06.913Z</time></trkpt><trkpt lat="43.94833837540545" lon="10.89608989060704"><ele>92.0</ele><time>2026-05-01T12:46:07.913Z</time></trkpt><trkpt lat="43.94855503279593" lon="10.896151473608699"><ele>93.0</ele><time>2026-05-01T12:46:08.913Z</time></trkpt><trkpt lat="43.948774691601386" lon="10.896211822651818"><ele>94.0</ele><time>2026-05-01T12:46:09.913Z</time></trkpt><trkpt lat="43.94899668490208" lon="10.896268914444583"><ele>94.5</ele><time>2026-05-01T12:46:10.913Z</time></trkpt><trkpt lat="43.949224003990544" lon="10.896334818126837"><ele>95.0</ele><time>2026-05-01T12:46:11.913Z</time></trkpt><trkpt lat="43.949448971002084" lon="10.896411154370446"><ele>95.0</ele><time>2026-05-01T12:46:12.913Z</time></trkpt><trkpt lat="43.94968119011674" lon="10.896487376751757"><ele>95.0</ele><time>2026-05-01T12:46:13.913Z</time></trkpt><trkpt lat="43.949907497372664" lon="10.896567828122409"><ele>95.0</ele><time>2026-05-01T12:46:14.913Z</time></trkpt><trkpt lat="43.95013251198042" lon="10.896651993369241"><ele>95.0</ele><time>2026-05-01T12:46:15.913Z</time></trkpt><trkpt lat="43.95035909514211" lon="10.896735375259945"><ele>96.0</ele><time>2026-05-01T12:46:16.913Z</time></trkpt><trkpt lat="43.9505889750284" lon="10.896816780032431"><ele>97.0</ele><time>2026-05-01T12:46:17.913Z</time></trkpt><trkpt lat="43.9508210922234" lon="10.896892249917364"><ele>97.0</ele><time>2026-05-01T12:46:18.913Z</time></trkpt><trkpt lat="43.951047980468225" lon="10.89696401797355"><ele>97.0</ele><time>2026-05-01T12:46:19.913Z</time></trkpt><trkpt lat="43.95127832012552" lon="10.897036418318827"><ele>97.0</ele><time>2026-05-01T12:46:20.913Z</time></trkpt><trkpt lat="43.95150954368666" lon="10.897109793258275"><ele>97.0</ele><time>2026-05-01T12:46:21.913Z</time></trkpt><trkpt lat="43.95173713292537" lon="10.897181636254949"><ele>98.0</ele><time>2026-05-01T12:46:22.913Z</time></trkpt><trkpt lat="43.951975672717126" lon="10.897250330866681"><ele>99.0</ele><time>2026-05-01T12:46:23.913Z</time></trkpt><trkpt lat="43.952193581758415" lon="10.897335422958875"><ele>99.0</ele><time>2026-05-01T12:46:24.913Z</time></trkpt><trkpt lat="43.95242731163731" lon="10.897402249451584"><ele>99.0</ele><time>2026-05-01T12:46:25.913Z</time></trkpt><trkpt lat="43.95288673060156" lon="10.897546401670978"><ele>100.0</ele><time>2026-05-01T12:46:27.913Z</time></trkpt><trkpt lat="43.953116950119316" lon="10.897620796208162"><ele>101.0</ele><time>2026-05-01T12:46:28.913Z</time></trkpt><trkpt lat="43.953348124769676" lon="10.89769415557652"><ele>101.0</ele><time>2026-05-01T12:46:29.913Z</time></trkpt><trkpt lat="43.9535730269272" lon="10.897768664229652"><ele>101.0</ele><time>2026-05-01T12:46:30.913Z</time></trkpt><trkpt lat="43.953801493866" lon="10.897841966143142"><ele>101.0</ele><time>2026-05-01T12:46:31.913Z</time></trkpt><trkpt lat="43.95401332879319" lon="10.897909639918188"><ele>101.0</ele><time>2026-05-01T12:46:32.913Z</time></trkpt><trkpt lat="43.95422539057628" lon="10.89797679007344"><ele>101.0</ele><time>2026-05-01T12:46:33.913Z</time></trkpt><trkpt lat="43.954438484735824" lon="10.898045593365616"><ele>101.0</ele><time>2026-05-01T12:46:34.913Z</time></trkpt><trkpt lat="43.954649752263244" lon="10.898112439310424"><ele>101.0</ele><time>2026-05-01T12:46:35.913Z</time></trkpt><trkpt lat="43.9548560638882" lon="10.89817800799937"><ele>101.0</ele><time>2026-05-01T12:46:36.913Z</time></trkpt><trkpt lat="43.95504308276203" lon="10.898238368606995"><ele>101.0</ele><time>2026-05-01T12:46:37.913Z</time></trkpt><trkpt lat="43.95520447148673" lon="10.898295315549767"><ele>101.0</ele><time>2026-05-01T12:46:38.913Z</time></trkpt><trkpt lat="43.955336583804005" lon="10.89835476474909"><ele>101.0</ele><time>2026-05-01T12:46:39.913Z</time></trkpt><trkpt lat="43.95543944246628" lon="10.898443245295875"><ele>101.0</ele><time>2026-05-01T12:46:40.913Z</time></trkpt><trkpt lat="43.955525372161226" lon="10.898558481622207"><ele>101.5</ele><time>2026-05-01T12:46:41.913Z</time></trkpt><trkpt lat="43.955583201615084" lon="10.898696815055134"><ele>102.0</ele><time>2026-05-01T12:46:42.913Z</time></trkpt><trkpt lat="43.95561199408085" lon="10.898861580500114"><ele>102.5</ele><time>2026-05-01T12:46:43.913Z</time></trkpt><trkpt lat="43.955611517280836" lon="10.899040345328947"><ele>103.0</ele><time>2026-05-01T12:46:44.913Z</time></trkpt><trkpt lat="43.95560521001162" lon="10.899217603058142"><ele>103.60000000000001</ele><time>2026-05-01T12:46:45.913Z</time></trkpt><trkpt lat="43.955621347744156" lon="10.899375441217465"><ele>104.2</ele><time>2026-05-01T12:46:46.913Z</time></trkpt><trkpt lat="43.95566712980795" lon="10.89950491665961"><ele>104.8</ele><time>2026-05-01T12:46:47.913Z</time></trkpt><trkpt lat="43.955739740500675" lon="10.899605562076593"><ele>105.4</ele><time>2026-05-01T12:46:48.913Z</time></trkpt><trkpt lat="43.955842831140544" lon="10.89968783316293"><ele>106.0</ele><time>2026-05-01T12:46:49.913Z</time></trkpt><trkpt lat="43.95596568469579" lon="10.899736694127567"><ele>106.75</ele><time>2026-05-01T12:46:50.913Z</time></trkpt><trkpt lat="43.956102789145056" lon="10.899732349134304"><ele>107.5</ele><time>2026-05-01T12:46:51.913Z</time></trkpt><trkpt lat="43.95621908466457" lon="10.89967925885426"><ele>108.25</ele><time>2026-05-01T12:46:52.913Z</time></trkpt><trkpt lat="43.95632733274314" lon="10.89957155294496"><ele>109.0</ele><time>2026-05-01T12:46:53.913Z</time></trkpt><trkpt lat="43.95641423662006" lon="10.899410455288354"><ele>109.0</ele><time>2026-05-01T12:46:54.913Z</time></trkpt><trkpt lat="43.95647631066489" lon="10.899221941541347"><ele>109.0</ele><time>2026-05-01T12:46:55.913Z</time></trkpt><trkpt lat="43.95652127002523" lon="10.899018523155268"><ele>109.0</ele><time>2026-05-01T12:46:56.913Z</time></trkpt><trkpt lat="43.9565611815145" lon="10.898805906414886"><ele>109.0</ele><time>2026-05-01T12:46:57.913Z</time></trkpt><trkpt lat="43.95661467585067" lon="10.898589117843493"><ele>109.0</ele><time>2026-05-01T12:46:58.913Z</time></trkpt><trkpt lat="43.95667501927767" lon="10.898372257540546"><ele>109.0</ele><time>2026-05-01T12:46:59.913Z</time></trkpt><trkpt lat="43.956735913499884" lon="10.89815326126648"><ele>109.0</ele><time>2026-05-01T12:47:00.913Z</time></trkpt><trkpt lat="43.95679584472016" lon="10.897922040668433"><ele>109.0</ele><time>2026-05-01T12:47:01.913Z</time></trkpt><trkpt lat="43.956863269929" lon="10.897686590073162"><ele>109.0</ele><time>2026-05-01T12:47:02.913Z</time></trkpt><trkpt lat="43.956928933181224" lon="10.897445768219187"><ele>108.66666666666667</ele><time>2026-05-01T12:47:03.913Z</time></trkpt><trkpt lat="43.956994775605416" lon="10.89720521710795"><ele>108.33333333333334</ele><time>2026-05-01T12:47:04.913Z</time></trkpt><trkpt lat="43.95705721333434" lon="10.896976936749038"><ele>108.0</ele><time>2026-05-01T12:47:05.913Z</time></trkpt><trkpt lat="43.957117725792145" lon="10.896759818819236"><ele>107.0</ele><time>2026-05-01T12:47:06.913Z</time></trkpt><trkpt lat="43.95718797061413" lon="10.896569420695046"><ele>106.0</ele><time>2026-05-01T12:47:07.913Z</time></trkpt><trkpt lat="43.95728336277655" lon="10.89639546017478"><ele>105.0</ele><time>2026-05-01T12:47:08.913Z</time></trkpt><trkpt lat="43.957396265477" lon="10.896232329103947"><ele>105.0</ele><time>2026-05-01T12:47:09.913Z</time></trkpt><trkpt lat="43.95752635234547" lon="10.89608803687987"><ele>105.0</ele><time>2026-05-01T12:47:10.913Z</time></trkpt><trkpt lat="43.95767129595684" lon="10.895970336135914"><ele>105.0</ele><time>2026-05-01T12:47:11.913Z</time></trkpt><trkpt lat="43.957826254234455" lon="10.895888934458325"><ele>105.5</ele><time>2026-05-01T12:47:12.913Z</time></trkpt><trkpt lat="43.95797693558729" lon="10.895837844175675"><ele>106.0</ele><time>2026-05-01T12:47:13.913Z</time></trkpt><trkpt lat="43.958104826594166" lon="10.895824609209813"><ele>106.5</ele><time>2026-05-01T12:47:14.913Z</time></trkpt><trkpt lat="43.95820805312641" lon="10.895821521195533"><ele>107.0</ele><time>2026-05-01T12:47:15.912Z</time></trkpt><trkpt lat="43.95828923490278" lon="10.895815526650106"><ele>107.75</ele><time>2026-05-01T12:47:16.912Z</time></trkpt><trkpt lat="43.95836937292865" lon="10.895805506005697"><ele>108.5</ele><time>2026-05-01T12:47:17.912Z</time></trkpt><trkpt lat="43.958465423963325" lon="10.89578581120296"><ele>109.25</ele><time>2026-05-01T12:47:18.912Z</time></trkpt><trkpt lat="43.958594291988156" lon="10.895759462496168"><ele>110.0</ele><time>2026-05-01T12:47:19.912Z</time></trkpt><trkpt lat="43.95875424537795" lon="10.895737482562186"><ele>110.0</ele><time>2026-05-01T12:47:20.912Z</time></trkpt><trkpt lat="43.95893741879925" lon="10.895717091684899"><ele>110.0</ele><time>2026-05-01T12:47:21.912Z</time></trkpt><trkpt lat="43.95910529327245" lon="10.895691659740509"><ele>110.0</ele><time>2026-05-01T12:47:22.912Z</time></trkpt><trkpt lat="43.95927370944048" lon="10.895666172179508"><ele>111.0</ele><time>2026-05-01T12:47:23.912Z</time></trkpt><trkpt lat="43.95946129364095" lon="10.895639021833539"><ele>112.0</ele><time>2026-05-01T12:47:24.912Z</time></trkpt><trkpt lat="43.95966913143926" lon="10.895609388258443"><ele>113.0</ele><time>2026-05-01T12:47:25.912Z</time></trkpt><trkpt lat="43.95988916575331" lon="10.895578082309576"><ele>113.33333333333333</ele><time>2026-05-01T12:47:26.912Z</time></trkpt><trkpt lat="43.96010318934705" lon="10.895548909550168"><ele>113.66666666666666</ele><time>2026-05-01T12:47:27.912Z</time></trkpt><trkpt lat="43.96032284237161" lon="10.895517141840312"><ele>114.0</ele><time>2026-05-01T12:47:28.912Z</time></trkpt><trkpt lat="43.9605453871842" lon="10.895483659121723"><ele>114.0</ele><time>2026-05-01T12:47:29.912Z</time></trkpt><trkpt lat="43.96076814072006" lon="10.895453768585774"><ele>114.0</ele><time>2026-05-01T12:47:30.912Z</time></trkpt><trkpt lat="43.960994770642344" lon="10.895424384092943"><ele>113.5</ele><time>2026-05-01T12:47:31.912Z</time></trkpt><trkpt lat="43.96122098251916" lon="10.895394724900223"><ele>113.0</ele><time>2026-05-01T12:47:32.912Z</time></trkpt><trkpt lat="43.96144248368207" lon="10.895355596464078"><ele>113.0</ele><time>2026-05-01T12:47:33.912Z</time></trkpt><trkpt lat="43.9616611158827" lon="10.895321605909315"><ele>113.0</ele><time>2026-05-01T12:47:34.912Z</time></trkpt><trkpt lat="43.96187601157223" lon="10.895291487645078"><ele>113.0</ele><time>2026-05-01T12:47:35.912Z</time></trkpt><trkpt lat="43.962087717311654" lon="10.895265091175226"><ele>113.66666666666666</ele><time>2026-05-01T12:47:36.912Z</time></trkpt><trkpt lat="43.962283800977815" lon="10.895238131073688"><ele>114.33333333333334</ele><time>2026-05-01T12:47:37.912Z</time></trkpt><trkpt lat="43.96247430889621" lon="10.895211165354706"><ele>115.0</ele><time>2026-05-01T12:47:38.912Z</time></trkpt><trkpt lat="43.96266731610912" lon="10.89518484949678"><ele>115.0</ele><time>2026-05-01T12:47:39.912Z</time></trkpt><trkpt lat="43.962862462595204" lon="10.89515827989371"><ele>115.0</ele><time>2026-05-01T12:47:40.912Z</time></trkpt><trkpt lat="43.96305636271451" lon="10.895128025908662"><ele>115.0</ele><time>2026-05-01T12:47:41.912Z</time></trkpt><trkpt lat="43.96324630087409" lon="10.895091703143049"><ele>115.33333333333334</ele><time>2026-05-01T12:47:42.912Z</time></trkpt><trkpt lat="43.963438241745564" lon="10.895036351644029"><ele>115.66666666666666</ele><time>2026-05-01T12:47:43.912Z</time></trkpt><trkpt lat="43.963630333895985" lon="10.894963980826077"><ele>116.0</ele><time>2026-05-01T12:47:44.912Z</time></trkpt><trkpt lat="43.96381840248085" lon="10.894877186607593"><ele>116.0</ele><time>2026-05-01T12:47:45.912Z</time></trkpt><trkpt lat="43.96399888405558" lon="10.894783083076234"><ele>116.0</ele><time>2026-05-01T12:47:46.912Z</time></trkpt><trkpt lat="43.964177335001864" lon="10.894683270098165"><ele>116.0</ele><time>2026-05-01T12:47:47.912Z</time></trkpt><trkpt lat="43.96435288685391" lon="10.894580945149514"><ele>117.66666666666666</ele><time>2026-05-01T12:47:48.912Z</time></trkpt><trkpt lat="43.964520718118614" lon="10.894505319431707"><ele>119.33333333333334</ele><time>2026-05-01T12:47:49.912Z</time></trkpt><trkpt lat="43.96468373990195" lon="10.894403277971113"><ele>121.0</ele><time>2026-05-01T12:47:50.912Z</time></trkpt><trkpt lat="43.96484637047164" lon="10.89430744158515"><ele>120.66666666666667</ele><time>2026-05-01T12:47:51.912Z</time></trkpt><trkpt lat="43.96500503562899" lon="10.89421015065926"><ele>120.33333333333334</ele><time>2026-05-01T12:47:52.912Z</time></trkpt><trkpt lat="43.9651630345411" lon="10.894119665845137"><ele>120.0</ele><time>2026-05-01T12:47:53.912Z</time></trkpt><trkpt lat="43.965312977144826" lon="10.894028275181068"><ele>120.0</ele><time>2026-05-01T12:47:54.912Z</time></trkpt><trkpt lat="43.965443758883964" lon="10.893950260998858"><ele>120.0</ele><time>2026-05-01T12:47:55.912Z</time></trkpt><trkpt lat="43.96556662159226" lon="10.893867175767642"><ele>120.0</ele><time>2026-05-01T12:47:56.912Z</time></trkpt><trkpt lat="43.96569580736725" lon="10.893753508804119"><ele>120.0</ele><time>2026-05-01T12:47:57.911Z</time></trkpt><trkpt lat="43.96583365076396" lon="10.893614380404"><ele>120.33333333333334</ele><time>2026-05-01T12:47:58.911Z</time></trkpt><trkpt lat="43.965966289751385" lon="10.893445446367608"><ele>120.66666666666667</ele><time>2026-05-01T12:47:59.911Z</time></trkpt><trkpt lat="43.966078657903246" lon="10.893256322238678"><ele>121.0</ele><time>2026-05-01T12:48:00.911Z</time></trkpt><trkpt lat="43.96617313922322" lon="10.893059768204681"><ele>121.25</ele><time>2026-05-01T12:48:01.91Z</time></trkpt><trkpt lat="43.96624743472857" lon="10.892862448762502"><ele>121.5</ele><time>2026-05-01T12:48:02.91Z</time></trkpt><trkpt lat="43.966301345364116" lon="10.892674055744259"><ele>121.75</ele><time>2026-05-01T12:48:03.911Z</time></trkpt><trkpt lat="43.966348366864004" lon="10.892493224966417"><ele>122.0</ele><time>2026-05-01T12:48:04.911Z</time></trkpt><trkpt lat="43.96638494700382" lon="10.892302206414763"><ele>122.25</ele><time>2026-05-01T12:48:05.911Z</time></trkpt><trkpt lat="43.96642689548025" lon="10.89210765893019"><ele>122.5</ele><time>2026-05-01T12:48:06.911Z</time></trkpt><trkpt lat="43.96647093162698" lon="10.891908691357093"><ele>122.75</ele><time>2026-05-01T12:48:07.91Z</time></trkpt><trkpt lat="43.96652063095854" lon="10.891709713696965"><ele>123.0</ele><time>2026-05-01T12:48:08.91Z</time></trkpt><trkpt lat="43.966574432283984" lon="10.891522440446488"><ele>123.0</ele><time>2026-05-01T12:48:09.91Z</time></trkpt><trkpt lat="43.96662756285305" lon="10.891347761809719"><ele>123.0</ele><time>2026-05-01T12:48:10.91Z</time></trkpt><trkpt lat="43.96669795918755" lon="10.891175160326062"><ele>123.0</ele><time>2026-05-01T12:48:11.91Z</time></trkpt><trkpt lat="43.966799025218045" lon="10.89102259686137"><ele>123.0</ele><time>2026-05-01T12:48:12.91Z</time></trkpt><trkpt lat="43.96693365598523" lon="10.890877422842827"><ele>124.33333333333334</ele><time>2026-05-01T12:48:13.91Z</time></trkpt><trkpt lat="43.96708457553274" lon="10.890752633893412"><ele>125.66666666666667</ele><time>2026-05-01T12:48:14.91Z</time></trkpt><trkpt lat="43.96725175498504" lon="10.890645390335175"><ele>127.0</ele><time>2026-05-01T12:48:15.91Z</time></trkpt><trkpt lat="43.96744244918793" lon="10.890546903675213"><ele>126.5</ele><time>2026-05-01T12:48:16.91Z</time></trkpt><trkpt lat="43.9676724109122" lon="10.890480569996358"><ele>126.0</ele><time>2026-05-01T12:48:17.91Z</time></trkpt><trkpt lat="43.96790828928616" lon="10.890393135821677"><ele>126.0</ele><time>2026-05-01T12:48:18.91Z</time></trkpt><trkpt lat="43.96814476052224" lon="10.890304710109865"><ele>126.0</ele><time>2026-05-01T12:48:19.91Z</time></trkpt><trkpt lat="43.96840043906821" lon="10.890208443147467"><ele>126.5</ele><time>2026-05-01T12:48:20.91Z</time></trkpt><trkpt lat="43.96868841425415" lon="10.890100606422504"><ele>127.0</ele><time>2026-05-01T12:48:21.91Z</time></trkpt><trkpt lat="43.96901551536636" lon="10.889978386875239"><ele>128.0</ele><time>2026-05-01T12:48:22.91Z</time></trkpt><trkpt lat="43.96935946416992" lon="10.889847601847036"><ele>129.0</ele><time>2026-05-01T12:48:23.91Z</time></trkpt><trkpt lat="43.96972817694588" lon="10.889697964835173"><ele>130.0</ele><time>2026-05-01T12:48:24.91Z</time></trkpt><trkpt lat="43.97009185326971" lon="10.889563804595019"><ele>131.0</ele><time>2026-05-01T12:48:25.91Z</time></trkpt><trkpt lat="43.97041520791063" lon="10.889439790963195"><ele>131.0</ele><time>2026-05-01T12:48:26.91Z</time></trkpt><trkpt lat="43.970704575280934" lon="10.889333356890752"><ele>131.0</ele><time>2026-05-01T12:48:27.91Z</time></trkpt><trkpt lat="43.97097083878295" lon="10.889238768606848"><ele>132.5</ele><time>2026-05-01T12:48:28.91Z</time></trkpt><trkpt lat="43.97121786527568" lon="10.889138655204635"><ele>134.0</ele><time>2026-05-01T12:48:29.91Z</time></trkpt><trkpt lat="43.97145367524657" lon="10.889042437166633"><ele>134.0</ele><time>2026-05-01T12:48:30.91Z</time></trkpt><trkpt lat="43.971663454864924" lon="10.888923819505726"><ele>134.0</ele><time>2026-05-01T12:48:31.91Z</time></trkpt><trkpt lat="43.97184908770721" lon="10.888797340031852"><ele>134.0</ele><time>2026-05-01T12:48:32.91Z</time></trkpt><trkpt lat="43.97202712868018" lon="10.888697291821547"><ele>134.66666666666666</ele><time>2026-05-01T12:48:33.91Z</time></trkpt><trkpt lat="43.97222194617839" lon="10.888672848670494"><ele>135.33333333333334</ele><time>2026-05-01T12:48:34.91Z</time></trkpt><trkpt lat="43.972428434445106" lon="10.88864249819176"><ele>136.0</ele><time>2026-05-01T12:48:35.91Z</time></trkpt><trkpt lat="43.97263845374553" lon="10.888664347289053"><ele>136.0</ele><time>2026-05-01T12:48:36.91Z</time></trkpt><trkpt lat="43.97284356983009" lon="10.888678776838022"><ele>136.0</ele><time>2026-05-01T12:48:37.91Z</time></trkpt><trkpt lat="43.97303451835784" lon="10.888660897965238"><ele>136.0</ele><time>2026-05-01T12:48:38.91Z</time></trkpt><trkpt lat="43.97322050440858" lon="10.8886263634539"><ele>137.0</ele><time>2026-05-01T12:48:39.91Z</time></trkpt><trkpt lat="43.973389459756454" lon="10.888577985475482"><ele>138.0</ele><time>2026-05-01T12:48:40.91Z</time></trkpt><trkpt lat="43.97353161207054" lon="10.88851561080348"><ele>139.0</ele><time>2026-05-01T12:48:41.91Z</time></trkpt><trkpt lat="43.97366553407133" lon="10.888442384157678"><ele>141.75</ele><time>2026-05-01T12:48:42.91Z</time></trkpt><trkpt lat="43.97379036729855" lon="10.888349517463338"><ele>144.5</ele><time>2026-05-01T12:48:43.91Z</time></trkpt><trkpt lat="43.97389837539763" lon="10.888226019685906"><ele>147.25</ele><time>2026-05-01T12:48:44.91Z</time></trkpt><trkpt lat="43.973973701994346" lon="10.888067949578984"><ele>150.0</ele><time>2026-05-01T12:48:45.91Z</time></trkpt><trkpt lat="43.97400977936257" lon="10.887900062465407"><ele>150.0</ele><time>2026-05-01T12:48:46.91Z</time></trkpt><trkpt lat="43.9740073093614" lon="10.88772903608033"><ele>150.0</ele><time>2026-05-01T12:48:47.91Z</time></trkpt><trkpt lat="43.9739620086345" lon="10.887560748710458"><ele>150.0</ele><time>2026-05-01T12:48:48.91Z</time></trkpt><trkpt lat="43.973878769142594" lon="10.88741659304348"><ele>150.0</ele><time>2026-05-01T12:48:49.91Z</time></trkpt><trkpt lat="43.973761100985946" lon="10.887310888877419"><ele>153.66666666666666</ele><time>2026-05-01T12:48:50.91Z</time></trkpt><trkpt lat="43.97362764692676" lon="10.887252581188283"><ele>157.33333333333331</ele><time>2026-05-01T12:48:51.91Z</time></trkpt><trkpt lat="43.97347544382393" lon="10.88724843079561"><ele>161.0</ele><time>2026-05-01T12:48:52.91Z</time></trkpt><trkpt lat="43.973305658783445" lon="10.887256393381172"><ele>162.33333333333331</ele><time>2026-05-01T12:48:53.91Z</time></trkpt><trkpt lat="43.97309287761289" lon="10.887230317454316"><ele>163.66666666666666</ele><time>2026-05-01T12:48:54.91Z</time></trkpt><trkpt lat="43.97289738825609" lon="10.887138909073926"><ele>165.0</ele><time>2026-05-01T12:48:55.91Z</time></trkpt><trkpt lat="43.9727165214242" lon="10.887093405471465"><ele>165.0</ele><time>2026-05-01T12:48:56.91Z</time></trkpt><trkpt lat="43.972574268861685" lon="10.887021355514468"><ele>165.0</ele><time>2026-05-01T12:48:57.91Z</time></trkpt><trkpt lat="43.972375479948006" lon="10.886977344629836"><ele>165.0</ele><time>2026-05-01T12:48:58.91Z</time></trkpt><trkpt lat="43.97216589005198" lon="10.88697199404395"><ele>164.0</ele><time>2026-05-01T12:48:59.91Z</time></trkpt><trkpt lat="43.97199484539392" lon="10.886994430286727"><ele>163.0</ele><time>2026-05-01T12:49:00.91Z</time></trkpt><trkpt lat="43.97186322851397" lon="10.886971291739586"><ele>162.0</ele><time>2026-05-01T12:49:01.91Z</time></trkpt><trkpt lat="43.97177514116535" lon="10.886915190299355"><ele>161.0</ele><time>2026-05-01T12:49:02.91Z</time></trkpt><trkpt lat="43.97172440957471" lon="10.8868119807523"><ele>165.5</ele><time>2026-05-01T12:49:03.91Z</time></trkpt><trkpt lat="43.97171352783796" lon="10.886666369971248"><ele>170.0</ele><time>2026-05-01T12:49:04.91Z</time></trkpt><trkpt lat="43.97176873367154" lon="10.88650399540494"><ele>174.5</ele><time>2026-05-01T12:49:05.91Z</time></trkpt><trkpt lat="43.9718138160314" lon="10.88630079025919"><ele>179.0</ele><time>2026-05-01T12:49:06.91Z</time></trkpt><trkpt lat="43.97188105224098" lon="10.886091487091647"><ele>184.33333333333331</ele><time>2026-05-01T12:49:07.91Z</time></trkpt><trkpt lat="43.97198657248177" lon="10.885894447861034"><ele>189.66666666666666</ele><time>2026-05-01T12:49:08.91Z</time></trkpt><trkpt lat="43.97210263317146" lon="10.885723078980648"><ele>195.0</ele><time>2026-05-01T12:49:09.91Z</time></trkpt><trkpt lat="43.972235288503754" lon="10.885551712292806"><ele>195.0</ele><time>2026-05-01T12:49:10.91Z</time></trkpt><trkpt lat="43.972397292556366" lon="10.88541294223602"><ele>195.0</ele><time>2026-05-01T12:49:11.91Z</time></trkpt><trkpt lat="43.972545524058155" lon="10.88528117152642"><ele>195.0</ele><time>2026-05-01T12:49:12.91Z</time></trkpt><trkpt lat="43.972666369167456" lon="10.885174674652514"><ele>196.25</ele><time>2026-05-01T12:49:13.91Z</time></trkpt><trkpt lat="43.97276674329778" lon="10.88506467713418"><ele>197.5</ele><time>2026-05-01T12:49:14.91Z</time></trkpt><trkpt lat="43.97283818796445" lon="10.88494310759977"><ele>198.75</ele><time>2026-05-01T12:49:15.91Z</time></trkpt><trkpt lat="43.97285825681786" lon="10.884799222547546"><ele>200.0</ele><time>2026-05-01T12:49:16.91Z</time></trkpt><trkpt lat="43.97282389899469" lon="10.884640661827298"><ele>200.0</ele><time>2026-05-01T12:49:17.91Z</time></trkpt><trkpt lat="43.97275215750852" lon="10.884510561859972"><ele>200.0</ele><time>2026-05-01T12:49:18.91Z</time></trkpt><trkpt lat="43.972655235475386" lon="10.88442411658978"><ele>200.0</ele><time>2026-05-01T12:49:19.91Z</time></trkpt><trkpt lat="43.972540403509996" lon="10.884374498070683"><ele>200.0</ele><time>2026-05-01T12:49:20.91Z</time></trkpt><trkpt lat="43.9724065736318" lon="10.884322250748655"><ele>202.0</ele><time>2026-05-01T12:49:21.91Z</time></trkpt><trkpt lat="43.972254205637306" lon="10.88424180399253"><ele>204.0</ele><time>2026-05-01T12:49:22.91Z</time></trkpt><trkpt lat="43.972111105067306" lon="10.884159618777845"><ele>206.0</ele><time>2026-05-01T12:49:23.91Z</time></trkpt><trkpt lat="43.97197669091003" lon="10.884077635767783"><ele>206.0</ele><time>2026-05-01T12:49:24.91Z</time></trkpt><trkpt lat="43.97186531773265" lon="10.884020680434098"><ele>206.0</ele><time>2026-05-01T12:49:25.91Z</time></trkpt><trkpt lat="43.97177427361218" lon="10.883960719204946"><ele>206.0</ele><time>2026-05-01T12:49:26.91Z</time></trkpt><trkpt lat="43.971697265103344" lon="10.883878988861051"><ele>206.0</ele><time>2026-05-01T12:49:27.91Z</time></trkpt><trkpt lat="43.97164291821054" lon="10.883746555637144"><ele>206.0</ele><time>2026-05-01T12:49:28.91Z</time></trkpt><trkpt lat="43.971625779983064" lon="10.883589092562078"><ele>205.25</ele><time>2026-05-01T12:49:29.91Z</time></trkpt><trkpt lat="43.971665806003536" lon="10.883432231456624"><ele>204.5</ele><time>2026-05-01T12:49:30.91Z</time></trkpt><trkpt lat="43.971739369432875" lon="10.883312916679946"><ele>203.75</ele><time>2026-05-01T12:49:31.91Z</time></trkpt><trkpt lat="43.971849826192866" lon="10.883247171221514"><ele>203.0</ele><time>2026-05-01T12:49:32.91Z</time></trkpt><trkpt lat="43.97198084285948" lon="10.8832509139378"><ele>204.0</ele><time>2026-05-01T12:49:33.91Z</time></trkpt><trkpt lat="43.97210375034634" lon="10.883343291685302"><ele>205.0</ele><time>2026-05-01T12:49:34.91Z</time></trkpt><trkpt lat="43.97225237441573" lon="10.883434414524883"><ele>206.0</ele><time>2026-05-01T12:49:35.91Z</time></trkpt><trkpt lat="43.97240048060458" lon="10.883537384621832"><ele>206.5</ele><time>2026-05-01T12:49:36.91Z</time></trkpt><trkpt lat="43.972525392119366" lon="10.883608270162405"><ele>207.0</ele><time>2026-05-01T12:49:37.91Z</time></trkpt><trkpt lat="43.972632390178795" lon="10.883647015056015"><ele>207.5</ele><time>2026-05-01T12:49:38.91Z</time></trkpt><trkpt lat="43.97273801315807" lon="10.883629930928722"><ele>208.0</ele><time>2026-05-01T12:49:39.91Z</time></trkpt><trkpt lat="43.97284028470757" lon="10.883559710749465"><ele>208.0</ele><time>2026-05-01T12:49:40.91Z</time></trkpt><trkpt lat="43.97290772198998" lon="10.883444143799558"><ele>208.0</ele><time>2026-05-01T12:49:41.91Z</time></trkpt><trkpt lat="43.972937222153575" lon="10.883278744626788"><ele>208.0</ele><time>2026-05-01T12:49:42.91Z</time></trkpt><trkpt lat="43.97292850380616" lon="10.883094429895108"><ele>208.0</ele><time>2026-05-01T12:49:43.91Z</time></trkpt><trkpt lat="43.97290538022681" lon="10.882915992999957"><ele>211.25</ele><time>2026-05-01T12:49:44.91Z</time></trkpt><trkpt lat="43.97290911118876" lon="10.882735861539917"><ele>214.5</ele><time>2026-05-01T12:49:45.91Z</time></trkpt><trkpt lat="43.972961420523845" lon="10.882568206695707"><ele>217.75</ele><time>2026-05-01T12:49:46.909Z</time></trkpt><trkpt lat="43.973070665811754" lon="10.882465401868016"><ele>221.0</ele><time>2026-05-01T12:49:47.908Z</time></trkpt><trkpt lat="43.9731948707754" lon="10.882356163304244"><ele>224.33333333333334</ele><time>2026-05-01T12:49:48.908Z</time></trkpt><trkpt lat="43.9733300136964" lon="10.882215753843257"><ele>227.66666666666669</ele><time>2026-05-01T12:49:49.907Z</time></trkpt><trkpt lat="43.97347429637954" lon="10.88209996265386"><ele>231.0</ele><time>2026-05-01T12:49:50.907Z</time></trkpt><trkpt lat="43.973617132644385" lon="10.881991689961806"><ele>234.33333333333331</ele><time>2026-05-01T12:49:51.906Z</time></trkpt><trkpt lat="43.973773719756586" lon="10.881883654664561"><ele>237.66666666666666</ele><time>2026-05-01T12:49:52.906Z</time></trkpt><trkpt lat="43.97394149828044" lon="10.88183153711378"><ele>241.0</ele><time>2026-05-01T12:49:53.905Z</time></trkpt><trkpt lat="43.97411729745144" lon="10.881753978477922"><ele>241.66666666666666</ele><time>2026-05-01T12:49:54.905Z</time></trkpt><trkpt lat="43.97430090976358" lon="10.881700266853512"><ele>242.33333333333331</ele><time>2026-05-01T12:49:55.905Z</time></trkpt><trkpt lat="43.974480043974616" lon="10.881641427962254"><ele>243.0</ele><time>2026-05-01T12:49:56.904Z</time></trkpt><trkpt lat="43.974657268485544" lon="10.881577423464725"><ele>243.0</ele><time>2026-05-01T12:49:57.904Z</time></trkpt><trkpt lat="43.974825450367675" lon="10.881516048189546"><ele>243.0</ele><time>2026-05-01T12:49:58.904Z</time></trkpt><trkpt lat="43.97498265975117" lon="10.881455536152542"><ele>243.0</ele><time>2026-05-01T12:49:59.903Z</time></trkpt><trkpt lat="43.97510894225592" lon="10.88140739271417"><ele>242.4</ele><time>2026-05-01T12:50:00.903Z</time></trkpt><trkpt lat="43.97520284512128" lon="10.881337510277618"><ele>241.8</ele><time>2026-05-01T12:50:01.903Z</time></trkpt><trkpt lat="43.975258989006015" lon="10.881219379300155"><ele>241.2</ele><time>2026-05-01T12:50:02.903Z</time></trkpt><trkpt lat="43.975280275731166" lon="10.881074591542312"><ele>240.6</ele><time>2026-05-01T12:50:03.902Z</time></trkpt><trkpt lat="43.97526793911078" lon="10.88089457165308"><ele>240.0</ele><time>2026-05-01T12:50:04.901Z</time></trkpt><trkpt lat="43.97523788257419" lon="10.880718472519726"><ele>240.0</ele><time>2026-05-01T12:50:05.901Z</time></trkpt><trkpt lat="43.97520991940953" lon="10.88052975213876"><ele>240.0</ele><time>2026-05-01T12:50:06.901Z</time></trkpt><trkpt lat="43.97519251932198" lon="10.880330061641038"><ele>240.0</ele><time>2026-05-01T12:50:07.901Z</time></trkpt><trkpt lat="43.97519025934663" lon="10.880130876975842"><ele>240.0</ele><time>2026-05-01T12:50:08.901Z</time></trkpt><trkpt lat="43.97523009545886" lon="10.87993428540097"><ele>241.0</ele><time>2026-05-01T12:50:09.901Z</time></trkpt><trkpt lat="43.97525437877639" lon="10.879710930066933"><ele>242.0</ele><time>2026-05-01T12:50:10.901Z</time></trkpt><trkpt lat="43.975299995973856" lon="10.8794940736789"><ele>243.0</ele><time>2026-05-01T12:50:11.901Z</time></trkpt><trkpt lat="43.97533774076957" lon="10.879271826666123"><ele>245.66666666666669</ele><time>2026-05-01T12:50:12.9Z</time></trkpt><trkpt lat="43.97537904491108" lon="10.879053951236335"><ele>248.33333333333334</ele><time>2026-05-01T12:50:13.9Z</time></trkpt><trkpt lat="43.97541507698273" lon="10.878844021621749"><ele>251.0</ele><time>2026-05-01T12:50:14.9Z</time></trkpt><trkpt lat="43.975451569547175" lon="10.878659364583898"><ele>251.0</ele><time>2026-05-01T12:50:15.9Z</time></trkpt><trkpt lat="43.97553135878469" lon="10.878504868994515"><ele>251.0</ele><time>2026-05-01T12:50:16.9Z</time></trkpt><trkpt lat="43.975625554413114" lon="10.878365898132762"><ele>251.0</ele><time>2026-05-01T12:50:17.9Z</time></trkpt><trkpt lat="43.97571115089816" lon="10.878207838721641"><ele>251.0</ele><time>2026-05-01T12:50:18.9Z</time></trkpt><trkpt lat="43.97578650608513" lon="10.878095383296696"><ele>255.25</ele><time>2026-05-01T12:50:19.9Z</time></trkpt><trkpt lat="43.97583174458447" lon="10.877957295957923"><ele>259.5</ele><time>2026-05-01T12:50:20.9Z</time></trkpt><trkpt lat="43.97584312254366" lon="10.877788206759385"><ele>263.75</ele><time>2026-05-01T12:50:21.9Z</time></trkpt><trkpt lat="43.97583605131525" lon="10.877603584883072"><ele>268.0</ele><time>2026-05-01T12:50:22.9Z</time></trkpt><trkpt lat="43.97584533006644" lon="10.8774672376014"><ele>270.25</ele><time>2026-05-01T12:50:23.9Z</time></trkpt><trkpt lat="43.97581072478534" lon="10.877329741229625"><ele>272.5</ele><time>2026-05-01T12:50:24.9Z</time></trkpt><trkpt lat="43.97573241989613" lon="10.877211248525644"><ele>274.75</ele><time>2026-05-01T12:50:25.9Z</time></trkpt><trkpt lat="43.975633550278616" lon="10.877118657152122"><ele>277.0</ele><time>2026-05-01T12:50:26.9Z</time></trkpt><trkpt lat="43.97550963889776" lon="10.877021065061424"><ele>277.0</ele><time>2026-05-01T12:50:27.9Z</time></trkpt><trkpt lat="43.975391175229014" lon="10.876886584298566"><ele>277.0</ele><time>2026-05-01T12:50:28.9Z</time></trkpt><trkpt lat="43.975255238546474" lon="10.876795455597744"><ele>277.0</ele><time>2026-05-01T12:50:29.9Z</time></trkpt><trkpt lat="43.9751268071465" lon="10.876681954440404"><ele>278.25</ele><time>2026-05-01T12:50:30.9Z</time></trkpt><trkpt lat="43.975003530478716" lon="10.876572354339759"><ele>279.5</ele><time>2026-05-01T12:50:31.899Z</time></trkpt><trkpt lat="43.974912877963824" lon="10.8764688681351"><ele>280.75</ele><time>2026-05-01T12:50:32.899Z</time></trkpt><trkpt lat="43.974851465492485" lon="10.876355954382547"><ele>282.0</ele><time>2026-05-01T12:50:33.899Z</time></trkpt><trkpt lat="43.97483509911189" lon="10.876225396345745"><ele>282.0</ele><time>2026-05-01T12:50:34.899Z</time></trkpt><trkpt lat="43.97486011571784" lon="10.876081120602175"><ele>282.0</ele><time>2026-05-01T12:50:35.899Z</time></trkpt><trkpt lat="43.974916150307465" lon="10.875943497479604"><ele>282.0</ele><time>2026-05-01T12:50:36.899Z</time></trkpt><trkpt lat="43.9750021184101" lon="10.875838898761229"><ele>282.0</ele><time>2026-05-01T12:50:37.899Z</time></trkpt><trkpt lat="43.975115735654015" lon="10.87575947118422"><ele>286.5</ele><time>2026-05-01T12:50:38.899Z</time></trkpt><trkpt lat="43.97524382402361" lon="10.875679872375102"><ele>291.0</ele><time>2026-05-01T12:50:39.899Z</time></trkpt><trkpt lat="43.97538129139118" lon="10.875601115317972"><ele>295.5</ele><time>2026-05-01T12:50:40.899Z</time></trkpt><trkpt lat="43.97550949024002" lon="10.875552139186356"><ele>300.0</ele><time>2026-05-01T12:50:41.899Z</time></trkpt><trkpt lat="43.97561790924874" lon="10.8754889029906"><ele>300.0</ele><time>2026-05-01T12:50:42.899Z</time></trkpt><trkpt lat="43.97573234950466" lon="10.875510574139382"><ele>300.0</ele><time>2026-05-01T12:50:43.899Z</time></trkpt><trkpt lat="43.97583602931979" lon="10.875577719737885"><ele>300.0</ele><time>2026-05-01T12:50:44.899Z</time></trkpt><trkpt lat="43.975929738896724" lon="10.875667200352453"><ele>300.0</ele><time>2026-05-01T12:50:45.899Z</time></trkpt><trkpt lat="43.97607225849691" lon="10.875710815035465"><ele>301.75</ele><time>2026-05-01T12:50:46.899Z</time></trkpt><trkpt lat="43.97619398090187" lon="10.875769473100965"><ele>303.5</ele><time>2026-05-01T12:50:47.899Z</time></trkpt><trkpt lat="43.97634327380866" lon="10.875841416431962"><ele>305.25</ele><time>2026-05-01T12:50:48.899Z</time></trkpt><trkpt lat="43.97649039685535" lon="10.875903837204964"><ele>307.0</ele><time>2026-05-01T12:50:49.899Z</time></trkpt><trkpt lat="43.976601893368006" lon="10.875934097766702"><ele>310.5</ele><time>2026-05-01T12:50:50.899Z</time></trkpt><trkpt lat="43.97695883223384" lon="10.875766152177283"><ele>314.0</ele><time>2026-05-01T12:50:51.899Z</time></trkpt><trkpt lat="43.97711503753281" lon="10.875662445906446"><ele>314.0</ele><time>2026-05-01T12:50:52.899Z</time></trkpt><trkpt lat="43.97728047373656" lon="10.875597030434339"><ele>314.0</ele><time>2026-05-01T12:50:53.899Z</time></trkpt><trkpt lat="43.9774622742914" lon="10.875540070360714"><ele>314.0</ele><time>2026-05-01T12:50:54.899Z</time></trkpt><trkpt lat="43.97764824210044" lon="10.875525096876142"><ele>312.6666666666667</ele><time>2026-05-01T12:50:55.899Z</time></trkpt><trkpt lat="43.97783453875326" lon="10.875516243948095"><ele>311.3333333333333</ele><time>2026-05-01T12:50:56.899Z</time></trkpt><trkpt lat="43.97799713136935" lon="10.875490165208154"><ele>310.0</ele><time>2026-05-01T12:50:57.899Z</time></trkpt><trkpt lat="43.97814871867901" lon="10.875487436433966"><ele>310.0</ele><time>2026-05-01T12:50:58.899Z</time></trkpt><trkpt lat="43.97828917653647" lon="10.875457779894246"><ele>310.0</ele><time>2026-05-01T12:50:59.899Z</time></trkpt><trkpt lat="43.97842354795973" lon="10.875379126437597"><ele>310.0</ele><time>2026-05-01T12:51:00.899Z</time></trkpt><trkpt lat="43.97854995430307" lon="10.875258699148278"><ele>310.0</ele><time>2026-05-01T12:51:01.899Z</time></trkpt><trkpt lat="43.97867536662452" lon="10.875115541408265"><ele>316.3333333333333</ele><time>2026-05-01T12:51:02.899Z</time></trkpt><trkpt lat="43.978804828592686" lon="10.87497441145682"><ele>322.6666666666667</ele><time>2026-05-01T12:51:03.899Z</time></trkpt><trkpt lat="43.9789526819949" lon="10.87485851948002"><ele>329.0</ele><time>2026-05-01T12:51:04.899Z</time></trkpt><trkpt lat="43.97911608089124" lon="10.874773244821979"><ele>332.0</ele><time>2026-05-01T12:51:05.899Z</time></trkpt><trkpt lat="43.97929650808274" lon="10.874760088809994"><ele>335.0</ele><time>2026-05-01T12:51:06.899Z</time></trkpt><trkpt lat="43.97947680463424" lon="10.874788048772558"><ele>338.0</ele><time>2026-05-01T12:51:07.899Z</time></trkpt><trkpt lat="43.97964754515184" lon="10.874844511339386"><ele>338.0</ele><time>2026-05-01T12:51:08.899Z</time></trkpt><trkpt lat="43.97979454047057" lon="10.874910575913153"><ele>338.0</ele><time>2026-05-01T12:51:09.899Z</time></trkpt><trkpt lat="43.97992704857977" lon="10.874974781972767"><ele>338.0</ele><time>2026-05-01T12:51:10.899Z</time></trkpt><trkpt lat="43.98004588664758" lon="10.875002471883132"><ele>338.0</ele><time>2026-05-01T12:51:11.899Z</time></trkpt><trkpt lat="43.980151752687284" lon="10.875028794939752"><ele>340.4</ele><time>2026-05-01T12:51:12.899Z</time></trkpt><trkpt lat="43.98022903733931" lon="10.874982886998021"><ele>342.79999999999995</ele><time>2026-05-01T12:51:13.899Z</time></trkpt><trkpt lat="43.980294130953226" lon="10.87486208908963"><ele>345.2</ele><time>2026-05-01T12:51:14.899Z</time></trkpt><trkpt lat="43.98031916897044" lon="10.874705306436066"><ele>347.6</ele><time>2026-05-01T12:51:15.899Z</time></trkpt><trkpt lat="43.98029663184886" lon="10.874553514364193"><ele>350.0</ele><time>2026-05-01T12:51:16.899Z</time></trkpt><trkpt lat="43.98023891743173" lon="10.87443523679947"><ele>350.0</ele><time>2026-05-01T12:51:17.899Z</time></trkpt><trkpt lat="43.980150387976025" lon="10.874371920344894"><ele>350.0</ele><time>2026-05-01T12:51:18.899Z</time></trkpt><trkpt lat="43.980030066009064" lon="10.874321162575676"><ele>350.0</ele><time>2026-05-01T12:51:19.899Z</time></trkpt><trkpt lat="43.97987686033897" lon="10.874300216510674"><ele>350.0</ele><time>2026-05-01T12:51:20.899Z</time></trkpt><trkpt lat="43.97971851767541" lon="10.874250922790063"><ele>351.33333333333337</ele><time>2026-05-01T12:51:21.899Z</time></trkpt><trkpt lat="43.97958553427149" lon="10.874132489600845"><ele>352.6666666666667</ele><time>2026-05-01T12:51:22.899Z</time></trkpt><trkpt lat="43.97947527789204" lon="10.873967807987936"><ele>354.0</ele><time>2026-05-01T12:51:23.899Z</time></trkpt><trkpt lat="43.979384270118345" lon="10.873768967073678"><ele>354.0</ele><time>2026-05-01T12:51:24.899Z</time></trkpt><trkpt lat="43.97929035208806" lon="10.873613090448737"><ele>354.0</ele><time>2026-05-01T12:51:25.899Z</time></trkpt><trkpt lat="43.97918220465822" lon="10.873506606974294"><ele>354.0</ele><time>2026-05-01T12:51:26.899Z</time></trkpt><trkpt lat="43.97905675578641" lon="10.873448852465762"><ele>354.0</ele><time>2026-05-01T12:51:27.899Z</time></trkpt><trkpt lat="43.97892058204469" lon="10.873460827214394"><ele>352.25</ele><time>2026-05-01T12:51:28.899Z</time></trkpt><trkpt lat="43.97878701128007" lon="10.873528945875965"><ele>350.5</ele><time>2026-05-01T12:51:29.899Z</time></trkpt><trkpt lat="43.97865611683869" lon="10.873621379051675"><ele>348.75</ele><time>2026-05-01T12:51:30.899Z</time></trkpt><trkpt lat="43.97853844891193" lon="10.873706520054368"><ele>347.0</ele><time>2026-05-01T12:51:31.899Z</time></trkpt><trkpt lat="43.97843169646183" lon="10.87375273853407"><ele>348.6</ele><time>2026-05-01T12:51:32.899Z</time></trkpt><trkpt lat="43.97833586146875" lon="10.873762003170198"><ele>350.20000000000005</ele><time>2026-05-01T12:51:33.899Z</time></trkpt><trkpt lat="43.97823440090758" lon="10.8737185120943"><ele>351.8</ele><time>2026-05-01T12:51:34.899Z</time></trkpt><trkpt lat="43.97814718726757" lon="10.873623522087902"><ele>353.4</ele><time>2026-05-01T12:51:35.899Z</time></trkpt><trkpt lat="43.97808009631367" lon="10.873486012422081"><ele>355.0</ele><time>2026-05-01T12:51:36.899Z</time></trkpt><trkpt lat="43.978060685247314" lon="10.87331797858304"><ele>356.75</ele><time>2026-05-01T12:51:37.899Z</time></trkpt><trkpt lat="43.97809285427893" lon="10.87315033381789"><ele>358.5</ele><time>2026-05-01T12:51:38.899Z</time></trkpt><trkpt lat="43.97817427977695" lon="10.873003131368991"><ele>360.25</ele><time>2026-05-01T12:51:39.898Z</time></trkpt><trkpt lat="43.97828997972577" lon="10.872903615426443"><ele>362.0</ele><time>2026-05-01T12:51:40.898Z</time></trkpt><trkpt lat="43.978436525249634" lon="10.872819611974888"><ele>362.0</ele><time>2026-05-01T12:51:41.898Z</time></trkpt><trkpt lat="43.97859637222032" lon="10.872722470752382"><ele>362.0</ele><time>2026-05-01T12:51:42.898Z</time></trkpt><trkpt lat="43.97873949431072" lon="10.872611842850235"><ele>362.0</ele><time>2026-05-01T12:51:43.898Z</time></trkpt><trkpt lat="43.97886245218618" lon="10.872459243416804"><ele>366.0</ele><time>2026-05-01T12:51:44.898Z</time></trkpt><trkpt lat="43.978953492363836" lon="10.872260156040294"><ele>370.0</ele><time>2026-05-01T12:51:45.898Z</time></trkpt><trkpt lat="43.979030372400274" lon="10.872037853607303"><ele>374.0</ele><time>2026-05-01T12:51:46.898Z</time></trkpt><trkpt lat="43.979118237511855" lon="10.871823505494977"><ele>382.33333333333337</ele><time>2026-05-01T12:51:47.898Z</time></trkpt><trkpt lat="43.97920367394692" lon="10.871605282201969"><ele>390.6666666666667</ele><time>2026-05-01T12:51:48.898Z</time></trkpt><trkpt lat="43.979268633011365" lon="10.871376876789574"><ele>399.0</ele><time>2026-05-01T12:51:49.898Z</time></trkpt><trkpt lat="43.979316460324085" lon="10.871153451604064"><ele>399.0</ele><time>2026-05-01T12:51:50.898Z</time></trkpt><trkpt lat="43.97936012619292" lon="10.870946135520814"><ele>399.0</ele><time>2026-05-01T12:51:51.898Z</time></trkpt><trkpt lat="43.97941451459848" lon="10.870778926150734"><ele>399.0</ele><time>2026-05-01T12:51:52.898Z</time></trkpt><trkpt lat="43.97951935003228" lon="10.87066008393727"><ele>399.0</ele><time>2026-05-01T12:51:53.898Z</time></trkpt><trkpt lat="43.979631718251085" lon="10.870511822465472"><ele>397.33333333333337</ele><time>2026-05-01T12:51:54.898Z</time></trkpt><trkpt lat="43.9797659627411" lon="10.8703834871259"><ele>395.6666666666667</ele><time>2026-05-01T12:51:55.898Z</time></trkpt><trkpt lat="43.97988799706347" lon="10.87022326829833"><ele>394.0</ele><time>2026-05-01T12:51:56.898Z</time></trkpt><trkpt lat="43.97999765679807" lon="10.870032955766503"><ele>409.0</ele><time>2026-05-01T12:51:57.898Z</time></trkpt><trkpt lat="43.98009519666199" lon="10.869834874053721"><ele>424.0</ele><time>2026-05-01T12:51:58.898Z</time></trkpt><trkpt lat="43.98020429433023" lon="10.869640574230461"><ele>439.0</ele><time>2026-05-01T12:51:59.898Z</time></trkpt><trkpt lat="43.98032328865906" lon="10.869466739959249"><ele>439.0</ele><time>2026-05-01T12:52:00.898Z</time></trkpt><trkpt lat="43.98043406854055" lon="10.86933149505791"><ele>439.0</ele><time>2026-05-01T12:52:01.898Z</time></trkpt><trkpt lat="43.98053737314572" lon="10.86921238670987"><ele>439.0</ele><time>2026-05-01T12:52:02.898Z</time></trkpt><trkpt lat="43.980605840799775" lon="10.869065826399051"><ele>439.0</ele><time>2026-05-01T12:52:03.898Z</time></trkpt><trkpt lat="43.98063305584368" lon="10.86887790603267"><ele>436.5</ele><time>2026-05-01T12:52:04.898Z</time></trkpt><trkpt lat="43.98065229434089" lon="10.868671628998097"><ele>434.0</ele><time>2026-05-01T12:52:05.898Z</time></trkpt><trkpt lat="43.980675740373655" lon="10.868488919694377"><ele>431.5</ele><time>2026-05-01T12:52:06.898Z</time></trkpt><trkpt lat="43.98070562753261" lon="10.868325107156187"><ele>429.0</ele><time>2026-05-01T12:52:07.898Z</time></trkpt><trkpt lat="43.98074116889748" lon="10.86818676518841"><ele>427.6</ele><time>2026-05-01T12:52:08.897Z</time></trkpt><trkpt lat="43.98076135023676" lon="10.868044708981126"><ele>426.2</ele><time>2026-05-01T12:52:09.898Z</time></trkpt><trkpt lat="43.9807899157233" lon="10.867884440161752"><ele>424.8</ele><time>2026-05-01T12:52:10.898Z</time></trkpt><trkpt lat="43.98081375386785" lon="10.867731894844447"><ele>423.40000000000003</ele><time>2026-05-01T12:52:11.897Z</time></trkpt><trkpt lat="43.98082611940854" lon="10.867578153889347"><ele>422.0</ele><time>2026-05-01T12:52:12.898Z</time></trkpt><trkpt lat="43.980819266115795" lon="10.867432756340664"><ele>420.5</ele><time>2026-05-01T12:52:13.898Z</time></trkpt><trkpt lat="43.980788659642116" lon="10.867283996928384"><ele>419.0</ele><time>2026-05-01T12:52:14.897Z</time></trkpt><trkpt lat="43.98073618593379" lon="10.867131540102799"><ele>417.5</ele><time>2026-05-01T12:52:15.897Z</time></trkpt><trkpt lat="43.98067122766628" lon="10.866996427801709"><ele>416.0</ele><time>2026-05-01T12:52:16.897Z</time></trkpt><trkpt lat="43.98061245871348" lon="10.866878289312806"><ele>417.75</ele><time>2026-05-01T12:52:17.898Z</time></trkpt><trkpt lat="43.98057101955516" lon="10.866761663066592"><ele>419.5</ele><time>2026-05-01T12:52:18.897Z</time></trkpt><trkpt lat="43.98054856037702" lon="10.866590519466797"><ele>421.25</ele><time>2026-05-01T12:52:19.897Z</time></trkpt><trkpt lat="43.98052267906767" lon="10.866356440479704"><ele>423.0</ele><time>2026-05-01T12:52:20.898Z</time></trkpt><trkpt lat="43.980488706219845" lon="10.866063503757594"><ele>428.5</ele><time>2026-05-01T12:52:21.897Z</time></trkpt><trkpt lat="43.98045850915886" lon="10.865726678851164"><ele>434.0</ele><time>2026-05-01T12:52:22.897Z</time></trkpt><trkpt lat="43.98044410298832" lon="10.865389586694734"><ele>438.0</ele><time>2026-05-01T12:52:23.897Z</time></trkpt><trkpt lat="43.98045654897197" lon="10.865100437091995"><ele>442.0</ele><time>2026-05-01T12:52:24.897Z</time></trkpt><trkpt lat="43.98047167264418" lon="10.86483482203837"><ele>446.0</ele><time>2026-05-01T12:52:25.897Z</time></trkpt><trkpt lat="43.98048933034297" lon="10.864616234980238"><ele>446.0</ele><time>2026-05-01T12:52:26.897Z</time></trkpt><trkpt lat="43.980494558328196" lon="10.864423262154578"><ele>446.0</ele><time>2026-05-01T12:52:27.897Z</time></trkpt><trkpt lat="43.98051080162964" lon="10.864236184312002"><ele>446.0</ele><time>2026-05-01T12:52:28.897Z</time></trkpt><trkpt lat="43.980547530667295" lon="10.864075955121514"><ele>446.0</ele><time>2026-05-01T12:52:29.897Z</time></trkpt><trkpt lat="43.98058883349508" lon="10.863946772347887"><ele>446.0</ele><time>2026-05-01T12:52:30.897Z</time></trkpt><trkpt lat="43.980617852564315" lon="10.863828495099888"><ele>446.0</ele><time>2026-05-01T12:52:31.897Z</time></trkpt><trkpt lat="43.9806620299749" lon="10.863731686586135"><ele>446.0</ele><time>2026-05-01T12:52:32.897Z</time></trkpt><trkpt lat="43.980736367544615" lon="10.86364736496949"><ele>446.0</ele><time>2026-05-01T12:52:33.897Z</time></trkpt><trkpt lat="43.980835089388044" lon="10.863568831390586"><ele>446.0</ele><time>2026-05-01T12:52:34.897Z</time></trkpt><trkpt lat="43.98095364788428" lon="10.863493197493431"><ele>453.20000000000005</ele><time>2026-05-01T12:52:35.897Z</time></trkpt><trkpt lat="43.98107042250693" lon="10.863455405617541"><ele>460.40000000000003</ele><time>2026-05-01T12:52:36.897Z</time></trkpt><trkpt lat="43.981172445533225" lon="10.863490562274169"><ele>467.6</ele><time>2026-05-01T12:52:37.897Z</time></trkpt><trkpt lat="43.981257074462675" lon="10.86346973105379"><ele>474.8</ele><time>2026-05-01T12:52:38.897Z</time></trkpt><trkpt lat="43.981375173635" lon="10.863460441309186"><ele>482.0</ele><time>2026-05-01T12:52:40.897Z</time></trkpt><trkpt lat="43.981454995245066" lon="10.86345031518435"><ele>480.5</ele><time>2026-05-01T12:52:41.897Z</time></trkpt><trkpt lat="43.98155163356187" lon="10.863355478657452"><ele>479.0</ele><time>2026-05-01T12:52:42.897Z</time></trkpt><trkpt lat="43.98166902511088" lon="10.86326791996873"><ele>477.5</ele><time>2026-05-01T12:52:43.897Z</time></trkpt><trkpt lat="43.98177784476325" lon="10.86323381526302"><ele>476.0</ele><time>2026-05-01T12:52:44.897Z</time></trkpt><trkpt lat="43.98186561538147" lon="10.86322427139008"><ele>475.99999999999994</ele><time>2026-05-01T12:52:45.897Z</time></trkpt><trkpt lat="43.98194725543431" lon="10.863195906875168"><ele>476.0</ele><time>2026-05-01T12:52:46.897Z</time></trkpt><trkpt lat="43.982009659811" lon="10.863152657224369"><ele>476.0</ele><time>2026-05-01T12:52:47.897Z</time></trkpt><trkpt lat="43.98209810115495" lon="10.863080960594555"><ele>476.0</ele><time>2026-05-01T12:52:49.897Z</time></trkpt><trkpt lat="43.98215949603242" lon="10.863033368779922"><ele>475.99999999999994</ele><time>2026-05-01T12:52:53.897Z</time></trkpt><trkpt lat="43.98222861008229" lon="10.862941655147237"><ele>476.0</ele><time>2026-05-01T12:53:05.897Z</time></trkpt><trkpt lat="43.98232227370443" lon="10.862890355852123"><ele>476.0</ele><time>2026-05-01T12:53:06.897Z</time></trkpt><trkpt lat="43.98242330885505" lon="10.862806170495825"><ele>476.0</ele><time>2026-05-01T12:53:07.897Z</time></trkpt><trkpt lat="43.98251898440399" lon="10.862726451003056"><ele>476.0</ele><time>2026-05-01T12:53:08.897Z</time></trkpt><trkpt lat="43.98261788418929" lon="10.862644044900577"><ele>476.0</ele><time>2026-05-01T12:53:09.897Z</time></trkpt><trkpt lat="43.98271589496292" lon="10.862562379569749"><ele>477.75</ele><time>2026-05-01T12:53:10.897Z</time></trkpt><trkpt lat="43.98280877060807" lon="10.862483105859347"><ele>479.5</ele><time>2026-05-01T12:53:11.897Z</time></trkpt><trkpt lat="43.98289381997542" lon="10.862365415695667"><ele>481.25</ele><time>2026-05-01T12:53:12.897Z</time></trkpt><trkpt lat="43.98296570279785" lon="10.862225297497293"><ele>483.0</ele><time>2026-05-01T12:53:13.897Z</time></trkpt><trkpt lat="43.983000035441975" lon="10.862061455639473"><ele>483.0</ele><time>2026-05-01T12:53:14.897Z</time></trkpt><trkpt lat="43.983000940148024" lon="10.861887353814064"><ele>483.0</ele><time>2026-05-01T12:53:15.897Z</time></trkpt><trkpt lat="43.98300166981325" lon="10.86172085017532"><ele>483.0</ele><time>2026-05-01T12:53:16.897Z</time></trkpt><trkpt lat="43.98305862740335" lon="10.86157928033282"><ele>483.0</ele><time>2026-05-01T12:53:17.897Z</time></trkpt><trkpt lat="43.98312659229637" lon="10.861472438326034"><ele>479.75</ele><time>2026-05-01T12:53:18.897Z</time></trkpt><trkpt lat="43.98323596148912" lon="10.861439277887841"><ele>476.5</ele><time>2026-05-01T12:53:19.897Z</time></trkpt><trkpt lat="43.98337483298673" lon="10.86138732099281"><ele>473.25</ele><time>2026-05-01T12:53:20.897Z</time></trkpt><trkpt lat="43.98354573444432" lon="10.861331696561075"><ele>470.0</ele><time>2026-05-01T12:53:21.897Z</time></trkpt><trkpt lat="43.98370642217092" lon="10.861269891132649"><ele>473.3333333333333</ele><time>2026-05-01T12:53:22.897Z</time></trkpt><trkpt lat="43.98385582743882" lon="10.861176754169183"><ele>476.66666666666663</ele><time>2026-05-01T12:53:23.897Z</time></trkpt><trkpt lat="43.9839817132632" lon="10.861035609400767"><ele>480.0</ele><time>2026-05-01T12:53:24.897Z</time></trkpt><trkpt lat="43.984074393382606" lon="10.860851578566711"><ele>480.0</ele><time>2026-05-01T12:53:25.897Z</time></trkpt><trkpt lat="43.98412964721542" lon="10.860667390496234"><ele>480.0</ele><time>2026-05-01T12:53:26.897Z</time></trkpt><trkpt lat="43.98420543353081" lon="10.860510704415423"><ele>480.0</ele><time>2026-05-01T12:53:27.897Z</time></trkpt><trkpt lat="43.98429159438422" lon="10.86040738891731"><ele>480.0</ele><time>2026-05-01T12:53:28.897Z</time></trkpt><trkpt lat="43.98441662472582" lon="10.860357817571375"><ele>482.66666666666663</ele><time>2026-05-01T12:53:29.897Z</time></trkpt><trkpt lat="43.98457520971565" lon="10.860284966885448"><ele>485.3333333333333</ele><time>2026-05-01T12:53:30.897Z</time></trkpt><trkpt lat="43.98473855449006" lon="10.860194771453727"><ele>488.0</ele><time>2026-05-01T12:53:31.897Z</time></trkpt><trkpt lat="43.98485753584972" lon="10.860026194662767"><ele>488.0</ele><time>2026-05-01T12:53:32.897Z</time></trkpt><trkpt lat="43.984964333546586" lon="10.859838718116253"><ele>488.0</ele><time>2026-05-01T12:53:33.897Z</time></trkpt><trkpt lat="43.98507100121448" lon="10.859655333685929"><ele>488.0</ele><time>2026-05-01T12:53:34.897Z</time></trkpt><trkpt lat="43.98518277739149" lon="10.859509556162045"><ele>492.3333333333333</ele><time>2026-05-01T12:53:35.897Z</time></trkpt><trkpt lat="43.98531264821078" lon="10.859382004389415"><ele>496.66666666666663</ele><time>2026-05-01T12:53:36.897Z</time></trkpt><trkpt lat="43.985453892698885" lon="10.85928283562641"><ele>501.0</ele><time>2026-05-01T12:53:37.897Z</time></trkpt><trkpt lat="43.98560162726499" lon="10.859211783167067"><ele>501.0</ele><time>2026-05-01T12:53:38.897Z</time></trkpt><trkpt lat="43.985752372886964" lon="10.859183411315328"><ele>501.0</ele><time>2026-05-01T12:53:39.897Z</time></trkpt><trkpt lat="43.98587340034575" lon="10.8591713438503"><ele>501.0</ele><time>2026-05-01T12:53:40.897Z</time></trkpt><trkpt lat="43.98595640677573" lon="10.859120532281528"><ele>501.0</ele><time>2026-05-01T12:53:41.897Z</time></trkpt><trkpt lat="43.98598798372545" lon="10.859030949088991"><ele>501.0</ele><time>2026-05-01T12:53:42.897Z</time></trkpt><trkpt lat="43.98604061134463" lon="10.858951759403451"><ele>520.5</ele><time>2026-05-01T12:53:43.897Z</time></trkpt><trkpt lat="43.98613292271307" lon="10.858771134176088"><ele>540.0</ele><time>2026-05-01T12:53:44.897Z</time></trkpt><trkpt lat="43.98608218152137" lon="10.85833854266882"><ele>540.0</ele><time>2026-05-01T12:53:45.897Z</time></trkpt><trkpt lat="43.9859947931608" lon="10.858229147599442"><ele>540.0</ele><time>2026-05-01T12:53:46.897Z</time></trkpt><trkpt lat="43.98592118436948" lon="10.858124233320224"><ele>540.0</ele><time>2026-05-01T12:53:47.897Z</time></trkpt><trkpt lat="43.985851130642935" lon="10.85800476971294"><ele>540.0</ele><time>2026-05-01T12:53:48.897Z</time></trkpt><trkpt lat="43.98582057976657" lon="10.857888582141701"><ele>540.0</ele><time>2026-05-01T12:53:49.897Z</time></trkpt><trkpt lat="43.985750677220466" lon="10.857708123853234"><ele>533.5</ele><time>2026-05-01T12:53:50.897Z</time></trkpt><trkpt lat="43.98568255409188" lon="10.857523233806896"><ele>527.0</ele><time>2026-05-01T12:53:51.897Z</time></trkpt><trkpt lat="43.98563770496993" lon="10.857372767872691"><ele>520.5</ele><time>2026-05-01T12:53:52.897Z</time></trkpt><trkpt lat="43.98563182985115" lon="10.857229787252795"><ele>514.0</ele><time>2026-05-01T12:53:53.897Z</time></trkpt><trkpt lat="43.98565653440254" lon="10.857058061237167"><ele>514.0</ele><time>2026-05-01T12:53:54.897Z</time></trkpt><trkpt lat="43.98573196322618" lon="10.856894366146602"><ele>514.0</ele><time>2026-05-01T12:53:55.897Z</time></trkpt><trkpt lat="43.98583524552071" lon="10.856722577989249"><ele>514.0</ele><time>2026-05-01T12:53:56.897Z</time></trkpt><trkpt lat="43.985940267032355" lon="10.856560014780834"><ele>523.0</ele><time>2026-05-01T12:53:57.897Z</time></trkpt><trkpt lat="43.98604137072298" lon="10.856401921931301"><ele>532.0</ele><time>2026-05-01T12:53:58.897Z</time></trkpt><trkpt lat="43.986173458443126" lon="10.856233066452605"><ele>541.0</ele><time>2026-05-01T12:53:59.897Z</time></trkpt><trkpt lat="43.986321791135694" lon="10.856127393024897"><ele>541.0</ele><time>2026-05-01T12:54:00.897Z</time></trkpt><trkpt lat="43.98647036317036" lon="10.856015628149052"><ele>541.0</ele><time>2026-05-01T12:54:01.897Z</time></trkpt><trkpt lat="43.986607336595014" lon="10.855866459953813"><ele>541.0</ele><time>2026-05-01T12:54:02.897Z</time></trkpt><trkpt lat="43.98677000262636" lon="10.855702822879973"><ele>541.3333333333334</ele><time>2026-05-01T12:54:03.897Z</time></trkpt><trkpt lat="43.98692111959428" lon="10.855515197267176"><ele>541.6666666666666</ele><time>2026-05-01T12:54:04.897Z</time></trkpt><trkpt lat="43.98703827743111" lon="10.85537908827647"><ele>542.0</ele><time>2026-05-01T12:54:05.897Z</time></trkpt><trkpt lat="43.98716175887408" lon="10.855281073818096"><ele>542.0</ele><time>2026-05-01T12:54:06.897Z</time></trkpt><trkpt lat="43.98729900485956" lon="10.855251663282393"><ele>542.0</ele><time>2026-05-01T12:54:07.897Z</time></trkpt><trkpt lat="43.98744035390365" lon="10.855292143056321"><ele>542.0</ele><time>2026-05-01T12:54:08.897Z</time></trkpt><trkpt lat="43.987551595194134" lon="10.855369812086877"><ele>542.0</ele><time>2026-05-01T12:54:09.897Z</time></trkpt><trkpt lat="43.987614569763856" lon="10.855490851748836"><ele>542.0</ele><time>2026-05-01T12:54:10.897Z</time></trkpt><trkpt lat="43.98762777351816" lon="10.855623294737736"><ele>542.0</ele><time>2026-05-01T12:54:11.897Z</time></trkpt><trkpt lat="43.98758357211745" lon="10.855762439481218"><ele>542.0</ele><time>2026-05-01T12:54:12.897Z</time></trkpt><trkpt lat="43.98749113560543" lon="10.855883281473204"><ele>542.0</ele><time>2026-05-01T12:54:13.897Z</time></trkpt><trkpt lat="43.98736821935957" lon="10.855984548226068"><ele>545.75</ele><time>2026-05-01T12:54:14.897Z</time></trkpt><trkpt lat="43.98722693871626" lon="10.856093126028703"><ele>549.5</ele><time>2026-05-01T12:54:15.896Z</time></trkpt><trkpt lat="43.987104583949346" lon="10.85620784508178"><ele>553.25</ele><time>2026-05-01T12:54:16.896Z</time></trkpt><trkpt lat="43.9870046451907" lon="10.856316375718366"><ele>557.0</ele><time>2026-05-01T12:54:17.896Z</time></trkpt><trkpt lat="43.98690222518195" lon="10.85640252729101"><ele>557.0</ele><time>2026-05-01T12:54:18.896Z</time></trkpt><trkpt lat="43.98683928704301" lon="10.856572836980018"><ele>557.0</ele><time>2026-05-01T12:54:19.896Z</time></trkpt><trkpt lat="43.98683438384237" lon="10.856738149574953"><ele>557.0</ele><time>2026-05-01T12:54:20.897Z</time></trkpt><trkpt lat="43.986887904153846" lon="10.856881576085406"><ele>557.0</ele><time>2026-05-01T12:54:21.896Z</time></trkpt><trkpt lat="43.98696648791884" lon="10.856988863790292"><ele>562.0</ele><time>2026-05-01T12:54:22.896Z</time></trkpt><trkpt lat="43.987055622242565" lon="10.857035105165943"><ele>567.0</ele><time>2026-05-01T12:54:23.897Z</time></trkpt><trkpt lat="43.98713429004717" lon="10.85704139162599"><ele>572.0</ele><time>2026-05-01T12:54:24.896Z</time></trkpt><trkpt lat="43.98720205871965" lon="10.8569985556803"><ele>577.0</ele><time>2026-05-01T12:54:25.896Z</time></trkpt><trkpt lat="43.98740342978821" lon="10.856905806660823"><ele>574.0</ele><time>2026-05-01T12:54:26.896Z</time></trkpt><trkpt lat="43.98753402856664" lon="10.856759186710196"><ele>571.0</ele><time>2026-05-01T12:54:27.896Z</time></trkpt><trkpt lat="43.98769669576469" lon="10.856600835895074"><ele>568.0</ele><time>2026-05-01T12:54:28.896Z</time></trkpt><trkpt lat="43.98785694889717" lon="10.856473572967017"><ele>568.0</ele><time>2026-05-01T12:54:29.896Z</time></trkpt><trkpt lat="43.98805726633256" lon="10.85638096997844"><ele>568.0</ele><time>2026-05-01T12:54:30.896Z</time></trkpt><trkpt lat="43.988281785023176" lon="10.856320215136497"><ele>568.0</ele><time>2026-05-01T12:54:31.896Z</time></trkpt><trkpt lat="43.988507450021714" lon="10.856299135003002"><ele>576.0</ele><time>2026-05-01T12:54:32.896Z</time></trkpt><trkpt lat="43.98875009627926" lon="10.856272407026703"><ele>584.0</ele><time>2026-05-01T12:54:33.896Z</time></trkpt><trkpt lat="43.98899405699144" lon="10.856235419713956"><ele>589.6666666666666</ele><time>2026-05-01T12:54:34.896Z</time></trkpt><trkpt lat="43.98922106026031" lon="10.856211498731225"><ele>595.3333333333334</ele><time>2026-05-01T12:54:35.896Z</time></trkpt><trkpt lat="43.98941446414133" lon="10.856171910152534"><ele>601.0</ele><time>2026-05-01T12:54:36.896Z</time></trkpt><trkpt lat="43.98958919329151" lon="10.85610485008497"><ele>601.0</ele><time>2026-05-01T12:54:37.896Z</time></trkpt><trkpt lat="43.98974567616471" lon="10.855993067556904"><ele>601.0</ele><time>2026-05-01T12:54:38.896Z</time></trkpt><trkpt lat="43.98987468171104" lon="10.855836355544264"><ele>601.0</ele><time>2026-05-01T12:54:39.896Z</time></trkpt><trkpt lat="43.98999129940684" lon="10.855654878757019"><ele>599.3333333333334</ele><time>2026-05-01T12:54:40.896Z</time></trkpt><trkpt lat="43.990122186930975" lon="10.855496152956645"><ele>597.6666666666666</ele><time>2026-05-01T12:54:41.896Z</time></trkpt><trkpt lat="43.9902743325286" lon="10.855386919156087"><ele>596.0</ele><time>2026-05-01T12:54:42.896Z</time></trkpt><trkpt lat="43.99045129973841" lon="10.855330515538316"><ele>596.0</ele><time>2026-05-01T12:54:43.896Z</time></trkpt><trkpt lat="43.99065915636759" lon="10.855310120522184"><ele>596.0</ele><time>2026-05-01T12:54:44.896Z</time></trkpt><trkpt lat="43.99085133987025" lon="10.855256491048499"><ele>596.0</ele><time>2026-05-01T12:54:45.896Z</time></trkpt><trkpt lat="43.991005985955425" lon="10.855159430272499"><ele>596.3333333333333</ele><time>2026-05-01T12:54:46.896Z</time></trkpt><trkpt lat="43.99112678035748" lon="10.855025042133384"><ele>596.6666666666666</ele><time>2026-05-01T12:54:47.896Z</time></trkpt><trkpt lat="43.99123138197227" lon="10.854854015626627"><ele>597.0</ele><time>2026-05-01T12:54:48.896Z</time></trkpt><trkpt lat="43.99125700585039" lon="10.854632108046843"><ele>597.0</ele><time>2026-05-01T12:54:49.896Z</time></trkpt><trkpt lat="43.99133016700341" lon="10.8544722688897"><ele>597.0</ele><time>2026-05-01T12:54:50.896Z</time></trkpt><trkpt lat="43.99138884924188" lon="10.854328849747773"><ele>597.0</ele><time>2026-05-01T12:54:51.896Z</time></trkpt><trkpt lat="43.991449718934135" lon="10.854224477712483"><ele>597.0</ele><time>2026-05-01T12:54:52.896Z</time></trkpt><trkpt lat="43.99152537391237" lon="10.854159878105566"><ele>597.0</ele><time>2026-05-01T12:54:53.896Z</time></trkpt><trkpt lat="43.99162742620713" lon="10.854186840548596"><ele>597.0</ele><time>2026-05-01T12:54:54.896Z</time></trkpt><trkpt lat="43.99174745334191" lon="10.854180132848665"><ele>597.0</ele><time>2026-05-01T12:54:55.896Z</time></trkpt><trkpt lat="43.991890399825515" lon="10.854185615587053"><ele>597.0</ele><time>2026-05-01T12:54:56.896Z</time></trkpt><trkpt lat="43.99204579765591" lon="10.854175356938995"><ele>597.0</ele><time>2026-05-01T12:54:57.896Z</time></trkpt><trkpt lat="43.992206594410405" lon="10.854177492918962"><ele>597.0</ele><time>2026-05-01T12:54:58.896Z</time></trkpt><trkpt lat="43.99239010303861" lon="10.854171026584957"><ele>597.0</ele><time>2026-05-01T12:54:59.896Z</time></trkpt><trkpt lat="43.99256086522969" lon="10.85416496449822"><ele>597.0</ele><time>2026-05-01T12:55:00.896Z</time></trkpt><trkpt lat="43.9927417629948" lon="10.854160050165442"><ele>599.3333333333334</ele><time>2026-05-01T12:55:01.896Z</time></trkpt><trkpt lat="43.99292243684571" lon="10.854157278620125"><ele>601.6666666666667</ele><time>2026-05-01T12:55:02.896Z</time></trkpt><trkpt lat="43.99310442815659" lon="10.854149359913775"><ele>604.0</ele><time>2026-05-01T12:55:03.896Z</time></trkpt><trkpt lat="43.99325565778348" lon="10.854156691220407"><ele>606.75</ele><time>2026-05-01T12:55:04.896Z</time></trkpt><trkpt lat="43.99339851859882" lon="10.854167826327842"><ele>609.5</ele><time>2026-05-01T12:55:05.896Z</time></trkpt><trkpt lat="43.99354860682698" lon="10.854195719446755"><ele>612.25</ele><time>2026-05-01T12:55:06.896Z</time></trkpt><trkpt lat="43.99368144140156" lon="10.854203533100268"><ele>615.0</ele><time>2026-05-01T12:55:07.896Z</time></trkpt><trkpt lat="43.99378376384315" lon="10.854210484088716"><ele>615.0</ele><time>2026-05-01T12:55:08.896Z</time></trkpt><trkpt lat="43.99386601269554" lon="10.854154169153757"><ele>615.0</ele><time>2026-05-01T12:55:09.896Z</time></trkpt><trkpt lat="43.993928267987684" lon="10.854054007767044"><ele>615.0</ele><time>2026-05-01T12:55:10.896Z</time></trkpt><trkpt lat="43.99397823837067" lon="10.853899222334354"><ele>615.0</ele><time>2026-05-01T12:55:11.896Z</time></trkpt><trkpt lat="43.9940114590933" lon="10.853712647886724"><ele>615.0</ele><time>2026-05-01T12:55:12.896Z</time></trkpt><trkpt lat="43.99405835260064" lon="10.853533272806708"><ele>614.0</ele><time>2026-05-01T12:55:13.896Z</time></trkpt><trkpt lat="43.99411370374817" lon="10.853360200259948"><ele>613.0</ele><time>2026-05-01T12:55:14.896Z</time></trkpt><trkpt lat="43.99414320630051" lon="10.853202404321792"><ele>612.0</ele><time>2026-05-01T12:55:15.896Z</time></trkpt><trkpt lat="43.99418356961661" lon="10.853085754654925"><ele>611.0</ele><time>2026-05-01T12:55:16.896Z</time></trkpt><trkpt lat="43.99424920527046" lon="10.853008730755164"><ele>610.0</ele><time>2026-05-01T12:55:17.896Z</time></trkpt><trkpt lat="43.994343420520714" lon="10.852974622722087"><ele>613.0</ele><time>2026-05-01T12:55:18.896Z</time></trkpt><trkpt lat="43.99445846531471" lon="10.852958559797335"><ele>616.0</ele><time>2026-05-01T12:55:19.896Z</time></trkpt><trkpt lat="43.994586362853035" lon="10.852923134122047"><ele>619.0</ele><time>2026-05-01T12:55:20.896Z</time></trkpt><trkpt lat="43.994692608845426" lon="10.852836363308903"><ele>622.0</ele><time>2026-05-01T12:55:21.896Z</time></trkpt><trkpt lat="43.99475416085273" lon="10.852682000479588"><ele>621.0</ele><time>2026-05-01T12:55:22.896Z</time></trkpt><trkpt lat="43.994796481130074" lon="10.852526436506588"><ele>620.0</ele><time>2026-05-01T12:55:23.896Z</time></trkpt><trkpt lat="43.99483578120647" lon="10.85237487617184"><ele>619.0</ele><time>2026-05-01T12:55:24.896Z</time></trkpt><trkpt lat="43.994887174026054" lon="10.852199675951711"><ele>618.0</ele><time>2026-05-01T12:55:25.896Z</time></trkpt><trkpt lat="43.994945695180895" lon="10.852053197442324"><ele>623.0</ele><time>2026-05-01T12:55:26.896Z</time></trkpt><trkpt lat="43.99503807170937" lon="10.851958399617274"><ele>628.0</ele><time>2026-05-01T12:55:27.896Z</time></trkpt><trkpt lat="43.995133435030255" lon="10.851863192806878"><ele>633.0</ele><time>2026-05-01T12:55:28.896Z</time></trkpt><trkpt lat="43.9952523495136" lon="10.851784662319686"><ele>638.0</ele><time>2026-05-01T12:55:29.896Z</time></trkpt><trkpt lat="43.99538393630259" lon="10.851710838034755"><ele>638.0</ele><time>2026-05-01T12:55:30.896Z</time></trkpt><trkpt lat="43.995514971429344" lon="10.851631886528475"><ele>638.0</ele><time>2026-05-01T12:55:31.896Z</time></trkpt><trkpt lat="43.99561262783236" lon="10.85154102969542"><ele>638.0</ele><time>2026-05-01T12:55:32.896Z</time></trkpt><trkpt lat="43.99566124234515" lon="10.851423379512351"><ele>638.0</ele><time>2026-05-01T12:55:33.896Z</time></trkpt><trkpt lat="43.995672264056736" lon="10.851260131079426"><ele>638.0</ele><time>2026-05-01T12:55:34.896Z</time></trkpt><trkpt lat="43.99569062996816" lon="10.851081247129304"><ele>638.0</ele><time>2026-05-01T12:55:35.896Z</time></trkpt><trkpt lat="43.99578317126577" lon="10.85095669198171"><ele>638.0</ele><time>2026-05-01T12:55:36.896Z</time></trkpt><trkpt lat="43.9959001099372" lon="10.850830673781218"><ele>638.0</ele><time>2026-05-01T12:55:37.896Z</time></trkpt><trkpt lat="43.996023480693786" lon="10.850678283242637"><ele>643.0</ele><time>2026-05-01T12:55:38.896Z</time></trkpt><trkpt lat="43.99616011583441" lon="10.850548466366496"><ele>648.0</ele><time>2026-05-01T12:55:39.896Z</time></trkpt><trkpt lat="43.996282321989455" lon="10.850399000116418"><ele>653.0</ele><time>2026-05-01T12:55:40.896Z</time></trkpt><trkpt lat="43.99637864619145" lon="10.850226715135351"><ele>651.3333333333333</ele><time>2026-05-01T12:55:41.896Z</time></trkpt><trkpt lat="43.99643352766178" lon="10.850020881080965"><ele>649.6666666666666</ele><time>2026-05-01T12:55:42.896Z</time></trkpt><trkpt lat="43.996436843474896" lon="10.849786927364546"><ele>648.0</ele><time>2026-05-01T12:55:43.896Z</time></trkpt><trkpt lat="43.9964242194839" lon="10.849546643348425"><ele>648.0</ele><time>2026-05-01T12:55:44.896Z</time></trkpt><trkpt lat="43.99642228970823" lon="10.849313387219611"><ele>648.0</ele><time>2026-05-01T12:55:45.896Z</time></trkpt><trkpt lat="43.99643223462775" lon="10.849078529341442"><ele>648.0</ele><time>2026-05-01T12:55:46.896Z</time></trkpt><trkpt lat="43.996501835533095" lon="10.848886600604517"><ele>648.0</ele><time>2026-05-01T12:55:47.896Z</time></trkpt><trkpt lat="43.99660319278504" lon="10.848731458943105"><ele>648.0</ele><time>2026-05-01T12:55:48.896Z</time></trkpt><trkpt lat="43.99673357013897" lon="10.848615438431294"><ele>648.0</ele><time>2026-05-01T12:55:49.895Z</time></trkpt><trkpt lat="43.99689272704346" lon="10.84846456249427"><ele>653.3333333333334</ele><time>2026-05-01T12:55:50.895Z</time></trkpt><trkpt lat="43.99704276817875" lon="10.848316055514655"><ele>658.6666666666667</ele><time>2026-05-01T12:55:51.895Z</time></trkpt><trkpt lat="43.997148639074744" lon="10.848173069807958"><ele>664.0</ele><time>2026-05-01T12:55:52.895Z</time></trkpt><trkpt lat="43.99720628110939" lon="10.847991656214653"><ele>664.0</ele><time>2026-05-01T12:55:53.895Z</time></trkpt><trkpt lat="43.99723579914326" lon="10.847782117193029"><ele>664.0</ele><time>2026-05-01T12:55:54.895Z</time></trkpt><trkpt lat="43.99724897245625" lon="10.847541720907932"><ele>664.0</ele><time>2026-05-01T12:55:55.895Z</time></trkpt><trkpt lat="43.99726267425274" lon="10.84726308258989"><ele>665.0</ele><time>2026-05-01T12:55:56.895Z</time></trkpt><trkpt lat="43.997285931148085" lon="10.846989729395935"><ele>666.0</ele><time>2026-05-01T12:55:57.895Z</time></trkpt><trkpt lat="43.997310114408016" lon="10.846723063008191"><ele>667.0</ele><time>2026-05-01T12:55:58.895Z</time></trkpt><trkpt lat="43.99733620334117" lon="10.846455776192412"><ele>668.0</ele><time>2026-05-01T12:55:59.895Z</time></trkpt><trkpt lat="43.99738327985793" lon="10.846193898274155"><ele>669.0</ele><time>2026-05-01T12:56:00.895Z</time></trkpt><trkpt lat="43.99745924094731" lon="10.845937936258688"><ele>670.0</ele><time>2026-05-01T12:56:01.895Z</time></trkpt><trkpt lat="43.99755838919366" lon="10.845674656818577"><ele>681.0</ele><time>2026-05-01T12:56:02.895Z</time></trkpt><trkpt lat="43.997661205411056" lon="10.845379912591945"><ele>692.0</ele><time>2026-05-01T12:56:03.895Z</time></trkpt><trkpt lat="43.99775917690581" lon="10.845088884940242"><ele>692.0</ele><time>2026-05-01T12:56:04.895Z</time></trkpt><trkpt lat="43.99785466086141" lon="10.844792151879084"><ele>692.0</ele><time>2026-05-01T12:56:05.895Z</time></trkpt><trkpt lat="43.997948786545976" lon="10.84449509354657"><ele>690.3333333333333</ele><time>2026-05-01T12:56:06.895Z</time></trkpt><trkpt lat="43.998042720935096" lon="10.844221830978073"><ele>688.6666666666666</ele><time>2026-05-01T12:56:07.895Z</time></trkpt><trkpt lat="43.998127491536685" lon="10.843974246710498"><ele>687.0</ele><time>2026-05-01T12:56:08.895Z</time></trkpt><trkpt lat="43.998207570896575" lon="10.843744145964434"><ele>687.0</ele><time>2026-05-01T12:56:09.895Z</time></trkpt><trkpt lat="43.99828930731934" lon="10.843519011440291"><ele>687.0</ele><time>2026-05-01T12:56:10.895Z</time></trkpt><trkpt lat="43.99836116236471" lon="10.843291166592625"><ele>687.0</ele><time>2026-05-01T12:56:11.895Z</time></trkpt><trkpt lat="43.99840395234096" lon="10.843089971149269"><ele>693.0</ele><time>2026-05-01T12:56:12.895Z</time></trkpt><trkpt lat="43.99842771377018" lon="10.842888214461984"><ele>699.0</ele><time>2026-05-01T12:56:13.895Z</time></trkpt><trkpt lat="43.998400918241174" lon="10.842715398749343"><ele>705.0</ele><time>2026-05-01T12:56:14.895Z</time></trkpt><trkpt lat="43.998361452098145" lon="10.842562798779223"><ele>711.0</ele><time>2026-05-01T12:56:15.895Z</time></trkpt><trkpt lat="43.99835666117926" lon="10.84243173911208"><ele>712.4</ele><time>2026-05-01T12:56:16.895Z</time></trkpt><trkpt lat="43.99840828537085" lon="10.84233075885231"><ele>713.8</ele><time>2026-05-01T12:56:17.895Z</time></trkpt><trkpt lat="43.998491524736075" lon="10.842271184291702"><ele>715.1999999999999</ele><time>2026-05-01T12:56:18.895Z</time></trkpt><trkpt lat="43.998595312096214" lon="10.842271486493607"><ele>716.5999999999999</ele><time>2026-05-01T12:56:19.895Z</time></trkpt><trkpt lat="43.998690078011855" lon="10.842366532534056"><ele>718.0</ele><time>2026-05-01T12:56:20.896Z</time></trkpt><trkpt lat="43.99874710382779" lon="10.842500555425989"><ele>715.6666666666667</ele><time>2026-05-01T12:56:21.896Z</time></trkpt><trkpt lat="43.99874096759453" lon="10.842691007690169"><ele>713.3333333333334</ele><time>2026-05-01T12:56:22.896Z</time></trkpt><trkpt lat="43.998756551363535" lon="10.842895782693002"><ele>711.0</ele><time>2026-05-01T12:56:23.896Z</time></trkpt><trkpt lat="43.99875291630856" lon="10.843142023105138"><ele>711.0</ele><time>2026-05-01T12:56:24.895Z</time></trkpt><trkpt lat="43.99872184968125" lon="10.843354793563053"><ele>711.0</ele><time>2026-05-01T12:56:25.895Z</time></trkpt><trkpt lat="43.99869279295581" lon="10.843561971342567"><ele>711.0</ele><time>2026-05-01T12:56:26.895Z</time></trkpt><trkpt lat="43.99865788651937" lon="10.843727466475766"><ele>711.0</ele><time>2026-05-01T12:56:27.895Z</time></trkpt><trkpt lat="43.99866631035168" lon="10.843871152417103"><ele>712.4</ele><time>2026-05-01T12:56:28.895Z</time></trkpt><trkpt lat="43.99871069626159" lon="10.843983972596147"><ele>713.8</ele><time>2026-05-01T12:56:29.896Z</time></trkpt><trkpt lat="43.998783225471605" lon="10.844069618478246"><ele>715.1999999999999</ele><time>2026-05-01T12:56:30.895Z</time></trkpt><trkpt lat="43.99887625973887" lon="10.844111008348664"><ele>716.5999999999999</ele><time>2026-05-01T12:56:31.895Z</time></trkpt><trkpt lat="43.998987552349654" lon="10.844105061009385"><ele>718.0</ele><time>2026-05-01T12:56:32.895Z</time></trkpt><trkpt lat="43.999092148285584" lon="10.844045751109983"><ele>718.0</ele><time>2026-05-01T12:56:33.896Z</time></trkpt><trkpt lat="43.999155680085124" lon="10.843936757332347"><ele>718.0</ele><time>2026-05-01T12:56:34.896Z</time></trkpt><trkpt lat="43.999186043253765" lon="10.843785842900816"><ele>718.0</ele><time>2026-05-01T12:56:35.896Z</time></trkpt><trkpt lat="43.99918524030052" lon="10.843588368585483"><ele>718.0</ele><time>2026-05-01T12:56:36.896Z</time></trkpt><trkpt lat="43.9991778156718" lon="10.843334610597436"><ele>726.0</ele><time>2026-05-01T12:56:37.896Z</time></trkpt><trkpt lat="43.999175567642794" lon="10.843070798890654"><ele>734.0</ele><time>2026-05-01T12:56:38.896Z</time></trkpt><trkpt lat="43.99917846569703" lon="10.842826886554331"><ele>742.0</ele><time>2026-05-01T12:56:39.896Z</time></trkpt><trkpt lat="43.999185678094925" lon="10.842581078387227"><ele>742.3333333333334</ele><time>2026-05-01T12:56:40.896Z</time></trkpt><trkpt lat="43.999190600298576" lon="10.842341461799572"><ele>742.6666666666666</ele><time>2026-05-01T12:56:41.896Z</time></trkpt><trkpt lat="43.99920599321152" lon="10.842128604744206"><ele>743.0</ele><time>2026-05-01T12:56:42.896Z</time></trkpt><trkpt lat="43.999241969555285" lon="10.841961812879738"><ele>743.0</ele><time>2026-05-01T12:56:43.896Z</time></trkpt><trkpt lat="43.99931024878091" lon="10.841833600050537"><ele>743.0</ele><time>2026-05-01T12:56:44.896Z</time></trkpt><trkpt lat="43.99942943524941" lon="10.841749438445598"><ele>743.0</ele><time>2026-05-01T12:56:45.896Z</time></trkpt><trkpt lat="43.99956166551255" lon="10.841624232682106"><ele>743.0</ele><time>2026-05-01T12:56:46.896Z</time></trkpt><trkpt lat="43.999689774729795" lon="10.841468580538466"><ele>742.0</ele><time>2026-05-01T12:56:47.896Z</time></trkpt><trkpt lat="43.99982501133559" lon="10.841315526069899"><ele>741.0</ele><time>2026-05-01T12:56:48.896Z</time></trkpt><trkpt lat="43.99993520519348" lon="10.841143762890965"><ele>740.0</ele><time>2026-05-01T12:56:49.896Z</time></trkpt><trkpt lat="44.00004326117461" lon="10.840953094407753"><ele>736.5</ele><time>2026-05-01T12:56:50.896Z</time></trkpt><trkpt lat="44.00013127401394" lon="10.840763133860113"><ele>733.0</ele><time>2026-05-01T12:56:51.896Z</time></trkpt><trkpt lat="44.0002057456614" lon="10.840588212500979"><ele>729.5</ele><time>2026-05-01T12:56:52.896Z</time></trkpt><trkpt lat="44.00026468393058" lon="10.840417709110135"><ele>726.0</ele><time>2026-05-01T12:56:53.896Z</time></trkpt><trkpt lat="44.00029897454298" lon="10.840249576724784"><ele>724.5</ele><time>2026-05-01T12:56:54.896Z</time></trkpt><trkpt lat="44.0002988622157" lon="10.840074508712084"><ele>723.0</ele><time>2026-05-01T12:56:55.896Z</time></trkpt><trkpt lat="44.00025804375521" lon="10.839931100557394"><ele>721.5</ele><time>2026-05-01T12:56:56.896Z</time></trkpt><trkpt lat="44.00018603604742" lon="10.839817531931242"><ele>720.0</ele><time>2026-05-01T12:56:57.896Z</time></trkpt><trkpt lat="44.0000816690183" lon="10.839717225898811"><ele>720.0</ele><time>2026-05-01T12:56:58.896Z</time></trkpt><trkpt lat="43.999959924365484" lon="10.839603972545651"><ele>720.0</ele><time>2026-05-01T12:56:59.896Z</time></trkpt><trkpt lat="43.99988959169963" lon="10.839462426219862"><ele>720.0</ele><time>2026-05-01T12:57:00.896Z</time></trkpt><trkpt lat="43.99981882560315" lon="10.839317141374815"><ele>720.0</ele><time>2026-05-01T12:57:01.896Z</time></trkpt><trkpt lat="43.99980606942459" lon="10.839157655086447"><ele>721.75</ele><time>2026-05-01T12:57:02.895Z</time></trkpt><trkpt lat="43.999841739718974" lon="10.83900053297151"><ele>723.5</ele><time>2026-05-01T12:57:03.895Z</time></trkpt><trkpt lat="43.99990296288402" lon="10.838851071943058"><ele>725.25</ele><time>2026-05-01T12:57:04.895Z</time></trkpt><trkpt lat="43.99998380326317" lon="10.838708250420268"><ele>727.0</ele><time>2026-05-01T12:57:05.895Z</time></trkpt><trkpt lat="44.00008789644745" lon="10.838579471844856"><ele>727.0</ele><time>2026-05-01T12:57:06.895Z</time></trkpt><trkpt lat="44.000198207287426" lon="10.838478108171588"><ele>727.0</ele><time>2026-05-01T12:57:07.895Z</time></trkpt><trkpt lat="44.0003101520206" lon="10.838371606719484"><ele>727.0</ele><time>2026-05-01T12:57:08.895Z</time></trkpt><trkpt lat="44.00046586313185" lon="10.838206334012929"><ele>725.6666666666667</ele><time>2026-05-01T12:57:09.895Z</time></trkpt><trkpt lat="44.00059624460844" lon="10.837981236729641"><ele>724.3333333333334</ele><time>2026-05-01T12:57:10.895Z</time></trkpt><trkpt lat="44.00069945618447" lon="10.837828755747543"><ele>723.0</ele><time>2026-05-01T12:57:11.895Z</time></trkpt><trkpt lat="44.000782849564004" lon="10.837656816286565"><ele>725.25</ele><time>2026-05-01T12:57:12.895Z</time></trkpt><trkpt lat="44.00089695431079" lon="10.83749422894129"><ele>727.5</ele><time>2026-05-01T12:57:13.895Z</time></trkpt><trkpt lat="44.001007406196756" lon="10.837379710057073"><ele>729.75</ele><time>2026-05-01T12:57:14.895Z</time></trkpt><trkpt lat="44.00111916803684" lon="10.837302000127885"><ele>732.0</ele><time>2026-05-01T12:57:15.895Z</time></trkpt><trkpt lat="44.00124650317908" lon="10.837266292605715"><ele>732.0</ele><time>2026-05-01T12:57:16.895Z</time></trkpt><trkpt lat="44.00137673031397" lon="10.837281547851937"><ele>732.0</ele><time>2026-05-01T12:57:17.895Z</time></trkpt><trkpt lat="44.00147274996866" lon="10.837306740894215"><ele>732.0</ele><time>2026-05-01T12:57:18.895Z</time></trkpt><trkpt lat="44.00158077606254" lon="10.837254377236306"><ele>732.0</ele><time>2026-05-01T12:57:20.895Z</time></trkpt><trkpt lat="44.001673646924814" lon="10.837118327387467"><ele>730.6666666666666</ele><time>2026-05-01T12:57:21.895Z</time></trkpt><trkpt lat="44.00167435645051" lon="10.836881817344619"><ele>729.3333333333333</ele><time>2026-05-01T12:57:22.895Z</time></trkpt><trkpt lat="44.00161527305217" lon="10.83664816057789"><ele>728.0</ele><time>2026-05-01T12:57:23.895Z</time></trkpt><trkpt lat="44.001490024380686" lon="10.836478505978143"><ele>728.0</ele><time>2026-05-01T12:57:24.895Z</time></trkpt><trkpt lat="44.00141046936641" lon="10.836386531259556"><ele>728.0</ele><time>2026-05-01T12:57:25.895Z</time></trkpt><trkpt lat="44.00136887202474" lon="10.836302412068846"><ele>728.0</ele><time>2026-05-01T12:57:27.895Z</time></trkpt><trkpt lat="44.00138765823182" lon="10.8361574465612"><ele>728.0</ele><time>2026-05-01T12:57:28.895Z</time></trkpt><trkpt lat="44.00139646093203" lon="10.83598660563834"><ele>728.0</ele><time>2026-05-01T12:57:29.895Z</time></trkpt><trkpt lat="44.001431083176364" lon="10.835824501713576"><ele>729.5</ele><time>2026-05-01T12:57:30.895Z</time></trkpt><trkpt lat="44.00150614859969" lon="10.835691382537552"><ele>731.0</ele><time>2026-05-01T12:57:31.895Z</time></trkpt><trkpt lat="44.00161039292173" lon="10.83558063402992"><ele>732.5</ele><time>2026-05-01T12:57:32.895Z</time></trkpt><trkpt lat="44.0017235309543" lon="10.835466157896436"><ele>734.0</ele><time>2026-05-01T12:57:33.895Z</time></trkpt><trkpt lat="44.00184494254261" lon="10.835345543784607"><ele>738.25</ele><time>2026-05-01T12:57:34.895Z</time></trkpt><trkpt lat="44.00195533786098" lon="10.835224292401605"><ele>742.5</ele><time>2026-05-01T12:57:35.895Z</time></trkpt><trkpt lat="44.00206471019153" lon="10.835100909022875"><ele>746.75</ele><time>2026-05-01T12:57:36.895Z</time></trkpt><trkpt lat="44.00214722476023" lon="10.834986065375892"><ele>751.0</ele><time>2026-05-01T12:57:37.895Z</time></trkpt><trkpt lat="44.002213772655836" lon="10.834909487815022"><ele>751.0</ele><time>2026-05-01T12:57:38.895Z</time></trkpt><trkpt lat="44.00225499967879" lon="10.834842346799695"><ele>751.0</ele><time>2026-05-01T12:57:39.895Z</time></trkpt><trkpt lat="44.00232555408057" lon="10.834727444439006"><ele>751.0</ele><time>2026-05-01T12:57:41.895Z</time></trkpt><trkpt lat="44.00259469694831" lon="10.834269568759192"><ele>753.0</ele><time>2026-05-01T12:57:42.895Z</time></trkpt><trkpt lat="44.00269035680555" lon="10.834296715493522"><ele>755.0</ele><time>2026-05-01T12:57:43.895Z</time></trkpt><trkpt lat="44.00277989188401" lon="10.834343823612413"><ele>757.0</ele><time>2026-05-01T12:57:44.895Z</time></trkpt><trkpt lat="44.002850155353514" lon="10.834489267780311"><ele>759.0</ele><time>2026-05-01T12:57:45.895Z</time></trkpt><trkpt lat="44.00296902714053" lon="10.834622284135984"><ele>759.0</ele><time>2026-05-01T12:57:46.895Z</time></trkpt><trkpt lat="44.00309972639924" lon="10.834767473292096"><ele>759.0</ele><time>2026-05-01T12:57:47.895Z</time></trkpt><trkpt lat="44.00323324293872" lon="10.834914970416868"><ele>759.0</ele><time>2026-05-01T12:57:48.895Z</time></trkpt><trkpt lat="44.003368956265156" lon="10.835064894352861"><ele>759.0</ele><time>2026-05-01T12:57:49.895Z</time></trkpt><trkpt lat="44.0035037969657" lon="10.835213854277601"><ele>759.0</ele><time>2026-05-01T12:57:50.895Z</time></trkpt><trkpt lat="44.003637361408536" lon="10.835361404330554"><ele>759.0</ele><time>2026-05-01T12:57:51.895Z</time></trkpt><trkpt lat="44.00377493226782" lon="10.835474404839633"><ele>759.0</ele><time>2026-05-01T12:57:52.895Z</time></trkpt><trkpt lat="44.00389111236298" lon="10.835595243927841"><ele>759.0</ele><time>2026-05-01T12:57:53.895Z</time></trkpt><trkpt lat="44.00401333978098" lon="10.8356882372329"><ele>759.0</ele><time>2026-05-01T12:57:54.895Z</time></trkpt><trkpt lat="44.00414951769714" lon="10.835732517612014"><ele>759.0</ele><time>2026-05-01T12:57:55.895Z</time></trkpt><trkpt lat="44.00430006932118" lon="10.835769446737416"><ele>755.3333333333334</ele><time>2026-05-01T12:57:56.895Z</time></trkpt><trkpt lat="44.00445241688408" lon="10.83582136432161"><ele>751.6666666666667</ele><time>2026-05-01T12:57:57.895Z</time></trkpt><trkpt lat="44.004601269203405" lon="10.83588013510734"><ele>748.0</ele><time>2026-05-01T12:57:58.895Z</time></trkpt><trkpt lat="44.004765940039526" lon="10.835940851920812"><ele>751.3333333333334</ele><time>2026-05-01T12:57:59.895Z</time></trkpt><trkpt lat="44.00493472689078" lon="10.835998095990448"><ele>754.6666666666666</ele><time>2026-05-01T12:58:00.895Z</time></trkpt><trkpt lat="44.00510917112759" lon="10.836055872751514"><ele>758.0</ele><time>2026-05-01T12:58:01.895Z</time></trkpt><trkpt lat="44.00527367531919" lon="10.836114565382813"><ele>758.25</ele><time>2026-05-01T12:58:02.895Z</time></trkpt><trkpt lat="44.005428936287565" lon="10.836179913170398"><ele>758.5</ele><time>2026-05-01T12:58:03.895Z</time></trkpt><trkpt lat="44.00557456747323" lon="10.836191078320853"><ele>758.75</ele><time>2026-05-01T12:58:04.895Z</time></trkpt><trkpt lat="44.005662387192835" lon="10.836233369630484"><ele>759.0</ele><time>2026-05-01T12:58:05.895Z</time></trkpt><trkpt lat="44.00573205876893" lon="10.836315258914905"><ele>759.0</ele><time>2026-05-01T12:58:06.895Z</time></trkpt><trkpt lat="44.00578691758348" lon="10.836453818977267"><ele>759.0</ele><time>2026-05-01T12:58:07.895Z</time></trkpt><trkpt lat="44.00576420851671" lon="10.836629970234998"><ele>759.0</ele><time>2026-05-01T12:58:08.895Z</time></trkpt><trkpt lat="44.00576247457014" lon="10.836819438081342"><ele>759.0</ele><time>2026-05-01T12:58:09.895Z</time></trkpt><trkpt lat="44.00576165917246" lon="10.83701745462626"><ele>756.0</ele><time>2026-05-01T12:58:10.895Z</time></trkpt><trkpt lat="44.00576232978445" lon="10.837213100752038"><ele>753.0</ele><time>2026-05-01T12:58:11.895Z</time></trkpt><trkpt lat="44.00577528729201" lon="10.837402982629419"><ele>750.0</ele><time>2026-05-01T12:58:12.895Z</time></trkpt><trkpt lat="44.00581607239836" lon="10.837571708749552"><ele>747.0</ele><time>2026-05-01T12:58:13.895Z</time></trkpt><trkpt lat="44.00589831986705" lon="10.837703492048885"><ele>747.0</ele><time>2026-05-01T12:58:14.895Z</time></trkpt><trkpt lat="44.00599031034234" lon="10.837825217085923"><ele>747.0</ele><time>2026-05-01T12:58:15.895Z</time></trkpt><trkpt lat="44.00605627944871" lon="10.837974499074756"><ele>747.0</ele><time>2026-05-01T12:58:16.895Z</time></trkpt><trkpt lat="44.00610710879836" lon="10.83811427274211"><ele>747.0</ele><time>2026-05-01T12:58:17.895Z</time></trkpt><trkpt lat="44.00606281889995" lon="10.83829075690741"><ele>747.0</ele><time>2026-05-01T12:58:18.895Z</time></trkpt><trkpt lat="44.00598435887835" lon="10.838455859223728"><ele>747.0</ele><time>2026-05-01T12:58:19.895Z</time></trkpt><trkpt lat="44.00589973352311" lon="10.838650387120449"><ele>747.0</ele><time>2026-05-01T12:58:20.895Z</time></trkpt><trkpt lat="44.00580778629627" lon="10.838865382500734"><ele>755.75</ele><time>2026-05-01T12:58:21.895Z</time></trkpt><trkpt lat="44.005738425309794" lon="10.83906729449617"><ele>764.5</ele><time>2026-05-01T12:58:22.895Z</time></trkpt><trkpt lat="44.00567571608435" lon="10.839243362667023"><ele>773.25</ele><time>2026-05-01T12:58:23.895Z</time></trkpt><trkpt lat="44.00564036236792" lon="10.839413215180558"><ele>782.0</ele><time>2026-05-01T12:58:24.895Z</time></trkpt><trkpt lat="44.005640500373794" lon="10.8395893710866"><ele>784.5</ele><time>2026-05-01T12:58:25.895Z</time></trkpt><trkpt lat="44.00567459048652" lon="10.839773801786608"><ele>787.0</ele><time>2026-05-01T12:58:26.894Z</time></trkpt><trkpt lat="44.00575100085515" lon="10.83992165715727"><ele>789.5</ele><time>2026-05-01T12:58:27.895Z</time></trkpt><trkpt lat="44.00586488131009" lon="10.840039091405162"><ele>792.0</ele><time>2026-05-01T12:58:28.895Z</time></trkpt><trkpt lat="44.005998910823806" lon="10.840121001240115"><ele>782.0</ele><time>2026-05-01T12:58:29.895Z</time></trkpt><trkpt lat="44.006151516644735" lon="10.840200836840529"><ele>772.0</ele><time>2026-05-01T12:58:30.895Z</time></trkpt><trkpt lat="44.006297073980065" lon="10.84028758388295"><ele>762.0</ele><time>2026-05-01T12:58:31.895Z</time></trkpt><trkpt lat="44.006412680777665" lon="10.84037275632186"><ele>762.0</ele><time>2026-05-01T12:58:32.895Z</time></trkpt><trkpt lat="44.006494389574925" lon="10.840478861354772"><ele>762.0</ele><time>2026-05-01T12:58:33.894Z</time></trkpt><trkpt lat="44.006511249054874" lon="10.840626279524887"><ele>762.0</ele><time>2026-05-01T12:58:34.894Z</time></trkpt><trkpt lat="44.006524731366326" lon="10.840819376265015"><ele>762.0</ele><time>2026-05-01T12:58:35.895Z</time></trkpt><trkpt lat="44.00649963666303" lon="10.84103499275435"><ele>761.6666666666666</ele><time>2026-05-01T12:58:36.895Z</time></trkpt><trkpt lat="44.00643724027184" lon="10.841271231931762"><ele>761.3333333333333</ele><time>2026-05-01T12:58:37.895Z</time></trkpt><trkpt lat="44.00635519237072" lon="10.841531790653368"><ele>761.0</ele><time>2026-05-01T12:58:38.895Z</time></trkpt><trkpt lat="44.00628243083566" lon="10.841787100263819"><ele>756.3333333333333</ele><time>2026-05-01T12:58:39.895Z</time></trkpt><trkpt lat="44.00623467527589" lon="10.842062409419757"><ele>751.6666666666666</ele><time>2026-05-01T12:58:40.895Z</time></trkpt><trkpt lat="44.00619226850206" lon="10.842340221702713"><ele>747.0</ele><time>2026-05-01T12:58:41.895Z</time></trkpt><trkpt lat="44.006106577775725" lon="10.84259970604274"><ele>744.0</ele><time>2026-05-01T12:58:42.895Z</time></trkpt><trkpt lat="44.006011877305944" lon="10.842859356568205"><ele>741.0</ele><time>2026-05-01T12:58:43.895Z</time></trkpt><trkpt lat="44.00591990981976" lon="10.843102784579886"><ele>738.0</ele><time>2026-05-01T12:58:44.895Z</time></trkpt><trkpt lat="44.00583953127279" lon="10.843337995563038"><ele>747.6666666666666</ele><time>2026-05-01T12:58:45.895Z</time></trkpt><trkpt lat="44.005798808001025" lon="10.843590153179976"><ele>757.3333333333333</ele><time>2026-05-01T12:58:46.895Z</time></trkpt><trkpt lat="44.005760966617366" lon="10.843858774701278"><ele>767.0</ele><time>2026-05-01T12:58:47.895Z</time></trkpt><trkpt lat="44.00574260782337" lon="10.844136396062826"><ele>762.0</ele><time>2026-05-01T12:58:48.895Z</time></trkpt><trkpt lat="44.00574254685387" lon="10.844425037635066"><ele>757.0</ele><time>2026-05-01T12:58:49.895Z</time></trkpt><trkpt lat="44.00573602756747" lon="10.844711170946887"><ele>752.0</ele><time>2026-05-01T12:58:50.895Z</time></trkpt><trkpt lat="44.00573356567385" lon="10.844983528997881"><ele>751.3333333333333</ele><time>2026-05-01T12:58:51.895Z</time></trkpt><trkpt lat="44.005719952087915" lon="10.845243318052145"><ele>750.6666666666666</ele><time>2026-05-01T12:58:52.895Z</time></trkpt><trkpt lat="44.005755890107956" lon="10.84548976713393"><ele>750.0</ele><time>2026-05-01T12:58:53.895Z</time></trkpt><trkpt lat="44.005798396887215" lon="10.845735542346056"><ele>744.0</ele><time>2026-05-01T12:58:54.895Z</time></trkpt><trkpt lat="44.00585715194019" lon="10.84598437173089"><ele>738.0</ele><time>2026-05-01T12:58:55.895Z</time></trkpt><trkpt lat="44.005915369231055" lon="10.846214720019994"><ele>732.0</ele><time>2026-05-01T12:58:56.895Z</time></trkpt><trkpt lat="44.00598167585686" lon="10.8464513199483"><ele>732.0</ele><time>2026-05-01T12:58:57.895Z</time></trkpt><trkpt lat="44.006072428359346" lon="10.846665196336248"><ele>732.0</ele><time>2026-05-01T12:58:58.895Z</time></trkpt><trkpt lat="44.006205812810045" lon="10.846859079684972"><ele>732.0</ele><time>2026-05-01T12:58:59.895Z</time></trkpt><trkpt lat="44.006352540184864" lon="10.847040402623888"><ele>734.6666666666666</ele><time>2026-05-01T12:59:00.895Z</time></trkpt><trkpt lat="44.006480759570685" lon="10.847235355298517"><ele>737.3333333333333</ele><time>2026-05-01T12:59:01.894Z</time></trkpt><trkpt lat="44.006585694013694" lon="10.84745869658163"><ele>740.0</ele><time>2026-05-01T12:59:02.894Z</time></trkpt><trkpt lat="44.00663911942049" lon="10.847724508235732"><ele>736.3333333333333</ele><time>2026-05-01T12:59:03.894Z</time></trkpt><trkpt lat="44.00669783111405" lon="10.847988252214293"><ele>732.6666666666666</ele><time>2026-05-01T12:59:04.894Z</time></trkpt><trkpt lat="44.00675339173141" lon="10.848242401070635"><ele>729.0</ele><time>2026-05-01T12:59:05.894Z</time></trkpt><trkpt lat="44.006809299763944" lon="10.848459430063741"><ele>727.5</ele><time>2026-05-01T12:59:06.894Z</time></trkpt><trkpt lat="44.0068770297446" lon="10.84864300249018"><ele>726.0</ele><time>2026-05-01T12:59:07.894Z</time></trkpt><trkpt lat="44.00696779568996" lon="10.848782675416397"><ele>724.5</ele><time>2026-05-01T12:59:08.894Z</time></trkpt><trkpt lat="44.00709125978666" lon="10.848911715913871"><ele>723.0</ele><time>2026-05-01T12:59:09.894Z</time></trkpt><trkpt lat="44.007235321042224" lon="10.84902723930457"><ele>723.0</ele><time>2026-05-01T12:59:10.894Z</time></trkpt><trkpt lat="44.007396571877266" lon="10.849128430916105"><ele>723.0</ele><time>2026-05-01T12:59:11.894Z</time></trkpt><trkpt lat="44.007569003297675" lon="10.849292368239611"><ele>723.0</ele><time>2026-05-01T12:59:12.894Z</time></trkpt><trkpt lat="44.00774726025449" lon="10.849465713345031"><ele>723.6666666666666</ele><time>2026-05-01T12:59:13.894Z</time></trkpt><trkpt lat="44.00792807110225" lon="10.849621167028731"><ele>724.3333333333333</ele><time>2026-05-01T12:59:14.894Z</time></trkpt><trkpt lat="44.008107396224545" lon="10.849786139328167"><ele>725.0</ele><time>2026-05-01T12:59:15.894Z</time></trkpt><trkpt lat="44.00830044009254" lon="10.84995942124452"><ele>725.5</ele><time>2026-05-01T12:59:16.894Z</time></trkpt><trkpt lat="44.00849329720399" lon="10.85011599644871"><ele>726.0</ele><time>2026-05-01T12:59:17.894Z</time></trkpt><trkpt lat="44.00869397466246" lon="10.850279808708915"><ele>727.0</ele><time>2026-05-01T12:59:18.894Z</time></trkpt><trkpt lat="44.008863874448046" lon="10.850490225687693"><ele>728.0</ele><time>2026-05-01T12:59:19.894Z</time></trkpt><trkpt lat="44.00903578537965" lon="10.850706539291902"><ele>727.3333333333333</ele><time>2026-05-01T12:59:20.894Z</time></trkpt><trkpt lat="44.00920308500722" lon="10.850917878221983"><ele>726.6666666666666</ele><time>2026-05-01T12:59:21.894Z</time></trkpt><trkpt lat="44.00936739270792" lon="10.851094913097219"><ele>726.0</ele><time>2026-05-01T12:59:22.894Z</time></trkpt><trkpt lat="44.00951574173455" lon="10.851285416549343"><ele>726.6666666666666</ele><time>2026-05-01T12:59:23.894Z</time></trkpt><trkpt lat="44.00965922265776" lon="10.851493484752154"><ele>727.3333333333333</ele><time>2026-05-01T12:59:24.894Z</time></trkpt><trkpt lat="44.009775635276" lon="10.851741551925482"><ele>728.0</ele><time>2026-05-01T12:59:25.894Z</time></trkpt><trkpt lat="44.00990039425259" lon="10.851974401296257"><ele>724.3333333333333</ele><time>2026-05-01T12:59:26.894Z</time></trkpt><trkpt lat="44.01002188400058" lon="10.85218260945661"><ele>720.6666666666666</ele><time>2026-05-01T12:59:27.894Z</time></trkpt><trkpt lat="44.01012373241743" lon="10.852391527712157"><ele>717.0</ele><time>2026-05-01T12:59:28.894Z</time></trkpt><trkpt lat="44.01021584856003" lon="10.852619343841294"><ele>715.3333333333334</ele><time>2026-05-01T12:59:29.894Z</time></trkpt><trkpt lat="44.010271268154966" lon="10.852875789775643"><ele>713.6666666666667</ele><time>2026-05-01T12:59:30.894Z</time></trkpt><trkpt lat="44.01033790884855" lon="10.853097235036204"><ele>712.0</ele><time>2026-05-01T12:59:31.894Z</time></trkpt><trkpt lat="44.010454501774866" lon="10.853278459061352"><ele>712.0</ele><time>2026-05-01T12:59:32.894Z</time></trkpt><trkpt lat="44.010558349029935" lon="10.853445616228685"><ele>712.0</ele><time>2026-05-01T12:59:33.894Z</time></trkpt><trkpt lat="44.01066529543288" lon="10.853610987277163"><ele>712.0</ele><time>2026-05-01T12:59:34.894Z</time></trkpt><trkpt lat="44.01075487322078" lon="10.853787611765728"><ele>711.3333333333334</ele><time>2026-05-01T12:59:35.894Z</time></trkpt><trkpt lat="44.01087020194941" lon="10.853943197115228"><ele>710.6666666666666</ele><time>2026-05-01T12:59:36.894Z</time></trkpt><trkpt lat="44.0109635727558" lon="10.854122779048344"><ele>710.0</ele><time>2026-05-01T12:59:37.894Z</time></trkpt><trkpt lat="44.01106499606844" lon="10.854289513847522"><ele>709.0</ele><time>2026-05-01T12:59:38.894Z</time></trkpt><trkpt lat="44.01115462602502" lon="10.85445622224566"><ele>708.0</ele><time>2026-05-01T12:59:39.894Z</time></trkpt><trkpt lat="44.011223589941906" lon="10.854637771545706"><ele>707.0</ele><time>2026-05-01T12:59:40.894Z</time></trkpt><trkpt lat="44.011305265711364" lon="10.854795253963433"><ele>706.0</ele><time>2026-05-01T12:59:41.894Z</time></trkpt><trkpt lat="44.011379375176055" lon="10.854956908344285"><ele>706.0</ele><time>2026-05-01T12:59:42.894Z</time></trkpt><trkpt lat="44.011441458853284" lon="10.855116265139037"><ele>706.0</ele><time>2026-05-01T12:59:43.894Z</time></trkpt><trkpt lat="44.01150542148406" lon="10.855270614454678"><ele>706.0</ele><time>2026-05-01T12:59:44.894Z</time></trkpt><trkpt lat="44.01156040854805" lon="10.855389053006212"><ele>706.0</ele><time>2026-05-01T12:59:45.894Z</time></trkpt><trkpt lat="44.011612836489036" lon="10.855497358327574"><ele>706.8</ele><time>2026-05-01T12:59:46.894Z</time></trkpt><trkpt lat="44.01165927537365" lon="10.855606680897562"><ele>707.5999999999999</ele><time>2026-05-01T12:59:47.894Z</time></trkpt><trkpt lat="44.011706523355876" lon="10.855722435325484"><ele>708.4</ele><time>2026-05-01T12:59:48.894Z</time></trkpt><trkpt lat="44.01175583627461" lon="10.855839642190238"><ele>709.2</ele><time>2026-05-01T12:59:49.894Z</time></trkpt><trkpt lat="44.011804785039494" lon="10.855966146760089"><ele>710.0</ele><time>2026-05-01T12:59:50.894Z</time></trkpt><trkpt lat="44.011849472013225" lon="10.856095084871574"><ele>708.0</ele><time>2026-05-01T12:59:51.894Z</time></trkpt><trkpt lat="44.01189129174976" lon="10.856220922071376"><ele>706.0</ele><time>2026-05-01T12:59:52.894Z</time></trkpt><trkpt lat="44.01193166974103" lon="10.856353192863036"><ele>704.0</ele><time>2026-05-01T12:59:53.894Z</time></trkpt><trkpt lat="44.01197186452989" lon="10.856478976090889"><ele>702.0</ele><time>2026-05-01T12:59:54.894Z</time></trkpt><trkpt lat="44.01202329356489" lon="10.856611166160507"><ele>700.0</ele><time>2026-05-01T12:59:55.894Z</time></trkpt><trkpt lat="44.01209661732488" lon="10.856734669431194"><ele>699.8</ele><time>2026-05-01T12:59:56.894Z</time></trkpt><trkpt lat="44.01217357305912" lon="10.8568392811036"><ele>699.6</ele><time>2026-05-01T12:59:57.894Z</time></trkpt><trkpt lat="44.01224425670324" lon="10.856921928926546"><ele>699.4000000000001</ele><time>2026-05-01T12:59:58.894Z</time></trkpt><trkpt lat="44.01232618373636" lon="10.856989031563439"><ele>699.2</ele><time>2026-05-01T12:59:59.894Z</time></trkpt><trkpt lat="44.01242443982685" lon="10.857087266434212"><ele>699.0</ele><time>2026-05-01T13:00:00.894Z</time></trkpt><trkpt lat="44.01252548478164" lon="10.857157157681032"><ele>699.0</ele><time>2026-05-01T13:00:01.894Z</time></trkpt><trkpt lat="44.012645210020025" lon="10.857228953356763"><ele>699.0</ele><time>2026-05-01T13:00:02.894Z</time></trkpt><trkpt lat="44.01277566184632" lon="10.857312364975897"><ele>699.0</ele><time>2026-05-01T13:00:03.894Z</time></trkpt><trkpt lat="44.0128894481245" lon="10.85739662944521"><ele>699.0</ele><time>2026-05-01T13:00:04.894Z</time></trkpt><trkpt lat="44.01299838189061" lon="10.857492115878975"><ele>699.0</ele><time>2026-05-01T13:00:05.894Z</time></trkpt><trkpt lat="44.013088536228814" lon="10.857576871979067"><ele>699.0</ele><time>2026-05-01T13:00:06.894Z</time></trkpt><trkpt lat="44.013164678546474" lon="10.857650973038396"><ele>699.0</ele><time>2026-05-01T13:00:07.894Z</time></trkpt><trkpt lat="44.01324242573073" lon="10.857729793297008"><ele>699.0</ele><time>2026-05-01T13:00:08.894Z</time></trkpt><trkpt lat="44.01333259277249" lon="10.857823916140848"><ele>699.0</ele><time>2026-05-01T13:00:09.894Z</time></trkpt><trkpt lat="44.01343273906454" lon="10.857937884456453"><ele>699.25</ele><time>2026-05-01T13:00:10.894Z</time></trkpt><trkpt lat="44.013528640710916" lon="10.858061434755802"><ele>699.5</ele><time>2026-05-01T13:00:11.894Z</time></trkpt><trkpt lat="44.01361253158544" lon="10.858201990416456"><ele>699.75</ele><time>2026-05-01T13:00:12.894Z</time></trkpt><trkpt lat="44.013706253710524" lon="10.858339626448826"><ele>700.0</ele><time>2026-05-01T13:00:13.894Z</time></trkpt><trkpt lat="44.013809569355196" lon="10.858482858524868"><ele>700.3333333333334</ele><time>2026-05-01T13:00:14.894Z</time></trkpt><trkpt lat="44.013951015032966" lon="10.85858672495651"><ele>700.6666666666666</ele><time>2026-05-01T13:00:15.894Z</time></trkpt><trkpt lat="44.014095080526836" lon="10.858699117865688"><ele>701.0</ele><time>2026-05-01T13:00:16.894Z</time></trkpt><trkpt lat="44.014236833031575" lon="10.858800700832802"><ele>699.6666666666666</ele><time>2026-05-01T13:00:17.894Z</time></trkpt><trkpt lat="44.01438092850754" lon="10.858911722272602"><ele>698.3333333333334</ele><time>2026-05-01T13:00:18.894Z</time></trkpt><trkpt lat="44.014524852662035" lon="10.859044690728226"><ele>697.0</ele><time>2026-05-01T13:00:19.894Z</time></trkpt><trkpt lat="44.0146691201873" lon="10.859205409613672"><ele>697.3333333333334</ele><time>2026-05-01T13:00:20.894Z</time></trkpt><trkpt lat="44.01480297445802" lon="10.859388011540943"><ele>697.6666666666666</ele><time>2026-05-01T13:00:21.894Z</time></trkpt><trkpt lat="44.014930612385115" lon="10.859572240373103"><ele>698.0</ele><time>2026-05-01T13:00:22.894Z</time></trkpt><trkpt lat="44.01505632736441" lon="10.859839377989605"><ele>695.5</ele><time>2026-05-01T13:00:23.894Z</time></trkpt><trkpt lat="44.01521205041857" lon="10.860163521077123"><ele>693.0</ele><time>2026-05-01T13:00:24.894Z</time></trkpt><trkpt lat="44.015366187755234" lon="10.860484361486696"><ele>693.0</ele><time>2026-05-01T13:00:25.894Z</time></trkpt><trkpt lat="44.01551003504955" lon="10.860767529515046"><ele>693.0</ele><time>2026-05-01T13:00:26.894Z</time></trkpt><trkpt lat="44.01565185201578" lon="10.86104408267783"><ele>693.0</ele><time>2026-05-01T13:00:27.894Z</time></trkpt><trkpt lat="44.015816388829855" lon="10.86130542595741"><ele>693.0</ele><time>2026-05-01T13:00:28.894Z</time></trkpt><trkpt lat="44.01600341848155" lon="10.861555423396426"><ele>696.0</ele><time>2026-05-01T13:00:29.894Z</time></trkpt><trkpt lat="44.016190803904394" lon="10.861807745222995"><ele>699.0</ele><time>2026-05-01T13:00:30.894Z</time></trkpt><trkpt lat="44.016366804288" lon="10.86205853414941"><ele>699.0</ele><time>2026-05-01T13:00:31.894Z</time></trkpt><trkpt lat="44.016527291601626" lon="10.862286268009166"><ele>699.0</ele><time>2026-05-01T13:00:32.894Z</time></trkpt><trkpt lat="44.01667624769314" lon="10.86250573690282"><ele>699.0</ele><time>2026-05-01T13:00:33.894Z</time></trkpt><trkpt lat="44.01681980742652" lon="10.86273201991014"><ele>698.3333333333334</ele><time>2026-05-01T13:00:34.894Z</time></trkpt><trkpt lat="44.016969973050344" lon="10.862936069564249"><ele>697.6666666666667</ele><time>2026-05-01T13:00:35.894Z</time></trkpt><trkpt lat="44.01712585244421" lon="10.863116222405802"><ele>697.0</ele><time>2026-05-01T13:00:36.894Z</time></trkpt><trkpt lat="44.0172899304858" lon="10.863256420790272"><ele>697.0</ele><time>2026-05-01T13:00:37.894Z</time></trkpt><trkpt lat="44.017460411291" lon="10.863374005819356"><ele>697.0</ele><time>2026-05-01T13:00:38.894Z</time></trkpt><trkpt lat="44.01764074893289" lon="10.86346398970497"><ele>697.0</ele><time>2026-05-01T13:00:39.894Z</time></trkpt><trkpt lat="44.01782195764404" lon="10.863531264681715"><ele>695.0</ele><time>2026-05-01T13:00:40.894Z</time></trkpt><trkpt lat="44.01799080971477" lon="10.863601688146417"><ele>693.0</ele><time>2026-05-01T13:00:41.894Z</time></trkpt><trkpt lat="44.01816608757319" lon="10.86371153210107"><ele>691.0</ele><time>2026-05-01T13:00:42.894Z</time></trkpt><trkpt lat="44.01833076080706" lon="10.863824330160133"><ele>691.0</ele><time>2026-05-01T13:00:43.894Z</time></trkpt><trkpt lat="44.018503492452155" lon="10.86395548394939"><ele>691.0</ele><time>2026-05-01T13:00:44.894Z</time></trkpt><trkpt lat="44.0186598502032" lon="10.86413300766804"><ele>691.0</ele><time>2026-05-01T13:00:45.894Z</time></trkpt><trkpt lat="44.01880328045564" lon="10.864336247538615"><ele>691.0</ele><time>2026-05-01T13:00:46.894Z</time></trkpt><trkpt lat="44.018935796887874" lon="10.86454767739251"><ele>691.0</ele><time>2026-05-01T13:00:47.894Z</time></trkpt><trkpt lat="44.01906230234804" lon="10.864754456856975"><ele>691.0</ele><time>2026-05-01T13:00:48.894Z</time></trkpt><trkpt lat="44.01917426330986" lon="10.864956354956709"><ele>692.6666666666667</ele><time>2026-05-01T13:00:49.894Z</time></trkpt><trkpt lat="44.019262509420344" lon="10.865145332432508"><ele>694.3333333333334</ele><time>2026-05-01T13:00:50.894Z</time></trkpt><trkpt lat="44.01933856900511" lon="10.865320873122608"><ele>696.0</ele><time>2026-05-01T13:00:51.894Z</time></trkpt><trkpt lat="44.01943337448544" lon="10.865487445765766"><ele>696.0</ele><time>2026-05-01T13:00:52.894Z</time></trkpt><trkpt lat="44.01952241440168" lon="10.86564034988818"><ele>696.0</ele><time>2026-05-01T13:00:53.894Z</time></trkpt><trkpt lat="44.019626642825024" lon="10.865738717336619"><ele>696.0</ele><time>2026-05-01T13:00:54.894Z</time></trkpt><trkpt lat="44.02011323933396" lon="10.865999802443271"><ele>697.6666666666666</ele><time>2026-05-01T13:00:55.894Z</time></trkpt><trkpt lat="44.02029514833007" lon="10.866072372914145"><ele>699.3333333333333</ele><time>2026-05-01T13:00:56.894Z</time></trkpt><trkpt lat="44.02048432619318" lon="10.866127726224008"><ele>701.0</ele><time>2026-05-01T13:00:57.894Z</time></trkpt><trkpt lat="44.02065460693082" lon="10.866191535053789"><ele>697.6666666666666</ele><time>2026-05-01T13:00:58.894Z</time></trkpt><trkpt lat="44.02082472367112" lon="10.866252492550583"><ele>694.3333333333334</ele><time>2026-05-01T13:00:59.894Z</time></trkpt><trkpt lat="44.02101128639856" lon="10.866276957103466"><ele>691.0</ele><time>2026-05-01T13:01:00.894Z</time></trkpt><trkpt lat="44.021208870296135" lon="10.866267120138327"><ele>691.0</ele><time>2026-05-01T13:01:01.894Z</time></trkpt><trkpt lat="44.02140652236268" lon="10.86624543251275"><ele>691.0</ele><time>2026-05-01T13:01:02.894Z</time></trkpt><trkpt lat="44.02161673137838" lon="10.866205475493759"><ele>691.0</ele><time>2026-05-01T13:01:03.894Z</time></trkpt><trkpt lat="44.02182655961261" lon="10.866185809576594"><ele>690.3333333333334</ele><time>2026-05-01T13:01:04.894Z</time></trkpt><trkpt lat="44.022029936942275" lon="10.866191272239229"><ele>689.6666666666666</ele><time>2026-05-01T13:01:05.894Z</time></trkpt><trkpt lat="44.02222457318876" lon="10.866269951897817"><ele>689.0</ele><time>2026-05-01T13:01:06.894Z</time></trkpt><trkpt lat="44.022423940118315" lon="10.866387711760028"><ele>688.0</ele><time>2026-05-01T13:01:07.894Z</time></trkpt><trkpt lat="44.022596647264784" lon="10.866501032113325"><ele>687.0</ele><time>2026-05-01T13:01:08.894Z</time></trkpt><trkpt lat="44.02280794750857" lon="10.866613284846599"><ele>686.0</ele><time>2026-05-01T13:01:09.894Z</time></trkpt><trkpt lat="44.022995357966764" lon="10.866715078220667"><ele>685.3333333333333</ele><time>2026-05-01T13:01:10.894Z</time></trkpt><trkpt lat="44.02318752036471" lon="10.866823057191464"><ele>684.6666666666666</ele><time>2026-05-01T13:01:11.894Z</time></trkpt><trkpt lat="44.02337890435035" lon="10.866923632542003"><ele>684.0</ele><time>2026-05-01T13:01:12.894Z</time></trkpt><trkpt lat="44.023566724548566" lon="10.867024316037629"><ele>684.0</ele><time>2026-05-01T13:01:13.894Z</time></trkpt><trkpt lat="44.023761020725985" lon="10.867125513631933"><ele>684.0</ele><time>2026-05-01T13:01:14.894Z</time></trkpt><trkpt lat="44.02398790448479" lon="10.867229310504035"><ele>684.0</ele><time>2026-05-01T13:01:15.894Z</time></trkpt><trkpt lat="44.02423368335541" lon="10.867347537050085"><ele>684.6666666666666</ele><time>2026-05-01T13:01:16.894Z</time></trkpt><trkpt lat="44.02444499610946" lon="10.867470752371998"><ele>685.3333333333333</ele><time>2026-05-01T13:01:17.894Z</time></trkpt><trkpt lat="44.02463765096085" lon="10.867581633572161"><ele>686.0</ele><time>2026-05-01T13:01:18.894Z</time></trkpt><trkpt lat="44.02480783854375" lon="10.867680612553935"><ele>686.0</ele><time>2026-05-01T13:01:19.894Z</time></trkpt><trkpt lat="44.02496464133131" lon="10.867768069977423"><ele>686.0</ele><time>2026-05-01T13:01:20.894Z</time></trkpt><trkpt lat="44.02510813846183" lon="10.867855953356468"><ele>686.0</ele><time>2026-05-01T13:01:21.894Z</time></trkpt><trkpt lat="44.02524145820747" lon="10.867967796951286"><ele>683.3333333333333</ele><time>2026-05-01T13:01:22.894Z</time></trkpt><trkpt lat="44.02535952860349" lon="10.868121939929338"><ele>680.6666666666666</ele><time>2026-05-01T13:01:23.894Z</time></trkpt><trkpt lat="44.025485361483334" lon="10.868299668384742"><ele>678.0</ele><time>2026-05-01T13:01:24.894Z</time></trkpt><trkpt lat="44.02563853198579" lon="10.86848560566121"><ele>678.0</ele><time>2026-05-01T13:01:25.894Z</time></trkpt><trkpt lat="44.025802318207695" lon="10.868715057493969"><ele>678.0</ele><time>2026-05-01T13:01:26.894Z</time></trkpt><trkpt lat="44.02596312913687" lon="10.86896683781219"><ele>678.5</ele><time>2026-05-01T13:01:27.894Z</time></trkpt><trkpt lat="44.02612319286589" lon="10.869210902794245"><ele>679.0</ele><time>2026-05-01T13:01:28.894Z</time></trkpt><trkpt lat="44.026271820029024" lon="10.869421562816278"><ele>677.6666666666667</ele><time>2026-05-01T13:01:29.894Z</time></trkpt><trkpt lat="44.02641421835762" lon="10.869615538780584"><ele>676.3333333333334</ele><time>2026-05-01T13:01:30.894Z</time></trkpt><trkpt lat="44.02654570939112" lon="10.86979451228536"><ele>675.0</ele><time>2026-05-01T13:01:31.894Z</time></trkpt><trkpt lat="44.02668954490261" lon="10.869981484515035"><ele>674.6666666666666</ele><time>2026-05-01T13:01:32.894Z</time></trkpt><trkpt lat="44.026826893595896" lon="10.870168657789357"><ele>674.3333333333333</ele><time>2026-05-01T13:01:33.894Z</time></trkpt><trkpt lat="44.02696669636464" lon="10.87036947210111"><ele>674.0</ele><time>2026-05-01T13:01:34.894Z</time></trkpt><trkpt lat="44.027108191000664" lon="10.870570269286665"><ele>674.0</ele><time>2026-05-01T13:01:35.894Z</time></trkpt><trkpt lat="44.02724846584207" lon="10.870757238729125"><ele>674.0</ele><time>2026-05-01T13:01:36.894Z</time></trkpt><trkpt lat="44.02739555148762" lon="10.870961725183237"><ele>674.0</ele><time>2026-05-01T13:01:37.894Z</time></trkpt><trkpt lat="44.02753999955243" lon="10.871168602803266"><ele>674.0</ele><time>2026-05-01T13:01:38.894Z</time></trkpt><trkpt lat="44.02768343065382" lon="10.871373608364042"><ele>674.0</ele><time>2026-05-01T13:01:39.894Z</time></trkpt><trkpt lat="44.02782013588172" lon="10.871565291295015"><ele>674.0</ele><time>2026-05-01T13:01:40.894Z</time></trkpt><trkpt lat="44.02795111410357" lon="10.871753001102695"><ele>673.3333333333333</ele><time>2026-05-01T13:01:41.894Z</time></trkpt><trkpt lat="44.02808172983497" lon="10.871918395466611"><ele>672.6666666666666</ele><time>2026-05-01T13:01:42.894Z</time></trkpt><trkpt lat="44.0282235570419" lon="10.87204726796096"><ele>672.0</ele><time>2026-05-01T13:01:43.894Z</time></trkpt><trkpt lat="44.02838229685058" lon="10.872119085362083"><ele>672.0</ele><time>2026-05-01T13:01:44.894Z</time></trkpt><trkpt lat="44.028563512126716" lon="10.872157746217853"><ele>672.0</ele><time>2026-05-01T13:01:45.894Z</time></trkpt><trkpt lat="44.02875009038639" lon="10.872197473072985"><ele>672.0</ele><time>2026-05-01T13:01:46.894Z</time></trkpt><trkpt lat="44.028942067309025" lon="10.872258318919165"><ele>672.0</ele><time>2026-05-01T13:01:47.894Z</time></trkpt><trkpt lat="44.029140175384846" lon="10.872327886245735"><ele>672.0</ele><time>2026-05-01T13:01:48.894Z</time></trkpt><trkpt lat="44.029346782683234" lon="10.872391961829832"><ele>672.0</ele><time>2026-05-01T13:01:49.894Z</time></trkpt><trkpt lat="44.02955775715384" lon="10.872456789901516"><ele>672.3333333333334</ele><time>2026-05-01T13:01:50.894Z</time></trkpt><trkpt lat="44.02977094382925" lon="10.872520292496034"><ele>672.6666666666667</ele><time>2026-05-01T13:01:51.894Z</time></trkpt><trkpt lat="44.029982505437424" lon="10.872585149910437"><ele>673.0</ele><time>2026-05-01T13:01:52.894Z</time></trkpt><trkpt lat="44.03019701446267" lon="10.872652094225579"><ele>672.3333333333334</ele><time>2026-05-01T13:01:53.894Z</time></trkpt><trkpt lat="44.03041449925106" lon="10.872712188792084"><ele>671.6666666666666</ele><time>2026-05-01T13:01:54.894Z</time></trkpt><trkpt lat="44.03063311996525" lon="10.872777207981137"><ele>671.0</ele><time>2026-05-01T13:01:55.894Z</time></trkpt><trkpt lat="44.03083363345859" lon="10.87284001599678"><ele>670.6666666666666</ele><time>2026-05-01T13:01:56.894Z</time></trkpt><trkpt lat="44.03102013076823" lon="10.872924223673946"><ele>670.3333333333334</ele><time>2026-05-01T13:01:57.894Z</time></trkpt><trkpt lat="44.03119120289758" lon="10.873056320814204"><ele>670.0</ele><time>2026-05-01T13:01:58.894Z</time></trkpt><trkpt lat="44.03135641645284" lon="10.873239217290442"><ele>670.0</ele><time>2026-05-01T13:01:59.894Z</time></trkpt><trkpt lat="44.03152484363496" lon="10.873475548577273"><ele>670.0</ele><time>2026-05-01T13:02:00.894Z</time></trkpt><trkpt lat="44.03170406433408" lon="10.873754331039585"><ele>670.0</ele><time>2026-05-01T13:02:01.894Z</time></trkpt><trkpt lat="44.031897273367804" lon="10.874018168172624"><ele>670.0</ele><time>2026-05-01T13:02:02.894Z</time></trkpt><trkpt lat="44.032074713582745" lon="10.874253938866238"><ele>670.0</ele><time>2026-05-01T13:02:03.894Z</time></trkpt><trkpt lat="44.03222784594693" lon="10.874468967415837"><ele>670.0</ele><time>2026-05-01T13:02:04.894Z</time></trkpt><trkpt lat="44.03238114786717" lon="10.874679475137103"><ele>670.0</ele><time>2026-05-01T13:02:05.894Z</time></trkpt><trkpt lat="44.03253347225578" lon="10.874877046894815"><ele>669.6666666666667</ele><time>2026-05-01T13:02:06.894Z</time></trkpt><trkpt lat="44.0326866603854" lon="10.875076347173911"><ele>669.3333333333334</ele><time>2026-05-01T13:02:07.894Z</time></trkpt><trkpt lat="44.03284233569202" lon="10.875283255853502"><ele>669.0</ele><time>2026-05-01T13:02:08.894Z</time></trkpt><trkpt lat="44.033001187562775" lon="10.875487143387794"><ele>669.0</ele><time>2026-05-01T13:02:09.894Z</time></trkpt><trkpt lat="44.0331550116367" lon="10.87569697665404"><ele>669.0</ele><time>2026-05-01T13:02:10.894Z</time></trkpt><trkpt lat="44.033319321248456" lon="10.87590751724944"><ele>669.0</ele><time>2026-05-01T13:02:11.894Z</time></trkpt><trkpt lat="44.03348587555468" lon="10.87611956936916"><ele>670.3333333333334</ele><time>2026-05-01T13:02:12.894Z</time></trkpt><trkpt lat="44.03364984723524" lon="10.876335199204025"><ele>671.6666666666667</ele><time>2026-05-01T13:02:13.894Z</time></trkpt><trkpt lat="44.03380112630572" lon="10.876559774841839"><ele>673.0</ele><time>2026-05-01T13:02:14.894Z</time></trkpt><trkpt lat="44.0339413977043" lon="10.87679311676294"><ele>671.6666666666667</ele><time>2026-05-01T13:02:15.894Z</time></trkpt><trkpt lat="44.034067092225335" lon="10.877030870657462"><ele>670.3333333333334</ele><time>2026-05-01T13:02:16.894Z</time></trkpt><trkpt lat="44.03420940349395" lon="10.877227950751198"><ele>669.0</ele><time>2026-05-01T13:02:17.894Z</time></trkpt><trkpt lat="44.03438015182888" lon="10.877392854860748"><ele>669.0</ele><time>2026-05-01T13:02:18.894Z</time></trkpt><trkpt lat="44.03456813547262" lon="10.877536549113957"><ele>669.0</ele><time>2026-05-01T13:02:19.894Z</time></trkpt><trkpt lat="44.034760701448256" lon="10.877670639931488"><ele>669.0</ele><time>2026-05-01T13:02:20.894Z</time></trkpt><trkpt lat="44.03495157552402" lon="10.877820882220808"><ele>668.6666666666666</ele><time>2026-05-01T13:02:21.894Z</time></trkpt><trkpt lat="44.035138632658665" lon="10.877967683445112"><ele>668.3333333333333</ele><time>2026-05-01T13:02:22.894Z</time></trkpt><trkpt lat="44.03532769499639" lon="10.878123134786364"><ele>668.0</ele><time>2026-05-01T13:02:23.894Z</time></trkpt><trkpt lat="44.03550521388365" lon="10.878275446336493"><ele>668.0</ele><time>2026-05-01T13:02:24.894Z</time></trkpt><trkpt lat="44.03567401977119" lon="10.878431450599296"><ele>668.0</ele><time>2026-05-01T13:02:25.894Z</time></trkpt><trkpt lat="44.035832710803184" lon="10.878620866175684"><ele>668.0</ele><time>2026-05-01T13:02:26.894Z</time></trkpt><trkpt lat="44.03598094637206" lon="10.878838014969693"><ele>668.6666666666666</ele><time>2026-05-01T13:02:27.894Z</time></trkpt><trkpt lat="44.036127566873795" lon="10.879061724495497"><ele>669.3333333333334</ele><time>2026-05-01T13:02:28.893Z</time></trkpt><trkpt lat="44.0362773095466" lon="10.879293260473233"><ele>670.0</ele><time>2026-05-01T13:02:29.893Z</time></trkpt><trkpt lat="44.036417996112476" lon="10.879513936344154"><ele>670.0</ele><time>2026-05-01T13:02:30.893Z</time></trkpt><trkpt lat="44.0365459919378" lon="10.879718523150329"><ele>670.0</ele><time>2026-05-01T13:02:31.893Z</time></trkpt><trkpt lat="44.036654367806214" lon="10.879919079544814"><ele>670.0</ele><time>2026-05-01T13:02:32.893Z</time></trkpt><trkpt lat="44.03672133742238" lon="10.880122779527802"><ele>670.0</ele><time>2026-05-01T13:02:33.893Z</time></trkpt><trkpt lat="44.03674760597645" lon="10.880337159440538"><ele>670.0</ele><time>2026-05-01T13:02:34.893Z</time></trkpt><trkpt lat="44.036744267067334" lon="10.88057043793807"><ele>670.0</ele><time>2026-05-01T13:02:35.893Z</time></trkpt><trkpt lat="44.03675558679316" lon="10.88080361113315"><ele>669.3333333333334</ele><time>2026-05-01T13:02:36.893Z</time></trkpt><trkpt lat="44.03680001317833" lon="10.881023169961308"><ele>668.6666666666666</ele><time>2026-05-01T13:02:37.893Z</time></trkpt><trkpt lat="44.03687736184658" lon="10.881242550592047"><ele>668.0</ele><time>2026-05-01T13:02:38.893Z</time></trkpt><trkpt lat="44.03694467621885" lon="10.881472747071088"><ele>668.0</ele><time>2026-05-01T13:02:39.892Z</time></trkpt><trkpt lat="44.0370413521528" lon="10.881663907007963"><ele>668.0</ele><time>2026-05-01T13:02:40.892Z</time></trkpt><trkpt lat="44.037128758129995" lon="10.881842821656093"><ele>668.0</ele><time>2026-05-01T13:02:41.893Z</time></trkpt><trkpt lat="44.03723090046695" lon="10.882008848016389"><ele>668.3333333333333</ele><time>2026-05-01T13:02:42.893Z</time></trkpt><trkpt lat="44.037343371294426" lon="10.882160850567695"><ele>668.6666666666666</ele><time>2026-05-01T13:02:43.893Z</time></trkpt><trkpt lat="44.03743860480302" lon="10.882327187440572"><ele>669.0</ele><time>2026-05-01T13:02:44.893Z</time></trkpt><trkpt lat="44.037562126659616" lon="10.882451574244767"><ele>668.25</ele><time>2026-05-01T13:02:45.893Z</time></trkpt><trkpt lat="44.037669826065745" lon="10.882590955237092"><ele>667.5</ele><time>2026-05-01T13:02:46.893Z</time></trkpt><trkpt lat="44.03777033853085" lon="10.88268491162173"><ele>666.75</ele><time>2026-05-01T13:02:47.893Z</time></trkpt><trkpt lat="44.037865267495306" lon="10.882747109568324"><ele>666.0</ele><time>2026-05-01T13:02:48.893Z</time></trkpt><trkpt lat="44.03794510994244" lon="10.88277220227654"><ele>666.0</ele><time>2026-05-01T13:02:49.893Z</time></trkpt><trkpt lat="44.03802649353316" lon="10.882749680514761"><ele>666.0</ele><time>2026-05-01T13:02:50.893Z</time></trkpt><trkpt lat="44.0380817274732" lon="10.882681981385499"><ele>666.0</ele><time>2026-05-01T13:02:51.893Z</time></trkpt><trkpt lat="44.038106556991366" lon="10.882573636916353"><ele>666.0</ele><time>2026-05-01T13:02:52.893Z</time></trkpt><trkpt lat="44.03810125828132" lon="10.882430569969076"><ele>666.0</ele><time>2026-05-01T13:02:53.893Z</time></trkpt><trkpt lat="44.03807362744463" lon="10.882262064333474"><ele>666.0</ele><time>2026-05-01T13:02:54.893Z</time></trkpt><trkpt lat="44.03805658527798" lon="10.882034314245528"><ele>666.0</ele><time>2026-05-01T13:02:55.893Z</time></trkpt><trkpt lat="44.03801677833832" lon="10.881751877469714"><ele>666.0</ele><time>2026-05-01T13:02:56.893Z</time></trkpt><trkpt lat="44.037986664022895" lon="10.881501783455093"><ele>669.6666666666666</ele><time>2026-05-01T13:02:57.893Z</time></trkpt><trkpt lat="44.03796093899398" lon="10.881248536641836"><ele>673.3333333333333</ele><time>2026-05-01T13:02:58.893Z</time></trkpt><trkpt lat="44.037936449316" lon="10.880988579514087"><ele>677.0</ele><time>2026-05-01T13:02:59.893Z</time></trkpt><trkpt lat="44.03791429612953" lon="10.880723485802806"><ele>677.6666666666666</ele><time>2026-05-01T13:03:00.893Z</time></trkpt><trkpt lat="44.03788949092748" lon="10.880461142974063"><ele>678.3333333333334</ele><time>2026-05-01T13:03:01.893Z</time></trkpt><trkpt lat="44.037862448231" lon="10.880188157027126"><ele>679.0</ele><time>2026-05-01T13:03:02.893Z</time></trkpt><trkpt lat="44.03783680324483" lon="10.879916856675012"><ele>679.3333333333334</ele><time>2026-05-01T13:03:03.893Z</time></trkpt><trkpt lat="44.037810766655696" lon="10.879663290552179"><ele>679.6666666666666</ele><time>2026-05-01T13:03:04.893Z</time></trkpt><trkpt lat="44.037795757420156" lon="10.879419034203298"><ele>680.0</ele><time>2026-05-01T13:03:05.893Z</time></trkpt><trkpt lat="44.037786671227515" lon="10.87916333388863"><ele>684.3333333333333</ele><time>2026-05-01T13:03:06.893Z</time></trkpt><trkpt lat="44.03781386796496" lon="10.87889884095031"><ele>688.6666666666666</ele><time>2026-05-01T13:03:07.893Z</time></trkpt><trkpt lat="44.03783361069342" lon="10.87862576569478"><ele>693.0</ele><time>2026-05-01T13:03:08.893Z</time></trkpt><trkpt lat="44.03785230829146" lon="10.87836177723435"><ele>694.0</ele><time>2026-05-01T13:03:09.893Z</time></trkpt><trkpt lat="44.037869852483446" lon="10.878114073496008"><ele>695.0</ele><time>2026-05-01T13:03:10.893Z</time></trkpt><trkpt lat="44.0378737988519" lon="10.877880249801146"><ele>696.0</ele><time>2026-05-01T13:03:11.893Z</time></trkpt><trkpt lat="44.03789323186346" lon="10.877653250503197"><ele>696.3333333333334</ele><time>2026-05-01T13:03:12.893Z</time></trkpt><trkpt lat="44.03791221722832" lon="10.877421508769476"><ele>696.6666666666667</ele><time>2026-05-01T13:03:13.893Z</time></trkpt><trkpt lat="44.03792645066312" lon="10.87720221694748"><ele>697.0</ele><time>2026-05-01T13:03:14.893Z</time></trkpt><trkpt lat="44.03794108047496" lon="10.876998873560135"><ele>697.0</ele><time>2026-05-01T13:03:15.893Z</time></trkpt><trkpt lat="44.037952682151705" lon="10.876805024218367"><ele>697.0</ele><time>2026-05-01T13:03:16.892Z</time></trkpt><trkpt lat="44.03796568963316" lon="10.876632969633134"><ele>697.0</ele><time>2026-05-01T13:03:17.892Z</time></trkpt><trkpt lat="44.03798694802384" lon="10.876466737712638"><ele>697.0</ele><time>2026-05-01T13:03:18.892Z</time></trkpt><trkpt lat="44.03803101361719" lon="10.876313262878586"><ele>697.25</ele><time>2026-05-01T13:03:19.892Z</time></trkpt><trkpt lat="44.038107139743964" lon="10.876192182588193"><ele>697.5</ele><time>2026-05-01T13:03:20.892Z</time></trkpt><trkpt lat="44.03820778162755" lon="10.876106157752808"><ele>697.75</ele><time>2026-05-01T13:03:21.892Z</time></trkpt><trkpt lat="44.03832521419734" lon="10.876020925605582"><ele>698.0</ele><time>2026-05-01T13:03:22.892Z</time></trkpt><trkpt lat="44.038437240609994" lon="10.875909461546579"><ele>691.25</ele><time>2026-05-01T13:03:23.892Z</time></trkpt><trkpt lat="44.03852702993595" lon="10.87577604911821"><ele>684.5</ele><time>2026-05-01T13:03:24.892Z</time></trkpt><trkpt lat="44.038584903661636" lon="10.875628960822768"><ele>677.75</ele><time>2026-05-01T13:03:25.892Z</time></trkpt><trkpt lat="44.03860775267687" lon="10.87547084151097"><ele>671.0</ele><time>2026-05-01T13:03:26.892Z</time></trkpt><trkpt lat="44.03859984288964" lon="10.875307558149657"><ele>671.0</ele><time>2026-05-01T13:03:27.892Z</time></trkpt><trkpt lat="44.03857190707157" lon="10.875150137004132"><ele>671.0</ele><time>2026-05-01T13:03:28.892Z</time></trkpt><trkpt lat="44.03849708341751" lon="10.875009143523956"><ele>671.0</ele><time>2026-05-01T13:03:29.892Z</time></trkpt><trkpt lat="44.03841201631363" lon="10.874898757691497"><ele>671.0</ele><time>2026-05-01T13:03:30.892Z</time></trkpt><trkpt lat="44.03831342159237" lon="10.874806896778804"><ele>671.8</ele><time>2026-05-01T13:03:31.892Z</time></trkpt><trkpt lat="44.03821854642046" lon="10.874728169183692"><ele>672.5999999999999</ele><time>2026-05-01T13:03:32.892Z</time></trkpt><trkpt lat="44.03813086745893" lon="10.874656497470873"><ele>673.4</ele><time>2026-05-01T13:03:33.892Z</time></trkpt><trkpt lat="44.03805028397452" lon="10.874560352740607"><ele>674.2</ele><time>2026-05-01T13:03:34.892Z</time></trkpt><trkpt lat="44.037986135354956" lon="10.874426594394713"><ele>675.0</ele><time>2026-05-01T13:03:35.892Z</time></trkpt><trkpt lat="44.03793839970083" lon="10.874258382638107"><ele>675.0</ele><time>2026-05-01T13:03:36.892Z</time></trkpt><trkpt lat="44.03794140997104" lon="10.874067271316106"><ele>675.0</ele><time>2026-05-01T13:03:37.892Z</time></trkpt><trkpt lat="44.037921626593565" lon="10.873874087264598"><ele>675.0</ele><time>2026-05-01T13:03:38.892Z</time></trkpt><trkpt lat="44.03791300964775" lon="10.873698986270568"><ele>675.0</ele><time>2026-05-01T13:03:39.892Z</time></trkpt><trkpt lat="44.03790673833655" lon="10.873538892802102"><ele>675.25</ele><time>2026-05-01T13:03:40.892Z</time></trkpt><trkpt lat="44.03789998849428" lon="10.87339079160049"><ele>675.5</ele><time>2026-05-01T13:03:41.892Z</time></trkpt><trkpt lat="44.037892453152935" lon="10.873226198993176"><ele>675.75</ele><time>2026-05-01T13:03:42.892Z</time></trkpt><trkpt lat="44.03788878681824" lon="10.873035704947428"><ele>676.0</ele><time>2026-05-01T13:03:43.892Z</time></trkpt><trkpt lat="44.037896223325895" lon="10.872813583489863"><ele>676.0</ele><time>2026-05-01T13:03:44.892Z</time></trkpt><trkpt lat="44.03790901017592" lon="10.872608381994276"><ele>676.0</ele><time>2026-05-01T13:03:45.892Z</time></trkpt><trkpt lat="44.03793055486154" lon="10.872389651848387"><ele>676.0</ele><time>2026-05-01T13:03:46.892Z</time></trkpt><trkpt lat="44.03795443128455" lon="10.872160918019135"><ele>676.6666666666667</ele><time>2026-05-01T13:03:47.892Z</time></trkpt><trkpt lat="44.03797718933457" lon="10.871942435727998"><ele>677.3333333333334</ele><time>2026-05-01T13:03:48.892Z</time></trkpt><trkpt lat="44.037998718388906" lon="10.871717355365174"><ele>678.0</ele><time>2026-05-01T13:03:49.892Z</time></trkpt><trkpt lat="44.038023695587434" lon="10.871511152667678"><ele>678.0</ele><time>2026-05-01T13:03:50.892Z</time></trkpt><trkpt lat="44.03804502408465" lon="10.871321506915423"><ele>678.0</ele><time>2026-05-01T13:03:51.892Z</time></trkpt><trkpt lat="44.038062940222495" lon="10.871119472946901"><ele>678.0</ele><time>2026-05-01T13:03:52.892Z</time></trkpt><trkpt lat="44.038079729461344" lon="10.870926856648085"><ele>678.0</ele><time>2026-05-01T13:03:53.892Z</time></trkpt><trkpt lat="44.0380985041079" lon="10.870749036092043"><ele>678.2</ele><time>2026-05-01T13:03:54.892Z</time></trkpt><trkpt lat="44.0381308317315" lon="10.870601358689711"><ele>678.4</ele><time>2026-05-01T13:03:55.892Z</time></trkpt><trkpt lat="44.03816186406834" lon="10.8704650115092"><ele>678.6</ele><time>2026-05-01T13:03:56.892Z</time></trkpt><trkpt lat="44.03819173758821" lon="10.870317520166287"><ele>678.8000000000001</ele><time>2026-05-01T13:03:57.892Z</time></trkpt><trkpt lat="44.03820466618116" lon="10.870176869460158"><ele>679.0</ele><time>2026-05-01T13:03:58.892Z</time></trkpt><trkpt lat="44.03821585085462" lon="10.87003542965489"><ele>681.0</ele><time>2026-05-01T13:03:59.892Z</time></trkpt><trkpt lat="44.03823133928674" lon="10.86989383556045"><ele>683.0</ele><time>2026-05-01T13:04:00.892Z</time></trkpt><trkpt lat="44.03811986614914" lon="10.869281546444606"><ele>684.0</ele><time>2026-05-01T13:04:02.892Z</time></trkpt><trkpt lat="44.03810165732976" lon="10.86908418696971"><ele>685.0</ele><time>2026-05-01T13:04:03.892Z</time></trkpt><trkpt lat="44.03809908981767" lon="10.868871523802731"><ele>686.0</ele><time>2026-05-01T13:04:04.892Z</time></trkpt><trkpt lat="44.03811230959899" lon="10.86862453659777"><ele>688.0</ele><time>2026-05-01T13:04:05.892Z</time></trkpt><trkpt lat="44.03814234525375" lon="10.868326609472087"><ele>690.0</ele><time>2026-05-01T13:04:06.892Z</time></trkpt><trkpt lat="44.03821579226612" lon="10.868017139198399"><ele>690.0</ele><time>2026-05-01T13:04:07.892Z</time></trkpt><trkpt lat="44.038237823137194" lon="10.867689781885398"><ele>690.0</ele><time>2026-05-01T13:04:08.892Z</time></trkpt><trkpt lat="44.0382760578048" lon="10.867358753745691"><ele>692.0</ele><time>2026-05-01T13:04:09.892Z</time></trkpt><trkpt lat="44.038330150103086" lon="10.867043990439727"><ele>694.0</ele><time>2026-05-01T13:04:10.892Z</time></trkpt><trkpt lat="44.03836801709739" lon="10.866729356735979"><ele>695.3333333333334</ele><time>2026-05-01T13:04:11.892Z</time></trkpt><trkpt lat="44.038402670442835" lon="10.866423344901255"><ele>696.6666666666666</ele><time>2026-05-01T13:04:12.892Z</time></trkpt><trkpt lat="44.03843740929062" lon="10.866122115123417"><ele>698.0</ele><time>2026-05-01T13:04:13.892Z</time></trkpt><trkpt lat="44.03847264504754" lon="10.865824924023986"><ele>698.0</ele><time>2026-05-01T13:04:14.892Z</time></trkpt><trkpt lat="44.03850807610007" lon="10.86551786795843"><ele>698.0</ele><time>2026-05-01T13:04:15.892Z</time></trkpt><trkpt lat="44.03854035280375" lon="10.865220972855658"><ele>698.0</ele><time>2026-05-01T13:04:16.892Z</time></trkpt><trkpt lat="44.038573470097454" lon="10.86492454948132"><ele>698.0</ele><time>2026-05-01T13:04:17.892Z</time></trkpt><trkpt lat="44.038609584927144" lon="10.864634568226125"><ele>698.0</ele><time>2026-05-01T13:04:18.892Z</time></trkpt><trkpt lat="44.03864627232543" lon="10.864352965318824"><ele>698.0</ele><time>2026-05-01T13:04:19.892Z</time></trkpt><trkpt lat="44.03867933399125" lon="10.864092216326013"><ele>698.0</ele><time>2026-05-01T13:04:20.892Z</time></trkpt><trkpt lat="44.038692069997175" lon="10.863844012259761"><ele>698.0</ele><time>2026-05-01T13:04:21.892Z</time></trkpt><trkpt lat="44.03871664610999" lon="10.863615090138163"><ele>698.0</ele><time>2026-05-01T13:04:22.892Z</time></trkpt><trkpt lat="44.03873479860055" lon="10.863392487882011"><ele>697.5</ele><time>2026-05-01T13:04:23.892Z</time></trkpt><trkpt lat="44.03874599791" lon="10.86320810643846"><ele>697.0</ele><time>2026-05-01T13:04:24.892Z</time></trkpt><trkpt lat="44.03874843735305" lon="10.8629994121221"><ele>696.5</ele><time>2026-05-01T13:04:25.892Z</time></trkpt><trkpt lat="44.03873502069188" lon="10.862776137874938"><ele>696.0</ele><time>2026-05-01T13:04:26.892Z</time></trkpt><trkpt lat="44.03870751087823" lon="10.862558730238362"><ele>695.5</ele><time>2026-05-01T13:04:27.892Z</time></trkpt><trkpt lat="44.03867791243403" lon="10.862360334076687"><ele>695.0</ele><time>2026-05-01T13:04:28.892Z</time></trkpt><trkpt lat="44.03865811897031" lon="10.862168373009933"><ele>694.5</ele><time>2026-05-01T13:04:29.892Z</time></trkpt><trkpt lat="44.038645298993735" lon="10.861982251375931"><ele>694.0</ele><time>2026-05-01T13:04:30.892Z</time></trkpt><trkpt lat="44.0386660466511" lon="10.861813928509482"><ele>693.75</ele><time>2026-05-01T13:04:31.892Z</time></trkpt><trkpt lat="44.03870059625942" lon="10.861657484461174"><ele>693.5</ele><time>2026-05-01T13:04:32.892Z</time></trkpt><trkpt lat="44.03875450489358" lon="10.861477002037976"><ele>693.25</ele><time>2026-05-01T13:04:33.892Z</time></trkpt><trkpt lat="44.03881659467426" lon="10.86129359567637"><ele>693.0</ele><time>2026-05-01T13:04:34.892Z</time></trkpt><trkpt lat="44.03888085879577" lon="10.861137706088819"><ele>693.0</ele><time>2026-05-01T13:04:35.892Z</time></trkpt><trkpt lat="44.038939905439705" lon="10.860993306340587"><ele>693.0</ele><time>2026-05-01T13:04:36.892Z</time></trkpt><trkpt lat="44.0389656900741" lon="10.860857343578294"><ele>693.0</ele><time>2026-05-01T13:04:37.892Z</time></trkpt><trkpt lat="44.03893275311106" lon="10.860690353599574"><ele>693.0</ele><time>2026-05-01T13:04:38.892Z</time></trkpt><trkpt lat="44.03887287018297" lon="10.86051433601527"><ele>693.0</ele><time>2026-05-01T13:04:39.892Z</time></trkpt><trkpt lat="44.03881641892168" lon="10.860324853203704"><ele>693.0</ele><time>2026-05-01T13:04:40.892Z</time></trkpt><trkpt lat="44.038792254496684" lon="10.860127157249345"><ele>693.0</ele><time>2026-05-01T13:04:41.892Z</time></trkpt><trkpt lat="44.03878901232579" lon="10.859901308006494"><ele>695.3333333333334</ele><time>2026-05-01T13:04:42.892Z</time></trkpt><trkpt lat="44.038801070152765" lon="10.859676296545462"><ele>697.6666666666667</ele><time>2026-05-01T13:04:43.892Z</time></trkpt><trkpt lat="44.03879377613692" lon="10.859436999042682"><ele>700.0</ele><time>2026-05-01T13:04:44.892Z</time></trkpt><trkpt lat="44.03877501425875" lon="10.859205798916273"><ele>703.0</ele><time>2026-05-01T13:04:45.892Z</time></trkpt><trkpt lat="44.038731543554704" lon="10.85897776761838"><ele>706.0</ele><time>2026-05-01T13:04:46.892Z</time></trkpt><trkpt lat="44.03867919377056" lon="10.85874200900588"><ele>709.0</ele><time>2026-05-01T13:04:47.893Z</time></trkpt><trkpt lat="44.03862544760389" lon="10.858498378300782"><ele>708.6666666666667</ele><time>2026-05-01T13:04:48.893Z</time></trkpt><trkpt lat="44.03857432787056" lon="10.858251217468553"><ele>708.3333333333334</ele><time>2026-05-01T13:04:49.892Z</time></trkpt><trkpt lat="44.0385291407976" lon="10.85800907428297"><ele>708.0</ele><time>2026-05-01T13:04:50.892Z</time></trkpt><trkpt lat="44.03848341794765" lon="10.857773229571846"><ele>706.75</ele><time>2026-05-01T13:04:51.892Z</time></trkpt><trkpt lat="44.0384421853602" lon="10.85757945497213"><ele>705.5</ele><time>2026-05-01T13:04:52.892Z</time></trkpt><trkpt lat="44.03839683886821" lon="10.857413711970665"><ele>704.25</ele><time>2026-05-01T13:04:53.892Z</time></trkpt><trkpt lat="44.03833433003911" lon="10.857278032879165"><ele>703.0</ele><time>2026-05-01T13:04:54.892Z</time></trkpt><trkpt lat="44.038242424337916" lon="10.857185888233936"><ele>706.0</ele><time>2026-05-01T13:04:55.893Z</time></trkpt><trkpt lat="44.038132942919155" lon="10.857122143895767"><ele>709.0</ele><time>2026-05-01T13:04:56.893Z</time></trkpt><trkpt lat="44.03802630077904" lon="10.857024926341712"><ele>712.0</ele><time>2026-05-01T13:04:57.893Z</time></trkpt><trkpt lat="44.037935507717336" lon="10.856941697559035"><ele>715.0</ele><time>2026-05-01T13:04:58.893Z</time></trkpt><trkpt lat="44.03788104019146" lon="10.856773433562196"><ele>715.0</ele><time>2026-05-01T13:04:59.893Z</time></trkpt><trkpt lat="44.03787686664495" lon="10.856563603930253"><ele>715.0</ele><time>2026-05-01T13:05:00.893Z</time></trkpt><trkpt lat="44.03784954877971" lon="10.856324111841797"><ele>715.0</ele><time>2026-05-01T13:05:01.893Z</time></trkpt><trkpt lat="44.03784062184941" lon="10.856083899596644"><ele>715.0</ele><time>2026-05-01T13:05:02.893Z</time></trkpt><trkpt lat="44.03782997731951" lon="10.855844389528444"><ele>715.0</ele><time>2026-05-01T13:05:03.892Z</time></trkpt><trkpt lat="44.037815923268546" lon="10.855594876788935"><ele>715.0</ele><time>2026-05-01T13:05:04.892Z</time></trkpt><trkpt lat="44.037800343835634" lon="10.855352742833523"><ele>715.0</ele><time>2026-05-01T13:05:05.892Z</time></trkpt><trkpt lat="44.03778491038955" lon="10.855135955613346"><ele>715.0</ele><time>2026-05-01T13:05:06.892Z</time></trkpt><trkpt lat="44.037760035804126" lon="10.854937732454035"><ele>715.0</ele><time>2026-05-01T13:05:07.892Z</time></trkpt><trkpt lat="44.03770392507834" lon="10.854745965101852"><ele>714.3333333333334</ele><time>2026-05-01T13:05:08.892Z</time></trkpt><trkpt lat="44.03761945744868" lon="10.854557151142101"><ele>713.6666666666666</ele><time>2026-05-01T13:05:09.892Z</time></trkpt><trkpt lat="44.037524056374494" lon="10.854391719140999"><ele>713.0</ele><time>2026-05-01T13:05:10.892Z</time></trkpt><trkpt lat="44.037438137829994" lon="10.854221075163682"><ele>714.25</ele><time>2026-05-01T13:05:11.892Z</time></trkpt><trkpt lat="44.037375794720326" lon="10.85404742305868"><ele>715.5</ele><time>2026-05-01T13:05:12.892Z</time></trkpt><trkpt lat="44.037354277963814" lon="10.853867762398014"><ele>716.75</ele><time>2026-05-01T13:05:13.892Z</time></trkpt><trkpt lat="44.03740031106574" lon="10.853688428441412"><ele>718.0</ele><time>2026-05-01T13:05:14.892Z</time></trkpt><trkpt lat="44.03744733727922" lon="10.853509365976036"><ele>715.5</ele><time>2026-05-01T13:05:15.892Z</time></trkpt><trkpt lat="44.037530836175286" lon="10.853379285478225"><ele>713.0</ele><time>2026-05-01T13:05:16.892Z</time></trkpt><trkpt lat="44.03764694588457" lon="10.853312731630625"><ele>710.5</ele><time>2026-05-01T13:05:17.892Z</time></trkpt><trkpt lat="44.03774766710564" lon="10.853193478370546"><ele>708.0</ele><time>2026-05-01T13:05:18.892Z</time></trkpt><trkpt lat="44.03781710519004" lon="10.85305874649956"><ele>708.0</ele><time>2026-05-01T13:05:19.892Z</time></trkpt><trkpt lat="44.037947158973324" lon="10.852984564143828"><ele>708.0</ele><time>2026-05-01T13:05:20.892Z</time></trkpt><trkpt lat="44.037844241083526" lon="10.85272506821247"><ele>708.0</ele><time>2026-05-01T13:05:21.892Z</time></trkpt><trkpt lat="44.0378067976681" lon="10.852542907872373"><ele>709.3333333333334</ele><time>2026-05-01T13:05:22.892Z</time></trkpt><trkpt lat="44.037762508672756" lon="10.852341740839822"><ele>710.6666666666667</ele><time>2026-05-01T13:05:23.892Z</time></trkpt><trkpt lat="44.03771647490287" lon="10.852121835719096"><ele>712.0</ele><time>2026-05-01T13:05:24.892Z</time></trkpt><trkpt lat="44.03766869118979" lon="10.851896330948511"><ele>712.0</ele><time>2026-05-01T13:05:25.892Z</time></trkpt><trkpt lat="44.03762960396746" lon="10.85169065999598"><ele>712.0</ele><time>2026-05-01T13:05:26.892Z</time></trkpt><trkpt lat="44.0375935154812" lon="10.851503473527456"><ele>712.0</ele><time>2026-05-01T13:05:27.892Z</time></trkpt><trkpt lat="44.037577092461056" lon="10.851335352754877"><ele>712.0</ele><time>2026-05-01T13:05:28.892Z</time></trkpt><trkpt lat="44.037578879972806" lon="10.851163445788885"><ele>712.0</ele><time>2026-05-01T13:05:29.892Z</time></trkpt><trkpt lat="44.03764527632673" lon="10.850999225560644"><ele>712.0</ele><time>2026-05-01T13:05:30.892Z</time></trkpt><trkpt lat="44.037694712030856" lon="10.850806882132774"><ele>712.0</ele><time>2026-05-01T13:05:31.892Z</time></trkpt><trkpt lat="44.03775297504886" lon="10.850611221929046"><ele>712.0</ele><time>2026-05-01T13:05:32.892Z</time></trkpt><trkpt lat="44.037805371590274" lon="10.85039711529065"><ele>712.3333333333334</ele><time>2026-05-01T13:05:33.892Z</time></trkpt><trkpt lat="44.03786386418363" lon="10.850178804000898"><ele>712.6666666666666</ele><time>2026-05-01T13:05:34.892Z</time></trkpt><trkpt lat="44.03792628749896" lon="10.849971314662834"><ele>713.0</ele><time>2026-05-01T13:05:35.892Z</time></trkpt><trkpt lat="44.03801064851341" lon="10.849773918723676"><ele>713.0</ele><time>2026-05-01T13:05:36.892Z</time></trkpt><trkpt lat="44.03810987053616" lon="10.849570103103686"><ele>713.0</ele><time>2026-05-01T13:05:37.892Z</time></trkpt><trkpt lat="44.038222271256" lon="10.84936021533896"><ele>713.0</ele><time>2026-05-01T13:05:38.892Z</time></trkpt><trkpt lat="44.0383378513623" lon="10.849143449591223"><ele>715.0</ele><time>2026-05-01T13:05:39.892Z</time></trkpt><trkpt lat="44.038454754561236" lon="10.848906081396642"><ele>717.0</ele><time>2026-05-01T13:05:40.892Z</time></trkpt><trkpt lat="44.038573183953766" lon="10.848677509255326"><ele>719.0</ele><time>2026-05-01T13:05:41.892Z</time></trkpt><trkpt lat="44.038689411625306" lon="10.848457347557611"><ele>719.0</ele><time>2026-05-01T13:05:42.892Z</time></trkpt><trkpt lat="44.038793189919836" lon="10.84824536407577"><ele>719.0</ele><time>2026-05-01T13:05:43.892Z</time></trkpt><trkpt lat="44.03888574885668" lon="10.848050106265937"><ele>719.0</ele><time>2026-05-01T13:05:44.892Z</time></trkpt><trkpt lat="44.038983775944615" lon="10.847874542391082"><ele>719.0</ele><time>2026-05-01T13:05:45.892Z</time></trkpt><trkpt lat="44.0390924436656" lon="10.847723042028827"><ele>719.0</ele><time>2026-05-01T13:05:46.891Z</time></trkpt><trkpt lat="44.03921688016481" lon="10.84758886009539"><ele>719.0</ele><time>2026-05-01T13:05:47.891Z</time></trkpt><trkpt lat="44.03935318764418" lon="10.847461115626533"><ele>722.0</ele><time>2026-05-01T13:05:48.89Z</time></trkpt><trkpt lat="44.0394917024345" lon="10.847333875127605"><ele>725.0</ele><time>2026-05-01T13:05:49.889Z</time></trkpt><trkpt lat="44.03961985776218" lon="10.847210592345851"><ele>728.0</ele><time>2026-05-01T13:05:50.889Z</time></trkpt><trkpt lat="44.03973304718353" lon="10.847110708498326"><ele>728.0</ele><time>2026-05-01T13:05:51.888Z</time></trkpt><trkpt lat="44.03984096839952" lon="10.847063543384353"><ele>728.0</ele><time>2026-05-01T13:05:52.888Z</time></trkpt><trkpt lat="44.039963157595494" lon="10.847050109484197"><ele>728.0</ele><time>2026-05-01T13:05:53.887Z</time></trkpt><trkpt lat="44.04009394544647" lon="10.847067181790326"><ele>728.0</ele><time>2026-05-01T13:05:54.887Z</time></trkpt><trkpt lat="44.04020893629397" lon="10.847070931449192"><ele>729.4</ele><time>2026-05-01T13:05:55.886Z</time></trkpt><trkpt lat="44.04030248703843" lon="10.847033280967198"><ele>730.8</ele><time>2026-05-01T13:05:56.886Z</time></trkpt><trkpt lat="44.0403576222464" lon="10.846936044594074"><ele>732.2</ele><time>2026-05-01T13:05:57.886Z</time></trkpt><trkpt lat="44.040388234239074" lon="10.846804258147362"><ele>733.6</ele><time>2026-05-01T13:05:58.885Z</time></trkpt><trkpt lat="44.04041465287414" lon="10.846668420100448"><ele>735.0</ele><time>2026-05-01T13:05:59.885Z</time></trkpt><trkpt lat="44.04045339562945" lon="10.84654805586022"><ele>735.0</ele><time>2026-05-01T13:06:00.885Z</time></trkpt><trkpt lat="44.04052264944623" lon="10.846457780428079"><ele>735.0</ele><time>2026-05-01T13:06:01.884Z</time></trkpt><trkpt lat="44.0406312866169" lon="10.846418601989955"><ele>735.0</ele><time>2026-05-01T13:06:02.884Z</time></trkpt><trkpt lat="44.04075390033557" lon="10.846446177118256"><ele>735.0</ele><time>2026-05-01T13:06:03.884Z</time></trkpt><trkpt lat="44.0408749943263" lon="10.8464479271027"><ele>736.6</ele><time>2026-05-01T13:06:04.884Z</time></trkpt><trkpt lat="44.04096797404792" lon="10.846441735001262"><ele>738.2</ele><time>2026-05-01T13:06:05.883Z</time></trkpt><trkpt lat="44.04104034096689" lon="10.846358003224081"><ele>739.8</ele><time>2026-05-01T13:06:06.883Z</time></trkpt><trkpt lat="44.041087854820844" lon="10.846207108086443"><ele>741.4</ele><time>2026-05-01T13:06:07.883Z</time></trkpt><trkpt lat="44.04113556833575" lon="10.846034363442788"><ele>743.0</ele><time>2026-05-01T13:06:08.883Z</time></trkpt><trkpt lat="44.04120834844812" lon="10.845854398837476"><ele>743.0</ele><time>2026-05-01T13:06:09.883Z</time></trkpt><trkpt lat="44.041306775453684" lon="10.845681583357198"><ele>743.0</ele><time>2026-05-01T13:06:10.883Z</time></trkpt><trkpt lat="44.0414266727733" lon="10.845554666414355"><ele>743.0</ele><time>2026-05-01T13:06:11.882Z</time></trkpt><trkpt lat="44.041556008406204" lon="10.845425438944904"><ele>747.3333333333333</ele><time>2026-05-01T13:06:12.882Z</time></trkpt><trkpt lat="44.041685122872906" lon="10.845299982537066"><ele>751.6666666666666</ele><time>2026-05-01T13:06:13.882Z</time></trkpt><trkpt lat="44.04180466941531" lon="10.84514414993664"><ele>756.0</ele><time>2026-05-01T13:06:14.882Z</time></trkpt><trkpt lat="44.041896037036544" lon="10.84494109688058"><ele>756.0</ele><time>2026-05-01T13:06:15.882Z</time></trkpt><trkpt lat="44.041967340631615" lon="10.84472729226757"><ele>756.0</ele><time>2026-05-01T13:06:16.882Z</time></trkpt><trkpt lat="44.04203772293328" lon="10.844550489916339"><ele>756.0</ele><time>2026-05-01T13:06:17.882Z</time></trkpt><trkpt lat="44.04210759002834" lon="10.844398688091166"><ele>756.0</ele><time>2026-05-01T13:06:18.882Z</time></trkpt><trkpt lat="44.042193884420996" lon="10.844274032293008"><ele>755.25</ele><time>2026-05-01T13:06:19.882Z</time></trkpt><trkpt lat="44.042310639953016" lon="10.844174555642633"><ele>754.5</ele><time>2026-05-01T13:06:20.881Z</time></trkpt><trkpt lat="44.04244458964021" lon="10.84408881526031"><ele>753.75</ele><time>2026-05-01T13:06:21.881Z</time></trkpt><trkpt lat="44.04258459859074" lon="10.844002206396908"><ele>753.0</ele><time>2026-05-01T13:06:22.881Z</time></trkpt><trkpt lat="44.04272425935355" lon="10.843906519742859"><ele>757.3333333333334</ele><time>2026-05-01T13:06:23.881Z</time></trkpt><trkpt lat="44.04286244663859" lon="10.843803592714515"><ele>761.6666666666667</ele><time>2026-05-01T13:06:24.881Z</time></trkpt><trkpt lat="44.04300132957801" lon="10.843688393207335"><ele>766.0</ele><time>2026-05-01T13:06:25.881Z</time></trkpt><trkpt lat="44.04314409484494" lon="10.843566177054901"><ele>764.0</ele><time>2026-05-01T13:06:26.881Z</time></trkpt><trkpt lat="44.043287058479805" lon="10.843446442151496"><ele>762.0</ele><time>2026-05-01T13:06:27.881Z</time></trkpt><trkpt lat="44.0434432212941" lon="10.84337618089135"><ele>760.0</ele><time>2026-05-01T13:06:28.881Z</time></trkpt><trkpt lat="44.04358935228752" lon="10.84328769523718"><ele>763.4</ele><time>2026-05-01T13:06:29.881Z</time></trkpt><trkpt lat="44.043728479248806" lon="10.843247205951357"><ele>766.8</ele><time>2026-05-01T13:06:30.881Z</time></trkpt><trkpt lat="44.04384162606812" lon="10.843198065414864"><ele>770.2</ele><time>2026-05-01T13:06:31.881Z</time></trkpt><trkpt lat="44.04391201872052" lon="10.84312277682438"><ele>773.6</ele><time>2026-05-01T13:06:32.881Z</time></trkpt><trkpt lat="44.04393299743599" lon="10.843017448363577"><ele>777.0</ele><time>2026-05-01T13:06:33.881Z</time></trkpt><trkpt lat="44.04388335299539" lon="10.842896216478662"><ele>777.0</ele><time>2026-05-01T13:06:34.881Z</time></trkpt><trkpt lat="44.04381773802494" lon="10.842815089726173"><ele>777.0</ele><time>2026-05-01T13:06:35.881Z</time></trkpt><trkpt lat="44.04372101950858" lon="10.842761811840912"><ele>777.0</ele><time>2026-05-01T13:06:36.881Z</time></trkpt><trkpt lat="44.04358410383832" lon="10.84271919649832"><ele>777.0</ele><time>2026-05-01T13:06:37.88Z</time></trkpt><trkpt lat="44.04344945426953" lon="10.842647110757351"><ele>777.6666666666667</ele><time>2026-05-01T13:06:38.88Z</time></trkpt><trkpt lat="44.043317851063804" lon="10.842542612651878"><ele>778.3333333333334</ele><time>2026-05-01T13:06:39.88Z</time></trkpt><trkpt lat="44.04319446966291" lon="10.842399233193442"><ele>779.0</ele><time>2026-05-01T13:06:40.88Z</time></trkpt><trkpt lat="44.04311578667517" lon="10.84219602740672"><ele>779.75</ele><time>2026-05-01T13:06:41.88Z</time></trkpt><trkpt lat="44.04301929335898" lon="10.842003780269511"><ele>780.5</ele><time>2026-05-01T13:06:42.88Z</time></trkpt><trkpt lat="44.042952879489555" lon="10.84182371380914"><ele>781.25</ele><time>2026-05-01T13:06:43.88Z</time></trkpt><trkpt lat="44.04289359765078" lon="10.841670201160918"><ele>782.0</ele><time>2026-05-01T13:06:44.88Z</time></trkpt><trkpt lat="44.042857226386566" lon="10.841529724959425"><ele>782.0</ele><time>2026-05-01T13:06:45.88Z</time></trkpt><trkpt lat="44.04285716362786" lon="10.841374527001003"><ele>782.0</ele><time>2026-05-01T13:06:46.88Z</time></trkpt><trkpt lat="44.0428884163461" lon="10.841204743332819"><ele>782.0</ele><time>2026-05-01T13:06:47.88Z</time></trkpt><trkpt lat="44.042913202290194" lon="10.841013258998126"><ele>782.0</ele><time>2026-05-01T13:06:48.88Z</time></trkpt><trkpt lat="44.04294174047532" lon="10.840809254484576"><ele>782.25</ele><time>2026-05-01T13:06:49.881Z</time></trkpt><trkpt lat="44.04300962755092" lon="10.840610975889541"><ele>782.5</ele><time>2026-05-01T13:06:50.88Z</time></trkpt><trkpt lat="44.04308055279758" lon="10.84044070238063"><ele>782.75</ele><time>2026-05-01T13:06:51.88Z</time></trkpt><trkpt lat="44.04312085028222" lon="10.840261125172795"><ele>783.0</ele><time>2026-05-01T13:06:52.88Z</time></trkpt><trkpt lat="44.04313390409152" lon="10.840048136379055"><ele>784.5</ele><time>2026-05-01T13:06:53.88Z</time></trkpt><trkpt lat="44.043119898367905" lon="10.839854386954158"><ele>786.0</ele><time>2026-05-01T13:06:54.88Z</time></trkpt><trkpt lat="44.04308807830737" lon="10.839687728034104"><ele>787.5</ele><time>2026-05-01T13:06:55.88Z</time></trkpt><trkpt lat="44.0430339182204" lon="10.839559591500667"><ele>789.0</ele><time>2026-05-01T13:06:56.88Z</time></trkpt><trkpt lat="44.04295212725036" lon="10.839406365906438"><ele>789.0</ele><time>2026-05-01T13:06:57.88Z</time></trkpt><trkpt lat="44.042821851417926" lon="10.839336327988379"><ele>789.0</ele><time>2026-05-01T13:06:58.88Z</time></trkpt><trkpt lat="44.04269599764485" lon="10.839295966004636"><ele>789.0</ele><time>2026-05-01T13:06:59.88Z</time></trkpt><trkpt lat="44.04255306632754" lon="10.83927271649613"><ele>789.0</ele><time>2026-05-01T13:07:00.88Z</time></trkpt><trkpt lat="44.042404714391736" lon="10.839244922790279"><ele>789.6</ele><time>2026-05-01T13:07:01.88Z</time></trkpt><trkpt lat="44.04226522523447" lon="10.83925361458513"><ele>790.2</ele><time>2026-05-01T13:07:03.88Z</time></trkpt><trkpt lat="44.04220272610242" lon="10.839160623602016"><ele>790.8000000000001</ele><time>2026-05-01T13:07:04.88Z</time></trkpt><trkpt lat="44.04218492487367" lon="10.839027475110472"><ele>791.4000000000001</ele><time>2026-05-01T13:07:05.88Z</time></trkpt><trkpt lat="44.04220640401991" lon="10.838886846137864"><ele>792.0</ele><time>2026-05-01T13:07:06.88Z</time></trkpt><trkpt lat="44.04227014913239" lon="10.838756720288368"><ele>792.0</ele><time>2026-05-01T13:07:07.88Z</time></trkpt><trkpt lat="44.04238545205776" lon="10.838648506642054"><ele>792.0</ele><time>2026-05-01T13:07:08.88Z</time></trkpt><trkpt lat="44.04248910784693" lon="10.838492568171992"><ele>792.0</ele><time>2026-05-01T13:07:09.88Z</time></trkpt><trkpt lat="44.042560143746584" lon="10.838305689052119"><ele>792.0</ele><time>2026-05-01T13:07:10.88Z</time></trkpt><trkpt lat="44.04259866192172" lon="10.838117967432062"><ele>796.75</ele><time>2026-05-01T13:07:11.88Z</time></trkpt><trkpt lat="44.04259825267601" lon="10.837915033746096"><ele>801.5</ele><time>2026-05-01T13:07:12.88Z</time></trkpt><trkpt lat="44.042583320613375" lon="10.837711346443308"><ele>806.25</ele><time>2026-05-01T13:07:13.88Z</time></trkpt><trkpt lat="44.04257016714722" lon="10.837514326466858"><ele>811.0</ele><time>2026-05-01T13:07:14.88Z</time></trkpt><trkpt lat="44.04256967269763" lon="10.837340557872508"><ele>813.0</ele><time>2026-05-01T13:07:15.88Z</time></trkpt><trkpt lat="44.04258271600201" lon="10.837173161310965"><ele>815.0</ele><time>2026-05-01T13:07:16.88Z</time></trkpt><trkpt lat="44.04260409828135" lon="10.837003609290857"><ele>817.0</ele><time>2026-05-01T13:07:17.88Z</time></trkpt><trkpt lat="44.042657122815996" lon="10.836843147473127"><ele>819.0</ele><time>2026-05-01T13:07:18.88Z</time></trkpt><trkpt lat="44.04271894245355" lon="10.836686640511148"><ele>820.25</ele><time>2026-05-01T13:07:19.88Z</time></trkpt><trkpt lat="44.04281401422341" lon="10.836567590910624"><ele>821.5</ele><time>2026-05-01T13:07:20.88Z</time></trkpt><trkpt lat="44.042887968369655" lon="10.836437387499721"><ele>822.75</ele><time>2026-05-01T13:07:21.88Z</time></trkpt><trkpt lat="44.04294804001994" lon="10.836300013919706"><ele>824.0</ele><time>2026-05-01T13:07:22.88Z</time></trkpt><trkpt lat="44.04299209344561" lon="10.836148859894141"><ele>824.75</ele><time>2026-05-01T13:07:23.88Z</time></trkpt><trkpt lat="44.04300943778559" lon="10.835962627241864"><ele>825.5</ele><time>2026-05-01T13:07:24.88Z</time></trkpt><trkpt lat="44.042999076483675" lon="10.835751721579799"><ele>826.25</ele><time>2026-05-01T13:07:25.88Z</time></trkpt><trkpt lat="44.04297599472738" lon="10.835533425293503"><ele>827.0</ele><time>2026-05-01T13:07:26.88Z</time></trkpt><trkpt lat="44.042948879860006" lon="10.835324529852269"><ele>825.25</ele><time>2026-05-01T13:07:27.88Z</time></trkpt><trkpt lat="44.042925257692104" lon="10.835120806805849"><ele>823.5</ele><time>2026-05-01T13:07:28.88Z</time></trkpt><trkpt lat="44.04289517062363" lon="10.834927211349333"><ele>821.75</ele><time>2026-05-01T13:07:29.88Z</time></trkpt><trkpt lat="44.04286830274702" lon="10.834750449486403"><ele>820.0</ele><time>2026-05-01T13:07:30.88Z</time></trkpt><trkpt lat="44.042844412358455" lon="10.834579135448138"><ele>820.0</ele><time>2026-05-01T13:07:31.88Z</time></trkpt><trkpt lat="44.04286796905078" lon="10.834412222055626"><ele>820.0</ele><time>2026-05-01T13:07:32.88Z</time></trkpt><trkpt lat="44.04291446159743" lon="10.834246101582588"><ele>820.0</ele><time>2026-05-01T13:07:33.88Z</time></trkpt><trkpt lat="44.04296694100286" lon="10.834063034538282"><ele>820.0</ele><time>2026-05-01T13:07:34.88Z</time></trkpt><trkpt lat="44.04301045983941" lon="10.833872607375088"><ele>817.5</ele><time>2026-05-01T13:07:35.88Z</time></trkpt><trkpt lat="44.04305254475189" lon="10.833700935284918"><ele>815.0</ele><time>2026-05-01T13:07:36.88Z</time></trkpt><trkpt lat="44.0430811385433" lon="10.833527142680893"><ele>812.5</ele><time>2026-05-01T13:07:37.88Z</time></trkpt><trkpt lat="44.043094602287" lon="10.833369540092995"><ele>810.0</ele><time>2026-05-01T13:07:38.88Z</time></trkpt><trkpt lat="44.043093271091614" lon="10.833203858096233"><ele>809.0</ele><time>2026-05-01T13:07:39.88Z</time></trkpt><trkpt lat="44.043069195446" lon="10.83301772390019"><ele>808.0</ele><time>2026-05-01T13:07:40.88Z</time></trkpt><trkpt lat="44.043033043846634" lon="10.832829669451758"><ele>807.0</ele><time>2026-05-01T13:07:41.88Z</time></trkpt><trkpt lat="44.042997312948444" lon="10.832637791550573"><ele>806.0</ele><time>2026-05-01T13:07:42.88Z</time></trkpt><trkpt lat="44.04296948981653" lon="10.832425657931328"><ele>804.75</ele><time>2026-05-01T13:07:43.88Z</time></trkpt><trkpt lat="44.042944368019946" lon="10.832213615827749"><ele>803.5</ele><time>2026-05-01T13:07:44.88Z</time></trkpt><trkpt lat="44.04291639057954" lon="10.832008891756066"><ele>802.25</ele><time>2026-05-01T13:07:45.88Z</time></trkpt><trkpt lat="44.04288704128428" lon="10.831823283362047"><ele>801.0</ele><time>2026-05-01T13:07:46.88Z</time></trkpt><trkpt lat="44.042854665993346" lon="10.831672590452863"><ele>800.1999999999999</ele><time>2026-05-01T13:07:47.88Z</time></trkpt><trkpt lat="44.04280311045203" lon="10.831566019768626"><ele>799.4</ele><time>2026-05-01T13:07:48.88Z</time></trkpt><trkpt lat="44.0427255340622" lon="10.83148495436537"><ele>798.6</ele><time>2026-05-01T13:07:49.88Z</time></trkpt><trkpt lat="44.04262911090617" lon="10.83141877886777"><ele>797.8</ele><time>2026-05-01T13:07:50.88Z</time></trkpt><trkpt lat="44.04251839519099" lon="10.831353094714231"><ele>797.0</ele><time>2026-05-01T13:07:51.88Z</time></trkpt><trkpt lat="44.042403102218856" lon="10.831301912123916"><ele>797.0</ele><time>2026-05-01T13:07:52.88Z</time></trkpt><trkpt lat="44.04228251073955" lon="10.83127290040955"><ele>797.0</ele><time>2026-05-01T13:07:53.88Z</time></trkpt><trkpt lat="44.04217426423979" lon="10.831258934698331"><ele>797.0</ele><time>2026-05-01T13:07:54.88Z</time></trkpt><trkpt lat="44.04208567835769" lon="10.831220160652295"><ele>797.0</ele><time>2026-05-01T13:07:55.88Z</time></trkpt><trkpt lat="44.04202105276619" lon="10.831127056346556"><ele>797.0</ele><time>2026-05-01T13:07:56.88Z</time></trkpt><trkpt lat="44.0419787147145" lon="10.830989884860475"><ele>796.5</ele><time>2026-05-01T13:07:57.88Z</time></trkpt><trkpt lat="44.04196205238789" lon="10.830821718223058"><ele>796.0</ele><time>2026-05-01T13:07:58.88Z</time></trkpt><trkpt lat="44.04195976221844" lon="10.830638793375053"><ele>795.5</ele><time>2026-05-01T13:07:59.88Z</time></trkpt><trkpt lat="44.04197487379106" lon="10.83045569311863"><ele>795.0</ele><time>2026-05-01T13:08:00.88Z</time></trkpt><trkpt lat="44.042026948829864" lon="10.830255755496465"><ele>796.6666666666667</ele><time>2026-05-01T13:08:01.88Z</time></trkpt><trkpt lat="44.04209603068023" lon="10.830048653407392"><ele>798.3333333333334</ele><time>2026-05-01T13:08:02.88Z</time></trkpt><trkpt lat="44.04214837406534" lon="10.829840591735485"><ele>800.0</ele><time>2026-05-01T13:08:03.88Z</time></trkpt><trkpt lat="44.042180409579174" lon="10.82963469275665"><ele>800.0</ele><time>2026-05-01T13:08:04.88Z</time></trkpt><trkpt lat="44.04217489733673" lon="10.829399253788191"><ele>800.0</ele><time>2026-05-01T13:08:05.88Z</time></trkpt><trkpt lat="44.042158626412956" lon="10.829107006117418"><ele>800.0</ele><time>2026-05-01T13:08:06.88Z</time></trkpt><trkpt lat="44.04208359883371" lon="10.828775462880296"><ele>796.6666666666667</ele><time>2026-05-01T13:08:07.88Z</time></trkpt><trkpt lat="44.04203015494817" lon="10.828483834142077"><ele>793.3333333333333</ele><time>2026-05-01T13:08:08.88Z</time></trkpt><trkpt lat="44.04200466855781" lon="10.828200610848198"><ele>790.0</ele><time>2026-05-01T13:08:09.88Z</time></trkpt><trkpt lat="44.042023704613" lon="10.827928370619695"><ele>788.3333333333333</ele><time>2026-05-01T13:08:10.88Z</time></trkpt><trkpt lat="44.0420793628635" lon="10.82767696589393"><ele>786.6666666666667</ele><time>2026-05-01T13:08:11.88Z</time></trkpt><trkpt lat="44.04215616985072" lon="10.827456973958874"><ele>785.0</ele><time>2026-05-01T13:08:12.88Z</time></trkpt><trkpt lat="44.04225217119471" lon="10.827263315255768"><ele>785.0</ele><time>2026-05-01T13:08:13.879Z</time></trkpt><trkpt lat="44.042365461596276" lon="10.827086648346189"><ele>785.0</ele><time>2026-05-01T13:08:14.879Z</time></trkpt><trkpt lat="44.04248650750026" lon="10.826900920656698"><ele>785.0</ele><time>2026-05-01T13:08:15.879Z</time></trkpt><trkpt lat="44.042613909617515" lon="10.826696251530594"><ele>776.3333333333334</ele><time>2026-05-01T13:08:16.879Z</time></trkpt><trkpt lat="44.04273567693146" lon="10.826492006891568"><ele>767.6666666666667</ele><time>2026-05-01T13:08:17.879Z</time></trkpt><trkpt lat="44.042858951579674" lon="10.82629203283076"><ele>759.0</ele><time>2026-05-01T13:08:18.879Z</time></trkpt><trkpt lat="44.04298721650106" lon="10.826105749347692"><ele>760.0</ele><time>2026-05-01T13:08:19.879Z</time></trkpt><trkpt lat="44.04311927192956" lon="10.825934745975633"><ele>761.0</ele><time>2026-05-01T13:08:20.879Z</time></trkpt><trkpt lat="44.0432545767962" lon="10.82577119317527"><ele>762.0</ele><time>2026-05-01T13:08:21.879Z</time></trkpt><trkpt lat="44.04338134959664" lon="10.825621675412116"><ele>759.25</ele><time>2026-05-01T13:08:22.879Z</time></trkpt><trkpt lat="44.04348853103245" lon="10.825484940425566"><ele>756.5</ele><time>2026-05-01T13:08:23.879Z</time></trkpt><trkpt lat="44.04357286022759" lon="10.825363409129722"><ele>753.75</ele><time>2026-05-01T13:08:24.879Z</time></trkpt><trkpt lat="44.04362975961088" lon="10.825218418830072"><ele>751.0</ele><time>2026-05-01T13:08:25.879Z</time></trkpt><trkpt lat="44.04365700365013" lon="10.825051463694786"><ele>750.6666666666667</ele><time>2026-05-01T13:08:26.879Z</time></trkpt><trkpt lat="44.04365212704453" lon="10.824849600437666"><ele>750.3333333333334</ele><time>2026-05-01T13:08:27.879Z</time></trkpt><trkpt lat="44.043629182255" lon="10.824627637128229"><ele>750.0</ele><time>2026-05-01T13:08:28.879Z</time></trkpt><trkpt lat="44.04358769666852" lon="10.824412197370169"><ele>749.0</ele><time>2026-05-01T13:08:29.879Z</time></trkpt><trkpt lat="44.04354606785325" lon="10.824213350129165"><ele>748.0</ele><time>2026-05-01T13:08:30.879Z</time></trkpt><trkpt lat="44.04349626459085" lon="10.824038175728004"><ele>747.0</ele><time>2026-05-01T13:08:31.879Z</time></trkpt><trkpt lat="44.043469763999056" lon="10.823867303831351"><ele>746.0</ele><time>2026-05-01T13:08:32.879Z</time></trkpt><trkpt lat="44.04350407133814" lon="10.823687349021359"><ele>746.0</ele><time>2026-05-01T13:08:33.879Z</time></trkpt><trkpt lat="44.04352708723957" lon="10.823474624329261"><ele>746.0</ele><time>2026-05-01T13:08:34.879Z</time></trkpt><trkpt lat="44.04356353988403" lon="10.823253783225923"><ele>746.0</ele><time>2026-05-01T13:08:35.879Z</time></trkpt><trkpt lat="44.04361052934126" lon="10.823033035073076"><ele>746.0</ele><time>2026-05-01T13:08:36.879Z</time></trkpt><trkpt lat="44.043650963283696" lon="10.82281043436333"><ele>746.0</ele><time>2026-05-01T13:08:37.879Z</time></trkpt><trkpt lat="44.04369290962268" lon="10.822596406705864"><ele>746.0</ele><time>2026-05-01T13:08:38.879Z</time></trkpt><trkpt lat="44.04374127130354" lon="10.822397978408253"><ele>745.0</ele><time>2026-05-01T13:08:39.879Z</time></trkpt><trkpt lat="44.043793704120255" lon="10.822205366589662"><ele>744.0</ele><time>2026-05-01T13:08:40.879Z</time></trkpt><trkpt lat="44.04384435713082" lon="10.822021740709415"><ele>743.0</ele><time>2026-05-01T13:08:41.879Z</time></trkpt><trkpt lat="44.043890474341" lon="10.82184309746314"><ele>742.0</ele><time>2026-05-01T13:08:42.879Z</time></trkpt><trkpt lat="44.043936150654915" lon="10.821676999092581"><ele>741.25</ele><time>2026-05-01T13:08:43.879Z</time></trkpt><trkpt lat="44.04397864942161" lon="10.82152566397173"><ele>740.5</ele><time>2026-05-01T13:08:44.879Z</time></trkpt><trkpt lat="44.04400369446754" lon="10.821374806030475"><ele>739.75</ele><time>2026-05-01T13:08:45.879Z</time></trkpt><trkpt lat="44.04401161473187" lon="10.821223696030202"><ele>739.0</ele><time>2026-05-01T13:08:46.879Z</time></trkpt><trkpt lat="44.0439444942883" lon="10.82107676913918"><ele>737.75</ele><time>2026-05-01T13:08:47.879Z</time></trkpt><trkpt lat="44.04387502933047" lon="10.820924225461717"><ele>736.5</ele><time>2026-05-01T13:08:48.879Z</time></trkpt><trkpt lat="44.04380977696952" lon="10.820745165238556"><ele>735.25</ele><time>2026-05-01T13:08:49.879Z</time></trkpt><trkpt lat="44.043799086273815" lon="10.82055150969104"><ele>734.0</ele><time>2026-05-01T13:08:50.879Z</time></trkpt><trkpt lat="44.04380364781336" lon="10.82033460586256"><ele>732.0</ele><time>2026-05-01T13:08:51.879Z</time></trkpt><trkpt lat="44.043791719643416" lon="10.820118995500327"><ele>730.0</ele><time>2026-05-01T13:08:52.879Z</time></trkpt><trkpt lat="44.043792824260464" lon="10.819927720529094"><ele>728.0</ele><time>2026-05-01T13:08:53.879Z</time></trkpt><trkpt lat="44.04377102668513" lon="10.819756394677917"><ele>726.0</ele><time>2026-05-01T13:08:54.879Z</time></trkpt><trkpt lat="44.04373640356211" lon="10.819592368969294"><ele>726.0</ele><time>2026-05-01T13:08:55.879Z</time></trkpt><trkpt lat="44.04367705954753" lon="10.819439340952407"><ele>726.0</ele><time>2026-05-01T13:08:56.879Z</time></trkpt><trkpt lat="44.04363007780041" lon="10.819290981939714"><ele>726.0</ele><time>2026-05-01T13:08:57.879Z</time></trkpt><trkpt lat="44.043637847834184" lon="10.819125074482354"><ele>726.0</ele><time>2026-05-01T13:08:58.88Z</time></trkpt><trkpt lat="44.04367851145045" lon="10.818939633432315"><ele>724.3333333333334</ele><time>2026-05-01T13:08:59.88Z</time></trkpt><trkpt lat="44.04371058232039" lon="10.81875031591394"><ele>722.6666666666667</ele><time>2026-05-01T13:09:00.88Z</time></trkpt><trkpt lat="44.04376256374748" lon="10.81854518473617"><ele>721.0</ele><time>2026-05-01T13:09:01.88Z</time></trkpt><trkpt lat="44.04380598525932" lon="10.818308226188822"><ele>719.6666666666667</ele><time>2026-05-01T13:09:02.88Z</time></trkpt><trkpt lat="44.04386337313154" lon="10.818066991116652"><ele>718.3333333333334</ele><time>2026-05-01T13:09:03.88Z</time></trkpt><trkpt lat="44.04390642276833" lon="10.817834919534052"><ele>717.0</ele><time>2026-05-01T13:09:04.879Z</time></trkpt><trkpt lat="44.04395989934136" lon="10.817603169914065"><ele>716.3333333333334</ele><time>2026-05-01T13:09:05.879Z</time></trkpt><trkpt lat="44.04401050477038" lon="10.817368979620797"><ele>715.6666666666667</ele><time>2026-05-01T13:09:06.879Z</time></trkpt><trkpt lat="44.04405843765304" lon="10.817131590629172"><ele>715.0</ele><time>2026-05-01T13:09:07.88Z</time></trkpt><trkpt lat="44.04410047823203" lon="10.816891080631619"><ele>709.3333333333334</ele><time>2026-05-01T13:09:08.88Z</time></trkpt><trkpt lat="44.04414981786605" lon="10.816667087328597"><ele>703.6666666666666</ele><time>2026-05-01T13:09:09.88Z</time></trkpt><trkpt lat="44.044197289240316" lon="10.816444698272196"><ele>698.0</ele><time>2026-05-01T13:09:10.88Z</time></trkpt><trkpt lat="44.044243334143815" lon="10.816229171645004"><ele>698.0</ele><time>2026-05-01T13:09:11.88Z</time></trkpt><trkpt lat="44.044292626062315" lon="10.816023384670643"><ele>698.0</ele><time>2026-05-01T13:09:12.88Z</time></trkpt><trkpt lat="44.044357554524446" lon="10.815827228981739"><ele>698.0</ele><time>2026-05-01T13:09:13.88Z</time></trkpt><trkpt lat="44.04444581080312" lon="10.815651451371233"><ele>698.0</ele><time>2026-05-01T13:09:14.88Z</time></trkpt><trkpt lat="44.044562027118815" lon="10.81548029691389"><ele>698.0</ele><time>2026-05-01T13:09:15.88Z</time></trkpt><trkpt lat="44.044688267720936" lon="10.815298530882552"><ele>698.0</ele><time>2026-05-01T13:09:16.88Z</time></trkpt><trkpt lat="44.04481758493806" lon="10.815110929192901"><ele>698.0</ele><time>2026-05-01T13:09:17.88Z</time></trkpt><trkpt lat="44.044933534462515" lon="10.814912025410102"><ele>698.0</ele><time>2026-05-01T13:09:18.88Z</time></trkpt><trkpt lat="44.04504503208813" lon="10.814726503805497"><ele>698.0</ele><time>2026-05-01T13:09:19.88Z</time></trkpt><trkpt lat="44.045158372583145" lon="10.814540688460117"><ele>695.5</ele><time>2026-05-01T13:09:20.88Z</time></trkpt><trkpt lat="44.04526043142398" lon="10.814378695792632"><ele>693.0</ele><time>2026-05-01T13:09:21.88Z</time></trkpt><trkpt lat="44.04535310340224" lon="10.814235207575349"><ele>690.5</ele><time>2026-05-01T13:09:22.879Z</time></trkpt><trkpt lat="44.0454269391262" lon="10.814098159456933"><ele>688.0</ele><time>2026-05-01T13:09:23.879Z</time></trkpt><trkpt lat="44.04548700263468" lon="10.813968438279389"><ele>687.75</ele><time>2026-05-01T13:09:24.879Z</time></trkpt><trkpt lat="44.04551893115886" lon="10.813828554928985"><ele>687.5</ele><time>2026-05-01T13:09:25.879Z</time></trkpt><trkpt lat="44.04551336333508" lon="10.813663834798735"><ele>687.25</ele><time>2026-05-01T13:09:26.879Z</time></trkpt><trkpt lat="44.045453061429654" lon="10.81351165388879"><ele>687.0</ele><time>2026-05-01T13:09:27.879Z</time></trkpt><trkpt lat="44.04538799792519" lon="10.813385804354114"><ele>685.0</ele><time>2026-05-01T13:09:28.879Z</time></trkpt><trkpt lat="44.04528989334494" lon="10.813296606498582"><ele>683.0</ele><time>2026-05-01T13:09:29.879Z</time></trkpt><trkpt lat="44.045173039462725" lon="10.81323713102638"><ele>681.0</ele><time>2026-05-01T13:09:30.879Z</time></trkpt><trkpt lat="44.045047747413854" lon="10.813170528119757"><ele>679.0</ele><time>2026-05-01T13:09:31.879Z</time></trkpt><trkpt lat="44.04491652231241" lon="10.813101914216611"><ele>679.0</ele><time>2026-05-01T13:09:32.879Z</time></trkpt><trkpt lat="44.04478354192277" lon="10.813033160631864"><ele>679.0</ele><time>2026-05-01T13:09:33.879Z</time></trkpt><trkpt lat="44.04465128732364" lon="10.812961141664507"><ele>679.0</ele><time>2026-05-01T13:09:34.879Z</time></trkpt><trkpt lat="44.04452356806765" lon="10.812884472851973"><ele>679.0</ele><time>2026-05-01T13:09:35.879Z</time></trkpt><trkpt lat="44.044425903859675" lon="10.812783823328525"><ele>679.0</ele><time>2026-05-01T13:09:36.879Z</time></trkpt><trkpt lat="44.0443507218699" lon="10.812665687076757"><ele>679.0</ele><time>2026-05-01T13:09:37.879Z</time></trkpt><trkpt lat="44.044306732792705" lon="10.812525511441557"><ele>679.0</ele><time>2026-05-01T13:09:38.879Z</time></trkpt><trkpt lat="44.04429439073351" lon="10.812376955521577"><ele>679.0</ele><time>2026-05-01T13:09:39.879Z</time></trkpt><trkpt lat="44.04434068415768" lon="10.812205943724784"><ele>677.75</ele><time>2026-05-01T13:09:40.879Z</time></trkpt><trkpt lat="44.044381809926264" lon="10.812029106205062"><ele>676.5</ele><time>2026-05-01T13:09:41.879Z</time></trkpt><trkpt lat="44.044436079303544" lon="10.811881373593344"><ele>675.25</ele><time>2026-05-01T13:09:42.879Z</time></trkpt><trkpt lat="44.044492812151745" lon="10.81175055348431"><ele>674.0</ele><time>2026-05-01T13:09:43.879Z</time></trkpt><trkpt lat="44.04457802004547" lon="10.811692659533916"><ele>674.0</ele><time>2026-05-01T13:09:44.879Z</time></trkpt><trkpt lat="44.044638037937176" lon="10.81162929317832"><ele>674.0</ele><time>2026-05-01T13:09:45.879Z</time></trkpt><trkpt lat="44.044770608347584" lon="10.81155345140798"><ele>674.0</ele><time>2026-05-01T13:09:47.879Z</time></trkpt><trkpt lat="44.04485398192002" lon="10.811470959257354"><ele>674.0</ele><time>2026-05-01T13:09:48.879Z</time></trkpt><trkpt lat="44.044961539029565" lon="10.8113745215303"><ele>674.0</ele><time>2026-05-01T13:09:49.879Z</time></trkpt><trkpt lat="44.04507551512989" lon="10.811277623377972"><ele>671.0</ele><time>2026-05-01T13:09:50.879Z</time></trkpt><trkpt lat="44.04519863391588" lon="10.811172364726751"><ele>668.0</ele><time>2026-05-01T13:09:51.879Z</time></trkpt><trkpt lat="44.04533518119908" lon="10.811058719589365"><ele>665.0</ele><time>2026-05-01T13:09:52.879Z</time></trkpt><trkpt lat="44.04547750980125" lon="10.810935413804632"><ele>665.0</ele><time>2026-05-01T13:09:53.879Z</time></trkpt><trkpt lat="44.045625892431424" lon="10.810814820857878"><ele>665.0</ele><time>2026-05-01T13:09:54.879Z</time></trkpt><trkpt lat="44.04577150582246" lon="10.810709228236297"><ele>665.0</ele><time>2026-05-01T13:09:55.879Z</time></trkpt><trkpt lat="44.04592942722178" lon="10.810615024017892"><ele>660.6666666666666</ele><time>2026-05-01T13:09:56.879Z</time></trkpt><trkpt lat="44.04608719831513" lon="10.810521577265087"><ele>656.3333333333334</ele><time>2026-05-01T13:09:57.879Z</time></trkpt><trkpt lat="44.04622946194507" lon="10.810427995250683"><ele>652.0</ele><time>2026-05-01T13:09:58.879Z</time></trkpt><trkpt lat="44.04636480905327" lon="10.810333064801824"><ele>652.0</ele><time>2026-05-01T13:09:59.879Z</time></trkpt><trkpt lat="44.04649433973164" lon="10.810259155159786"><ele>652.0</ele><time>2026-05-01T13:10:00.879Z</time></trkpt><trkpt lat="44.04660661526129" lon="10.810182117123073"><ele>652.0</ele><time>2026-05-01T13:10:01.879Z</time></trkpt><trkpt lat="44.04671006865558" lon="10.810090473149852"><ele>652.0</ele><time>2026-05-01T13:10:02.879Z</time></trkpt><trkpt lat="44.04679672216558" lon="10.809971532155826"><ele>650.2</ele><time>2026-05-01T13:10:03.879Z</time></trkpt><trkpt lat="44.04685449962317" lon="10.809844013767838"><ele>648.4000000000001</ele><time>2026-05-01T13:10:04.879Z</time></trkpt><trkpt lat="44.0469091710691" lon="10.809714013250616"><ele>646.5999999999999</ele><time>2026-05-01T13:10:05.879Z</time></trkpt><trkpt lat="44.04695677574843" lon="10.809586104860157"><ele>644.8</ele><time>2026-05-01T13:10:06.879Z</time></trkpt><trkpt lat="44.046984967955666" lon="10.809460700942545"><ele>643.0</ele><time>2026-05-01T13:10:07.879Z</time></trkpt><trkpt lat="44.04698736169814" lon="10.809345575553586"><ele>642.5</ele><time>2026-05-01T13:10:08.879Z</time></trkpt><trkpt lat="44.04702649107467" lon="10.809251365941941"><ele>642.0</ele><time>2026-05-01T13:10:09.879Z</time></trkpt><trkpt lat="44.04698256222815" lon="10.809140362112668"><ele>641.5</ele><time>2026-05-01T13:10:10.879Z</time></trkpt><trkpt lat="44.04693237053236" lon="10.809024042979122"><ele>641.0</ele><time>2026-05-01T13:10:11.879Z</time></trkpt><trkpt lat="44.04689094712004" lon="10.808905350049434"><ele>640.5</ele><time>2026-05-01T13:10:12.879Z</time></trkpt><trkpt lat="44.046864495657864" lon="10.808803929752749"><ele>640.0</ele><time>2026-05-01T13:10:13.879Z</time></trkpt><trkpt lat="44.04684372781967" lon="10.808715435089798"><ele>640.0</ele><time>2026-05-01T13:10:14.879Z</time></trkpt><trkpt lat="44.04687335281326" lon="10.80861314347186"><ele>640.0</ele><time>2026-05-01T13:10:16.879Z</time></trkpt><trkpt lat="44.046890969718035" lon="10.808526332234328"><ele>640.0</ele><time>2026-05-01T13:10:18.879Z</time></trkpt><trkpt lat="44.04687171884621" lon="10.80841168577746"><ele>640.0</ele><time>2026-05-01T13:13:22.878Z</time></trkpt><trkpt lat="44.046940111039625" lon="10.808380626949925"><ele>640.0</ele><time>2026-05-01T13:13:23.878Z</time></trkpt><trkpt lat="44.04701627365843" lon="10.8083670027678"><ele>640.0</ele><time>2026-05-01T13:13:24.878Z</time></trkpt><trkpt lat="44.04710869552037" lon="10.808354172665126"><ele>639.0</ele><time>2026-05-01T13:13:25.878Z</time></trkpt><trkpt lat="44.0472172482257" lon="10.808370022693435"><ele>638.0</ele><time>2026-05-01T13:13:26.878Z</time></trkpt><trkpt lat="44.04732874034349" lon="10.808383686071247"><ele>637.0</ele><time>2026-05-01T13:13:27.878Z</time></trkpt><trkpt lat="44.04743324090942" lon="10.80839033477313"><ele>636.0</ele><time>2026-05-01T13:13:28.878Z</time></trkpt><trkpt lat="44.047530834108414" lon="10.808400587422438"><ele>635.0</ele><time>2026-05-01T13:13:29.878Z</time></trkpt><trkpt lat="44.04762308874577" lon="10.808409790751725"><ele>633.25</ele><time>2026-05-01T13:13:30.878Z</time></trkpt><trkpt lat="44.04772940223541" lon="10.808435093589527"><ele>631.5</ele><time>2026-05-01T13:13:31.878Z</time></trkpt><trkpt lat="44.047855028222656" lon="10.808447080088923"><ele>629.75</ele><time>2026-05-01T13:13:32.878Z</time></trkpt><trkpt lat="44.04797504256186" lon="10.808460920071099"><ele>628.0</ele><time>2026-05-01T13:13:33.878Z</time></trkpt><trkpt lat="44.04810215918394" lon="10.808470881206212"><ele>628.0</ele><time>2026-05-01T13:13:34.878Z</time></trkpt><trkpt lat="44.04820555974968" lon="10.808455849023039"><ele>628.0</ele><time>2026-05-01T13:13:35.878Z</time></trkpt><trkpt lat="44.04828986076497" lon="10.808344517115064"><ele>628.0</ele><time>2026-05-01T13:13:36.878Z</time></trkpt><trkpt lat="44.048356881333504" lon="10.80821239345943"><ele>628.0</ele><time>2026-05-01T13:13:37.878Z</time></trkpt><trkpt lat="44.04841299976641" lon="10.808039406928584"><ele>629.75</ele><time>2026-05-01T13:13:38.878Z</time></trkpt><trkpt lat="44.04846963797421" lon="10.807853007642562"><ele>631.5</ele><time>2026-05-01T13:13:39.877Z</time></trkpt><trkpt lat="44.04853061128687" lon="10.807658219920077"><ele>633.25</ele><time>2026-05-01T13:13:40.877Z</time></trkpt><trkpt lat="44.048600257205834" lon="10.807482425350956"><ele>635.0</ele><time>2026-05-01T13:13:41.877Z</time></trkpt><trkpt lat="44.04866758271967" lon="10.807313503606661"><ele>635.4</ele><time>2026-05-01T13:13:42.877Z</time></trkpt><trkpt lat="44.04872045601732" lon="10.807160841335476"><ele>635.8</ele><time>2026-05-01T13:13:43.877Z</time></trkpt><trkpt lat="44.048788263180306" lon="10.80703920477487"><ele>636.2</ele><time>2026-05-01T13:13:44.877Z</time></trkpt><trkpt lat="44.048889644168995" lon="10.807022960583026"><ele>636.6</ele><time>2026-05-01T13:13:45.877Z</time></trkpt><trkpt lat="44.048975895040904" lon="10.807038277408846"><ele>637.0</ele><time>2026-05-01T13:13:46.877Z</time></trkpt><trkpt lat="44.0490971424352" lon="10.807032630877185"><ele>638.0</ele><time>2026-05-01T13:13:47.877Z</time></trkpt><trkpt lat="44.049240406190016" lon="10.807040055660911"><ele>639.0</ele><time>2026-05-01T13:13:48.877Z</time></trkpt><trkpt lat="44.04937234972952" lon="10.80704855050313"><ele>640.0</ele><time>2026-05-01T13:13:49.877Z</time></trkpt><trkpt lat="44.04946626331051" lon="10.80704622613007"><ele>641.0</ele><time>2026-05-01T13:13:50.877Z</time></trkpt><trkpt lat="44.04956687799183" lon="10.807004500817014"><ele>641.0</ele><time>2026-05-01T13:13:51.877Z</time></trkpt><trkpt lat="44.04968550964151" lon="10.80694449569994"><ele>641.0</ele><time>2026-05-01T13:13:52.877Z</time></trkpt><trkpt lat="44.04979704679812" lon="10.806829408305148"><ele>641.0</ele><time>2026-05-01T13:13:53.877Z</time></trkpt><trkpt lat="44.04991961232369" lon="10.806728196727924"><ele>641.0</ele><time>2026-05-01T13:13:54.877Z</time></trkpt><trkpt lat="44.05004339179624" lon="10.806601552589965"><ele>643.3333333333333</ele><time>2026-05-01T13:13:55.877Z</time></trkpt><trkpt lat="44.05013316757371" lon="10.806416202748844"><ele>645.6666666666666</ele><time>2026-05-01T13:13:56.877Z</time></trkpt><trkpt lat="44.05020786967019" lon="10.80620506389456"><ele>648.0</ele><time>2026-05-01T13:13:57.877Z</time></trkpt><trkpt lat="44.05028470542385" lon="10.805996007659243"><ele>645.0</ele><time>2026-05-01T13:13:58.877Z</time></trkpt><trkpt lat="44.05034773990492" lon="10.80578327448556"><ele>642.0</ele><time>2026-05-01T13:13:59.877Z</time></trkpt><trkpt lat="44.05043878814373" lon="10.805612603102858"><ele>639.0</ele><time>2026-05-01T13:14:00.877Z</time></trkpt><trkpt lat="44.05053379973419" lon="10.80543626820457"><ele>639.0</ele><time>2026-05-01T13:14:01.877Z</time></trkpt><trkpt lat="44.050636435147304" lon="10.80526881103238"><ele>639.0</ele><time>2026-05-01T13:14:02.877Z</time></trkpt><trkpt lat="44.0507665526185" lon="10.805170643735961"><ele>639.0</ele><time>2026-05-01T13:14:03.877Z</time></trkpt><trkpt lat="44.050907689596" lon="10.80511202831833"><ele>640.0</ele><time>2026-05-01T13:14:04.877Z</time></trkpt><trkpt lat="44.051058624594674" lon="10.805103268015715"><ele>641.0</ele><time>2026-05-01T13:14:05.877Z</time></trkpt><trkpt lat="44.0512121841477" lon="10.805122236249415"><ele>642.0</ele><time>2026-05-01T13:14:06.877Z</time></trkpt><trkpt lat="44.051353857673426" lon="10.805117194051043"><ele>643.0</ele><time>2026-05-01T13:14:07.877Z</time></trkpt><trkpt lat="44.051485662217466" lon="10.80505944076211"><ele>643.0</ele><time>2026-05-01T13:14:08.877Z</time></trkpt><trkpt lat="44.051606915326055" lon="10.804932241900273"><ele>643.0</ele><time>2026-05-01T13:14:09.877Z</time></trkpt><trkpt lat="44.051723980871905" lon="10.804779458662635"><ele>643.0</ele><time>2026-05-01T13:14:10.877Z</time></trkpt><trkpt lat="44.05185390880284" lon="10.804660982866672"><ele>644.75</ele><time>2026-05-01T13:14:11.877Z</time></trkpt><trkpt lat="44.05197109352521" lon="10.804516492241612"><ele>646.5</ele><time>2026-05-01T13:14:12.877Z</time></trkpt><trkpt lat="44.05208314008968" lon="10.804374758301615"><ele>648.25</ele><time>2026-05-01T13:14:13.877Z</time></trkpt><trkpt lat="44.052164209875045" lon="10.804218029411613"><ele>650.0</ele><time>2026-05-01T13:14:14.877Z</time></trkpt><trkpt lat="44.052209708520294" lon="10.804036292733713"><ele>646.25</ele><time>2026-05-01T13:14:15.877Z</time></trkpt><trkpt lat="44.05223641911417" lon="10.803822404117568"><ele>642.5</ele><time>2026-05-01T13:14:16.877Z</time></trkpt><trkpt lat="44.05228905249729" lon="10.803647887351886"><ele>638.75</ele><time>2026-05-01T13:14:17.877Z</time></trkpt><trkpt lat="44.052347067827704" lon="10.803478058796452"><ele>635.0</ele><time>2026-05-01T13:14:18.877Z</time></trkpt><trkpt lat="44.05241082082714" lon="10.803317598754589"><ele>636.5</ele><time>2026-05-01T13:14:19.877Z</time></trkpt><trkpt lat="44.05247295596724" lon="10.803162179872917"><ele>638.0</ele><time>2026-05-01T13:14:20.877Z</time></trkpt><trkpt lat="44.0525467188493" lon="10.803010016964066"><ele>639.5</ele><time>2026-05-01T13:14:21.877Z</time></trkpt><trkpt lat="44.0526263280051" lon="10.802850863397264"><ele>641.0</ele><time>2026-05-01T13:14:22.877Z</time></trkpt><trkpt lat="44.05272443364973" lon="10.802692592543554"><ele>639.75</ele><time>2026-05-01T13:14:23.877Z</time></trkpt><trkpt lat="44.05282172694573" lon="10.80255260397342"><ele>638.5</ele><time>2026-05-01T13:14:24.877Z</time></trkpt><trkpt lat="44.05290735246095" lon="10.802423480031983"><ele>637.25</ele><time>2026-05-01T13:14:25.877Z</time></trkpt><trkpt lat="44.052998270626155" lon="10.802313475843796"><ele>636.0</ele><time>2026-05-01T13:14:26.877Z</time></trkpt><trkpt lat="44.053063158968314" lon="10.802175881684096"><ele>636.0</ele><time>2026-05-01T13:14:27.877Z</time></trkpt><trkpt lat="44.053149751023284" lon="10.802050490072796"><ele>636.0</ele><time>2026-05-01T13:14:28.877Z</time></trkpt><trkpt lat="44.053249994707365" lon="10.80193017887444"><ele>636.0</ele><time>2026-05-01T13:14:29.877Z</time></trkpt><trkpt lat="44.05335626976093" lon="10.801806234608891"><ele>636.0</ele><time>2026-05-01T13:14:30.877Z</time></trkpt><trkpt lat="44.053462477744965" lon="10.801685329407274"><ele>636.0</ele><time>2026-05-01T13:14:31.877Z</time></trkpt><trkpt lat="44.053562828211" lon="10.801572554493983"><ele>636.0</ele><time>2026-05-01T13:14:32.877Z</time></trkpt><trkpt lat="44.05365091068627" lon="10.80145207129123"><ele>636.0</ele><time>2026-05-01T13:14:33.877Z</time></trkpt><trkpt lat="44.053713558387805" lon="10.80132375565954"><ele>636.0</ele><time>2026-05-01T13:14:34.877Z</time></trkpt><trkpt lat="44.05377311257871" lon="10.80117299686784"><ele>636.0</ele><time>2026-05-01T13:14:35.877Z</time></trkpt><trkpt lat="44.05384023447474" lon="10.80101583340606"><ele>636.0</ele><time>2026-05-01T13:14:36.877Z</time></trkpt><trkpt lat="44.053895079353346" lon="10.800840849083638"><ele>636.0</ele><time>2026-05-01T13:14:37.877Z</time></trkpt><trkpt lat="44.05395595458701" lon="10.800669748070582"><ele>636.0</ele><time>2026-05-01T13:14:38.877Z</time></trkpt><trkpt lat="44.05402454724882" lon="10.800522301616382"><ele>636.0</ele><time>2026-05-01T13:14:39.877Z</time></trkpt><trkpt lat="44.05408814740749" lon="10.800373027419385"><ele>636.0</ele><time>2026-05-01T13:14:40.877Z</time></trkpt><trkpt lat="44.05414474261888" lon="10.800231206852281"><ele>636.0</ele><time>2026-05-01T13:14:41.877Z</time></trkpt><trkpt lat="44.05420973403976" lon="10.800085523669061"><ele>636.0</ele><time>2026-05-01T13:14:42.877Z</time></trkpt><trkpt lat="44.05427429352196" lon="10.799921975969664"><ele>636.0</ele><time>2026-05-01T13:14:43.877Z</time></trkpt><trkpt lat="44.054345459771355" lon="10.799760598105536"><ele>636.0</ele><time>2026-05-01T13:14:44.877Z</time></trkpt><trkpt lat="44.054435419929355" lon="10.799609907200125"><ele>636.0</ele><time>2026-05-01T13:14:45.877Z</time></trkpt><trkpt lat="44.05454607190065" lon="10.79948723102001"><ele>636.0</ele><time>2026-05-01T13:14:46.877Z</time></trkpt><trkpt lat="44.054664868415706" lon="10.79937508041834"><ele>635.75</ele><time>2026-05-01T13:14:47.877Z</time></trkpt><trkpt lat="44.05478337688061" lon="10.79925866121767"><ele>635.5</ele><time>2026-05-01T13:14:48.877Z</time></trkpt><trkpt lat="44.05489306377172" lon="10.799147022709287"><ele>635.25</ele><time>2026-05-01T13:14:49.877Z</time></trkpt><trkpt lat="44.05499294788866" lon="10.799020157678536"><ele>635.0</ele><time>2026-05-01T13:14:50.877Z</time></trkpt><trkpt lat="44.055077250846395" lon="10.798887476046078"><ele>635.0</ele><time>2026-05-01T13:14:51.877Z</time></trkpt><trkpt lat="44.05517041576039" lon="10.798753177146924"><ele>635.0</ele><time>2026-05-01T13:14:52.877Z</time></trkpt><trkpt lat="44.05524650863262" lon="10.798609356458096"><ele>635.0</ele><time>2026-05-01T13:14:53.877Z</time></trkpt><trkpt lat="44.0553203501698" lon="10.79847342744447"><ele>635.0</ele><time>2026-05-01T13:14:54.877Z</time></trkpt><trkpt lat="44.05538671625747" lon="10.798339709195217"><ele>633.25</ele><time>2026-05-01T13:14:55.877Z</time></trkpt><trkpt lat="44.05545103284004" lon="10.798212603443135"><ele>631.5</ele><time>2026-05-01T13:14:56.877Z</time></trkpt><trkpt lat="44.055513163138" lon="10.798093822636769"><ele>629.75</ele><time>2026-05-01T13:14:57.877Z</time></trkpt><trkpt lat="44.05556791468607" lon="10.797946510774324"><ele>628.0</ele><time>2026-05-01T13:14:58.877Z</time></trkpt><trkpt lat="44.05562015796564" lon="10.797791849770086"><ele>625.8</ele><time>2026-05-01T13:14:59.877Z</time></trkpt><trkpt lat="44.05564659333852" lon="10.797638992489548"><ele>623.5999999999999</ele><time>2026-05-01T13:15:00.877Z</time></trkpt><trkpt lat="44.0556608848137" lon="10.79750869035423"><ele>621.4000000000001</ele><time>2026-05-01T13:15:01.877Z</time></trkpt><trkpt lat="44.05567193995785" lon="10.797384461535115"><ele>619.2</ele><time>2026-05-01T13:15:02.877Z</time></trkpt><trkpt lat="44.05569336544078" lon="10.79724811648326"><ele>617.0</ele><time>2026-05-01T13:15:03.877Z</time></trkpt><trkpt lat="44.05571549982734" lon="10.797054786540713"><ele>615.6666666666666</ele><time>2026-05-01T13:15:04.877Z</time></trkpt><trkpt lat="44.05571775096975" lon="10.796803816202958"><ele>614.3333333333334</ele><time>2026-05-01T13:15:05.877Z</time></trkpt><trkpt lat="44.05575649080426" lon="10.796563024187085"><ele>613.0</ele><time>2026-05-01T13:15:06.877Z</time></trkpt><trkpt lat="44.05578534002872" lon="10.796372155946106"><ele>617.0</ele><time>2026-05-01T13:15:07.877Z</time></trkpt><trkpt lat="44.055797169376" lon="10.79621870595088"><ele>621.0</ele><time>2026-05-01T13:15:08.877Z</time></trkpt><trkpt lat="44.0557987933887" lon="10.79607171338238"><ele>625.0</ele><time>2026-05-01T13:15:09.877Z</time></trkpt><trkpt lat="44.05580799645151" lon="10.795921592349497"><ele>629.0</ele><time>2026-05-01T13:15:10.877Z</time></trkpt><trkpt lat="44.055828975975125" lon="10.795770242358179"><ele>633.0</ele><time>2026-05-01T13:15:11.877Z</time></trkpt><trkpt lat="44.05586134861208" lon="10.795633526421302"><ele>633.3333333333334</ele><time>2026-05-01T13:15:12.877Z</time></trkpt><trkpt lat="44.05590319942112" lon="10.795462799617935"><ele>633.6666666666667</ele><time>2026-05-01T13:15:13.877Z</time></trkpt><trkpt lat="44.0559947029794" lon="10.795253984122743"><ele>634.0</ele><time>2026-05-01T13:15:14.877Z</time></trkpt><trkpt lat="44.056059974025956" lon="10.795007023217844"><ele>631.5</ele><time>2026-05-01T13:15:15.877Z</time></trkpt><trkpt lat="44.05612610857825" lon="10.794822699652842"><ele>629.0</ele><time>2026-05-01T13:15:16.876Z</time></trkpt><trkpt lat="44.056180679505395" lon="10.794664360874817"><ele>626.5</ele><time>2026-05-01T13:15:17.877Z</time></trkpt><trkpt lat="44.05623538370592" lon="10.794526652180972"><ele>624.0</ele><time>2026-05-01T13:15:18.877Z</time></trkpt><trkpt lat="44.05626174152695" lon="10.794395696759052"><ele>623.0</ele><time>2026-05-01T13:15:19.877Z</time></trkpt><trkpt lat="44.056278936184604" lon="10.794257644280956"><ele>622.0</ele><time>2026-05-01T13:15:20.877Z</time></trkpt><trkpt lat="44.05627993538466" lon="10.794115038211988"><ele>621.0</ele><time>2026-05-01T13:15:21.877Z</time></trkpt><trkpt lat="44.056280964231505" lon="10.793967499496453"><ele>620.0</ele><time>2026-05-01T13:15:22.876Z</time></trkpt><trkpt lat="44.05626054078052" lon="10.793841798631812"><ele>619.0</ele><time>2026-05-01T13:15:23.877Z</time></trkpt><trkpt lat="44.05623623938686" lon="10.793733665159642"><ele>619.0</ele><time>2026-05-01T13:15:24.877Z</time></trkpt><trkpt lat="44.05621181513263" lon="10.793631074162011"><ele>619.0</ele><time>2026-05-01T13:15:25.877Z</time></trkpt><trkpt lat="44.05618255062283" lon="10.79353362895542"><ele>619.0</ele><time>2026-05-01T13:15:26.877Z</time></trkpt><trkpt lat="44.05615784101222" lon="10.793452014847734"><ele>619.0</ele><time>2026-05-01T13:15:27.877Z</time></trkpt><trkpt lat="44.05612565168687" lon="10.793371450041915"><ele>619.0</ele><time>2026-05-01T13:15:28.877Z</time></trkpt><trkpt lat="44.05610940748714" lon="10.793280876269176"><ele>619.0</ele><time>2026-05-01T13:15:29.877Z</time></trkpt><trkpt lat="44.056087736161196" lon="10.79318481319909"><ele>619.0</ele><time>2026-05-01T13:15:30.877Z</time></trkpt><trkpt lat="44.05605351400747" lon="10.793044654930288"><ele>618.8</ele><time>2026-05-01T13:15:32.877Z</time></trkpt><trkpt lat="44.05600988227787" lon="10.792901619177336"><ele>618.5999999999999</ele><time>2026-05-01T13:15:34.877Z</time></trkpt><trkpt lat="44.05598607757292" lon="10.79279958586838"><ele>618.4</ele><time>2026-05-01T13:15:35.877Z</time></trkpt><trkpt lat="44.055949105519886" lon="10.792660933510435"><ele>618.1999999999999</ele><time>2026-05-01T13:15:36.877Z</time></trkpt><trkpt lat="44.05591147233523" lon="10.792498601874424"><ele>618.0</ele><time>2026-05-01T13:15:37.877Z</time></trkpt><trkpt lat="44.055860472454015" lon="10.792316681191386"><ele>618.5</ele><time>2026-05-01T13:15:38.877Z</time></trkpt><trkpt lat="44.05580847172982" lon="10.792117394561407"><ele>619.0</ele><time>2026-05-01T13:15:39.877Z</time></trkpt><trkpt lat="44.05576439628181" lon="10.791911409896503"><ele>619.5</ele><time>2026-05-01T13:15:40.877Z</time></trkpt><trkpt lat="44.0557384793039" lon="10.79172153279618"><ele>620.0</ele><time>2026-05-01T13:15:41.877Z</time></trkpt><trkpt lat="44.055712044942375" lon="10.791547978165863"><ele>620.6</ele><time>2026-05-01T13:15:42.877Z</time></trkpt><trkpt lat="44.055672295069535" lon="10.791390324625365"><ele>621.2</ele><time>2026-05-01T13:15:43.877Z</time></trkpt><trkpt lat="44.05564124861706" lon="10.791277278836251"><ele>621.8</ele><time>2026-05-01T13:15:44.877Z</time></trkpt><trkpt lat="44.055609351599344" lon="10.791174477986871"><ele>622.4</ele><time>2026-05-01T13:15:45.877Z</time></trkpt><trkpt lat="44.05557557449862" lon="10.791071491410092"><ele>623.0</ele><time>2026-05-01T13:15:46.877Z</time></trkpt><trkpt lat="44.055533588597854" lon="10.790960775853595"><ele>623.0</ele><time>2026-05-01T13:15:47.877Z</time></trkpt><trkpt lat="44.055512172377114" lon="10.79084617669041"><ele>623.0</ele><time>2026-05-01T13:15:48.876Z</time></trkpt><trkpt lat="44.05549438494911" lon="10.790725157383969"><ele>623.0</ele><time>2026-05-01T13:15:49.876Z</time></trkpt><trkpt lat="44.055497148518626" lon="10.790595897470729"><ele>623.0</ele><time>2026-05-01T13:15:50.876Z</time></trkpt><trkpt lat="44.055498988583956" lon="10.790465462783882"><ele>623.0</ele><time>2026-05-01T13:15:51.876Z</time></trkpt><trkpt lat="44.05551203302039" lon="10.790326367864235"><ele>623.0</ele><time>2026-05-01T13:15:52.876Z</time></trkpt><trkpt lat="44.055516258173895" lon="10.790175454971289"><ele>623.0</ele><time>2026-05-01T13:15:53.876Z</time></trkpt><trkpt lat="44.05552297176328" lon="10.790031768378684"><ele>623.0</ele><time>2026-05-01T13:15:54.876Z</time></trkpt><trkpt lat="44.055526793135236" lon="10.789899877797016"><ele>623.0</ele><time>2026-05-01T13:15:55.876Z</time></trkpt><trkpt lat="44.05553406585028" lon="10.789775432695903"><ele>623.0</ele><time>2026-05-01T13:15:56.876Z</time></trkpt><trkpt lat="44.055538979542725" lon="10.789658467930463"><ele>621.8</ele><time>2026-05-01T13:15:57.876Z</time></trkpt><trkpt lat="44.05554369373268" lon="10.78953552563994"><ele>620.5999999999999</ele><time>2026-05-01T13:15:58.876Z</time></trkpt><trkpt lat="44.05553991055404" lon="10.789387894262218"><ele>619.4000000000001</ele><time>2026-05-01T13:15:59.876Z</time></trkpt><trkpt lat="44.05555169821402" lon="10.78922171367973"><ele>618.2</ele><time>2026-05-01T13:16:00.876Z</time></trkpt><trkpt lat="44.055558850567266" lon="10.78905796181797"><ele>617.0</ele><time>2026-05-01T13:16:01.876Z</time></trkpt><trkpt lat="44.05557025311255" lon="10.788904948058395"><ele>616.4</ele><time>2026-05-01T13:16:02.876Z</time></trkpt><trkpt lat="44.05557956558972" lon="10.788760902574573"><ele>615.8000000000001</ele><time>2026-05-01T13:16:03.876Z</time></trkpt><trkpt lat="44.05558809096072" lon="10.788635151614473"><ele>615.2</ele><time>2026-05-01T13:16:04.876Z</time></trkpt><trkpt lat="44.05559070652268" lon="10.78850937976662"><ele>614.6</ele><time>2026-05-01T13:16:05.876Z</time></trkpt><trkpt lat="44.05558659421811" lon="10.788385651000743"><ele>614.0</ele><time>2026-05-01T13:16:06.876Z</time></trkpt><trkpt lat="44.0555883084692" lon="10.788264526884017"><ele>614.0</ele><time>2026-05-01T13:16:07.876Z</time></trkpt><trkpt lat="44.05558953880572" lon="10.788135812707809"><ele>614.0</ele><time>2026-05-01T13:16:08.876Z</time></trkpt><trkpt lat="44.055590370430885" lon="10.787997958555433"><ele>614.0</ele><time>2026-05-01T13:16:09.876Z</time></trkpt><trkpt lat="44.055596102507884" lon="10.787855511827537"><ele>614.0</ele><time>2026-05-01T13:16:10.876Z</time></trkpt><trkpt lat="44.05559615429273" lon="10.787708559464486"><ele>614.0</ele><time>2026-05-01T13:16:11.876Z</time></trkpt><trkpt lat="44.05559611387399" lon="10.787565848526707"><ele>614.2</ele><time>2026-05-01T13:16:12.876Z</time></trkpt><trkpt lat="44.05559987354115" lon="10.787449787293948"><ele>614.4</ele><time>2026-05-01T13:16:13.876Z</time></trkpt><trkpt lat="44.05559965008454" lon="10.78732799932815"><ele>614.6</ele><time>2026-05-01T13:16:14.876Z</time></trkpt><trkpt lat="44.05559509916962" lon="10.787189993553383"><ele>614.8</ele><time>2026-05-01T13:16:15.876Z</time></trkpt><trkpt lat="44.055599029916515" lon="10.787054867180112"><ele>615.0</ele><time>2026-05-01T13:16:16.876Z</time></trkpt><trkpt lat="44.055603292524296" lon="10.786914009144553"><ele>614.8</ele><time>2026-05-01T13:16:17.876Z</time></trkpt><trkpt lat="44.055608792043195" lon="10.786764085079733"><ele>614.6</ele><time>2026-05-01T13:16:18.876Z</time></trkpt><trkpt lat="44.05561379971959" lon="10.786628975746636"><ele>614.4</ele><time>2026-05-01T13:16:19.876Z</time></trkpt><trkpt lat="44.05562088083913" lon="10.786496611216327"><ele>614.2</ele><time>2026-05-01T13:16:20.876Z</time></trkpt><trkpt lat="44.055623239745366" lon="10.786370759372534"><ele>614.0</ele><time>2026-05-01T13:16:21.876Z</time></trkpt><trkpt lat="44.05562811115848" lon="10.786233474231693"><ele>614.0</ele><time>2026-05-01T13:16:22.876Z</time></trkpt><trkpt lat="44.05563835508179" lon="10.786097064985084"><ele>614.0</ele><time>2026-05-01T13:16:23.876Z</time></trkpt><trkpt lat="44.05565795343031" lon="10.785962717637066"><ele>614.0</ele><time>2026-05-01T13:16:24.876Z</time></trkpt><trkpt lat="44.05569007752303" lon="10.785828218914503"><ele>614.0</ele><time>2026-05-01T13:16:25.876Z</time></trkpt><trkpt lat="44.05573595339479" lon="10.785710392883669"><ele>614.0</ele><time>2026-05-01T13:16:26.876Z</time></trkpt><trkpt lat="44.055797939707176" lon="10.785601931837162"><ele>617.0</ele><time>2026-05-01T13:16:27.876Z</time></trkpt><trkpt lat="44.05587319987099" lon="10.785520485908869"><ele>620.0</ele><time>2026-05-01T13:16:28.876Z</time></trkpt><trkpt lat="44.055953459967995" lon="10.785449021301178"><ele>623.0</ele><time>2026-05-01T13:16:29.876Z</time></trkpt><trkpt lat="44.05603126245177" lon="10.785377219827256"><ele>626.0</ele><time>2026-05-01T13:16:30.876Z</time></trkpt><trkpt lat="44.056102989269576" lon="10.785301583221367"><ele>629.0</ele><time>2026-05-01T13:16:31.876Z</time></trkpt><trkpt lat="44.05617843444666" lon="10.785201593990392"><ele>624.0</ele><time>2026-05-01T13:16:32.876Z</time></trkpt><trkpt lat="44.05627838246301" lon="10.785047619623425"><ele>619.0</ele><time>2026-05-01T13:16:33.876Z</time></trkpt><trkpt lat="44.056402219395395" lon="10.784854264443617"><ele>614.0</ele><time>2026-05-01T13:16:34.876Z</time></trkpt><trkpt lat="44.05650620067271" lon="10.784671442316867"><ele>614.0</ele><time>2026-05-01T13:16:35.876Z</time></trkpt><trkpt lat="44.05657256968451" lon="10.78452694612968"><ele>614.0</ele><time>2026-05-01T13:16:36.876Z</time></trkpt><trkpt lat="44.05663191588637" lon="10.78439293592724"><ele>614.0</ele><time>2026-05-01T13:16:37.876Z</time></trkpt><trkpt lat="44.05666803700094" lon="10.784208171797912"><ele>614.0</ele><time>2026-05-01T13:16:38.876Z</time></trkpt><trkpt lat="44.056677174960335" lon="10.783974352780813"><ele>611.75</ele><time>2026-05-01T13:16:39.876Z</time></trkpt><trkpt lat="44.056654463709336" lon="10.783762128288274"><ele>609.5</ele><time>2026-05-01T13:16:40.876Z</time></trkpt><trkpt lat="44.05662955719811" lon="10.783581765526733"><ele>607.25</ele><time>2026-05-01T13:16:41.876Z</time></trkpt><trkpt lat="44.056605370465235" lon="10.783406616988932"><ele>605.0</ele><time>2026-05-01T13:16:42.876Z</time></trkpt><trkpt lat="44.056583976527996" lon="10.78325169233601"><ele>605.0</ele><time>2026-05-01T13:16:43.876Z</time></trkpt><trkpt lat="44.05656047187894" lon="10.783081482486837"><ele>605.0</ele><time>2026-05-01T13:16:44.876Z</time></trkpt><trkpt lat="44.05653687179339" lon="10.782900788483882"><ele>605.0</ele><time>2026-05-01T13:16:45.876Z</time></trkpt><trkpt lat="44.0565155848629" lon="10.782729631817718"><ele>605.0</ele><time>2026-05-01T13:16:46.876Z</time></trkpt><trkpt lat="44.056502342798964" lon="10.78256697197104"><ele>605.0</ele><time>2026-05-01T13:16:47.876Z</time></trkpt><trkpt lat="44.056546330940925" lon="10.782413039894761"><ele>605.0</ele><time>2026-05-01T13:16:48.876Z</time></trkpt><trkpt lat="44.0566151469166" lon="10.782289830975973"><ele>605.0</ele><time>2026-05-01T13:16:49.876Z</time></trkpt><trkpt lat="44.05666919264056" lon="10.782145126539483"><ele>605.0</ele><time>2026-05-01T13:16:50.876Z</time></trkpt><trkpt lat="44.0567636256073" lon="10.782003412230956"><ele>607.5</ele><time>2026-05-01T13:16:51.876Z</time></trkpt><trkpt lat="44.05687265264869" lon="10.781874242668191"><ele>610.0</ele><time>2026-05-01T13:16:52.876Z</time></trkpt><trkpt lat="44.05698094872805" lon="10.78175547527863"><ele>612.5</ele><time>2026-05-01T13:16:53.876Z</time></trkpt><trkpt lat="44.05709329160987" lon="10.781630634758775"><ele>615.0</ele><time>2026-05-01T13:16:54.876Z</time></trkpt><trkpt lat="44.05718971617577" lon="10.781505205335103"><ele>615.0</ele><time>2026-05-01T13:16:55.876Z</time></trkpt><trkpt lat="44.05727198285097" lon="10.78138691870746"><ele>615.0</ele><time>2026-05-01T13:16:56.876Z</time></trkpt><trkpt lat="44.05735583835353" lon="10.781254231735643"><ele>615.0</ele><time>2026-05-01T13:16:57.876Z</time></trkpt><trkpt lat="44.057443736878945" lon="10.781115460106085"><ele>615.0</ele><time>2026-05-01T13:16:58.876Z</time></trkpt><trkpt lat="44.05749970809521" lon="10.780969743615138"><ele>615.8</ele><time>2026-05-01T13:16:59.876Z</time></trkpt><trkpt lat="44.05755496563405" lon="10.780829788993113"><ele>616.6</ele><time>2026-05-01T13:17:00.876Z</time></trkpt><trkpt lat="44.057609921731384" lon="10.78068214101241"><ele>617.4</ele><time>2026-05-01T13:17:01.876Z</time></trkpt><trkpt lat="44.05762108466539" lon="10.780548588758535"><ele>618.2</ele><time>2026-05-01T13:17:02.876Z</time></trkpt><trkpt lat="44.057590302240676" lon="10.780390677553372"><ele>619.0</ele><time>2026-05-01T13:17:04.876Z</time></trkpt><trkpt lat="44.057535245592426" lon="10.780285666676376"><ele>613.6666666666667</ele><time>2026-05-01T13:17:05.876Z</time></trkpt><trkpt lat="44.057433399276334" lon="10.780185269278807"><ele>608.3333333333334</ele><time>2026-05-01T13:17:06.876Z</time></trkpt><trkpt lat="44.0572910948866" lon="10.780060571663096"><ele>603.0</ele><time>2026-05-01T13:17:07.876Z</time></trkpt><trkpt lat="44.05715199838939" lon="10.779813671663645"><ele>603.0</ele><time>2026-05-01T13:17:08.876Z</time></trkpt><trkpt lat="44.05695707538286" lon="10.779586440091817"><ele>603.0</ele><time>2026-05-01T13:17:09.876Z</time></trkpt><trkpt lat="44.056761588438896" lon="10.779379772357386"><ele>594.6666666666666</ele><time>2026-05-01T13:17:10.876Z</time></trkpt><trkpt lat="44.05661111676819" lon="10.77915206035718"><ele>586.3333333333333</ele><time>2026-05-01T13:17:11.876Z</time></trkpt><trkpt lat="44.05646575410429" lon="10.77892066238047"><ele>578.0</ele><time>2026-05-01T13:17:12.876Z</time></trkpt><trkpt lat="44.05632461977169" lon="10.778676601759031"><ele>584.3333333333333</ele><time>2026-05-01T13:17:13.876Z</time></trkpt><trkpt lat="44.05620298911324" lon="10.778434499632487"><ele>590.6666666666666</ele><time>2026-05-01T13:17:14.876Z</time></trkpt><trkpt lat="44.05609079996455" lon="10.778219465102303"><ele>597.0</ele><time>2026-05-01T13:17:15.876Z</time></trkpt><trkpt lat="44.055988189668156" lon="10.778010056474832"><ele>597.0</ele><time>2026-05-01T13:17:16.876Z</time></trkpt><trkpt lat="44.055861615952615" lon="10.777814275459201"><ele>597.0</ele><time>2026-05-01T13:17:17.876Z</time></trkpt><trkpt lat="44.05572557368048" lon="10.777632802612796"><ele>597.0</ele><time>2026-05-01T13:17:18.876Z</time></trkpt><trkpt lat="44.05557869897637" lon="10.777463202913754"><ele>589.3333333333334</ele><time>2026-05-01T13:17:19.876Z</time></trkpt><trkpt lat="44.05545416610348" lon="10.777303546332439"><ele>581.6666666666667</ele><time>2026-05-01T13:17:20.876Z</time></trkpt><trkpt lat="44.0553513559783" lon="10.777142379620646"><ele>574.0</ele><time>2026-05-01T13:17:21.876Z</time></trkpt><trkpt lat="44.05524735919279" lon="10.777005664055237"><ele>574.0</ele><time>2026-05-01T13:17:22.876Z</time></trkpt><trkpt lat="44.05512776742884" lon="10.776891343385955"><ele>574.0</ele><time>2026-05-01T13:17:23.876Z</time></trkpt><trkpt lat="44.055043991966635" lon="10.776743846278379"><ele>574.0</ele><time>2026-05-01T13:17:24.875Z</time></trkpt><trkpt lat="44.054973124708305" lon="10.776567866996446"><ele>574.0</ele><time>2026-05-01T13:17:25.876Z</time></trkpt><trkpt lat="44.05490214652843" lon="10.776358251446005"><ele>570.0</ele><time>2026-05-01T13:17:26.876Z</time></trkpt><trkpt lat="44.054841782086854" lon="10.776155693408322"><ele>566.0</ele><time>2026-05-01T13:17:27.876Z</time></trkpt><trkpt lat="44.054779526878875" lon="10.77597382939499"><ele>562.0</ele><time>2026-05-01T13:17:28.876Z</time></trkpt><trkpt lat="44.05472727287823" lon="10.775815283487736"><ele>558.0</ele><time>2026-05-01T13:17:29.875Z</time></trkpt><trkpt lat="44.05467109088762" lon="10.77568595569846"><ele>558.0</ele><time>2026-05-01T13:17:30.875Z</time></trkpt><trkpt lat="44.05465340632932" lon="10.77555200259696"><ele>558.0</ele><time>2026-05-01T13:17:31.876Z</time></trkpt><trkpt lat="44.05464405143242" lon="10.775452058416668"><ele>558.0</ele><time>2026-05-01T13:17:32.876Z</time></trkpt><trkpt lat="44.05469507053628" lon="10.775358151321116"><ele>558.0</ele><time>2026-05-01T13:17:33.876Z</time></trkpt><trkpt lat="44.05476912706266" lon="10.775299981278794"><ele>558.0</ele><time>2026-05-01T13:17:34.876Z</time></trkpt><trkpt lat="44.05485929633583" lon="10.775292146920984"><ele>558.0</ele><time>2026-05-01T13:17:35.876Z</time></trkpt><trkpt lat="44.054950124200076" lon="10.775316259920377"><ele>568.0</ele><time>2026-05-01T13:17:36.876Z</time></trkpt><trkpt lat="44.05506927974449" lon="10.77536373980948"><ele>578.0</ele><time>2026-05-01T13:17:37.876Z</time></trkpt><trkpt lat="44.055101575684844" lon="10.775268890755738"><ele>588.0</ele><time>2026-05-01T13:17:38.876Z</time></trkpt><trkpt lat="44.055275210450276" lon="10.775304852957971"><ele>598.0</ele><time>2026-05-01T13:17:39.876Z</time></trkpt><trkpt lat="44.05544240264673" lon="10.775339868132194"><ele>598.0</ele><time>2026-05-01T13:17:40.876Z</time></trkpt><trkpt lat="44.055629208137425" lon="10.77535873873502"><ele>598.0</ele><time>2026-05-01T13:17:41.876Z</time></trkpt><trkpt lat="44.05582160321815" lon="10.775360953835433"><ele>598.0</ele><time>2026-05-01T13:17:42.876Z</time></trkpt><trkpt lat="44.05602009325044" lon="10.77539250654461"><ele>596.6666666666667</ele><time>2026-05-01T13:17:43.876Z</time></trkpt><trkpt lat="44.05621445110886" lon="10.775416870142667"><ele>595.3333333333334</ele><time>2026-05-01T13:17:44.876Z</time></trkpt><trkpt lat="44.056416332634285" lon="10.775438471804245"><ele>594.0</ele><time>2026-05-01T13:17:45.876Z</time></trkpt><trkpt lat="44.056624439657284" lon="10.775461533203295"><ele>594.0</ele><time>2026-05-01T13:17:46.876Z</time></trkpt><trkpt lat="44.05681914607601" lon="10.775497714696321"><ele>594.0</ele><time>2026-05-01T13:17:47.876Z</time></trkpt><trkpt lat="44.05700281833974" lon="10.775530341969956"><ele>594.0</ele><time>2026-05-01T13:17:48.876Z</time></trkpt><trkpt lat="44.05716812335475" lon="10.7755512174059"><ele>594.0</ele><time>2026-05-01T13:17:49.876Z</time></trkpt><trkpt lat="44.0573154621328" lon="10.775571383418525"><ele>594.0</ele><time>2026-05-01T13:17:50.876Z</time></trkpt><trkpt lat="44.05744319960179" lon="10.775579629507206"><ele>594.0</ele><time>2026-05-01T13:17:51.876Z</time></trkpt><trkpt lat="44.05756304261385" lon="10.775568529386689"><ele>594.0</ele><time>2026-05-01T13:17:52.876Z</time></trkpt><trkpt lat="44.05767567822876" lon="10.775510788521707"><ele>593.0</ele><time>2026-05-01T13:17:53.876Z</time></trkpt><trkpt lat="44.057781240491465" lon="10.775411964743542"><ele>592.0</ele><time>2026-05-01T13:17:54.876Z</time></trkpt><trkpt lat="44.057837425603964" lon="10.775273278902498"><ele>591.0</ele><time>2026-05-01T13:17:55.876Z</time></trkpt><trkpt lat="44.05785713932222" lon="10.7751016888593"><ele>590.0</ele><time>2026-05-01T13:17:56.876Z</time></trkpt><trkpt lat="44.057834639407545" lon="10.77491949230917"><ele>583.5</ele><time>2026-05-01T13:17:57.876Z</time></trkpt><trkpt lat="44.057784259948036" lon="10.774705908252121"><ele>577.0</ele><time>2026-05-01T13:17:58.876Z</time></trkpt><trkpt lat="44.057740822775166" lon="10.774499759023621"><ele>570.5</ele><time>2026-05-01T13:17:59.876Z</time></trkpt><trkpt lat="44.05770601132485" lon="10.774320562359723"><ele>564.0</ele><time>2026-05-01T13:18:00.876Z</time></trkpt><trkpt lat="44.05762529960856" lon="10.77415742902191"><ele>563.0</ele><time>2026-05-01T13:18:01.876Z</time></trkpt><trkpt lat="44.05757201084584" lon="10.774037868807435"><ele>562.0</ele><time>2026-05-01T13:18:02.876Z</time></trkpt><trkpt lat="44.05747848675171" lon="10.773949619139328"><ele>561.0</ele><time>2026-05-01T13:18:03.876Z</time></trkpt><trkpt lat="44.057367564694424" lon="10.773917583499745"><ele>560.0</ele><time>2026-05-01T13:18:04.876Z</time></trkpt><trkpt lat="44.05725295182402" lon="10.773913914716951"><ele>559.0</ele><time>2026-05-01T13:18:05.876Z</time></trkpt><trkpt lat="44.057148665076376" lon="10.774011540055817"><ele>557.25</ele><time>2026-05-01T13:18:06.876Z</time></trkpt><trkpt lat="44.057044987654834" lon="10.774126597701866"><ele>555.5</ele><time>2026-05-01T13:18:07.876Z</time></trkpt><trkpt lat="44.05694553666141" lon="10.774251486437983"><ele>553.75</ele><time>2026-05-01T13:18:08.876Z</time></trkpt><trkpt lat="44.056832946049184" lon="10.774276199216247"><ele>552.0</ele><time>2026-05-01T13:18:09.876Z</time></trkpt><trkpt lat="44.05672427601222" lon="10.774254097642809"><ele>552.0</ele><time>2026-05-01T13:18:10.876Z</time></trkpt><trkpt lat="44.056629202638184" lon="10.774174323893652"><ele>552.0</ele><time>2026-05-01T13:18:11.876Z</time></trkpt><trkpt lat="44.056538840620945" lon="10.77407239138956"><ele>552.0</ele><time>2026-05-01T13:18:12.876Z</time></trkpt><trkpt lat="44.056452535245775" lon="10.773929297839086"><ele>552.0</ele><time>2026-05-01T13:18:13.876Z</time></trkpt><trkpt lat="44.056370952761796" lon="10.773773868975917"><ele>552.2</ele><time>2026-05-01T13:18:14.876Z</time></trkpt><trkpt lat="44.05630025274199" lon="10.773612490870349"><ele>552.4000000000001</ele><time>2026-05-01T13:18:15.876Z</time></trkpt><trkpt lat="44.056250216343535" lon="10.773473166115808"><ele>552.5999999999999</ele><time>2026-05-01T13:18:16.876Z</time></trkpt><trkpt lat="44.05622176575551" lon="10.773355250969018"><ele>552.8</ele><time>2026-05-01T13:18:17.876Z</time></trkpt><trkpt lat="44.056202639531826" lon="10.773245462020778"><ele>553.0</ele><time>2026-05-01T13:18:18.876Z</time></trkpt><trkpt lat="44.05625204450772" lon="10.77312608376799"><ele>550.0</ele><time>2026-05-01T13:18:19.876Z</time></trkpt><trkpt lat="44.0563472164893" lon="10.77304763166321"><ele>547.0</ele><time>2026-05-01T13:18:20.876Z</time></trkpt><trkpt lat="44.05647025199625" lon="10.773022291194549"><ele>544.0</ele><time>2026-05-01T13:18:21.876Z</time></trkpt><trkpt lat="44.05660381233404" lon="10.772959687925441"><ele>541.0</ele><time>2026-05-01T13:18:22.876Z</time></trkpt><trkpt lat="44.05673252438415" lon="10.772897664103336"><ele>541.0</ele><time>2026-05-01T13:18:23.876Z</time></trkpt><trkpt lat="44.05683498775224" lon="10.772806774808329"><ele>541.0</ele><time>2026-05-01T13:18:24.876Z</time></trkpt><trkpt lat="44.056917370943076" lon="10.772691327096384"><ele>541.0</ele><time>2026-05-01T13:18:25.876Z</time></trkpt><trkpt lat="44.05697886879405" lon="10.772518732368868"><ele>541.0</ele><time>2026-05-01T13:18:26.876Z</time></trkpt><trkpt lat="44.057039553639896" lon="10.77232589074442"><ele>536.6666666666667</ele><time>2026-05-01T13:18:27.876Z</time></trkpt><trkpt lat="44.057107474202006" lon="10.772144676726821"><ele>532.3333333333334</ele><time>2026-05-01T13:18:28.876Z</time></trkpt><trkpt lat="44.05719441060492" lon="10.771966066787735"><ele>528.0</ele><time>2026-05-01T13:18:29.876Z</time></trkpt><trkpt lat="44.05729310412212" lon="10.771809842272503"><ele>527.0</ele><time>2026-05-01T13:18:30.875Z</time></trkpt><trkpt lat="44.05739571640016" lon="10.771660024067275"><ele>526.0</ele><time>2026-05-01T13:18:31.875Z</time></trkpt><trkpt lat="44.05747174237291" lon="10.7715343275992"><ele>525.0</ele><time>2026-05-01T13:18:32.875Z</time></trkpt><trkpt lat="44.05753824452234" lon="10.771420318510666"><ele>524.0</ele><time>2026-05-01T13:18:33.875Z</time></trkpt><trkpt lat="44.057590927937284" lon="10.771301886248873"><ele>524.0</ele><time>2026-05-01T13:18:34.875Z</time></trkpt><trkpt lat="44.0576147367216" lon="10.77117264241129"><ele>524.0</ele><time>2026-05-01T13:18:35.875Z</time></trkpt><trkpt lat="44.057605087835114" lon="10.771023534332206"><ele>524.0</ele><time>2026-05-01T13:18:36.875Z</time></trkpt><trkpt lat="44.05760626718651" lon="10.770863279505118"><ele>524.0</ele><time>2026-05-01T13:18:37.875Z</time></trkpt><trkpt lat="44.057631887941355" lon="10.770708839552608"><ele>524.0</ele><time>2026-05-01T13:18:38.875Z</time></trkpt><trkpt lat="44.057694204201816" lon="10.770572190508569"><ele>522.0</ele><time>2026-05-01T13:18:39.875Z</time></trkpt><trkpt lat="44.05779420773914" lon="10.770500468748725"><ele>520.0</ele><time>2026-05-01T13:18:40.875Z</time></trkpt><trkpt lat="44.05790128985532" lon="10.770423134716069"><ele>518.0</ele><time>2026-05-01T13:18:41.875Z</time></trkpt><trkpt lat="44.0580030558295" lon="10.770369871936724"><ele>516.0</ele><time>2026-05-01T13:18:42.875Z</time></trkpt><trkpt lat="44.058078881016684" lon="10.770274714540934"><ele>514.0</ele><time>2026-05-01T13:18:43.875Z</time></trkpt><trkpt lat="44.05810374029226" lon="10.770113164019842"><ele>511.0</ele><time>2026-05-01T13:18:44.875Z</time></trkpt><trkpt lat="44.0580911267567" lon="10.769937316639057"><ele>508.0</ele><time>2026-05-01T13:18:45.875Z</time></trkpt><trkpt lat="44.05804586343736" lon="10.769756738250006"><ele>505.0</ele><time>2026-05-01T13:18:46.875Z</time></trkpt><trkpt lat="44.05800630889856" lon="10.769587917220619"><ele>502.0</ele><time>2026-05-01T13:18:47.875Z</time></trkpt><trkpt lat="44.05800743512827" lon="10.769422328169146"><ele>497.25</ele><time>2026-05-01T13:18:48.875Z</time></trkpt><trkpt lat="44.058049670350556" lon="10.769268525374086"><ele>492.5</ele><time>2026-05-01T13:18:49.875Z</time></trkpt><trkpt lat="44.058088261737026" lon="10.769122915575796"><ele>487.75</ele><time>2026-05-01T13:18:50.875Z</time></trkpt><trkpt lat="44.058168386663866" lon="10.768997163156465"><ele>483.0</ele><time>2026-05-01T13:18:51.875Z</time></trkpt><trkpt lat="44.05827124090311" lon="10.76893566201403"><ele>489.25</ele><time>2026-05-01T13:18:52.875Z</time></trkpt><trkpt lat="44.05838390835896" lon="10.768872656947849"><ele>495.5</ele><time>2026-05-01T13:18:53.875Z</time></trkpt><trkpt lat="44.05851680174798" lon="10.76878605555144"><ele>501.75</ele><time>2026-05-01T13:18:54.875Z</time></trkpt><trkpt lat="44.05864302647657" lon="10.768672219029847"><ele>508.0</ele><time>2026-05-01T13:18:55.875Z</time></trkpt><trkpt lat="44.05875753725606" lon="10.768550701860345"><ele>506.33333333333337</ele><time>2026-05-01T13:18:56.875Z</time></trkpt><trkpt lat="44.058890033528975" lon="10.768433233667393"><ele>504.66666666666663</ele><time>2026-05-01T13:18:57.875Z</time></trkpt><trkpt lat="44.05900866788754" lon="10.768301316059356"><ele>503.0</ele><time>2026-05-01T13:18:58.875Z</time></trkpt><trkpt lat="44.05912150372817" lon="10.76817514573454"><ele>503.0</ele><time>2026-05-01T13:18:59.875Z</time></trkpt><trkpt lat="44.059212048698576" lon="10.768044361938783"><ele>503.0</ele><time>2026-05-01T13:19:00.875Z</time></trkpt><trkpt lat="44.05931522305265" lon="10.767965793082286"><ele>503.0</ele><time>2026-05-01T13:19:01.875Z</time></trkpt><trkpt lat="44.059404706136306" lon="10.767883734448084"><ele>503.0</ele><time>2026-05-01T13:19:02.875Z</time></trkpt><trkpt lat="44.059508770475894" lon="10.767860886641845"><ele>503.0</ele><time>2026-05-01T13:19:03.875Z</time></trkpt><trkpt lat="44.05961852043957" lon="10.767872514449307"><ele>503.0</ele><time>2026-05-01T13:19:04.875Z</time></trkpt><trkpt lat="44.05974797219551" lon="10.767907816425925"><ele>503.0</ele><time>2026-05-01T13:19:05.875Z</time></trkpt><trkpt lat="44.05988671565981" lon="10.767955111697464"><ele>503.0</ele><time>2026-05-01T13:19:06.875Z</time></trkpt><trkpt lat="44.060037176894596" lon="10.767994793581535"><ele>503.66666666666663</ele><time>2026-05-01T13:19:07.875Z</time></trkpt><trkpt lat="44.06020062628366" lon="10.768021067760417"><ele>504.33333333333337</ele><time>2026-05-01T13:19:08.875Z</time></trkpt><trkpt lat="44.06035779429425" lon="10.768086686681334"><ele>505.0</ele><time>2026-05-01T13:19:09.875Z</time></trkpt><trkpt lat="44.060512615157876" lon="10.768116641684454"><ele>505.0</ele><time>2026-05-01T13:19:10.875Z</time></trkpt><trkpt lat="44.060646664037996" lon="10.768165528236983"><ele>505.0</ele><time>2026-05-01T13:19:11.875Z</time></trkpt><trkpt lat="44.06078197720592" lon="10.768218720160865"><ele>505.0</ele><time>2026-05-01T13:19:12.875Z</time></trkpt><trkpt lat="44.0609010633873" lon="10.768275762625704"><ele>505.0</ele><time>2026-05-01T13:19:13.875Z</time></trkpt><trkpt lat="44.06101597223902" lon="10.768260543129479"><ele>501.0</ele><time>2026-05-01T13:19:14.875Z</time></trkpt><trkpt lat="44.061119465282125" lon="10.768245620606912"><ele>497.0</ele><time>2026-05-01T13:19:15.875Z</time></trkpt><trkpt lat="44.06120362647915" lon="10.768126161886071"><ele>493.0</ele><time>2026-05-01T13:19:16.875Z</time></trkpt><trkpt lat="44.06129992867183" lon="10.768018461118796"><ele>489.0</ele><time>2026-05-01T13:19:17.875Z</time></trkpt><trkpt lat="44.0613954094543" lon="10.767884942320876"><ele>489.0</ele><time>2026-05-01T13:19:18.875Z</time></trkpt><trkpt lat="44.06149411004852" lon="10.76775075143511"><ele>489.0</ele><time>2026-05-01T13:19:19.875Z</time></trkpt><trkpt lat="44.0615907809073" lon="10.767621225222008"><ele>489.0</ele><time>2026-05-01T13:19:20.875Z</time></trkpt><trkpt lat="44.06168939411192" lon="10.767479180605541"><ele>489.0</ele><time>2026-05-01T13:19:21.875Z</time></trkpt><trkpt lat="44.06178040634787" lon="10.767317123406382"><ele>485.5</ele><time>2026-05-01T13:19:22.875Z</time></trkpt><trkpt lat="44.061836326599824" lon="10.76712205677168"><ele>482.0</ele><time>2026-05-01T13:19:23.875Z</time></trkpt><trkpt lat="44.061912001355395" lon="10.766949588260905"><ele>478.5</ele><time>2026-05-01T13:19:24.875Z</time></trkpt><trkpt lat="44.06197611882344" lon="10.766780925951556"><ele>475.0</ele><time>2026-05-01T13:19:25.876Z</time></trkpt><trkpt lat="44.06205283629786" lon="10.766638083547292"><ele>471.0</ele><time>2026-05-01T13:19:26.876Z</time></trkpt><trkpt lat="44.06213939321614" lon="10.766493808441497"><ele>467.0</ele><time>2026-05-01T13:19:27.876Z</time></trkpt><trkpt lat="44.06221751573824" lon="10.766338275853391"><ele>463.0</ele><time>2026-05-01T13:19:28.875Z</time></trkpt><trkpt lat="44.062303107749216" lon="10.76620171087268"><ele>459.0</ele><time>2026-05-01T13:19:29.875Z</time></trkpt><trkpt lat="44.06239659211627" lon="10.76610381910591"><ele>463.0</ele><time>2026-05-01T13:19:30.875Z</time></trkpt><trkpt lat="44.0625109278901" lon="10.766079181857947"><ele>467.0</ele><time>2026-05-01T13:19:31.876Z</time></trkpt><trkpt lat="44.06262870036938" lon="10.76609302528073"><ele>471.0</ele><time>2026-05-01T13:19:32.875Z</time></trkpt><trkpt lat="44.06273737205844" lon="10.766175367469325"><ele>475.0</ele><time>2026-05-01T13:19:33.875Z</time></trkpt><trkpt lat="44.06281891020056" lon="10.766287466816788"><ele>475.0</ele><time>2026-05-01T13:19:34.875Z</time></trkpt><trkpt lat="44.06287379253782" lon="10.76644794414282"><ele>475.0</ele><time>2026-05-01T13:19:35.875Z</time></trkpt><trkpt lat="44.06295041885543" lon="10.76661684088108"><ele>475.0</ele><time>2026-05-01T13:19:36.875Z</time></trkpt><trkpt lat="44.06304249238301" lon="10.76679508239022"><ele>475.0</ele><time>2026-05-01T13:19:37.875Z</time></trkpt><trkpt lat="44.063112194122546" lon="10.766947577681956"><ele>475.5</ele><time>2026-05-01T13:19:38.875Z</time></trkpt><trkpt lat="44.06320479273979" lon="10.767089858937538"><ele>476.0</ele><time>2026-05-01T13:19:39.875Z</time></trkpt><trkpt lat="44.06329842613471" lon="10.767223795688736"><ele>476.5</ele><time>2026-05-01T13:19:40.875Z</time></trkpt><trkpt lat="44.06339985762924" lon="10.767321461356854"><ele>477.0</ele><time>2026-05-01T13:19:41.875Z</time></trkpt><trkpt lat="44.063502024943695" lon="10.767378987528195"><ele>477.0</ele><time>2026-05-01T13:19:42.875Z</time></trkpt><trkpt lat="44.063619009694214" lon="10.767394284435039"><ele>477.0</ele><time>2026-05-01T13:19:43.875Z</time></trkpt><trkpt lat="44.063749378013455" lon="10.767372624422121"><ele>477.0</ele><time>2026-05-01T13:19:44.875Z</time></trkpt><trkpt lat="44.06385695885493" lon="10.767297633825107"><ele>477.0</ele><time>2026-05-01T13:19:45.875Z</time></trkpt><trkpt lat="44.06393575239074" lon="10.767196374082145"><ele>477.0</ele><time>2026-05-01T13:19:46.875Z</time></trkpt><trkpt lat="44.06401203052226" lon="10.767088143777553"><ele>477.00000000000006</ele><time>2026-05-01T13:19:47.875Z</time></trkpt><trkpt lat="44.06408250070445" lon="10.766992895848706"><ele>477.00000000000006</ele><time>2026-05-01T13:19:48.875Z</time></trkpt><trkpt lat="44.0641464739745" lon="10.766893989162746"><ele>477.0</ele><time>2026-05-01T13:19:49.875Z</time></trkpt><trkpt lat="44.064215679239496" lon="10.766799937107407"><ele>477.0</ele><time>2026-05-01T13:19:50.875Z</time></trkpt><trkpt lat="44.06426631071509" lon="10.76668741199367"><ele>471.75</ele><time>2026-05-01T13:19:51.875Z</time></trkpt><trkpt lat="44.06435256141421" lon="10.766608720034517"><ele>466.5</ele><time>2026-05-01T13:19:52.875Z</time></trkpt><trkpt lat="44.064479572274855" lon="10.766623217453983"><ele>461.25</ele><time>2026-05-01T13:19:53.875Z</time></trkpt><trkpt lat="44.064624618330825" lon="10.766614222211217"><ele>456.0</ele><time>2026-05-01T13:19:54.875Z</time></trkpt><trkpt lat="44.06477888702395" lon="10.766609545836111"><ele>456.0</ele><time>2026-05-01T13:19:55.875Z</time></trkpt><trkpt lat="44.06493929008118" lon="10.76660791951947"><ele>456.0</ele><time>2026-05-01T13:19:56.875Z</time></trkpt><trkpt lat="44.065067075553294" lon="10.766594706784339"><ele>456.0</ele><time>2026-05-01T13:19:57.875Z</time></trkpt><trkpt lat="44.06515218417105" lon="10.766528451774567"><ele>456.0</ele><time>2026-05-01T13:19:58.875Z</time></trkpt><trkpt lat="44.06523256974424" lon="10.766478186487666"><ele>456.75</ele><time>2026-05-01T13:19:59.875Z</time></trkpt><trkpt lat="44.06527356600381" lon="10.766309750206473"><ele>457.5</ele><time>2026-05-01T13:20:00.875Z</time></trkpt><trkpt lat="44.065273581529006" lon="10.766130813558808"><ele>458.25</ele><time>2026-05-01T13:20:01.875Z</time></trkpt><trkpt lat="44.06529674525093" lon="10.765937344372173"><ele>459.0</ele><time>2026-05-01T13:20:02.875Z</time></trkpt><trkpt lat="44.065334613537864" lon="10.765746693066772"><ele>459.5</ele><time>2026-05-01T13:20:03.875Z</time></trkpt><trkpt lat="44.06539962067592" lon="10.765589925647273"><ele>460.0</ele><time>2026-05-01T13:20:04.875Z</time></trkpt><trkpt lat="44.065537918928456" lon="10.765495576807158"><ele>460.5</ele><time>2026-05-01T13:20:05.875Z</time></trkpt><trkpt lat="44.06567632077203" lon="10.765377148287712"><ele>461.0</ele><time>2026-05-01T13:20:06.875Z</time></trkpt><trkpt lat="44.06583029945121" lon="10.765283078800326"><ele>474.3333333333333</ele><time>2026-05-01T13:20:07.875Z</time></trkpt><trkpt lat="44.065990603154276" lon="10.765163480281855"><ele>487.66666666666663</ele><time>2026-05-01T13:20:08.875Z</time></trkpt><trkpt lat="44.0661544895215" lon="10.765078855831714"><ele>501.0</ele><time>2026-05-01T13:20:09.875Z</time></trkpt><trkpt lat="44.066293367973365" lon="10.76500875016715"><ele>501.0</ele><time>2026-05-01T13:20:10.875Z</time></trkpt><trkpt lat="44.066453222135266" lon="10.765021105034501"><ele>501.0</ele><time>2026-05-01T13:20:11.875Z</time></trkpt><trkpt lat="44.066636973165714" lon="10.76502008776109"><ele>501.0</ele><time>2026-05-01T13:20:12.875Z</time></trkpt><trkpt lat="44.06682779966028" lon="10.765019390134064"><ele>495.33333333333337</ele><time>2026-05-01T13:20:13.875Z</time></trkpt><trkpt lat="44.067027812355384" lon="10.764993597008438"><ele>489.6666666666667</ele><time>2026-05-01T13:20:14.875Z</time></trkpt><trkpt lat="44.06723620821603" lon="10.764991445404563"><ele>484.0</ele><time>2026-05-01T13:20:15.875Z</time></trkpt><trkpt lat="44.0674411917596" lon="10.764985105289973"><ele>482.6666666666667</ele><time>2026-05-01T13:20:16.875Z</time></trkpt><trkpt lat="44.067643236979045" lon="10.764985133572742"><ele>481.33333333333337</ele><time>2026-05-01T13:20:17.875Z</time></trkpt><trkpt lat="44.06784762708673" lon="10.765015046391252"><ele>480.0</ele><time>2026-05-01T13:20:18.875Z</time></trkpt><trkpt lat="44.068055554980724" lon="10.765106593130044"><ele>480.0</ele><time>2026-05-01T13:20:19.875Z</time></trkpt><trkpt lat="44.06826407666995" lon="10.765144052408118"><ele>480.0</ele><time>2026-05-01T13:20:20.875Z</time></trkpt><trkpt lat="44.06847383526438" lon="10.765134079982866"><ele>480.0</ele><time>2026-05-01T13:20:21.875Z</time></trkpt><trkpt lat="44.068665270610836" lon="10.765096290291147"><ele>484.33333333333337</ele><time>2026-05-01T13:20:22.875Z</time></trkpt><trkpt lat="44.06885768737969" lon="10.765058575767089"><ele>488.6666666666667</ele><time>2026-05-01T13:20:23.875Z</time></trkpt><trkpt lat="44.0690351349158" lon="10.765079628606134"><ele>493.0</ele><time>2026-05-01T13:20:24.875Z</time></trkpt><trkpt lat="44.06919710072248" lon="10.76514142264707"><ele>487.6666666666667</ele><time>2026-05-01T13:20:25.875Z</time></trkpt><trkpt lat="44.06935453819386" lon="10.765242739653631"><ele>482.33333333333337</ele><time>2026-05-01T13:20:26.875Z</time></trkpt><trkpt lat="44.06952202882696" lon="10.765342683683789"><ele>477.0</ele><time>2026-05-01T13:20:27.875Z</time></trkpt><trkpt lat="44.069727614497474" lon="10.765423545862543"><ele>477.0</ele><time>2026-05-01T13:20:28.875Z</time></trkpt><trkpt lat="44.069895006945345" lon="10.765471990215916"><ele>477.0</ele><time>2026-05-01T13:20:29.875Z</time></trkpt><trkpt lat="44.07005205501125" lon="10.765536540279388"><ele>477.0</ele><time>2026-05-01T13:20:30.875Z</time></trkpt><trkpt lat="44.07019750770132" lon="10.76560764322498"><ele>477.8</ele><time>2026-05-01T13:20:31.874Z</time></trkpt><trkpt lat="44.070335923059304" lon="10.765673718075245"><ele>478.6</ele><time>2026-05-01T13:20:32.874Z</time></trkpt><trkpt lat="44.07043166841865" lon="10.76571532603373"><ele>479.40000000000003</ele><time>2026-05-01T13:20:33.874Z</time></trkpt><trkpt lat="44.070532769434" lon="10.765704677528324"><ele>480.20000000000005</ele><time>2026-05-01T13:20:34.874Z</time></trkpt><trkpt lat="44.070613729928176" lon="10.765623335251044"><ele>481.0</ele><time>2026-05-01T13:20:35.874Z</time></trkpt><trkpt lat="44.07069358917427" lon="10.765501905714979"><ele>481.0</ele><time>2026-05-01T13:20:36.874Z</time></trkpt><trkpt lat="44.07074894371609" lon="10.765338189821788"><ele>481.0</ele><time>2026-05-01T13:20:37.874Z</time></trkpt><trkpt lat="44.07084260068479" lon="10.765192022087161"><ele>481.0</ele><time>2026-05-01T13:20:38.874Z</time></trkpt><trkpt lat="44.07094235231977" lon="10.765048627609236"><ele>481.0</ele><time>2026-05-01T13:20:39.874Z</time></trkpt><trkpt lat="44.07103807211352" lon="10.764923289592353"><ele>482.0</ele><time>2026-05-01T13:20:40.874Z</time></trkpt><trkpt lat="44.07116265480314" lon="10.764850359521557"><ele>483.0</ele><time>2026-05-01T13:20:41.874Z</time></trkpt><trkpt lat="44.071289469605794" lon="10.764808719123586"><ele>484.0</ele><time>2026-05-01T13:20:42.874Z</time></trkpt><trkpt lat="44.07144431097814" lon="10.764773229060063"><ele>485.0</ele><time>2026-05-01T13:20:43.874Z</time></trkpt><trkpt lat="44.07160277058089" lon="10.764744264356477"><ele>485.5</ele><time>2026-05-01T13:20:44.874Z</time></trkpt><trkpt lat="44.07174436923905" lon="10.764713066772806"><ele>486.0</ele><time>2026-05-01T13:20:45.874Z</time></trkpt><trkpt lat="44.071890251459514" lon="10.764698505675023"><ele>486.5</ele><time>2026-05-01T13:20:46.874Z</time></trkpt><trkpt lat="44.07203215152002" lon="10.76473418119974"><ele>487.0</ele><time>2026-05-01T13:20:47.874Z</time></trkpt><trkpt lat="44.07215559512716" lon="10.764844777849673"><ele>487.0</ele><time>2026-05-01T13:20:48.874Z</time></trkpt><trkpt lat="44.072256190309815" lon="10.765041531937456"><ele>487.0</ele><time>2026-05-01T13:20:49.874Z</time></trkpt><trkpt lat="44.0723791132458" lon="10.765261648173224"><ele>487.0</ele><time>2026-05-01T13:20:50.874Z</time></trkpt><trkpt lat="44.072505287589266" lon="10.76548753106933"><ele>489.0</ele><time>2026-05-01T13:20:51.874Z</time></trkpt><trkpt lat="44.07262131737661" lon="10.76569551406849"><ele>491.0</ele><time>2026-05-01T13:20:52.874Z</time></trkpt><trkpt lat="44.07271082531535" lon="10.765867647879286"><ele>493.0</ele><time>2026-05-01T13:20:53.874Z</time></trkpt><trkpt lat="44.07279003267768" lon="10.76604276677172"><ele>494.0</ele><time>2026-05-01T13:20:54.874Z</time></trkpt><trkpt lat="44.072864449538685" lon="10.76622638030155"><ele>495.0</ele><time>2026-05-01T13:20:55.874Z</time></trkpt><trkpt lat="44.0729308877637" lon="10.766398735484861"><ele>496.0</ele><time>2026-05-01T13:20:56.874Z</time></trkpt><trkpt lat="44.07300810537917" lon="10.76651821252249"><ele>497.0</ele><time>2026-05-01T13:20:57.874Z</time></trkpt><trkpt lat="44.07309225249111" lon="10.766597984953876"><ele>497.0</ele><time>2026-05-01T13:20:58.874Z</time></trkpt><trkpt lat="44.07319911078413" lon="10.766639470256552"><ele>497.0</ele><time>2026-05-01T13:20:59.874Z</time></trkpt><trkpt lat="44.073338268906056" lon="10.766719486267625"><ele>497.0</ele><time>2026-05-01T13:21:00.874Z</time></trkpt><trkpt lat="44.07349680272875" lon="10.766773272404125"><ele>497.0</ele><time>2026-05-01T13:21:01.874Z</time></trkpt><trkpt lat="44.073672439637534" lon="10.766800103483085"><ele>497.66666666666663</ele><time>2026-05-01T13:21:02.874Z</time></trkpt><trkpt lat="44.07384127194672" lon="10.76687128126008"><ele>498.33333333333337</ele><time>2026-05-01T13:21:03.874Z</time></trkpt><trkpt lat="44.07399371648582" lon="10.766957456983736"><ele>499.0</ele><time>2026-05-01T13:21:04.874Z</time></trkpt><trkpt lat="44.07413102647818" lon="10.767078824488001"><ele>500.33333333333337</ele><time>2026-05-01T13:21:05.874Z</time></trkpt><trkpt lat="44.07428067113236" lon="10.767174627151702"><ele>501.66666666666663</ele><time>2026-05-01T13:21:06.874Z</time></trkpt><trkpt lat="44.074458049447095" lon="10.767243874184238"><ele>503.0</ele><time>2026-05-01T13:21:07.874Z</time></trkpt><trkpt lat="44.07464821718679" lon="10.767288617254167"><ele>503.0</ele><time>2026-05-01T13:21:08.874Z</time></trkpt><trkpt lat="44.074850532669416" lon="10.767344418173394"><ele>503.0</ele><time>2026-05-01T13:21:09.874Z</time></trkpt><trkpt lat="44.075036583257585" lon="10.767419003214071"><ele>503.0</ele><time>2026-05-01T13:21:10.874Z</time></trkpt><trkpt lat="44.07520985936747" lon="10.767487163994533"><ele>505.3333333333333</ele><time>2026-05-01T13:21:11.874Z</time></trkpt><trkpt lat="44.075378069349185" lon="10.767560306945661"><ele>507.66666666666663</ele><time>2026-05-01T13:21:12.874Z</time></trkpt><trkpt lat="44.075540083461625" lon="10.767632013046654"><ele>510.0</ele><time>2026-05-01T13:21:13.874Z</time></trkpt><trkpt lat="44.07569570640199" lon="10.767672441387898"><ele>515.3333333333334</ele><time>2026-05-01T13:21:14.874Z</time></trkpt><trkpt lat="44.075870004476755" lon="10.767679422337766"><ele>520.6666666666667</ele><time>2026-05-01T13:21:15.874Z</time></trkpt><trkpt lat="44.076060342078506" lon="10.767658046943678"><ele>526.0</ele><time>2026-05-01T13:21:16.874Z</time></trkpt><trkpt lat="44.07625753763912" lon="10.767643155930735"><ele>526.0</ele><time>2026-05-01T13:21:17.874Z</time></trkpt><trkpt lat="44.07644543752954" lon="10.767622085449077"><ele>526.0</ele><time>2026-05-01T13:21:18.874Z</time></trkpt><trkpt lat="44.076636837798816" lon="10.76759160388171"><ele>526.0</ele><time>2026-05-01T13:21:19.874Z</time></trkpt><trkpt lat="44.07683179539265" lon="10.767548445395976"><ele>529.3333333333334</ele><time>2026-05-01T13:21:20.874Z</time></trkpt><trkpt lat="44.07701838621142" lon="10.767499175709114"><ele>532.6666666666666</ele><time>2026-05-01T13:21:21.874Z</time></trkpt><trkpt lat="44.077213036761" lon="10.767446043651972"><ele>536.0</ele><time>2026-05-01T13:21:22.874Z</time></trkpt><trkpt lat="44.07740690986321" lon="10.767409474601815"><ele>530.3333333333333</ele><time>2026-05-01T13:21:23.874Z</time></trkpt><trkpt lat="44.07759634907847" lon="10.767374766481995"><ele>524.6666666666666</ele><time>2026-05-01T13:21:24.874Z</time></trkpt><trkpt lat="44.07779668924359" lon="10.767365230902433"><ele>519.0</ele><time>2026-05-01T13:21:25.874Z</time></trkpt><trkpt lat="44.07801086256634" lon="10.767394662512174"><ele>519.0</ele><time>2026-05-01T13:21:26.874Z</time></trkpt><trkpt lat="44.07821509931209" lon="10.767449334279691"><ele>519.0</ele><time>2026-05-01T13:21:27.874Z</time></trkpt><trkpt lat="44.07838659209696" lon="10.767495049492073"><ele>519.0</ele><time>2026-05-01T13:21:28.874Z</time></trkpt><trkpt lat="44.078533173958114" lon="10.767532867809933"><ele>519.25</ele><time>2026-05-01T13:21:29.874Z</time></trkpt><trkpt lat="44.07868815137621" lon="10.767595189426887"><ele>519.5</ele><time>2026-05-01T13:21:30.874Z</time></trkpt><trkpt lat="44.07882859942409" lon="10.767656436446913"><ele>519.75</ele><time>2026-05-01T13:21:31.874Z</time></trkpt><trkpt lat="44.078962488617314" lon="10.767688628997504"><ele>520.0</ele><time>2026-05-01T13:21:32.875Z</time></trkpt><trkpt lat="44.079082456030704" lon="10.767677110321584"><ele>520.25</ele><time>2026-05-01T13:21:33.875Z</time></trkpt><trkpt lat="44.07919517775409" lon="10.76759972985507"><ele>520.5</ele><time>2026-05-01T13:21:34.875Z</time></trkpt><trkpt lat="44.079312423295036" lon="10.76749611903361"><ele>520.75</ele><time>2026-05-01T13:21:35.874Z</time></trkpt><trkpt lat="44.07944884541692" lon="10.767375560720355"><ele>521.0</ele><time>2026-05-01T13:21:36.874Z</time></trkpt><trkpt lat="44.07960335209912" lon="10.76725840193989"><ele>521.0</ele><time>2026-05-01T13:21:37.874Z</time></trkpt><trkpt lat="44.07975069331573" lon="10.767140038944406"><ele>521.0</ele><time>2026-05-01T13:21:38.875Z</time></trkpt><trkpt lat="44.07990670614445" lon="10.767009508193503"><ele>521.0</ele><time>2026-05-01T13:21:39.875Z</time></trkpt><trkpt lat="44.080056853502875" lon="10.76687336917006"><ele>533.0</ele><time>2026-05-01T13:21:40.874Z</time></trkpt><trkpt lat="44.080200799240544" lon="10.76672323559851"><ele>545.0</ele><time>2026-05-01T13:21:41.875Z</time></trkpt><trkpt lat="44.080338822974085" lon="10.766558762067277"><ele>557.0</ele><time>2026-05-01T13:21:42.874Z</time></trkpt><trkpt lat="44.08048418436959" lon="10.766391098554621"><ele>557.0</ele><time>2026-05-01T13:21:43.875Z</time></trkpt><trkpt lat="44.080634079288814" lon="10.766230055398466"><ele>557.0</ele><time>2026-05-01T13:21:44.874Z</time></trkpt><trkpt lat="44.080776099518424" lon="10.76608624322221"><ele>557.0</ele><time>2026-05-01T13:21:45.874Z</time></trkpt><trkpt lat="44.080902776912595" lon="10.765957518346893"><ele>559.3333333333333</ele><time>2026-05-01T13:21:46.874Z</time></trkpt><trkpt lat="44.0810297132979" lon="10.765844084251805"><ele>561.6666666666666</ele><time>2026-05-01T13:21:47.874Z</time></trkpt><trkpt lat="44.081175403584595" lon="10.76576390642994"><ele>564.0</ele><time>2026-05-01T13:21:48.874Z</time></trkpt><trkpt lat="44.08132556180977" lon="10.765737615806337"><ele>564.0</ele><time>2026-05-01T13:21:49.874Z</time></trkpt><trkpt lat="44.08147330502218" lon="10.765737078536413"><ele>564.0</ele><time>2026-05-01T13:21:50.875Z</time></trkpt><trkpt lat="44.081610031589626" lon="10.765755687013348"><ele>564.0</ele><time>2026-05-01T13:21:51.875Z</time></trkpt><trkpt lat="44.08172028621108" lon="10.765746537677346"><ele>564.0</ele><time>2026-05-01T13:21:52.875Z</time></trkpt><trkpt lat="44.081843464420054" lon="10.76576326259818"><ele>561.0</ele><time>2026-05-01T13:21:53.875Z</time></trkpt><trkpt lat="44.08191319197934" lon="10.765793757235969"><ele>558.0</ele><time>2026-05-01T13:21:54.875Z</time></trkpt><trkpt lat="44.08197875732506" lon="10.765822245604971"><ele>555.0</ele><time>2026-05-01T13:21:55.875Z</time></trkpt><trkpt lat="44.082041736709186" lon="10.76584539498063"><ele>552.0</ele><time>2026-05-01T13:21:56.875Z</time></trkpt><trkpt lat="44.08248241838617" lon="10.765633572256629"><ele>551.3333333333334</ele><time>2026-05-01T13:21:57.875Z</time></trkpt><trkpt lat="44.082620046297286" lon="10.765558482888762"><ele>550.6666666666667</ele><time>2026-05-01T13:21:58.875Z</time></trkpt><trkpt lat="44.08274768721118" lon="10.765453838515498"><ele>550.0</ele><time>2026-05-01T13:21:59.875Z</time></trkpt><trkpt lat="44.08287413374412" lon="10.765329443568383"><ele>560.6666666666667</ele><time>2026-05-01T13:22:00.875Z</time></trkpt><trkpt lat="44.08299925629706" lon="10.765169709907441"><ele>571.3333333333334</ele><time>2026-05-01T13:22:01.875Z</time></trkpt><trkpt lat="44.083110954485214" lon="10.76498757899617"><ele>582.0</ele><time>2026-05-01T13:22:02.875Z</time></trkpt><trkpt lat="44.08320370244817" lon="10.764778829652082"><ele>576.6666666666666</ele><time>2026-05-01T13:22:03.875Z</time></trkpt><trkpt lat="44.08328393603569" lon="10.76454828986243"><ele>571.3333333333333</ele><time>2026-05-01T13:22:04.875Z</time></trkpt><trkpt lat="44.083383397060906" lon="10.764324068072701"><ele>566.0</ele><time>2026-05-01T13:22:05.875Z</time></trkpt><trkpt lat="44.0834867170906" lon="10.76412701924532"><ele>566.0</ele><time>2026-05-01T13:22:06.875Z</time></trkpt><trkpt lat="44.08359419354373" lon="10.763944142250805"><ele>566.0</ele><time>2026-05-01T13:22:07.875Z</time></trkpt><trkpt lat="44.08372165145731" lon="10.763787589381238"><ele>566.0</ele><time>2026-05-01T13:22:08.875Z</time></trkpt><trkpt lat="44.08383570553211" lon="10.76364778978432"><ele>566.0</ele><time>2026-05-01T13:22:09.875Z</time></trkpt><trkpt lat="44.08397415033503" lon="10.763583027275224"><ele>566.0</ele><time>2026-05-01T13:22:10.875Z</time></trkpt><trkpt lat="44.08411190370336" lon="10.763559899947673"><ele>566.0</ele><time>2026-05-01T13:22:11.875Z</time></trkpt><trkpt lat="44.084288582837324" lon="10.763507767802475"><ele>569.6666666666666</ele><time>2026-05-01T13:22:12.875Z</time></trkpt><trkpt lat="44.08449654481216" lon="10.76344253554511"><ele>573.3333333333334</ele><time>2026-05-01T13:22:13.876Z</time></trkpt><trkpt lat="44.0847021518241" lon="10.763385683265167"><ele>577.0</ele><time>2026-05-01T13:22:14.876Z</time></trkpt><trkpt lat="44.084915836713584" lon="10.763343530299753"><ele>573.3333333333334</ele><time>2026-05-01T13:22:15.876Z</time></trkpt><trkpt lat="44.08511022460448" lon="10.763312745007443"><ele>569.6666666666666</ele><time>2026-05-01T13:22:16.876Z</time></trkpt><trkpt lat="44.08529449461039" lon="10.763292405493969"><ele>566.0</ele><time>2026-05-01T13:22:17.876Z</time></trkpt><trkpt lat="44.08546447950508" lon="10.763265619863871"><ele>566.0</ele><time>2026-05-01T13:22:18.876Z</time></trkpt><trkpt lat="44.08563029468963" lon="10.763222276188078"><ele>566.0</ele><time>2026-05-01T13:22:19.876Z</time></trkpt><trkpt lat="44.08579045910217" lon="10.763137812797206"><ele>566.0</ele><time>2026-05-01T13:22:20.876Z</time></trkpt><trkpt lat="44.085957079669186" lon="10.763040715707014"><ele>560.0</ele><time>2026-05-01T13:22:21.876Z</time></trkpt><trkpt lat="44.086136006179544" lon="10.762945851980597"><ele>554.0</ele><time>2026-05-01T13:22:22.876Z</time></trkpt><trkpt lat="44.08631188521804" lon="10.762840205827198"><ele>548.0</ele><time>2026-05-01T13:22:23.876Z</time></trkpt><trkpt lat="44.0864906679493" lon="10.76273281534963"><ele>552.3333333333333</ele><time>2026-05-01T13:22:24.876Z</time></trkpt><trkpt lat="44.08666839375767" lon="10.762605346291396"><ele>556.6666666666666</ele><time>2026-05-01T13:22:25.876Z</time></trkpt><trkpt lat="44.086847420782576" lon="10.762501309700825"><ele>561.0</ele><time>2026-05-01T13:22:26.876Z</time></trkpt><trkpt lat="44.08701363169631" lon="10.76239764849786"><ele>561.0</ele><time>2026-05-01T13:22:27.876Z</time></trkpt><trkpt lat="44.08718679417393" lon="10.762265363891874"><ele>561.0</ele><time>2026-05-01T13:22:28.876Z</time></trkpt><trkpt lat="44.087353554929" lon="10.762101211664657"><ele>561.0</ele><time>2026-05-01T13:22:29.876Z</time></trkpt><trkpt lat="44.08752416379316" lon="10.761919425541661"><ele>563.3333333333334</ele><time>2026-05-01T13:22:30.876Z</time></trkpt><trkpt lat="44.087695632172206" lon="10.76173964040613"><ele>565.6666666666667</ele><time>2026-05-01T13:22:31.876Z</time></trkpt><trkpt lat="44.08786662280887" lon="10.761567506153941"><ele>568.0</ele><time>2026-05-01T13:22:32.876Z</time></trkpt><trkpt lat="44.088044097136745" lon="10.761397533419347"><ele>568.0</ele><time>2026-05-01T13:22:33.876Z</time></trkpt><trkpt lat="44.08821518552219" lon="10.761208183291725"><ele>568.0</ele><time>2026-05-01T13:22:34.876Z</time></trkpt><trkpt lat="44.08837693352181" lon="10.760999328121294"><ele>568.0</ele><time>2026-05-01T13:22:35.876Z</time></trkpt><trkpt lat="44.08853749181856" lon="10.760752551637117"><ele>565.0</ele><time>2026-05-01T13:22:36.876Z</time></trkpt><trkpt lat="44.08869562807271" lon="10.76048427005212"><ele>562.0</ele><time>2026-05-01T13:22:37.876Z</time></trkpt><trkpt lat="44.0888431825788" lon="10.760242942600689"><ele>560.3333333333334</ele><time>2026-05-01T13:22:38.876Z</time></trkpt><trkpt lat="44.08897695491982" lon="10.760033984806961"><ele>558.6666666666666</ele><time>2026-05-01T13:22:39.876Z</time></trkpt><trkpt lat="44.08910568815231" lon="10.759834207537079"><ele>557.0</ele><time>2026-05-01T13:22:40.876Z</time></trkpt><trkpt lat="44.08925420806415" lon="10.759653933304419"><ele>557.0</ele><time>2026-05-01T13:22:41.876Z</time></trkpt><trkpt lat="44.08940126848717" lon="10.759466112519624"><ele>557.0</ele><time>2026-05-01T13:22:42.876Z</time></trkpt><trkpt lat="44.08953153148295" lon="10.759322475878722"><ele>557.0</ele><time>2026-05-01T13:22:43.876Z</time></trkpt><trkpt lat="44.08966895569251" lon="10.759221993255117"><ele>558.3333333333333</ele><time>2026-05-01T13:22:44.876Z</time></trkpt><trkpt lat="44.08981687774448" lon="10.759127624179419"><ele>559.6666666666666</ele><time>2026-05-01T13:22:45.876Z</time></trkpt><trkpt lat="44.0899654523339" lon="10.759015542979595"><ele>561.0</ele><time>2026-05-01T13:22:46.876Z</time></trkpt><trkpt lat="44.09012133836971" lon="10.758902097260922"><ele>561.0</ele><time>2026-05-01T13:22:47.876Z</time></trkpt><trkpt lat="44.090264168455455" lon="10.758790061784127"><ele>561.0</ele><time>2026-05-01T13:22:48.876Z</time></trkpt><trkpt lat="44.09039867661102" lon="10.75866890512307"><ele>561.0</ele><time>2026-05-01T13:22:49.876Z</time></trkpt><trkpt lat="44.09051963847837" lon="10.758509335146542"><ele>564.0</ele><time>2026-05-01T13:22:50.876Z</time></trkpt><trkpt lat="44.090617747688455" lon="10.75833316566359"><ele>567.0</ele><time>2026-05-01T13:22:51.876Z</time></trkpt><trkpt lat="44.090724738308445" lon="10.758146758297247"><ele>570.0</ele><time>2026-05-01T13:22:52.876Z</time></trkpt><trkpt lat="44.09087935187066" lon="10.75806146557733"><ele>570.0</ele><time>2026-05-01T13:22:53.875Z</time></trkpt><trkpt lat="44.091052147668265" lon="10.757966911572163"><ele>570.0</ele><time>2026-05-01T13:22:54.875Z</time></trkpt><trkpt lat="44.09122945076613" lon="10.757865452694885"><ele>570.0</ele><time>2026-05-01T13:22:55.875Z</time></trkpt><trkpt lat="44.09140830878024" lon="10.75777078196913"><ele>574.6666666666666</ele><time>2026-05-01T13:22:56.875Z</time></trkpt><trkpt lat="44.09158938496723" lon="10.757667417871527"><ele>579.3333333333333</ele><time>2026-05-01T13:22:57.875Z</time></trkpt><trkpt lat="44.091758131040166" lon="10.757572851097702"><ele>584.0</ele><time>2026-05-01T13:22:58.875Z</time></trkpt><trkpt lat="44.091917245906735" lon="10.7574930600006"><ele>584.0</ele><time>2026-05-01T13:22:59.875Z</time></trkpt><trkpt lat="44.09207183933515" lon="10.757474724327537"><ele>584.0</ele><time>2026-05-01T13:23:00.875Z</time></trkpt><trkpt lat="44.09222757845282" lon="10.757454515187607"><ele>584.0</ele><time>2026-05-01T13:23:01.875Z</time></trkpt><trkpt lat="44.092384755886386" lon="10.757515742194897"><ele>582.0</ele><time>2026-05-01T13:23:02.875Z</time></trkpt><trkpt lat="44.09254522788311" lon="10.757540758423936"><ele>580.0</ele><time>2026-05-01T13:23:03.875Z</time></trkpt><trkpt lat="44.092699749192725" lon="10.757576841404214"><ele>578.0</ele><time>2026-05-01T13:23:04.875Z</time></trkpt><trkpt lat="44.09286058487179" lon="10.757594372933054"><ele>578.0</ele><time>2026-05-01T13:23:05.875Z</time></trkpt><trkpt lat="44.09302790943014" lon="10.757563746891043"><ele>578.0</ele><time>2026-05-01T13:23:06.875Z</time></trkpt><trkpt lat="44.093201815669595" lon="10.757507054546034"><ele>578.0</ele><time>2026-05-01T13:23:07.875Z</time></trkpt><trkpt lat="44.093385966279016" lon="10.757448450722848"><ele>579.3333333333333</ele><time>2026-05-01T13:23:08.875Z</time></trkpt><trkpt lat="44.09358182480416" lon="10.75738948293638"><ele>580.6666666666666</ele><time>2026-05-01T13:23:09.875Z</time></trkpt><trkpt lat="44.093770334747596" lon="10.757341081750415"><ele>582.0</ele><time>2026-05-01T13:23:10.875Z</time></trkpt><trkpt lat="44.09396002179827" lon="10.757294757702741"><ele>581.6666666666666</ele><time>2026-05-01T13:23:11.875Z</time></trkpt><trkpt lat="44.094146216731005" lon="10.7572470164056"><ele>581.3333333333333</ele><time>2026-05-01T13:23:12.875Z</time></trkpt><trkpt lat="44.09431977481176" lon="10.757193415325775"><ele>581.0</ele><time>2026-05-01T13:23:13.875Z</time></trkpt><trkpt lat="44.09448068258789" lon="10.757121500273472"><ele>581.0</ele><time>2026-05-01T13:23:14.875Z</time></trkpt><trkpt lat="44.0946166400121" lon="10.757035877009578"><ele>581.0</ele><time>2026-05-01T13:23:15.875Z</time></trkpt><trkpt lat="44.094728423650395" lon="10.75691890249044"><ele>581.0</ele><time>2026-05-01T13:23:16.875Z</time></trkpt><trkpt lat="44.094819523323956" lon="10.756762569137347"><ele>581.0</ele><time>2026-05-01T13:23:17.875Z</time></trkpt><trkpt lat="44.09487456375261" lon="10.75658249015892"><ele>590.6666666666666</ele><time>2026-05-01T13:23:18.875Z</time></trkpt><trkpt lat="44.09489783265104" lon="10.756382745570368"><ele>600.3333333333334</ele><time>2026-05-01T13:23:19.875Z</time></trkpt><trkpt lat="44.09489125158638" lon="10.75617025806026"><ele>610.0</ele><time>2026-05-01T13:23:20.875Z</time></trkpt><trkpt lat="44.09491181362467" lon="10.755947393721767"><ele>608.3333333333334</ele><time>2026-05-01T13:23:21.875Z</time></trkpt><trkpt lat="44.0949650419675" lon="10.755730366611745"><ele>606.6666666666666</ele><time>2026-05-01T13:23:22.875Z</time></trkpt><trkpt lat="44.095011943807904" lon="10.755532925349256"><ele>605.0</ele><time>2026-05-01T13:23:23.875Z</time></trkpt><trkpt lat="44.09506998361307" lon="10.755360460456126"><ele>608.25</ele><time>2026-05-01T13:23:24.875Z</time></trkpt><trkpt lat="44.09511635128626" lon="10.755185518710187"><ele>611.5</ele><time>2026-05-01T13:23:25.875Z</time></trkpt><trkpt lat="44.09516892984358" lon="10.75501401323581"><ele>614.75</ele><time>2026-05-01T13:23:26.875Z</time></trkpt><trkpt lat="44.09524432012149" lon="10.754849478641802"><ele>618.0</ele><time>2026-05-01T13:23:27.875Z</time></trkpt><trkpt lat="44.095340809255646" lon="10.75470948586739"><ele>618.0</ele><time>2026-05-01T13:23:28.875Z</time></trkpt><trkpt lat="44.09543098517263" lon="10.754574303006846"><ele>618.0</ele><time>2026-05-01T13:23:29.875Z</time></trkpt><trkpt lat="44.09548304887576" lon="10.75442405979505"><ele>618.0</ele><time>2026-05-01T13:23:30.875Z</time></trkpt><trkpt lat="44.09550960401035" lon="10.754266627804116"><ele>618.0</ele><time>2026-05-01T13:23:31.875Z</time></trkpt><trkpt lat="44.09550317682085" lon="10.754093024902371"><ele>618.4</ele><time>2026-05-01T13:23:32.875Z</time></trkpt><trkpt lat="44.09548845077866" lon="10.753924994394977"><ele>618.8</ele><time>2026-05-01T13:23:33.875Z</time></trkpt><trkpt lat="44.09548921100039" lon="10.753771327265552"><ele>619.2</ele><time>2026-05-01T13:23:34.875Z</time></trkpt><trkpt lat="44.095517367502644" lon="10.753631922142182"><ele>619.6</ele><time>2026-05-01T13:23:35.875Z</time></trkpt><trkpt lat="44.09556863777241" lon="10.753507100599332"><ele>620.0</ele><time>2026-05-01T13:23:36.875Z</time></trkpt><trkpt lat="44.09564255529437" lon="10.753392512309825"><ele>620.0</ele><time>2026-05-01T13:23:37.876Z</time></trkpt><trkpt lat="44.09575307959831" lon="10.753304471321785"><ele>620.0</ele><time>2026-05-01T13:23:38.876Z</time></trkpt><trkpt lat="44.09589262732995" lon="10.753251640606258"><ele>620.0</ele><time>2026-05-01T13:23:39.876Z</time></trkpt><trkpt lat="44.0960267246325" lon="10.753207396222152"><ele>620.0</ele><time>2026-05-01T13:23:40.876Z</time></trkpt><trkpt lat="44.09615395148847" lon="10.753146289796355"><ele>611.25</ele><time>2026-05-01T13:23:41.876Z</time></trkpt><trkpt lat="44.096278491058236" lon="10.753074509274958"><ele>602.5</ele><time>2026-05-01T13:23:42.876Z</time></trkpt><trkpt lat="44.09640476453098" lon="10.753023342647142"><ele>593.75</ele><time>2026-05-01T13:23:43.876Z</time></trkpt><trkpt lat="44.09653259308172" lon="10.752989474701351"><ele>585.0</ele><time>2026-05-01T13:23:44.876Z</time></trkpt><trkpt lat="44.09665821793347" lon="10.752953138844031"><ele>583.6</ele><time>2026-05-01T13:23:45.876Z</time></trkpt><trkpt lat="44.09676825521876" lon="10.752923283391054"><ele>582.2</ele><time>2026-05-01T13:23:46.876Z</time></trkpt><trkpt lat="44.096871955881724" lon="10.75289837013037"><ele>580.8</ele><time>2026-05-01T13:23:47.876Z</time></trkpt><trkpt lat="44.09696687851276" lon="10.752860881527823"><ele>579.4</ele><time>2026-05-01T13:23:48.876Z</time></trkpt><trkpt lat="44.097042782630226" lon="10.752795647782762"><ele>578.0</ele><time>2026-05-01T13:23:49.876Z</time></trkpt><trkpt lat="44.097097989600115" lon="10.752700624263518"><ele>584.6</ele><time>2026-05-01T13:23:50.876Z</time></trkpt><trkpt lat="44.09712020848672" lon="10.752570052162215"><ele>591.1999999999999</ele><time>2026-05-01T13:23:51.876Z</time></trkpt><trkpt lat="44.09712077677672" lon="10.752432004889872"><ele>597.8</ele><time>2026-05-01T13:23:52.876Z</time></trkpt><trkpt lat="44.097094330319514" lon="10.752275660575028"><ele>604.4</ele><time>2026-05-01T13:23:53.876Z</time></trkpt><trkpt lat="44.097074653353886" lon="10.75211539864211"><ele>611.0</ele><time>2026-05-01T13:23:54.876Z</time></trkpt><trkpt lat="44.09709714836233" lon="10.751965410642148"><ele>615.75</ele><time>2026-05-01T13:23:55.876Z</time></trkpt><trkpt lat="44.097151977158745" lon="10.751821061712967"><ele>620.5</ele><time>2026-05-01T13:23:56.876Z</time></trkpt><trkpt lat="44.09722613146371" lon="10.75167158455187"><ele>625.25</ele><time>2026-05-01T13:23:57.876Z</time></trkpt><trkpt lat="44.09729518800609" lon="10.751534447212245"><ele>630.0</ele><time>2026-05-01T13:23:58.876Z</time></trkpt><trkpt lat="44.09737701981706" lon="10.75141973209083"><ele>620.25</ele><time>2026-05-01T13:23:59.876Z</time></trkpt><trkpt lat="44.09747418999102" lon="10.751326249718563"><ele>610.5</ele><time>2026-05-01T13:24:00.876Z</time></trkpt><trkpt lat="44.09758394380894" lon="10.751244140659143"><ele>600.75</ele><time>2026-05-01T13:24:01.876Z</time></trkpt><trkpt lat="44.09770981188113" lon="10.751153851329038"><ele>591.0</ele><time>2026-05-01T13:24:02.876Z</time></trkpt><trkpt lat="44.0978365034414" lon="10.75106228241177"><ele>591.5</ele><time>2026-05-01T13:24:03.876Z</time></trkpt><trkpt lat="44.097976962851504" lon="10.750993830065596"><ele>592.0</ele><time>2026-05-01T13:24:04.876Z</time></trkpt><trkpt lat="44.09811844061552" lon="10.75095757355193"><ele>592.5</ele><time>2026-05-01T13:24:05.876Z</time></trkpt><trkpt lat="44.09826716210676" lon="10.75096755171989"><ele>593.0</ele><time>2026-05-01T13:24:06.876Z</time></trkpt><trkpt lat="44.098416112920624" lon="10.750995793545746"><ele>593.0</ele><time>2026-05-01T13:24:07.876Z</time></trkpt><trkpt lat="44.09855639505686" lon="10.751004659625389"><ele>593.0</ele><time>2026-05-01T13:24:08.876Z</time></trkpt><trkpt lat="44.09868946309375" lon="10.750986192304902"><ele>593.0</ele><time>2026-05-01T13:24:09.876Z</time></trkpt><trkpt lat="44.09880165077785" lon="10.750963591104453"><ele>593.0</ele><time>2026-05-01T13:24:10.876Z</time></trkpt><trkpt lat="44.09891009494447" lon="10.750913574928889"><ele>593.0</ele><time>2026-05-01T13:24:11.876Z</time></trkpt><trkpt lat="44.09902292255195" lon="10.750838078241221"><ele>593.0</ele><time>2026-05-01T13:24:12.876Z</time></trkpt><trkpt lat="44.09913484602395" lon="10.75076213326897"><ele>593.0</ele><time>2026-05-01T13:24:13.876Z</time></trkpt><trkpt lat="44.09924450621597" lon="10.750704670430245"><ele>593.0</ele><time>2026-05-01T13:24:14.876Z</time></trkpt><trkpt lat="44.09937142161673" lon="10.750715878235129"><ele>594.0</ele><time>2026-05-01T13:24:15.876Z</time></trkpt><trkpt lat="44.09949700474369" lon="10.750754201023168"><ele>595.0</ele><time>2026-05-01T13:24:16.876Z</time></trkpt><trkpt lat="44.09961680365046" lon="10.750755885903514"><ele>596.0</ele><time>2026-05-01T13:24:17.876Z</time></trkpt><trkpt lat="44.09973311435249" lon="10.750709489947486"><ele>597.0</ele><time>2026-05-01T13:24:18.876Z</time></trkpt><trkpt lat="44.09982655655075" lon="10.750616048073137"><ele>597.0</ele><time>2026-05-01T13:24:19.876Z</time></trkpt><trkpt lat="44.09989245350264" lon="10.750501509547263"><ele>597.0</ele><time>2026-05-01T13:24:20.876Z</time></trkpt><trkpt lat="44.09995925672606" lon="10.75040116210121"><ele>597.0</ele><time>2026-05-01T13:24:21.876Z</time></trkpt><trkpt lat="44.100023224731636" lon="10.750334201904744"><ele>597.0</ele><time>2026-05-01T13:24:22.876Z</time></trkpt><trkpt lat="44.100087622447965" lon="10.750252163082555"><ele>597.0</ele><time>2026-05-01T13:24:23.876Z</time></trkpt><trkpt lat="44.10016327305551" lon="10.750142501543397"><ele>599.25</ele><time>2026-05-01T13:24:24.876Z</time></trkpt><trkpt lat="44.10023861138049" lon="10.75000178969563"><ele>601.5</ele><time>2026-05-01T13:24:25.876Z</time></trkpt><trkpt lat="44.10029359690858" lon="10.749839987864494"><ele>603.75</ele><time>2026-05-01T13:24:26.876Z</time></trkpt><trkpt lat="44.10031142301572" lon="10.749668085417852"><ele>606.0</ele><time>2026-05-01T13:24:27.876Z</time></trkpt><trkpt lat="44.10030676201853" lon="10.749502026190552"><ele>607.6</ele><time>2026-05-01T13:24:28.876Z</time></trkpt><trkpt lat="44.100299455898444" lon="10.749343674419247"><ele>609.2</ele><time>2026-05-01T13:24:29.876Z</time></trkpt><trkpt lat="44.10031368054764" lon="10.749216829462908"><ele>610.8</ele><time>2026-05-01T13:24:30.876Z</time></trkpt><trkpt lat="44.100370922601584" lon="10.74910008198584"><ele>612.4</ele><time>2026-05-01T13:24:31.876Z</time></trkpt><trkpt lat="44.100456619672556" lon="10.748988680427237"><ele>614.0</ele><time>2026-05-01T13:24:32.876Z</time></trkpt><trkpt lat="44.10054975430522" lon="10.748877471911975"><ele>614.0</ele><time>2026-05-01T13:24:33.876Z</time></trkpt><trkpt lat="44.100644667725206" lon="10.74875449206095"><ele>614.0</ele><time>2026-05-01T13:24:34.876Z</time></trkpt><trkpt lat="44.10074233404061" lon="10.748637737263227"><ele>614.0</ele><time>2026-05-01T13:24:35.876Z</time></trkpt><trkpt lat="44.10083202081784" lon="10.748520053605118"><ele>614.0</ele><time>2026-05-01T13:24:36.876Z</time></trkpt><trkpt lat="44.10092732109585" lon="10.748402388115773"><ele>615.0</ele><time>2026-05-01T13:24:37.876Z</time></trkpt><trkpt lat="44.10102097349019" lon="10.748283284044676"><ele>616.0</ele><time>2026-05-01T13:24:38.876Z</time></trkpt><trkpt lat="44.10111247415454" lon="10.748162391080415"><ele>617.0</ele><time>2026-05-01T13:24:39.876Z</time></trkpt><trkpt lat="44.10120200218417" lon="10.748048266914493"><ele>618.0</ele><time>2026-05-01T13:24:40.876Z</time></trkpt><trkpt lat="44.10129820391833" lon="10.747939643763452"><ele>618.0</ele><time>2026-05-01T13:24:41.876Z</time></trkpt><trkpt lat="44.10138217731032" lon="10.747836833421548"><ele>618.0</ele><time>2026-05-01T13:24:42.876Z</time></trkpt><trkpt lat="44.101442024615444" lon="10.74772221560537"><ele>618.0</ele><time>2026-05-01T13:24:43.876Z</time></trkpt><trkpt lat="44.101507871475505" lon="10.747580630825619"><ele>618.0</ele><time>2026-05-01T13:24:44.876Z</time></trkpt><trkpt lat="44.10154010669845" lon="10.747417612219644"><ele>619.4</ele><time>2026-05-01T13:24:45.876Z</time></trkpt><trkpt lat="44.10155568584813" lon="10.747281888707986"><ele>620.8</ele><time>2026-05-01T13:24:46.876Z</time></trkpt><trkpt lat="44.10156942831273" lon="10.747142110238867"><ele>622.2</ele><time>2026-05-01T13:24:47.876Z</time></trkpt><trkpt lat="44.10155180781624" lon="10.746980666113048"><ele>623.6</ele><time>2026-05-01T13:24:48.876Z</time></trkpt><trkpt lat="44.10156749827181" lon="10.746832654367287"><ele>625.0</ele><time>2026-05-01T13:24:49.876Z</time></trkpt><trkpt lat="44.10157981081335" lon="10.746697498793319"><ele>625.0</ele><time>2026-05-01T13:24:50.876Z</time></trkpt><trkpt lat="44.10159035804997" lon="10.746552982788213"><ele>625.0</ele><time>2026-05-01T13:24:51.876Z</time></trkpt><trkpt lat="44.101607661200106" lon="10.74640002487532"><ele>625.0</ele><time>2026-05-01T13:24:52.876Z</time></trkpt><trkpt lat="44.10165471172771" lon="10.746262778488614"><ele>625.0</ele><time>2026-05-01T13:24:53.876Z</time></trkpt><trkpt lat="44.101668597959566" lon="10.746115721130332"><ele>625.0</ele><time>2026-05-01T13:24:54.876Z</time></trkpt><trkpt lat="44.10168273094366" lon="10.745970389765516"><ele>627.0</ele><time>2026-05-01T13:24:55.876Z</time></trkpt><trkpt lat="44.10169779082722" lon="10.74582075527408"><ele>629.0</ele><time>2026-05-01T13:24:56.876Z</time></trkpt><trkpt lat="44.101704229479715" lon="10.7456663606564"><ele>631.0</ele><time>2026-05-01T13:24:57.876Z</time></trkpt><trkpt lat="44.101758985655806" lon="10.745524742393261"><ele>633.0</ele><time>2026-05-01T13:24:58.876Z</time></trkpt><trkpt lat="44.10183976157704" lon="10.74540117852987"><ele>633.0</ele><time>2026-05-01T13:24:59.876Z</time></trkpt><trkpt lat="44.101931674172384" lon="10.745298589177176"><ele>633.0</ele><time>2026-05-01T13:25:00.876Z</time></trkpt><trkpt lat="44.102029522247406" lon="10.745199334769433"><ele>633.0</ele><time>2026-05-01T13:25:01.876Z</time></trkpt><trkpt lat="44.10211932479738" lon="10.745107150261248"><ele>633.0</ele><time>2026-05-01T13:25:02.876Z</time></trkpt><trkpt lat="44.10220020078417" lon="10.74502404175878"><ele>633.8</ele><time>2026-05-01T13:25:03.876Z</time></trkpt><trkpt lat="44.10227871410815" lon="10.744946150711048"><ele>634.5999999999999</ele><time>2026-05-01T13:25:04.876Z</time></trkpt><trkpt lat="44.10236111307236" lon="10.74486558533565"><ele>635.4000000000001</ele><time>2026-05-01T13:25:05.876Z</time></trkpt><trkpt lat="44.10243770900106" lon="10.744785757224259"><ele>636.2</ele><time>2026-05-01T13:25:06.876Z</time></trkpt><trkpt lat="44.10251744824609" lon="10.74471188123875"><ele>637.0</ele><time>2026-05-01T13:25:07.876Z</time></trkpt><trkpt lat="44.102614324720484" lon="10.744652918633635"><ele>633.75</ele><time>2026-05-01T13:25:08.876Z</time></trkpt><trkpt lat="44.10272562592875" lon="10.744618751678816"><ele>630.5</ele><time>2026-05-01T13:25:09.876Z</time></trkpt><trkpt lat="44.10283562686251" lon="10.744600139265385"><ele>627.25</ele><time>2026-05-01T13:25:10.876Z</time></trkpt><trkpt lat="44.10295297161239" lon="10.744609891428833"><ele>624.0</ele><time>2026-05-01T13:25:11.876Z</time></trkpt><trkpt lat="44.103069479353785" lon="10.74464417961109"><ele>624.0</ele><time>2026-05-01T13:25:12.876Z</time></trkpt><trkpt lat="44.103175985430944" lon="10.74469154987055"><ele>624.0</ele><time>2026-05-01T13:25:13.876Z</time></trkpt><trkpt lat="44.103271179869736" lon="10.744714693361303"><ele>624.0</ele><time>2026-05-01T13:25:14.876Z</time></trkpt><trkpt lat="44.103355109139265" lon="10.74475105881252"><ele>624.0</ele><time>2026-05-01T13:25:15.876Z</time></trkpt><trkpt lat="44.10343407836453" lon="10.744754629924806"><ele>624.0</ele><time>2026-05-01T13:25:16.876Z</time></trkpt><trkpt lat="44.10349075565967" lon="10.74464388627925"><ele>624.2857142857143</ele><time>2026-05-01T13:25:17.876Z</time></trkpt><trkpt lat="44.10351896561636" lon="10.744553600237264"><ele>624.5714285714286</ele><time>2026-05-01T13:25:18.876Z</time></trkpt><trkpt lat="44.103512437536516" lon="10.744454781909983"><ele>624.8571428571429</ele><time>2026-05-01T13:25:19.876Z</time></trkpt><trkpt lat="44.10345973885209" lon="10.744372507744915"><ele>625.1428571428571</ele><time>2026-05-01T13:25:20.876Z</time></trkpt><trkpt lat="44.10338977403868" lon="10.744333349947265"><ele>625.4285714285714</ele><time>2026-05-01T13:25:21.876Z</time></trkpt><trkpt lat="44.10331386660239" lon="10.744318808893533"><ele>625.7142857142857</ele><time>2026-05-01T13:25:22.876Z</time></trkpt><trkpt lat="44.103240754440705" lon="10.744330383571453"><ele>626.0</ele><time>2026-05-01T13:25:23.876Z</time></trkpt><trkpt lat="44.10316482598473" lon="10.74433235608701"><ele>626.0</ele><time>2026-05-01T13:25:24.875Z</time></trkpt><trkpt lat="44.10310217431679" lon="10.744302596515654"><ele>626.0</ele><time>2026-05-01T13:25:25.875Z</time></trkpt><trkpt lat="44.10303711202228" lon="10.744197966589118"><ele>626.0</ele><time>2026-05-01T13:25:27.875Z</time></trkpt><trkpt lat="44.1030836078984" lon="10.744078154870408"><ele>626.0</ele><time>2026-05-01T13:25:29.875Z</time></trkpt><trkpt lat="44.10314725725821" lon="10.744050165925868"><ele>626.0</ele><time>2026-05-01T13:25:30.875Z</time></trkpt><trkpt lat="44.10322413435124" lon="10.744062070169896"><ele>626.0</ele><time>2026-05-01T13:25:31.875Z</time></trkpt><trkpt lat="44.10330755596839" lon="10.744066324118796"><ele>629.5</ele><time>2026-05-01T13:25:32.875Z</time></trkpt><trkpt lat="44.10338975197962" lon="10.744072686860726"><ele>633.0</ele><time>2026-05-01T13:25:33.875Z</time></trkpt><trkpt lat="44.103454697777586" lon="10.744053072818271"><ele>636.5</ele><time>2026-05-01T13:25:34.875Z</time></trkpt><trkpt lat="44.10354428021608" lon="10.743958247414426"><ele>640.0</ele><time>2026-05-01T13:25:36.875Z</time></trkpt><trkpt lat="44.103561721981386" lon="10.74385142402524"><ele>643.5</ele><time>2026-05-01T13:25:37.875Z</time></trkpt><trkpt lat="44.10355733378142" lon="10.74371656198434"><ele>647.0</ele><time>2026-05-01T13:25:38.875Z</time></trkpt><trkpt lat="44.10354724187186" lon="10.743581922908653"><ele>648.2</ele><time>2026-05-01T13:25:39.875Z</time></trkpt><trkpt lat="44.10354183776616" lon="10.743455509030566"><ele>649.4000000000001</ele><time>2026-05-01T13:25:40.875Z</time></trkpt><trkpt lat="44.10355353144931" lon="10.743315264948839"><ele>650.5999999999999</ele><time>2026-05-01T13:25:41.875Z</time></trkpt><trkpt lat="44.10358225617914" lon="10.74317976572646"><ele>651.8</ele><time>2026-05-01T13:25:42.875Z</time></trkpt><trkpt lat="44.103624733677066" lon="10.743072116839436"><ele>653.0</ele><time>2026-05-01T13:25:43.875Z</time></trkpt><trkpt lat="44.10367764219221" lon="10.742948092042626"><ele>653.0</ele><time>2026-05-01T13:25:44.876Z</time></trkpt><trkpt lat="44.10375913445772" lon="10.74281359610765"><ele>653.0</ele><time>2026-05-01T13:25:45.876Z</time></trkpt><trkpt lat="44.103867102955114" lon="10.742688880561515"><ele>653.0</ele><time>2026-05-01T13:25:46.876Z</time></trkpt><trkpt lat="44.10398507517891" lon="10.742617540963792"><ele>653.0</ele><time>2026-05-01T13:25:47.875Z</time></trkpt><trkpt lat="44.10410580307874" lon="10.74261093784607"><ele>661.3333333333333</ele><time>2026-05-01T13:25:48.875Z</time></trkpt><trkpt lat="44.104282502554355" lon="10.742630580006507"><ele>669.6666666666666</ele><time>2026-05-01T13:25:49.875Z</time></trkpt><trkpt lat="44.10449798780869" lon="10.742669158295792"><ele>678.0</ele><time>2026-05-01T13:25:50.876Z</time></trkpt><trkpt lat="44.10464391306291" lon="10.742709123979738"><ele>677.6666666666666</ele><time>2026-05-01T13:25:51.876Z</time></trkpt><trkpt lat="44.104738441248614" lon="10.742720845199996"><ele>677.3333333333333</ele><time>2026-05-01T13:25:52.876Z</time></trkpt><trkpt lat="44.10481883139299" lon="10.74272419980256"><ele>677.0</ele><time>2026-05-01T13:25:53.875Z</time></trkpt><trkpt lat="44.10510701028764" lon="10.742689271103838"><ele>677.0</ele><time>2026-05-01T13:25:54.875Z</time></trkpt><trkpt lat="44.105196203158194" lon="10.742620555117243"><ele>677.0</ele><time>2026-05-01T13:25:55.875Z</time></trkpt><trkpt lat="44.1052709146617" lon="10.742485478158729"><ele>677.0</ele><time>2026-05-01T13:25:56.875Z</time></trkpt><trkpt lat="44.105354795501306" lon="10.742306977643894"><ele>677.0</ele><time>2026-05-01T13:25:57.875Z</time></trkpt><trkpt lat="44.10546208036662" lon="10.742257465933848"><ele>677.0</ele><time>2026-05-01T13:25:58.875Z</time></trkpt><trkpt lat="44.10558053598116" lon="10.742229001949118"><ele>677.0</ele><time>2026-05-01T13:25:59.875Z</time></trkpt><trkpt lat="44.10573009132942" lon="10.742202541246105"><ele>677.0</ele><time>2026-05-01T13:26:00.875Z</time></trkpt><trkpt lat="44.1058964564756" lon="10.74217134333265"><ele>677.0</ele><time>2026-05-01T13:26:01.875Z</time></trkpt><trkpt lat="44.106038462179725" lon="10.742145208450648"><ele>675.0</ele><time>2026-05-01T13:26:02.875Z</time></trkpt><trkpt lat="44.10615738989503" lon="10.742114503108768"><ele>673.0</ele><time>2026-05-01T13:26:03.875Z</time></trkpt><trkpt lat="44.106242345479075" lon="10.742053314971434"><ele>671.0</ele><time>2026-05-01T13:26:04.875Z</time></trkpt><trkpt lat="44.1063013516816" lon="10.741973658899735"><ele>669.0</ele><time>2026-05-01T13:26:05.875Z</time></trkpt><trkpt lat="44.10631162327671" lon="10.7418552291593"><ele>667.0</ele><time>2026-05-01T13:26:06.875Z</time></trkpt><trkpt lat="44.10626375576708" lon="10.741761440831054"><ele>667.0</ele><time>2026-05-01T13:26:07.875Z</time></trkpt><trkpt lat="44.10617712632678" lon="10.741714087776073"><ele>667.0</ele><time>2026-05-01T13:26:08.875Z</time></trkpt><trkpt lat="44.106068335258" lon="10.74173786186987"><ele>667.0</ele><time>2026-05-01T13:26:09.875Z</time></trkpt><trkpt lat="44.10595914530028" lon="10.741804831429947"><ele>667.0</ele><time>2026-05-01T13:26:10.875Z</time></trkpt><trkpt lat="44.105851348752054" lon="10.741901444312989"><ele>669.5</ele><time>2026-05-01T13:26:11.875Z</time></trkpt><trkpt lat="44.105735680260274" lon="10.741942951765186"><ele>672.0</ele><time>2026-05-01T13:26:12.875Z</time></trkpt><trkpt lat="44.105624034709095" lon="10.74193089528753"><ele>674.5</ele><time>2026-05-01T13:26:13.875Z</time></trkpt><trkpt lat="44.10550391812499" lon="10.741875110131867"><ele>677.0</ele><time>2026-05-01T13:26:14.875Z</time></trkpt><trkpt lat="44.105382605880386" lon="10.741789502678886"><ele>683.0</ele><time>2026-05-01T13:26:15.875Z</time></trkpt><trkpt lat="44.105260886732694" lon="10.741714274403662"><ele>689.0</ele><time>2026-05-01T13:26:16.875Z</time></trkpt><trkpt lat="44.105110300280494" lon="10.741616218751242"><ele>695.0</ele><time>2026-05-01T13:26:17.875Z</time></trkpt><trkpt lat="44.10500549734342" lon="10.741584109827665"><ele>701.0</ele><time>2026-05-01T13:26:18.875Z</time></trkpt><trkpt lat="44.10492625938912" lon="10.741613362295503"><ele>701.8</ele><time>2026-05-01T13:26:19.875Z</time></trkpt><trkpt lat="44.10485665156431" lon="10.741701776188387"><ele>702.5999999999999</ele><time>2026-05-01T13:26:20.875Z</time></trkpt><trkpt lat="44.104817205868166" lon="10.741792097444133"><ele>703.4</ele><time>2026-05-01T13:26:21.875Z</time></trkpt><trkpt lat="44.10480157484242" lon="10.741904746499799"><ele>704.2</ele><time>2026-05-01T13:26:22.875Z</time></trkpt><trkpt lat="44.10473861469249" lon="10.742026433793352"><ele>705.0</ele><time>2026-05-01T13:26:23.875Z</time></trkpt><trkpt lat="44.10461840052823" lon="10.742059190440784"><ele>705.0</ele><time>2026-05-01T13:26:24.875Z</time></trkpt><trkpt lat="44.10451672828205" lon="10.742123616488751"><ele>705.0</ele><time>2026-05-01T13:26:25.875Z</time></trkpt><trkpt lat="44.1044383257905" lon="10.742103840819734"><ele>705.0</ele><time>2026-05-01T13:26:26.875Z</time></trkpt><trkpt lat="44.104377122746506" lon="10.742019241197934"><ele>705.0</ele><time>2026-05-01T13:26:27.875Z</time></trkpt><trkpt lat="44.10436388954017" lon="10.741897889713105"><ele>705.0</ele><time>2026-05-01T13:26:28.875Z</time></trkpt><trkpt lat="44.10440796340229" lon="10.741773403991907"><ele>705.0</ele><time>2026-05-01T13:26:29.875Z</time></trkpt><trkpt lat="44.1044965642293" lon="10.741662719132652"><ele>705.0</ele><time>2026-05-01T13:26:30.875Z</time></trkpt><trkpt lat="44.10459654224205" lon="10.741539085420163"><ele>705.0</ele><time>2026-05-01T13:26:31.875Z</time></trkpt><trkpt lat="44.10470768782466" lon="10.741399737554705"><ele>705.0</ele><time>2026-05-01T13:26:32.875Z</time></trkpt><trkpt lat="44.104801876634305" lon="10.741270671787877"><ele>705.0</ele><time>2026-05-01T13:26:33.875Z</time></trkpt><trkpt lat="44.10491106938039" lon="10.741193243258596"><ele>705.0</ele><time>2026-05-01T13:26:34.875Z</time></trkpt><trkpt lat="44.105045905460074" lon="10.741197891925863"><ele>705.0</ele><time>2026-05-01T13:26:35.875Z</time></trkpt><trkpt lat="44.105181963239374" lon="10.741269313467512"><ele>705.0</ele><time>2026-05-01T13:26:36.875Z</time></trkpt><trkpt lat="44.10530699103803" lon="10.741368305881663"><ele>704.2</ele><time>2026-05-01T13:26:37.875Z</time></trkpt><trkpt lat="44.10542064585402" lon="10.741444681963515"><ele>703.4</ele><time>2026-05-01T13:26:38.875Z</time></trkpt><trkpt lat="44.10552917478523" lon="10.741468084422667"><ele>702.5999999999999</ele><time>2026-05-01T13:26:39.875Z</time></trkpt><trkpt lat="44.10561817115692" lon="10.7414219482792"><ele>701.8</ele><time>2026-05-01T13:26:40.875Z</time></trkpt><trkpt lat="44.10569606375374" lon="10.741323718544077"><ele>701.0</ele><time>2026-05-01T13:26:41.875Z</time></trkpt><trkpt lat="44.10580312843823" lon="10.741167921058645"><ele>700.5</ele><time>2026-05-01T13:26:42.875Z</time></trkpt><trkpt lat="44.10592733163616" lon="10.74104781260562"><ele>700.0</ele><time>2026-05-01T13:26:43.875Z</time></trkpt><trkpt lat="44.106065569495044" lon="10.741012811691999"><ele>699.5</ele><time>2026-05-01T13:26:44.875Z</time></trkpt><trkpt lat="44.1061919033531" lon="10.74109411667562"><ele>699.0</ele><time>2026-05-01T13:26:45.875Z</time></trkpt><trkpt lat="44.10632492969365" lon="10.741125246769068"><ele>699.0</ele><time>2026-05-01T13:26:46.875Z</time></trkpt><trkpt lat="44.106458933814125" lon="10.74112831350507"><ele>699.0</ele><time>2026-05-01T13:26:47.875Z</time></trkpt><trkpt lat="44.106592735658545" lon="10.741074449721435"><ele>699.0</ele><time>2026-05-01T13:26:48.875Z</time></trkpt><trkpt lat="44.10672448789014" lon="10.740976150876225"><ele>699.0</ele><time>2026-05-01T13:26:49.875Z</time></trkpt><trkpt lat="44.10684950053758" lon="10.74084601453939"><ele>705.75</ele><time>2026-05-01T13:26:50.875Z</time></trkpt><trkpt lat="44.106977337197215" lon="10.740717401343487"><ele>712.5</ele><time>2026-05-01T13:26:51.875Z</time></trkpt><trkpt lat="44.10708963998632" lon="10.74059912996614"><ele>719.25</ele><time>2026-05-01T13:26:52.875Z</time></trkpt><trkpt lat="44.107171434031194" lon="10.740490146847073"><ele>726.0</ele><time>2026-05-01T13:26:53.875Z</time></trkpt><trkpt lat="44.107215593920465" lon="10.740375272684238"><ele>726.0</ele><time>2026-05-01T13:26:54.875Z</time></trkpt><trkpt lat="44.10722950955445" lon="10.740225177588924"><ele>726.0</ele><time>2026-05-01T13:26:55.875Z</time></trkpt><trkpt lat="44.10718623036771" lon="10.740049148951076"><ele>726.0</ele><time>2026-05-01T13:26:56.875Z</time></trkpt><trkpt lat="44.10713032351732" lon="10.739835718810566"><ele>726.0</ele><time>2026-05-01T13:26:57.875Z</time></trkpt><trkpt lat="44.107104803194254" lon="10.739628364533475"><ele>731.4</ele><time>2026-05-01T13:26:58.875Z</time></trkpt><trkpt lat="44.107080845718244" lon="10.739474148695761"><ele>736.8</ele><time>2026-05-01T13:26:59.875Z</time></trkpt><trkpt lat="44.107082575214065" lon="10.739334398872401"><ele>742.1999999999999</ele><time>2026-05-01T13:27:00.875Z</time></trkpt><trkpt lat="44.10712876693413" lon="10.739222666472045"><ele>747.5999999999999</ele><time>2026-05-01T13:27:01.875Z</time></trkpt><trkpt lat="44.10723219840187" lon="10.739153166284222"><ele>753.0</ele><time>2026-05-01T13:27:02.875Z</time></trkpt><trkpt lat="44.10737936792761" lon="10.739097999832442"><ele>746.0</ele><time>2026-05-01T13:27:03.875Z</time></trkpt><trkpt lat="44.107521901051136" lon="10.739031626735178"><ele>739.0</ele><time>2026-05-01T13:27:04.875Z</time></trkpt><trkpt lat="44.10765147652401" lon="10.73888954796993"><ele>732.0</ele><time>2026-05-01T13:27:05.875Z</time></trkpt><trkpt lat="44.107747081058044" lon="10.738699307053759"><ele>741.6666666666666</ele><time>2026-05-01T13:27:06.875Z</time></trkpt><trkpt lat="44.107843060099654" lon="10.738520002017848"><ele>751.3333333333333</ele><time>2026-05-01T13:27:07.875Z</time></trkpt><trkpt lat="44.10797679840947" lon="10.73840601529975"><ele>761.0</ele><time>2026-05-01T13:27:08.875Z</time></trkpt><trkpt lat="44.10812504639604" lon="10.738341761564163"><ele>756.0</ele><time>2026-05-01T13:27:09.875Z</time></trkpt><trkpt lat="44.10826574938411" lon="10.738253547208842"><ele>751.0</ele><time>2026-05-01T13:27:10.875Z</time></trkpt><trkpt lat="44.108387228475806" lon="10.73812018961681"><ele>746.0</ele><time>2026-05-01T13:27:11.875Z</time></trkpt><trkpt lat="44.10847606752983" lon="10.737934025477005"><ele>746.0</ele><time>2026-05-01T13:27:12.875Z</time></trkpt><trkpt lat="44.1085449272249" lon="10.737743431044317"><ele>746.0</ele><time>2026-05-01T13:27:13.875Z</time></trkpt><trkpt lat="44.10861926360381" lon="10.737577781374675"><ele>746.0</ele><time>2026-05-01T13:27:14.875Z</time></trkpt><trkpt lat="44.1087053117185" lon="10.737466918930906"><ele>746.0</ele><time>2026-05-01T13:27:15.875Z</time></trkpt><trkpt lat="44.10878363310588" lon="10.737391062032604"><ele>748.1999999999999</ele><time>2026-05-01T13:27:16.875Z</time></trkpt><trkpt lat="44.10888433036141" lon="10.737396721182972"><ele>750.4</ele><time>2026-05-01T13:27:17.875Z</time></trkpt><trkpt lat="44.10897596830311" lon="10.73750686800845"><ele>752.6</ele><time>2026-05-01T13:27:18.875Z</time></trkpt><trkpt lat="44.10907256157629" lon="10.737540815055864"><ele>754.8</ele><time>2026-05-01T13:27:19.875Z</time></trkpt><trkpt lat="44.10917980989228" lon="10.737557233816561"><ele>757.0</ele><time>2026-05-01T13:27:20.875Z</time></trkpt><trkpt lat="44.10927174229571" lon="10.73747761470957"><ele>757.0</ele><time>2026-05-01T13:27:21.875Z</time></trkpt><trkpt lat="44.10935308265522" lon="10.737374191937288"><ele>757.0</ele><time>2026-05-01T13:27:22.875Z</time></trkpt><trkpt lat="44.10941417929703" lon="10.73722206076613"><ele>757.0</ele><time>2026-05-01T13:27:23.875Z</time></trkpt><trkpt lat="44.10947580174441" lon="10.737075257611217"><ele>757.0</ele><time>2026-05-01T13:27:24.875Z</time></trkpt><trkpt lat="44.1095571006789" lon="10.736948255851285"><ele>761.0</ele><time>2026-05-01T13:27:25.875Z</time></trkpt><trkpt lat="44.109630314021516" lon="10.736807484895609"><ele>765.0</ele><time>2026-05-01T13:27:26.875Z</time></trkpt><trkpt lat="44.10970103129576" lon="10.736683143899818"><ele>769.0</ele><time>2026-05-01T13:27:27.875Z</time></trkpt><trkpt lat="44.10974830323895" lon="10.73656279360052"><ele>773.0</ele><time>2026-05-01T13:27:28.875Z</time></trkpt><trkpt lat="44.109758842970834" lon="10.73644800065358"><ele>777.0</ele><time>2026-05-01T13:27:29.874Z</time></trkpt><trkpt lat="44.109727121793526" lon="10.736336997822894"><ele>777.0</ele><time>2026-05-01T13:27:30.874Z</time></trkpt><trkpt lat="44.10965243087654" lon="10.736263548695755"><ele>777.0</ele><time>2026-05-01T13:27:31.874Z</time></trkpt><trkpt lat="44.109571070523295" lon="10.736184819406162"><ele>777.0</ele><time>2026-05-01T13:27:32.874Z</time></trkpt><trkpt lat="44.10946909924797" lon="10.736192362746586"><ele>777.0</ele><time>2026-05-01T13:27:33.874Z</time></trkpt><trkpt lat="44.109356523457336" lon="10.736314712207344"><ele>777.0</ele><time>2026-05-01T13:27:34.874Z</time></trkpt><trkpt lat="44.10921687915738" lon="10.7364330820998"><ele>783.0</ele><time>2026-05-01T13:27:35.874Z</time></trkpt><trkpt lat="44.109068652603185" lon="10.736565034243641"><ele>789.0</ele><time>2026-05-01T13:27:36.874Z</time></trkpt><trkpt lat="44.10895435265229" lon="10.736693744408154"><ele>795.0</ele><time>2026-05-01T13:27:37.874Z</time></trkpt><trkpt lat="44.10881683230093" lon="10.7367885581292"><ele>789.25</ele><time>2026-05-01T13:27:38.874Z</time></trkpt><trkpt lat="44.108686000444315" lon="10.73691692531661"><ele>783.5</ele><time>2026-05-01T13:27:39.874Z</time></trkpt><trkpt lat="44.10856532830118" lon="10.73702760061818"><ele>777.75</ele><time>2026-05-01T13:27:40.874Z</time></trkpt><trkpt lat="44.10845719552651" lon="10.73712175162816"><ele>772.0</ele><time>2026-05-01T13:27:41.874Z</time></trkpt><trkpt lat="44.1083709396373" lon="10.737193688399492"><ele>771.9999999999999</ele><time>2026-05-01T13:27:42.874Z</time></trkpt><trkpt lat="44.108300258828905" lon="10.737275771367937"><ele>772.0</ele><time>2026-05-01T13:27:43.874Z</time></trkpt><trkpt lat="44.10821806437945" lon="10.737349636157905"><ele>772.0</ele><time>2026-05-01T13:27:44.874Z</time></trkpt><trkpt lat="44.108143029493036" lon="10.737386922606989"><ele>772.0</ele><time>2026-05-01T13:27:45.874Z</time></trkpt><trkpt lat="44.10808273912274" lon="10.737429710038304"><ele>771.9999999999999</ele><time>2026-05-01T13:27:46.874Z</time></trkpt><trkpt lat="44.10802429353762" lon="10.737464968568181"><ele>772.0</ele><time>2026-05-01T13:27:47.874Z</time></trkpt><trkpt lat="44.107947560842" lon="10.737421874806461"><ele>775.4000000000001</ele><time>2026-05-01T13:27:48.874Z</time></trkpt><trkpt lat="44.10786920670432" lon="10.73732502225718"><ele>778.8000000000001</ele><time>2026-05-01T13:27:49.875Z</time></trkpt><trkpt lat="44.10784238746843" lon="10.737215112116875"><ele>782.2</ele><time>2026-05-01T13:27:50.875Z</time></trkpt><trkpt lat="44.10785717853055" lon="10.737081145267602"><ele>785.6</ele><time>2026-05-01T13:27:51.875Z</time></trkpt><trkpt lat="44.10795641400661" lon="10.736971782685279"><ele>789.0</ele><time>2026-05-01T13:27:52.875Z</time></trkpt><trkpt lat="44.10807788109322" lon="10.736853879416035"><ele>792.0</ele><time>2026-05-01T13:27:53.875Z</time></trkpt><trkpt lat="44.108228738857456" lon="10.736681456554404"><ele>795.0</ele><time>2026-05-01T13:27:54.875Z</time></trkpt><trkpt lat="44.10844066192041" lon="10.736466101009917"><ele>795.0</ele><time>2026-05-01T13:27:55.875Z</time></trkpt><trkpt lat="44.1086817013607" lon="10.736233845853846"><ele>795.0</ele><time>2026-05-01T13:27:56.875Z</time></trkpt><trkpt lat="44.10891627456396" lon="10.736008950938222"><ele>795.5</ele><time>2026-05-01T13:27:57.875Z</time></trkpt><trkpt lat="44.10913437991094" lon="10.735789815687678"><ele>796.0</ele><time>2026-05-01T13:27:58.876Z</time></trkpt><trkpt lat="44.109322693199516" lon="10.735606409411085"><ele>796.0</ele><time>2026-05-01T13:27:59.875Z</time></trkpt><trkpt lat="44.109474267381174" lon="10.73542554688326"><ele>796.0</ele><time>2026-05-01T13:28:00.875Z</time></trkpt><trkpt lat="44.10961918902426" lon="10.73526642874888"><ele>796.0</ele><time>2026-05-01T13:28:01.875Z</time></trkpt><trkpt lat="44.10974374250894" lon="10.735115604547083"><ele>800.5999999999999</ele><time>2026-05-01T13:28:02.875Z</time></trkpt><trkpt lat="44.10984779970427" lon="10.734998759132973"><ele>805.2</ele><time>2026-05-01T13:28:03.875Z</time></trkpt><trkpt lat="44.10992871910428" lon="10.734918497299828"><ele>809.8</ele><time>2026-05-01T13:28:04.875Z</time></trkpt><trkpt lat="44.11001516844798" lon="10.734915029309308"><ele>814.4000000000001</ele><time>2026-05-01T13:28:05.875Z</time></trkpt><trkpt lat="44.11009807982693" lon="10.73497908124978"><ele>819.0</ele><time>2026-05-01T13:28:06.875Z</time></trkpt><trkpt lat="44.11015070400892" lon="10.735125775929214"><ele>811.25</ele><time>2026-05-01T13:28:07.875Z</time></trkpt><trkpt lat="44.110218836096166" lon="10.73527519526653"><ele>803.5</ele><time>2026-05-01T13:28:08.875Z</time></trkpt><trkpt lat="44.11031173624688" lon="10.735423217071084"><ele>795.75</ele><time>2026-05-01T13:28:09.875Z</time></trkpt><trkpt lat="44.11044101454785" lon="10.735545891582259"><ele>788.0</ele><time>2026-05-01T13:28:10.875Z</time></trkpt><trkpt lat="44.1105814382805" lon="10.735623474006802"><ele>788.0</ele><time>2026-05-01T13:28:11.875Z</time></trkpt><trkpt lat="44.11071737485522" lon="10.735687209565807"><ele>788.0</ele><time>2026-05-01T13:28:12.875Z</time></trkpt><trkpt lat="44.11084748955028" lon="10.735772778095882"><ele>788.0</ele><time>2026-05-01T13:28:13.875Z</time></trkpt><trkpt lat="44.1109663950273" lon="10.735832093881815"><ele>788.0</ele><time>2026-05-01T13:28:14.875Z</time></trkpt><trkpt lat="44.11105557014902" lon="10.73582602901859"><ele>793.0</ele><time>2026-05-01T13:28:15.875Z</time></trkpt><trkpt lat="44.11113138178707" lon="10.735741127515553"><ele>798.0</ele><time>2026-05-01T13:28:16.875Z</time></trkpt><trkpt lat="44.11120281408095" lon="10.735648174256923"><ele>803.0</ele><time>2026-05-01T13:28:17.875Z</time></trkpt><trkpt lat="44.111288699209574" lon="10.735571601685855"><ele>808.0</ele><time>2026-05-01T13:28:18.875Z</time></trkpt><trkpt lat="44.11141613117732" lon="10.735549975983592"><ele>813.0</ele><time>2026-05-01T13:28:19.875Z</time></trkpt><trkpt lat="44.111566978960006" lon="10.735579601661371"><ele>816.0</ele><time>2026-05-01T13:28:20.875Z</time></trkpt><trkpt lat="44.111723892287934" lon="10.735607015070077"><ele>819.0</ele><time>2026-05-01T13:28:21.875Z</time></trkpt><trkpt lat="44.11188819984728" lon="10.735627136278932"><ele>822.0</ele><time>2026-05-01T13:28:22.875Z</time></trkpt><trkpt lat="44.11204928884398" lon="10.735647578936982"><ele>822.0</ele><time>2026-05-01T13:28:23.875Z</time></trkpt><trkpt lat="44.11217821357558" lon="10.73567300241076"><ele>822.0</ele><time>2026-05-01T13:28:24.875Z</time></trkpt><trkpt lat="44.11229281429144" lon="10.735687036139227"><ele>822.0</ele><time>2026-05-01T13:28:25.875Z</time></trkpt><trkpt lat="44.11240450792125" lon="10.735709113783425"><ele>822.0</ele><time>2026-05-01T13:28:26.875Z</time></trkpt><trkpt lat="44.112505294279714" lon="10.735673683274856"><ele>821.5</ele><time>2026-05-01T13:28:27.875Z</time></trkpt><trkpt lat="44.11260429799956" lon="10.73556070752653"><ele>821.0</ele><time>2026-05-01T13:28:28.875Z</time></trkpt><trkpt lat="44.11271798421159" lon="10.735425973572415"><ele>820.5</ele><time>2026-05-01T13:28:29.875Z</time></trkpt><trkpt lat="44.112824692630916" lon="10.735279732986308"><ele>820.0</ele><time>2026-05-01T13:28:30.875Z</time></trkpt><trkpt lat="44.11297575300006" lon="10.735126472049313"><ele>826.3333333333333</ele><time>2026-05-01T13:28:31.875Z</time></trkpt><trkpt lat="44.113155251077615" lon="10.735042548076215"><ele>832.6666666666667</ele><time>2026-05-01T13:28:32.875Z</time></trkpt><trkpt lat="44.113318593683466" lon="10.734959209807746"><ele>839.0</ele><time>2026-05-01T13:28:33.875Z</time></trkpt><trkpt lat="44.113450596823206" lon="10.734864352554137"><ele>839.0</ele><time>2026-05-01T13:28:34.875Z</time></trkpt><trkpt lat="44.11354417537397" lon="10.734771158160116"><ele>839.0</ele><time>2026-05-01T13:28:35.875Z</time></trkpt><trkpt lat="44.11360569873961" lon="10.73469840967787"><ele>839.0</ele><time>2026-05-01T13:28:36.875Z</time></trkpt><trkpt lat="44.11361416150678" lon="10.7345993308465"><ele>839.0</ele><time>2026-05-01T13:28:37.875Z</time></trkpt><trkpt lat="44.11357291858476" lon="10.734471415628871"><ele>839.0</ele><time>2026-05-01T13:28:38.875Z</time></trkpt><trkpt lat="44.113425770726856" lon="10.734385095175947"><ele>839.0</ele><time>2026-05-01T13:28:39.875Z</time></trkpt><trkpt lat="44.11328193490718" lon="10.734449062054695"><ele>839.0</ele><time>2026-05-01T13:28:40.875Z</time></trkpt><trkpt lat="44.11318748855894" lon="10.734498423621016"><ele>839.0</ele><time>2026-05-01T13:28:41.875Z</time></trkpt><trkpt lat="44.11312838197294" lon="10.734587610523437"><ele>839.0</ele><time>2026-05-01T13:28:42.875Z</time></trkpt><trkpt lat="44.11309239434934" lon="10.734698306461759"><ele>839.0</ele><time>2026-05-01T13:28:43.875Z</time></trkpt><trkpt lat="44.11301783300168" lon="10.734757138047122"><ele>840.3333333333334</ele><time>2026-05-01T13:28:44.875Z</time></trkpt><trkpt lat="44.11295592815742" lon="10.73477576597254"><ele>841.6666666666667</ele><time>2026-05-01T13:28:45.875Z</time></trkpt><trkpt lat="44.11288862602324" lon="10.734752888109767"><ele>843.0</ele><time>2026-05-01T13:28:46.875Z</time></trkpt><trkpt lat="44.11285994489612" lon="10.734668381868191"><ele>844.3333333333333</ele><time>2026-05-01T13:28:47.875Z</time></trkpt><trkpt lat="44.11290911389578" lon="10.734558174965363"><ele>845.6666666666666</ele><time>2026-05-01T13:28:49.875Z</time></trkpt><trkpt lat="44.11296952028945" lon="10.734532106321279"><ele>847.0</ele><time>2026-05-01T13:28:50.875Z</time></trkpt><trkpt lat="44.11306252924744" lon="10.73451387358121"><ele>847.0</ele><time>2026-05-01T13:28:51.875Z</time></trkpt><trkpt lat="44.11314650032995" lon="10.734473359337173"><ele>847.0</ele><time>2026-05-01T13:28:52.875Z</time></trkpt><trkpt lat="44.113242933257" lon="10.73438799649027"><ele>847.0</ele><time>2026-05-01T13:28:53.875Z</time></trkpt><trkpt lat="44.11337534863976" lon="10.734271403737809"><ele>847.0</ele><time>2026-05-01T13:28:54.875Z</time></trkpt><trkpt lat="44.11366547681414" lon="10.734022976964381"><ele>852.6666666666666</ele><time>2026-05-01T13:28:55.875Z</time></trkpt><trkpt lat="44.113763048945" lon="10.733866089857694"><ele>858.3333333333333</ele><time>2026-05-01T13:28:56.875Z</time></trkpt><trkpt lat="44.113856273303675" lon="10.733692199764052"><ele>864.0</ele><time>2026-05-01T13:28:57.875Z</time></trkpt><trkpt lat="44.11397614611273" lon="10.733551538157919"><ele>867.0</ele><time>2026-05-01T13:28:58.875Z</time></trkpt><trkpt lat="44.114148364608404" lon="10.733469859811143"><ele>870.0</ele><time>2026-05-01T13:28:59.875Z</time></trkpt><trkpt lat="44.11430236127825" lon="10.733371457677963"><ele>873.0</ele><time>2026-05-01T13:29:00.875Z</time></trkpt><trkpt lat="44.11443241628145" lon="10.733296739551601"><ele>873.0</ele><time>2026-05-01T13:29:01.875Z</time></trkpt><trkpt lat="44.11454044397524" lon="10.733259112003445"><ele>873.0</ele><time>2026-05-01T13:29:02.875Z</time></trkpt><trkpt lat="44.114632363181656" lon="10.733301544633253"><ele>873.0</ele><time>2026-05-01T13:29:03.875Z</time></trkpt><trkpt lat="44.114704638018125" lon="10.733413406189475"><ele>873.0</ele><time>2026-05-01T13:29:04.875Z</time></trkpt><trkpt lat="44.1148054404618" lon="10.733462445862042"><ele>873.0</ele><time>2026-05-01T13:29:05.875Z</time></trkpt><trkpt lat="44.114942104071446" lon="10.73341285674554"><ele>871.5</ele><time>2026-05-01T13:29:06.875Z</time></trkpt><trkpt lat="44.11506958663418" lon="10.733363972106186"><ele>870.0</ele><time>2026-05-01T13:29:07.875Z</time></trkpt><trkpt lat="44.115211697669864" lon="10.733289543922325"><ele>868.5</ele><time>2026-05-01T13:29:08.874Z</time></trkpt><trkpt lat="44.11536194294804" lon="10.733208488763266"><ele>867.0</ele><time>2026-05-01T13:29:09.874Z</time></trkpt><trkpt lat="44.115503122211884" lon="10.733135307519376"><ele>867.0</ele><time>2026-05-01T13:29:10.874Z</time></trkpt><trkpt lat="44.11564515285257" lon="10.73305018510023"><ele>867.0</ele><time>2026-05-01T13:29:11.874Z</time></trkpt><trkpt lat="44.11578147278848" lon="10.73294542140066"><ele>867.0</ele><time>2026-05-01T13:29:12.874Z</time></trkpt><trkpt lat="44.11591846972512" lon="10.732819592163194"><ele>871.3333333333333</ele><time>2026-05-01T13:29:13.874Z</time></trkpt><trkpt lat="44.11606350566918" lon="10.732695889020611"><ele>875.6666666666666</ele><time>2026-05-01T13:29:14.874Z</time></trkpt><trkpt lat="44.1162037774885" lon="10.732563827201469"><ele>880.0</ele><time>2026-05-01T13:29:15.874Z</time></trkpt><trkpt lat="44.11633369539632" lon="10.732447611789052"><ele>880.0</ele><time>2026-05-01T13:29:16.874Z</time></trkpt><trkpt lat="44.116455790039545" lon="10.732351256573653"><ele>880.0</ele><time>2026-05-01T13:29:17.874Z</time></trkpt><trkpt lat="44.116508807021354" lon="10.732247889474115"><ele>880.0</ele><time>2026-05-01T13:29:18.874Z</time></trkpt><trkpt lat="44.116522024523285" lon="10.732127439147932"><ele>880.0</ele><time>2026-05-01T13:29:19.874Z</time></trkpt><trkpt lat="44.11648472022642" lon="10.732009817355452"><ele>880.0</ele><time>2026-05-01T13:29:20.874Z</time></trkpt><trkpt lat="44.116406653543685" lon="10.731937630084744"><ele>880.0</ele><time>2026-05-01T13:29:21.874Z</time></trkpt><trkpt lat="44.1163102450048" lon="10.731902780580489"><ele>880.0</ele><time>2026-05-01T13:29:22.874Z</time></trkpt><trkpt lat="44.11621359003382" lon="10.731989231531562"><ele>880.0</ele><time>2026-05-01T13:29:23.874Z</time></trkpt><trkpt lat="44.11613596610806" lon="10.732118850044902"><ele>880.0</ele><time>2026-05-01T13:29:24.874Z</time></trkpt><trkpt lat="44.11606565821011" lon="10.732265698531409"><ele>880.0</ele><time>2026-05-01T13:29:25.874Z</time></trkpt><trkpt lat="44.11597579448515" lon="10.732382357509099"><ele>880.0</ele><time>2026-05-01T13:29:26.874Z</time></trkpt><trkpt lat="44.11590143732978" lon="10.732473985307685"><ele>880.0</ele><time>2026-05-01T13:29:27.874Z</time></trkpt><trkpt lat="44.1158304820382" lon="10.732514179301916"><ele>880.0</ele><time>2026-05-01T13:29:28.874Z</time></trkpt><trkpt lat="44.11572038312715" lon="10.732533919051091"><ele>880.0</ele><time>2026-05-01T13:29:29.874Z</time></trkpt><trkpt lat="44.11556246948825" lon="10.73256654309656"><ele>884.6666666666666</ele><time>2026-05-01T13:29:30.874Z</time></trkpt><trkpt lat="44.11540262235341" lon="10.73259607283005"><ele>889.3333333333333</ele><time>2026-05-01T13:29:31.874Z</time></trkpt><trkpt lat="44.115247300947686" lon="10.732625847134177"><ele>894.0</ele><time>2026-05-01T13:29:32.874Z</time></trkpt><trkpt lat="44.11508719270411" lon="10.732655863930097"><ele>894.0</ele><time>2026-05-01T13:29:33.874Z</time></trkpt><trkpt lat="44.11495111070504" lon="10.732681865916263"><ele>894.0000000000001</ele><time>2026-05-01T13:29:34.874Z</time></trkpt><trkpt lat="44.11484629372605" lon="10.73270559355248"><ele>894.0000000000001</ele><time>2026-05-01T13:29:35.874Z</time></trkpt><trkpt lat="44.1147728603335" lon="10.73271697854143"><ele>894.0</ele><time>2026-05-01T13:29:36.874Z</time></trkpt><trkpt lat="44.11472731241024" lon="10.732572319086083"><ele>894.0</ele><time>2026-05-01T13:29:38.874Z</time></trkpt><trkpt lat="44.114764850181274" lon="10.732497645682564"><ele>894.0</ele><time>2026-05-01T13:29:39.874Z</time></trkpt><trkpt lat="44.11482500940174" lon="10.732449231505159"><ele>894.0000000000001</ele><time>2026-05-01T13:29:40.874Z</time></trkpt><trkpt lat="44.114926585692814" lon="10.732469225271656"><ele>894.0000000000001</ele><time>2026-05-01T13:29:41.874Z</time></trkpt><trkpt lat="44.11503789195566" lon="10.732466571102792"><ele>894.0</ele><time>2026-05-01T13:29:42.874Z</time></trkpt><trkpt lat="44.11515484930029" lon="10.732476011804568"><ele>894.0</ele><time>2026-05-01T13:29:43.874Z</time></trkpt><trkpt lat="44.11526946294334" lon="10.732445435996274"><ele>894.0</ele><time>2026-05-01T13:29:44.874Z</time></trkpt><trkpt lat="44.11535273187153" lon="10.732382120399757"><ele>894.0000000000001</ele><time>2026-05-01T13:29:45.874Z</time></trkpt><trkpt lat="44.11541375905146" lon="10.732268695766416"><ele>894.0000000000001</ele><time>2026-05-01T13:29:46.874Z</time></trkpt><trkpt lat="44.11545419180667" lon="10.732116653999089"><ele>894.0</ele><time>2026-05-01T13:29:47.874Z</time></trkpt><trkpt lat="44.11549703080356" lon="10.731961148805237"><ele>894.0</ele><time>2026-05-01T13:29:48.874Z</time></trkpt><trkpt lat="44.11558780755427" lon="10.731857053901154"><ele>898.0</ele><time>2026-05-01T13:29:49.874Z</time></trkpt><trkpt lat="44.11571453417618" lon="10.731788179326195"><ele>902.0</ele><time>2026-05-01T13:29:50.874Z</time></trkpt><trkpt lat="44.11585386223319" lon="10.731745933389961"><ele>906.0</ele><time>2026-05-01T13:29:51.874Z</time></trkpt><trkpt lat="44.11596256632276" lon="10.73166307701305"><ele>910.0</ele><time>2026-05-01T13:29:52.874Z</time></trkpt><trkpt lat="44.116044249156246" lon="10.731553001555374"><ele>910.0</ele><time>2026-05-01T13:29:53.874Z</time></trkpt><trkpt lat="44.1161095635705" lon="10.731438824779044"><ele>910.0</ele><time>2026-05-01T13:29:54.874Z</time></trkpt><trkpt lat="44.11619257826414" lon="10.73134626434938"><ele>910.0</ele><time>2026-05-01T13:29:55.875Z</time></trkpt><trkpt lat="44.11633407257417" lon="10.731331034464095"><ele>910.0</ele><time>2026-05-01T13:29:56.874Z</time></trkpt><trkpt lat="44.1164845960137" lon="10.731336394637141"><ele>905.75</ele><time>2026-05-01T13:29:57.874Z</time></trkpt><trkpt lat="44.11663484592618" lon="10.731301384439115"><ele>901.5</ele><time>2026-05-01T13:29:58.874Z</time></trkpt><trkpt lat="44.116756935531285" lon="10.73123696905254"><ele>897.25</ele><time>2026-05-01T13:29:59.874Z</time></trkpt><trkpt lat="44.11684909408156" lon="10.731165061544276"><ele>893.0</ele><time>2026-05-01T13:30:00.874Z</time></trkpt><trkpt lat="44.11693588345159" lon="10.731095749259545"><ele>900.4</ele><time>2026-05-01T13:30:01.874Z</time></trkpt><trkpt lat="44.117023055656745" lon="10.73101693116245"><ele>907.8</ele><time>2026-05-01T13:30:02.874Z</time></trkpt><trkpt lat="44.11710180053418" lon="10.730896503155417"><ele>915.2</ele><time>2026-05-01T13:30:03.874Z</time></trkpt><trkpt lat="44.117172543680965" lon="10.730758844934188"><ele>922.6</ele><time>2026-05-01T13:30:04.874Z</time></trkpt><trkpt lat="44.117241294495656" lon="10.730648018174872"><ele>930.0</ele><time>2026-05-01T13:30:05.874Z</time></trkpt><trkpt lat="44.117356665353945" lon="10.730595186689806"><ele>933.25</ele><time>2026-05-01T13:30:06.874Z</time></trkpt><trkpt lat="44.11748726806892" lon="10.730493128229684"><ele>936.5</ele><time>2026-05-01T13:30:07.874Z</time></trkpt><trkpt lat="44.11759835516412" lon="10.730388971212145"><ele>939.75</ele><time>2026-05-01T13:30:08.874Z</time></trkpt><trkpt lat="44.117698358192534" lon="10.730258008887777"><ele>943.0</ele><time>2026-05-01T13:30:09.874Z</time></trkpt><trkpt lat="44.11779199740507" lon="10.730146815369016"><ele>943.0</ele><time>2026-05-01T13:30:10.874Z</time></trkpt><trkpt lat="44.11787958552354" lon="10.730061191179603"><ele>943.0</ele><time>2026-05-01T13:30:11.874Z</time></trkpt><trkpt lat="44.11796643762252" lon="10.729998026419382"><ele>943.0</ele><time>2026-05-01T13:30:12.874Z</time></trkpt><trkpt lat="44.11805511605499" lon="10.729947863066494"><ele>943.0</ele><time>2026-05-01T13:30:13.874Z</time></trkpt><trkpt lat="44.11815718240112" lon="10.72990737343808"><ele>943.0</ele><time>2026-05-01T13:30:14.874Z</time></trkpt><trkpt lat="44.118271485706" lon="10.729862064441845"><ele>939.5</ele><time>2026-05-01T13:30:15.874Z</time></trkpt><trkpt lat="44.11838636333919" lon="10.729832760983943"><ele>936.0</ele><time>2026-05-01T13:30:16.874Z</time></trkpt><trkpt lat="44.118506564948184" lon="10.729800197969652"><ele>932.5</ele><time>2026-05-01T13:30:17.874Z</time></trkpt><trkpt lat="44.11862658877592" lon="10.729814302739872"><ele>929.0</ele><time>2026-05-01T13:30:18.874Z</time></trkpt><trkpt lat="44.11873724431325" lon="10.729871217947716"><ele>929.0</ele><time>2026-05-01T13:30:19.874Z</time></trkpt><trkpt lat="44.118828912301076" lon="10.729963813269363"><ele>929.0000000000001</ele><time>2026-05-01T13:30:20.874Z</time></trkpt><trkpt lat="44.11890560596034" lon="10.730026650330913"><ele>929.0000000000001</ele><time>2026-05-01T13:30:21.874Z</time></trkpt><trkpt lat="44.11897269525533" lon="10.730069212850575"><ele>929.0</ele><time>2026-05-01T13:30:22.874Z</time></trkpt><trkpt lat="44.11903809823766" lon="10.73007793341814"><ele>929.0</ele><time>2026-05-01T13:30:23.874Z</time></trkpt><trkpt lat="44.119170149951195" lon="10.730014207049384"><ele>928.6666666666667</ele><time>2026-05-01T13:30:25.874Z</time></trkpt><trkpt lat="44.119268946679924" lon="10.72985605680086"><ele>928.3333333333333</ele><time>2026-05-01T13:30:26.874Z</time></trkpt><trkpt lat="44.119387175001" lon="10.729677854881631"><ele>928.0</ele><time>2026-05-01T13:30:27.874Z</time></trkpt><trkpt lat="44.11949599742604" lon="10.729501952596404"><ele>939.0</ele><time>2026-05-01T13:30:28.874Z</time></trkpt><trkpt lat="44.11960129252826" lon="10.729337215122987"><ele>950.0</ele><time>2026-05-01T13:30:29.874Z</time></trkpt><trkpt lat="44.119670526330765" lon="10.729154996082276"><ele>961.0</ele><time>2026-05-01T13:30:30.874Z</time></trkpt><trkpt lat="44.11974820433117" lon="10.728954500725441"><ele>961.0</ele><time>2026-05-01T13:30:31.874Z</time></trkpt><trkpt lat="44.1198237092457" lon="10.728754856801691"><ele>961.0</ele><time>2026-05-01T13:30:32.874Z</time></trkpt><trkpt lat="44.119887124067674" lon="10.728577243599428"><ele>961.0</ele><time>2026-05-01T13:30:33.874Z</time></trkpt><trkpt lat="44.11995210043655" lon="10.7283989701912"><ele>961.0</ele><time>2026-05-01T13:30:34.874Z</time></trkpt><trkpt lat="44.119984109406865" lon="10.728221636357125"><ele>960.0</ele><time>2026-05-01T13:30:35.874Z</time></trkpt><trkpt lat="44.12001098923558" lon="10.72802758872984"><ele>959.0</ele><time>2026-05-01T13:30:36.874Z</time></trkpt><trkpt lat="44.1200343603495" lon="10.727819152181798"><ele>958.0</ele><time>2026-05-01T13:30:37.874Z</time></trkpt><trkpt lat="44.12006920039112" lon="10.727621268030367"><ele>957.0</ele><time>2026-05-01T13:30:38.874Z</time></trkpt><trkpt lat="44.12012853428051" lon="10.727455639980574"><ele>957.0</ele><time>2026-05-01T13:30:39.874Z</time></trkpt><trkpt lat="44.12020488926988" lon="10.727343245334959"><ele>957.0</ele><time>2026-05-01T13:30:40.874Z</time></trkpt><trkpt lat="44.120278735544375" lon="10.727262856103337"><ele>957.0</ele><time>2026-05-01T13:30:41.874Z</time></trkpt><trkpt lat="44.120298361467405" lon="10.727176462703177"><ele>957.0</ele><time>2026-05-01T13:30:42.874Z</time></trkpt><trkpt lat="44.12021423990045" lon="10.727066545255948"><ele>957.0</ele><time>2026-05-01T13:30:44.874Z</time></trkpt><trkpt lat="44.12014319137517" lon="10.727065697059736"><ele>957.0</ele><time>2026-05-01T13:30:45.874Z</time></trkpt><trkpt lat="44.120059053042986" lon="10.727085837505502"><ele>957.0</ele><time>2026-05-01T13:30:46.874Z</time></trkpt><trkpt lat="44.119961453063475" lon="10.72714103384633"><ele>957.0</ele><time>2026-05-01T13:30:47.874Z</time></trkpt><trkpt lat="44.119865772704024" lon="10.727233795998028"><ele>957.0</ele><time>2026-05-01T13:30:48.874Z</time></trkpt><trkpt lat="44.11976370969362" lon="10.727354849308284"><ele>957.0</ele><time>2026-05-01T13:30:49.874Z</time></trkpt><trkpt lat="44.119706362846735" lon="10.72752008892714"><ele>962.25</ele><time>2026-05-01T13:30:50.874Z</time></trkpt><trkpt lat="44.11965080500321" lon="10.727678790954982"><ele>967.5</ele><time>2026-05-01T13:30:51.874Z</time></trkpt><trkpt lat="44.11962739639661" lon="10.727833481296486"><ele>972.75</ele><time>2026-05-01T13:30:52.874Z</time></trkpt><trkpt lat="44.119646415460934" lon="10.727996800959993"><ele>978.0</ele><time>2026-05-01T13:30:53.874Z</time></trkpt><trkpt lat="44.11966623040687" lon="10.728134503704615"><ele>978.0</ele><time>2026-05-01T13:30:54.874Z</time></trkpt><trkpt lat="44.11964364457657" lon="10.728238166175576"><ele>978.0</ele><time>2026-05-01T13:30:55.874Z</time></trkpt><trkpt lat="44.119602856509935" lon="10.728326643763092"><ele>978.0</ele><time>2026-05-01T13:30:56.874Z</time></trkpt><trkpt lat="44.11955036530161" lon="10.728425476368072"><ele>978.0</ele><time>2026-05-01T13:30:57.874Z</time></trkpt><trkpt lat="44.11950559821702" lon="10.728488461151054"><ele>978.0</ele><time>2026-05-01T13:30:58.874Z</time></trkpt><trkpt lat="44.11943851052039" lon="10.728469751699652"><ele>978.0</ele><time>2026-05-01T13:31:00.874Z</time></trkpt><trkpt lat="44.11944330155657" lon="10.728299936719031"><ele>978.0</ele><time>2026-05-01T13:31:02.874Z</time></trkpt><trkpt lat="44.11948397168652" lon="10.728174554366577"><ele>978.0</ele><time>2026-05-01T13:31:03.874Z</time></trkpt><trkpt lat="44.11950884175929" lon="10.728028263299702"><ele>978.0</ele><time>2026-05-01T13:31:04.874Z</time></trkpt><trkpt lat="44.11953049197411" lon="10.727854935391726"><ele>978.0</ele><time>2026-05-01T13:31:05.874Z</time></trkpt><trkpt lat="44.11955986498192" lon="10.727648507396985"><ele>985.0</ele><time>2026-05-01T13:31:06.874Z</time></trkpt><trkpt lat="44.11957898234136" lon="10.727432398840474"><ele>992.0</ele><time>2026-05-01T13:31:07.874Z</time></trkpt><trkpt lat="44.11961876986622" lon="10.727223736066426"><ele>999.0</ele><time>2026-05-01T13:31:08.874Z</time></trkpt><trkpt lat="44.11968827815708" lon="10.72701943844925"><ele>992.6666666666667</ele><time>2026-05-01T13:31:09.874Z</time></trkpt><trkpt lat="44.11977277985573" lon="10.726816625647446"><ele>986.3333333333334</ele><time>2026-05-01T13:31:10.874Z</time></trkpt><trkpt lat="44.11986386479815" lon="10.726618932150046"><ele>980.0</ele><time>2026-05-01T13:31:11.874Z</time></trkpt><trkpt lat="44.1199671223949" lon="10.726446038207929"><ele>980.0</ele><time>2026-05-01T13:31:12.874Z</time></trkpt><trkpt lat="44.12005866487113" lon="10.726313567561009"><ele>980.0</ele><time>2026-05-01T13:31:13.874Z</time></trkpt><trkpt lat="44.120142707821245" lon="10.726225383236686"><ele>980.0</ele><time>2026-05-01T13:31:14.874Z</time></trkpt><trkpt lat="44.12022101392502" lon="10.726186903872659"><ele>980.0</ele><time>2026-05-01T13:31:15.874Z</time></trkpt><trkpt lat="44.120279053039425" lon="10.726297874748306"><ele>980.0</ele><time>2026-05-01T13:31:16.874Z</time></trkpt><trkpt lat="44.12034566817834" lon="10.726317182518985"><ele>980.0</ele><time>2026-05-01T13:31:17.873Z</time></trkpt><trkpt lat="44.12041742323164" lon="10.726324731617074"><ele>980.0</ele><time>2026-05-01T13:31:18.873Z</time></trkpt><trkpt lat="44.12051061273859" lon="10.726322314330801"><ele>980.0</ele><time>2026-05-01T13:31:19.873Z</time></trkpt><trkpt lat="44.120622620195604" lon="10.726272239012575"><ele>980.0</ele><time>2026-05-01T13:31:20.873Z</time></trkpt><trkpt lat="44.120738463995224" lon="10.726206206730573"><ele>980.0</ele><time>2026-05-01T13:31:21.873Z</time></trkpt><trkpt lat="44.12084699674648" lon="10.726183622156926"><ele>979.25</ele><time>2026-05-01T13:31:22.873Z</time></trkpt><trkpt lat="44.12095506981797" lon="10.726242293789932"><ele>978.5</ele><time>2026-05-01T13:31:23.873Z</time></trkpt><trkpt lat="44.121100828939035" lon="10.726308694134318"><ele>977.75</ele><time>2026-05-01T13:31:24.873Z</time></trkpt><trkpt lat="44.12122705924198" lon="10.726387157474754"><ele>977.0</ele><time>2026-05-01T13:31:25.873Z</time></trkpt><trkpt lat="44.121325825663234" lon="10.726512728528958"><ele>977.0</ele><time>2026-05-01T13:31:26.873Z</time></trkpt><trkpt lat="44.12141288510417" lon="10.726633804862333"><ele>977.0</ele><time>2026-05-01T13:31:27.873Z</time></trkpt><trkpt lat="44.12150399412996" lon="10.726707487766497"><ele>977.0</ele><time>2026-05-01T13:31:28.873Z</time></trkpt><trkpt lat="44.12159004302616" lon="10.726755279136102"><ele>977.0</ele><time>2026-05-01T13:31:29.873Z</time></trkpt><trkpt lat="44.12168731600055" lon="10.726756723549483"><ele>977.0</ele><time>2026-05-01T13:31:30.873Z</time></trkpt><trkpt lat="44.121775444976585" lon="10.726708840296004"><ele>979.75</ele><time>2026-05-01T13:31:31.873Z</time></trkpt><trkpt lat="44.12186512845575" lon="10.726598348842003"><ele>982.5</ele><time>2026-05-01T13:31:32.873Z</time></trkpt><trkpt lat="44.121918829989646" lon="10.726457489579392"><ele>985.25</ele><time>2026-05-01T13:31:33.873Z</time></trkpt><trkpt lat="44.121937548779236" lon="10.72631111063725"><ele>988.0</ele><time>2026-05-01T13:31:34.873Z</time></trkpt><trkpt lat="44.121922493534754" lon="10.726154608973205"><ele>992.5</ele><time>2026-05-01T13:31:35.873Z</time></trkpt><trkpt lat="44.121873991765334" lon="10.726007063907817"><ele>997.0</ele><time>2026-05-01T13:31:36.873Z</time></trkpt><trkpt lat="44.121830488540226" lon="10.725852726813663"><ele>1001.5</ele><time>2026-05-01T13:31:37.873Z</time></trkpt><trkpt lat="44.121798874879644" lon="10.725705946128041"><ele>1006.0</ele><time>2026-05-01T13:31:38.873Z</time></trkpt><trkpt lat="44.1217763092192" lon="10.72556203122506"><ele>1006.0</ele><time>2026-05-01T13:31:39.873Z</time></trkpt><trkpt lat="44.1218004792" lon="10.725420023309995"><ele>1006.0</ele><time>2026-05-01T13:31:40.873Z</time></trkpt><trkpt lat="44.121863755412626" lon="10.725287398918718"><ele>1006.0</ele><time>2026-05-01T13:31:41.873Z</time></trkpt><trkpt lat="44.12196573998261" lon="10.725154081844124"><ele>1006.0</ele><time>2026-05-01T13:31:42.873Z</time></trkpt><trkpt lat="44.12208908223073" lon="10.724998774310997"><ele>1011.5</ele><time>2026-05-01T13:31:43.873Z</time></trkpt><trkpt lat="44.122199053631086" lon="10.724863912801121"><ele>1017.0</ele><time>2026-05-01T13:31:44.873Z</time></trkpt><trkpt lat="44.12228452975462" lon="10.724731123786396"><ele>1022.5</ele><time>2026-05-01T13:31:45.873Z</time></trkpt><trkpt lat="44.1223187110206" lon="10.724626355655706"><ele>1028.0</ele><time>2026-05-01T13:31:46.873Z</time></trkpt><trkpt lat="44.122312155457735" lon="10.724492795694239"><ele>1025.25</ele><time>2026-05-01T13:31:47.873Z</time></trkpt><trkpt lat="44.122304745163895" lon="10.724352364662893"><ele>1022.5</ele><time>2026-05-01T13:31:48.873Z</time></trkpt><trkpt lat="44.12233047576258" lon="10.724214929497016"><ele>1019.75</ele><time>2026-05-01T13:31:49.873Z</time></trkpt><trkpt lat="44.122395323963175" lon="10.724084557855196"><ele>1017.0</ele><time>2026-05-01T13:31:50.873Z</time></trkpt><trkpt lat="44.12250216974107" lon="10.723933533377357"><ele>1017.0</ele><time>2026-05-01T13:31:51.873Z</time></trkpt><trkpt lat="44.1226168264605" lon="10.723761441120134"><ele>1017.0</ele><time>2026-05-01T13:31:52.873Z</time></trkpt><trkpt lat="44.12272583113164" lon="10.723570633419982"><ele>1017.0</ele><time>2026-05-01T13:31:53.873Z</time></trkpt><trkpt lat="44.12280448900881" lon="10.723399256484328"><ele>1022.0</ele><time>2026-05-01T13:31:54.873Z</time></trkpt><trkpt lat="44.12288934832763" lon="10.723270153453747"><ele>1027.0</ele><time>2026-05-01T13:31:55.873Z</time></trkpt><trkpt lat="44.12296731049069" lon="10.723171501558664"><ele>1032.0</ele><time>2026-05-01T13:31:56.873Z</time></trkpt><trkpt lat="44.12303882256578" lon="10.723088405006576"><ele>1037.0</ele><time>2026-05-01T13:31:57.873Z</time></trkpt><trkpt lat="44.123085014178436" lon="10.722982207685789"><ele>1042.0</ele><time>2026-05-01T13:31:58.873Z</time></trkpt><trkpt lat="44.12313333532316" lon="10.7228597381765"><ele>1042.0</ele><time>2026-05-01T13:31:59.873Z</time></trkpt><trkpt lat="44.123168687123794" lon="10.722742281576854"><ele>1042.0</ele><time>2026-05-01T13:32:00.873Z</time></trkpt><trkpt lat="44.123180064419564" lon="10.722586174955861"><ele>1042.0</ele><time>2026-05-01T13:32:01.873Z</time></trkpt><trkpt lat="44.12313040056738" lon="10.722434448780584"><ele>1042.0</ele><time>2026-05-01T13:32:02.873Z</time></trkpt><trkpt lat="44.1230431166758" lon="10.722289305460945"><ele>1045.3333333333333</ele><time>2026-05-01T13:32:03.873Z</time></trkpt><trkpt lat="44.12295792150304" lon="10.72214463958616"><ele>1048.6666666666667</ele><time>2026-05-01T13:32:04.873Z</time></trkpt><trkpt lat="44.122856506849025" lon="10.721967869894783"><ele>1052.0</ele><time>2026-05-01T13:32:05.872Z</time></trkpt><trkpt lat="44.122755451502364" lon="10.721789186352083"><ele>1052.0</ele><time>2026-05-01T13:32:06.872Z</time></trkpt><trkpt lat="44.12264973117645" lon="10.72160385665314"><ele>1052.0</ele><time>2026-05-01T13:32:07.873Z</time></trkpt><trkpt lat="44.122539405980916" lon="10.72141067657738"><ele>1052.0</ele><time>2026-05-01T13:32:08.873Z</time></trkpt><trkpt lat="44.1224335422073" lon="10.721224926172587"><ele>1062.5</ele><time>2026-05-01T13:32:09.873Z</time></trkpt><trkpt lat="44.122340312901834" lon="10.72106423080181"><ele>1073.0</ele><time>2026-05-01T13:32:10.873Z</time></trkpt><trkpt lat="44.122257138872094" lon="10.720919463048377"><ele>1083.5</ele><time>2026-05-01T13:32:11.873Z</time></trkpt><trkpt lat="44.12218100015596" lon="10.7207845209933"><ele>1094.0</ele><time>2026-05-01T13:32:12.873Z</time></trkpt><trkpt lat="44.122137640638506" lon="10.720611646517423"><ele>1094.0</ele><time>2026-05-01T13:32:13.873Z</time></trkpt><trkpt lat="44.12209522025212" lon="10.720419601143451"><ele>1094.0</ele><time>2026-05-01T13:32:14.873Z</time></trkpt><trkpt lat="44.12207386984886" lon="10.72021477200794"><ele>1094.0</ele><time>2026-05-01T13:32:15.873Z</time></trkpt><trkpt lat="44.122040473059066" lon="10.720027459899434"><ele>1094.0</ele><time>2026-05-01T13:32:16.873Z</time></trkpt><trkpt lat="44.12201411657355" lon="10.719864809889678"><ele>1090.25</ele><time>2026-05-01T13:32:17.873Z</time></trkpt><trkpt lat="44.12200475341509" lon="10.719688208553727"><ele>1086.5</ele><time>2026-05-01T13:32:18.873Z</time></trkpt><trkpt lat="44.122001979166285" lon="10.719536456079027"><ele>1082.75</ele><time>2026-05-01T13:32:19.873Z</time></trkpt><trkpt lat="44.121983922224736" lon="10.719341630359944"><ele>1079.0</ele><time>2026-05-01T13:32:20.873Z</time></trkpt><trkpt lat="44.12206218337866" lon="10.719169826612287"><ele>1078.6666666666667</ele><time>2026-05-01T13:32:21.873Z</time></trkpt><trkpt lat="44.1221480581923" lon="10.718991129989053"><ele>1078.3333333333333</ele><time>2026-05-01T13:32:22.873Z</time></trkpt><trkpt lat="44.12224815969737" lon="10.718762641417694"><ele>1078.0</ele><time>2026-05-01T13:32:23.873Z</time></trkpt><trkpt lat="44.12239792514965" lon="10.718482883341304"><ele>1070.0</ele><time>2026-05-01T13:32:24.873Z</time></trkpt><trkpt lat="44.122557913524474" lon="10.718222759279108"><ele>1062.0</ele><time>2026-05-01T13:32:25.873Z</time></trkpt><trkpt lat="44.12269052067656" lon="10.717986060375827"><ele>1062.0</ele><time>2026-05-01T13:32:26.873Z</time></trkpt><trkpt lat="44.12281734547572" lon="10.717735322579896"><ele>1062.0</ele><time>2026-05-01T13:32:27.873Z</time></trkpt><trkpt lat="44.122947667671475" lon="10.71749592581051"><ele>1062.0</ele><time>2026-05-01T13:32:28.873Z</time></trkpt><trkpt lat="44.1230745528664" lon="10.717263118138778"><ele>1065.6666666666667</ele><time>2026-05-01T13:32:29.873Z</time></trkpt><trkpt lat="44.123202691593484" lon="10.71705294227222"><ele>1069.3333333333335</ele><time>2026-05-01T13:32:30.873Z</time></trkpt><trkpt lat="44.123328091768" lon="10.716821685670142"><ele>1073.0</ele><time>2026-05-01T13:32:31.873Z</time></trkpt><trkpt lat="44.123435544758664" lon="10.716608650065453"><ele>1073.0</ele><time>2026-05-01T13:32:32.873Z</time></trkpt><trkpt lat="44.12352759392648" lon="10.716394316945038"><ele>1073.0</ele><time>2026-05-01T13:32:33.873Z</time></trkpt><trkpt lat="44.1236311336811" lon="10.716148969021402"><ele>1073.0</ele><time>2026-05-01T13:32:34.873Z</time></trkpt><trkpt lat="44.123749657999376" lon="10.715960417082847"><ele>1078.6666666666667</ele><time>2026-05-01T13:32:35.873Z</time></trkpt><trkpt lat="44.12392171905939" lon="10.71579676651995"><ele>1084.3333333333333</ele><time>2026-05-01T13:32:36.873Z</time></trkpt><trkpt lat="44.12399904047594" lon="10.715592615606502"><ele>1090.0</ele><time>2026-05-01T13:32:37.873Z</time></trkpt><trkpt lat="44.124003227786204" lon="10.715389153201947"><ele>1090.0</ele><time>2026-05-01T13:32:38.873Z</time></trkpt><trkpt lat="44.12403192641444" lon="10.715596700543331"><ele>1090.0</ele><time>2026-05-01T13:32:39.873Z</time></trkpt><trkpt lat="44.12403906834898" lon="10.715498194409394"><ele>1090.0</ele><time>2026-05-01T13:32:40.873Z</time></trkpt><trkpt lat="44.124007082888845" lon="10.715413962391745"><ele>1090.0</ele><time>2026-05-01T13:32:41.873Z</time></trkpt><trkpt lat="44.12394997592057" lon="10.71534517140377"><ele>1090.0</ele><time>2026-05-01T13:32:42.873Z</time></trkpt><trkpt lat="44.12386331837798" lon="10.71531694419349"><ele>1090.0</ele><time>2026-05-01T13:32:43.873Z</time></trkpt><trkpt lat="44.123763025041036" lon="10.71535036230425"><ele>1090.0</ele><time>2026-05-01T13:32:44.873Z</time></trkpt><trkpt lat="44.12368481499888" lon="10.715464663406866"><ele>1090.0</ele><time>2026-05-01T13:32:45.873Z</time></trkpt><trkpt lat="44.12358863437685" lon="10.715607677780314"><ele>1090.0</ele><time>2026-05-01T13:32:46.873Z</time></trkpt><trkpt lat="44.123489291981635" lon="10.71577968447379"><ele>1090.0</ele><time>2026-05-01T13:32:47.873Z</time></trkpt><trkpt lat="44.12338487822467" lon="10.715960472417672"><ele>1090.0</ele><time>2026-05-01T13:32:48.873Z</time></trkpt><trkpt lat="44.12327325300405" lon="10.71615243046284"><ele>1090.0</ele><time>2026-05-01T13:32:49.873Z</time></trkpt><trkpt lat="44.12317163411248" lon="10.716326318249687"><ele>1093.4</ele><time>2026-05-01T13:32:50.873Z</time></trkpt><trkpt lat="44.1230870774005" lon="10.716469124990345"><ele>1096.8</ele><time>2026-05-01T13:32:51.873Z</time></trkpt><trkpt lat="44.123018670199485" lon="10.716576276197149"><ele>1100.2</ele><time>2026-05-01T13:32:52.873Z</time></trkpt><trkpt lat="44.12295681526625" lon="10.716631286528541"><ele>1103.6</ele><time>2026-05-01T13:32:53.873Z</time></trkpt><trkpt lat="44.12288935268647" lon="10.71665681829066"><ele>1107.0</ele><time>2026-05-01T13:32:54.873Z</time></trkpt><trkpt lat="44.12281332885133" lon="10.716660026303016"><ele>1107.0</ele><time>2026-05-01T13:32:55.873Z</time></trkpt><trkpt lat="44.12274259456534" lon="10.716478865299361"><ele>1107.0</ele><time>2026-05-01T13:32:57.873Z</time></trkpt><trkpt lat="44.122779576708545" lon="10.716352758731592"><ele>1107.0</ele><time>2026-05-01T13:32:58.873Z</time></trkpt><trkpt lat="44.12285340746708" lon="10.71623643869924"><ele>1107.0</ele><time>2026-05-01T13:32:59.873Z</time></trkpt><trkpt lat="44.12295028010016" lon="10.71610127713179"><ele>1113.0</ele><time>2026-05-01T13:33:00.873Z</time></trkpt><trkpt lat="44.123036077954616" lon="10.715934087754004"><ele>1119.0</ele><time>2026-05-01T13:33:01.873Z</time></trkpt><trkpt lat="44.12314120492254" lon="10.71570064406277"><ele>1125.0</ele><time>2026-05-01T13:33:02.873Z</time></trkpt><trkpt lat="44.12321451613021" lon="10.71552490094125"><ele>1122.75</ele><time>2026-05-01T13:33:03.872Z</time></trkpt><trkpt lat="44.12327748183031" lon="10.715332305583622"><ele>1120.5</ele><time>2026-05-01T13:33:04.872Z</time></trkpt><trkpt lat="44.12332199234248" lon="10.715128477814002"><ele>1118.25</ele><time>2026-05-01T13:33:05.872Z</time></trkpt><trkpt lat="44.12336657493506" lon="10.714948547755899"><ele>1116.0</ele><time>2026-05-01T13:33:06.872Z</time></trkpt><trkpt lat="44.123458939756794" lon="10.71485191278747"><ele>1116.0</ele><time>2026-05-01T13:33:07.872Z</time></trkpt><trkpt lat="44.12354610866412" lon="10.714808099688122"><ele>1116.0</ele><time>2026-05-01T13:33:08.872Z</time></trkpt><trkpt lat="44.12366370171556" lon="10.714720093952371"><ele>1116.0</ele><time>2026-05-01T13:33:09.872Z</time></trkpt><trkpt lat="44.12375570398385" lon="10.714633195517461"><ele>1116.0</ele><time>2026-05-01T13:33:10.872Z</time></trkpt><trkpt lat="44.12381015503127" lon="10.714541515943372"><ele>1116.0</ele><time>2026-05-01T13:33:11.872Z</time></trkpt><trkpt lat="44.12382616789789" lon="10.71441651886347"><ele>1121.0</ele><time>2026-05-01T13:33:12.872Z</time></trkpt><trkpt lat="44.12376801652314" lon="10.714258719769951"><ele>1126.0</ele><time>2026-05-01T13:33:13.872Z</time></trkpt><trkpt lat="44.1237467132552" lon="10.714085273267115"><ele>1131.0</ele><time>2026-05-01T13:33:14.872Z</time></trkpt><trkpt lat="44.123710853370575" lon="10.713916985409178"><ele>1136.0</ele><time>2026-05-01T13:33:15.872Z</time></trkpt><trkpt lat="44.123709490426926" lon="10.713775182335601"><ele>1136.0</ele><time>2026-05-01T13:33:16.872Z</time></trkpt><trkpt lat="44.123741951313214" lon="10.713626279969725"><ele>1136.0</ele><time>2026-05-01T13:33:17.872Z</time></trkpt><trkpt lat="44.12381872173459" lon="10.71345535739691"><ele>1136.0</ele><time>2026-05-01T13:33:18.872Z</time></trkpt><trkpt lat="44.123920263726696" lon="10.713258090922537"><ele>1136.0</ele><time>2026-05-01T13:33:19.872Z</time></trkpt><trkpt lat="44.124044264077725" lon="10.713150594392138"><ele>1137.25</ele><time>2026-05-01T13:33:20.872Z</time></trkpt><trkpt lat="44.12413546383901" lon="10.713059145364559"><ele>1138.5</ele><time>2026-05-01T13:33:21.872Z</time></trkpt><trkpt lat="44.12419780152546" lon="10.71292661819774"><ele>1139.75</ele><time>2026-05-01T13:33:22.872Z</time></trkpt><trkpt lat="44.124206451573485" lon="10.712743259367427"><ele>1141.0</ele><time>2026-05-01T13:33:23.872Z</time></trkpt><trkpt lat="44.124232232891536" lon="10.712541530560154"><ele>1141.0</ele><time>2026-05-01T13:33:24.872Z</time></trkpt><trkpt lat="44.1242984090133" lon="10.712347385676177"><ele>1141.0</ele><time>2026-05-01T13:33:25.872Z</time></trkpt><trkpt lat="44.12435376093999" lon="10.712177114304676"><ele>1141.0</ele><time>2026-05-01T13:33:26.872Z</time></trkpt><trkpt lat="44.12442098849772" lon="10.712052296258594"><ele>1141.0</ele><time>2026-05-01T13:33:27.872Z</time></trkpt><trkpt lat="44.12444218007745" lon="10.71193672752298"><ele>1144.1666666666665</ele><time>2026-05-01T13:33:28.872Z</time></trkpt><trkpt lat="44.124422072327654" lon="10.71182116541791"><ele>1147.3333333333333</ele><time>2026-05-01T13:33:29.872Z</time></trkpt><trkpt lat="44.12440633241311" lon="10.711716226471731"><ele>1150.5</ele><time>2026-05-01T13:33:30.872Z</time></trkpt><trkpt lat="44.12441724323818" lon="10.711596967571172"><ele>1153.6666666666667</ele><time>2026-05-01T13:33:31.872Z</time></trkpt><trkpt lat="44.12445591411792" lon="10.711520987905386"><ele>1156.8333333333335</ele><time>2026-05-01T13:33:32.872Z</time></trkpt><trkpt lat="44.124571255934114" lon="10.711526562426837"><ele>1160.0</ele><time>2026-05-01T13:33:33.872Z</time></trkpt><trkpt lat="44.12467452913173" lon="10.71156267054232"><ele>1160.0</ele><time>2026-05-01T13:33:34.872Z</time></trkpt><trkpt lat="44.124775784790685" lon="10.711590774384195"><ele>1160.0</ele><time>2026-05-01T13:33:35.872Z</time></trkpt><trkpt lat="44.124885084977336" lon="10.711542543933655"><ele>1160.0</ele><time>2026-05-01T13:33:36.872Z</time></trkpt><trkpt lat="44.12500441537873" lon="10.711423691489774"><ele>1160.0</ele><time>2026-05-01T13:33:37.872Z</time></trkpt><trkpt lat="44.1250810489692" lon="10.711252714719365"><ele>1161.25</ele><time>2026-05-01T13:33:38.872Z</time></trkpt><trkpt lat="44.125146898328985" lon="10.7110623646418"><ele>1162.5</ele><time>2026-05-01T13:33:39.872Z</time></trkpt><trkpt lat="44.125231343731826" lon="10.710896722695153"><ele>1163.75</ele><time>2026-05-01T13:33:40.872Z</time></trkpt><trkpt lat="44.12534835497305" lon="10.710777126273655"><ele>1165.0</ele><time>2026-05-01T13:33:41.872Z</time></trkpt><trkpt lat="44.125488270293324" lon="10.710672254223653"><ele>1165.0</ele><time>2026-05-01T13:33:42.872Z</time></trkpt><trkpt lat="44.12557332481669" lon="10.71051066410776"><ele>1165.0</ele><time>2026-05-01T13:33:43.872Z</time></trkpt><trkpt lat="44.125662591418795" lon="10.710356836269835"><ele>1165.0</ele><time>2026-05-01T13:33:44.872Z</time></trkpt><trkpt lat="44.12573463267156" lon="10.71023581418506"><ele>1165.0</ele><time>2026-05-01T13:33:45.872Z</time></trkpt><trkpt lat="44.12581723364216" lon="10.710144459840432"><ele>1163.75</ele><time>2026-05-01T13:33:46.872Z</time></trkpt><trkpt lat="44.12588458086729" lon="10.710026553422095"><ele>1162.5</ele><time>2026-05-01T13:33:47.872Z</time></trkpt><trkpt lat="44.12594271525824" lon="10.709898700514573"><ele>1161.25</ele><time>2026-05-01T13:33:48.872Z</time></trkpt><trkpt lat="44.125943365501705" lon="10.709744196956986"><ele>1160.0</ele><time>2026-05-01T13:33:49.872Z</time></trkpt><trkpt lat="44.12590891726582" lon="10.709580139631292"><ele>1160.0</ele><time>2026-05-01T13:33:50.872Z</time></trkpt><trkpt lat="44.12585661569885" lon="10.709429666469182"><ele>1160.0</ele><time>2026-05-01T13:33:51.872Z</time></trkpt><trkpt lat="44.12576590350117" lon="10.70933275027224"><ele>1160.0</ele><time>2026-05-01T13:33:52.872Z</time></trkpt><trkpt lat="44.125660044477726" lon="10.709277057839559"><ele>1160.0</ele><time>2026-05-01T13:33:53.872Z</time></trkpt><trkpt lat="44.12552622871568" lon="10.709184356853967"><ele>1167.0</ele><time>2026-05-01T13:33:54.872Z</time></trkpt><trkpt lat="44.12541908474329" lon="10.709063798665065"><ele>1174.0</ele><time>2026-05-01T13:33:55.872Z</time></trkpt><trkpt lat="44.125353525609306" lon="10.708928180478027"><ele>1181.0</ele><time>2026-05-01T13:33:56.872Z</time></trkpt><trkpt lat="44.12529567062321" lon="10.708763078247731"><ele>1188.0</ele><time>2026-05-01T13:33:57.872Z</time></trkpt><trkpt lat="44.12523539189077" lon="10.708600059142405"><ele>1187.5</ele><time>2026-05-01T13:33:58.872Z</time></trkpt><trkpt lat="44.12516334812612" lon="10.708455132143843"><ele>1187.0</ele><time>2026-05-01T13:33:59.872Z</time></trkpt><trkpt lat="44.12513175551029" lon="10.708307312742807"><ele>1186.5</ele><time>2026-05-01T13:34:00.872Z</time></trkpt><trkpt lat="44.1251066878698" lon="10.708151957522137"><ele>1186.0</ele><time>2026-05-01T13:34:01.872Z</time></trkpt><trkpt lat="44.12511836532509" lon="10.708006195115443"><ele>1186.0</ele><time>2026-05-01T13:34:02.872Z</time></trkpt><trkpt lat="44.125156437804954" lon="10.707857703597215"><ele>1186.0</ele><time>2026-05-01T13:34:03.872Z</time></trkpt><trkpt lat="44.12523807077649" lon="10.707685010303091"><ele>1186.0</ele><time>2026-05-01T13:34:04.872Z</time></trkpt><trkpt lat="44.12535110369162" lon="10.707530619169278"><ele>1186.0</ele><time>2026-05-01T13:34:05.872Z</time></trkpt><trkpt lat="44.125426232358365" lon="10.707390720159985"><ele>1186.25</ele><time>2026-05-01T13:34:06.872Z</time></trkpt><trkpt lat="44.125500058683116" lon="10.707239488832926"><ele>1186.5</ele><time>2026-05-01T13:34:07.872Z</time></trkpt><trkpt lat="44.12557961452272" lon="10.70709065886129"><ele>1186.75</ele><time>2026-05-01T13:34:08.872Z</time></trkpt><trkpt lat="44.12568591953894" lon="10.70696944155465"><ele>1187.0</ele><time>2026-05-01T13:34:09.872Z</time></trkpt><trkpt lat="44.12580764222169" lon="10.706873885646013"><ele>1187.0</ele><time>2026-05-01T13:34:10.872Z</time></trkpt><trkpt lat="44.12591994297633" lon="10.706785709279835"><ele>1187.0</ele><time>2026-05-01T13:34:11.872Z</time></trkpt><trkpt lat="44.126029822657316" lon="10.706708426397958"><ele>1187.0</ele><time>2026-05-01T13:34:12.872Z</time></trkpt><trkpt lat="44.12612183763947" lon="10.706620450566776"><ele>1187.0</ele><time>2026-05-01T13:34:13.872Z</time></trkpt><trkpt lat="44.12619865823604" lon="10.706505707270315"><ele>1187.0</ele><time>2026-05-01T13:34:14.872Z</time></trkpt><trkpt lat="44.12626067649614" lon="10.706361950428727"><ele>1187.0</ele><time>2026-05-01T13:34:15.872Z</time></trkpt><trkpt lat="44.126305726389084" lon="10.706203718504526"><ele>1187.0</ele><time>2026-05-01T13:34:16.873Z</time></trkpt><trkpt lat="44.12633588626571" lon="10.706039502443327"><ele>1187.0</ele><time>2026-05-01T13:34:17.872Z</time></trkpt><trkpt lat="44.12635514506922" lon="10.705849372988588"><ele>1195.0</ele><time>2026-05-01T13:34:18.872Z</time></trkpt><trkpt lat="44.12637959950775" lon="10.705650404026969"><ele>1203.0</ele><time>2026-05-01T13:34:19.872Z</time></trkpt><trkpt lat="44.12641320787916" lon="10.705438361123468"><ele>1211.0</ele><time>2026-05-01T13:34:20.872Z</time></trkpt><trkpt lat="44.12640663663468" lon="10.705224431285567"><ele>1213.5</ele><time>2026-05-01T13:34:21.872Z</time></trkpt><trkpt lat="44.12642765972981" lon="10.705028067416725"><ele>1216.0</ele><time>2026-05-01T13:34:22.872Z</time></trkpt><trkpt lat="44.12643754292284" lon="10.704858309679055"><ele>1218.5</ele><time>2026-05-01T13:34:23.872Z</time></trkpt><trkpt lat="44.12643644185093" lon="10.704700626685147"><ele>1221.0</ele><time>2026-05-01T13:34:24.872Z</time></trkpt><trkpt lat="44.12644359877593" lon="10.704552912902628"><ele>1221.0</ele><time>2026-05-01T13:34:25.872Z</time></trkpt><trkpt lat="44.12643250563609" lon="10.704438035634432"><ele>1221.0</ele><time>2026-05-01T13:34:26.872Z</time></trkpt><trkpt lat="44.126392071683604" lon="10.70436572556079"><ele>1221.0</ele><time>2026-05-01T13:34:27.872Z</time></trkpt><trkpt lat="44.12630324427648" lon="10.704288239842349"><ele>1221.0</ele><time>2026-05-01T13:34:28.872Z</time></trkpt><trkpt lat="44.12617102934106" lon="10.704229882982"><ele>1221.0</ele><time>2026-05-01T13:34:29.872Z</time></trkpt><trkpt lat="44.126044822654656" lon="10.704228291644784"><ele>1219.5</ele><time>2026-05-01T13:34:30.872Z</time></trkpt><trkpt lat="44.125916832697335" lon="10.704221289750263"><ele>1218.0</ele><time>2026-05-01T13:34:31.872Z</time></trkpt><trkpt lat="44.125780826987835" lon="10.7042014380149"><ele>1216.5</ele><time>2026-05-01T13:34:32.872Z</time></trkpt><trkpt lat="44.125642709998885" lon="10.704149892731804"><ele>1215.0</ele><time>2026-05-01T13:34:33.872Z</time></trkpt><trkpt lat="44.125515681084366" lon="10.704046679765472"><ele>1215.0</ele><time>2026-05-01T13:34:34.872Z</time></trkpt><trkpt lat="44.12540673741339" lon="10.703907393708294"><ele>1215.0</ele><time>2026-05-01T13:34:35.872Z</time></trkpt><trkpt lat="44.125303643157515" lon="10.70373850154361"><ele>1215.0</ele><time>2026-05-01T13:34:36.872Z</time></trkpt><trkpt lat="44.12520013303933" lon="10.703571170861654"><ele>1215.0</ele><time>2026-05-01T13:34:37.872Z</time></trkpt><trkpt lat="44.12512896960432" lon="10.70334935950704"><ele>1215.0</ele><time>2026-05-01T13:34:38.872Z</time></trkpt><trkpt lat="44.12504749049553" lon="10.703149350314684"><ele>1215.0</ele><time>2026-05-01T13:34:39.872Z</time></trkpt><trkpt lat="44.12498749940105" lon="10.702960433006606"><ele>1215.0</ele><time>2026-05-01T13:34:40.872Z</time></trkpt><trkpt lat="44.124935783112335" lon="10.702784348387102"><ele>1215.0</ele><time>2026-05-01T13:34:41.872Z</time></trkpt><trkpt lat="44.12493018858582" lon="10.702581263472768"><ele>1215.0</ele><time>2026-05-01T13:34:42.872Z</time></trkpt><trkpt lat="44.124924267088666" lon="10.702356346520142"><ele>1215.0</ele><time>2026-05-01T13:34:43.872Z</time></trkpt><trkpt lat="44.124920136632085" lon="10.702136310460793"><ele>1214.0</ele><time>2026-05-01T13:34:44.872Z</time></trkpt><trkpt lat="44.12493962071944" lon="10.701919522000763"><ele>1213.0</ele><time>2026-05-01T13:34:45.872Z</time></trkpt><trkpt lat="44.124992163423734" lon="10.701710665485797"><ele>1212.0</ele><time>2026-05-01T13:34:46.872Z</time></trkpt><trkpt lat="44.125047233214914" lon="10.701505437688864"><ele>1212.0</ele><time>2026-05-01T13:34:47.872Z</time></trkpt><trkpt lat="44.12510647627095" lon="10.70131279967077"><ele>1212.0</ele><time>2026-05-01T13:34:48.872Z</time></trkpt><trkpt lat="44.12515290400046" lon="10.701163953757957"><ele>1212.0</ele><time>2026-05-01T13:34:49.872Z</time></trkpt><trkpt lat="44.12516631405517" lon="10.70102813224281"><ele>1212.0</ele><time>2026-05-01T13:34:50.872Z</time></trkpt><trkpt lat="44.12515485045371" lon="10.700904795292042"><ele>1214.75</ele><time>2026-05-01T13:34:51.872Z</time></trkpt><trkpt lat="44.12512138780506" lon="10.700778856999783"><ele>1217.5</ele><time>2026-05-01T13:34:52.872Z</time></trkpt><trkpt lat="44.125044945687925" lon="10.700657159276224"><ele>1220.25</ele><time>2026-05-01T13:34:53.872Z</time></trkpt><trkpt lat="44.1249653245023" lon="10.700540582224175"><ele>1223.0</ele><time>2026-05-01T13:34:54.872Z</time></trkpt><trkpt lat="44.12488462392031" lon="10.70037847885346"><ele>1232.0</ele><time>2026-05-01T13:34:55.872Z</time></trkpt><trkpt lat="44.12487005129336" lon="10.700202161651585"><ele>1241.0</ele><time>2026-05-01T13:34:56.872Z</time></trkpt><trkpt lat="44.12486321675178" lon="10.7000404086853"><ele>1250.0</ele><time>2026-05-01T13:34:57.872Z</time></trkpt><trkpt lat="44.124867322008676" lon="10.69985731905145"><ele>1259.0</ele><time>2026-05-01T13:34:58.872Z</time></trkpt><trkpt lat="44.12486972491636" lon="10.699677001078667"><ele>1253.5</ele><time>2026-05-01T13:34:59.872Z</time></trkpt><trkpt lat="44.12491229495385" lon="10.699509741309084"><ele>1248.0</ele><time>2026-05-01T13:35:00.872Z</time></trkpt><trkpt lat="44.12496992930052" lon="10.699341445058463"><ele>1242.5</ele><time>2026-05-01T13:35:01.872Z</time></trkpt><trkpt lat="44.12504410324869" lon="10.699175491970433"><ele>1237.0</ele><time>2026-05-01T13:35:02.872Z</time></trkpt><trkpt lat="44.1251168609936" lon="10.699024849174146"><ele>1237.0</ele><time>2026-05-01T13:35:03.872Z</time></trkpt><trkpt lat="44.125189793526054" lon="10.698870273605506"><ele>1237.0</ele><time>2026-05-01T13:35:04.872Z</time></trkpt><trkpt lat="44.12525690003746" lon="10.698710175480574"><ele>1237.0</ele><time>2026-05-01T13:35:05.872Z</time></trkpt><trkpt lat="44.12532650608307" lon="10.698536174477898"><ele>1237.0</ele><time>2026-05-01T13:35:06.872Z</time></trkpt><trkpt lat="44.12542472148342" lon="10.698349523904554"><ele>1239.6666666666665</ele><time>2026-05-01T13:35:07.872Z</time></trkpt><trkpt lat="44.12547383310147" lon="10.698144016282635"><ele>1242.3333333333333</ele><time>2026-05-01T13:35:08.872Z</time></trkpt><trkpt lat="44.125484154344804" lon="10.697934101283343"><ele>1245.0</ele><time>2026-05-01T13:35:09.872Z</time></trkpt><trkpt lat="44.12549330457291" lon="10.697723486742477"><ele>1247.25</ele><time>2026-05-01T13:35:10.872Z</time></trkpt><trkpt lat="44.12550297159978" lon="10.697497839017784"><ele>1249.5</ele><time>2026-05-01T13:35:11.872Z</time></trkpt><trkpt lat="44.12551157845158" lon="10.69728330113773"><ele>1251.75</ele><time>2026-05-01T13:35:12.872Z</time></trkpt><trkpt lat="44.12551810243001" lon="10.697106009994927"><ele>1254.0</ele><time>2026-05-01T13:35:13.872Z</time></trkpt><trkpt lat="44.125524405004406" lon="10.696941481780172"><ele>1255.75</ele><time>2026-05-01T13:35:14.872Z</time></trkpt><trkpt lat="44.12553239579736" lon="10.696787132503436"><ele>1257.5</ele><time>2026-05-01T13:35:15.872Z</time></trkpt><trkpt lat="44.12555930540368" lon="10.696601620757384"><ele>1259.25</ele><time>2026-05-01T13:35:16.872Z</time></trkpt><trkpt lat="44.12563641091594" lon="10.69644839113635"><ele>1261.0</ele><time>2026-05-01T13:35:17.872Z</time></trkpt><trkpt lat="44.125729264742375" lon="10.696310621884287"><ele>1257.25</ele><time>2026-05-01T13:35:18.872Z</time></trkpt><trkpt lat="44.12581343256455" lon="10.696154023242986"><ele>1253.5</ele><time>2026-05-01T13:35:19.872Z</time></trkpt><trkpt lat="44.12590804848689" lon="10.696030615126407"><ele>1249.75</ele><time>2026-05-01T13:35:20.872Z</time></trkpt><trkpt lat="44.12601529635961" lon="10.695962428288773"><ele>1246.0</ele><time>2026-05-01T13:35:21.872Z</time></trkpt><trkpt lat="44.126127539001956" lon="10.69595527163305"><ele>1246.0</ele><time>2026-05-01T13:35:22.872Z</time></trkpt><trkpt lat="44.12626286508442" lon="10.695971143014651"><ele>1246.0</ele><time>2026-05-01T13:35:23.872Z</time></trkpt><trkpt lat="44.1264069660202" lon="10.695968885822607"><ele>1246.0</ele><time>2026-05-01T13:35:24.872Z</time></trkpt><trkpt lat="44.12653621168868" lon="10.695927538994725"><ele>1246.0</ele><time>2026-05-01T13:35:25.872Z</time></trkpt><trkpt lat="44.126650927465136" lon="10.695893222641702"><ele>1248.5</ele><time>2026-05-01T13:35:26.872Z</time></trkpt><trkpt lat="44.12677104990577" lon="10.695870647698351"><ele>1251.0</ele><time>2026-05-01T13:35:27.872Z</time></trkpt><trkpt lat="44.126894125465626" lon="10.695839542596199"><ele>1253.5</ele><time>2026-05-01T13:35:28.872Z</time></trkpt><trkpt lat="44.127013377626426" lon="10.695810734364398"><ele>1256.0</ele><time>2026-05-01T13:35:29.872Z</time></trkpt><trkpt lat="44.12712597336658" lon="10.695762008379395"><ele>1256.0</ele><time>2026-05-01T13:35:30.872Z</time></trkpt><trkpt lat="44.12723320939351" lon="10.695671826989498"><ele>1256.0</ele><time>2026-05-01T13:35:31.872Z</time></trkpt><trkpt lat="44.12734564146662" lon="10.695557713628883"><ele>1256.0</ele><time>2026-05-01T13:35:32.872Z</time></trkpt><trkpt lat="44.127441777895946" lon="10.69542081748667"><ele>1256.0</ele><time>2026-05-01T13:35:33.872Z</time></trkpt><trkpt lat="44.127536745845504" lon="10.695274272437787"><ele>1259.75</ele><time>2026-05-01T13:35:34.872Z</time></trkpt><trkpt lat="44.12762961986951" lon="10.695123063049952"><ele>1263.5</ele><time>2026-05-01T13:35:35.872Z</time></trkpt><trkpt lat="44.12771229717116" lon="10.694947955377149"><ele>1267.25</ele><time>2026-05-01T13:35:36.872Z</time></trkpt><trkpt lat="44.127772269241994" lon="10.694785818086636"><ele>1271.0</ele><time>2026-05-01T13:35:37.872Z</time></trkpt><trkpt lat="44.12784161842637" lon="10.6945896494486"><ele>1274.0</ele><time>2026-05-01T13:35:38.872Z</time></trkpt><trkpt lat="44.12790890680961" lon="10.694396735315953"><ele>1277.0</ele><time>2026-05-01T13:35:39.872Z</time></trkpt><trkpt lat="44.12797778472642" lon="10.694199270605969"><ele>1280.0</ele><time>2026-05-01T13:35:40.872Z</time></trkpt><trkpt lat="44.128044702931874" lon="10.694011533540909"><ele>1280.0</ele><time>2026-05-01T13:35:41.872Z</time></trkpt><trkpt lat="44.1280925150326" lon="10.69381693728939"><ele>1280.0</ele><time>2026-05-01T13:35:42.872Z</time></trkpt><trkpt lat="44.12810379360023" lon="10.693658428481344"><ele>1280.0</ele><time>2026-05-01T13:35:43.872Z</time></trkpt><trkpt lat="44.12808711165468" lon="10.693493154193765"><ele>1280.0</ele><time>2026-05-01T13:35:44.872Z</time></trkpt><trkpt lat="44.12806162288331" lon="10.69332842723957"><ele>1280.25</ele><time>2026-05-01T13:35:45.872Z</time></trkpt><trkpt lat="44.12803760915755" lon="10.693196928005444"><ele>1280.5</ele><time>2026-05-01T13:35:46.872Z</time></trkpt><trkpt lat="44.128014008287586" lon="10.692954249707205"><ele>1280.75</ele><time>2026-05-01T13:35:47.872Z</time></trkpt><trkpt lat="44.12799469528652" lon="10.692796517213589"><ele>1281.0</ele><time>2026-05-01T13:35:48.872Z</time></trkpt><trkpt lat="44.12802883569456" lon="10.692630374044938"><ele>1282.75</ele><time>2026-05-01T13:35:49.872Z</time></trkpt><trkpt lat="44.128113890874516" lon="10.692500106301395"><ele>1284.5</ele><time>2026-05-01T13:35:50.872Z</time></trkpt><trkpt lat="44.128190273062394" lon="10.692361874749901"><ele>1286.25</ele><time>2026-05-01T13:35:51.872Z</time></trkpt><trkpt lat="44.12822611242966" lon="10.6922081526346"><ele>1288.0</ele><time>2026-05-01T13:35:52.872Z</time></trkpt><trkpt lat="44.12823790336434" lon="10.692037684203614"><ele>1289.5</ele><time>2026-05-01T13:35:53.872Z</time></trkpt><trkpt lat="44.128216651750236" lon="10.691846971747815"><ele>1291.0</ele><time>2026-05-01T13:35:54.872Z</time></trkpt><trkpt lat="44.12822826381319" lon="10.691656812198286"><ele>1292.5</ele><time>2026-05-01T13:35:55.872Z</time></trkpt><trkpt lat="44.12827428997033" lon="10.69148892819561"><ele>1294.0</ele><time>2026-05-01T13:35:56.872Z</time></trkpt><trkpt lat="44.12832463683812" lon="10.691332049039325"><ele>1288.5</ele><time>2026-05-01T13:35:57.871Z</time></trkpt><trkpt lat="44.128432305192185" lon="10.691237028641458"><ele>1283.0</ele><time>2026-05-01T13:35:58.871Z</time></trkpt><trkpt lat="44.12852471718431" lon="10.691092964884714"><ele>1277.5</ele><time>2026-05-01T13:35:59.871Z</time></trkpt><trkpt lat="44.128580393415085" lon="10.690924282402733"><ele>1272.0</ele><time>2026-05-01T13:36:00.871Z</time></trkpt><trkpt lat="44.12860921008295" lon="10.69076159312462"><ele>1272.0</ele><time>2026-05-01T13:36:01.871Z</time></trkpt><trkpt lat="44.1286007675823" lon="10.690585927016707"><ele>1272.0</ele><time>2026-05-01T13:36:02.871Z</time></trkpt><trkpt lat="44.128547539658456" lon="10.690363428857792"><ele>1272.0</ele><time>2026-05-01T13:36:03.871Z</time></trkpt><trkpt lat="44.128518178856964" lon="10.690145231788344"><ele>1273.0</ele><time>2026-05-01T13:36:04.871Z</time></trkpt><trkpt lat="44.128497304076916" lon="10.689908082989964"><ele>1274.0</ele><time>2026-05-01T13:36:05.871Z</time></trkpt><trkpt lat="44.128531517947195" lon="10.689687754140635"><ele>1275.0</ele><time>2026-05-01T13:36:06.871Z</time></trkpt><trkpt lat="44.12858012008254" lon="10.689485390366423"><ele>1276.0</ele><time>2026-05-01T13:36:07.871Z</time></trkpt><trkpt lat="44.1286568206505" lon="10.689304829436937"><ele>1277.0</ele><time>2026-05-01T13:36:08.871Z</time></trkpt><trkpt lat="44.12876778209462" lon="10.68915777783342"><ele>1278.0</ele><time>2026-05-01T13:36:09.871Z</time></trkpt><trkpt lat="44.12888822640534" lon="10.689023135145804"><ele>1278.0</ele><time>2026-05-01T13:36:10.871Z</time></trkpt><trkpt lat="44.12902459418007" lon="10.688905256699984"><ele>1278.0</ele><time>2026-05-01T13:36:11.871Z</time></trkpt><trkpt lat="44.12914799441518" lon="10.688790526765112"><ele>1278.0</ele><time>2026-05-01T13:36:12.871Z</time></trkpt><trkpt lat="44.12926750021339" lon="10.68869796116265"><ele>1278.0</ele><time>2026-05-01T13:36:13.871Z</time></trkpt><trkpt lat="44.129381816277025" lon="10.688615526306505"><ele>1276.25</ele><time>2026-05-01T13:36:14.871Z</time></trkpt><trkpt lat="44.12948664496704" lon="10.68853972482507"><ele>1274.5</ele><time>2026-05-01T13:36:15.871Z</time></trkpt><trkpt lat="44.129602677258276" lon="10.688448290892065"><ele>1272.75</ele><time>2026-05-01T13:36:16.872Z</time></trkpt><trkpt lat="44.12971846488484" lon="10.688330531226901"><ele>1271.0</ele><time>2026-05-01T13:36:17.871Z</time></trkpt><trkpt lat="44.12982227995195" lon="10.688163104222928"><ele>1270.3333333333335</ele><time>2026-05-01T13:36:18.871Z</time></trkpt><trkpt lat="44.12992614639708" lon="10.687976818760577"><ele>1269.6666666666667</ele><time>2026-05-01T13:36:19.872Z</time></trkpt><trkpt lat="44.130035769286415" lon="10.687789929076178"><ele>1269.0</ele><time>2026-05-01T13:36:20.871Z</time></trkpt><trkpt lat="44.13014649877667" lon="10.687596476247009"><ele>1269.0</ele><time>2026-05-01T13:36:21.871Z</time></trkpt><trkpt lat="44.130265138526774" lon="10.687401604799442"><ele>1269.0</ele><time>2026-05-01T13:36:22.872Z</time></trkpt><trkpt lat="44.13039311332265" lon="10.687207613944251"><ele>1269.0</ele><time>2026-05-01T13:36:23.871Z</time></trkpt><trkpt lat="44.13051955576762" lon="10.687015672431231"><ele>1268.3333333333333</ele><time>2026-05-01T13:36:24.871Z</time></trkpt><trkpt lat="44.13066206197272" lon="10.686870688610469"><ele>1267.6666666666665</ele><time>2026-05-01T13:36:25.872Z</time></trkpt><trkpt lat="44.13080590555814" lon="10.6867449146984"><ele>1267.0</ele><time>2026-05-01T13:36:26.871Z</time></trkpt><trkpt lat="44.13094981955656" lon="10.686616682398824"><ele>1267.0</ele><time>2026-05-01T13:36:27.871Z</time></trkpt><trkpt lat="44.13112585936667" lon="10.686462403910472"><ele>1267.0</ele><time>2026-05-01T13:36:28.871Z</time></trkpt><trkpt lat="44.13134759990504" lon="10.686263541759613"><ele>1268.5</ele><time>2026-05-01T13:36:29.871Z</time></trkpt><trkpt lat="44.13155518387477" lon="10.68607172292426"><ele>1270.0</ele><time>2026-05-01T13:36:30.871Z</time></trkpt><trkpt lat="44.13173962390672" lon="10.685901290078569"><ele>1270.0</ele><time>2026-05-01T13:36:31.871Z</time></trkpt><trkpt lat="44.131903526057776" lon="10.685757582979509"><ele>1270.0</ele><time>2026-05-01T13:36:32.871Z</time></trkpt><trkpt lat="44.1320646341847" lon="10.685663220245777"><ele>1270.0</ele><time>2026-05-01T13:36:33.871Z</time></trkpt><trkpt lat="44.13220159521719" lon="10.685562195096914"><ele>1270.0</ele><time>2026-05-01T13:36:34.871Z</time></trkpt><trkpt lat="44.13231958020323" lon="10.685459498884077"><ele>1270.0</ele><time>2026-05-01T13:36:35.871Z</time></trkpt><trkpt lat="44.132466792715256" lon="10.685453861947295"><ele>1270.0</ele><time>2026-05-01T13:36:36.871Z</time></trkpt><trkpt lat="44.1324758118904" lon="10.685193201287246"><ele>1272.3333333333333</ele><time>2026-05-01T13:36:37.871Z</time></trkpt><trkpt lat="44.13250801090624" lon="10.684962271561359"><ele>1274.6666666666667</ele><time>2026-05-01T13:36:38.871Z</time></trkpt><trkpt lat="44.13255419921582" lon="10.684711844454213"><ele>1277.0</ele><time>2026-05-01T13:36:39.871Z</time></trkpt><trkpt lat="44.132607416918205" lon="10.68446826695942"><ele>1282.3333333333335</ele><time>2026-05-01T13:36:40.871Z</time></trkpt><trkpt lat="44.13266389889607" lon="10.684251072549506"><ele>1287.6666666666667</ele><time>2026-05-01T13:36:41.871Z</time></trkpt><trkpt lat="44.13275529548781" lon="10.684100300000356"><ele>1293.0</ele><time>2026-05-01T13:36:42.871Z</time></trkpt><trkpt lat="44.13287527942952" lon="10.683968521827259"><ele>1293.0</ele><time>2026-05-01T13:36:43.871Z</time></trkpt><trkpt lat="44.133017705893025" lon="10.683797438683833"><ele>1293.0</ele><time>2026-05-01T13:36:44.871Z</time></trkpt><trkpt lat="44.133158240035726" lon="10.683629926991989"><ele>1293.0</ele><time>2026-05-01T13:36:45.871Z</time></trkpt><trkpt lat="44.13329348388184" lon="10.683474910436242"><ele>1294.75</ele><time>2026-05-01T13:36:46.871Z</time></trkpt><trkpt lat="44.133408105675734" lon="10.683344806240628"><ele>1296.5</ele><time>2026-05-01T13:36:47.871Z</time></trkpt><trkpt lat="44.13352783973983" lon="10.68323656424559"><ele>1298.25</ele><time>2026-05-01T13:36:48.871Z</time></trkpt><trkpt lat="44.13365135288973" lon="10.683183643180795"><ele>1300.0</ele><time>2026-05-01T13:36:49.871Z</time></trkpt><trkpt lat="44.13377828812097" lon="10.683151679626585"><ele>1300.0</ele><time>2026-05-01T13:36:50.871Z</time></trkpt><trkpt lat="44.13389110140494" lon="10.683141361672027"><ele>1300.0</ele><time>2026-05-01T13:36:51.871Z</time></trkpt><trkpt lat="44.13399249675283" lon="10.683103865336513"><ele>1300.0</ele><time>2026-05-01T13:36:52.871Z</time></trkpt><trkpt lat="44.13407630261093" lon="10.682969818675225"><ele>1300.0</ele><time>2026-05-01T13:36:53.871Z</time></trkpt><trkpt lat="44.134151989713246" lon="10.682800945625967"><ele>1302.6666666666665</ele><time>2026-05-01T13:36:54.871Z</time></trkpt><trkpt lat="44.13425486043948" lon="10.682595767770115"><ele>1305.3333333333333</ele><time>2026-05-01T13:36:55.871Z</time></trkpt><trkpt lat="44.13436095373611" lon="10.68236542824927"><ele>1308.0</ele><time>2026-05-01T13:36:56.871Z</time></trkpt><trkpt lat="44.134502001816074" lon="10.682131766704105"><ele>1316.5</ele><time>2026-05-01T13:36:57.871Z</time></trkpt><trkpt lat="44.134682324695916" lon="10.681900051772052"><ele>1325.0</ele><time>2026-05-01T13:36:58.871Z</time></trkpt><trkpt lat="44.13488575991217" lon="10.681666591496246"><ele>1316.5</ele><time>2026-05-01T13:36:59.871Z</time></trkpt><trkpt lat="44.13510574026112" lon="10.681443238960268"><ele>1308.0</ele><time>2026-05-01T13:37:00.871Z</time></trkpt><trkpt lat="44.13529917850273" lon="10.681292887716197"><ele>1308.0</ele><time>2026-05-01T13:37:01.871Z</time></trkpt><trkpt lat="44.135476984122946" lon="10.681129644090941"><ele>1308.0</ele><time>2026-05-01T13:37:02.871Z</time></trkpt><trkpt lat="44.135612709606995" lon="10.68095986324957"><ele>1308.0</ele><time>2026-05-01T13:37:03.871Z</time></trkpt><trkpt lat="44.13575464127277" lon="10.680775000158812"><ele>1308.3333333333333</ele><time>2026-05-01T13:37:04.871Z</time></trkpt><trkpt lat="44.13588427968862" lon="10.680583869980978"><ele>1308.6666666666665</ele><time>2026-05-01T13:37:05.871Z</time></trkpt><trkpt lat="44.13600439078737" lon="10.680393932180834"><ele>1309.0</ele><time>2026-05-01T13:37:06.871Z</time></trkpt><trkpt lat="44.13610820525944" lon="10.680210901039231"><ele>1313.5</ele><time>2026-05-01T13:37:07.871Z</time></trkpt><trkpt lat="44.1362076634997" lon="10.680036793504792"><ele>1318.0</ele><time>2026-05-01T13:37:08.871Z</time></trkpt><trkpt lat="44.13629819152562" lon="10.679882368511223"><ele>1322.5</ele><time>2026-05-01T13:37:09.871Z</time></trkpt><trkpt lat="44.13637978592851" lon="10.679745153204266"><ele>1327.0</ele><time>2026-05-01T13:37:10.871Z</time></trkpt><trkpt lat="44.13645841434135" lon="10.679646859817023"><ele>1327.0</ele><time>2026-05-01T13:37:11.871Z</time></trkpt><trkpt lat="44.13654800831337" lon="10.679593642538"><ele>1327.0</ele><time>2026-05-01T13:37:12.871Z</time></trkpt><trkpt lat="44.136650645935255" lon="10.679582708517685"><ele>1327.0</ele><time>2026-05-01T13:37:13.871Z</time></trkpt><trkpt lat="44.13675908916868" lon="10.679673752712775"><ele>1327.0</ele><time>2026-05-01T13:37:14.871Z</time></trkpt><trkpt lat="44.136888076988406" lon="10.679671526804462"><ele>1328.5</ele><time>2026-05-01T13:37:15.871Z</time></trkpt><trkpt lat="44.13701735887666" lon="10.679588274936949"><ele>1330.0</ele><time>2026-05-01T13:37:16.871Z</time></trkpt><trkpt lat="44.13714089261423" lon="10.679465652472578"><ele>1331.5</ele><time>2026-05-01T13:37:17.871Z</time></trkpt><trkpt lat="44.13725508350124" lon="10.679340710271827"><ele>1333.0</ele><time>2026-05-01T13:37:18.871Z</time></trkpt><trkpt lat="44.13737823758088" lon="10.679207814665759"><ele>1328.75</ele><time>2026-05-01T13:37:19.871Z</time></trkpt><trkpt lat="44.13748038107811" lon="10.679092460142787"><ele>1324.5</ele><time>2026-05-01T13:37:20.871Z</time></trkpt><trkpt lat="44.13755816214429" lon="10.678974807306165"><ele>1320.25</ele><time>2026-05-01T13:37:21.871Z</time></trkpt><trkpt lat="44.137576691980556" lon="10.678824561450426"><ele>1316.0</ele><time>2026-05-01T13:37:22.871Z</time></trkpt><trkpt lat="44.137528093106546" lon="10.678671536069015"><ele>1317.0</ele><time>2026-05-01T13:37:23.871Z</time></trkpt><trkpt lat="44.13749474931452" lon="10.678513877540745"><ele>1318.0</ele><time>2026-05-01T13:37:24.871Z</time></trkpt><trkpt lat="44.13745514475428" lon="10.678318021318487"><ele>1319.0</ele><time>2026-05-01T13:37:25.871Z</time></trkpt><trkpt lat="44.13741954705619" lon="10.678128178405748"><ele>1320.0</ele><time>2026-05-01T13:37:26.871Z</time></trkpt><trkpt lat="44.13738066442373" lon="10.677949557553346"><ele>1320.75</ele><time>2026-05-01T13:37:27.871Z</time></trkpt><trkpt lat="44.13737566045034" lon="10.677765818233118"><ele>1321.5</ele><time>2026-05-01T13:37:28.871Z</time></trkpt><trkpt lat="44.13738060810149" lon="10.677601065658639"><ele>1322.25</ele><time>2026-05-01T13:37:29.871Z</time></trkpt><trkpt lat="44.137404538282055" lon="10.677462645246688"><ele>1323.0</ele><time>2026-05-01T13:37:30.871Z</time></trkpt><trkpt lat="44.137432431454116" lon="10.677329997744177"><ele>1323.0</ele><time>2026-05-01T13:37:31.871Z</time></trkpt><trkpt lat="44.13750339951148" lon="10.67722891746819"><ele>1323.0</ele><time>2026-05-01T13:37:32.871Z</time></trkpt><trkpt lat="44.13758864791078" lon="10.67716753422871"><ele>1323.0</ele><time>2026-05-01T13:37:33.871Z</time></trkpt><trkpt lat="44.137673185237816" lon="10.67716406154455"><ele>1323.0</ele><time>2026-05-01T13:37:34.871Z</time></trkpt><trkpt lat="44.13774333874404" lon="10.677146999395388"><ele>1323.0</ele><time>2026-05-01T13:37:35.871Z</time></trkpt><trkpt lat="44.137805387263974" lon="10.677066702490448"><ele>1323.0</ele><time>2026-05-01T13:37:36.871Z</time></trkpt><trkpt lat="44.13786410450898" lon="10.67695094455883"><ele>1325.75</ele><time>2026-05-01T13:37:37.871Z</time></trkpt><trkpt lat="44.137935299350794" lon="10.676822063820369"><ele>1328.5</ele><time>2026-05-01T13:37:38.87Z</time></trkpt><trkpt lat="44.13800536386678" lon="10.67668881188471"><ele>1331.25</ele><time>2026-05-01T13:37:39.87Z</time></trkpt><trkpt lat="44.13811424919863" lon="10.6765450483706"><ele>1334.0</ele><time>2026-05-01T13:37:40.87Z</time></trkpt><trkpt lat="44.13826042857581" lon="10.67640733048241"><ele>1331.0</ele><time>2026-05-01T13:37:41.87Z</time></trkpt><trkpt lat="44.138430790523316" lon="10.676256464452589"><ele>1328.0</ele><time>2026-05-01T13:37:42.87Z</time></trkpt><trkpt lat="44.13859141278182" lon="10.676119924917906"><ele>1325.0</ele><time>2026-05-01T13:37:43.87Z</time></trkpt><trkpt lat="44.138732793069586" lon="10.675996011084422"><ele>1325.0</ele><time>2026-05-01T13:37:44.87Z</time></trkpt><trkpt lat="44.138829170148256" lon="10.675869495340699"><ele>1325.0</ele><time>2026-05-01T13:37:45.87Z</time></trkpt><trkpt lat="44.138894725897416" lon="10.675704805467525"><ele>1325.0</ele><time>2026-05-01T13:37:46.868Z</time></trkpt><trkpt lat="44.13895432156573" lon="10.675484184334021"><ele>1325.0</ele><time>2026-05-01T13:37:47.867Z</time></trkpt><trkpt lat="44.13903175433019" lon="10.675236239145798"><ele>1330.3333333333335</ele><time>2026-05-01T13:37:48.866Z</time></trkpt><trkpt lat="44.13911573523497" lon="10.674953892215749"><ele>1335.6666666666667</ele><time>2026-05-01T13:37:49.864Z</time></trkpt><trkpt lat="44.13919015013172" lon="10.674691810481846"><ele>1341.0</ele><time>2026-05-01T13:37:50.863Z</time></trkpt><trkpt lat="44.13927046311947" lon="10.674441346843544"><ele>1342.0</ele><time>2026-05-01T13:37:51.862Z</time></trkpt><trkpt lat="44.139346385432155" lon="10.674215419208734"><ele>1343.0</ele><time>2026-05-01T13:37:52.861Z</time></trkpt><trkpt lat="44.1393996158457" lon="10.6740059096955"><ele>1344.0</ele><time>2026-05-01T13:37:53.86Z</time></trkpt><trkpt lat="44.139449451112945" lon="10.673821258054138"><ele>1344.0</ele><time>2026-05-01T13:37:54.859Z</time></trkpt><trkpt lat="44.13951358324574" lon="10.673641779905632"><ele>1344.0</ele><time>2026-05-01T13:37:55.858Z</time></trkpt><trkpt lat="44.13957143332348" lon="10.673465340642297"><ele>1344.0</ele><time>2026-05-01T13:37:56.858Z</time></trkpt><trkpt lat="44.13962536321788" lon="10.673293769707417"><ele>1344.0</ele><time>2026-05-01T13:37:57.857Z</time></trkpt><trkpt lat="44.13967698124389" lon="10.673140698551595"><ele>1344.5</ele><time>2026-05-01T13:37:58.856Z</time></trkpt><trkpt lat="44.139703999334124" lon="10.672973468384379"><ele>1345.0</ele><time>2026-05-01T13:37:59.856Z</time></trkpt><trkpt lat="44.13968894187083" lon="10.672803274942806"><ele>1345.5</ele><time>2026-05-01T13:38:00.855Z</time></trkpt><trkpt lat="44.13965249788444" lon="10.67264204889357"><ele>1346.0</ele><time>2026-05-01T13:38:01.854Z</time></trkpt><trkpt lat="44.13961416591837" lon="10.67248500155419"><ele>1344.75</ele><time>2026-05-01T13:38:02.854Z</time></trkpt><trkpt lat="44.13962490182594" lon="10.672341060198908"><ele>1343.5</ele><time>2026-05-01T13:38:03.853Z</time></trkpt><trkpt lat="44.13968861176076" lon="10.672210852108197"><ele>1342.25</ele><time>2026-05-01T13:38:04.853Z</time></trkpt><trkpt lat="44.139792331515274" lon="10.672074389889568"><ele>1341.0</ele><time>2026-05-01T13:38:05.852Z</time></trkpt><trkpt lat="44.13989920637086" lon="10.67195773994101"><ele>1344.0</ele><time>2026-05-01T13:38:06.852Z</time></trkpt><trkpt lat="44.139989188775395" lon="10.671816238789027"><ele>1347.0</ele><time>2026-05-01T13:38:07.852Z</time></trkpt><trkpt lat="44.14008034931321" lon="10.671659217300904"><ele>1350.0</ele><time>2026-05-01T13:38:08.851Z</time></trkpt><trkpt lat="44.14016279914331" lon="10.671518897850252"><ele>1353.0</ele><time>2026-05-01T13:38:09.851Z</time></trkpt><trkpt lat="44.14023898039052" lon="10.671389564908054"><ele>1353.0</ele><time>2026-05-01T13:38:10.85Z</time></trkpt><trkpt lat="44.14031383203368" lon="10.671304412178063"><ele>1353.0</ele><time>2026-05-01T13:38:11.85Z</time></trkpt><trkpt lat="44.140389140553246" lon="10.671213831142204"><ele>1353.0</ele><time>2026-05-01T13:38:12.85Z</time></trkpt><trkpt lat="44.14047687175251" lon="10.671184366084113"><ele>1353.0</ele><time>2026-05-01T13:38:13.85Z</time></trkpt><trkpt lat="44.14056310413323" lon="10.6712162008058"><ele>1353.0</ele><time>2026-05-01T13:38:14.849Z</time></trkpt><trkpt lat="44.14065492531226" lon="10.671258518051374"><ele>1352.0</ele><time>2026-05-01T13:38:15.849Z</time></trkpt><trkpt lat="44.14077803545004" lon="10.67124237556152"><ele>1351.0</ele><time>2026-05-01T13:38:17.849Z</time></trkpt><trkpt lat="44.140848371304486" lon="10.671174874843922"><ele>1350.0</ele><time>2026-05-01T13:38:18.849Z</time></trkpt><trkpt lat="44.14092405722448" lon="10.671068083399389"><ele>1349.0</ele><time>2026-05-01T13:38:19.849Z</time></trkpt><trkpt lat="44.140961024402316" lon="10.670940120053059"><ele>1348.0</ele><time>2026-05-01T13:38:20.849Z</time></trkpt><trkpt lat="44.14100306419377" lon="10.67077762952623"><ele>1351.4</ele><time>2026-05-01T13:38:21.849Z</time></trkpt><trkpt lat="44.14103800826279" lon="10.670643930459947"><ele>1354.8000000000002</ele><time>2026-05-01T13:38:22.848Z</time></trkpt><trkpt lat="44.141053365495836" lon="10.670525473237246"><ele>1358.2</ele><time>2026-05-01T13:38:23.848Z</time></trkpt><trkpt lat="44.14110700327569" lon="10.670420036848292"><ele>1361.6</ele><time>2026-05-01T13:38:24.848Z</time></trkpt><trkpt lat="44.14119300342204" lon="10.670310186294854"><ele>1365.0</ele><time>2026-05-01T13:38:25.848Z</time></trkpt><trkpt lat="44.14128349449809" lon="10.670222278416365"><ele>1364.75</ele><time>2026-05-01T13:38:26.848Z</time></trkpt><trkpt lat="44.14136813718333" lon="10.670120870703439"><ele>1364.5</ele><time>2026-05-01T13:38:27.847Z</time></trkpt><trkpt lat="44.141475337840845" lon="10.670018826414077"><ele>1364.25</ele><time>2026-05-01T13:38:28.847Z</time></trkpt><trkpt lat="44.1415613610588" lon="10.669918179503956"><ele>1364.0</ele><time>2026-05-01T13:38:29.847Z</time></trkpt><trkpt lat="44.14177021248658" lon="10.669583599781614"><ele>1367.3333333333335</ele><time>2026-05-01T13:38:32.847Z</time></trkpt><trkpt lat="44.14183565268769" lon="10.669434718229372"><ele>1370.6666666666667</ele><time>2026-05-01T13:38:33.847Z</time></trkpt><trkpt lat="44.1418806669712" lon="10.669231393519475"><ele>1374.0</ele><time>2026-05-01T13:38:34.847Z</time></trkpt><trkpt lat="44.14191794414416" lon="10.668960025541272"><ele>1374.0</ele><time>2026-05-01T13:38:35.847Z</time></trkpt><trkpt lat="44.14195412993287" lon="10.668695963556276"><ele>1374.0</ele><time>2026-05-01T13:38:36.847Z</time></trkpt><trkpt lat="44.14198969620733" lon="10.668471458210242"><ele>1374.0</ele><time>2026-05-01T13:38:37.847Z</time></trkpt><trkpt lat="44.14203377854224" lon="10.668308615692045"><ele>1374.0</ele><time>2026-05-01T13:38:38.847Z</time></trkpt><trkpt lat="44.142111252586666" lon="10.668251889321438"><ele>1374.0</ele><time>2026-05-01T13:38:39.847Z</time></trkpt><trkpt lat="44.14221042710059" lon="10.668193860275514"><ele>1374.0</ele><time>2026-05-01T13:38:40.847Z</time></trkpt><trkpt lat="44.14234231948707" lon="10.668209199363211"><ele>1374.0</ele><time>2026-05-01T13:38:41.847Z</time></trkpt><trkpt lat="44.14248592124709" lon="10.668215619289832"><ele>1374.0</ele><time>2026-05-01T13:38:42.847Z</time></trkpt><trkpt lat="44.14263270606027" lon="10.668196959657406"><ele>1374.0</ele><time>2026-05-01T13:38:43.847Z</time></trkpt><trkpt lat="44.142861985584794" lon="10.66803687139973"><ele>1374.0</ele><time>2026-05-01T13:38:45.847Z</time></trkpt><trkpt lat="44.142966404414274" lon="10.667901978062531"><ele>1375.5</ele><time>2026-05-01T13:38:46.846Z</time></trkpt><trkpt lat="44.14304422539896" lon="10.667736206066166"><ele>1377.0</ele><time>2026-05-01T13:38:47.846Z</time></trkpt><trkpt lat="44.1431199264453" lon="10.667571852622986"><ele>1378.5</ele><time>2026-05-01T13:38:48.846Z</time></trkpt><trkpt lat="44.14318880834907" lon="10.66742028201977"><ele>1380.0</ele><time>2026-05-01T13:38:49.846Z</time></trkpt><trkpt lat="44.14324248855572" lon="10.667279781662439"><ele>1380.0</ele><time>2026-05-01T13:38:50.846Z</time></trkpt><trkpt lat="44.14325234088295" lon="10.6671084617454"><ele>1380.0</ele><time>2026-05-01T13:38:51.846Z</time></trkpt><trkpt lat="44.14326782158466" lon="10.666951209964516"><ele>1380.0</ele><time>2026-05-01T13:38:52.846Z</time></trkpt><trkpt lat="44.14327293871459" lon="10.666795934003748"><ele>1380.0</ele><time>2026-05-01T13:38:53.846Z</time></trkpt><trkpt lat="44.143291804774606" lon="10.666675827004589"><ele>1380.0</ele><time>2026-05-01T13:38:54.846Z</time></trkpt><trkpt lat="44.14332216041429" lon="10.666593956308748"><ele>1379.8333333333333</ele><time>2026-05-01T13:38:55.846Z</time></trkpt><trkpt lat="44.143361748439254" lon="10.666524591276968"><ele>1379.6666666666667</ele><time>2026-05-01T13:38:56.846Z</time></trkpt><trkpt lat="44.14346561677924" lon="10.666496151215371"><ele>1379.5</ele><time>2026-05-01T13:38:58.846Z</time></trkpt><trkpt lat="44.1435282905663" lon="10.666487287045587"><ele>1379.3333333333335</ele><time>2026-05-01T13:39:00.846Z</time></trkpt><trkpt lat="44.14354578787348" lon="10.666367704745811"><ele>1379.1666666666667</ele><time>2026-05-01T13:43:15.844Z</time></trkpt><trkpt lat="44.143511118493564" lon="10.666273851235506"><ele>1379.0</ele><time>2026-05-01T13:43:17.844Z</time></trkpt><trkpt lat="44.14348487400441" lon="10.666183902514142"><ele>1380.1666666666667</ele><time>2026-05-01T13:43:18.844Z</time></trkpt><trkpt lat="44.14352071603435" lon="10.666034907665313"><ele>1381.3333333333335</ele><time>2026-05-01T13:43:20.844Z</time></trkpt><trkpt lat="44.143577541120244" lon="10.66598964275578"><ele>1382.5</ele><time>2026-05-01T13:43:21.844Z</time></trkpt><trkpt lat="44.14365893897459" lon="10.665950527688565"><ele>1383.6666666666667</ele><time>2026-05-01T13:43:22.844Z</time></trkpt><trkpt lat="44.14373691325398" lon="10.665900187408464"><ele>1384.8333333333333</ele><time>2026-05-01T13:43:23.844Z</time></trkpt><trkpt lat="44.143823697431955" lon="10.665834369485896"><ele>1386.0</ele><time>2026-05-01T13:43:24.844Z</time></trkpt><trkpt lat="44.14391127397312" lon="10.665769821586705"><ele>1386.0</ele><time>2026-05-01T13:43:25.844Z</time></trkpt><trkpt lat="44.14399657179738" lon="10.665714851881292"><ele>1386.0</ele><time>2026-05-01T13:43:26.844Z</time></trkpt><trkpt lat="44.144079020353665" lon="10.665658303272501"><ele>1386.0</ele><time>2026-05-01T13:43:27.843Z</time></trkpt><trkpt lat="44.14415729279887" lon="10.665589613832976"><ele>1386.0</ele><time>2026-05-01T13:43:28.843Z</time></trkpt><trkpt lat="44.14422231853787" lon="10.665518027227554"><ele>1386.0</ele><time>2026-05-01T13:43:29.843Z</time></trkpt><trkpt lat="44.14427477607227" lon="10.665441262980721"><ele>1386.0</ele><time>2026-05-01T13:43:30.843Z</time></trkpt><trkpt lat="44.144334852410886" lon="10.665377082600731"><ele>1386.3333333333333</ele><time>2026-05-01T13:43:31.843Z</time></trkpt><trkpt lat="44.14440241303837" lon="10.665341938933791"><ele>1386.6666666666667</ele><time>2026-05-01T13:43:32.843Z</time></trkpt><trkpt lat="44.14447498301" lon="10.665321750826095"><ele>1387.0</ele><time>2026-05-01T13:43:33.843Z</time></trkpt><trkpt lat="44.14455445830845" lon="10.665294834747483"><ele>1387.3333333333335</ele><time>2026-05-01T13:43:34.843Z</time></trkpt><trkpt lat="44.14464510540698" lon="10.665269894957364"><ele>1387.6666666666667</ele><time>2026-05-01T13:43:35.843Z</time></trkpt><trkpt lat="44.144736895711254" lon="10.665240821673022"><ele>1388.0</ele><time>2026-05-01T13:43:36.843Z</time></trkpt><trkpt lat="44.14483483899253" lon="10.665219281491462"><ele>1387.1666666666667</ele><time>2026-05-01T13:43:37.843Z</time></trkpt><trkpt lat="44.14492834018383" lon="10.665204031821048"><ele>1386.3333333333335</ele><time>2026-05-01T13:43:38.843Z</time></trkpt><trkpt lat="44.145010341036375" lon="10.665188166187935"><ele>1385.5</ele><time>2026-05-01T13:43:39.843Z</time></trkpt><trkpt lat="44.14508669902708" lon="10.665171029934193"><ele>1384.6666666666667</ele><time>2026-05-01T13:43:40.843Z</time></trkpt><trkpt lat="44.14515916027936" lon="10.665156901104266"><ele>1383.8333333333333</ele><time>2026-05-01T13:43:41.843Z</time></trkpt><trkpt lat="44.14524052256243" lon="10.665139948370173"><ele>1383.0</ele><time>2026-05-01T13:43:42.843Z</time></trkpt><trkpt lat="44.14532185957561" lon="10.665124456784083"><ele>1383.0</ele><time>2026-05-01T13:43:43.843Z</time></trkpt><trkpt lat="44.1453986985055" lon="10.665098065801335"><ele>1383.0</ele><time>2026-05-01T13:43:44.843Z</time></trkpt><trkpt lat="44.14547958878613" lon="10.665071163838464"><ele>1383.0</ele><time>2026-05-01T13:43:45.843Z</time></trkpt><trkpt lat="44.145562888701015" lon="10.665061416085551"><ele>1383.0</ele><time>2026-05-01T13:43:46.843Z</time></trkpt><trkpt lat="44.145629093570555" lon="10.665003485630125"><ele>1383.0</ele><time>2026-05-01T13:43:47.843Z</time></trkpt><trkpt lat="44.14567371483486" lon="10.664911086981657"><ele>1383.0</ele><time>2026-05-01T13:43:48.843Z</time></trkpt><trkpt lat="44.1456422631319" lon="10.664746162434923"><ele>1383.0</ele><time>2026-05-01T13:43:49.843Z</time></trkpt><trkpt lat="44.14556805882143" lon="10.66465587569122"><ele>1383.0</ele><time>2026-05-01T13:43:50.843Z</time></trkpt><trkpt lat="44.14549493095414" lon="10.66456725792499"><ele>1383.0</ele><time>2026-05-01T13:43:51.843Z</time></trkpt><trkpt lat="44.14542497173043" lon="10.664454921092345"><ele>1383.0</ele><time>2026-05-01T13:43:52.843Z</time></trkpt><trkpt lat="44.14535624949107" lon="10.664338735346712"><ele>1383.0</ele><time>2026-05-01T13:43:53.843Z</time></trkpt><trkpt lat="44.14527577188148" lon="10.664214241733063"><ele>1382.25</ele><time>2026-05-01T13:43:54.843Z</time></trkpt><trkpt lat="44.1451817897488" lon="10.664081871706724"><ele>1381.5</ele><time>2026-05-01T13:43:55.843Z</time></trkpt><trkpt lat="44.14507658591607" lon="10.663942050968291"><ele>1380.75</ele><time>2026-05-01T13:43:56.843Z</time></trkpt><trkpt lat="44.14496332970345" lon="10.663799698081284"><ele>1380.0</ele><time>2026-05-01T13:43:57.843Z</time></trkpt><trkpt lat="44.14483829050362" lon="10.663642121756345"><ele>1380.3333333333333</ele><time>2026-05-01T13:43:58.843Z</time></trkpt><trkpt lat="44.14471689415763" lon="10.663493042288874"><ele>1380.6666666666665</ele><time>2026-05-01T13:43:59.843Z</time></trkpt><trkpt lat="44.14457913312224" lon="10.663352810351325"><ele>1381.0</ele><time>2026-05-01T13:44:00.843Z</time></trkpt><trkpt lat="44.1444662644669" lon="10.66323382654939"><ele>1381.0</ele><time>2026-05-01T13:44:01.843Z</time></trkpt><trkpt lat="44.14438360240803" lon="10.663095506750647"><ele>1381.0</ele><time>2026-05-01T13:44:02.843Z</time></trkpt><trkpt lat="44.144281427846295" lon="10.66299592895716"><ele>1381.0</ele><time>2026-05-01T13:44:03.843Z</time></trkpt><trkpt lat="44.14420351592094" lon="10.66291744573674"><ele>1381.0</ele><time>2026-05-01T13:44:04.843Z</time></trkpt><trkpt lat="44.14414833884668" lon="10.662846029302482"><ele>1381.0</ele><time>2026-05-01T13:44:05.843Z</time></trkpt><trkpt lat="44.14408561804074" lon="10.66269966551755"><ele>1381.4</ele><time>2026-05-01T13:44:08.843Z</time></trkpt><trkpt lat="44.144034894701726" lon="10.662564152490054"><ele>1381.8</ele><time>2026-05-01T13:44:10.843Z</time></trkpt><trkpt lat="44.14399245561013" lon="10.66239281021862"><ele>1382.2</ele><time>2026-05-01T13:44:12.843Z</time></trkpt><trkpt lat="44.14395144125067" lon="10.662322435291701"><ele>1382.6000000000001</ele><time>2026-05-01T13:44:13.843Z</time></trkpt><trkpt lat="44.143907701631505" lon="10.66223852827281"><ele>1383.0</ele><time>2026-05-01T13:44:14.843Z</time></trkpt><trkpt lat="44.14353553732528" lon="10.661848901709188"><ele>1380.75</ele><time>2026-05-01T13:44:15.843Z</time></trkpt><trkpt lat="44.143426256122694" lon="10.661740256174923"><ele>1378.5</ele><time>2026-05-01T13:44:16.843Z</time></trkpt><trkpt lat="44.14331885487532" lon="10.66163714258525"><ele>1376.25</ele><time>2026-05-01T13:44:17.843Z</time></trkpt><trkpt lat="44.14320997359522" lon="10.66153219472149"><ele>1374.0</ele><time>2026-05-01T13:44:18.843Z</time></trkpt><trkpt lat="44.14309373785806" lon="10.661428070030142"><ele>1374.0</ele><time>2026-05-01T13:44:19.843Z</time></trkpt><trkpt lat="44.14297336501891" lon="10.66133534252338"><ele>1374.0</ele><time>2026-05-01T13:44:20.843Z</time></trkpt><trkpt lat="44.142842756955424" lon="10.661263071303248"><ele>1374.0</ele><time>2026-05-01T13:44:21.843Z</time></trkpt><trkpt lat="44.142711968532595" lon="10.661225160620731"><ele>1374.0</ele><time>2026-05-01T13:44:22.843Z</time></trkpt><trkpt lat="44.142589239787846" lon="10.661160971656319"><ele>1371.5</ele><time>2026-05-01T13:44:23.843Z</time></trkpt><trkpt lat="44.1424701932908" lon="10.66107310411956"><ele>1369.0</ele><time>2026-05-01T13:44:24.843Z</time></trkpt><trkpt lat="44.14235379590573" lon="10.660980788772367"><ele>1366.5</ele><time>2026-05-01T13:44:25.843Z</time></trkpt><trkpt lat="44.142242559710525" lon="10.66088881311806"><ele>1364.0</ele><time>2026-05-01T13:44:26.843Z</time></trkpt><trkpt lat="44.142136972408764" lon="10.660798849945195"><ele>1364.0</ele><time>2026-05-01T13:44:27.843Z</time></trkpt><trkpt lat="44.14203855005247" lon="10.66070676393215"><ele>1364.0</ele><time>2026-05-01T13:44:28.843Z</time></trkpt><trkpt lat="44.141946010509756" lon="10.660602416990695"><ele>1364.0</ele><time>2026-05-01T13:44:29.843Z</time></trkpt><trkpt lat="44.141866068139315" lon="10.660497171520031"><ele>1364.0</ele><time>2026-05-01T13:44:30.843Z</time></trkpt><trkpt lat="44.14178524472071" lon="10.660378701054354"><ele>1361.4</ele><time>2026-05-01T13:44:31.843Z</time></trkpt><trkpt lat="44.141710664780796" lon="10.66025874836479"><ele>1358.8000000000002</ele><time>2026-05-01T13:44:32.843Z</time></trkpt><trkpt lat="44.14164688662904" lon="10.660143905051324"><ele>1356.1999999999998</ele><time>2026-05-01T13:44:33.843Z</time></trkpt><trkpt lat="44.14160110238265" lon="10.66004650813199"><ele>1353.6</ele><time>2026-05-01T13:44:34.843Z</time></trkpt><trkpt lat="44.141581133501894" lon="10.659951275239676"><ele>1351.0</ele><time>2026-05-01T13:44:35.843Z</time></trkpt><trkpt lat="44.14164093321538" lon="10.659794655417578"><ele>1351.0</ele><time>2026-05-01T13:44:37.843Z</time></trkpt><trkpt lat="44.14176843320167" lon="10.659743405979496"><ele>1351.0</ele><time>2026-05-01T13:44:38.843Z</time></trkpt><trkpt lat="44.141862229302546" lon="10.659750060342214"><ele>1351.0</ele><time>2026-05-01T13:44:39.843Z</time></trkpt><trkpt lat="44.1419698233684" lon="10.659817512379492"><ele>1351.0</ele><time>2026-05-01T13:44:40.842Z</time></trkpt><trkpt lat="44.14208135235808" lon="10.659833791066644"><ele>1351.0</ele><time>2026-05-01T13:44:41.842Z</time></trkpt><trkpt lat="44.142214200838474" lon="10.659824108043129"><ele>1351.0</ele><time>2026-05-01T13:44:42.843Z</time></trkpt><trkpt lat="44.142344075889824" lon="10.65975280228149"><ele>1351.0</ele><time>2026-05-01T13:44:43.843Z</time></trkpt><trkpt lat="44.14246653304828" lon="10.659651854908521"><ele>1351.0</ele><time>2026-05-01T13:44:44.843Z</time></trkpt><trkpt lat="44.142594897639945" lon="10.659537951096805"><ele>1348.0</ele><time>2026-05-01T13:44:45.843Z</time></trkpt><trkpt lat="44.14272400748754" lon="10.659398611264585"><ele>1345.0</ele><time>2026-05-01T13:44:46.843Z</time></trkpt><trkpt lat="44.14283273678187" lon="10.659248231289702"><ele>1342.0</ele><time>2026-05-01T13:44:47.843Z</time></trkpt><trkpt lat="44.142936184356174" lon="10.659107606932016"><ele>1342.0</ele><time>2026-05-01T13:44:48.843Z</time></trkpt><trkpt lat="44.14303436278088" lon="10.65900261552779"><ele>1342.0</ele><time>2026-05-01T13:44:49.842Z</time></trkpt><trkpt lat="44.14314551762383" lon="10.658923652475194"><ele>1342.0</ele><time>2026-05-01T13:44:50.842Z</time></trkpt><trkpt lat="44.14327160395962" lon="10.658855542449523"><ele>1342.0</ele><time>2026-05-01T13:44:51.842Z</time></trkpt><trkpt lat="44.14339486866842" lon="10.65878663608709"><ele>1339.25</ele><time>2026-05-01T13:44:52.842Z</time></trkpt><trkpt lat="44.14350653750008" lon="10.658708540372423"><ele>1336.5</ele><time>2026-05-01T13:44:53.842Z</time></trkpt><trkpt lat="44.14359928158669" lon="10.658613240474178"><ele>1333.75</ele><time>2026-05-01T13:44:54.842Z</time></trkpt><trkpt lat="44.143638552099816" lon="10.658440458333978"><ele>1331.0</ele><time>2026-05-01T13:44:55.842Z</time></trkpt><trkpt lat="44.14366264575794" lon="10.658294828440386"><ele>1331.0</ele><time>2026-05-01T13:44:56.842Z</time></trkpt><trkpt lat="44.143715193779435" lon="10.658124915162754"><ele>1331.0</ele><time>2026-05-01T13:44:57.842Z</time></trkpt><trkpt lat="44.14376217456828" lon="10.657957893718258"><ele>1331.0</ele><time>2026-05-01T13:44:58.842Z</time></trkpt><trkpt lat="44.14383260677062" lon="10.657795660996948"><ele>1331.0</ele><time>2026-05-01T13:44:59.842Z</time></trkpt><trkpt lat="44.14392915074272" lon="10.657653220991326"><ele>1331.5</ele><time>2026-05-01T13:45:00.842Z</time></trkpt><trkpt lat="44.14404492954824" lon="10.657547976839263"><ele>1332.0</ele><time>2026-05-01T13:45:01.842Z</time></trkpt><trkpt lat="44.14417315709308" lon="10.657475251517312"><ele>1332.5</ele><time>2026-05-01T13:45:02.842Z</time></trkpt><trkpt lat="44.14427631156287" lon="10.65737918573263"><ele>1333.0</ele><time>2026-05-01T13:45:03.842Z</time></trkpt><trkpt lat="44.14435196359988" lon="10.657271541615271"><ele>1329.5</ele><time>2026-05-01T13:45:04.842Z</time></trkpt><trkpt lat="44.14439261938553" lon="10.657119852977063"><ele>1326.0</ele><time>2026-05-01T13:45:05.842Z</time></trkpt><trkpt lat="44.14439590753796" lon="10.656963291073469"><ele>1322.5</ele><time>2026-05-01T13:45:06.842Z</time></trkpt><trkpt lat="44.1443691402463" lon="10.656815912180697"><ele>1319.0</ele><time>2026-05-01T13:45:07.842Z</time></trkpt><trkpt lat="44.144328277427455" lon="10.656645200421783"><ele>1319.0</ele><time>2026-05-01T13:45:08.842Z</time></trkpt><trkpt lat="44.14432550230568" lon="10.656461597293637"><ele>1319.0</ele><time>2026-05-01T13:45:09.842Z</time></trkpt><trkpt lat="44.14432492006854" lon="10.656298269422011"><ele>1319.0</ele><time>2026-05-01T13:45:10.842Z</time></trkpt><trkpt lat="44.14433491122252" lon="10.656143107776963"><ele>1319.0</ele><time>2026-05-01T13:45:11.842Z</time></trkpt><trkpt lat="44.144366868799366" lon="10.656003486662987"><ele>1321.0</ele><time>2026-05-01T13:45:12.842Z</time></trkpt><trkpt lat="44.1444151378563" lon="10.655852846685152"><ele>1323.0</ele><time>2026-05-01T13:45:13.842Z</time></trkpt><trkpt lat="44.1444773793561" lon="10.655698785435124"><ele>1325.0</ele><time>2026-05-01T13:45:14.842Z</time></trkpt><trkpt lat="44.14454561409381" lon="10.655550871193267"><ele>1327.0</ele><time>2026-05-01T13:45:15.842Z</time></trkpt><trkpt lat="44.14460827335928" lon="10.655387052577238"><ele>1325.0</ele><time>2026-05-01T13:45:16.842Z</time></trkpt><trkpt lat="44.14468910074482" lon="10.655265728184622"><ele>1323.0</ele><time>2026-05-01T13:45:17.842Z</time></trkpt><trkpt lat="44.14477194553195" lon="10.655171415483572"><ele>1321.0</ele><time>2026-05-01T13:45:18.842Z</time></trkpt><trkpt lat="44.144887586759616" lon="10.65510535874966"><ele>1319.0</ele><time>2026-05-01T13:45:19.842Z</time></trkpt><trkpt lat="44.145023765129984" lon="10.655101638099207"><ele>1319.0</ele><time>2026-05-01T13:45:20.842Z</time></trkpt><trkpt lat="44.145162372482574" lon="10.655068758898084"><ele>1319.0</ele><time>2026-05-01T13:45:21.842Z</time></trkpt><trkpt lat="44.14530459190522" lon="10.655017953092282"><ele>1319.0</ele><time>2026-05-01T13:45:22.842Z</time></trkpt><trkpt lat="44.14542793720706" lon="10.65491657634459"><ele>1319.0</ele><time>2026-05-01T13:45:23.842Z</time></trkpt><trkpt lat="44.145528729217254" lon="10.654830094262621"><ele>1319.0</ele><time>2026-05-01T13:45:24.842Z</time></trkpt><trkpt lat="44.145655011623575" lon="10.65479556573193"><ele>1319.0</ele><time>2026-05-01T13:45:25.842Z</time></trkpt><trkpt lat="44.145783589238036" lon="10.654814310518379"><ele>1319.0</ele><time>2026-05-01T13:45:26.842Z</time></trkpt><trkpt lat="44.14591214564815" lon="10.654863201558802"><ele>1319.0</ele><time>2026-05-01T13:45:27.842Z</time></trkpt><trkpt lat="44.14603893040581" lon="10.654857692319956"><ele>1314.0</ele><time>2026-05-01T13:45:28.841Z</time></trkpt><trkpt lat="44.1461896095979" lon="10.654782519262397"><ele>1309.0</ele><time>2026-05-01T13:45:29.841Z</time></trkpt><trkpt lat="44.146322826759814" lon="10.654721901529784"><ele>1304.0</ele><time>2026-05-01T13:45:30.841Z</time></trkpt><trkpt lat="44.14647127694912" lon="10.654634925864865"><ele>1304.75</ele><time>2026-05-01T13:45:31.841Z</time></trkpt><trkpt lat="44.14661253900702" lon="10.654552325030053"><ele>1305.5</ele><time>2026-05-01T13:45:32.841Z</time></trkpt><trkpt lat="44.14675488096371" lon="10.65446934247773"><ele>1306.25</ele><time>2026-05-01T13:45:33.841Z</time></trkpt><trkpt lat="44.146874287152606" lon="10.654389313427208"><ele>1307.0</ele><time>2026-05-01T13:45:34.841Z</time></trkpt><trkpt lat="44.1469731126399" lon="10.654256630150428"><ele>1307.0</ele><time>2026-05-01T13:45:35.841Z</time></trkpt><trkpt lat="44.14705103148277" lon="10.654103651604903"><ele>1307.0</ele><time>2026-05-01T13:45:36.841Z</time></trkpt><trkpt lat="44.14712510957898" lon="10.653954087965378"><ele>1307.0</ele><time>2026-05-01T13:45:37.841Z</time></trkpt><trkpt lat="44.147212174854154" lon="10.653838692502964"><ele>1307.0</ele><time>2026-05-01T13:45:38.841Z</time></trkpt><trkpt lat="44.147318622748315" lon="10.653737316322863"><ele>1302.6666666666667</ele><time>2026-05-01T13:45:39.841Z</time></trkpt><trkpt lat="44.14745980194764" lon="10.653713783266337"><ele>1298.3333333333333</ele><time>2026-05-01T13:45:40.841Z</time></trkpt><trkpt lat="44.14761392393569" lon="10.65361427919085"><ele>1294.0</ele><time>2026-05-01T13:45:41.841Z</time></trkpt><trkpt lat="44.147760393436634" lon="10.65347566567729"><ele>1294.0</ele><time>2026-05-01T13:45:42.841Z</time></trkpt><trkpt lat="44.14791524083549" lon="10.653331533342033"><ele>1294.0</ele><time>2026-05-01T13:45:43.841Z</time></trkpt><trkpt lat="44.148072614293184" lon="10.65318639673138"><ele>1294.0</ele><time>2026-05-01T13:45:44.841Z</time></trkpt><trkpt lat="44.14822852554958" lon="10.653040471207193"><ele>1289.25</ele><time>2026-05-01T13:45:45.841Z</time></trkpt><trkpt lat="44.148358546731565" lon="10.652925047988381"><ele>1284.5</ele><time>2026-05-01T13:45:46.841Z</time></trkpt><trkpt lat="44.14847221628232" lon="10.652872058496117"><ele>1279.75</ele><time>2026-05-01T13:45:47.841Z</time></trkpt><trkpt lat="44.14859500127769" lon="10.652838898868422"><ele>1275.0</ele><time>2026-05-01T13:45:48.841Z</time></trkpt><trkpt lat="44.148741135884045" lon="10.652848688774545"><ele>1275.0</ele><time>2026-05-01T13:45:49.841Z</time></trkpt><trkpt lat="44.14889697768548" lon="10.652882480518768"><ele>1275.0</ele><time>2026-05-01T13:45:50.841Z</time></trkpt><trkpt lat="44.14903949905579" lon="10.652910110872796"><ele>1275.0</ele><time>2026-05-01T13:45:51.841Z</time></trkpt><trkpt lat="44.14917111533333" lon="10.652925002151063"><ele>1275.0</ele><time>2026-05-01T13:45:52.841Z</time></trkpt><trkpt lat="44.149318247285564" lon="10.65289164232572"><ele>1281.0</ele><time>2026-05-01T13:45:53.841Z</time></trkpt><trkpt lat="44.14947361883402" lon="10.652786536628398"><ele>1287.0</ele><time>2026-05-01T13:45:54.841Z</time></trkpt><trkpt lat="44.14962662710796" lon="10.652742519206267"><ele>1293.0</ele><time>2026-05-01T13:45:55.841Z</time></trkpt><trkpt lat="44.149778335564115" lon="10.652738437368226"><ele>1289.6666666666667</ele><time>2026-05-01T13:45:56.841Z</time></trkpt><trkpt lat="44.1499446132652" lon="10.65273808526459"><ele>1286.3333333333335</ele><time>2026-05-01T13:45:57.841Z</time></trkpt><trkpt lat="44.1501159618651" lon="10.652738697728214"><ele>1283.0</ele><time>2026-05-01T13:45:58.841Z</time></trkpt><trkpt lat="44.15028364877194" lon="10.652735407606741"><ele>1283.0</ele><time>2026-05-01T13:45:59.841Z</time></trkpt><trkpt lat="44.150413320739794" lon="10.65272232454168"><ele>1283.0</ele><time>2026-05-01T13:46:00.841Z</time></trkpt><trkpt lat="44.150529501524254" lon="10.652690758413627"><ele>1283.0</ele><time>2026-05-01T13:46:01.841Z</time></trkpt><trkpt lat="44.15060939707257" lon="10.652623392738874"><ele>1283.0</ele><time>2026-05-01T13:46:02.841Z</time></trkpt><trkpt lat="44.15067482778211" lon="10.652500484985191"><ele>1277.0</ele><time>2026-05-01T13:46:03.841Z</time></trkpt><trkpt lat="44.15071582614615" lon="10.652374263424052"><ele>1271.0</ele><time>2026-05-01T13:46:04.841Z</time></trkpt><trkpt lat="44.15073686991808" lon="10.652231096232821"><ele>1265.0</ele><time>2026-05-01T13:46:05.841Z</time></trkpt><trkpt lat="44.15076389042797" lon="10.652095831131058"><ele>1259.0</ele><time>2026-05-01T13:46:06.841Z</time></trkpt><trkpt lat="44.15084687329308" lon="10.652011635046495"><ele>1253.0</ele><time>2026-05-01T13:46:07.841Z</time></trkpt><trkpt lat="44.150987645213945" lon="10.652011283502436"><ele>1259.0</ele><time>2026-05-01T13:46:08.841Z</time></trkpt><trkpt lat="44.151129170877724" lon="10.651947790236397"><ele>1265.0</ele><time>2026-05-01T13:46:09.841Z</time></trkpt><trkpt lat="44.151268774490866" lon="10.651909807381545"><ele>1271.0</ele><time>2026-05-01T13:46:10.841Z</time></trkpt><trkpt lat="44.151408348963514" lon="10.651854291698356"><ele>1277.0</ele><time>2026-05-01T13:46:11.841Z</time></trkpt><trkpt lat="44.151518035649744" lon="10.651780299600349"><ele>1273.0</ele><time>2026-05-01T13:46:12.841Z</time></trkpt><trkpt lat="44.15164338593098" lon="10.651675033422478"><ele>1269.0</ele><time>2026-05-01T13:46:13.841Z</time></trkpt><trkpt lat="44.15176704032416" lon="10.651572270589439"><ele>1265.0</ele><time>2026-05-01T13:46:14.841Z</time></trkpt><trkpt lat="44.15188557679601" lon="10.651464014183736"><ele>1261.0</ele><time>2026-05-01T13:46:15.841Z</time></trkpt><trkpt lat="44.152002024589045" lon="10.65138991732321"><ele>1261.0</ele><time>2026-05-01T13:46:16.841Z</time></trkpt><trkpt lat="44.15214211507804" lon="10.651385976208891"><ele>1261.0</ele><time>2026-05-01T13:46:17.841Z</time></trkpt><trkpt lat="44.152294703677605" lon="10.651421905103206"><ele>1261.0</ele><time>2026-05-01T13:46:18.841Z</time></trkpt><trkpt lat="44.15242819840226" lon="10.65148694239041"><ele>1261.0</ele><time>2026-05-01T13:46:19.841Z</time></trkpt><trkpt lat="44.152553946516825" lon="10.65151201585919"><ele>1255.0</ele><time>2026-05-01T13:46:20.841Z</time></trkpt><trkpt lat="44.152694081132125" lon="10.651489976757956"><ele>1249.0</ele><time>2026-05-01T13:46:21.841Z</time></trkpt><trkpt lat="44.15283440336678" lon="10.651399181414748"><ele>1243.0</ele><time>2026-05-01T13:46:22.841Z</time></trkpt><trkpt lat="44.152983673729814" lon="10.651322739361907"><ele>1243.0</ele><time>2026-05-01T13:46:23.841Z</time></trkpt><trkpt lat="44.1531396956968" lon="10.651254990540524"><ele>1243.0</ele><time>2026-05-01T13:46:24.841Z</time></trkpt><trkpt lat="44.153296408979536" lon="10.65123472745144"><ele>1243.0</ele><time>2026-05-01T13:46:25.841Z</time></trkpt><trkpt lat="44.15346385005713" lon="10.651236734909787"><ele>1241.6666666666665</ele><time>2026-05-01T13:46:26.841Z</time></trkpt><trkpt lat="44.153634696348476" lon="10.65120304437493"><ele>1240.3333333333333</ele><time>2026-05-01T13:46:27.841Z</time></trkpt><trkpt lat="44.15377061794087" lon="10.651107221002304"><ele>1239.0</ele><time>2026-05-01T13:46:28.841Z</time></trkpt><trkpt lat="44.15389541904437" lon="10.651029934583931"><ele>1239.0</ele><time>2026-05-01T13:46:29.841Z</time></trkpt><trkpt lat="44.154033183432674" lon="10.650924973863583"><ele>1239.0</ele><time>2026-05-01T13:46:30.841Z</time></trkpt><trkpt lat="44.1541664633406" lon="10.650820460653216"><ele>1239.0</ele><time>2026-05-01T13:46:31.841Z</time></trkpt><trkpt lat="44.154300402382134" lon="10.650715359222138"><ele>1236.25</ele><time>2026-05-01T13:46:32.841Z</time></trkpt><trkpt lat="44.15443300815515" lon="10.65061434270859"><ele>1233.5</ele><time>2026-05-01T13:46:33.841Z</time></trkpt><trkpt lat="44.15455213001435" lon="10.650524677594154"><ele>1230.75</ele><time>2026-05-01T13:46:34.841Z</time></trkpt><trkpt lat="44.1546743599205" lon="10.6504189562919"><ele>1228.0</ele><time>2026-05-01T13:46:35.841Z</time></trkpt><trkpt lat="44.154824693647704" lon="10.650377979113514"><ele>1226.6666666666665</ele><time>2026-05-01T13:46:36.841Z</time></trkpt><trkpt lat="44.154981029457396" lon="10.650327672418326"><ele>1225.3333333333333</ele><time>2026-05-01T13:46:37.841Z</time></trkpt><trkpt lat="44.155143959681766" lon="10.650262195293854"><ele>1224.0</ele><time>2026-05-01T13:46:38.841Z</time></trkpt><trkpt lat="44.15531786669726" lon="10.650233267233656"><ele>1224.0</ele><time>2026-05-01T13:46:39.841Z</time></trkpt><trkpt lat="44.155488718993766" lon="10.650169867937839"><ele>1224.0</ele><time>2026-05-01T13:46:40.841Z</time></trkpt><trkpt lat="44.15565113396437" lon="10.65009723044876"><ele>1224.0</ele><time>2026-05-01T13:46:41.841Z</time></trkpt><trkpt lat="44.15581129480071" lon="10.650048958453816"><ele>1222.0</ele><time>2026-05-01T13:46:42.842Z</time></trkpt><trkpt lat="44.15596036320165" lon="10.649981003216917"><ele>1220.0</ele><time>2026-05-01T13:46:43.841Z</time></trkpt><trkpt lat="44.156098836169775" lon="10.649914161191083"><ele>1218.0</ele><time>2026-05-01T13:46:44.841Z</time></trkpt><trkpt lat="44.15622086231587" lon="10.649850283586293"><ele>1216.0</ele><time>2026-05-01T13:46:45.842Z</time></trkpt><trkpt lat="44.1563129252419" lon="10.649781086710835"><ele>1216.0</ele><time>2026-05-01T13:46:46.841Z</time></trkpt><trkpt lat="44.15636552896949" lon="10.649685538486423"><ele>1216.0</ele><time>2026-05-01T13:46:47.841Z</time></trkpt><trkpt lat="44.15638679290606" lon="10.649583201460965"><ele>1216.0</ele><time>2026-05-01T13:46:48.841Z</time></trkpt><trkpt lat="44.15636646745239" lon="10.649471112650442"><ele>1216.0</ele><time>2026-05-01T13:46:49.841Z</time></trkpt><trkpt lat="44.15631130224963" lon="10.649381433328756"><ele>1216.0</ele><time>2026-05-01T13:46:50.841Z</time></trkpt><trkpt lat="44.15624511505044" lon="10.64929998289819"><ele>1216.0</ele><time>2026-05-01T13:46:51.841Z</time></trkpt><trkpt lat="44.15615648286516" lon="10.649198325525822"><ele>1215.5</ele><time>2026-05-01T13:46:52.841Z</time></trkpt><trkpt lat="44.15605667402636" lon="10.649083328088356"><ele>1215.0</ele><time>2026-05-01T13:46:53.841Z</time></trkpt><trkpt lat="44.15595951960715" lon="10.648970139606824"><ele>1214.5</ele><time>2026-05-01T13:46:54.842Z</time></trkpt><trkpt lat="44.15586435961217" lon="10.648859948321311"><ele>1214.0</ele><time>2026-05-01T13:46:55.842Z</time></trkpt><trkpt lat="44.15577696242973" lon="10.64877616743227"><ele>1214.0</ele><time>2026-05-01T13:46:56.842Z</time></trkpt><trkpt lat="44.155712192352844" lon="10.648656068955372"><ele>1214.0</ele><time>2026-05-01T13:46:57.842Z</time></trkpt><trkpt lat="44.155687509005325" lon="10.648489044769846"><ele>1214.0</ele><time>2026-05-01T13:46:58.842Z</time></trkpt><trkpt lat="44.155674078121265" lon="10.648315523987169"><ele>1214.0</ele><time>2026-05-01T13:46:59.842Z</time></trkpt><trkpt lat="44.155714455194584" lon="10.648152974245333"><ele>1212.75</ele><time>2026-05-01T13:47:00.842Z</time></trkpt><trkpt lat="44.15578963420042" lon="10.648026360631947"><ele>1211.5</ele><time>2026-05-01T13:47:01.842Z</time></trkpt><trkpt lat="44.15588801990313" lon="10.64794823513519"><ele>1210.25</ele><time>2026-05-01T13:47:02.842Z</time></trkpt><trkpt lat="44.15600706706408" lon="10.64790281222714"><ele>1209.0</ele><time>2026-05-01T13:47:03.842Z</time></trkpt><trkpt lat="44.15611367481085" lon="10.647823525921893"><ele>1206.75</ele><time>2026-05-01T13:47:04.841Z</time></trkpt><trkpt lat="44.156201944971635" lon="10.64769918815214"><ele>1204.5</ele><time>2026-05-01T13:47:05.841Z</time></trkpt><trkpt lat="44.15631697597008" lon="10.647573373088937"><ele>1202.25</ele><time>2026-05-01T13:47:06.841Z</time></trkpt><trkpt lat="44.15643778900323" lon="10.647470694700495"><ele>1200.0</ele><time>2026-05-01T13:47:07.841Z</time></trkpt><trkpt lat="44.15657746012094" lon="10.64737922034139"><ele>1200.0</ele><time>2026-05-01T13:47:08.841Z</time></trkpt><trkpt lat="44.156729412813725" lon="10.647291096508152"><ele>1200.0</ele><time>2026-05-01T13:47:09.841Z</time></trkpt><trkpt lat="44.15689268660031" lon="10.647214765152967"><ele>1200.0</ele><time>2026-05-01T13:47:10.841Z</time></trkpt><trkpt lat="44.15706096652638" lon="10.64712117638282"><ele>1200.0</ele><time>2026-05-01T13:47:11.841Z</time></trkpt><trkpt lat="44.15723605056384" lon="10.647023274414662"><ele>1200.0</ele><time>2026-05-01T13:47:12.841Z</time></trkpt><trkpt lat="44.15740957853366" lon="10.646931182984169"><ele>1200.0</ele><time>2026-05-01T13:47:13.841Z</time></trkpt><trkpt lat="44.15757851371935" lon="10.646854822431642"><ele>1198.75</ele><time>2026-05-01T13:47:14.841Z</time></trkpt><trkpt lat="44.15773540497215" lon="10.646816401662575"><ele>1197.5</ele><time>2026-05-01T13:47:15.841Z</time></trkpt><trkpt lat="44.157874727913544" lon="10.646769810499242"><ele>1196.25</ele><time>2026-05-01T13:47:16.841Z</time></trkpt><trkpt lat="44.15799583709255" lon="10.64673319403185"><ele>1195.0</ele><time>2026-05-01T13:47:17.841Z</time></trkpt><trkpt lat="44.15812583481059" lon="10.646685681525959"><ele>1193.0</ele><time>2026-05-01T13:47:18.841Z</time></trkpt><trkpt lat="44.1582380141596" lon="10.646600134363768"><ele>1191.0</ele><time>2026-05-01T13:47:19.841Z</time></trkpt><trkpt lat="44.15835847000345" lon="10.646463706847596"><ele>1189.0</ele><time>2026-05-01T13:47:20.841Z</time></trkpt><trkpt lat="44.15847554231815" lon="10.646308328831868"><ele>1187.0</ele><time>2026-05-01T13:47:21.841Z</time></trkpt><trkpt lat="44.158586601097646" lon="10.646139045338822"><ele>1187.0</ele><time>2026-05-01T13:47:22.841Z</time></trkpt><trkpt lat="44.15868196404915" lon="10.645978520893992"><ele>1187.0</ele><time>2026-05-01T13:47:23.841Z</time></trkpt><trkpt lat="44.158763606655725" lon="10.645817721250099"><ele>1187.0</ele><time>2026-05-01T13:47:24.841Z</time></trkpt><trkpt lat="44.158815148651044" lon="10.645663609828844"><ele>1187.0</ele><time>2026-05-01T13:47:25.841Z</time></trkpt><trkpt lat="44.15885668970027" lon="10.645518172318187"><ele>1187.0</ele><time>2026-05-01T13:47:26.841Z</time></trkpt><trkpt lat="44.1589030824935" lon="10.645385574119915"><ele>1187.0</ele><time>2026-05-01T13:47:27.841Z</time></trkpt><trkpt lat="44.158981498688966" lon="10.64525489693031"><ele>1187.0</ele><time>2026-05-01T13:47:28.841Z</time></trkpt><trkpt lat="44.15909254029135" lon="10.64515580544802"><ele>1187.0</ele><time>2026-05-01T13:47:29.841Z</time></trkpt><trkpt lat="44.15923159685063" lon="10.6450634077492"><ele>1185.6666666666667</ele><time>2026-05-01T13:47:30.841Z</time></trkpt><trkpt lat="44.15939581906625" lon="10.644988417863404"><ele>1184.3333333333333</ele><time>2026-05-01T13:47:31.841Z</time></trkpt><trkpt lat="44.159550428543135" lon="10.644910721909522"><ele>1183.0</ele><time>2026-05-01T13:47:32.841Z</time></trkpt><trkpt lat="44.15971665499741" lon="10.644821466927331"><ele>1177.0</ele><time>2026-05-01T13:47:33.841Z</time></trkpt><trkpt lat="44.15987808947077" lon="10.644731334612283"><ele>1171.0</ele><time>2026-05-01T13:47:34.841Z</time></trkpt><trkpt lat="44.16003570604763" lon="10.644685494975912"><ele>1165.0</ele><time>2026-05-01T13:47:35.841Z</time></trkpt><trkpt lat="44.16018704827358" lon="10.64469052958735"><ele>1165.0</ele><time>2026-05-01T13:47:36.841Z</time></trkpt><trkpt lat="44.160330534312614" lon="10.644747254839956"><ele>1165.0</ele><time>2026-05-01T13:47:37.841Z</time></trkpt><trkpt lat="44.160457497141884" lon="10.644793155724873"><ele>1165.0</ele><time>2026-05-01T13:47:38.841Z</time></trkpt><trkpt lat="44.160566585486976" lon="10.644838253135084"><ele>1165.0</ele><time>2026-05-01T13:47:39.841Z</time></trkpt><trkpt lat="44.160657337634184" lon="10.644876697583085"><ele>1163.0</ele><time>2026-05-01T13:47:40.841Z</time></trkpt><trkpt lat="44.16073608576924" lon="10.64490273207724"><ele>1161.0</ele><time>2026-05-01T13:47:41.841Z</time></trkpt><trkpt lat="44.16080030551489" lon="10.64491868667038"><ele>1159.0</ele><time>2026-05-01T13:47:42.841Z</time></trkpt><trkpt lat="44.1613287439917" lon="10.644821146048944"><ele>1159.0</ele><time>2026-05-01T13:47:43.841Z</time></trkpt><trkpt lat="44.16151060091705" lon="10.644774973871636"><ele>1159.0</ele><time>2026-05-01T13:47:44.841Z</time></trkpt><trkpt lat="44.16166874946146" lon="10.644737035020377"><ele>1159.0</ele><time>2026-05-01T13:47:45.841Z</time></trkpt><trkpt lat="44.16183350603931" lon="10.64467135445995"><ele>1156.3333333333333</ele><time>2026-05-01T13:47:46.841Z</time></trkpt><trkpt lat="44.1619787774624" lon="10.644555412257613"><ele>1153.6666666666667</ele><time>2026-05-01T13:47:47.841Z</time></trkpt><trkpt lat="44.16211516148094" lon="10.64442192111811"><ele>1151.0</ele><time>2026-05-01T13:47:48.841Z</time></trkpt><trkpt lat="44.16225436811736" lon="10.644268186641202"><ele>1150.6666666666667</ele><time>2026-05-01T13:47:49.841Z</time></trkpt><trkpt lat="44.16239439200788" lon="10.64410826182515"><ele>1150.3333333333333</ele><time>2026-05-01T13:47:50.841Z</time></trkpt><trkpt lat="44.162533886930994" lon="10.64394186762974"><ele>1150.0</ele><time>2026-05-01T13:47:51.841Z</time></trkpt><trkpt lat="44.16266826815519" lon="10.643775937416274"><ele>1150.0</ele><time>2026-05-01T13:47:52.841Z</time></trkpt><trkpt lat="44.16281385706056" lon="10.643648522462591"><ele>1150.0</ele><time>2026-05-01T13:47:53.841Z</time></trkpt><trkpt lat="44.16294045989882" lon="10.643505482522205"><ele>1150.0</ele><time>2026-05-01T13:47:54.841Z</time></trkpt><trkpt lat="44.16305493312222" lon="10.643375568909047"><ele>1148.5</ele><time>2026-05-01T13:47:55.841Z</time></trkpt><trkpt lat="44.16319591958177" lon="10.643347930540862"><ele>1147.0</ele><time>2026-05-01T13:47:56.841Z</time></trkpt><trkpt lat="44.16334385431547" lon="10.643271179965467"><ele>1145.5</ele><time>2026-05-01T13:47:57.841Z</time></trkpt><trkpt lat="44.16346887774414" lon="10.643170331291069"><ele>1144.0</ele><time>2026-05-01T13:47:58.841Z</time></trkpt><trkpt lat="44.16358626575505" lon="10.643112082058886"><ele>1144.0</ele><time>2026-05-01T13:47:59.841Z</time></trkpt><trkpt lat="44.16371248374996" lon="10.643082918289394"><ele>1144.0</ele><time>2026-05-01T13:48:00.841Z</time></trkpt><trkpt lat="44.16382962739798" lon="10.643036647072122"><ele>1144.0</ele><time>2026-05-01T13:48:01.841Z</time></trkpt><trkpt lat="44.163929883597426" lon="10.642965608751485"><ele>1144.0</ele><time>2026-05-01T13:48:02.841Z</time></trkpt><trkpt lat="44.16400929982229" lon="10.642855441999059"><ele>1140.8</ele><time>2026-05-01T13:48:03.841Z</time></trkpt><trkpt lat="44.16406795519836" lon="10.64272815672439"><ele>1137.6000000000001</ele><time>2026-05-01T13:48:04.841Z</time></trkpt><trkpt lat="44.1640926986458" lon="10.642585798462846"><ele>1134.4</ele><time>2026-05-01T13:48:05.841Z</time></trkpt><trkpt lat="44.164106017894476" lon="10.642431372894407"><ele>1131.2</ele><time>2026-05-01T13:48:06.841Z</time></trkpt><trkpt lat="44.16410411978462" lon="10.642277750495841"><ele>1128.0</ele><time>2026-05-01T13:48:07.841Z</time></trkpt><trkpt lat="44.164043330559274" lon="10.642085924791862"><ele>1131.2</ele><time>2026-05-01T13:48:08.841Z</time></trkpt><trkpt lat="44.164001858076546" lon="10.641986799578943"><ele>1134.4</ele><time>2026-05-01T13:48:09.841Z</time></trkpt><trkpt lat="44.163931071289966" lon="10.641889712388856"><ele>1137.6000000000001</ele><time>2026-05-01T13:48:10.841Z</time></trkpt><trkpt lat="44.16388423927536" lon="10.641779148612347"><ele>1140.8</ele><time>2026-05-01T13:48:11.841Z</time></trkpt><trkpt lat="44.16386604024108" lon="10.641551154625525"><ele>1144.0</ele><time>2026-05-01T13:48:13.841Z</time></trkpt><trkpt lat="44.16393262715335" lon="10.641358136568945"><ele>1144.0</ele><time>2026-05-01T13:48:14.841Z</time></trkpt><trkpt lat="44.16396454643066" lon="10.641142019735641"><ele>1144.0</ele><time>2026-05-01T13:48:15.841Z</time></trkpt><trkpt lat="44.16394024196358" lon="10.64092636872175"><ele>1144.0</ele><time>2026-05-01T13:48:16.841Z</time></trkpt><trkpt lat="44.16392254278366" lon="10.640820869257379"><ele>1144.0</ele><time>2026-05-01T13:48:17.841Z</time></trkpt><trkpt lat="44.16388742132809" lon="10.640685249215624"><ele>1141.25</ele><time>2026-05-01T13:48:18.841Z</time></trkpt><trkpt lat="44.16382630820597" lon="10.64054457307389"><ele>1138.5</ele><time>2026-05-01T13:48:19.841Z</time></trkpt><trkpt lat="44.16373386302543" lon="10.640450593428044"><ele>1135.75</ele><time>2026-05-01T13:48:20.841Z</time></trkpt><trkpt lat="44.16361931059001" lon="10.640419675963054"><ele>1133.0</ele><time>2026-05-01T13:48:21.841Z</time></trkpt><trkpt lat="44.16352052493235" lon="10.640355026146457"><ele>1133.0</ele><time>2026-05-01T13:48:22.84Z</time></trkpt><trkpt lat="44.16344305087527" lon="10.640313887311377"><ele>1133.0</ele><time>2026-05-01T13:48:23.84Z</time></trkpt><trkpt lat="44.16338741549113" lon="10.640242901132012"><ele>1133.0</ele><time>2026-05-01T13:48:25.84Z</time></trkpt><trkpt lat="44.16346465311552" lon="10.640167680373825"><ele>1133.0</ele><time>2026-05-01T13:48:27.84Z</time></trkpt><trkpt lat="44.16353917909957" lon="10.640207479247787"><ele>1133.0</ele><time>2026-05-01T13:48:28.84Z</time></trkpt><trkpt lat="44.163614800535335" lon="10.640271296578634"><ele>1133.0</ele><time>2026-05-01T13:48:29.84Z</time></trkpt><trkpt lat="44.16371067865665" lon="10.64033391819047"><ele>1133.0</ele><time>2026-05-01T13:48:30.84Z</time></trkpt><trkpt lat="44.16381522726862" lon="10.640397252792788"><ele>1133.0</ele><time>2026-05-01T13:48:31.84Z</time></trkpt><trkpt lat="44.163921309152165" lon="10.64047953624333"><ele>1133.0</ele><time>2026-05-01T13:48:32.84Z</time></trkpt><trkpt lat="44.164009334581735" lon="10.640608251494413"><ele>1133.0</ele><time>2026-05-01T13:48:33.84Z</time></trkpt><trkpt lat="44.1640813957225" lon="10.640777698997331"><ele>1128.0</ele><time>2026-05-01T13:48:34.84Z</time></trkpt><trkpt lat="44.16415815432271" lon="10.640950651218729"><ele>1123.0</ele><time>2026-05-01T13:48:35.84Z</time></trkpt><trkpt lat="44.164236802302696" lon="10.641142245435539"><ele>1118.0</ele><time>2026-05-01T13:48:36.84Z</time></trkpt><trkpt lat="44.16430943329918" lon="10.641343558924973"><ele>1118.0</ele><time>2026-05-01T13:48:37.84Z</time></trkpt><trkpt lat="44.164375172213845" lon="10.641538428491852"><ele>1118.0</ele><time>2026-05-01T13:48:38.84Z</time></trkpt><trkpt lat="44.16444999580366" lon="10.641734165230545"><ele>1118.0</ele><time>2026-05-01T13:48:39.84Z</time></trkpt><trkpt lat="44.16454091688587" lon="10.641927071300822"><ele>1121.3333333333335</ele><time>2026-05-01T13:48:40.84Z</time></trkpt><trkpt lat="44.16463928847999" lon="10.642125900629074"><ele>1124.6666666666667</ele><time>2026-05-01T13:48:41.84Z</time></trkpt><trkpt lat="44.16472231212607" lon="10.642319987137236"><ele>1128.0</ele><time>2026-05-01T13:48:42.84Z</time></trkpt><trkpt lat="44.16480390798936" lon="10.642496334312721"><ele>1119.75</ele><time>2026-05-01T13:48:43.84Z</time></trkpt><trkpt lat="44.1648870034599" lon="10.642649943142636"><ele>1111.5</ele><time>2026-05-01T13:48:44.84Z</time></trkpt><trkpt lat="44.1649727409818" lon="10.642788716641217"><ele>1103.25</ele><time>2026-05-01T13:48:45.84Z</time></trkpt><trkpt lat="44.16506078683348" lon="10.642910454278937"><ele>1095.0</ele><time>2026-05-01T13:48:46.84Z</time></trkpt><trkpt lat="44.1651318422544" lon="10.643006017891352"><ele>1095.0</ele><time>2026-05-01T13:48:47.84Z</time></trkpt><trkpt lat="44.16519259831662" lon="10.643075771287752"><ele>1095.0</ele><time>2026-05-01T13:48:48.841Z</time></trkpt><trkpt lat="44.16525909022333" lon="10.643119575753788"><ele>1095.0</ele><time>2026-05-01T13:48:49.841Z</time></trkpt><trkpt lat="44.165364366298824" lon="10.643055640337609"><ele>1095.0</ele><time>2026-05-01T13:48:51.84Z</time></trkpt><trkpt lat="44.16539334649429" lon="10.642954837890814"><ele>1095.0</ele><time>2026-05-01T13:48:52.84Z</time></trkpt><trkpt lat="44.16538606129891" lon="10.642832390096544"><ele>1095.0</ele><time>2026-05-01T13:48:53.84Z</time></trkpt><trkpt lat="44.165373488866614" lon="10.642697373505225"><ele>1095.0</ele><time>2026-05-01T13:48:54.84Z</time></trkpt><trkpt lat="44.1653814777068" lon="10.64253907663544"><ele>1095.0</ele><time>2026-05-01T13:48:55.84Z</time></trkpt><trkpt lat="44.16535571208401" lon="10.642364903010803"><ele>1095.0</ele><time>2026-05-01T13:48:56.84Z</time></trkpt><trkpt lat="44.16529284860174" lon="10.642220775699121"><ele>1095.0</ele><time>2026-05-01T13:48:57.841Z</time></trkpt><trkpt lat="44.165247600032046" lon="10.642068041934195"><ele>1094.0</ele><time>2026-05-01T13:48:58.841Z</time></trkpt><trkpt lat="44.16519773710171" lon="10.641933539955957"><ele>1093.0</ele><time>2026-05-01T13:48:59.84Z</time></trkpt><trkpt lat="44.165149363546476" lon="10.641798907651685"><ele>1092.0</ele><time>2026-05-01T13:49:00.84Z</time></trkpt><trkpt lat="44.16510435672581" lon="10.641664895822105"><ele>1091.0</ele><time>2026-05-01T13:49:01.84Z</time></trkpt><trkpt lat="44.16506787349531" lon="10.641524738180177"><ele>1090.0</ele><time>2026-05-01T13:49:02.84Z</time></trkpt><trkpt lat="44.165050398966585" lon="10.641362066746229"><ele>1090.0</ele><time>2026-05-01T13:49:03.84Z</time></trkpt><trkpt lat="44.16503240240694" lon="10.641184756570318"><ele>1090.0</ele><time>2026-05-01T13:49:04.84Z</time></trkpt><trkpt lat="44.16501476202554" lon="10.640998941928851"><ele>1090.0</ele><time>2026-05-01T13:49:05.84Z</time></trkpt><trkpt lat="44.164997410162194" lon="10.64080750290939"><ele>1090.0</ele><time>2026-05-01T13:49:06.84Z</time></trkpt><trkpt lat="44.164980579430846" lon="10.640621812905446"><ele>1088.25</ele><time>2026-05-01T13:49:07.84Z</time></trkpt><trkpt lat="44.16496715308109" lon="10.640443483235511"><ele>1086.5</ele><time>2026-05-01T13:49:08.84Z</time></trkpt><trkpt lat="44.16494255492291" lon="10.640269864567898"><ele>1084.75</ele><time>2026-05-01T13:49:09.84Z</time></trkpt><trkpt lat="44.16496503788421" lon="10.640085182886201"><ele>1083.0</ele><time>2026-05-01T13:49:10.84Z</time></trkpt><trkpt lat="44.16497259978693" lon="10.639888894910596"><ele>1080.5</ele><time>2026-05-01T13:49:11.84Z</time></trkpt><trkpt lat="44.16496390703328" lon="10.639688735818376"><ele>1078.0</ele><time>2026-05-01T13:49:12.84Z</time></trkpt><trkpt lat="44.16498615042594" lon="10.639510625653225"><ele>1075.5</ele><time>2026-05-01T13:49:13.84Z</time></trkpt><trkpt lat="44.16499165291049" lon="10.6393514837138"><ele>1073.0</ele><time>2026-05-01T13:49:14.84Z</time></trkpt><trkpt lat="44.16500002312186" lon="10.63921345086356"><ele>1073.0</ele><time>2026-05-01T13:49:15.84Z</time></trkpt><trkpt lat="44.16502420389601" lon="10.639091288357298"><ele>1073.0</ele><time>2026-05-01T13:49:16.84Z</time></trkpt><trkpt lat="44.16506593287427" lon="10.638976969821984"><ele>1073.0</ele><time>2026-05-01T13:49:17.84Z</time></trkpt><trkpt lat="44.165151652935215" lon="10.638905679731856"><ele>1073.0</ele><time>2026-05-01T13:49:18.84Z</time></trkpt><trkpt lat="44.16525231264894" lon="10.638882875613213"><ele>1073.0</ele><time>2026-05-01T13:49:19.84Z</time></trkpt><trkpt lat="44.165377115988576" lon="10.638894550959524"><ele>1073.0</ele><time>2026-05-01T13:49:20.84Z</time></trkpt><trkpt lat="44.165510137252355" lon="10.638933871686898"><ele>1073.0</ele><time>2026-05-01T13:49:21.84Z</time></trkpt><trkpt lat="44.16563663487458" lon="10.638995789812142"><ele>1073.0</ele><time>2026-05-01T13:49:22.84Z</time></trkpt><trkpt lat="44.16574259576057" lon="10.639097093963402"><ele>1073.0</ele><time>2026-05-01T13:49:23.84Z</time></trkpt><trkpt lat="44.1658326444602" lon="10.63924139580234"><ele>1074.25</ele><time>2026-05-01T13:49:24.84Z</time></trkpt><trkpt lat="44.16592459104369" lon="10.639404453749576"><ele>1075.5</ele><time>2026-05-01T13:49:25.84Z</time></trkpt><trkpt lat="44.16601623227789" lon="10.639546582654704"><ele>1076.75</ele><time>2026-05-01T13:49:26.84Z</time></trkpt><trkpt lat="44.16612241643994" lon="10.639695903654331"><ele>1078.0</ele><time>2026-05-01T13:49:27.84Z</time></trkpt><trkpt lat="44.16623379366323" lon="10.639850324825321"><ele>1074.25</ele><time>2026-05-01T13:49:28.84Z</time></trkpt><trkpt lat="44.166319854781825" lon="10.640023570135599"><ele>1070.5</ele><time>2026-05-01T13:49:29.84Z</time></trkpt><trkpt lat="44.166402408709324" lon="10.640190356657044"><ele>1066.75</ele><time>2026-05-01T13:49:30.84Z</time></trkpt><trkpt lat="44.16647720830922" lon="10.640348603974285"><ele>1063.0</ele><time>2026-05-01T13:49:31.84Z</time></trkpt><trkpt lat="44.16656066656506" lon="10.640499629337732"><ele>1062.2</ele><time>2026-05-01T13:49:32.84Z</time></trkpt><trkpt lat="44.16666175681003" lon="10.64062290123494"><ele>1061.4</ele><time>2026-05-01T13:49:33.84Z</time></trkpt><trkpt lat="44.16673706572056" lon="10.640752714087869"><ele>1060.6000000000001</ele><time>2026-05-01T13:49:34.84Z</time></trkpt><trkpt lat="44.16680575918038" lon="10.640853932467303"><ele>1059.8</ele><time>2026-05-01T13:49:35.84Z</time></trkpt><trkpt lat="44.166860118910655" lon="10.640946229221656"><ele>1059.0</ele><time>2026-05-01T13:49:36.84Z</time></trkpt><trkpt lat="44.16692085057784" lon="10.641032623903307"><ele>1059.0</ele><time>2026-05-01T13:49:37.84Z</time></trkpt><trkpt lat="44.16699094609137" lon="10.641114782446124"><ele>1059.0</ele><time>2026-05-01T13:49:38.84Z</time></trkpt><trkpt lat="44.16708436339214" lon="10.641172626858966"><ele>1059.0</ele><time>2026-05-01T13:49:39.84Z</time></trkpt><trkpt lat="44.167190772165945" lon="10.641223598902329"><ele>1059.0</ele><time>2026-05-01T13:49:40.84Z</time></trkpt><trkpt lat="44.16730316757307" lon="10.641277844785055"><ele>1059.0</ele><time>2026-05-01T13:49:41.84Z</time></trkpt><trkpt lat="44.167423519703355" lon="10.641275177726438"><ele>1055.75</ele><time>2026-05-01T13:49:42.84Z</time></trkpt><trkpt lat="44.16754298745482" lon="10.641264034623482"><ele>1052.5</ele><time>2026-05-01T13:49:43.839Z</time></trkpt><trkpt lat="44.167659854372936" lon="10.641234170486236"><ele>1049.25</ele><time>2026-05-01T13:49:44.839Z</time></trkpt><trkpt lat="44.16777990688725" lon="10.641229145950454"><ele>1046.0</ele><time>2026-05-01T13:49:45.839Z</time></trkpt><trkpt lat="44.16790207059318" lon="10.641181417830799"><ele>1046.0</ele><time>2026-05-01T13:49:46.839Z</time></trkpt><trkpt lat="44.16803307132182" lon="10.64114123059978"><ele>1046.0</ele><time>2026-05-01T13:49:47.839Z</time></trkpt><trkpt lat="44.16816807890502" lon="10.641117604546011"><ele>1046.0</ele><time>2026-05-01T13:49:48.839Z</time></trkpt><trkpt lat="44.168303889943395" lon="10.641090124626242"><ele>1046.0</ele><time>2026-05-01T13:49:49.839Z</time></trkpt><trkpt lat="44.16843247185624" lon="10.641078612732738"><ele>1045.75</ele><time>2026-05-01T13:49:50.839Z</time></trkpt><trkpt lat="44.168562345275014" lon="10.641080497099573"><ele>1045.5</ele><time>2026-05-01T13:49:51.839Z</time></trkpt><trkpt lat="44.1686756097538" lon="10.641103167007858"><ele>1045.25</ele><time>2026-05-01T13:49:52.839Z</time></trkpt><trkpt lat="44.16878903060424" lon="10.641138242246766"><ele>1045.0</ele><time>2026-05-01T13:49:53.839Z</time></trkpt><trkpt lat="44.168904946535655" lon="10.64114920399529"><ele>1048.5</ele><time>2026-05-01T13:49:54.839Z</time></trkpt><trkpt lat="44.16903293319516" lon="10.64110170817046"><ele>1052.0</ele><time>2026-05-01T13:49:55.839Z</time></trkpt><trkpt lat="44.169171332063236" lon="10.641037761545633"><ele>1055.5</ele><time>2026-05-01T13:49:56.839Z</time></trkpt><trkpt lat="44.169294066394286" lon="10.640968352812445"><ele>1059.0</ele><time>2026-05-01T13:49:57.839Z</time></trkpt><trkpt lat="44.169417189765795" lon="10.640914134945742"><ele>1059.0</ele><time>2026-05-01T13:49:58.839Z</time></trkpt><trkpt lat="44.16954612472168" lon="10.640893639374921"><ele>1059.0</ele><time>2026-05-01T13:49:59.839Z</time></trkpt><trkpt lat="44.16968190745262" lon="10.640895721464611"><ele>1059.0</ele><time>2026-05-01T13:50:00.839Z</time></trkpt><trkpt lat="44.169820320365474" lon="10.640900328022116"><ele>1059.0</ele><time>2026-05-01T13:50:01.839Z</time></trkpt><trkpt lat="44.16995173126715" lon="10.640905053039122"><ele>1058.8</ele><time>2026-05-01T13:50:02.839Z</time></trkpt><trkpt lat="44.17007623989293" lon="10.640908892055336"><ele>1058.6000000000001</ele><time>2026-05-01T13:50:03.839Z</time></trkpt><trkpt lat="44.17018520933833" lon="10.640916435987114"><ele>1058.4</ele><time>2026-05-01T13:50:04.839Z</time></trkpt><trkpt lat="44.1702805551496" lon="10.640913744391954"><ele>1058.2</ele><time>2026-05-01T13:50:05.839Z</time></trkpt><trkpt lat="44.170366418476135" lon="10.640880744305175"><ele>1058.0</ele><time>2026-05-01T13:50:06.839Z</time></trkpt><trkpt lat="44.17042950811557" lon="10.640806148095887"><ele>1058.0</ele><time>2026-05-01T13:50:07.839Z</time></trkpt><trkpt lat="44.17046606536914" lon="10.640682758463068"><ele>1058.0</ele><time>2026-05-01T13:50:08.839Z</time></trkpt><trkpt lat="44.170482654959535" lon="10.640543236382783"><ele>1058.0</ele><time>2026-05-01T13:50:09.839Z</time></trkpt><trkpt lat="44.170505488402526" lon="10.640414757113149"><ele>1058.0</ele><time>2026-05-01T13:50:10.839Z</time></trkpt><trkpt lat="44.170554455109674" lon="10.640320895998714"><ele>1058.0</ele><time>2026-05-01T13:50:11.839Z</time></trkpt><trkpt lat="44.170639029154195" lon="10.6402844025353"><ele>1057.75</ele><time>2026-05-01T13:50:12.839Z</time></trkpt><trkpt lat="44.1707348366174" lon="10.640279642142174"><ele>1057.5</ele><time>2026-05-01T13:50:13.839Z</time></trkpt><trkpt lat="44.17085929442157" lon="10.640301510498013"><ele>1057.25</ele><time>2026-05-01T13:50:14.839Z</time></trkpt><trkpt lat="44.170975716808684" lon="10.640318476180266"><ele>1057.0</ele><time>2026-05-01T13:50:15.839Z</time></trkpt><trkpt lat="44.17109429747377" lon="10.640351059388786"><ele>1054.8</ele><time>2026-05-01T13:50:16.839Z</time></trkpt><trkpt lat="44.17121149528133" lon="10.640383865621482"><ele>1052.6</ele><time>2026-05-01T13:50:17.839Z</time></trkpt><trkpt lat="44.17132182613926" lon="10.640434967183992"><ele>1050.3999999999999</ele><time>2026-05-01T13:50:18.839Z</time></trkpt><trkpt lat="44.17140596642621" lon="10.640520954525636"><ele>1048.2</ele><time>2026-05-01T13:50:19.839Z</time></trkpt><trkpt lat="44.171469425526325" lon="10.640626403586488"><ele>1046.0</ele><time>2026-05-01T13:50:20.839Z</time></trkpt><trkpt lat="44.17150250665379" lon="10.64076716384306"><ele>1046.2</ele><time>2026-05-01T13:50:21.839Z</time></trkpt><trkpt lat="44.17154771922304" lon="10.640863176541352"><ele>1046.3999999999999</ele><time>2026-05-01T13:50:22.839Z</time></trkpt><trkpt lat="44.17161303764794" lon="10.64092642814033"><ele>1046.6</ele><time>2026-05-01T13:50:23.839Z</time></trkpt><trkpt lat="44.171694998996614" lon="10.64095397759125"><ele>1046.8</ele><time>2026-05-01T13:50:24.839Z</time></trkpt><trkpt lat="44.171796855122516" lon="10.640966375229697"><ele>1047.0</ele><time>2026-05-01T13:50:25.839Z</time></trkpt><trkpt lat="44.171931163975415" lon="10.640945196755476"><ele>1047.0</ele><time>2026-05-01T13:50:26.839Z</time></trkpt><trkpt lat="44.1720583870643" lon="10.640928399922068"><ele>1047.0</ele><time>2026-05-01T13:50:27.839Z</time></trkpt><trkpt lat="44.17217560715446" lon="10.64094678393767"><ele>1047.0</ele><time>2026-05-01T13:50:28.839Z</time></trkpt><trkpt lat="44.172294944374535" lon="10.641014325712526"><ele>1047.0</ele><time>2026-05-01T13:50:29.839Z</time></trkpt><trkpt lat="44.17240175056958" lon="10.641124678155743"><ele>1041.5</ele><time>2026-05-01T13:50:30.839Z</time></trkpt><trkpt lat="44.17250909263987" lon="10.641228810627386"><ele>1036.0</ele><time>2026-05-01T13:50:31.839Z</time></trkpt><trkpt lat="44.17263126214273" lon="10.641303928209924"><ele>1030.5</ele><time>2026-05-01T13:50:32.839Z</time></trkpt><trkpt lat="44.17276837002778" lon="10.641359405440378"><ele>1025.0</ele><time>2026-05-01T13:50:33.839Z</time></trkpt><trkpt lat="44.17291373660751" lon="10.64139886167647"><ele>1025.0</ele><time>2026-05-01T13:50:34.839Z</time></trkpt><trkpt lat="44.173055022286164" lon="10.641443840986563"><ele>1025.0</ele><time>2026-05-01T13:50:35.839Z</time></trkpt><trkpt lat="44.17318728016428" lon="10.641500046143143"><ele>1025.0</ele><time>2026-05-01T13:50:36.839Z</time></trkpt><trkpt lat="44.173313940659206" lon="10.64160820457957"><ele>1025.0</ele><time>2026-05-01T13:50:37.839Z</time></trkpt><trkpt lat="44.1734146349222" lon="10.641780700448914"><ele>1026.3333333333335</ele><time>2026-05-01T13:50:38.839Z</time></trkpt><trkpt lat="44.17352645422499" lon="10.641942103343832"><ele>1027.6666666666667</ele><time>2026-05-01T13:50:39.839Z</time></trkpt><trkpt lat="44.17364985134428" lon="10.64209724170303"><ele>1029.0</ele><time>2026-05-01T13:50:40.839Z</time></trkpt><trkpt lat="44.17377526147226" lon="10.642240411598978"><ele>1028.5</ele><time>2026-05-01T13:50:41.839Z</time></trkpt><trkpt lat="44.1739030602452" lon="10.642373379246749"><ele>1028.0</ele><time>2026-05-01T13:50:42.839Z</time></trkpt><trkpt lat="44.1740224439309" lon="10.642489667541419"><ele>1027.5</ele><time>2026-05-01T13:50:43.839Z</time></trkpt><trkpt lat="44.174133554503456" lon="10.642605994987111"><ele>1027.0</ele><time>2026-05-01T13:50:44.839Z</time></trkpt><trkpt lat="44.174228316335835" lon="10.642729475816408"><ele>1023.6</ele><time>2026-05-01T13:50:45.839Z</time></trkpt><trkpt lat="44.174308903223185" lon="10.642874522238941"><ele>1020.2</ele><time>2026-05-01T13:50:46.839Z</time></trkpt><trkpt lat="44.17437575023815" lon="10.643002326709958"><ele>1016.8</ele><time>2026-05-01T13:50:47.839Z</time></trkpt><trkpt lat="44.174436376642056" lon="10.643091578352129"><ele>1013.4</ele><time>2026-05-01T13:50:48.839Z</time></trkpt><trkpt lat="44.174524067760146" lon="10.64313620525924"><ele>1010.0</ele><time>2026-05-01T13:50:49.839Z</time></trkpt><trkpt lat="44.174617595526676" lon="10.643144914528914"><ele>1010.0</ele><time>2026-05-01T13:50:50.839Z</time></trkpt><trkpt lat="44.17471594571562" lon="10.643160927175835"><ele>1010.0</ele><time>2026-05-01T13:50:51.839Z</time></trkpt><trkpt lat="44.17477924055009" lon="10.643233543902486"><ele>1010.0</ele><time>2026-05-01T13:50:52.839Z</time></trkpt><trkpt lat="44.174797411451564" lon="10.643356086690966"><ele>1010.0</ele><time>2026-05-01T13:50:53.839Z</time></trkpt><trkpt lat="44.174773707242466" lon="10.643472207919375"><ele>1010.0</ele><time>2026-05-01T13:50:54.839Z</time></trkpt><trkpt lat="44.17474152185164" lon="10.643601790978881"><ele>1010.2</ele><time>2026-05-01T13:50:55.839Z</time></trkpt><trkpt lat="44.174724338605884" lon="10.643743538515222"><ele>1010.4</ele><time>2026-05-01T13:50:56.839Z</time></trkpt><trkpt lat="44.17473016763595" lon="10.643872465849416"><ele>1010.5999999999999</ele><time>2026-05-01T13:50:57.839Z</time></trkpt><trkpt lat="44.17475972326243" lon="10.643991822261286"><ele>1010.8</ele><time>2026-05-01T13:50:58.839Z</time></trkpt><trkpt lat="44.174820482875035" lon="10.64409751761758"><ele>1011.0</ele><time>2026-05-01T13:50:59.839Z</time></trkpt><trkpt lat="44.17492283240949" lon="10.644186807680217"><ele>1011.0</ele><time>2026-05-01T13:51:00.839Z</time></trkpt><trkpt lat="44.17502167488552" lon="10.64425588532973"><ele>1011.0</ele><time>2026-05-01T13:51:01.839Z</time></trkpt><trkpt lat="44.17513738295973" lon="10.6443273474084"><ele>1011.0</ele><time>2026-05-01T13:51:02.839Z</time></trkpt><trkpt lat="44.17525684111933" lon="10.644391510707514"><ele>1011.0</ele><time>2026-05-01T13:51:03.839Z</time></trkpt><trkpt lat="44.17538884494683" lon="10.644422705061645"><ele>1011.0</ele><time>2026-05-01T13:51:04.839Z</time></trkpt><trkpt lat="44.17552329622451" lon="10.644436190361192"><ele>1011.0</ele><time>2026-05-01T13:51:05.839Z</time></trkpt><trkpt lat="44.17565043803546" lon="10.644461962110947"><ele>1011.0</ele><time>2026-05-01T13:51:06.839Z</time></trkpt><trkpt lat="44.17579470616381" lon="10.64450934896187"><ele>1011.0</ele><time>2026-05-01T13:51:07.839Z</time></trkpt><trkpt lat="44.175924476620956" lon="10.644561567432383"><ele>1008.5</ele><time>2026-05-01T13:51:08.839Z</time></trkpt><trkpt lat="44.17604872064581" lon="10.644629895398795"><ele>1006.0</ele><time>2026-05-01T13:51:09.839Z</time></trkpt><trkpt lat="44.17616675968586" lon="10.644724556373562"><ele>1003.5</ele><time>2026-05-01T13:51:10.839Z</time></trkpt><trkpt lat="44.17625561787878" lon="10.644859363928095"><ele>1001.0</ele><time>2026-05-01T13:51:11.839Z</time></trkpt><trkpt lat="44.176282275022295" lon="10.645028501258553"><ele>1001.0</ele><time>2026-05-01T13:51:12.839Z</time></trkpt><trkpt lat="44.176328967485176" lon="10.645164400244074"><ele>1000.9999999999999</ele><time>2026-05-01T13:51:13.839Z</time></trkpt><trkpt lat="44.176420664142974" lon="10.645289960960833"><ele>1000.9999999999999</ele><time>2026-05-01T13:51:14.839Z</time></trkpt><trkpt lat="44.176526925216464" lon="10.645348893485343"><ele>1001.0</ele><time>2026-05-01T13:51:15.839Z</time></trkpt><trkpt lat="44.17661310861529" lon="10.645397839502234"><ele>1001.0</ele><time>2026-05-01T13:51:16.839Z</time></trkpt><trkpt lat="44.176720724728185" lon="10.645434544381908"><ele>1002.25</ele><time>2026-05-01T13:51:17.839Z</time></trkpt><trkpt lat="44.17683246232829" lon="10.645362607400292"><ele>1003.5</ele><time>2026-05-01T13:51:18.839Z</time></trkpt><trkpt lat="44.17695701670093" lon="10.645276853288205"><ele>1004.75</ele><time>2026-05-01T13:51:19.839Z</time></trkpt><trkpt lat="44.177101893671335" lon="10.64517772540228"><ele>1006.0</ele><time>2026-05-01T13:51:20.839Z</time></trkpt><trkpt lat="44.17724025684106" lon="10.645083643122723"><ele>1004.5</ele><time>2026-05-01T13:51:21.839Z</time></trkpt><trkpt lat="44.17736898688922" lon="10.64498365559724"><ele>1003.0</ele><time>2026-05-01T13:51:22.839Z</time></trkpt><trkpt lat="44.17746711678238" lon="10.644927973467041"><ele>1001.5</ele><time>2026-05-01T13:51:23.839Z</time></trkpt><trkpt lat="44.17756977068906" lon="10.644893554675384"><ele>1000.0</ele><time>2026-05-01T13:51:24.839Z</time></trkpt><trkpt lat="44.177687048414406" lon="10.64488985431112"><ele>1000.0</ele><time>2026-05-01T13:51:25.839Z</time></trkpt><trkpt lat="44.17781662329106" lon="10.644925354122451"><ele>1000.0</ele><time>2026-05-01T13:51:26.839Z</time></trkpt><trkpt lat="44.177935498579174" lon="10.644969946405215"><ele>1000.0</ele><time>2026-05-01T13:51:27.839Z</time></trkpt><trkpt lat="44.178077002447736" lon="10.64495900402251"><ele>1000.0</ele><time>2026-05-01T13:51:28.838Z</time></trkpt><trkpt lat="44.178217440214105" lon="10.644998351159495"><ele>997.75</ele><time>2026-05-01T13:51:29.838Z</time></trkpt><trkpt lat="44.178361259256626" lon="10.645006196812634"><ele>995.5</ele><time>2026-05-01T13:51:30.838Z</time></trkpt><trkpt lat="44.178505328214804" lon="10.644983392203473"><ele>993.25</ele><time>2026-05-01T13:51:31.838Z</time></trkpt><trkpt lat="44.17864979700042" lon="10.644964322604414"><ele>991.0</ele><time>2026-05-01T13:51:32.838Z</time></trkpt><trkpt lat="44.17876793517075" lon="10.644871985881833"><ele>991.0</ele><time>2026-05-01T13:51:33.838Z</time></trkpt><trkpt lat="44.178861945271976" lon="10.644761544944847"><ele>990.9999999999999</ele><time>2026-05-01T13:51:34.838Z</time></trkpt><trkpt lat="44.17894636980396" lon="10.644666851801237"><ele>990.9999999999999</ele><time>2026-05-01T13:51:35.838Z</time></trkpt><trkpt lat="44.179026452993334" lon="10.644602911824867"><ele>991.0</ele><time>2026-05-01T13:51:36.838Z</time></trkpt><trkpt lat="44.179120606832086" lon="10.644643554260126"><ele>991.0</ele><time>2026-05-01T13:51:37.838Z</time></trkpt><trkpt lat="44.17918259425342" lon="10.644734653461873"><ele>988.5</ele><time>2026-05-01T13:51:38.838Z</time></trkpt><trkpt lat="44.17924638518686" lon="10.644834797970132"><ele>986.0</ele><time>2026-05-01T13:51:39.838Z</time></trkpt><trkpt lat="44.17935840817718" lon="10.644886894156116"><ele>983.5</ele><time>2026-05-01T13:51:40.838Z</time></trkpt><trkpt lat="44.179495350156294" lon="10.644840405540444"><ele>981.0</ele><time>2026-05-01T13:51:41.838Z</time></trkpt><trkpt lat="44.179632288970325" lon="10.64479286353171"><ele>981.0</ele><time>2026-05-01T13:51:42.838Z</time></trkpt><trkpt lat="44.17976532132297" lon="10.644726455732352"><ele>981.0</ele><time>2026-05-01T13:51:43.838Z</time></trkpt><trkpt lat="44.1798984080038" lon="10.644699120138876"><ele>981.0</ele><time>2026-05-01T13:51:44.838Z</time></trkpt><trkpt lat="44.18005565250439" lon="10.64465043701663"><ele>981.0</ele><time>2026-05-01T13:51:45.838Z</time></trkpt><trkpt lat="44.1802215319097" lon="10.644587889944317"><ele>980.0</ele><time>2026-05-01T13:51:46.838Z</time></trkpt><trkpt lat="44.18037968979888" lon="10.644596497093072"><ele>979.0</ele><time>2026-05-01T13:51:47.838Z</time></trkpt><trkpt lat="44.18051380725284" lon="10.64463515932667"><ele>978.0</ele><time>2026-05-01T13:51:48.838Z</time></trkpt><trkpt lat="44.18063494194955" lon="10.644697810465164"><ele>977.0</ele><time>2026-05-01T13:51:49.838Z</time></trkpt><trkpt lat="44.18074519703912" lon="10.64477755309995"><ele>977.0</ele><time>2026-05-01T13:51:50.838Z</time></trkpt><trkpt lat="44.18082018670334" lon="10.644913152877105"><ele>977.0</ele><time>2026-05-01T13:51:51.838Z</time></trkpt><trkpt lat="44.180896624015176" lon="10.645029074840783"><ele>977.0</ele><time>2026-05-01T13:51:52.838Z</time></trkpt><trkpt lat="44.180955139596634" lon="10.645146937195308"><ele>977.0</ele><time>2026-05-01T13:51:53.838Z</time></trkpt><trkpt lat="44.18104450803133" lon="10.645221440239029"><ele>977.0</ele><time>2026-05-01T13:51:54.838Z</time></trkpt><trkpt lat="44.18115112079119" lon="10.645258033898251"><ele>977.0</ele><time>2026-05-01T13:51:55.838Z</time></trkpt><trkpt lat="44.181266512652385" lon="10.645291565046604"><ele>977.0</ele><time>2026-05-01T13:51:56.838Z</time></trkpt><trkpt lat="44.18139014882004" lon="10.645325910435895"><ele>977.0</ele><time>2026-05-01T13:51:57.838Z</time></trkpt><trkpt lat="44.181521172964544" lon="10.645341910108815"><ele>977.0</ele><time>2026-05-01T13:51:58.838Z</time></trkpt><trkpt lat="44.18163679766578" lon="10.645368941795871"><ele>980.0</ele><time>2026-05-01T13:51:59.838Z</time></trkpt><trkpt lat="44.18175832913427" lon="10.645377191364085"><ele>983.0</ele><time>2026-05-01T13:52:00.838Z</time></trkpt><trkpt lat="44.18188432891719" lon="10.645351322060966"><ele>986.0</ele><time>2026-05-01T13:52:01.838Z</time></trkpt><trkpt lat="44.1820144452747" lon="10.645278983176526"><ele>989.0</ele><time>2026-05-01T13:52:02.838Z</time></trkpt><trkpt lat="44.18215499188837" lon="10.645229691703273"><ele>989.0</ele><time>2026-05-01T13:52:03.838Z</time></trkpt><trkpt lat="44.182293061639726" lon="10.645125281310726"><ele>989.0</ele><time>2026-05-01T13:52:04.838Z</time></trkpt><trkpt lat="44.18243346521611" lon="10.645010038253323"><ele>989.0</ele><time>2026-05-01T13:52:05.838Z</time></trkpt><trkpt lat="44.182576838859404" lon="10.644898540643254"><ele>986.6666666666667</ele><time>2026-05-01T13:52:06.838Z</time></trkpt><trkpt lat="44.18272683666047" lon="10.644784144801775"><ele>984.3333333333333</ele><time>2026-05-01T13:52:07.838Z</time></trkpt><trkpt lat="44.18287775487601" lon="10.644663235666345"><ele>982.0</ele><time>2026-05-01T13:52:08.838Z</time></trkpt><trkpt lat="44.18302326360182" lon="10.64456365655296"><ele>982.0</ele><time>2026-05-01T13:52:09.838Z</time></trkpt><trkpt lat="44.183150773438605" lon="10.644478421646307"><ele>982.0</ele><time>2026-05-01T13:52:10.838Z</time></trkpt><trkpt lat="44.1832481104637" lon="10.644440501367448"><ele>982.0</ele><time>2026-05-01T13:52:11.838Z</time></trkpt><trkpt lat="44.18333154907086" lon="10.644418276529239"><ele>982.0</ele><time>2026-05-01T13:52:12.838Z</time></trkpt><trkpt lat="44.18368022950745" lon="10.644252022896788"><ele>982.0</ele><time>2026-05-01T13:52:13.838Z</time></trkpt><trkpt lat="44.18385736103402" lon="10.644216923604079"><ele>982.0</ele><time>2026-05-01T13:52:14.838Z</time></trkpt><trkpt lat="44.18404053436508" lon="10.644207151933458"><ele>982.0</ele><time>2026-05-01T13:52:15.838Z</time></trkpt><trkpt lat="44.18421527852098" lon="10.644207259083958"><ele>980.6666666666666</ele><time>2026-05-01T13:52:16.838Z</time></trkpt><trkpt lat="44.18437876104067" lon="10.644222843578481"><ele>979.3333333333333</ele><time>2026-05-01T13:52:17.838Z</time></trkpt><trkpt lat="44.18453090289529" lon="10.644314563327862"><ele>978.0</ele><time>2026-05-01T13:52:18.838Z</time></trkpt><trkpt lat="44.18469028200701" lon="10.644381442104816"><ele>979.3333333333333</ele><time>2026-05-01T13:52:19.838Z</time></trkpt><trkpt lat="44.18484994107006" lon="10.644453325370089"><ele>980.6666666666666</ele><time>2026-05-01T13:52:20.838Z</time></trkpt><trkpt lat="44.18499441403564" lon="10.644518882841602"><ele>982.0</ele><time>2026-05-01T13:52:21.838Z</time></trkpt><trkpt lat="44.18514875911843" lon="10.644587451873585"><ele>975.0</ele><time>2026-05-01T13:52:22.838Z</time></trkpt><trkpt lat="44.1852852396999" lon="10.64463317798642"><ele>968.0</ele><time>2026-05-01T13:52:23.838Z</time></trkpt><trkpt lat="44.1854203285975" lon="10.644626700990036"><ele>961.0</ele><time>2026-05-01T13:52:24.838Z</time></trkpt><trkpt lat="44.18555863614674" lon="10.644635087996907"><ele>954.0</ele><time>2026-05-01T13:52:25.838Z</time></trkpt><trkpt lat="44.185705195001944" lon="10.644608805813775"><ele>954.0</ele><time>2026-05-01T13:52:26.838Z</time></trkpt><trkpt lat="44.1858775517449" lon="10.644560778662587"><ele>954.0</ele><time>2026-05-01T13:52:27.838Z</time></trkpt><trkpt lat="44.18603744483824" lon="10.64452385922145"><ele>954.0</ele><time>2026-05-01T13:52:28.838Z</time></trkpt><trkpt lat="44.18619844138395" lon="10.644490772959106"><ele>954.0</ele><time>2026-05-01T13:52:29.838Z</time></trkpt><trkpt lat="44.18636208737092" lon="10.64446775033948"><ele>954.0</ele><time>2026-05-01T13:52:30.838Z</time></trkpt><trkpt lat="44.18652822099279" lon="10.644453413160125"><ele>954.0</ele><time>2026-05-01T13:52:31.838Z</time></trkpt><trkpt lat="44.186690818944555" lon="10.644507844260602"><ele>952.3333333333333</ele><time>2026-05-01T13:52:32.838Z</time></trkpt><trkpt lat="44.18685231725407" lon="10.64452851380673"><ele>950.6666666666666</ele><time>2026-05-01T13:52:33.838Z</time></trkpt><trkpt lat="44.18700092929834" lon="10.644564945358672"><ele>949.0</ele><time>2026-05-01T13:52:34.838Z</time></trkpt><trkpt lat="44.18714847758685" lon="10.644602077236375"><ele>949.0</ele><time>2026-05-01T13:52:35.838Z</time></trkpt><trkpt lat="44.18728534376976" lon="10.644616888743373"><ele>949.0</ele><time>2026-05-01T13:52:36.838Z</time></trkpt><trkpt lat="44.18741197947117" lon="10.644581690896125"><ele>949.0</ele><time>2026-05-01T13:52:37.838Z</time></trkpt><trkpt lat="44.18753976490453" lon="10.644501437096132"><ele>949.0</ele><time>2026-05-01T13:52:38.838Z</time></trkpt><trkpt lat="44.18765735199779" lon="10.644399669059887"><ele>956.3333333333333</ele><time>2026-05-01T13:52:39.838Z</time></trkpt><trkpt lat="44.18777432873714" lon="10.644270625754793"><ele>963.6666666666667</ele><time>2026-05-01T13:52:40.838Z</time></trkpt><trkpt lat="44.1878897468863" lon="10.644140346915911"><ele>971.0</ele><time>2026-05-01T13:52:41.838Z</time></trkpt><trkpt lat="44.18801181527002" lon="10.644003402685037"><ele>971.0</ele><time>2026-05-01T13:52:42.838Z</time></trkpt><trkpt lat="44.188129026057794" lon="10.643878253088685"><ele>971.0</ele><time>2026-05-01T13:52:43.838Z</time></trkpt><trkpt lat="44.18822993976283" lon="10.643760112757002"><ele>971.0</ele><time>2026-05-01T13:52:44.838Z</time></trkpt><trkpt lat="44.18832065978617" lon="10.643621855523193"><ele>971.0</ele><time>2026-05-01T13:52:45.838Z</time></trkpt><trkpt lat="44.18839221475383" lon="10.643451300830657"><ele>968.3333333333334</ele><time>2026-05-01T13:52:46.837Z</time></trkpt><trkpt lat="44.1884623064386" lon="10.643241000359534"><ele>965.6666666666667</ele><time>2026-05-01T13:52:47.837Z</time></trkpt><trkpt lat="44.1885553329507" lon="10.643030839082765"><ele>963.0</ele><time>2026-05-01T13:52:48.837Z</time></trkpt><trkpt lat="44.18865661463782" lon="10.642833079440654"><ele>967.0</ele><time>2026-05-01T13:52:49.837Z</time></trkpt><trkpt lat="44.18878414536284" lon="10.642677723184025"><ele>971.0</ele><time>2026-05-01T13:52:50.837Z</time></trkpt><trkpt lat="44.18889805383304" lon="10.642507518062782"><ele>975.0</ele><time>2026-05-01T13:52:51.837Z</time></trkpt><trkpt lat="44.189020082821244" lon="10.642369949418992"><ele>967.5</ele><time>2026-05-01T13:52:52.837Z</time></trkpt><trkpt lat="44.18911498801005" lon="10.642243977954008"><ele>960.0</ele><time>2026-05-01T13:52:53.837Z</time></trkpt><trkpt lat="44.189174186996105" lon="10.642111489024106"><ele>952.5</ele><time>2026-05-01T13:52:54.837Z</time></trkpt><trkpt lat="44.18918950574187" lon="10.641934954367592"><ele>945.0</ele><time>2026-05-01T13:52:55.837Z</time></trkpt><trkpt lat="44.18915798256464" lon="10.641752308977848"><ele>944.75</ele><time>2026-05-01T13:52:56.837Z</time></trkpt><trkpt lat="44.189100218581174" lon="10.641581635693303"><ele>944.5</ele><time>2026-05-01T13:52:57.837Z</time></trkpt><trkpt lat="44.18901759504649" lon="10.641417058174934"><ele>944.25</ele><time>2026-05-01T13:52:58.837Z</time></trkpt><trkpt lat="44.18891157293117" lon="10.641282682403968"><ele>944.0</ele><time>2026-05-01T13:52:59.838Z</time></trkpt><trkpt lat="44.18880955259796" lon="10.641155345154502"><ele>949.0</ele><time>2026-05-01T13:53:00.838Z</time></trkpt><trkpt lat="44.188716943956585" lon="10.641001271616263"><ele>954.0</ele><time>2026-05-01T13:53:01.838Z</time></trkpt><trkpt lat="44.18861068358279" lon="10.640822314953793"><ele>959.0</ele><time>2026-05-01T13:53:02.838Z</time></trkpt><trkpt lat="44.18852514424722" lon="10.640607643287124"><ele>959.0</ele><time>2026-05-01T13:53:03.838Z</time></trkpt><trkpt lat="44.18845659604463" lon="10.640385657009787"><ele>959.0</ele><time>2026-05-01T13:53:04.838Z</time></trkpt><trkpt lat="44.18840314258624" lon="10.640142075906011"><ele>959.0</ele><time>2026-05-01T13:53:05.838Z</time></trkpt><trkpt lat="44.18837491312436" lon="10.639928685737878"><ele>955.3333333333334</ele><time>2026-05-01T13:53:06.838Z</time></trkpt><trkpt lat="44.18838553782505" lon="10.639736051286558"><ele>951.6666666666667</ele><time>2026-05-01T13:53:07.838Z</time></trkpt><trkpt lat="44.18842364730293" lon="10.639511061823296"><ele>948.0</ele><time>2026-05-01T13:53:08.838Z</time></trkpt><trkpt lat="44.18844924685101" lon="10.639256559303766"><ele>947.25</ele><time>2026-05-01T13:53:09.838Z</time></trkpt><trkpt lat="44.18842113520456" lon="10.639013798038313"><ele>946.5</ele><time>2026-05-01T13:53:10.838Z</time></trkpt><trkpt lat="44.188442490166494" lon="10.638817651273758"><ele>945.75</ele><time>2026-05-01T13:53:11.837Z</time></trkpt><trkpt lat="44.188473509456955" lon="10.638658865454612"><ele>945.0</ele><time>2026-05-01T13:53:12.838Z</time></trkpt><trkpt lat="44.18853494694907" lon="10.638530759564839"><ele>948.0</ele><time>2026-05-01T13:53:13.838Z</time></trkpt><trkpt lat="44.188627993814755" lon="10.638407461697732"><ele>951.0</ele><time>2026-05-01T13:53:14.838Z</time></trkpt><trkpt lat="44.18878158204666" lon="10.638333200998874"><ele>954.0</ele><time>2026-05-01T13:53:15.838Z</time></trkpt><trkpt lat="44.188941586679526" lon="10.638261210816173"><ele>943.3333333333333</ele><time>2026-05-01T13:53:16.838Z</time></trkpt><trkpt lat="44.18909021984573" lon="10.638173580403704"><ele>932.6666666666666</ele><time>2026-05-01T13:53:17.838Z</time></trkpt><trkpt lat="44.18923837950825" lon="10.638068701964912"><ele>922.0</ele><time>2026-05-01T13:53:18.838Z</time></trkpt><trkpt lat="44.18937865911095" lon="10.637960621532809"><ele>922.0</ele><time>2026-05-01T13:53:19.838Z</time></trkpt><trkpt lat="44.18949532296904" lon="10.637830987544799"><ele>922.0</ele><time>2026-05-01T13:53:20.838Z</time></trkpt><trkpt lat="44.18958620699102" lon="10.637687989900483"><ele>922.0</ele><time>2026-05-01T13:53:21.838Z</time></trkpt><trkpt lat="44.189646516688434" lon="10.6375239879363"><ele>922.0</ele><time>2026-05-01T13:53:22.838Z</time></trkpt><trkpt lat="44.18966896735212" lon="10.637332974870526"><ele>928.6666666666666</ele><time>2026-05-01T13:53:23.838Z</time></trkpt><trkpt lat="44.18970502856989" lon="10.637134906818604"><ele>935.3333333333333</ele><time>2026-05-01T13:53:24.838Z</time></trkpt><trkpt lat="44.18973741399439" lon="10.636921298157688"><ele>942.0</ele><time>2026-05-01T13:53:25.838Z</time></trkpt><trkpt lat="44.18974133734193" lon="10.636682412171913"><ele>944.3333333333333</ele><time>2026-05-01T13:53:26.838Z</time></trkpt><trkpt lat="44.18975489530082" lon="10.636435420659875"><ele>946.6666666666666</ele><time>2026-05-01T13:53:27.838Z</time></trkpt><trkpt lat="44.189782101151565" lon="10.636188465982311"><ele>949.0</ele><time>2026-05-01T13:53:28.838Z</time></trkpt><trkpt lat="44.189793421821484" lon="10.635923909000937"><ele>949.0</ele><time>2026-05-01T13:53:29.838Z</time></trkpt><trkpt lat="44.189830075156124" lon="10.635654196126918"><ele>949.0</ele><time>2026-05-01T13:53:30.838Z</time></trkpt><trkpt lat="44.18987271987812" lon="10.635395365894833"><ele>949.0</ele><time>2026-05-01T13:53:31.838Z</time></trkpt><trkpt lat="44.1899014570133" lon="10.635149456991787"><ele>935.0</ele><time>2026-05-01T13:53:32.838Z</time></trkpt><trkpt lat="44.18992063723004" lon="10.63492032428481"><ele>921.0</ele><time>2026-05-01T13:53:33.838Z</time></trkpt><trkpt lat="44.18993553035541" lon="10.634697934314953"><ele>907.0</ele><time>2026-05-01T13:53:34.838Z</time></trkpt><trkpt lat="44.189936338812224" lon="10.634469116450754"><ele>904.6666666666666</ele><time>2026-05-01T13:53:35.838Z</time></trkpt><trkpt lat="44.18991525105182" lon="10.634233369302097"><ele>902.3333333333333</ele><time>2026-05-01T13:53:36.838Z</time></trkpt><trkpt lat="44.1898769610746" lon="10.633985592271905"><ele>900.0</ele><time>2026-05-01T13:53:37.838Z</time></trkpt><trkpt lat="44.18985875332374" lon="10.633738849206326"><ele>900.6666666666667</ele><time>2026-05-01T13:53:38.838Z</time></trkpt><trkpt lat="44.18987637882784" lon="10.633489714464464"><ele>901.3333333333334</ele><time>2026-05-01T13:53:39.837Z</time></trkpt><trkpt lat="44.18988111668368" lon="10.633270851427639"><ele>902.0</ele><time>2026-05-01T13:53:40.837Z</time></trkpt><trkpt lat="44.189909591499635" lon="10.63307088131872"><ele>902.0</ele><time>2026-05-01T13:53:41.837Z</time></trkpt><trkpt lat="44.189952771725984" lon="10.632870263567131"><ele>902.0</ele><time>2026-05-01T13:53:42.837Z</time></trkpt><trkpt lat="44.1899942526892" lon="10.632659000561375"><ele>902.0</ele><time>2026-05-01T13:53:43.837Z</time></trkpt><trkpt lat="44.19005520411195" lon="10.632455321580741"><ele>905.0</ele><time>2026-05-01T13:53:44.837Z</time></trkpt><trkpt lat="44.1901353758313" lon="10.632281865788453"><ele>908.0</ele><time>2026-05-01T13:53:45.838Z</time></trkpt><trkpt lat="44.19025909371599" lon="10.632150065913423"><ele>911.0</ele><time>2026-05-01T13:53:46.84Z</time></trkpt><trkpt lat="44.19037830029701" lon="10.632013657099616"><ele>912.25</ele><time>2026-05-01T13:53:47.842Z</time></trkpt><trkpt lat="44.19049829895673" lon="10.631859169906667"><ele>913.5</ele><time>2026-05-01T13:53:48.844Z</time></trkpt><trkpt lat="44.19059441568113" lon="10.631722384987121"><ele>914.75</ele><time>2026-05-01T13:53:49.845Z</time></trkpt><trkpt lat="44.19068349246138" lon="10.631603228410086"><ele>916.0</ele><time>2026-05-01T13:53:50.847Z</time></trkpt><trkpt lat="44.19074325769559" lon="10.63148767141748"><ele>909.0</ele><time>2026-05-01T13:53:51.848Z</time></trkpt><trkpt lat="44.19076311014635" lon="10.631347301639012"><ele>902.0</ele><time>2026-05-01T13:53:52.849Z</time></trkpt><trkpt lat="44.1907509209773" lon="10.631174065926789"><ele>895.0</ele><time>2026-05-01T13:53:53.851Z</time></trkpt><trkpt lat="44.190731911878075" lon="10.630979432051618"><ele>888.0</ele><time>2026-05-01T13:53:54.852Z</time></trkpt><trkpt lat="44.19080282433193" lon="10.630794886308708"><ele>888.0</ele><time>2026-05-01T13:53:55.853Z</time></trkpt><trkpt lat="44.19086635917791" lon="10.630601781184454"><ele>888.0</ele><time>2026-05-01T13:53:56.854Z</time></trkpt><trkpt lat="44.19089412365195" lon="10.630426491837927"><ele>888.0</ele><time>2026-05-01T13:53:57.855Z</time></trkpt><trkpt lat="44.19085921039672" lon="10.630233777766348"><ele>888.0</ele><time>2026-05-01T13:53:58.856Z</time></trkpt><trkpt lat="44.19082066340642" lon="10.630053020599068"><ele>887.75</ele><time>2026-05-01T13:53:59.856Z</time></trkpt><trkpt lat="44.190798245865835" lon="10.629864201757522"><ele>887.5</ele><time>2026-05-01T13:54:00.857Z</time></trkpt><trkpt lat="44.19080740889403" lon="10.629688669639899"><ele>887.25</ele><time>2026-05-01T13:54:01.858Z</time></trkpt><trkpt lat="44.19091598275618" lon="10.629531445032695"><ele>887.0</ele><time>2026-05-01T13:54:02.859Z</time></trkpt><trkpt lat="44.19100773811412" lon="10.629321650167066"><ele>886.0</ele><time>2026-05-01T13:54:03.859Z</time></trkpt><trkpt lat="44.19109832841346" lon="10.629121290000777"><ele>885.0</ele><time>2026-05-01T13:54:04.86Z</time></trkpt><trkpt lat="44.19116949408353" lon="10.628927368114889"><ele>884.0</ele><time>2026-05-01T13:54:05.86Z</time></trkpt><trkpt lat="44.19119469770417" lon="10.628712468859172"><ele>885.3333333333334</ele><time>2026-05-01T13:54:06.861Z</time></trkpt><trkpt lat="44.191221133461994" lon="10.628485393764985"><ele>886.6666666666667</ele><time>2026-05-01T13:54:07.862Z</time></trkpt><trkpt lat="44.19126379878074" lon="10.628269107573919"><ele>888.0</ele><time>2026-05-01T13:54:08.862Z</time></trkpt><trkpt lat="44.19130506831554" lon="10.628051805842297"><ele>888.0</ele><time>2026-05-01T13:54:09.862Z</time></trkpt><trkpt lat="44.19137461844529" lon="10.627841573127075"><ele>888.0</ele><time>2026-05-01T13:54:10.863Z</time></trkpt><trkpt lat="44.19144262967608" lon="10.62763266650461"><ele>888.0</ele><time>2026-05-01T13:54:11.863Z</time></trkpt><trkpt lat="44.19146802674406" lon="10.627381435740867"><ele>887.0</ele><time>2026-05-01T13:54:12.864Z</time></trkpt><trkpt lat="44.19149753794195" lon="10.627125687004286"><ele>886.0</ele><time>2026-05-01T13:54:13.864Z</time></trkpt><trkpt lat="44.19150119365686" lon="10.626889329198162"><ele>885.0</ele><time>2026-05-01T13:54:14.864Z</time></trkpt><trkpt lat="44.191486744397125" lon="10.62666298654666"><ele>882.5</ele><time>2026-05-01T13:54:15.864Z</time></trkpt><trkpt lat="44.19145611887038" lon="10.626447153586776"><ele>880.0</ele><time>2026-05-01T13:54:16.865Z</time></trkpt><trkpt lat="44.19140908894611" lon="10.626262842173642"><ele>877.5</ele><time>2026-05-01T13:54:17.865Z</time></trkpt><trkpt lat="44.19135757120261" lon="10.626108064136737"><ele>875.0</ele><time>2026-05-01T13:54:18.865Z</time></trkpt><trkpt lat="44.19133596180489" lon="10.625974985490352"><ele>873.6</ele><time>2026-05-01T13:54:19.865Z</time></trkpt><trkpt lat="44.19131722440312" lon="10.625842136403904"><ele>872.2</ele><time>2026-05-01T13:54:20.866Z</time></trkpt><trkpt lat="44.19135973135966" lon="10.62572044503181"><ele>870.8</ele><time>2026-05-01T13:54:21.866Z</time></trkpt><trkpt lat="44.19145387373565" lon="10.625627474469034"><ele>869.4</ele><time>2026-05-01T13:54:22.866Z</time></trkpt><trkpt lat="44.19158123379545" lon="10.625562173716688"><ele>868.0</ele><time>2026-05-01T13:54:23.866Z</time></trkpt><trkpt lat="44.19173483535309" lon="10.625497339553382"><ele>867.0</ele><time>2026-05-01T13:54:24.866Z</time></trkpt><trkpt lat="44.19187425732137" lon="10.62541217904639"><ele>866.0</ele><time>2026-05-01T13:54:25.867Z</time></trkpt><trkpt lat="44.19201755817146" lon="10.625328179908426"><ele>865.0</ele><time>2026-05-01T13:54:26.867Z</time></trkpt><trkpt lat="44.1921769930581" lon="10.625280772606972"><ele>862.6666666666666</ele><time>2026-05-01T13:54:27.867Z</time></trkpt><trkpt lat="44.19234695135994" lon="10.625265272174408"><ele>860.3333333333333</ele><time>2026-05-01T13:54:28.867Z</time></trkpt><trkpt lat="44.19252728160927" lon="10.625267972690503"><ele>858.0</ele><time>2026-05-01T13:54:29.867Z</time></trkpt><trkpt lat="44.19270690290802" lon="10.625257049518522"><ele>858.0</ele><time>2026-05-01T13:54:30.867Z</time></trkpt><trkpt lat="44.19288255939703" lon="10.625235354011064"><ele>858.0</ele><time>2026-05-01T13:54:31.867Z</time></trkpt><trkpt lat="44.193035089642024" lon="10.6252161830279"><ele>858.0</ele><time>2026-05-01T13:54:32.867Z</time></trkpt><trkpt lat="44.19317656255051" lon="10.625195582546828"><ele>854.2</ele><time>2026-05-01T13:54:33.867Z</time></trkpt><trkpt lat="44.193288334613285" lon="10.625170149521704"><ele>850.4</ele><time>2026-05-01T13:54:34.868Z</time></trkpt><trkpt lat="44.19337538205064" lon="10.625138219802654"><ele>846.6</ele><time>2026-05-01T13:54:35.868Z</time></trkpt><trkpt lat="44.193438442636214" lon="10.625066133501946"><ele>842.8000000000001</ele><time>2026-05-01T13:54:36.868Z</time></trkpt><trkpt lat="44.19346601506941" lon="10.624952346439017"><ele>839.0</ele><time>2026-05-01T13:54:37.868Z</time></trkpt><trkpt lat="44.19345357421009" lon="10.624800323002717"><ele>839.0</ele><time>2026-05-01T13:54:38.868Z</time></trkpt><trkpt lat="44.193413676094195" lon="10.62462626111843"><ele>839.0</ele><time>2026-05-01T13:54:39.868Z</time></trkpt><trkpt lat="44.19334878556492" lon="10.62444403154759"><ele>839.0</ele><time>2026-05-01T13:54:40.868Z</time></trkpt><trkpt lat="44.193300160139806" lon="10.624272609349543"><ele>839.0</ele><time>2026-05-01T13:54:41.868Z</time></trkpt><trkpt lat="44.19327028797537" lon="10.624143990663564"><ele>839.6</ele><time>2026-05-01T13:54:42.868Z</time></trkpt><trkpt lat="44.19326700337367" lon="10.62403167161866"><ele>840.2</ele><time>2026-05-01T13:54:43.868Z</time></trkpt><trkpt lat="44.19330396772725" lon="10.623930851621406"><ele>840.8000000000001</ele><time>2026-05-01T13:54:44.868Z</time></trkpt><trkpt lat="44.193392192477404" lon="10.623842084481717"><ele>841.4000000000001</ele><time>2026-05-01T13:54:45.868Z</time></trkpt><trkpt lat="44.193516908113295" lon="10.623785077701818"><ele>842.0</ele><time>2026-05-01T13:54:46.868Z</time></trkpt><trkpt lat="44.193640087798656" lon="10.623729838850934"><ele>846.25</ele><time>2026-05-01T13:54:47.868Z</time></trkpt><trkpt lat="44.19373697007421" lon="10.62363790551255"><ele>850.5</ele><time>2026-05-01T13:54:48.868Z</time></trkpt><trkpt lat="44.19380434814394" lon="10.623523729417"><ele>854.75</ele><time>2026-05-01T13:54:49.868Z</time></trkpt><trkpt lat="44.19386590317229" lon="10.623378748152469"><ele>859.0</ele><time>2026-05-01T13:54:50.868Z</time></trkpt><trkpt lat="44.19394695179916" lon="10.62324847196415"><ele>850.5</ele><time>2026-05-01T13:54:51.868Z</time></trkpt><trkpt lat="44.19405988861492" lon="10.623165622936288"><ele>842.0</ele><time>2026-05-01T13:54:52.868Z</time></trkpt><trkpt lat="44.194187944074095" lon="10.623120565237627"><ele>833.5</ele><time>2026-05-01T13:54:53.868Z</time></trkpt><trkpt lat="44.19432927477642" lon="10.62312739636052"><ele>825.0</ele><time>2026-05-01T13:54:54.868Z</time></trkpt><trkpt lat="44.19446762089913" lon="10.623170768331216"><ele>825.0</ele><time>2026-05-01T13:54:55.868Z</time></trkpt><trkpt lat="44.19458276536966" lon="10.62317323832963"><ele>825.0</ele><time>2026-05-01T13:54:56.868Z</time></trkpt><trkpt lat="44.19469445293536" lon="10.623144370451655"><ele>825.0</ele><time>2026-05-01T13:54:57.868Z</time></trkpt><trkpt lat="44.19478333513468" lon="10.6230658654318"><ele>825.0</ele><time>2026-05-01T13:54:58.868Z</time></trkpt><trkpt lat="44.19484558607661" lon="10.622948088689627"><ele>825.0</ele><time>2026-05-01T13:54:59.868Z</time></trkpt><trkpt lat="44.194900068876535" lon="10.622793271917411"><ele>822.0</ele><time>2026-05-01T13:55:00.868Z</time></trkpt><trkpt lat="44.19496178948583" lon="10.622619112279635"><ele>819.0</ele><time>2026-05-01T13:55:01.868Z</time></trkpt><trkpt lat="44.19501818332854" lon="10.622449705216544"><ele>816.0</ele><time>2026-05-01T13:55:02.868Z</time></trkpt><trkpt lat="44.195077607268615" lon="10.622304400853732"><ele>813.0</ele><time>2026-05-01T13:55:03.868Z</time></trkpt><trkpt lat="44.19515740520867" lon="10.622163622008458"><ele>813.0</ele><time>2026-05-01T13:55:04.868Z</time></trkpt><trkpt lat="44.19525950288444" lon="10.62203135837199"><ele>813.0</ele><time>2026-05-01T13:55:05.869Z</time></trkpt><trkpt lat="44.195345454586324" lon="10.621905065438416"><ele>813.0</ele><time>2026-05-01T13:55:06.868Z</time></trkpt><trkpt lat="44.19542490433045" lon="10.621789526614648"><ele>813.0</ele><time>2026-05-01T13:55:07.868Z</time></trkpt><trkpt lat="44.19548556892329" lon="10.621681298472147"><ele>814.5</ele><time>2026-05-01T13:55:08.868Z</time></trkpt><trkpt lat="44.19551769430645" lon="10.62159249332362"><ele>816.0</ele><time>2026-05-01T13:55:09.868Z</time></trkpt><trkpt lat="44.19551829985336" lon="10.621452640017479"><ele>817.5</ele><time>2026-05-01T13:55:10.868Z</time></trkpt><trkpt lat="44.19541158250507" lon="10.62128921546338"><ele>819.0</ele><time>2026-05-01T13:55:11.868Z</time></trkpt><trkpt lat="44.19529581526067" lon="10.621205667938076"><ele>815.0</ele><time>2026-05-01T13:55:12.868Z</time></trkpt><trkpt lat="44.19514559663781" lon="10.621148111222157"><ele>811.0</ele><time>2026-05-01T13:55:13.868Z</time></trkpt><trkpt lat="44.19505920961774" lon="10.621101937955201"><ele>807.0</ele><time>2026-05-01T13:55:14.869Z</time></trkpt><trkpt lat="44.195109022614126" lon="10.620856868216643"><ele>803.0</ele><time>2026-05-01T13:55:15.868Z</time></trkpt><trkpt lat="44.195033628337306" lon="10.62069257680284"><ele>803.0</ele><time>2026-05-01T13:55:16.868Z</time></trkpt><trkpt lat="44.194958575898994" lon="10.620541780408699"><ele>803.0</ele><time>2026-05-01T13:55:17.868Z</time></trkpt><trkpt lat="44.194902608984556" lon="10.620386324968445"><ele>803.0</ele><time>2026-05-01T13:55:18.868Z</time></trkpt><trkpt lat="44.194923870678885" lon="10.62021619663728"><ele>803.0</ele><time>2026-05-01T13:55:19.868Z</time></trkpt><trkpt lat="44.194916767820125" lon="10.62003905182931"><ele>801.25</ele><time>2026-05-01T13:55:20.868Z</time></trkpt><trkpt lat="44.194900877233174" lon="10.61985091180993"><ele>799.5</ele><time>2026-05-01T13:55:21.868Z</time></trkpt><trkpt lat="44.194882479220404" lon="10.61966840029458"><ele>797.75</ele><time>2026-05-01T13:55:22.868Z</time></trkpt><trkpt lat="44.194861425335844" lon="10.619495095485735"><ele>796.0</ele><time>2026-05-01T13:55:23.868Z</time></trkpt><trkpt lat="44.194848187935776" lon="10.619325020717655"><ele>794.25</ele><time>2026-05-01T13:55:24.868Z</time></trkpt><trkpt lat="44.194848428924516" lon="10.619161113508365"><ele>792.5</ele><time>2026-05-01T13:55:25.868Z</time></trkpt><trkpt lat="44.194859332378556" lon="10.618989867141519"><ele>790.75</ele><time>2026-05-01T13:55:26.868Z</time></trkpt><trkpt lat="44.19489565875303" lon="10.618812365440995"><ele>789.0</ele><time>2026-05-01T13:55:27.868Z</time></trkpt><trkpt lat="44.19498620197032" lon="10.61867128552226"><ele>785.6666666666667</ele><time>2026-05-01T13:55:28.868Z</time></trkpt><trkpt lat="44.195073793538526" lon="10.618489716415176"><ele>782.3333333333334</ele><time>2026-05-01T13:55:29.868Z</time></trkpt><trkpt lat="44.195164502546355" lon="10.618305552057313"><ele>779.0</ele><time>2026-05-01T13:55:30.868Z</time></trkpt><trkpt lat="44.195248405436324" lon="10.618135980386104"><ele>779.0</ele><time>2026-05-01T13:55:31.868Z</time></trkpt><trkpt lat="44.19532725786717" lon="10.617975872275947"><ele>779.0</ele><time>2026-05-01T13:55:32.868Z</time></trkpt><trkpt lat="44.19540194616499" lon="10.617822047644724"><ele>779.0</ele><time>2026-05-01T13:55:33.868Z</time></trkpt><trkpt lat="44.19546607666878" lon="10.617677152019914"><ele>779.0</ele><time>2026-05-01T13:55:34.868Z</time></trkpt><trkpt lat="44.19553078944713" lon="10.617555742311085"><ele>779.0</ele><time>2026-05-01T13:55:35.868Z</time></trkpt><trkpt lat="44.19559808734167" lon="10.617474239411422"><ele>779.0</ele><time>2026-05-01T13:55:36.868Z</time></trkpt><trkpt lat="44.19568652318963" lon="10.617454548849851"><ele>779.0</ele><time>2026-05-01T13:55:37.868Z</time></trkpt><trkpt lat="44.19578366291141" lon="10.617509329758056"><ele>779.0</ele><time>2026-05-01T13:55:38.868Z</time></trkpt><trkpt lat="44.19587744018186" lon="10.617615536864685"><ele>779.0</ele><time>2026-05-01T13:55:39.868Z</time></trkpt><trkpt lat="44.196002306493526" lon="10.617722272737225"><ele>777.3333333333334</ele><time>2026-05-01T13:55:40.868Z</time></trkpt><trkpt lat="44.19613531385443" lon="10.617845662701692"><ele>775.6666666666667</ele><time>2026-05-01T13:55:41.868Z</time></trkpt><trkpt lat="44.196281637406386" lon="10.617974372827199"><ele>774.0</ele><time>2026-05-01T13:55:42.868Z</time></trkpt><trkpt lat="44.19643978735107" lon="10.618125025423552"><ele>779.0</ele><time>2026-05-01T13:55:43.868Z</time></trkpt><trkpt lat="44.19660626127025" lon="10.61825119023318"><ele>784.0</ele><time>2026-05-01T13:55:44.868Z</time></trkpt><trkpt lat="44.19674616927735" lon="10.61837960691125"><ele>789.0</ele><time>2026-05-01T13:55:45.868Z</time></trkpt><trkpt lat="44.19686658654844" lon="10.61852134444954"><ele>783.0</ele><time>2026-05-01T13:55:46.868Z</time></trkpt><trkpt lat="44.19696560204478" lon="10.618690092695406"><ele>777.0</ele><time>2026-05-01T13:55:47.868Z</time></trkpt><trkpt lat="44.1970579888167" lon="10.61887641598906"><ele>771.0</ele><time>2026-05-01T13:55:48.868Z</time></trkpt><trkpt lat="44.19715335731884" lon="10.619037243062687"><ele>771.0</ele><time>2026-05-01T13:55:49.868Z</time></trkpt><trkpt lat="44.19724853857998" lon="10.619155001048751"><ele>771.0</ele><time>2026-05-01T13:55:50.868Z</time></trkpt><trkpt lat="44.19736669966691" lon="10.619276735196095"><ele>771.0</ele><time>2026-05-01T13:55:51.868Z</time></trkpt><trkpt lat="44.19748149592619" lon="10.619394788849258"><ele>771.0</ele><time>2026-05-01T13:55:52.868Z</time></trkpt><trkpt lat="44.19759526917484" lon="10.619505580887006"><ele>770.25</ele><time>2026-05-01T13:55:53.868Z</time></trkpt><trkpt lat="44.197714270547976" lon="10.619612315486131"><ele>769.5</ele><time>2026-05-01T13:55:54.868Z</time></trkpt><trkpt lat="44.19784016717992" lon="10.619711371308473"><ele>768.75</ele><time>2026-05-01T13:55:55.868Z</time></trkpt><trkpt lat="44.19796240040734" lon="10.619761883799217"><ele>768.0</ele><time>2026-05-01T13:55:56.868Z</time></trkpt><trkpt lat="44.19808929795315" lon="10.619770754300419"><ele>768.25</ele><time>2026-05-01T13:55:57.868Z</time></trkpt><trkpt lat="44.198199094784485" lon="10.619736487599095"><ele>768.5</ele><time>2026-05-01T13:55:58.868Z</time></trkpt><trkpt lat="44.19832639302739" lon="10.619666231890703"><ele>768.75</ele><time>2026-05-01T13:55:59.868Z</time></trkpt><trkpt lat="44.19844994231577" lon="10.61959477512399"><ele>769.0</ele><time>2026-05-01T13:56:00.868Z</time></trkpt><trkpt lat="44.198575487157804" lon="10.619549710205849"><ele>769.0</ele><time>2026-05-01T13:56:01.868Z</time></trkpt><trkpt lat="44.19868939918039" lon="10.619540716115544"><ele>769.0</ele><time>2026-05-01T13:56:02.868Z</time></trkpt><trkpt lat="44.19879302240965" lon="10.619536505244897"><ele>769.0</ele><time>2026-05-01T13:56:03.868Z</time></trkpt><trkpt lat="44.19889497158005" lon="10.619479139003957"><ele>769.0</ele><time>2026-05-01T13:56:04.868Z</time></trkpt><trkpt lat="44.198977206850614" lon="10.619353691255757"><ele>772.0</ele><time>2026-05-01T13:56:05.868Z</time></trkpt><trkpt lat="44.199089738418515" lon="10.619200302192507"><ele>775.0</ele><time>2026-05-01T13:56:06.868Z</time></trkpt><trkpt lat="44.19922143545458" lon="10.61902526506183"><ele>778.0</ele><time>2026-05-01T13:56:07.868Z</time></trkpt><trkpt lat="44.19936377094317" lon="10.618883079890809"><ele>778.0</ele><time>2026-05-01T13:56:08.868Z</time></trkpt><trkpt lat="44.19953313618491" lon="10.61879193745463"><ele>778.0</ele><time>2026-05-01T13:56:09.868Z</time></trkpt><trkpt lat="44.199690354838836" lon="10.618660740414423"><ele>778.0</ele><time>2026-05-01T13:56:10.868Z</time></trkpt><trkpt lat="44.19984270807145" lon="10.618561980251034"><ele>778.6666666666666</ele><time>2026-05-01T13:56:11.868Z</time></trkpt><trkpt lat="44.19997433720181" lon="10.61844786752844"><ele>779.3333333333333</ele><time>2026-05-01T13:56:12.868Z</time></trkpt><trkpt lat="44.200101353192345" lon="10.618338020589905"><ele>780.0</ele><time>2026-05-01T13:56:13.868Z</time></trkpt><trkpt lat="44.200246182657004" lon="10.618249114840824"><ele>780.0</ele><time>2026-05-01T13:56:14.868Z</time></trkpt><trkpt lat="44.20040303766041" lon="10.618220451514038"><ele>780.0</ele><time>2026-05-01T13:56:15.868Z</time></trkpt><trkpt lat="44.200545766622604" lon="10.618191285160231"><ele>780.0</ele><time>2026-05-01T13:56:16.868Z</time></trkpt><trkpt lat="44.20067676104922" lon="10.618185276441148"><ele>780.0</ele><time>2026-05-01T13:56:17.868Z</time></trkpt><trkpt lat="44.20078851894221" lon="10.618137870802824"><ele>779.5</ele><time>2026-05-01T13:56:18.868Z</time></trkpt><trkpt lat="44.20087051825021" lon="10.618036491129015"><ele>779.0</ele><time>2026-05-01T13:56:19.868Z</time></trkpt><trkpt lat="44.20091556106135" lon="10.61790767811742"><ele>778.5</ele><time>2026-05-01T13:56:20.868Z</time></trkpt><trkpt lat="44.200944396648886" lon="10.61776111901314"><ele>778.0</ele><time>2026-05-01T13:56:21.868Z</time></trkpt><trkpt lat="44.20089529446053" lon="10.617577387026722"><ele>777.75</ele><time>2026-05-01T13:56:22.868Z</time></trkpt><trkpt lat="44.200836892868594" lon="10.617412822361803"><ele>777.5</ele><time>2026-05-01T13:56:23.868Z</time></trkpt><trkpt lat="44.200757868450474" lon="10.617254920864246"><ele>777.25</ele><time>2026-05-01T13:56:24.868Z</time></trkpt><trkpt lat="44.2006989362705" lon="10.617110958436086"><ele>777.0</ele><time>2026-05-01T13:56:25.868Z</time></trkpt><trkpt lat="44.20067570618863" lon="10.616954922659913"><ele>776.0</ele><time>2026-05-01T13:56:26.868Z</time></trkpt><trkpt lat="44.200716715571005" lon="10.61678182496584"><ele>775.0</ele><time>2026-05-01T13:56:27.868Z</time></trkpt><trkpt lat="44.20077491969261" lon="10.616602832467423"><ele>774.0</ele><time>2026-05-01T13:56:28.868Z</time></trkpt><trkpt lat="44.20081461744386" lon="10.616407165839844"><ele>773.0</ele><time>2026-05-01T13:56:29.868Z</time></trkpt><trkpt lat="44.20088230307215" lon="10.61622416044975"><ele>774.0</ele><time>2026-05-01T13:56:30.868Z</time></trkpt><trkpt lat="44.20093255673121" lon="10.616040651867507"><ele>775.0</ele><time>2026-05-01T13:56:31.868Z</time></trkpt><trkpt lat="44.20097819458372" lon="10.615869104774273"><ele>776.0</ele><time>2026-05-01T13:56:32.868Z</time></trkpt><trkpt lat="44.201024444681956" lon="10.615709508485935"><ele>777.0</ele><time>2026-05-01T13:56:33.868Z</time></trkpt><trkpt lat="44.20106576195587" lon="10.61557115056621"><ele>777.0</ele><time>2026-05-01T13:56:34.868Z</time></trkpt><trkpt lat="44.20110036634941" lon="10.615459772897623"><ele>777.0</ele><time>2026-05-01T13:56:35.868Z</time></trkpt><trkpt lat="44.20113142389939" lon="10.61537438250917"><ele>777.0</ele><time>2026-05-01T13:56:36.868Z</time></trkpt><trkpt lat="44.20117040785025" lon="10.615251761728972"><ele>777.0</ele><time>2026-05-01T13:56:38.868Z</time></trkpt><trkpt lat="44.2010621945515" lon="10.615137232414368"><ele>777.0</ele><time>2026-05-01T13:56:39.868Z</time></trkpt><trkpt lat="44.20098477081869" lon="10.6149888059097"><ele>778.0</ele><time>2026-05-01T13:56:40.868Z</time></trkpt><trkpt lat="44.200917214370044" lon="10.614798886697512"><ele>779.0</ele><time>2026-05-01T13:56:41.868Z</time></trkpt><trkpt lat="44.200853701581494" lon="10.614566593443088"><ele>780.0</ele><time>2026-05-01T13:56:42.868Z</time></trkpt><trkpt lat="44.200796209911196" lon="10.6143385476329"><ele>780.0</ele><time>2026-05-01T13:56:43.868Z</time></trkpt><trkpt lat="44.2007377294914" lon="10.614115720272048"><ele>780.0</ele><time>2026-05-01T13:56:44.868Z</time></trkpt><trkpt lat="44.20071062925218" lon="10.613877146223158"><ele>780.0</ele><time>2026-05-01T13:56:45.868Z</time></trkpt><trkpt lat="44.20069768907167" lon="10.613636030244969"><ele>779.5</ele><time>2026-05-01T13:56:46.868Z</time></trkpt><trkpt lat="44.200750554066374" lon="10.613415813122558"><ele>779.0</ele><time>2026-05-01T13:56:47.868Z</time></trkpt><trkpt lat="44.2007844392114" lon="10.61322795214226"><ele>778.5</ele><time>2026-05-01T13:56:48.868Z</time></trkpt><trkpt lat="44.20079071674669" lon="10.613064829450849"><ele>778.0</ele><time>2026-05-01T13:56:49.868Z</time></trkpt><trkpt lat="44.20076182993087" lon="10.612978420142975"><ele>778.0</ele><time>2026-05-01T13:56:50.867Z</time></trkpt><trkpt lat="44.20070925464372" lon="10.612901739817046"><ele>778.0</ele><time>2026-05-01T13:56:51.867Z</time></trkpt><trkpt lat="44.2006125704804" lon="10.612820791147259"><ele>778.0</ele><time>2026-05-01T13:56:52.867Z</time></trkpt><trkpt lat="44.200524223449435" lon="10.612707936060504"><ele>778.0</ele><time>2026-05-01T13:56:53.867Z</time></trkpt><trkpt lat="44.20045246112819" lon="10.612572211128697"><ele>778.0</ele><time>2026-05-01T13:56:54.867Z</time></trkpt><trkpt lat="44.200397410017196" lon="10.612399811028045"><ele>781.75</ele><time>2026-05-01T13:56:55.867Z</time></trkpt><trkpt lat="44.20036378107042" lon="10.612209019828134"><ele>785.5</ele><time>2026-05-01T13:56:56.867Z</time></trkpt><trkpt lat="44.20036044716967" lon="10.61201758693521"><ele>789.25</ele><time>2026-05-01T13:56:57.867Z</time></trkpt><trkpt lat="44.200384045601304" lon="10.611817206673463"><ele>793.0</ele><time>2026-05-01T13:56:58.867Z</time></trkpt><trkpt lat="44.20038144004922" lon="10.611623738122175"><ele>793.0</ele><time>2026-05-01T13:56:59.867Z</time></trkpt><trkpt lat="44.20032430498679" lon="10.611442593740865"><ele>793.0</ele><time>2026-05-01T13:57:00.867Z</time></trkpt><trkpt lat="44.20023040641179" lon="10.611280801745473"><ele>793.0</ele><time>2026-05-01T13:57:01.867Z</time></trkpt><trkpt lat="44.200149423856864" lon="10.611111830979143"><ele>793.0</ele><time>2026-05-01T13:57:02.867Z</time></trkpt><trkpt lat="44.200062267633264" lon="10.610931759242506"><ele>792.25</ele><time>2026-05-01T13:57:03.867Z</time></trkpt><trkpt lat="44.19997740542498" lon="10.610756731022333"><ele>791.5</ele><time>2026-05-01T13:57:04.867Z</time></trkpt><trkpt lat="44.199894295108955" lon="10.61059637633271"><ele>790.75</ele><time>2026-05-01T13:57:05.867Z</time></trkpt><trkpt lat="44.19981465994088" lon="10.610466222514482"><ele>790.0</ele><time>2026-05-01T13:57:06.867Z</time></trkpt><trkpt lat="44.199712721500674" lon="10.610366390483238"><ele>791.75</ele><time>2026-05-01T13:57:07.867Z</time></trkpt><trkpt lat="44.199583856726" lon="10.610315811206595"><ele>793.5</ele><time>2026-05-01T13:57:08.867Z</time></trkpt><trkpt lat="44.19943828059638" lon="10.610255866568414"><ele>795.25</ele><time>2026-05-01T13:57:09.867Z</time></trkpt><trkpt lat="44.199286034276696" lon="10.610212135239568"><ele>797.0</ele><time>2026-05-01T13:57:10.867Z</time></trkpt><trkpt lat="44.19913354788044" lon="10.61018524627118"><ele>800.6666666666667</ele><time>2026-05-01T13:57:11.868Z</time></trkpt><trkpt lat="44.19897906214411" lon="10.610164894971195"><ele>804.3333333333333</ele><time>2026-05-01T13:57:12.869Z</time></trkpt><trkpt lat="44.198807429076695" lon="10.610174719488722"><ele>808.0</ele><time>2026-05-01T13:57:13.869Z</time></trkpt><trkpt lat="44.198649576726545" lon="10.610178592326504"><ele>808.0</ele><time>2026-05-01T13:57:14.868Z</time></trkpt><trkpt lat="44.19851510942607" lon="10.610157280491995"><ele>808.0</ele><time>2026-05-01T13:57:15.868Z</time></trkpt><trkpt lat="44.19838161272886" lon="10.610066917239585"><ele>808.0</ele><time>2026-05-01T13:57:16.868Z</time></trkpt><trkpt lat="44.19824909307064" lon="10.609940183864778"><ele>808.0</ele><time>2026-05-01T13:57:17.868Z</time></trkpt><trkpt lat="44.19811762783944" lon="10.609802732739478"><ele>810.0</ele><time>2026-05-01T13:57:18.868Z</time></trkpt><trkpt lat="44.197971827740375" lon="10.609670133188866"><ele>812.0</ele><time>2026-05-01T13:57:19.868Z</time></trkpt><trkpt lat="44.19782236075847" lon="10.609540992308775"><ele>814.0</ele><time>2026-05-01T13:57:20.868Z</time></trkpt><trkpt lat="44.197673870954766" lon="10.609420305277624"><ele>814.0</ele><time>2026-05-01T13:57:21.868Z</time></trkpt><trkpt lat="44.19752089833564" lon="10.609285924191516"><ele>814.0</ele><time>2026-05-01T13:57:22.868Z</time></trkpt><trkpt lat="44.19735937642941" lon="10.60913086615456"><ele>814.0</ele><time>2026-05-01T13:57:23.868Z</time></trkpt><trkpt lat="44.197220094863745" lon="10.608929544272161"><ele>819.0</ele><time>2026-05-01T13:57:24.868Z</time></trkpt><trkpt lat="44.19706572967562" lon="10.608717497820324"><ele>824.0</ele><time>2026-05-01T13:57:25.868Z</time></trkpt><trkpt lat="44.196881598016674" lon="10.608508884451574"><ele>824.0</ele><time>2026-05-01T13:57:26.868Z</time></trkpt><trkpt lat="44.1967253214601" lon="10.608281219144349"><ele>824.0</ele><time>2026-05-01T13:57:27.868Z</time></trkpt><trkpt lat="44.19658009227221" lon="10.608086048951822"><ele>824.0</ele><time>2026-05-01T13:57:28.868Z</time></trkpt><trkpt lat="44.1964603896748" lon="10.607874648353143"><ele>833.0</ele><time>2026-05-01T13:57:29.868Z</time></trkpt><trkpt lat="44.19635949002002" lon="10.607633308077036"><ele>842.0</ele><time>2026-05-01T13:57:30.868Z</time></trkpt><trkpt lat="44.19623973431671" lon="10.607394257089249"><ele>851.0</ele><time>2026-05-01T13:57:31.868Z</time></trkpt><trkpt lat="44.19609889954005" lon="10.607194603307583"><ele>843.3333333333334</ele><time>2026-05-01T13:57:32.868Z</time></trkpt><trkpt lat="44.19597226001018" lon="10.60698911860058"><ele>835.6666666666667</ele><time>2026-05-01T13:57:33.868Z</time></trkpt><trkpt lat="44.195880244638396" lon="10.606789233354359"><ele>828.0</ele><time>2026-05-01T13:57:34.868Z</time></trkpt><trkpt lat="44.195763728027046" lon="10.60666534251441"><ele>832.5</ele><time>2026-05-01T13:57:35.868Z</time></trkpt><trkpt lat="44.19566950079939" lon="10.606567809781223"><ele>837.0</ele><time>2026-05-01T13:57:36.868Z</time></trkpt><trkpt lat="44.1955597886758" lon="10.606526853640963"><ele>841.5</ele><time>2026-05-01T13:57:37.868Z</time></trkpt><trkpt lat="44.19542532718371" lon="10.606518999253744"><ele>846.0</ele><time>2026-05-01T13:57:38.868Z</time></trkpt><trkpt lat="44.19526944377751" lon="10.606551235584735"><ele>846.0</ele><time>2026-05-01T13:57:39.868Z</time></trkpt><trkpt lat="44.195111745748186" lon="10.606537901128595"><ele>846.0</ele><time>2026-05-01T13:57:40.868Z</time></trkpt><trkpt lat="44.19498072491715" lon="10.606543828923654"><ele>846.0</ele><time>2026-05-01T13:57:41.868Z</time></trkpt><trkpt lat="44.194868036103095" lon="10.606546860785137"><ele>846.0</ele><time>2026-05-01T13:57:42.868Z</time></trkpt><trkpt lat="44.19476738978305" lon="10.606535987166817"><ele>850.4</ele><time>2026-05-01T13:57:43.868Z</time></trkpt><trkpt lat="44.19466079135646" lon="10.606468493127469"><ele>854.8</ele><time>2026-05-01T13:57:44.868Z</time></trkpt><trkpt lat="44.194584752691654" lon="10.606366020872136"><ele>859.1999999999999</ele><time>2026-05-01T13:57:45.868Z</time></trkpt><trkpt lat="44.19455881036962" lon="10.60622932402697"><ele>863.5999999999999</ele><time>2026-05-01T13:57:46.868Z</time></trkpt><trkpt lat="44.194537064759864" lon="10.606084469626099"><ele>868.0</ele><time>2026-05-01T13:57:47.868Z</time></trkpt><trkpt lat="44.194575566362715" lon="10.605946491165595"><ele>867.9999999999999</ele><time>2026-05-01T13:57:48.868Z</time></trkpt><trkpt lat="44.19461663514921" lon="10.60583821855736"><ele>868.0</ele><time>2026-05-01T13:57:49.868Z</time></trkpt><trkpt lat="44.19464601878494" lon="10.605737167475404"><ele>868.0</ele><time>2026-05-01T13:57:50.868Z</time></trkpt><trkpt lat="44.194663339905496" lon="10.605640327012587"><ele>868.0</ele><time>2026-05-01T13:57:51.868Z</time></trkpt><trkpt lat="44.19467051491547" lon="10.60554425091442"><ele>867.9999999999999</ele><time>2026-05-01T13:57:52.868Z</time></trkpt><trkpt lat="44.19469174703885" lon="10.605404890300479"><ele>868.0</ele><time>2026-05-01T13:57:53.868Z</time></trkpt><trkpt lat="44.19467070554058" lon="10.605204156416656"><ele>870.6666666666666</ele><time>2026-05-01T13:57:54.868Z</time></trkpt><trkpt lat="44.194618125594054" lon="10.604977484462454"><ele>873.3333333333333</ele><time>2026-05-01T13:57:55.868Z</time></trkpt><trkpt lat="44.194596712548574" lon="10.604750258860955"><ele>876.0</ele><time>2026-05-01T13:57:56.868Z</time></trkpt><trkpt lat="44.19462961979443" lon="10.604527551247104"><ele>876.75</ele><time>2026-05-01T13:57:57.868Z</time></trkpt><trkpt lat="44.19465358190557" lon="10.604329380977015"><ele>877.5</ele><time>2026-05-01T13:57:58.868Z</time></trkpt><trkpt lat="44.194677247014035" lon="10.604143979503336"><ele>878.25</ele><time>2026-05-01T13:57:59.868Z</time></trkpt><trkpt lat="44.1946596182094" lon="10.603994549289576"><ele>879.0</ele><time>2026-05-01T13:58:00.868Z</time></trkpt><trkpt lat="44.19460637038277" lon="10.603882861225292"><ele>879.0</ele><time>2026-05-01T13:58:01.868Z</time></trkpt><trkpt lat="44.19451591251958" lon="10.603812702436851"><ele>879.0000000000001</ele><time>2026-05-01T13:58:02.868Z</time></trkpt><trkpt lat="44.19440618216032" lon="10.603736300561376"><ele>879.0000000000001</ele><time>2026-05-01T13:58:03.868Z</time></trkpt><trkpt lat="44.194330836899155" lon="10.603620060077139"><ele>879.0</ele><time>2026-05-01T13:58:04.868Z</time></trkpt><trkpt lat="44.19432947383027" lon="10.603501761045571"><ele>879.0</ele><time>2026-05-01T13:58:05.868Z</time></trkpt><trkpt lat="44.194380679794456" lon="10.603397946683243"><ele>878.6</ele><time>2026-05-01T13:58:06.868Z</time></trkpt><trkpt lat="44.194472334174066" lon="10.603314021549767"><ele>878.2</ele><time>2026-05-01T13:58:07.868Z</time></trkpt><trkpt lat="44.19456174305661" lon="10.603217965157276"><ele>877.8000000000001</ele><time>2026-05-01T13:58:08.868Z</time></trkpt><trkpt lat="44.19459367708262" lon="10.603128816362547"><ele>877.4000000000001</ele><time>2026-05-01T13:58:09.868Z</time></trkpt><trkpt lat="44.19461939996587" lon="10.603029341335622"><ele>877.0</ele><time>2026-05-01T13:58:10.868Z</time></trkpt><trkpt lat="44.1946313778233" lon="10.602889900064913"><ele>880.0</ele><time>2026-05-01T13:58:11.868Z</time></trkpt><trkpt lat="44.19459566285206" lon="10.602711105711055"><ele>883.0</ele><time>2026-05-01T13:58:12.867Z</time></trkpt><trkpt lat="44.19454140133771" lon="10.602528283069924"><ele>886.0</ele><time>2026-05-01T13:58:13.867Z</time></trkpt><trkpt lat="44.194519914701" lon="10.602382979450299"><ele>889.0</ele><time>2026-05-01T13:58:14.867Z</time></trkpt><trkpt lat="44.19456822653032" lon="10.602233318821126"><ele>889.0</ele><time>2026-05-01T13:58:15.867Z</time></trkpt><trkpt lat="44.194649357860875" lon="10.602087157223346"><ele>889.0</ele><time>2026-05-01T13:58:16.867Z</time></trkpt><trkpt lat="44.19471672592511" lon="10.601906462387062"><ele>889.0</ele><time>2026-05-01T13:58:17.867Z</time></trkpt><trkpt lat="44.19474789546719" lon="10.601703225343988"><ele>889.0</ele><time>2026-05-01T13:58:18.867Z</time></trkpt><trkpt lat="44.19477338641419" lon="10.60151208153546"><ele>891.5</ele><time>2026-05-01T13:58:19.867Z</time></trkpt><trkpt lat="44.19480336005231" lon="10.601337981311604"><ele>894.0</ele><time>2026-05-01T13:58:20.867Z</time></trkpt><trkpt lat="44.19488276176743" lon="10.601223683921189"><ele>896.5</ele><time>2026-05-01T13:58:21.867Z</time></trkpt><trkpt lat="44.19499650213909" lon="10.601187254408142"><ele>899.0</ele><time>2026-05-01T13:58:22.867Z</time></trkpt><trkpt lat="44.19513309426649" lon="10.601181787965858"><ele>896.0</ele><time>2026-05-01T13:58:23.867Z</time></trkpt><trkpt lat="44.195271508396786" lon="10.601154097034382"><ele>893.0</ele><time>2026-05-01T13:58:24.867Z</time></trkpt><trkpt lat="44.19536967495463" lon="10.601038638428248"><ele>890.0</ele><time>2026-05-01T13:58:25.867Z</time></trkpt><trkpt lat="44.195449764559164" lon="10.600902410771829"><ele>887.0</ele><time>2026-05-01T13:58:26.867Z</time></trkpt><trkpt lat="44.195520284176645" lon="10.600773639110828"><ele>887.0</ele><time>2026-05-01T13:58:27.867Z</time></trkpt><trkpt lat="44.19556507803603" lon="10.600633106670669"><ele>887.0</ele><time>2026-05-01T13:58:28.867Z</time></trkpt><trkpt lat="44.19557131556723" lon="10.60047658466889"><ele>887.0</ele><time>2026-05-01T13:58:29.867Z</time></trkpt><trkpt lat="44.19555163544709" lon="10.600298639724947"><ele>887.0</ele><time>2026-05-01T13:58:30.867Z</time></trkpt><trkpt lat="44.195492578130285" lon="10.600130365615906"><ele>890.6666666666667</ele><time>2026-05-01T13:58:31.867Z</time></trkpt><trkpt lat="44.195430060259625" lon="10.59991283505432"><ele>894.3333333333333</ele><time>2026-05-01T13:58:32.867Z</time></trkpt><trkpt lat="44.195361614413784" lon="10.599718885255692"><ele>898.0</ele><time>2026-05-01T13:58:33.867Z</time></trkpt><trkpt lat="44.19528204345505" lon="10.599521315731689"><ele>895.3333333333333</ele><time>2026-05-01T13:58:34.867Z</time></trkpt><trkpt lat="44.19515309946498" lon="10.599336304267434"><ele>892.6666666666667</ele><time>2026-05-01T13:58:35.867Z</time></trkpt><trkpt lat="44.195005501099644" lon="10.599165922125575"><ele>890.0</ele><time>2026-05-01T13:58:36.867Z</time></trkpt><trkpt lat="44.194871472769734" lon="10.599001186538258"><ele>899.3333333333334</ele><time>2026-05-01T13:58:37.867Z</time></trkpt><trkpt lat="44.194739674747396" lon="10.598838089283058"><ele>908.6666666666667</ele><time>2026-05-01T13:58:38.867Z</time></trkpt><trkpt lat="44.19460249045861" lon="10.598662743040478"><ele>918.0</ele><time>2026-05-01T13:58:39.867Z</time></trkpt><trkpt lat="44.194473259981535" lon="10.59849233508"><ele>918.0</ele><time>2026-05-01T13:58:40.867Z</time></trkpt><trkpt lat="44.194356747263406" lon="10.598306531096002"><ele>918.0</ele><time>2026-05-01T13:58:41.867Z</time></trkpt><trkpt lat="44.1942655132677" lon="10.598069146422695"><ele>918.0</ele><time>2026-05-01T13:58:42.867Z</time></trkpt><trkpt lat="44.19421082351983" lon="10.597834230596117"><ele>914.6666666666667</ele><time>2026-05-01T13:58:43.867Z</time></trkpt><trkpt lat="44.19418389593016" lon="10.597567677918255"><ele>911.3333333333334</ele><time>2026-05-01T13:58:44.867Z</time></trkpt><trkpt lat="44.194196438670176" lon="10.597335068117111"><ele>908.0</ele><time>2026-05-01T13:58:45.867Z</time></trkpt><trkpt lat="44.19426887381551" lon="10.597106298466874"><ele>909.3333333333334</ele><time>2026-05-01T13:58:47.867Z</time></trkpt><trkpt lat="44.194340129663345" lon="10.596875261700895"><ele>910.6666666666667</ele><time>2026-05-01T13:58:48.867Z</time></trkpt><trkpt lat="44.19436553204607" lon="10.596647413835216"><ele>912.0</ele><time>2026-05-01T13:58:49.867Z</time></trkpt><trkpt lat="44.19437909007907" lon="10.596426978068097"><ele>912.0</ele><time>2026-05-01T13:58:50.867Z</time></trkpt><trkpt lat="44.194372023254076" lon="10.59618525271241"><ele>912.0</ele><time>2026-05-01T13:58:51.867Z</time></trkpt><trkpt lat="44.194349225020076" lon="10.595913118808479"><ele>912.0</ele><time>2026-05-01T13:58:52.867Z</time></trkpt><trkpt lat="44.194344002654844" lon="10.595625448305592"><ele>912.6666666666667</ele><time>2026-05-01T13:58:53.867Z</time></trkpt><trkpt lat="44.194346226319865" lon="10.595346398882068"><ele>913.3333333333334</ele><time>2026-05-01T13:58:54.867Z</time></trkpt><trkpt lat="44.19434277033399" lon="10.59507196855423"><ele>914.0</ele><time>2026-05-01T13:58:55.867Z</time></trkpt><trkpt lat="44.19433552660984" lon="10.594832834018598"><ele>914.5</ele><time>2026-05-01T13:58:56.867Z</time></trkpt><trkpt lat="44.19432251227045" lon="10.59463470056221"><ele>915.0</ele><time>2026-05-01T13:58:57.867Z</time></trkpt><trkpt lat="44.19428858305866" lon="10.594458197386308"><ele>915.5</ele><time>2026-05-01T13:58:58.867Z</time></trkpt><trkpt lat="44.194216827703066" lon="10.594298875974264"><ele>916.0</ele><time>2026-05-01T13:58:59.867Z</time></trkpt><trkpt lat="44.19411949931417" lon="10.594156768846036"><ele>913.75</ele><time>2026-05-01T13:59:00.867Z</time></trkpt><trkpt lat="44.19401017950536" lon="10.594026092764091"><ele>911.5</ele><time>2026-05-01T13:59:01.867Z</time></trkpt><trkpt lat="44.19389036872514" lon="10.593895868593213"><ele>909.25</ele><time>2026-05-01T13:59:02.867Z</time></trkpt><trkpt lat="44.19376467886851" lon="10.593773737857761"><ele>907.0</ele><time>2026-05-01T13:59:03.867Z</time></trkpt><trkpt lat="44.193662896524906" lon="10.593661414005169"><ele>914.0</ele><time>2026-05-01T13:59:04.867Z</time></trkpt><trkpt lat="44.193599118517604" lon="10.59349818951345"><ele>921.0</ele><time>2026-05-01T13:59:05.867Z</time></trkpt><trkpt lat="44.1935888015468" lon="10.593315096580048"><ele>928.0</ele><time>2026-05-01T13:59:06.867Z</time></trkpt><trkpt lat="44.19359943069486" lon="10.59313675405198"><ele>935.0</ele><time>2026-05-01T13:59:07.867Z</time></trkpt><trkpt lat="44.19361133382231" lon="10.592928198498043"><ele>934.0</ele><time>2026-05-01T13:59:08.867Z</time></trkpt><trkpt lat="44.19361364685986" lon="10.592801185746211"><ele>933.0</ele><time>2026-05-01T13:59:09.867Z</time></trkpt><trkpt lat="44.19358669609582" lon="10.592539802994422"><ele>932.0</ele><time>2026-05-01T13:59:10.867Z</time></trkpt><trkpt lat="44.193526753195506" lon="10.59224557439473"><ele>932.0</ele><time>2026-05-01T13:59:11.867Z</time></trkpt><trkpt lat="44.19350117171701" lon="10.592027216074108"><ele>932.0</ele><time>2026-05-01T13:59:12.867Z</time></trkpt><trkpt lat="44.193506836585684" lon="10.591815467344414"><ele>932.0</ele><time>2026-05-01T13:59:13.867Z</time></trkpt><trkpt lat="44.19351144847604" lon="10.59162504427727"><ele>932.0</ele><time>2026-05-01T13:59:14.867Z</time></trkpt><trkpt lat="44.19350174821527" lon="10.591428054164446"><ele>930.6666666666667</ele><time>2026-05-01T13:59:15.867Z</time></trkpt><trkpt lat="44.193448917056614" lon="10.591230005874438"><ele>929.3333333333333</ele><time>2026-05-01T13:59:16.867Z</time></trkpt><trkpt lat="44.19336883911454" lon="10.591057786501413"><ele>928.0</ele><time>2026-05-01T13:59:17.867Z</time></trkpt><trkpt lat="44.19323243985637" lon="10.59093909485249"><ele>931.5</ele><time>2026-05-01T13:59:18.867Z</time></trkpt><trkpt lat="44.19309818083201" lon="10.590897029032602"><ele>935.0</ele><time>2026-05-01T13:59:19.867Z</time></trkpt><trkpt lat="44.19297143000832" lon="10.5908226764827"><ele>938.5</ele><time>2026-05-01T13:59:20.868Z</time></trkpt><trkpt lat="44.1928196750801" lon="10.590761916646954"><ele>942.0</ele><time>2026-05-01T13:59:21.867Z</time></trkpt><trkpt lat="44.19268577831399" lon="10.590695262701194"><ele>942.0</ele><time>2026-05-01T13:59:22.867Z</time></trkpt><trkpt lat="44.1925529952981" lon="10.59059015124988"><ele>942.0</ele><time>2026-05-01T13:59:23.867Z</time></trkpt><trkpt lat="44.192413202847" lon="10.5904652831269"><ele>942.0</ele><time>2026-05-01T13:59:24.867Z</time></trkpt><trkpt lat="44.19225697147238" lon="10.590380603223329"><ele>945.6</ele><time>2026-05-01T13:59:25.867Z</time></trkpt><trkpt lat="44.1921281427261" lon="10.590332533564949"><ele>949.2</ele><time>2026-05-01T13:59:26.868Z</time></trkpt><trkpt lat="44.1920330571969" lon="10.59026597085091"><ele>952.8</ele><time>2026-05-01T13:59:27.867Z</time></trkpt><trkpt lat="44.19195835447746" lon="10.590176045791884"><ele>956.4</ele><time>2026-05-01T13:59:28.867Z</time></trkpt><trkpt lat="44.19193687326116" lon="10.590056443607644"><ele>960.0</ele><time>2026-05-01T13:59:29.867Z</time></trkpt><trkpt lat="44.19191979471757" lon="10.589897786410056"><ele>960.0</ele><time>2026-05-01T13:59:30.868Z</time></trkpt><trkpt lat="44.19192876607333" lon="10.589677048406385"><ele>960.0</ele><time>2026-05-01T13:59:31.868Z</time></trkpt><trkpt lat="44.191896408967125" lon="10.589465029722826"><ele>960.0</ele><time>2026-05-01T13:59:32.868Z</time></trkpt><trkpt lat="44.191867921070305" lon="10.589290115682283"><ele>960.0</ele><time>2026-05-01T13:59:33.868Z</time></trkpt><trkpt lat="44.19185727738866" lon="10.589135906996706"><ele>958.6</ele><time>2026-05-01T13:59:34.868Z</time></trkpt><trkpt lat="44.191843870760366" lon="10.58897281583556"><ele>957.2</ele><time>2026-05-01T13:59:35.868Z</time></trkpt><trkpt lat="44.19186154682028" lon="10.588818225867458"><ele>955.8</ele><time>2026-05-01T13:59:36.868Z</time></trkpt><trkpt lat="44.191852880084554" lon="10.588671913388277"><ele>954.4</ele><time>2026-05-01T13:59:37.868Z</time></trkpt><trkpt lat="44.19180941515095" lon="10.588529297681317"><ele>953.0</ele><time>2026-05-01T13:59:38.868Z</time></trkpt><trkpt lat="44.191719332630264" lon="10.588397586571839"><ele>949.25</ele><time>2026-05-01T13:59:39.868Z</time></trkpt><trkpt lat="44.19159866166421" lon="10.58830795112297"><ele>945.5</ele><time>2026-05-01T13:59:40.868Z</time></trkpt><trkpt lat="44.19150373544948" lon="10.58821604167583"><ele>941.75</ele><time>2026-05-01T13:59:41.868Z</time></trkpt><trkpt lat="44.191400340646645" lon="10.58811300780789"><ele>938.0</ele><time>2026-05-01T13:59:42.868Z</time></trkpt><trkpt lat="44.191293856756104" lon="10.588003712553355"><ele>945.4</ele><time>2026-05-01T13:59:43.868Z</time></trkpt><trkpt lat="44.1912056900568" lon="10.587910314528749"><ele>952.8</ele><time>2026-05-01T13:59:44.868Z</time></trkpt><trkpt lat="44.19112576017091" lon="10.587835795369058"><ele>960.2</ele><time>2026-05-01T13:59:45.868Z</time></trkpt><trkpt lat="44.191073230785115" lon="10.58773930247837"><ele>967.6</ele><time>2026-05-01T13:59:46.868Z</time></trkpt><trkpt lat="44.19107346919209" lon="10.587616034158213"><ele>975.0</ele><time>2026-05-01T13:59:47.868Z</time></trkpt><trkpt lat="44.19108243923233" lon="10.58749702050557"><ele>975.0</ele><time>2026-05-01T13:59:48.868Z</time></trkpt><trkpt lat="44.191156159649196" lon="10.587350973900477"><ele>975.0</ele><time>2026-05-01T13:59:49.868Z</time></trkpt><trkpt lat="44.19125366874482" lon="10.587271149986943"><ele>975.0</ele><time>2026-05-01T13:59:50.868Z</time></trkpt><trkpt lat="44.191364643473584" lon="10.587190578985467"><ele>975.0</ele><time>2026-05-01T13:59:51.868Z</time></trkpt><trkpt lat="44.19148773677375" lon="10.587092185132198"><ele>970.0</ele><time>2026-05-01T13:59:52.868Z</time></trkpt><trkpt lat="44.19159812073054" lon="10.587001876202919"><ele>965.0</ele><time>2026-05-01T13:59:53.868Z</time></trkpt><trkpt lat="44.19168915597908" lon="10.586898660624467"><ele>960.0</ele><time>2026-05-01T13:59:54.868Z</time></trkpt><trkpt lat="44.19175929910258" lon="10.586774596432692"><ele>955.0</ele><time>2026-05-01T13:59:55.868Z</time></trkpt><trkpt lat="44.19180831988525" lon="10.586614327019973"><ele>955.0</ele><time>2026-05-01T13:59:56.868Z</time></trkpt><trkpt lat="44.19182002507952" lon="10.586464720644374"><ele>955.0</ele><time>2026-05-01T13:59:57.868Z</time></trkpt><trkpt lat="44.19180913852892" lon="10.586286827107367"><ele>955.0</ele><time>2026-05-01T13:59:58.868Z</time></trkpt><trkpt lat="44.19178151445832" lon="10.586110052373398"><ele>955.0</ele><time>2026-05-01T13:59:59.868Z</time></trkpt><trkpt lat="44.19174643622911" lon="10.585926432268154"><ele>954.25</ele><time>2026-05-01T14:00:00.868Z</time></trkpt><trkpt lat="44.191710496291" lon="10.585727814983342"><ele>953.5</ele><time>2026-05-01T14:00:01.868Z</time></trkpt><trkpt lat="44.19170301287133" lon="10.58553597756018"><ele>952.75</ele><time>2026-05-01T14:00:02.868Z</time></trkpt><trkpt lat="44.19167052949189" lon="10.585339925218847"><ele>952.0</ele><time>2026-05-01T14:00:03.868Z</time></trkpt><trkpt lat="44.19161380031579" lon="10.58516617422304"><ele>952.0</ele><time>2026-05-01T14:00:04.868Z</time></trkpt><trkpt lat="44.19154473046357" lon="10.585008308608387"><ele>952.0</ele><time>2026-05-01T14:00:05.868Z</time></trkpt><trkpt lat="44.19146193999197" lon="10.584862657631795"><ele>952.0</ele><time>2026-05-01T14:00:06.868Z</time></trkpt><trkpt lat="44.191379333957876" lon="10.584719468983275"><ele>952.0</ele><time>2026-05-01T14:00:07.868Z</time></trkpt><trkpt lat="44.19129339057819" lon="10.58457590363622"><ele>956.5</ele><time>2026-05-01T14:00:08.868Z</time></trkpt><trkpt lat="44.19120350569929" lon="10.584406085152008"><ele>961.0</ele><time>2026-05-01T14:00:09.868Z</time></trkpt><trkpt lat="44.191129194519526" lon="10.584268178104557"><ele>965.5</ele><time>2026-05-01T14:00:10.868Z</time></trkpt><trkpt lat="44.19104839813961" lon="10.584153896161027"><ele>970.0</ele><time>2026-05-01T14:00:11.868Z</time></trkpt><trkpt lat="44.19096246240313" lon="10.584059955672275"><ele>970.0</ele><time>2026-05-01T14:00:12.868Z</time></trkpt><trkpt lat="44.19087962738882" lon="10.584002906579242"><ele>970.0</ele><time>2026-05-01T14:00:13.868Z</time></trkpt><trkpt lat="44.190759690900336" lon="10.583962933256245"><ele>970.0</ele><time>2026-05-01T14:00:14.868Z</time></trkpt><trkpt lat="44.19061368422624" lon="10.583934275745118"><ele>970.0</ele><time>2026-05-01T14:00:15.868Z</time></trkpt><trkpt lat="44.190481464500586" lon="10.583920583838715"><ele>970.6</ele><time>2026-05-01T14:00:16.868Z</time></trkpt><trkpt lat="44.190354846318435" lon="10.583896681724406"><ele>971.2</ele><time>2026-05-01T14:00:17.868Z</time></trkpt><trkpt lat="44.1902483784179" lon="10.58382333388272"><ele>971.8</ele><time>2026-05-01T14:00:18.868Z</time></trkpt><trkpt lat="44.19016242582714" lon="10.583772141050384"><ele>972.4</ele><time>2026-05-01T14:00:19.868Z</time></trkpt><trkpt lat="44.1900830277513" lon="10.583674881324706"><ele>973.0</ele><time>2026-05-01T14:00:20.868Z</time></trkpt><trkpt lat="44.19002788290197" lon="10.583560652507558"><ele>972.9999999999999</ele><time>2026-05-01T14:00:21.868Z</time></trkpt><trkpt lat="44.189980720092045" lon="10.583415932619147"><ele>973.0</ele><time>2026-05-01T14:00:22.868Z</time></trkpt><trkpt lat="44.18995173726585" lon="10.583271290226062"><ele>973.0</ele><time>2026-05-01T14:00:23.868Z</time></trkpt><trkpt lat="44.189922702032824" lon="10.583158192832357"><ele>973.0</ele><time>2026-05-01T14:00:24.868Z</time></trkpt><trkpt lat="44.18988345335838" lon="10.583087541071915"><ele>972.9999999999999</ele><time>2026-05-01T14:00:25.868Z</time></trkpt><trkpt lat="44.18982424652392" lon="10.583034625756978"><ele>973.0</ele><time>2026-05-01T14:00:26.868Z</time></trkpt><trkpt lat="44.189703882767866" lon="10.583006704545252"><ele>978.5</ele><time>2026-05-01T14:00:27.868Z</time></trkpt><trkpt lat="44.189586060641524" lon="10.582990940841857"><ele>984.0</ele><time>2026-05-01T14:00:28.868Z</time></trkpt><trkpt lat="44.18947725938172" lon="10.583011880546294"><ele>989.5</ele><time>2026-05-01T14:00:29.868Z</time></trkpt><trkpt lat="44.189368697051385" lon="10.582991712019131"><ele>995.0</ele><time>2026-05-01T14:00:30.868Z</time></trkpt><trkpt lat="44.18925444406846" lon="10.582924166071221"><ele>995.0</ele><time>2026-05-01T14:00:31.868Z</time></trkpt><trkpt lat="44.18913841077911" lon="10.58285195970761"><ele>995.0</ele><time>2026-05-01T14:00:32.868Z</time></trkpt><trkpt lat="44.18904682696778" lon="10.58271240174364"><ele>995.0</ele><time>2026-05-01T14:00:33.868Z</time></trkpt><trkpt lat="44.18893512415348" lon="10.582613250827011"><ele>995.0</ele><time>2026-05-01T14:00:34.868Z</time></trkpt><trkpt lat="44.18882366911005" lon="10.582513215145683"><ele>996.0</ele><time>2026-05-01T14:00:35.868Z</time></trkpt><trkpt lat="44.18871231903549" lon="10.582412898122184"><ele>997.0</ele><time>2026-05-01T14:00:36.868Z</time></trkpt><trkpt lat="44.18859995371892" lon="10.582314209111368"><ele>998.0</ele><time>2026-05-01T14:00:37.868Z</time></trkpt><trkpt lat="44.18848533772151" lon="10.582215745334699"><ele>999.0</ele><time>2026-05-01T14:00:38.868Z</time></trkpt><trkpt lat="44.188374779272955" lon="10.582112075773395"><ele>1000.0</ele><time>2026-05-01T14:00:39.868Z</time></trkpt><trkpt lat="44.188263692861845" lon="10.58199866484094"><ele>1001.0</ele><time>2026-05-01T14:00:40.867Z</time></trkpt><trkpt lat="44.188164463090246" lon="10.581865951033903"><ele>1002.0</ele><time>2026-05-01T14:00:41.867Z</time></trkpt><trkpt lat="44.188077823705775" lon="10.581710663765577"><ele>1003.0</ele><time>2026-05-01T14:00:42.867Z</time></trkpt><trkpt lat="44.18798263269792" lon="10.581565936242836"><ele>1003.0</ele><time>2026-05-01T14:00:43.867Z</time></trkpt><trkpt lat="44.1878826207519" lon="10.581445151714744"><ele>1003.0</ele><time>2026-05-01T14:00:44.867Z</time></trkpt><trkpt lat="44.187767328950244" lon="10.581381807830809"><ele>1003.0</ele><time>2026-05-01T14:00:45.867Z</time></trkpt><trkpt lat="44.18763931818523" lon="10.581354812561933"><ele>1003.0</ele><time>2026-05-01T14:00:46.867Z</time></trkpt><trkpt lat="44.187510234655164" lon="10.581328129459257"><ele>1003.0</ele><time>2026-05-01T14:00:47.867Z</time></trkpt><trkpt lat="44.187380784194154" lon="10.581321324776322"><ele>1003.0</ele><time>2026-05-01T14:00:48.867Z</time></trkpt><trkpt lat="44.18727000415025" lon="10.581296654788174"><ele>1003.0</ele><time>2026-05-01T14:00:49.867Z</time></trkpt><trkpt lat="44.18718409737045" lon="10.581213396660084"><ele>1003.0</ele><time>2026-05-01T14:00:50.867Z</time></trkpt><trkpt lat="44.18712403442642" lon="10.581082678750404"><ele>1005.25</ele><time>2026-05-01T14:00:51.867Z</time></trkpt><trkpt lat="44.18708352790689" lon="10.580926169515454"><ele>1007.5</ele><time>2026-05-01T14:00:52.867Z</time></trkpt><trkpt lat="44.18708799437022" lon="10.58078066995008"><ele>1009.75</ele><time>2026-05-01T14:00:53.867Z</time></trkpt><trkpt lat="44.18712897752882" lon="10.580614726254305"><ele>1012.0</ele><time>2026-05-01T14:00:54.867Z</time></trkpt><trkpt lat="44.18714838049166" lon="10.580421590357721"><ele>1011.25</ele><time>2026-05-01T14:00:55.867Z</time></trkpt><trkpt lat="44.18717643872315" lon="10.58026975577723"><ele>1010.5</ele><time>2026-05-01T14:00:56.867Z</time></trkpt><trkpt lat="44.18718179092666" lon="10.580100581695717"><ele>1009.75</ele><time>2026-05-01T14:00:57.867Z</time></trkpt><trkpt lat="44.18718296891438" lon="10.579922125875585"><ele>1009.0</ele><time>2026-05-01T14:00:58.867Z</time></trkpt><trkpt lat="44.187139078484286" lon="10.57974572597544"><ele>1009.0</ele><time>2026-05-01T14:00:59.867Z</time></trkpt><trkpt lat="44.18712228960762" lon="10.579557415539453"><ele>1009.0</ele><time>2026-05-01T14:01:00.867Z</time></trkpt><trkpt lat="44.187103605715485" lon="10.579358589117302"><ele>1009.0</ele><time>2026-05-01T14:01:01.867Z</time></trkpt><trkpt lat="44.18711727266" lon="10.57914433716425"><ele>1009.0</ele><time>2026-05-01T14:01:02.867Z</time></trkpt><trkpt lat="44.18712039094204" lon="10.578847432821297"><ele>1007.0</ele><time>2026-05-01T14:01:03.867Z</time></trkpt><trkpt lat="44.18707299332103" lon="10.578544616689486"><ele>1005.0</ele><time>2026-05-01T14:01:04.867Z</time></trkpt><trkpt lat="44.187032768662" lon="10.578285705337013"><ele>1003.0</ele><time>2026-05-01T14:01:05.867Z</time></trkpt><trkpt lat="44.187024946667634" lon="10.578097052265244"><ele>1003.0</ele><time>2026-05-01T14:01:06.867Z</time></trkpt><trkpt lat="44.18704071184271" lon="10.577912406610235"><ele>1003.0</ele><time>2026-05-01T14:01:07.867Z</time></trkpt><trkpt lat="44.18712696339088" lon="10.577750313508126"><ele>1003.0</ele><time>2026-05-01T14:01:08.867Z</time></trkpt><trkpt lat="44.18722886000154" lon="10.577581628079155"><ele>1003.0</ele><time>2026-05-01T14:01:09.867Z</time></trkpt><trkpt lat="44.1873351433849" lon="10.577425284490849"><ele>1002.0</ele><time>2026-05-01T14:01:10.868Z</time></trkpt><trkpt lat="44.18745984105262" lon="10.577293856145145"><ele>1001.0</ele><time>2026-05-01T14:01:11.868Z</time></trkpt><trkpt lat="44.18759124524678" lon="10.577209649401182"><ele>1000.0</ele><time>2026-05-01T14:01:12.868Z</time></trkpt><trkpt lat="44.18772743289953" lon="10.577163328209211"><ele>999.0</ele><time>2026-05-01T14:01:13.868Z</time></trkpt><trkpt lat="44.187889453912376" lon="10.577123553580904"><ele>999.0</ele><time>2026-05-01T14:01:14.868Z</time></trkpt><trkpt lat="44.188020838067764" lon="10.577074496798927"><ele>999.0</ele><time>2026-05-01T14:01:15.868Z</time></trkpt><trkpt lat="44.18813961546761" lon="10.577044844921296"><ele>999.0</ele><time>2026-05-01T14:01:16.868Z</time></trkpt><trkpt lat="44.1882487091158" lon="10.577004883035343"><ele>999.0</ele><time>2026-05-01T14:01:17.868Z</time></trkpt><trkpt lat="44.188342625346586" lon="10.576942108025568"><ele>998.75</ele><time>2026-05-01T14:01:18.868Z</time></trkpt><trkpt lat="44.18842294208333" lon="10.576830017350083"><ele>998.5</ele><time>2026-05-01T14:01:19.868Z</time></trkpt><trkpt lat="44.18848064049968" lon="10.576664515139944"><ele>998.25</ele><time>2026-05-01T14:01:20.868Z</time></trkpt><trkpt lat="44.18850768044775" lon="10.576491527727839"><ele>998.0</ele><time>2026-05-01T14:01:21.868Z</time></trkpt><trkpt lat="44.18849002505187" lon="10.576337579784845"><ele>997.5</ele><time>2026-05-01T14:01:22.868Z</time></trkpt><trkpt lat="44.18843433351106" lon="10.576171784629253"><ele>997.0</ele><time>2026-05-01T14:01:23.868Z</time></trkpt><trkpt lat="44.18835773535641" lon="10.576010973833665"><ele>996.5</ele><time>2026-05-01T14:01:24.868Z</time></trkpt><trkpt lat="44.18828580163437" lon="10.575879119972118"><ele>996.0</ele><time>2026-05-01T14:01:25.868Z</time></trkpt><trkpt lat="44.18821983821055" lon="10.57574204857686"><ele>996.0</ele><time>2026-05-01T14:01:26.869Z</time></trkpt><trkpt lat="44.18817686936943" lon="10.57557943706654"><ele>996.0</ele><time>2026-05-01T14:01:27.868Z</time></trkpt><trkpt lat="44.188164176405316" lon="10.575408980222136"><ele>996.0</ele><time>2026-05-01T14:01:28.868Z</time></trkpt><trkpt lat="44.188172814916456" lon="10.57521419670117"><ele>996.0</ele><time>2026-05-01T14:01:29.868Z</time></trkpt><trkpt lat="44.18819168684479" lon="10.57501238040371"><ele>995.0</ele><time>2026-05-01T14:01:30.868Z</time></trkpt><trkpt lat="44.18821010085294" lon="10.5747716494085"><ele>994.0</ele><time>2026-05-01T14:01:31.868Z</time></trkpt><trkpt lat="44.188209286350514" lon="10.57445248998885"><ele>993.0</ele><time>2026-05-01T14:01:32.868Z</time></trkpt><trkpt lat="44.188174986740464" lon="10.574115540351798"><ele>999.3333333333333</ele><time>2026-05-01T14:01:33.868Z</time></trkpt><trkpt lat="44.18813675741982" lon="10.573844254695135"><ele>1005.6666666666666</ele><time>2026-05-01T14:01:34.868Z</time></trkpt><trkpt lat="44.188099226135606" lon="10.573604177626887"><ele>1012.0</ele><time>2026-05-01T14:01:35.868Z</time></trkpt><trkpt lat="44.188064868177385" lon="10.573388743852908"><ele>1012.0</ele><time>2026-05-01T14:01:36.868Z</time></trkpt><trkpt lat="44.18808212469874" lon="10.573206559898223"><ele>1012.0</ele><time>2026-05-01T14:01:37.868Z</time></trkpt><trkpt lat="44.18813697872389" lon="10.573051193983982"><ele>1012.0</ele><time>2026-05-01T14:01:38.868Z</time></trkpt><trkpt lat="44.188222672201725" lon="10.572894493566354"><ele>1012.0</ele><time>2026-05-01T14:01:39.868Z</time></trkpt><trkpt lat="44.188295969348694" lon="10.57272708535053"><ele>1007.5</ele><time>2026-05-01T14:01:40.868Z</time></trkpt><trkpt lat="44.1883256907221" lon="10.572561270886062"><ele>1003.0</ele><time>2026-05-01T14:01:41.868Z</time></trkpt><trkpt lat="44.18829973784403" lon="10.572379163135222"><ele>998.5</ele><time>2026-05-01T14:01:42.868Z</time></trkpt><trkpt lat="44.188232571643596" lon="10.572217522719848"><ele>994.0</ele><time>2026-05-01T14:01:43.868Z</time></trkpt><trkpt lat="44.18820344639159" lon="10.572052557748453"><ele>995.0</ele><time>2026-05-01T14:01:44.868Z</time></trkpt><trkpt lat="44.18822298671205" lon="10.57190787135195"><ele>996.0</ele><time>2026-05-01T14:01:45.868Z</time></trkpt><trkpt lat="44.188290538140436" lon="10.571767866868159"><ele>997.0</ele><time>2026-05-01T14:01:46.868Z</time></trkpt><trkpt lat="44.18840285483434" lon="10.571646326085226"><ele>998.0</ele><time>2026-05-01T14:01:47.868Z</time></trkpt><trkpt lat="44.18851383226435" lon="10.571494783457295"><ele>998.0</ele><time>2026-05-01T14:01:48.868Z</time></trkpt><trkpt lat="44.18860096508227" lon="10.571337194721215"><ele>998.0</ele><time>2026-05-01T14:01:49.868Z</time></trkpt><trkpt lat="44.18868649972262" lon="10.571104783277415"><ele>998.0</ele><time>2026-05-01T14:01:50.868Z</time></trkpt><trkpt lat="44.18876461429555" lon="10.570867940233695"><ele>1004.6666666666667</ele><time>2026-05-01T14:01:51.868Z</time></trkpt><trkpt lat="44.18881558835291" lon="10.570630613739741"><ele>1011.3333333333333</ele><time>2026-05-01T14:01:52.868Z</time></trkpt><trkpt lat="44.18889593379449" lon="10.570448673754056"><ele>1018.0</ele><time>2026-05-01T14:01:53.868Z</time></trkpt><trkpt lat="44.1889739406054" lon="10.570320441366432"><ele>1020.5</ele><time>2026-05-01T14:01:54.868Z</time></trkpt><trkpt lat="44.189031741631496" lon="10.570159386087088"><ele>1023.0</ele><time>2026-05-01T14:01:55.868Z</time></trkpt><trkpt lat="44.18904174667009" lon="10.569998471609724"><ele>1025.5</ele><time>2026-05-01T14:01:56.868Z</time></trkpt><trkpt lat="44.18901431944564" lon="10.569819289792198"><ele>1028.0</ele><time>2026-05-01T14:01:57.868Z</time></trkpt><trkpt lat="44.1889640003838" lon="10.569608030497497"><ele>1025.6666666666667</ele><time>2026-05-01T14:01:58.868Z</time></trkpt><trkpt lat="44.188903946907004" lon="10.569376782908595"><ele>1023.3333333333333</ele><time>2026-05-01T14:01:59.868Z</time></trkpt><trkpt lat="44.188835235243424" lon="10.569125025890328"><ele>1021.0</ele><time>2026-05-01T14:02:00.868Z</time></trkpt><trkpt lat="44.188767199222866" lon="10.568891440587036"><ele>1016.0</ele><time>2026-05-01T14:02:01.868Z</time></trkpt><trkpt lat="44.18870130986582" lon="10.56866623480122"><ele>1011.0</ele><time>2026-05-01T14:02:02.868Z</time></trkpt><trkpt lat="44.188643728030605" lon="10.568463433721796"><ele>1006.0</ele><time>2026-05-01T14:02:03.868Z</time></trkpt><trkpt lat="44.188585892152474" lon="10.568255487376918"><ele>1006.0</ele><time>2026-05-01T14:02:04.868Z</time></trkpt><trkpt lat="44.1885273044386" lon="10.56805284505915"><ele>1006.0</ele><time>2026-05-01T14:02:05.868Z</time></trkpt><trkpt lat="44.18844265706395" lon="10.567851373041337"><ele>1006.0</ele><time>2026-05-01T14:02:06.868Z</time></trkpt><trkpt lat="44.188346523681844" lon="10.567684685893381"><ele>1010.0</ele><time>2026-05-01T14:02:07.868Z</time></trkpt><trkpt lat="44.18823392673051" lon="10.567517352744693"><ele>1014.0</ele><time>2026-05-01T14:02:08.868Z</time></trkpt><trkpt lat="44.18811549637078" lon="10.567363598660624"><ele>1018.0</ele><time>2026-05-01T14:02:09.868Z</time></trkpt><trkpt lat="44.18798757537626" lon="10.567227288162114"><ele>1018.0</ele><time>2026-05-01T14:02:10.868Z</time></trkpt><trkpt lat="44.187858314634035" lon="10.56710971607869"><ele>1018.0</ele><time>2026-05-01T14:02:11.868Z</time></trkpt><trkpt lat="44.18774422384045" lon="10.567005091046251"><ele>1018.0</ele><time>2026-05-01T14:02:12.868Z</time></trkpt><trkpt lat="44.18764817856731" lon="10.566902180669455"><ele>1018.0</ele><time>2026-05-01T14:02:13.868Z</time></trkpt><trkpt lat="44.18757614224635" lon="10.566789016174944"><ele>1012.25</ele><time>2026-05-01T14:02:14.868Z</time></trkpt><trkpt lat="44.18752563676223" lon="10.566621296622408"><ele>1006.5</ele><time>2026-05-01T14:02:15.868Z</time></trkpt><trkpt lat="44.18747776107451" lon="10.566421647091172"><ele>1000.75</ele><time>2026-05-01T14:02:16.868Z</time></trkpt><trkpt lat="44.18743372962748" lon="10.566238029015825"><ele>995.0</ele><time>2026-05-01T14:02:17.868Z</time></trkpt><trkpt lat="44.18738111640184" lon="10.566082872712581"><ele>994.75</ele><time>2026-05-01T14:02:18.868Z</time></trkpt><trkpt lat="44.18729850406209" lon="10.565955372451628"><ele>994.5</ele><time>2026-05-01T14:02:19.868Z</time></trkpt><trkpt lat="44.187186578279274" lon="10.565874075985406"><ele>994.25</ele><time>2026-05-01T14:02:20.868Z</time></trkpt><trkpt lat="44.18705965906562" lon="10.565832870716939"><ele>994.0</ele><time>2026-05-01T14:02:21.868Z</time></trkpt><trkpt lat="44.18693623791453" lon="10.565791154340902"><ele>994.0</ele><time>2026-05-01T14:02:22.868Z</time></trkpt><trkpt lat="44.186815962034814" lon="10.565744101694232"><ele>994.0000000000001</ele><time>2026-05-01T14:02:23.868Z</time></trkpt><trkpt lat="44.18670569312726" lon="10.565695480343761"><ele>994.0000000000001</ele><time>2026-05-01T14:02:24.868Z</time></trkpt><trkpt lat="44.186603194664265" lon="10.5656448566873"><ele>994.0</ele><time>2026-05-01T14:02:25.868Z</time></trkpt><trkpt lat="44.18655371868763" lon="10.565579707820868"><ele>994.0</ele><time>2026-05-01T14:02:26.868Z</time></trkpt><trkpt lat="44.18649805612462" lon="10.565473139845054"><ele>993.6</ele><time>2026-05-01T14:02:27.868Z</time></trkpt><trkpt lat="44.18650572631148" lon="10.565329979120973"><ele>993.2</ele><time>2026-05-01T14:02:28.868Z</time></trkpt><trkpt lat="44.18652489560792" lon="10.565157229460516"><ele>992.8000000000001</ele><time>2026-05-01T14:02:29.868Z</time></trkpt><trkpt lat="44.18654412585438" lon="10.565055516607634"><ele>992.4000000000001</ele><time>2026-05-01T14:02:30.868Z</time></trkpt><trkpt lat="44.18648907665962" lon="10.564993548785864"><ele>992.0</ele><time>2026-05-01T14:02:31.868Z</time></trkpt><trkpt lat="44.18651020177462" lon="10.56485014127632"><ele>988.5</ele><time>2026-05-01T14:02:32.868Z</time></trkpt><trkpt lat="44.186598473320075" lon="10.5647208563113"><ele>985.0</ele><time>2026-05-01T14:02:33.868Z</time></trkpt><trkpt lat="44.18672610960718" lon="10.564657482438864"><ele>981.5</ele><time>2026-05-01T14:02:34.868Z</time></trkpt><trkpt lat="44.18689033725219" lon="10.564650112658093"><ele>978.0</ele><time>2026-05-01T14:02:35.868Z</time></trkpt><trkpt lat="44.18706767663414" lon="10.56456280657966"><ele>983.3333333333333</ele><time>2026-05-01T14:02:36.868Z</time></trkpt><trkpt lat="44.18724537600313" lon="10.564492326656167"><ele>988.6666666666666</ele><time>2026-05-01T14:02:37.868Z</time></trkpt><trkpt lat="44.187427221712376" lon="10.564450538497688"><ele>994.0</ele><time>2026-05-01T14:02:38.868Z</time></trkpt><trkpt lat="44.18760052960051" lon="10.564419058800231"><ele>994.25</ele><time>2026-05-01T14:02:39.868Z</time></trkpt><trkpt lat="44.18773908907737" lon="10.564426607622025"><ele>994.5</ele><time>2026-05-01T14:02:40.868Z</time></trkpt><trkpt lat="44.187879597511774" lon="10.564450582638456"><ele>994.75</ele><time>2026-05-01T14:02:41.868Z</time></trkpt><trkpt lat="44.18799480874831" lon="10.5644667667034"><ele>995.0</ele><time>2026-05-01T14:02:42.868Z</time></trkpt><trkpt lat="44.18809026012816" lon="10.564457394712925"><ele>995.0</ele><time>2026-05-01T14:02:43.868Z</time></trkpt><trkpt lat="44.1881574338063" lon="10.56436871727772"><ele>995.0</ele><time>2026-05-01T14:02:44.868Z</time></trkpt><trkpt lat="44.18820905439032" lon="10.564269493952137"><ele>995.0</ele><time>2026-05-01T14:02:45.868Z</time></trkpt><trkpt lat="44.188223081793296" lon="10.564127146069733"><ele>995.0</ele><time>2026-05-01T14:02:46.868Z</time></trkpt><trkpt lat="44.18821578018586" lon="10.563938500489103"><ele>995.0</ele><time>2026-05-01T14:02:47.868Z</time></trkpt><trkpt lat="44.188216461760874" lon="10.563689798205061"><ele>995.0</ele><time>2026-05-01T14:02:48.868Z</time></trkpt><trkpt lat="44.18822922878189" lon="10.563411531398998"><ele>995.0</ele><time>2026-05-01T14:02:49.868Z</time></trkpt><trkpt lat="44.18824996521234" lon="10.563131790619536"><ele>995.0</ele><time>2026-05-01T14:02:50.868Z</time></trkpt><trkpt lat="44.18826519802057" lon="10.562856080294518"><ele>996.0</ele><time>2026-05-01T14:02:51.868Z</time></trkpt><trkpt lat="44.18828793103401" lon="10.562581518277547"><ele>997.0</ele><time>2026-05-01T14:02:52.868Z</time></trkpt><trkpt lat="44.188316720393296" lon="10.562350280699015"><ele>998.0</ele><time>2026-05-01T14:02:53.868Z</time></trkpt><trkpt lat="44.188316690004356" lon="10.562133763193705"><ele>1000.75</ele><time>2026-05-01T14:02:54.868Z</time></trkpt><trkpt lat="44.18830667674474" lon="10.561953277438878"><ele>1003.5</ele><time>2026-05-01T14:02:55.868Z</time></trkpt><trkpt lat="44.18830728637247" lon="10.56179276309851"><ele>1006.25</ele><time>2026-05-01T14:02:56.868Z</time></trkpt><trkpt lat="44.1883125532132" lon="10.561651459314753"><ele>1009.0</ele><time>2026-05-01T14:02:57.868Z</time></trkpt><trkpt lat="44.18841305845371" lon="10.561579302071562"><ele>1009.0</ele><time>2026-05-01T14:02:58.868Z</time></trkpt><trkpt lat="44.188498254243676" lon="10.561511393172776"><ele>1009.0000000000001</ele><time>2026-05-01T14:02:59.868Z</time></trkpt><trkpt lat="44.188587000853055" lon="10.561479337400378"><ele>1009.0000000000001</ele><time>2026-05-01T14:03:00.868Z</time></trkpt><trkpt lat="44.18867403511446" lon="10.561574078459708"><ele>1009.0</ele><time>2026-05-01T14:03:01.868Z</time></trkpt><trkpt lat="44.188771736519314" lon="10.56161744243687"><ele>1009.0</ele><time>2026-05-01T14:03:02.868Z</time></trkpt><trkpt lat="44.18891348401498" lon="10.561619300676345"><ele>1009.0</ele><time>2026-05-01T14:03:03.868Z</time></trkpt><trkpt lat="44.189030738804924" lon="10.561601691439353"><ele>1009.0</ele><time>2026-05-01T14:03:04.868Z</time></trkpt><trkpt lat="44.18915836283263" lon="10.561535054845676"><ele>1009.0</ele><time>2026-05-01T14:03:05.868Z</time></trkpt><trkpt lat="44.18927792381078" lon="10.561448013026205"><ele>1009.0</ele><time>2026-05-01T14:03:06.868Z</time></trkpt><trkpt lat="44.18938577756758" lon="10.561305981439089"><ele>1012.3333333333333</ele><time>2026-05-01T14:03:07.868Z</time></trkpt><trkpt lat="44.18950119704664" lon="10.561167852444006"><ele>1015.6666666666667</ele><time>2026-05-01T14:03:08.868Z</time></trkpt><trkpt lat="44.18961033804484" lon="10.560994528062638"><ele>1019.0</ele><time>2026-05-01T14:03:09.868Z</time></trkpt><trkpt lat="44.18970563249704" lon="10.560819628303493"><ele>1019.0</ele><time>2026-05-01T14:03:10.868Z</time></trkpt><trkpt lat="44.189784316786685" lon="10.560668925688804"><ele>1019.0000000000001</ele><time>2026-05-01T14:03:11.868Z</time></trkpt><trkpt lat="44.189845301805434" lon="10.560538274607524"><ele>1019.0000000000001</ele><time>2026-05-01T14:03:12.868Z</time></trkpt><trkpt lat="44.18987087409695" lon="10.560409272225296"><ele>1019.0</ele><time>2026-05-01T14:03:13.868Z</time></trkpt><trkpt lat="44.18988040275856" lon="10.560294157653395"><ele>1019.0</ele><time>2026-05-01T14:03:14.868Z</time></trkpt><trkpt lat="44.18984348758365" lon="10.560163646413182"><ele>1019.4000000000001</ele><time>2026-05-01T14:03:15.868Z</time></trkpt><trkpt lat="44.18981016345884" lon="10.560032798899423"><ele>1019.8000000000001</ele><time>2026-05-01T14:03:16.868Z</time></trkpt><trkpt lat="44.18980634660451" lon="10.559878223650948"><ele>1020.1999999999999</ele><time>2026-05-01T14:03:17.868Z</time></trkpt><trkpt lat="44.18983371390236" lon="10.559710728788335"><ele>1020.5999999999999</ele><time>2026-05-01T14:03:18.868Z</time></trkpt><trkpt lat="44.18986880469359" lon="10.559560206686124"><ele>1021.0</ele><time>2026-05-01T14:03:19.868Z</time></trkpt><trkpt lat="44.1898797092424" lon="10.55943544150602"><ele>1022.5</ele><time>2026-05-01T14:03:20.868Z</time></trkpt><trkpt lat="44.18985781188291" lon="10.559296986733615"><ele>1024.0</ele><time>2026-05-01T14:03:21.868Z</time></trkpt><trkpt lat="44.18976578642565" lon="10.559185226174794"><ele>1025.5</ele><time>2026-05-01T14:03:22.868Z</time></trkpt><trkpt lat="44.189723983686825" lon="10.559026902523549"><ele>1027.0</ele><time>2026-05-01T14:03:23.868Z</time></trkpt><trkpt lat="44.18973876934139" lon="10.55888147967501"><ele>1029.25</ele><time>2026-05-01T14:03:24.868Z</time></trkpt><trkpt lat="44.18978148551429" lon="10.558724030037855"><ele>1031.5</ele><time>2026-05-01T14:03:25.868Z</time></trkpt><trkpt lat="44.18984044590156" lon="10.55854184243654"><ele>1033.75</ele><time>2026-05-01T14:03:26.868Z</time></trkpt><trkpt lat="44.189921774134625" lon="10.558367670415977"><ele>1036.0</ele><time>2026-05-01T14:03:27.868Z</time></trkpt><trkpt lat="44.19000642384546" lon="10.55820882521962"><ele>1036.0</ele><time>2026-05-01T14:03:28.868Z</time></trkpt><trkpt lat="44.190059816780604" lon="10.558031054450387"><ele>1036.0</ele><time>2026-05-01T14:03:29.867Z</time></trkpt><trkpt lat="44.19008274932939" lon="10.557817334682955"><ele>1036.0</ele><time>2026-05-01T14:03:30.868Z</time></trkpt><trkpt lat="44.19007204127618" lon="10.557599358208492"><ele>1039.3333333333333</ele><time>2026-05-01T14:03:31.868Z</time></trkpt><trkpt lat="44.190046461379076" lon="10.557393087056642"><ele>1042.6666666666667</ele><time>2026-05-01T14:03:32.867Z</time></trkpt><trkpt lat="44.19003917100492" lon="10.55718147969259"><ele>1046.0</ele><time>2026-05-01T14:03:33.867Z</time></trkpt><trkpt lat="44.19006823622996" lon="10.556957797729863"><ele>1048.2</ele><time>2026-05-01T14:03:34.867Z</time></trkpt><trkpt lat="44.1900219982974" lon="10.556758565893697"><ele>1050.3999999999999</ele><time>2026-05-01T14:03:35.867Z</time></trkpt><trkpt lat="44.19000315205552" lon="10.55662052697574"><ele>1052.6</ele><time>2026-05-01T14:03:36.868Z</time></trkpt><trkpt lat="44.19001854197338" lon="10.556511623967634"><ele>1054.8</ele><time>2026-05-01T14:03:37.868Z</time></trkpt><trkpt lat="44.19007051094024" lon="10.556417339131391"><ele>1057.0</ele><time>2026-05-01T14:03:38.868Z</time></trkpt><trkpt lat="44.19017555326802" lon="10.556377373413884"><ele>1057.0</ele><time>2026-05-01T14:03:39.868Z</time></trkpt><trkpt lat="44.19029339483624" lon="10.556372797634848"><ele>1057.0</ele><time>2026-05-01T14:03:40.868Z</time></trkpt><trkpt lat="44.19041464499155" lon="10.55639904125827"><ele>1057.0</ele><time>2026-05-01T14:03:41.867Z</time></trkpt><trkpt lat="44.190526497325976" lon="10.556421313253491"><ele>1057.0</ele><time>2026-05-01T14:03:42.868Z</time></trkpt><trkpt lat="44.19063155987182" lon="10.55639425416643"><ele>1056.0</ele><time>2026-05-01T14:03:43.868Z</time></trkpt><trkpt lat="44.19073046564317" lon="10.556342494257512"><ele>1055.0</ele><time>2026-05-01T14:03:44.868Z</time></trkpt><trkpt lat="44.190817390463046" lon="10.556278015509433"><ele>1054.0</ele><time>2026-05-01T14:03:45.868Z</time></trkpt><trkpt lat="44.190880966080414" lon="10.556210811809677"><ele>1053.0</ele><time>2026-05-01T14:03:46.868Z</time></trkpt><trkpt lat="44.190918565896226" lon="10.556111700637265"><ele>1052.0</ele><time>2026-05-01T14:03:47.868Z</time></trkpt><trkpt lat="44.190914162149376" lon="10.555979815335597"><ele>1052.0</ele><time>2026-05-01T14:03:48.868Z</time></trkpt><trkpt lat="44.19086886267713" lon="10.555816644653548"><ele>1052.0</ele><time>2026-05-01T14:03:49.868Z</time></trkpt><trkpt lat="44.19081862299661" lon="10.555649868795348"><ele>1052.0</ele><time>2026-05-01T14:03:50.868Z</time></trkpt><trkpt lat="44.19073538014688" lon="10.555496724246145"><ele>1052.0</ele><time>2026-05-01T14:03:51.868Z</time></trkpt><trkpt lat="44.19063769876365" lon="10.555366661987895"><ele>1053.25</ele><time>2026-05-01T14:03:52.868Z</time></trkpt><trkpt lat="44.190529492972665" lon="10.555232604965093"><ele>1054.5</ele><time>2026-05-01T14:03:53.868Z</time></trkpt><trkpt lat="44.19044117647642" lon="10.555089550755547"><ele>1055.75</ele><time>2026-05-01T14:03:54.868Z</time></trkpt><trkpt lat="44.19033425468981" lon="10.55497112390846"><ele>1057.0</ele><time>2026-05-01T14:03:55.868Z</time></trkpt><trkpt lat="44.19026792129974" lon="10.55479287008851"><ele>1057.0</ele><time>2026-05-01T14:03:56.868Z</time></trkpt><trkpt lat="44.19021613079223" lon="10.554602903058555"><ele>1057.0</ele><time>2026-05-01T14:03:57.868Z</time></trkpt><trkpt lat="44.19017613101144" lon="10.554414859242865"><ele>1057.0</ele><time>2026-05-01T14:03:58.868Z</time></trkpt><trkpt lat="44.19019309336414" lon="10.55423390929932"><ele>1057.0</ele><time>2026-05-01T14:03:59.868Z</time></trkpt><trkpt lat="44.19019936591565" lon="10.55407395652993"><ele>1057.5</ele><time>2026-05-01T14:04:00.868Z</time></trkpt><trkpt lat="44.19026309592608" lon="10.55394254010735"><ele>1058.0</ele><time>2026-05-01T14:04:01.868Z</time></trkpt><trkpt lat="44.190355902882075" lon="10.553814069523881"><ele>1058.5</ele><time>2026-05-01T14:04:02.868Z</time></trkpt><trkpt lat="44.190473248249695" lon="10.553653354301181"><ele>1059.0</ele><time>2026-05-01T14:04:03.868Z</time></trkpt><trkpt lat="44.190614606536684" lon="10.553515780648034"><ele>1059.0</ele><time>2026-05-01T14:04:04.868Z</time></trkpt><trkpt lat="44.19075325006831" lon="10.553391104142248"><ele>1059.0</ele><time>2026-05-01T14:04:05.868Z</time></trkpt><trkpt lat="44.19091731943487" lon="10.5532822707194"><ele>1059.0</ele><time>2026-05-01T14:04:06.868Z</time></trkpt><trkpt lat="44.19109105368622" lon="10.553206687931295"><ele>1059.0</ele><time>2026-05-01T14:04:07.868Z</time></trkpt><trkpt lat="44.19126146909695" lon="10.553130560575234"><ele>1059.0</ele><time>2026-05-01T14:04:08.868Z</time></trkpt><trkpt lat="44.191413851358114" lon="10.553082035077287"><ele>1059.0</ele><time>2026-05-01T14:04:09.868Z</time></trkpt><trkpt lat="44.19154392529109" lon="10.55303591749775"><ele>1058.8</ele><time>2026-05-01T14:04:10.868Z</time></trkpt><trkpt lat="44.19166334462682" lon="10.55301480674888"><ele>1058.6000000000001</ele><time>2026-05-01T14:04:11.868Z</time></trkpt><trkpt lat="44.191759057531996" lon="10.55295362652673"><ele>1058.4</ele><time>2026-05-01T14:04:12.867Z</time></trkpt><trkpt lat="44.19183024512999" lon="10.552865795283397"><ele>1058.2</ele><time>2026-05-01T14:04:13.867Z</time></trkpt><trkpt lat="44.19189178653364" lon="10.552775898973636"><ele>1058.0</ele><time>2026-05-01T14:04:14.867Z</time></trkpt><trkpt lat="44.19194774138017" lon="10.552641229429696"><ele>1060.6</ele><time>2026-05-01T14:04:15.867Z</time></trkpt><trkpt lat="44.19199250933314" lon="10.552472321388356"><ele>1063.1999999999998</ele><time>2026-05-01T14:04:16.867Z</time></trkpt><trkpt lat="44.192044627768475" lon="10.552320808393112"><ele>1065.8</ele><time>2026-05-01T14:04:17.867Z</time></trkpt><trkpt lat="44.19209417087397" lon="10.552199270025408"><ele>1068.3999999999999</ele><time>2026-05-01T14:04:18.867Z</time></trkpt><trkpt lat="44.19213444499972" lon="10.552096361113042"><ele>1071.0</ele><time>2026-05-01T14:04:19.867Z</time></trkpt><trkpt lat="44.192134047905576" lon="10.551960458728493"><ele>1072.5</ele><time>2026-05-01T14:04:20.867Z</time></trkpt><trkpt lat="44.19207123639802" lon="10.551791786669888"><ele>1074.0</ele><time>2026-05-01T14:04:21.867Z</time></trkpt><trkpt lat="44.192010817084636" lon="10.55161960084057"><ele>1075.5</ele><time>2026-05-01T14:04:22.867Z</time></trkpt><trkpt lat="44.19197390884425" lon="10.55147925656847"><ele>1077.0</ele><time>2026-05-01T14:04:23.867Z</time></trkpt><trkpt lat="44.19189943983196" lon="10.551398600085411"><ele>1077.0</ele><time>2026-05-01T14:04:24.867Z</time></trkpt><trkpt lat="44.191829303237995" lon="10.551328750233"><ele>1077.0</ele><time>2026-05-01T14:04:25.867Z</time></trkpt><trkpt lat="44.1917108043476" lon="10.551375228670059"><ele>1077.0</ele><time>2026-05-01T14:04:26.867Z</time></trkpt><trkpt lat="44.19157862100421" lon="10.55140397220887"><ele>1077.0</ele><time>2026-05-01T14:04:27.867Z</time></trkpt><trkpt lat="44.19145199357565" lon="10.551446359129779"><ele>1077.8333333333333</ele><time>2026-05-01T14:04:28.867Z</time></trkpt><trkpt lat="44.191337852682075" lon="10.551484306017352"><ele>1078.6666666666667</ele><time>2026-05-01T14:04:29.867Z</time></trkpt><trkpt lat="44.19123844998316" lon="10.55151332629486"><ele>1079.5</ele><time>2026-05-01T14:04:30.867Z</time></trkpt><trkpt lat="44.19117247526975" lon="10.551528882706332"><ele>1080.3333333333335</ele><time>2026-05-01T14:04:31.867Z</time></trkpt><trkpt lat="44.191109881406426" lon="10.551515063381617"><ele>1081.1666666666667</ele><time>2026-05-01T14:04:32.867Z</time></trkpt><trkpt lat="44.19107831916151" lon="10.551428600508329"><ele>1082.0</ele><time>2026-05-01T14:04:33.867Z</time></trkpt><trkpt lat="44.19111077057132" lon="10.551330007340763"><ele>1082.0</ele><time>2026-05-01T14:04:34.867Z</time></trkpt><trkpt lat="44.191181594506034" lon="10.551239197219369"><ele>1082.0</ele><time>2026-05-01T14:04:35.867Z</time></trkpt><trkpt lat="44.19124652447376" lon="10.551138040850113"><ele>1082.0</ele><time>2026-05-01T14:04:36.867Z</time></trkpt><trkpt lat="44.19131722757421" lon="10.551028878211495"><ele>1082.0</ele><time>2026-05-01T14:04:37.867Z</time></trkpt><trkpt lat="44.19139976585344" lon="10.550908300920936"><ele>1082.0</ele><time>2026-05-01T14:04:38.867Z</time></trkpt><trkpt lat="44.19147949378186" lon="10.550790739370761"><ele>1083.0</ele><time>2026-05-01T14:04:39.867Z</time></trkpt><trkpt lat="44.19154535317748" lon="10.550641001924024"><ele>1084.0</ele><time>2026-05-01T14:04:40.867Z</time></trkpt><trkpt lat="44.1915907318714" lon="10.550456068788655"><ele>1085.0</ele><time>2026-05-01T14:04:41.867Z</time></trkpt><trkpt lat="44.19159185099587" lon="10.550244966466863"><ele>1086.0</ele><time>2026-05-01T14:04:42.867Z</time></trkpt><trkpt lat="44.19157139333475" lon="10.55003830827992"><ele>1087.0</ele><time>2026-05-01T14:04:43.867Z</time></trkpt><trkpt lat="44.19157506431253" lon="10.54986684696532"><ele>1088.0</ele><time>2026-05-01T14:04:44.867Z</time></trkpt><trkpt lat="44.19157394643284" lon="10.549737824431112"><ele>1089.0</ele><time>2026-05-01T14:04:45.867Z</time></trkpt><trkpt lat="44.191592110440276" lon="10.549614789722009"><ele>1090.0</ele><time>2026-05-01T14:04:46.867Z</time></trkpt><trkpt lat="44.191674929414226" lon="10.549480157632193"><ele>1091.0</ele><time>2026-05-01T14:04:47.867Z</time></trkpt><trkpt lat="44.19176140422702" lon="10.549262174930185"><ele>1093.3333333333335</ele><time>2026-05-01T14:04:48.867Z</time></trkpt><trkpt lat="44.19185876615381" lon="10.54905791191289"><ele>1095.6666666666667</ele><time>2026-05-01T14:04:49.867Z</time></trkpt><trkpt lat="44.191939855938074" lon="10.548876442579232"><ele>1098.0</ele><time>2026-05-01T14:04:50.867Z</time></trkpt><trkpt lat="44.19201784391155" lon="10.548726589982119"><ele>1098.5</ele><time>2026-05-01T14:04:51.867Z</time></trkpt><trkpt lat="44.192106079041245" lon="10.54858017829634"><ele>1099.0</ele><time>2026-05-01T14:04:52.867Z</time></trkpt><trkpt lat="44.19221714333847" lon="10.54850622011488"><ele>1099.5</ele><time>2026-05-01T14:04:53.867Z</time></trkpt><trkpt lat="44.19234383387678" lon="10.548495345974418"><ele>1100.0</ele><time>2026-05-01T14:04:54.867Z</time></trkpt><trkpt lat="44.19247396186229" lon="10.548552308055157"><ele>1100.0</ele><time>2026-05-01T14:04:55.867Z</time></trkpt><trkpt lat="44.19258463308555" lon="10.548596864021926"><ele>1100.0</ele><time>2026-05-01T14:04:56.867Z</time></trkpt><trkpt lat="44.19268176299051" lon="10.548606551257848"><ele>1100.0</ele><time>2026-05-01T14:04:57.867Z</time></trkpt><trkpt lat="44.19276993182236" lon="10.548609657258085"><ele>1100.0</ele><time>2026-05-01T14:04:58.867Z</time></trkpt><trkpt lat="44.19287028441097" lon="10.548591558345963"><ele>1100.0</ele><time>2026-05-01T14:04:59.867Z</time></trkpt><trkpt lat="44.192941776174116" lon="10.548575467817258"><ele>1100.0</ele><time>2026-05-01T14:05:00.867Z</time></trkpt><trkpt lat="44.193022502979794" lon="10.548486310080849"><ele>1100.0</ele><time>2026-05-01T14:05:02.867Z</time></trkpt><trkpt lat="44.19305815941364" lon="10.548306622871491"><ele>1100.0</ele><time>2026-05-01T14:05:04.867Z</time></trkpt><trkpt lat="44.19305260636543" lon="10.548200390842648"><ele>1100.0</ele><time>2026-05-01T14:05:05.867Z</time></trkpt><trkpt lat="44.19305467961895" lon="10.54810244551768"><ele>1100.0</ele><time>2026-05-01T14:05:06.867Z</time></trkpt><trkpt lat="44.19307765034586" lon="10.548019545753357"><ele>1100.0</ele><time>2026-05-01T14:05:07.867Z</time></trkpt><trkpt lat="44.19312152892465" lon="10.547922763774825"><ele>1101.0</ele><time>2026-05-01T14:05:08.867Z</time></trkpt><trkpt lat="44.193164065454674" lon="10.54781310531525"><ele>1102.0</ele><time>2026-05-01T14:05:09.867Z</time></trkpt><trkpt lat="44.19321973529451" lon="10.547714088185828"><ele>1103.0</ele><time>2026-05-01T14:05:10.867Z</time></trkpt><trkpt lat="44.19328403198442" lon="10.547613793238128"><ele>1104.0</ele><time>2026-05-01T14:05:11.867Z</time></trkpt><trkpt lat="44.193337248193245" lon="10.547507730539168"><ele>1105.0</ele><time>2026-05-01T14:05:12.867Z</time></trkpt><trkpt lat="44.193402574575366" lon="10.547388875313576"><ele>1105.0</ele><time>2026-05-01T14:05:13.867Z</time></trkpt><trkpt lat="44.19346070635203" lon="10.547282154564511"><ele>1105.0</ele><time>2026-05-01T14:05:14.867Z</time></trkpt><trkpt lat="44.1935376093382" lon="10.547166253309216"><ele>1105.0</ele><time>2026-05-01T14:05:15.867Z</time></trkpt><trkpt lat="44.193596513872556" lon="10.547021572273893"><ele>1105.0</ele><time>2026-05-01T14:05:16.867Z</time></trkpt><trkpt lat="44.193631849446945" lon="10.546856721492192"><ele>1106.8</ele><time>2026-05-01T14:05:17.867Z</time></trkpt><trkpt lat="44.19365041230553" lon="10.546695017721333"><ele>1108.6</ele><time>2026-05-01T14:05:18.867Z</time></trkpt><trkpt lat="44.19365819884754" lon="10.546553798495585"><ele>1110.4</ele><time>2026-05-01T14:05:19.867Z</time></trkpt><trkpt lat="44.193663951300366" lon="10.546418142853485"><ele>1112.2</ele><time>2026-05-01T14:05:20.867Z</time></trkpt><trkpt lat="44.193715158413944" lon="10.546291337979742"><ele>1114.0</ele><time>2026-05-01T14:05:21.867Z</time></trkpt><trkpt lat="44.19379833394882" lon="10.54617153687357"><ele>1114.5</ele><time>2026-05-01T14:05:22.867Z</time></trkpt><trkpt lat="44.193902445006785" lon="10.546083081877745"><ele>1115.0</ele><time>2026-05-01T14:05:23.867Z</time></trkpt><trkpt lat="44.194004193822956" lon="10.545998676573195"><ele>1115.5</ele><time>2026-05-01T14:05:24.867Z</time></trkpt><trkpt lat="44.19410470876651" lon="10.545917209655308"><ele>1116.0</ele><time>2026-05-01T14:05:25.867Z</time></trkpt><trkpt lat="44.19419565222558" lon="10.545843355192215"><ele>1116.0</ele><time>2026-05-01T14:05:26.867Z</time></trkpt><trkpt lat="44.194286764762886" lon="10.545761377900138"><ele>1116.0</ele><time>2026-05-01T14:05:27.867Z</time></trkpt><trkpt lat="44.19437729094617" lon="10.545683222121054"><ele>1116.0</ele><time>2026-05-01T14:05:28.867Z</time></trkpt><trkpt lat="44.19446128730287" lon="10.545619880836531"><ele>1116.0</ele><time>2026-05-01T14:05:29.867Z</time></trkpt><trkpt lat="44.194542601952165" lon="10.545551887067745"><ele>1116.0</ele><time>2026-05-01T14:05:30.867Z</time></trkpt><trkpt lat="44.19461135226834" lon="10.545488881862454"><ele>1116.0</ele><time>2026-05-01T14:05:31.867Z</time></trkpt><trkpt lat="44.19466177120078" lon="10.545424557295686"><ele>1116.0</ele><time>2026-05-01T14:05:32.867Z</time></trkpt><trkpt lat="44.19472029230475" lon="10.545281046479836"><ele>1116.0</ele><time>2026-05-01T14:05:34.867Z</time></trkpt><trkpt lat="44.19472924635075" lon="10.545165210898755"><ele>1116.0</ele><time>2026-05-01T14:05:35.867Z</time></trkpt><trkpt lat="44.19470548372885" lon="10.54499622407731"><ele>1116.0</ele><time>2026-05-01T14:05:36.867Z</time></trkpt><trkpt lat="44.19466520299449" lon="10.544824434106536"><ele>1117.0</ele><time>2026-05-01T14:05:37.867Z</time></trkpt><trkpt lat="44.19462345935016" lon="10.54464640494738"><ele>1118.0</ele><time>2026-05-01T14:05:38.868Z</time></trkpt><trkpt lat="44.19458899626978" lon="10.54449942605487"><ele>1119.0</ele><time>2026-05-01T14:05:39.868Z</time></trkpt><trkpt lat="44.194564397929184" lon="10.544365073434557"><ele>1120.0</ele><time>2026-05-01T14:05:40.868Z</time></trkpt><trkpt lat="44.19455930244452" lon="10.544251821955335"><ele>1121.0</ele><time>2026-05-01T14:05:41.868Z</time></trkpt><trkpt lat="44.19462808339138" lon="10.544161413013754"><ele>1122.75</ele><time>2026-05-01T14:05:42.868Z</time></trkpt><trkpt lat="44.19473242307715" lon="10.544119411989666"><ele>1124.5</ele><time>2026-05-01T14:05:43.868Z</time></trkpt><trkpt lat="44.19484068266781" lon="10.544096608464026"><ele>1126.25</ele><time>2026-05-01T14:05:44.868Z</time></trkpt><trkpt lat="44.19495699943251" lon="10.544070127582055"><ele>1128.0</ele><time>2026-05-01T14:05:45.867Z</time></trkpt><trkpt lat="44.195077891014215" lon="10.544043982041545"><ele>1128.0</ele><time>2026-05-01T14:05:46.867Z</time></trkpt><trkpt lat="44.195184981897015" lon="10.544004074424143"><ele>1128.0</ele><time>2026-05-01T14:05:47.868Z</time></trkpt><trkpt lat="44.19528133886424" lon="10.543935762405855"><ele>1128.0</ele><time>2026-05-01T14:05:48.867Z</time></trkpt><trkpt lat="44.19536569623443" lon="10.543840932891321"><ele>1128.0</ele><time>2026-05-01T14:05:49.867Z</time></trkpt><trkpt lat="44.19543272602245" lon="10.54371948426709"><ele>1128.0</ele><time>2026-05-01T14:05:50.867Z</time></trkpt><trkpt lat="44.19549014156011" lon="10.543594888742874"><ele>1129.25</ele><time>2026-05-01T14:05:51.867Z</time></trkpt><trkpt lat="44.19554381970823" lon="10.543454749250746"><ele>1130.5</ele><time>2026-05-01T14:05:52.867Z</time></trkpt><trkpt lat="44.19559355691934" lon="10.54332495133021"><ele>1131.75</ele><time>2026-05-01T14:05:53.867Z</time></trkpt><trkpt lat="44.19565286092579" lon="10.54318578119572"><ele>1133.0</ele><time>2026-05-01T14:05:54.867Z</time></trkpt><trkpt lat="44.19571191529558" lon="10.543030964157788"><ele>1133.75</ele><time>2026-05-01T14:05:55.867Z</time></trkpt><trkpt lat="44.195756905910905" lon="10.54286638821627"><ele>1134.5</ele><time>2026-05-01T14:05:56.867Z</time></trkpt><trkpt lat="44.19578175193951" lon="10.542692344286229"><ele>1135.25</ele><time>2026-05-01T14:05:57.867Z</time></trkpt><trkpt lat="44.195799599386646" lon="10.54251340587315"><ele>1136.0</ele><time>2026-05-01T14:05:58.867Z</time></trkpt><trkpt lat="44.19581777835542" lon="10.542346146610788"><ele>1136.0</ele><time>2026-05-01T14:05:59.867Z</time></trkpt><trkpt lat="44.19582170502373" lon="10.542176786106042"><ele>1136.0</ele><time>2026-05-01T14:06:00.867Z</time></trkpt><trkpt lat="44.195825428351995" lon="10.542006359917224"><ele>1136.0</ele><time>2026-05-01T14:06:01.867Z</time></trkpt><trkpt lat="44.19583241450689" lon="10.541830854248595"><ele>1136.0</ele><time>2026-05-01T14:06:02.867Z</time></trkpt><trkpt lat="44.195820460557904" lon="10.541642968239884"><ele>1137.75</ele><time>2026-05-01T14:06:03.867Z</time></trkpt><trkpt lat="44.19579901312964" lon="10.541454461112329"><ele>1139.5</ele><time>2026-05-01T14:06:04.867Z</time></trkpt><trkpt lat="44.19577188030738" lon="10.54127781584333"><ele>1141.25</ele><time>2026-05-01T14:06:05.867Z</time></trkpt><trkpt lat="44.19575324104823" lon="10.541093177388726"><ele>1143.0</ele><time>2026-05-01T14:06:06.867Z</time></trkpt><trkpt lat="44.195692811091156" lon="10.54089208291011"><ele>1146.6666666666667</ele><time>2026-05-01T14:06:07.867Z</time></trkpt><trkpt lat="44.19559914394951" lon="10.540709547560372"><ele>1150.3333333333335</ele><time>2026-05-01T14:06:08.867Z</time></trkpt><trkpt lat="44.19551246291917" lon="10.54050019028008"><ele>1154.0</ele><time>2026-05-01T14:06:09.867Z</time></trkpt><trkpt lat="44.19544736934438" lon="10.540247880473837"><ele>1154.0</ele><time>2026-05-01T14:06:10.867Z</time></trkpt><trkpt lat="44.19548433819393" lon="10.540391823753836"><ele>1154.0</ele><time>2026-05-01T14:06:11.867Z</time></trkpt><trkpt lat="44.195445190079205" lon="10.540239395280498"><ele>1154.0</ele><time>2026-05-01T14:06:12.867Z</time></trkpt><trkpt lat="44.19540821890245" lon="10.540095441806788"><ele>1154.0</ele><time>2026-05-01T14:06:13.867Z</time></trkpt><trkpt lat="44.19537962732146" lon="10.539981144600501"><ele>1154.0</ele><time>2026-05-01T14:06:14.867Z</time></trkpt><trkpt lat="44.195358891436136" lon="10.539886290084702"><ele>1154.1666666666667</ele><time>2026-05-01T14:06:15.867Z</time></trkpt><trkpt lat="44.19534976811845" lon="10.539793151870162"><ele>1154.3333333333335</ele><time>2026-05-01T14:06:16.867Z</time></trkpt><trkpt lat="44.195395777349816" lon="10.539710298087511"><ele>1154.5</ele><time>2026-05-01T14:06:17.867Z</time></trkpt><trkpt lat="44.19547119698522" lon="10.539702840761281"><ele>1154.6666666666667</ele><time>2026-05-01T14:06:18.867Z</time></trkpt><trkpt lat="44.19560200091967" lon="10.539746346489972"><ele>1154.8333333333333</ele><time>2026-05-01T14:06:20.867Z</time></trkpt><trkpt lat="44.19568405474138" lon="10.539738679850505"><ele>1155.0</ele><time>2026-05-01T14:06:21.867Z</time></trkpt><trkpt lat="44.19576771014799" lon="10.539739475564959"><ele>1155.0</ele><time>2026-05-01T14:06:22.867Z</time></trkpt><trkpt lat="44.19584587491899" lon="10.539690318357325"><ele>1155.0</ele><time>2026-05-01T14:06:23.867Z</time></trkpt><trkpt lat="44.19592004592975" lon="10.539620174782701"><ele>1155.0</ele><time>2026-05-01T14:06:24.867Z</time></trkpt><trkpt lat="44.19598965332949" lon="10.539536359806977"><ele>1155.0</ele><time>2026-05-01T14:06:25.867Z</time></trkpt><trkpt lat="44.19606231721213" lon="10.539445631956028"><ele>1155.0</ele><time>2026-05-01T14:06:26.867Z</time></trkpt><trkpt lat="44.1961386586726" lon="10.539348529355184"><ele>1157.0</ele><time>2026-05-01T14:06:27.867Z</time></trkpt><trkpt lat="44.19623553547551" lon="10.539286620133542"><ele>1159.0</ele><time>2026-05-01T14:06:28.867Z</time></trkpt><trkpt lat="44.19632903493117" lon="10.53924022279433"><ele>1161.0</ele><time>2026-05-01T14:06:29.867Z</time></trkpt><trkpt lat="44.19643057055873" lon="10.539183463165157"><ele>1163.0</ele><time>2026-05-01T14:06:30.867Z</time></trkpt><trkpt lat="44.19651508276289" lon="10.539106627235046"><ele>1165.0</ele><time>2026-05-01T14:06:31.867Z</time></trkpt><trkpt lat="44.19660314802545" lon="10.539060253383811"><ele>1165.0</ele><time>2026-05-01T14:06:32.867Z</time></trkpt><trkpt lat="44.19665867066781" lon="10.53895432072788"><ele>1165.0</ele><time>2026-05-01T14:06:33.867Z</time></trkpt><trkpt lat="44.19668845837832" lon="10.538823604733238"><ele>1165.0</ele><time>2026-05-01T14:06:34.867Z</time></trkpt><trkpt lat="44.19667504378878" lon="10.538644774379595"><ele>1165.0</ele><time>2026-05-01T14:06:35.867Z</time></trkpt><trkpt lat="44.19668013856584" lon="10.538473328712433"><ele>1165.0</ele><time>2026-05-01T14:06:36.867Z</time></trkpt><trkpt lat="44.19668618572871" lon="10.53829636713949"><ele>1166.0</ele><time>2026-05-01T14:06:37.867Z</time></trkpt><trkpt lat="44.19667650689695" lon="10.538134631014632"><ele>1167.0</ele><time>2026-05-01T14:06:38.867Z</time></trkpt><trkpt lat="44.19667265956117" lon="10.537979586578341"><ele>1168.0</ele><time>2026-05-01T14:06:39.867Z</time></trkpt><trkpt lat="44.196633223803" lon="10.537827541698"><ele>1169.0</ele><time>2026-05-01T14:06:40.867Z</time></trkpt><trkpt lat="44.19660754202467" lon="10.537666118464136"><ele>1170.2</ele><time>2026-05-01T14:06:41.867Z</time></trkpt><trkpt lat="44.196595042340505" lon="10.537498371352218"><ele>1171.4</ele><time>2026-05-01T14:06:42.867Z</time></trkpt><trkpt lat="44.19657025180183" lon="10.537356352791049"><ele>1172.6</ele><time>2026-05-01T14:06:43.867Z</time></trkpt><trkpt lat="44.19655474467243" lon="10.537224248283037"><ele>1173.8</ele><time>2026-05-01T14:06:44.867Z</time></trkpt><trkpt lat="44.196567236136815" lon="10.537095683126903"><ele>1175.0</ele><time>2026-05-01T14:06:45.867Z</time></trkpt><trkpt lat="44.19662296734147" lon="10.536953043187468"><ele>1176.8</ele><time>2026-05-01T14:06:46.867Z</time></trkpt><trkpt lat="44.19667489776464" lon="10.536794027097608"><ele>1178.6</ele><time>2026-05-01T14:06:47.867Z</time></trkpt><trkpt lat="44.19672635071835" lon="10.53664645197935"><ele>1180.4</ele><time>2026-05-01T14:06:48.867Z</time></trkpt><trkpt lat="44.196767548411344" lon="10.536527909614971"><ele>1182.2</ele><time>2026-05-01T14:06:49.867Z</time></trkpt><trkpt lat="44.19680925754169" lon="10.53641183643138"><ele>1184.0</ele><time>2026-05-01T14:06:50.867Z</time></trkpt><trkpt lat="44.1968473696605" lon="10.53629192444497"><ele>1185.8</ele><time>2026-05-01T14:06:51.867Z</time></trkpt><trkpt lat="44.19689606125382" lon="10.536184303721901"><ele>1187.6000000000001</ele><time>2026-05-01T14:06:52.867Z</time></trkpt><trkpt lat="44.196930266007996" lon="10.536076693058364"><ele>1189.4</ele><time>2026-05-01T14:06:53.867Z</time></trkpt><trkpt lat="44.19695040242483" lon="10.535942255344779"><ele>1191.2</ele><time>2026-05-01T14:06:54.867Z</time></trkpt><trkpt lat="44.196946861777946" lon="10.535793724067206"><ele>1193.0</ele><time>2026-05-01T14:06:55.867Z</time></trkpt><trkpt lat="44.19696721125201" lon="10.53563557598437"><ele>1193.0</ele><time>2026-05-01T14:06:56.867Z</time></trkpt><trkpt lat="44.19697049797075" lon="10.535475398739859"><ele>1193.0</ele><time>2026-05-01T14:06:57.867Z</time></trkpt><trkpt lat="44.19696653237321" lon="10.535320822517349"><ele>1193.0</ele><time>2026-05-01T14:06:58.867Z</time></trkpt><trkpt lat="44.19695184374713" lon="10.53516508134351"><ele>1193.0</ele><time>2026-05-01T14:06:59.867Z</time></trkpt><trkpt lat="44.196933623713946" lon="10.53501844673901"><ele>1193.0</ele><time>2026-05-01T14:07:00.867Z</time></trkpt><trkpt lat="44.19689568780085" lon="10.534866202695174"><ele>1194.25</ele><time>2026-05-01T14:07:01.867Z</time></trkpt><trkpt lat="44.196869021312516" lon="10.534681766853664"><ele>1195.5</ele><time>2026-05-01T14:07:02.867Z</time></trkpt><trkpt lat="44.19685627886382" lon="10.534489125590147"><ele>1196.75</ele><time>2026-05-01T14:07:03.867Z</time></trkpt><trkpt lat="44.19686605984185" lon="10.534310461571613"><ele>1198.0</ele><time>2026-05-01T14:07:04.867Z</time></trkpt><trkpt lat="44.19688473802424" lon="10.53415852535376"><ele>1198.2</ele><time>2026-05-01T14:07:05.867Z</time></trkpt><trkpt lat="44.19690319282358" lon="10.534034172635725"><ele>1198.4</ele><time>2026-05-01T14:07:06.867Z</time></trkpt><trkpt lat="44.19690310332952" lon="10.533915612741255"><ele>1198.6000000000001</ele><time>2026-05-01T14:07:07.867Z</time></trkpt><trkpt lat="44.196889189787605" lon="10.533792385351726"><ele>1198.8</ele><time>2026-05-01T14:07:08.867Z</time></trkpt><trkpt lat="44.19686103171857" lon="10.533668802138592"><ele>1199.0</ele><time>2026-05-01T14:07:09.867Z</time></trkpt><trkpt lat="44.19683439034662" lon="10.53353964183629"><ele>1200.2</ele><time>2026-05-01T14:07:10.867Z</time></trkpt><trkpt lat="44.19678308280502" lon="10.533420704445936"><ele>1201.4</ele><time>2026-05-01T14:07:11.867Z</time></trkpt><trkpt lat="44.19673366124344" lon="10.53333142811134"><ele>1202.6</ele><time>2026-05-01T14:07:12.867Z</time></trkpt><trkpt lat="44.196663403728635" lon="10.53327786597684"><ele>1203.8</ele><time>2026-05-01T14:07:13.867Z</time></trkpt><trkpt lat="44.19660414565888" lon="10.533174562104854"><ele>1205.0</ele><time>2026-05-01T14:07:14.867Z</time></trkpt><trkpt lat="44.19651799371149" lon="10.533104235922725"><ele>1206.8333333333335</ele><time>2026-05-01T14:07:15.867Z</time></trkpt><trkpt lat="44.196455634848306" lon="10.533008332315013"><ele>1208.6666666666667</ele><time>2026-05-01T14:07:16.867Z</time></trkpt><trkpt lat="44.1964081395482" lon="10.532916064066207"><ele>1210.5</ele><time>2026-05-01T14:07:17.867Z</time></trkpt><trkpt lat="44.19638255772445" lon="10.53282084543971"><ele>1212.3333333333333</ele><time>2026-05-01T14:07:18.867Z</time></trkpt><trkpt lat="44.19637000403886" lon="10.532701932302627"><ele>1214.1666666666665</ele><time>2026-05-01T14:07:19.867Z</time></trkpt><trkpt lat="44.196378457610244" lon="10.53257494621042"><ele>1216.0</ele><time>2026-05-01T14:07:20.867Z</time></trkpt><trkpt lat="44.19638422783156" lon="10.532431678272626"><ele>1216.8</ele><time>2026-05-01T14:07:21.867Z</time></trkpt><trkpt lat="44.19638971507686" lon="10.532289829153157"><ele>1217.6</ele><time>2026-05-01T14:07:22.867Z</time></trkpt><trkpt lat="44.1963864012527" lon="10.532168574764825"><ele>1218.4</ele><time>2026-05-01T14:07:23.867Z</time></trkpt><trkpt lat="44.19638511912683" lon="10.53206699434518"><ele>1219.2</ele><time>2026-05-01T14:07:24.867Z</time></trkpt><trkpt lat="44.1963472116065" lon="10.531924578319174"><ele>1220.0</ele><time>2026-05-01T14:07:26.867Z</time></trkpt><trkpt lat="44.19627465491981" lon="10.531837780916764"><ele>1220.0</ele><time>2026-05-01T14:07:35.867Z</time></trkpt><trkpt lat="44.19627700066341" lon="10.531674580272282"><ele>1220.0</ele><time>2026-05-01T14:07:37.867Z</time></trkpt><trkpt lat="44.19632573369061" lon="10.531580967416094"><ele>1220.0</ele><time>2026-05-01T14:07:38.867Z</time></trkpt><trkpt lat="44.19638539717413" lon="10.531513006779676"><ele>1220.0</ele><time>2026-05-01T14:07:39.867Z</time></trkpt><trkpt lat="44.19650036581124" lon="10.531532648487634"><ele>1220.0</ele><time>2026-05-01T14:07:40.867Z</time></trkpt><trkpt lat="44.196599358035" lon="10.531634252923054"><ele>1219.75</ele><time>2026-05-01T14:07:41.868Z</time></trkpt><trkpt lat="44.19669118256305" lon="10.531764575302281"><ele>1219.5</ele><time>2026-05-01T14:07:42.868Z</time></trkpt><trkpt lat="44.19678432350157" lon="10.531839276601609"><ele>1219.25</ele><time>2026-05-01T14:07:43.868Z</time></trkpt><trkpt lat="44.19689777735974" lon="10.531861157762648"><ele>1219.0</ele><time>2026-05-01T14:07:44.868Z</time></trkpt><trkpt lat="44.197006283281915" lon="10.531843659096962"><ele>1219.0</ele><time>2026-05-01T14:07:45.868Z</time></trkpt><trkpt lat="44.19709124465202" lon="10.531791809837145"><ele>1219.0</ele><time>2026-05-01T14:07:46.868Z</time></trkpt><trkpt lat="44.19715057019953" lon="10.531712811205479"><ele>1219.0</ele><time>2026-05-01T14:07:47.868Z</time></trkpt><trkpt lat="44.19716974315934" lon="10.531624444610738"><ele>1219.0</ele><time>2026-05-01T14:07:48.868Z</time></trkpt><trkpt lat="44.19716012094527" lon="10.53149873128391"><ele>1219.0</ele><time>2026-05-01T14:07:49.868Z</time></trkpt><trkpt lat="44.19711720022935" lon="10.53135710618994"><ele>1219.0</ele><time>2026-05-01T14:07:50.867Z</time></trkpt><trkpt lat="44.19712476608624" lon="10.531172936327144"><ele>1219.75</ele><time>2026-05-01T14:07:51.867Z</time></trkpt><trkpt lat="44.197122430242" lon="10.530979806609208"><ele>1220.5</ele><time>2026-05-01T14:07:52.867Z</time></trkpt><trkpt lat="44.197234473580245" lon="10.530844229996369"><ele>1221.25</ele><time>2026-05-01T14:07:53.867Z</time></trkpt><trkpt lat="44.19731516903827" lon="10.530681139391238"><ele>1222.0</ele><time>2026-05-01T14:07:54.867Z</time></trkpt><trkpt lat="44.19743759231997" lon="10.530548606718256"><ele>1222.0</ele><time>2026-05-01T14:07:55.867Z</time></trkpt><trkpt lat="44.19757861180084" lon="10.530429311276746"><ele>1222.0</ele><time>2026-05-01T14:07:56.867Z</time></trkpt><trkpt lat="44.19769817109757" lon="10.530312403285592"><ele>1222.0</ele><time>2026-05-01T14:07:57.867Z</time></trkpt><trkpt lat="44.19781612976654" lon="10.530220880264892"><ele>1222.0</ele><time>2026-05-01T14:07:58.867Z</time></trkpt><trkpt lat="44.19792435528171" lon="10.53016103072375"><ele>1224.2</ele><time>2026-05-01T14:07:59.867Z</time></trkpt><trkpt lat="44.198038812747406" lon="10.530166297319221"><ele>1226.4</ele><time>2026-05-01T14:08:00.867Z</time></trkpt><trkpt lat="44.19814346430196" lon="10.530168174823014"><ele>1228.6</ele><time>2026-05-01T14:08:01.867Z</time></trkpt><trkpt lat="44.198231271093555" lon="10.530151858008589"><ele>1230.8</ele><time>2026-05-01T14:08:02.867Z</time></trkpt><trkpt lat="44.198286174780044" lon="10.530064379919624"><ele>1233.0</ele><time>2026-05-01T14:08:03.867Z</time></trkpt><trkpt lat="44.19832648691085" lon="10.529941524906281"><ele>1233.1666666666667</ele><time>2026-05-01T14:08:04.867Z</time></trkpt><trkpt lat="44.19835817691719" lon="10.529819304856026"><ele>1233.3333333333333</ele><time>2026-05-01T14:08:05.867Z</time></trkpt><trkpt lat="44.19835717662405" lon="10.529695476305658"><ele>1233.5</ele><time>2026-05-01T14:08:06.867Z</time></trkpt><trkpt lat="44.1983537693758" lon="10.529563150674415"><ele>1233.6666666666665</ele><time>2026-05-01T14:08:07.867Z</time></trkpt><trkpt lat="44.19836463608154" lon="10.529473632366606"><ele>1233.8333333333333</ele><time>2026-05-01T14:08:08.867Z</time></trkpt><trkpt lat="44.19841797156528" lon="10.529414998613976"><ele>1234.0</ele><time>2026-05-01T14:08:09.867Z</time></trkpt><trkpt lat="44.198488886430916" lon="10.529395625651354"><ele>1235.1666666666665</ele><time>2026-05-01T14:08:10.867Z</time></trkpt><trkpt lat="44.19856266511213" lon="10.529385175153532"><ele>1236.3333333333333</ele><time>2026-05-01T14:08:11.867Z</time></trkpt><trkpt lat="44.198622588802124" lon="10.52934810336911"><ele>1237.5</ele><time>2026-05-01T14:08:12.867Z</time></trkpt><trkpt lat="44.19867462503146" lon="10.529255485158497"><ele>1238.6666666666667</ele><time>2026-05-01T14:08:13.867Z</time></trkpt><trkpt lat="44.19874180323012" lon="10.529158733215997"><ele>1239.8333333333335</ele><time>2026-05-01T14:08:14.867Z</time></trkpt><trkpt lat="44.198756727490526" lon="10.528996742782292"><ele>1241.0</ele><time>2026-05-01T14:08:15.867Z</time></trkpt><trkpt lat="44.19873478172149" lon="10.52884169439984"><ele>1241.6</ele><time>2026-05-01T14:08:16.867Z</time></trkpt><trkpt lat="44.19866373109407" lon="10.528722856696463"><ele>1242.1999999999998</ele><time>2026-05-01T14:08:17.867Z</time></trkpt><trkpt lat="44.19859363020342" lon="10.528600109728782"><ele>1242.8000000000002</ele><time>2026-05-01T14:08:18.867Z</time></trkpt><trkpt lat="44.19848371830851" lon="10.528547132351854"><ele>1243.4</ele><time>2026-05-01T14:08:19.867Z</time></trkpt><trkpt lat="44.198384705659265" lon="10.528516658268304"><ele>1244.0</ele><time>2026-05-01T14:08:20.867Z</time></trkpt><trkpt lat="44.1982825843156" lon="10.528455579248567"><ele>1244.0</ele><time>2026-05-01T14:08:21.867Z</time></trkpt><trkpt lat="44.19817850570109" lon="10.528367347399707"><ele>1244.0</ele><time>2026-05-01T14:08:22.867Z</time></trkpt><trkpt lat="44.198072210267355" lon="10.528252292675084"><ele>1244.0</ele><time>2026-05-01T14:08:23.867Z</time></trkpt><trkpt lat="44.197962957621925" lon="10.528110875279378"><ele>1244.0</ele><time>2026-05-01T14:08:24.867Z</time></trkpt><trkpt lat="44.19782019128036" lon="10.527923902143907"><ele>1246.3333333333335</ele><time>2026-05-01T14:08:25.867Z</time></trkpt><trkpt lat="44.19767439558555" lon="10.527746323126113"><ele>1248.6666666666667</ele><time>2026-05-01T14:08:26.867Z</time></trkpt><trkpt lat="44.197557175073214" lon="10.5276081899744"><ele>1251.0</ele><time>2026-05-01T14:08:27.867Z</time></trkpt><trkpt lat="44.197470360490094" lon="10.527477885290827"><ele>1251.0</ele><time>2026-05-01T14:08:28.867Z</time></trkpt><trkpt lat="44.19744388798206" lon="10.527340313684812"><ele>1251.0</ele><time>2026-05-01T14:08:29.867Z</time></trkpt><trkpt lat="44.197441883829065" lon="10.527162841902568"><ele>1251.0</ele><time>2026-05-01T14:08:30.867Z</time></trkpt><trkpt lat="44.197411376407466" lon="10.526948329885613"><ele>1251.0</ele><time>2026-05-01T14:08:31.867Z</time></trkpt><trkpt lat="44.197365733942476" lon="10.526743401559191"><ele>1250.6666666666667</ele><time>2026-05-01T14:08:32.867Z</time></trkpt><trkpt lat="44.197377693973785" lon="10.526530265708082"><ele>1250.3333333333335</ele><time>2026-05-01T14:08:33.867Z</time></trkpt><trkpt lat="44.19743663722978" lon="10.526323631125234"><ele>1250.0</ele><time>2026-05-01T14:08:34.867Z</time></trkpt><trkpt lat="44.1974731812734" lon="10.52606783464441"><ele>1251.3333333333335</ele><time>2026-05-01T14:08:35.867Z</time></trkpt><trkpt lat="44.19748944720029" lon="10.52584145813315"><ele>1252.6666666666667</ele><time>2026-05-01T14:08:36.867Z</time></trkpt><trkpt lat="44.19749795770667" lon="10.525636930734551"><ele>1254.0</ele><time>2026-05-01T14:08:37.867Z</time></trkpt><trkpt lat="44.19754255862581" lon="10.525448027783499"><ele>1256.5</ele><time>2026-05-01T14:08:38.867Z</time></trkpt><trkpt lat="44.19761872051561" lon="10.525276033329034"><ele>1259.0</ele><time>2026-05-01T14:08:39.867Z</time></trkpt><trkpt lat="44.197741015423794" lon="10.52515282795399"><ele>1261.5</ele><time>2026-05-01T14:08:40.867Z</time></trkpt><trkpt lat="44.19785401096961" lon="10.525023868720565"><ele>1264.0</ele><time>2026-05-01T14:08:41.867Z</time></trkpt><trkpt lat="44.197920226142195" lon="10.524916414096884"><ele>1264.0</ele><time>2026-05-01T14:08:42.867Z</time></trkpt><trkpt lat="44.19794302146295" lon="10.52481254265883"><ele>1264.0</ele><time>2026-05-01T14:08:43.867Z</time></trkpt><trkpt lat="44.19793065070871" lon="10.524707822978836"><ele>1264.0</ele><time>2026-05-01T14:08:44.867Z</time></trkpt><trkpt lat="44.19787969558282" lon="10.524581427499628"><ele>1264.0</ele><time>2026-05-01T14:08:45.867Z</time></trkpt><trkpt lat="44.197833618009454" lon="10.524416436405202"><ele>1264.0</ele><time>2026-05-01T14:08:46.867Z</time></trkpt><trkpt lat="44.19784094977637" lon="10.524256868769756"><ele>1265.3333333333333</ele><time>2026-05-01T14:08:47.867Z</time></trkpt><trkpt lat="44.19786827645656" lon="10.524054140912154"><ele>1266.6666666666667</ele><time>2026-05-01T14:08:48.867Z</time></trkpt><trkpt lat="44.19788856181973" lon="10.523801693424078"><ele>1268.0</ele><time>2026-05-01T14:08:49.867Z</time></trkpt><trkpt lat="44.19792859570885" lon="10.523581580157973"><ele>1269.75</ele><time>2026-05-01T14:08:50.867Z</time></trkpt><trkpt lat="44.19796341733482" lon="10.523386881890184"><ele>1271.5</ele><time>2026-05-01T14:08:51.867Z</time></trkpt><trkpt lat="44.19798292398406" lon="10.52321345263554"><ele>1273.25</ele><time>2026-05-01T14:08:52.867Z</time></trkpt><trkpt lat="44.19799116803896" lon="10.523014578014182"><ele>1275.0</ele><time>2026-05-01T14:08:53.867Z</time></trkpt><trkpt lat="44.19797256151829" lon="10.522816141580577"><ele>1275.0</ele><time>2026-05-01T14:08:54.867Z</time></trkpt><trkpt lat="44.19791881643667" lon="10.522605559566225"><ele>1275.0</ele><time>2026-05-01T14:08:55.867Z</time></trkpt><trkpt lat="44.1978558500681" lon="10.52239714815562"><ele>1275.0</ele><time>2026-05-01T14:08:56.867Z</time></trkpt><trkpt lat="44.197791052074024" lon="10.522196552592844"><ele>1274.0</ele><time>2026-05-01T14:08:57.867Z</time></trkpt><trkpt lat="44.19772196035267" lon="10.521987044531983"><ele>1273.0</ele><time>2026-05-01T14:08:58.867Z</time></trkpt><trkpt lat="44.19763521537184" lon="10.521774007018946"><ele>1272.0</ele><time>2026-05-01T14:08:59.867Z</time></trkpt><trkpt lat="44.19756074525149" lon="10.52159691947792"><ele>1272.0</ele><time>2026-05-01T14:09:00.867Z</time></trkpt><trkpt lat="44.19751013460512" lon="10.521418851859378"><ele>1272.0</ele><time>2026-05-01T14:09:01.867Z</time></trkpt><trkpt lat="44.19749673781093" lon="10.521220958547316"><ele>1272.0</ele><time>2026-05-01T14:09:02.867Z</time></trkpt><trkpt lat="44.19749853191338" lon="10.520988054658458"><ele>1272.0</ele><time>2026-05-01T14:09:03.867Z</time></trkpt><trkpt lat="44.19753180959855" lon="10.52077222965538"><ele>1273.0</ele><time>2026-05-01T14:09:04.867Z</time></trkpt><trkpt lat="44.19762263297243" lon="10.520580098623682"><ele>1274.0</ele><time>2026-05-01T14:09:05.867Z</time></trkpt><trkpt lat="44.19774156723545" lon="10.520399115929132"><ele>1275.0</ele><time>2026-05-01T14:09:06.867Z</time></trkpt><trkpt lat="44.197823369858966" lon="10.520267943949442"><ele>1275.8</ele><time>2026-05-01T14:09:07.867Z</time></trkpt><trkpt lat="44.197885613421924" lon="10.520204528661683"><ele>1276.6</ele><time>2026-05-01T14:09:08.867Z</time></trkpt><trkpt lat="44.197962940485525" lon="10.520141693412281"><ele>1277.4</ele><time>2026-05-01T14:09:10.867Z</time></trkpt><trkpt lat="44.19800430081378" lon="10.520069914730202"><ele>1278.2</ele><time>2026-05-01T14:09:13.867Z</time></trkpt><trkpt lat="44.19797155592049" lon="10.519885941360627"><ele>1279.0</ele><time>2026-05-01T14:15:11.76Z</time></trkpt><trkpt lat="44.19795996756887" lon="10.519773382559839"><ele>1279.0</ele><time>2026-05-01T14:15:13.76Z</time></trkpt><trkpt lat="44.1979247682787" lon="10.519578175886844"><ele>1279.0</ele><time>2026-05-01T14:15:15.76Z</time></trkpt><trkpt lat="44.19789038844713" lon="10.519444407928145"><ele>1279.0</ele><time>2026-05-01T14:15:16.76Z</time></trkpt><trkpt lat="44.19784216542065" lon="10.519301483789905"><ele>1279.0</ele><time>2026-05-01T14:15:17.76Z</time></trkpt><trkpt lat="44.19778737863031" lon="10.51916416377652"><ele>1279.0</ele><time>2026-05-01T14:15:18.76Z</time></trkpt><trkpt lat="44.19772792800929" lon="10.51902138212967"><ele>1279.0</ele><time>2026-05-01T14:15:19.76Z</time></trkpt><trkpt lat="44.19766528301921" lon="10.518870928926345"><ele>1279.0</ele><time>2026-05-01T14:15:20.76Z</time></trkpt><trkpt lat="44.19761127752629" lon="10.51872134255906"><ele>1279.0</ele><time>2026-05-01T14:15:21.76Z</time></trkpt><trkpt lat="44.19753972291049" lon="10.518564581514328"><ele>1280.25</ele><time>2026-05-01T14:15:22.76Z</time></trkpt><trkpt lat="44.19745282364816" lon="10.518403047280387"><ele>1281.5</ele><time>2026-05-01T14:15:23.76Z</time></trkpt><trkpt lat="44.19736222485821" lon="10.518251181965196"><ele>1282.75</ele><time>2026-05-01T14:15:24.76Z</time></trkpt><trkpt lat="44.1972786417298" lon="10.518109750215132"><ele>1284.0</ele><time>2026-05-01T14:15:25.76Z</time></trkpt><trkpt lat="44.19720297005196" lon="10.517972261318958"><ele>1282.5</ele><time>2026-05-01T14:15:26.76Z</time></trkpt><trkpt lat="44.19711509859931" lon="10.517827561085662"><ele>1281.0</ele><time>2026-05-01T14:15:27.76Z</time></trkpt><trkpt lat="44.19700875482889" lon="10.517697838586502"><ele>1279.5</ele><time>2026-05-01T14:15:28.759Z</time></trkpt><trkpt lat="44.196891567433525" lon="10.51759432210496"><ele>1278.0</ele><time>2026-05-01T14:15:29.759Z</time></trkpt><trkpt lat="44.196763520104696" lon="10.517499730417878"><ele>1278.0</ele><time>2026-05-01T14:15:30.759Z</time></trkpt><trkpt lat="44.196635334223615" lon="10.517420381758757"><ele>1278.0</ele><time>2026-05-01T14:15:31.759Z</time></trkpt><trkpt lat="44.196508537556355" lon="10.517347944261402"><ele>1278.0</ele><time>2026-05-01T14:15:32.759Z</time></trkpt><trkpt lat="44.19640046071199" lon="10.51728486785454"><ele>1278.0</ele><time>2026-05-01T14:15:33.759Z</time></trkpt><trkpt lat="44.19631487363411" lon="10.517194803265793"><ele>1278.6</ele><time>2026-05-01T14:15:34.759Z</time></trkpt><trkpt lat="44.196268481885845" lon="10.517063824125215"><ele>1279.1999999999998</ele><time>2026-05-01T14:15:35.759Z</time></trkpt><trkpt lat="44.19626037336526" lon="10.516928927351243"><ele>1279.8</ele><time>2026-05-01T14:15:36.759Z</time></trkpt><trkpt lat="44.1963109762866" lon="10.516805553502596"><ele>1280.3999999999999</ele><time>2026-05-01T14:15:37.759Z</time></trkpt><trkpt lat="44.1963961261093" lon="10.51668325393941"><ele>1281.0</ele><time>2026-05-01T14:15:38.759Z</time></trkpt><trkpt lat="44.19651981987918" lon="10.51655740356777"><ele>1281.0</ele><time>2026-05-01T14:15:39.759Z</time></trkpt><trkpt lat="44.19664010466828" lon="10.516415285645069"><ele>1281.0</ele><time>2026-05-01T14:15:40.759Z</time></trkpt><trkpt lat="44.19676345156195" lon="10.516289606018653"><ele>1281.0</ele><time>2026-05-01T14:15:41.759Z</time></trkpt><trkpt lat="44.196888880355246" lon="10.51619403053445"><ele>1285.5</ele><time>2026-05-01T14:15:42.759Z</time></trkpt><trkpt lat="44.19700719685823" lon="10.516123002749369"><ele>1290.0</ele><time>2026-05-01T14:15:43.759Z</time></trkpt><trkpt lat="44.19711468850356" lon="10.516081907279483"><ele>1294.5</ele><time>2026-05-01T14:15:44.759Z</time></trkpt><trkpt lat="44.19722024913384" lon="10.516020602825028"><ele>1299.0</ele><time>2026-05-01T14:15:45.759Z</time></trkpt><trkpt lat="44.19729157803064" lon="10.515926181615242"><ele>1296.75</ele><time>2026-05-01T14:15:46.759Z</time></trkpt><trkpt lat="44.197401145525376" lon="10.51579585775824"><ele>1294.5</ele><time>2026-05-01T14:15:47.759Z</time></trkpt><trkpt lat="44.197515055163215" lon="10.515676190152874"><ele>1292.25</ele><time>2026-05-01T14:15:48.759Z</time></trkpt><trkpt lat="44.19762182321071" lon="10.515601862992417"><ele>1290.0</ele><time>2026-05-01T14:15:49.759Z</time></trkpt><trkpt lat="44.19772006715858" lon="10.515495782597732"><ele>1296.0</ele><time>2026-05-01T14:15:50.759Z</time></trkpt><trkpt lat="44.19781749765193" lon="10.515336184718237"><ele>1302.0</ele><time>2026-05-01T14:15:51.759Z</time></trkpt><trkpt lat="44.197933806046706" lon="10.515160495896966"><ele>1308.0</ele><time>2026-05-01T14:15:52.759Z</time></trkpt><trkpt lat="44.19802249062776" lon="10.514956163385868"><ele>1308.0</ele><time>2026-05-01T14:15:53.759Z</time></trkpt><trkpt lat="44.198094593536375" lon="10.51474478945053"><ele>1308.0</ele><time>2026-05-01T14:15:54.759Z</time></trkpt><trkpt lat="44.19820415159972" lon="10.514588582705679"><ele>1308.0</ele><time>2026-05-01T14:15:55.759Z</time></trkpt><trkpt lat="44.19828875746499" lon="10.514459123833175"><ele>1307.0</ele><time>2026-05-01T14:15:56.759Z</time></trkpt><trkpt lat="44.198371665014804" lon="10.514320764011067"><ele>1306.0</ele><time>2026-05-01T14:15:57.759Z</time></trkpt><trkpt lat="44.19840344322613" lon="10.514126233352576"><ele>1305.0</ele><time>2026-05-01T14:15:58.759Z</time></trkpt><trkpt lat="44.19839482792391" lon="10.513990762806115"><ele>1304.0</ele><time>2026-05-01T14:15:59.759Z</time></trkpt><trkpt lat="44.19831359902525" lon="10.513936201444531"><ele>1304.0</ele><time>2026-05-01T14:16:00.759Z</time></trkpt><trkpt lat="44.19824651741368" lon="10.51385478648007"><ele>1304.0</ele><time>2026-05-01T14:16:01.759Z</time></trkpt><trkpt lat="44.19816301125961" lon="10.513739051532509"><ele>1304.0</ele><time>2026-05-01T14:16:02.759Z</time></trkpt><trkpt lat="44.198105417053185" lon="10.513573581970054"><ele>1304.0</ele><time>2026-05-01T14:16:03.759Z</time></trkpt><trkpt lat="44.19811649985115" lon="10.51341788285318"><ele>1305.25</ele><time>2026-05-01T14:16:04.759Z</time></trkpt><trkpt lat="44.19818311122411" lon="10.513248844030255"><ele>1306.5</ele><time>2026-05-01T14:16:05.759Z</time></trkpt><trkpt lat="44.19819074949681" lon="10.513060651307518"><ele>1307.75</ele><time>2026-05-01T14:16:06.759Z</time></trkpt><trkpt lat="44.19818948520063" lon="10.512901347018863"><ele>1309.0</ele><time>2026-05-01T14:16:07.758Z</time></trkpt><trkpt lat="44.198168719178916" lon="10.512723214302323"><ele>1310.6</ele><time>2026-05-01T14:16:08.758Z</time></trkpt><trkpt lat="44.198142146773975" lon="10.512566226056991"><ele>1312.2</ele><time>2026-05-01T14:16:09.758Z</time></trkpt><trkpt lat="44.198114417306854" lon="10.512421633363129"><ele>1313.8</ele><time>2026-05-01T14:16:10.758Z</time></trkpt><trkpt lat="44.19806074087494" lon="10.51231567371739"><ele>1315.3999999999999</ele><time>2026-05-01T14:16:11.758Z</time></trkpt><trkpt lat="44.197984139548154" lon="10.5122617765365"><ele>1317.0</ele><time>2026-05-01T14:16:12.758Z</time></trkpt><trkpt lat="44.19788653773088" lon="10.51226205661607"><ele>1317.0</ele><time>2026-05-01T14:16:13.758Z</time></trkpt><trkpt lat="44.19777846496761" lon="10.512332100650392"><ele>1317.0</ele><time>2026-05-01T14:16:14.758Z</time></trkpt><trkpt lat="44.19766493605435" lon="10.512444518849753"><ele>1317.0</ele><time>2026-05-01T14:16:15.758Z</time></trkpt><trkpt lat="44.19755845812363" lon="10.51257860318912"><ele>1317.0</ele><time>2026-05-01T14:16:16.758Z</time></trkpt><trkpt lat="44.197445610414896" lon="10.512722241705921"><ele>1317.75</ele><time>2026-05-01T14:16:17.758Z</time></trkpt><trkpt lat="44.19732694059783" lon="10.512858646666364"><ele>1318.5</ele><time>2026-05-01T14:16:18.758Z</time></trkpt><trkpt lat="44.197208003027214" lon="10.51298564043948"><ele>1319.25</ele><time>2026-05-01T14:16:19.758Z</time></trkpt><trkpt lat="44.19707944948099" lon="10.513013345523346"><ele>1320.0</ele><time>2026-05-01T14:16:20.758Z</time></trkpt><trkpt lat="44.19695549824176" lon="10.512969723983783"><ele>1320.0</ele><time>2026-05-01T14:16:21.758Z</time></trkpt><trkpt lat="44.19682460328376" lon="10.512872044760224"><ele>1320.0</ele><time>2026-05-01T14:16:22.758Z</time></trkpt><trkpt lat="44.19669026629765" lon="10.51274557998235"><ele>1320.0</ele><time>2026-05-01T14:16:23.758Z</time></trkpt><trkpt lat="44.1965417581923" lon="10.51264136487951"><ele>1322.0</ele><time>2026-05-01T14:16:24.758Z</time></trkpt><trkpt lat="44.1963844913476" lon="10.512553464185013"><ele>1324.0</ele><time>2026-05-01T14:16:25.758Z</time></trkpt><trkpt lat="44.196251684909626" lon="10.512469835850093"><ele>1326.0</ele><time>2026-05-01T14:16:26.758Z</time></trkpt><trkpt lat="44.19612032891237" lon="10.512354505470313"><ele>1326.0</ele><time>2026-05-01T14:16:27.757Z</time></trkpt><trkpt lat="44.196009524023644" lon="10.512201068739031"><ele>1326.0</ele><time>2026-05-01T14:16:28.757Z</time></trkpt><trkpt lat="44.19591780259295" lon="10.512024851021172"><ele>1326.0</ele><time>2026-05-01T14:16:29.757Z</time></trkpt><trkpt lat="44.195830816313915" lon="10.511815230448564"><ele>1325.0</ele><time>2026-05-01T14:16:30.757Z</time></trkpt><trkpt lat="44.19577996456101" lon="10.511605135763846"><ele>1324.0</ele><time>2026-05-01T14:16:31.757Z</time></trkpt><trkpt lat="44.19573814705772" lon="10.511357400998733"><ele>1323.0</ele><time>2026-05-01T14:16:32.757Z</time></trkpt><trkpt lat="44.195692384209416" lon="10.5110857437153"><ele>1328.3333333333333</ele><time>2026-05-01T14:16:33.757Z</time></trkpt><trkpt lat="44.19565351606133" lon="10.510831726159415"><ele>1333.6666666666665</ele><time>2026-05-01T14:16:34.757Z</time></trkpt><trkpt lat="44.19564244647924" lon="10.51060722038941"><ele>1339.0</ele><time>2026-05-01T14:16:35.757Z</time></trkpt><trkpt lat="44.19565062539133" lon="10.510388375364986"><ele>1339.0</ele><time>2026-05-01T14:16:36.757Z</time></trkpt><trkpt lat="44.19566165885703" lon="10.510131208988971"><ele>1339.0</ele><time>2026-05-01T14:16:37.757Z</time></trkpt><trkpt lat="44.195673615424106" lon="10.509879803584692"><ele>1339.0</ele><time>2026-05-01T14:16:38.757Z</time></trkpt><trkpt lat="44.195672005570266" lon="10.509571608790644"><ele>1339.0</ele><time>2026-05-01T14:16:39.757Z</time></trkpt><trkpt lat="44.19568189355621" lon="10.509687340367094"><ele>1339.0</ele><time>2026-05-01T14:16:40.757Z</time></trkpt><trkpt lat="44.19569540577564" lon="10.509486848247224"><ele>1339.0</ele><time>2026-05-01T14:16:41.757Z</time></trkpt><trkpt lat="44.195739043508205" lon="10.509326571399544"><ele>1339.0</ele><time>2026-05-01T14:16:42.757Z</time></trkpt><trkpt lat="44.19581408719443" lon="10.509227333071614"><ele>1339.0</ele><time>2026-05-01T14:16:43.757Z</time></trkpt><trkpt lat="44.195920233916006" lon="10.50910130685255"><ele>1339.0</ele><time>2026-05-01T14:16:44.757Z</time></trkpt><trkpt lat="44.19601452596217" lon="10.508965624011124"><ele>1339.0</ele><time>2026-05-01T14:16:45.757Z</time></trkpt><trkpt lat="44.19607485014543" lon="10.508790241070539"><ele>1339.0</ele><time>2026-05-01T14:16:46.757Z</time></trkpt><trkpt lat="44.19611998550639" lon="10.508628735593636"><ele>1343.5</ele><time>2026-05-01T14:16:47.757Z</time></trkpt><trkpt lat="44.19616767946571" lon="10.50845361011858"><ele>1348.0</ele><time>2026-05-01T14:16:48.757Z</time></trkpt><trkpt lat="44.1962157221738" lon="10.50827554932536"><ele>1352.5</ele><time>2026-05-01T14:16:49.757Z</time></trkpt><trkpt lat="44.19626664687247" lon="10.508085416387061"><ele>1357.0</ele><time>2026-05-01T14:16:50.757Z</time></trkpt><trkpt lat="44.19633285765976" lon="10.50788264079614"><ele>1353.5</ele><time>2026-05-01T14:16:51.757Z</time></trkpt><trkpt lat="44.196434421179845" lon="10.507746594959679"><ele>1350.0</ele><time>2026-05-01T14:16:52.757Z</time></trkpt><trkpt lat="44.19653221069488" lon="10.507596282347832"><ele>1346.5</ele><time>2026-05-01T14:16:53.756Z</time></trkpt><trkpt lat="44.19658435393838" lon="10.507454464053229"><ele>1343.0</ele><time>2026-05-01T14:16:54.756Z</time></trkpt><trkpt lat="44.19659025451906" lon="10.507292606972134"><ele>1343.0</ele><time>2026-05-01T14:16:55.756Z</time></trkpt><trkpt lat="44.19655251455713" lon="10.507139903012586"><ele>1343.0</ele><time>2026-05-01T14:16:56.756Z</time></trkpt><trkpt lat="44.19655100409794" lon="10.506988454229678"><ele>1343.0</ele><time>2026-05-01T14:16:57.756Z</time></trkpt><trkpt lat="44.19654611413671" lon="10.506820893332131"><ele>1343.0</ele><time>2026-05-01T14:16:58.756Z</time></trkpt><trkpt lat="44.1966156421857" lon="10.506667874799462"><ele>1346.0</ele><time>2026-05-01T14:16:59.756Z</time></trkpt><trkpt lat="44.196677315734334" lon="10.506511714747647"><ele>1349.0</ele><time>2026-05-01T14:17:00.756Z</time></trkpt><trkpt lat="44.19674008695435" lon="10.506341179981161"><ele>1352.0</ele><time>2026-05-01T14:17:01.756Z</time></trkpt><trkpt lat="44.19678278853212" lon="10.506158530619283"><ele>1355.0</ele><time>2026-05-01T14:17:02.756Z</time></trkpt><trkpt lat="44.19675819382723" lon="10.505898583957256"><ele>1358.0</ele><time>2026-05-01T14:17:03.756Z</time></trkpt><trkpt lat="44.19679883466134" lon="10.505638773905549"><ele>1361.0</ele><time>2026-05-01T14:17:04.756Z</time></trkpt><trkpt lat="44.19683776429685" lon="10.505371067779912"><ele>1364.0</ele><time>2026-05-01T14:17:05.756Z</time></trkpt><trkpt lat="44.19687672090553" lon="10.505095183663435"><ele>1367.3333333333335</ele><time>2026-05-01T14:17:06.756Z</time></trkpt><trkpt lat="44.19697375838493" lon="10.504842784482637"><ele>1370.6666666666667</ele><time>2026-05-01T14:17:07.756Z</time></trkpt><trkpt lat="44.197015404599604" lon="10.504600252641678"><ele>1374.0</ele><time>2026-05-01T14:17:08.756Z</time></trkpt><trkpt lat="44.197048590855545" lon="10.504384958021435"><ele>1377.0</ele><time>2026-05-01T14:17:09.756Z</time></trkpt><trkpt lat="44.197073223310234" lon="10.504186015407022"><ele>1380.0</ele><time>2026-05-01T14:17:10.756Z</time></trkpt><trkpt lat="44.1970961379187" lon="10.504028452282652"><ele>1383.0</ele><time>2026-05-01T14:17:11.756Z</time></trkpt><trkpt lat="44.197139745021175" lon="10.503900759964806"><ele>1386.0</ele><time>2026-05-01T14:17:12.756Z</time></trkpt><trkpt lat="44.19720941303342" lon="10.503797595533134"><ele>1386.0</ele><time>2026-05-01T14:17:13.756Z</time></trkpt><trkpt lat="44.197327253590494" lon="10.503753951936066"><ele>1386.0</ele><time>2026-05-01T14:17:14.756Z</time></trkpt><trkpt lat="44.19746104191093" lon="10.503724102196683"><ele>1386.0</ele><time>2026-05-01T14:17:15.756Z</time></trkpt><trkpt lat="44.19759548219952" lon="10.50367286021584"><ele>1386.0</ele><time>2026-05-01T14:17:16.756Z</time></trkpt><trkpt lat="44.19769315733894" lon="10.503585003448775"><ele>1383.0</ele><time>2026-05-01T14:17:17.756Z</time></trkpt><trkpt lat="44.19774703582789" lon="10.50346853109212"><ele>1380.0</ele><time>2026-05-01T14:17:18.756Z</time></trkpt><trkpt lat="44.19778278505769" lon="10.503347276178438"><ele>1377.0</ele><time>2026-05-01T14:17:19.756Z</time></trkpt><trkpt lat="44.197765185661474" lon="10.503183508502643"><ele>1374.0</ele><time>2026-05-01T14:17:20.756Z</time></trkpt><trkpt lat="44.19771897469698" lon="10.503044047524261"><ele>1371.0</ele><time>2026-05-01T14:17:21.756Z</time></trkpt><trkpt lat="44.19766860924132" lon="10.502927766327732"><ele>1374.0</ele><time>2026-05-01T14:17:22.756Z</time></trkpt><trkpt lat="44.19763858713193" lon="10.502838097741519"><ele>1377.0</ele><time>2026-05-01T14:17:23.756Z</time></trkpt><trkpt lat="44.19767542375581" lon="10.502673273830961"><ele>1380.0</ele><time>2026-05-01T14:17:25.756Z</time></trkpt><trkpt lat="44.197764734444405" lon="10.502620611696717"><ele>1383.0</ele><time>2026-05-01T14:17:26.756Z</time></trkpt><trkpt lat="44.197849025851404" lon="10.502573493165503"><ele>1386.0</ele><time>2026-05-01T14:17:27.756Z</time></trkpt><trkpt lat="44.19790384336457" lon="10.50248036217726"><ele>1386.0</ele><time>2026-05-01T14:17:28.756Z</time></trkpt><trkpt lat="44.19792519849764" lon="10.502348458523597"><ele>1386.0</ele><time>2026-05-01T14:17:29.756Z</time></trkpt><trkpt lat="44.197948256357954" lon="10.50221551575599"><ele>1386.0</ele><time>2026-05-01T14:17:30.756Z</time></trkpt><trkpt lat="44.19795899297034" lon="10.5020659785143"><ele>1386.0</ele><time>2026-05-01T14:17:31.756Z</time></trkpt><trkpt lat="44.19797912966639" lon="10.501908971016158"><ele>1386.0</ele><time>2026-05-01T14:17:32.756Z</time></trkpt><trkpt lat="44.19801190495032" lon="10.501772861135116"><ele>1384.25</ele><time>2026-05-01T14:17:33.756Z</time></trkpt><trkpt lat="44.19810559084229" lon="10.50169001226554"><ele>1382.5</ele><time>2026-05-01T14:17:34.756Z</time></trkpt><trkpt lat="44.19824522660017" lon="10.501647737050726"><ele>1380.75</ele><time>2026-05-01T14:17:35.755Z</time></trkpt><trkpt lat="44.19839068949597" lon="10.501608040139336"><ele>1379.0</ele><time>2026-05-01T14:17:36.755Z</time></trkpt><trkpt lat="44.19850652783326" lon="10.501541496290049"><ele>1379.0</ele><time>2026-05-01T14:17:37.755Z</time></trkpt><trkpt lat="44.1986050285509" lon="10.50142023620926"><ele>1379.0</ele><time>2026-05-01T14:17:38.755Z</time></trkpt><trkpt lat="44.19868858954666" lon="10.5012677118952"><ele>1379.0</ele><time>2026-05-01T14:17:39.755Z</time></trkpt><trkpt lat="44.19877636031261" lon="10.501124447270909"><ele>1379.0</ele><time>2026-05-01T14:17:40.755Z</time></trkpt><trkpt lat="44.19887437864101" lon="10.500993982257937"><ele>1380.75</ele><time>2026-05-01T14:17:41.755Z</time></trkpt><trkpt lat="44.19901165464008" lon="10.50091783343394"><ele>1382.5</ele><time>2026-05-01T14:17:42.755Z</time></trkpt><trkpt lat="44.19913649136469" lon="10.50083478848212"><ele>1384.25</ele><time>2026-05-01T14:17:43.755Z</time></trkpt><trkpt lat="44.19923455294497" lon="10.500715135208885"><ele>1386.0</ele><time>2026-05-01T14:17:44.755Z</time></trkpt><trkpt lat="44.19931560776788" lon="10.500545466545825"><ele>1393.6666666666667</ele><time>2026-05-01T14:17:45.755Z</time></trkpt><trkpt lat="44.19937580601405" lon="10.500337552845572"><ele>1401.3333333333335</ele><time>2026-05-01T14:17:46.755Z</time></trkpt><trkpt lat="44.199431247601744" lon="10.500145423724545"><ele>1409.0</ele><time>2026-05-01T14:17:47.755Z</time></trkpt><trkpt lat="44.19948130806453" lon="10.499948234570192"><ele>1409.0</ele><time>2026-05-01T14:17:48.755Z</time></trkpt><trkpt lat="44.199577137466036" lon="10.499771316555453"><ele>1409.0</ele><time>2026-05-01T14:17:49.755Z</time></trkpt><trkpt lat="44.19968739075735" lon="10.499617723989825"><ele>1409.0</ele><time>2026-05-01T14:17:50.755Z</time></trkpt><trkpt lat="44.19980335782897" lon="10.499508921885772"><ele>1409.4</ele><time>2026-05-01T14:17:51.755Z</time></trkpt><trkpt lat="44.199910688462815" lon="10.499423860251486"><ele>1409.8000000000002</ele><time>2026-05-01T14:17:52.755Z</time></trkpt><trkpt lat="44.20000604788173" lon="10.499331542903423"><ele>1410.1999999999998</ele><time>2026-05-01T14:17:53.755Z</time></trkpt><trkpt lat="44.200078962688515" lon="10.499231828517232"><ele>1410.6</ele><time>2026-05-01T14:17:54.755Z</time></trkpt><trkpt lat="44.20013858519564" lon="10.499131972841546"><ele>1411.0</ele><time>2026-05-01T14:17:55.755Z</time></trkpt><trkpt lat="44.20019406907894" lon="10.499028063416878"><ele>1411.0</ele><time>2026-05-01T14:17:56.755Z</time></trkpt><trkpt lat="44.200311441527106" lon="10.498934763605014"><ele>1411.0</ele><time>2026-05-01T14:17:57.755Z</time></trkpt><trkpt lat="44.200449406420205" lon="10.498871549860425"><ele>1411.0</ele><time>2026-05-01T14:17:58.755Z</time></trkpt><trkpt lat="44.200595149631496" lon="10.498814254548234"><ele>1411.0</ele><time>2026-05-01T14:17:59.755Z</time></trkpt><trkpt lat="44.20073321434589" lon="10.498753721168613"><ele>1413.5</ele><time>2026-05-01T14:18:00.755Z</time></trkpt><trkpt lat="44.20085450059609" lon="10.498668896342442"><ele>1416.0</ele><time>2026-05-01T14:18:01.755Z</time></trkpt><trkpt lat="44.200981623963976" lon="10.498540682688704"><ele>1418.5</ele><time>2026-05-01T14:18:02.755Z</time></trkpt><trkpt lat="44.20110060155628" lon="10.498400271919623"><ele>1421.0</ele><time>2026-05-01T14:18:03.755Z</time></trkpt><trkpt lat="44.20119788934515" lon="10.498278660504928"><ele>1421.0</ele><time>2026-05-01T14:18:04.755Z</time></trkpt><trkpt lat="44.20129230201117" lon="10.498129511475856"><ele>1421.0</ele><time>2026-05-01T14:18:05.755Z</time></trkpt><trkpt lat="44.201399691156226" lon="10.497968780455006"><ele>1421.0</ele><time>2026-05-01T14:18:06.755Z</time></trkpt><trkpt lat="44.20148511443827" lon="10.497780196367051"><ele>1420.3333333333335</ele><time>2026-05-01T14:18:07.755Z</time></trkpt><trkpt lat="44.20156346349526" lon="10.497568326910237"><ele>1419.6666666666667</ele><time>2026-05-01T14:18:08.755Z</time></trkpt><trkpt lat="44.20166256304785" lon="10.49739722931772"><ele>1419.0</ele><time>2026-05-01T14:18:09.755Z</time></trkpt><trkpt lat="44.20177606204829" lon="10.497337457639993"><ele>1419.0</ele><time>2026-05-01T14:18:10.755Z</time></trkpt><trkpt lat="44.201879195204" lon="10.49728470626493"><ele>1419.0</ele><time>2026-05-01T14:18:11.755Z</time></trkpt><trkpt lat="44.20197359310776" lon="10.497250187274632"><ele>1419.0</ele><time>2026-05-01T14:18:12.755Z</time></trkpt><trkpt lat="44.20206779271419" lon="10.497200729139044"><ele>1419.0</ele><time>2026-05-01T14:18:13.755Z</time></trkpt><trkpt lat="44.2021540061103" lon="10.497097114135096"><ele>1419.0</ele><time>2026-05-01T14:18:14.755Z</time></trkpt><trkpt lat="44.20223101248756" lon="10.497001711085066"><ele>1415.0</ele><time>2026-05-01T14:18:15.754Z</time></trkpt><trkpt lat="44.20229539515701" lon="10.49689423312717"><ele>1411.0</ele><time>2026-05-01T14:18:16.754Z</time></trkpt><trkpt lat="44.20234021751159" lon="10.496724774404974"><ele>1407.0</ele><time>2026-05-01T14:18:17.754Z</time></trkpt><trkpt lat="44.20234245319723" lon="10.496550597324239"><ele>1403.0</ele><time>2026-05-01T14:18:18.754Z</time></trkpt><trkpt lat="44.20230362545782" lon="10.496366141801584"><ele>1408.4</ele><time>2026-05-01T14:18:19.754Z</time></trkpt><trkpt lat="44.202304959375276" lon="10.496262295344971"><ele>1413.8000000000002</ele><time>2026-05-01T14:18:20.754Z</time></trkpt><trkpt lat="44.20234101596412" lon="10.496125577321425"><ele>1419.2</ele><time>2026-05-01T14:18:21.754Z</time></trkpt><trkpt lat="44.20238905831326" lon="10.495992286686834"><ele>1424.6</ele><time>2026-05-01T14:18:22.754Z</time></trkpt><trkpt lat="44.20251526471033" lon="10.495923398246156"><ele>1430.0</ele><time>2026-05-01T14:18:23.754Z</time></trkpt><trkpt lat="44.202633481211365" lon="10.495865706821373"><ele>1430.0</ele><time>2026-05-01T14:18:24.754Z</time></trkpt><trkpt lat="44.202744296404965" lon="10.49576644365417"><ele>1430.0</ele><time>2026-05-01T14:18:25.754Z</time></trkpt><trkpt lat="44.20285121709765" lon="10.495634123633236"><ele>1430.0</ele><time>2026-05-01T14:18:26.754Z</time></trkpt><trkpt lat="44.20293115186626" lon="10.495474141186037"><ele>1430.0</ele><time>2026-05-01T14:18:27.754Z</time></trkpt><trkpt lat="44.20302926448577" lon="10.495324890668455"><ele>1430.0</ele><time>2026-05-01T14:18:28.754Z</time></trkpt><trkpt lat="44.20309746296436" lon="10.495134319319414"><ele>1430.0</ele><time>2026-05-01T14:18:29.754Z</time></trkpt><trkpt lat="44.203155865663405" lon="10.494936584650297"><ele>1430.0</ele><time>2026-05-01T14:18:30.754Z</time></trkpt><trkpt lat="44.20323597508249" lon="10.494740595610859"><ele>1439.0</ele><time>2026-05-01T14:18:31.754Z</time></trkpt><trkpt lat="44.20334360824014" lon="10.494560554352052"><ele>1448.0</ele><time>2026-05-01T14:18:32.753Z</time></trkpt><trkpt lat="44.20344622584944" lon="10.494404928802611"><ele>1457.0</ele><time>2026-05-01T14:18:33.754Z</time></trkpt><trkpt lat="44.20359479946806" lon="10.4942743456247"><ele>1457.0</ele><time>2026-05-01T14:18:34.754Z</time></trkpt><trkpt lat="44.20372181618054" lon="10.49417998079666"><ele>1457.0</ele><time>2026-05-01T14:18:35.754Z</time></trkpt><trkpt lat="44.203834266388476" lon="10.494056094661923"><ele>1457.0</ele><time>2026-05-01T14:18:36.754Z</time></trkpt><trkpt lat="44.203909965534876" lon="10.49390451639116"><ele>1457.0</ele><time>2026-05-01T14:18:37.754Z</time></trkpt><trkpt lat="44.20399459120121" lon="10.49379192751493"><ele>1459.5</ele><time>2026-05-01T14:18:38.754Z</time></trkpt><trkpt lat="44.204093120995715" lon="10.493729611085593"><ele>1462.0</ele><time>2026-05-01T14:18:39.753Z</time></trkpt><trkpt lat="44.20420735961084" lon="10.493763183719715"><ele>1464.5</ele><time>2026-05-01T14:18:40.753Z</time></trkpt><trkpt lat="44.20431281600236" lon="10.493838114471393"><ele>1467.0</ele><time>2026-05-01T14:18:41.754Z</time></trkpt><trkpt lat="44.204418189403206" lon="10.493944332184045"><ele>1462.75</ele><time>2026-05-01T14:18:42.754Z</time></trkpt><trkpt lat="44.204528700293174" lon="10.494024373395073"><ele>1458.5</ele><time>2026-05-01T14:18:43.754Z</time></trkpt><trkpt lat="44.204660781908345" lon="10.494063647233364"><ele>1454.25</ele><time>2026-05-01T14:18:44.753Z</time></trkpt><trkpt lat="44.20480285964643" lon="10.49405106775031"><ele>1450.0</ele><time>2026-05-01T14:18:45.754Z</time></trkpt><trkpt lat="44.20494688222529" lon="10.49398178307849"><ele>1450.0</ele><time>2026-05-01T14:18:46.754Z</time></trkpt><trkpt lat="44.205078220109776" lon="10.493922635408603"><ele>1450.0</ele><time>2026-05-01T14:18:47.754Z</time></trkpt><trkpt lat="44.20518423383712" lon="10.493906529575769"><ele>1450.0</ele><time>2026-05-01T14:18:48.754Z</time></trkpt><trkpt lat="44.20527145998467" lon="10.49393677310038"><ele>1450.0</ele><time>2026-05-01T14:18:49.754Z</time></trkpt><trkpt lat="44.20535232159536" lon="10.494003350042913"><ele>1450.0</ele><time>2026-05-01T14:18:50.754Z</time></trkpt><trkpt lat="44.2054417995432" lon="10.494064429839474"><ele>1450.0</ele><time>2026-05-01T14:18:51.753Z</time></trkpt><trkpt lat="44.20553970325592" lon="10.494048064360276"><ele>1450.0</ele><time>2026-05-01T14:18:52.753Z</time></trkpt><trkpt lat="44.205627562083144" lon="10.49395277540816"><ele>1450.0</ele><time>2026-05-01T14:18:53.753Z</time></trkpt><trkpt lat="44.20571527827429" lon="10.493836835554452"><ele>1450.0</ele><time>2026-05-01T14:18:54.753Z</time></trkpt><trkpt lat="44.20582932773635" lon="10.493699513040859"><ele>1457.25</ele><time>2026-05-01T14:18:55.753Z</time></trkpt><trkpt lat="44.205949868217786" lon="10.493601999059752"><ele>1464.5</ele><time>2026-05-01T14:18:56.753Z</time></trkpt><trkpt lat="44.20608696559448" lon="10.493547041583708"><ele>1471.75</ele><time>2026-05-01T14:18:57.753Z</time></trkpt><trkpt lat="44.20620918811279" lon="10.493488779344089"><ele>1479.0</ele><time>2026-05-01T14:18:58.753Z</time></trkpt><trkpt lat="44.20629058277171" lon="10.493448585032255"><ele>1479.0</ele><time>2026-05-01T14:18:59.753Z</time></trkpt><trkpt lat="44.20637014254558" lon="10.493284997890658"><ele>1479.0</ele><time>2026-05-01T14:19:01.753Z</time></trkpt><trkpt lat="44.20636077461631" lon="10.493136721209465"><ele>1479.0</ele><time>2026-05-01T14:19:02.753Z</time></trkpt><trkpt lat="44.206263233887576" lon="10.492984019375042"><ele>1479.0</ele><time>2026-05-01T14:19:03.753Z</time></trkpt><trkpt lat="44.206171375154604" lon="10.49286418056942"><ele>1478.75</ele><time>2026-05-01T14:19:04.753Z</time></trkpt><trkpt lat="44.20606262128509" lon="10.492741640941654"><ele>1478.5</ele><time>2026-05-01T14:19:05.753Z</time></trkpt><trkpt lat="44.2059570566173" lon="10.492646634798428"><ele>1478.25</ele><time>2026-05-01T14:19:06.753Z</time></trkpt><trkpt lat="44.20585641065248" lon="10.4925965348425"><ele>1478.0</ele><time>2026-05-01T14:19:07.753Z</time></trkpt><trkpt lat="44.20568638293341" lon="10.492569045326603"><ele>1480.2</ele><time>2026-05-01T14:19:08.753Z</time></trkpt><trkpt lat="44.20557555565729" lon="10.492544461256434"><ele>1482.4</ele><time>2026-05-01T14:19:09.753Z</time></trkpt><trkpt lat="44.205491352429405" lon="10.492490480934025"><ele>1484.6000000000001</ele><time>2026-05-01T14:19:10.753Z</time></trkpt><trkpt lat="44.20543286625208" lon="10.492403923786156"><ele>1486.8000000000002</ele><time>2026-05-01T14:19:11.753Z</time></trkpt><trkpt lat="44.20541330174873" lon="10.492219725523713"><ele>1489.0</ele><time>2026-05-01T14:19:12.753Z</time></trkpt><trkpt lat="44.20542543494279" lon="10.492024921455394"><ele>1491.3333333333333</ele><time>2026-05-01T14:19:13.753Z</time></trkpt><trkpt lat="44.20545730089395" lon="10.491823263238638"><ele>1493.6666666666667</ele><time>2026-05-01T14:19:14.753Z</time></trkpt><trkpt lat="44.20552937747695" lon="10.491626095665994"><ele>1496.0</ele><time>2026-05-01T14:19:15.753Z</time></trkpt><trkpt lat="44.20562849209354" lon="10.491403119391293"><ele>1496.6666666666667</ele><time>2026-05-01T14:19:16.753Z</time></trkpt><trkpt lat="44.20571437648102" lon="10.491138369919515"><ele>1497.3333333333333</ele><time>2026-05-01T14:19:17.753Z</time></trkpt><trkpt lat="44.205782273829364" lon="10.49091316142149"><ele>1498.0</ele><time>2026-05-01T14:19:18.753Z</time></trkpt><trkpt lat="44.20585343172918" lon="10.490708198478119"><ele>1498.0</ele><time>2026-05-01T14:19:19.753Z</time></trkpt><trkpt lat="44.20593838069972" lon="10.490566266618627"><ele>1498.0</ele><time>2026-05-01T14:19:20.753Z</time></trkpt><trkpt lat="44.20606095802867" lon="10.490483499939593"><ele>1498.0</ele><time>2026-05-01T14:19:21.753Z</time></trkpt><trkpt lat="44.20618492686628" lon="10.490414569120798"><ele>1498.0</ele><time>2026-05-01T14:19:22.753Z</time></trkpt><trkpt lat="44.206285361717946" lon="10.490316753453193"><ele>1499.25</ele><time>2026-05-01T14:19:23.753Z</time></trkpt><trkpt lat="44.206344639092826" lon="10.490169153244233"><ele>1500.5</ele><time>2026-05-01T14:19:24.753Z</time></trkpt><trkpt lat="44.20639297223438" lon="10.490003703285712"><ele>1501.75</ele><time>2026-05-01T14:19:25.753Z</time></trkpt><trkpt lat="44.20647647937063" lon="10.489879142992827"><ele>1503.0</ele><time>2026-05-01T14:19:26.753Z</time></trkpt><trkpt lat="44.20659892455212" lon="10.489839303957483"><ele>1503.0</ele><time>2026-05-01T14:19:27.753Z</time></trkpt><trkpt lat="44.20673512774125" lon="10.48985445843997"><ele>1503.0</ele><time>2026-05-01T14:19:28.753Z</time></trkpt><trkpt lat="44.20687050636359" lon="10.489815392660885"><ele>1503.0</ele><time>2026-05-01T14:19:29.753Z</time></trkpt><trkpt lat="44.207001251530365" lon="10.489750937558098"><ele>1503.0</ele><time>2026-05-01T14:19:30.752Z</time></trkpt><trkpt lat="44.20712663720454" lon="10.489686084720073"><ele>1505.75</ele><time>2026-05-01T14:19:31.752Z</time></trkpt><trkpt lat="44.20721617979075" lon="10.489525709742018"><ele>1508.5</ele><time>2026-05-01T14:19:32.752Z</time></trkpt><trkpt lat="44.207288688623066" lon="10.48937876453354"><ele>1511.25</ele><time>2026-05-01T14:19:33.752Z</time></trkpt><trkpt lat="44.207346552285614" lon="10.489237134362362"><ele>1514.0</ele><time>2026-05-01T14:19:34.752Z</time></trkpt><trkpt lat="44.20744077903647" lon="10.489158366450715"><ele>1514.0</ele><time>2026-05-01T14:19:35.752Z</time></trkpt><trkpt lat="44.207574174963824" lon="10.489078597316324"><ele>1514.0</ele><time>2026-05-01T14:19:36.752Z</time></trkpt><trkpt lat="44.20772012045928" lon="10.488991788336001"><ele>1514.0</ele><time>2026-05-01T14:19:37.752Z</time></trkpt><trkpt lat="44.20785090500059" lon="10.488903391670961"><ele>1514.0</ele><time>2026-05-01T14:19:38.752Z</time></trkpt><trkpt lat="44.208001423964404" lon="10.488832487555465"><ele>1514.0</ele><time>2026-05-01T14:19:39.752Z</time></trkpt><trkpt lat="44.208159495100375" lon="10.4887979402759"><ele>1514.0</ele><time>2026-05-01T14:19:40.752Z</time></trkpt><trkpt lat="44.20831913645473" lon="10.488825387749031"><ele>1514.0</ele><time>2026-05-01T14:19:41.752Z</time></trkpt><trkpt lat="44.208476473455605" lon="10.48887280512897"><ele>1513.2</ele><time>2026-05-01T14:19:42.752Z</time></trkpt><trkpt lat="44.20861720470055" lon="10.488925014017594"><ele>1512.4</ele><time>2026-05-01T14:19:43.752Z</time></trkpt><trkpt lat="44.20872458194964" lon="10.488986277462176"><ele>1511.6</ele><time>2026-05-01T14:19:44.752Z</time></trkpt><trkpt lat="44.20878203443547" lon="10.489024156282023"><ele>1510.8</ele><time>2026-05-01T14:19:45.752Z</time></trkpt><trkpt lat="44.208847850786576" lon="10.489037552257106"><ele>1510.0</ele><time>2026-05-01T14:19:48.752Z</time></trkpt><trkpt lat="44.208950613743085" lon="10.48900472789322"><ele>1511.8333333333333</ele><time>2026-05-01T14:20:03.752Z</time></trkpt><trkpt lat="44.209028998284666" lon="10.48896326331271"><ele>1513.6666666666665</ele><time>2026-05-01T14:20:05.752Z</time></trkpt><trkpt lat="44.20911198431692" lon="10.488926116017009"><ele>1515.5</ele><time>2026-05-01T14:20:07.752Z</time></trkpt><trkpt lat="44.20918963067108" lon="10.488877904527861"><ele>1517.3333333333333</ele><time>2026-05-01T14:20:09.752Z</time></trkpt><trkpt lat="44.2092638729048" lon="10.488836339352469"><ele>1519.1666666666667</ele><time>2026-05-01T14:20:11.751Z</time></trkpt><trkpt lat="44.209341092514215" lon="10.488785310476361"><ele>1521.0</ele><time>2026-05-01T14:20:13.751Z</time></trkpt><trkpt lat="44.20940604989202" lon="10.488740460002692"><ele>1522.0</ele><time>2026-05-01T14:20:15.751Z</time></trkpt><trkpt lat="44.20947177149936" lon="10.488730903588985"><ele>1523.0</ele><time>2026-05-01T14:20:17.751Z</time></trkpt><trkpt lat="44.20952857477056" lon="10.488666206102861"><ele>1524.0</ele><time>2026-05-01T14:20:20.751Z</time></trkpt><trkpt lat="44.209600314959" lon="10.488555597979868"><ele>1525.0</ele><time>2026-05-01T14:24:50.745Z</time></trkpt><trkpt lat="44.20969958973942" lon="10.48853581931156"><ele>1526.0</ele><time>2026-05-01T14:24:52.745Z</time></trkpt><trkpt lat="44.20980746332101" lon="10.488515541571521"><ele>1526.0</ele><time>2026-05-01T14:24:54.745Z</time></trkpt><trkpt lat="44.20988331266628" lon="10.48850322226002"><ele>1526.0</ele><time>2026-05-01T14:24:56.745Z</time></trkpt><trkpt lat="44.20984293844889" lon="10.488323400163107"><ele>1526.0</ele><time>2026-05-01T14:25:03.746Z</time></trkpt><trkpt lat="44.20976978806975" lon="10.488397407510483"><ele>1526.0</ele><time>2026-05-01T14:25:06.745Z</time></trkpt><trkpt lat="44.20972638091608" lon="10.488483647547884"><ele>1526.0</ele><time>2026-05-01T14:25:08.746Z</time></trkpt><trkpt lat="44.20966014782592" lon="10.48856272002746"><ele>1526.0</ele><time>2026-05-01T14:25:10.746Z</time></trkpt><trkpt lat="44.20956935078494" lon="10.488600299978977"><ele>1526.0</ele><time>2026-05-01T14:25:12.746Z</time></trkpt><trkpt lat="44.209463737918426" lon="10.488645235871061"><ele>1526.0</ele><time>2026-05-01T14:25:14.746Z</time></trkpt><trkpt lat="44.20939480169314" lon="10.488664144382135"><ele>1526.0</ele><time>2026-05-01T14:25:15.746Z</time></trkpt><trkpt lat="44.20929228786935" lon="10.48869219441113"><ele>1526.0</ele><time>2026-05-01T14:25:17.746Z</time></trkpt><trkpt lat="44.209215912098166" lon="10.488715585577067"><ele>1526.0</ele><time>2026-05-01T14:25:18.745Z</time></trkpt><trkpt lat="44.209107390233676" lon="10.48861965585425"><ele>1526.0</ele><time>2026-05-01T14:25:19.745Z</time></trkpt><trkpt lat="44.20897927415227" lon="10.488567122251721"><ele>1526.0</ele><time>2026-05-01T14:25:20.745Z</time></trkpt><trkpt lat="44.20884809587279" lon="10.488515748049707"><ele>1526.0</ele><time>2026-05-01T14:25:21.745Z</time></trkpt><trkpt lat="44.20871658437513" lon="10.48848175779816"><ele>1528.0</ele><time>2026-05-01T14:25:22.745Z</time></trkpt><trkpt lat="44.20858780258034" lon="10.488426708602168"><ele>1530.0</ele><time>2026-05-01T14:25:23.745Z</time></trkpt><trkpt lat="44.20846658798812" lon="10.488369358078915"><ele>1532.0</ele><time>2026-05-01T14:25:24.745Z</time></trkpt><trkpt lat="44.2083533881021" lon="10.488311520806743"><ele>1534.0</ele><time>2026-05-01T14:25:25.745Z</time></trkpt><trkpt lat="44.208266885641834" lon="10.488240169077624"><ele>1534.0</ele><time>2026-05-01T14:25:26.745Z</time></trkpt><trkpt lat="44.208162874467874" lon="10.488208281100764"><ele>1534.0</ele><time>2026-05-01T14:25:27.745Z</time></trkpt><trkpt lat="44.208060716861866" lon="10.488247595751572"><ele>1534.0</ele><time>2026-05-01T14:25:28.745Z</time></trkpt><trkpt lat="44.20794785140658" lon="10.488262004752691"><ele>1534.0</ele><time>2026-05-01T14:25:29.745Z</time></trkpt><trkpt lat="44.2078421694133" lon="10.488242675815464"><ele>1534.0</ele><time>2026-05-01T14:25:30.745Z</time></trkpt><trkpt lat="44.20776582156674" lon="10.488139138083053"><ele>1535.0</ele><time>2026-05-01T14:25:31.745Z</time></trkpt><trkpt lat="44.207680541410134" lon="10.488030180641386"><ele>1536.0</ele><time>2026-05-01T14:25:32.745Z</time></trkpt><trkpt lat="44.20758391194057" lon="10.48791256134392"><ele>1537.0</ele><time>2026-05-01T14:25:33.745Z</time></trkpt><trkpt lat="44.207486464455336" lon="10.487812696067095"><ele>1538.0</ele><time>2026-05-01T14:25:34.745Z</time></trkpt><trkpt lat="44.20739261629783" lon="10.487712328976658"><ele>1545.0</ele><time>2026-05-01T14:25:35.745Z</time></trkpt><trkpt lat="44.207296634092195" lon="10.487611086420024"><ele>1552.0</ele><time>2026-05-01T14:25:36.745Z</time></trkpt><trkpt lat="44.20716111639507" lon="10.487609714824552"><ele>1559.0</ele><time>2026-05-01T14:25:37.745Z</time></trkpt><trkpt lat="44.20701825408652" lon="10.48762798379892"><ele>1566.0</ele><time>2026-05-01T14:25:38.745Z</time></trkpt><trkpt lat="44.20686335930495" lon="10.487649573335732"><ele>1566.0</ele><time>2026-05-01T14:25:39.745Z</time></trkpt><trkpt lat="44.20669913841827" lon="10.48763529762459"><ele>1566.0</ele><time>2026-05-01T14:25:40.745Z</time></trkpt><trkpt lat="44.20655435139359" lon="10.487583573527724"><ele>1566.0</ele><time>2026-05-01T14:25:41.745Z</time></trkpt><trkpt lat="44.206412446411115" lon="10.487522816095966"><ele>1569.0</ele><time>2026-05-01T14:25:42.745Z</time></trkpt><trkpt lat="44.206275525576146" lon="10.48744940800286"><ele>1572.0</ele><time>2026-05-01T14:25:43.745Z</time></trkpt><trkpt lat="44.2061228152436" lon="10.487376752589885"><ele>1575.0</ele><time>2026-05-01T14:25:44.745Z</time></trkpt><trkpt lat="44.205943329584514" lon="10.487358195322427"><ele>1575.0</ele><time>2026-05-01T14:25:45.745Z</time></trkpt><trkpt lat="44.205799832202246" lon="10.487373556142838"><ele>1575.0</ele><time>2026-05-01T14:25:46.745Z</time></trkpt><trkpt lat="44.20569060689006" lon="10.487353380201993"><ele>1575.0</ele><time>2026-05-01T14:25:47.745Z</time></trkpt><trkpt lat="44.20559069464241" lon="10.487322129850098"><ele>1575.0</ele><time>2026-05-01T14:25:48.745Z</time></trkpt><trkpt lat="44.205499960529586" lon="10.487257052527713"><ele>1578.2</ele><time>2026-05-01T14:25:49.745Z</time></trkpt><trkpt lat="44.20541062605716" lon="10.487200538406888"><ele>1581.4</ele><time>2026-05-01T14:25:50.745Z</time></trkpt><trkpt lat="44.20532196058124" lon="10.487197738139164"><ele>1584.6</ele><time>2026-05-01T14:25:51.745Z</time></trkpt><trkpt lat="44.20524754761756" lon="10.487243240573598"><ele>1587.8</ele><time>2026-05-01T14:25:52.745Z</time></trkpt><trkpt lat="44.205174800487846" lon="10.487324476174896"><ele>1591.0</ele><time>2026-05-01T14:25:53.745Z</time></trkpt><trkpt lat="44.205083264031686" lon="10.487425950704788"><ele>1591.0</ele><time>2026-05-01T14:25:54.745Z</time></trkpt><trkpt lat="44.20496675186436" lon="10.487514892172367"><ele>1591.0</ele><time>2026-05-01T14:25:55.745Z</time></trkpt><trkpt lat="44.20484207132091" lon="10.487581746281037"><ele>1591.0</ele><time>2026-05-01T14:25:56.745Z</time></trkpt><trkpt lat="44.20469324387982" lon="10.487593960230635"><ele>1591.0</ele><time>2026-05-01T14:25:57.746Z</time></trkpt><trkpt lat="44.20450861009826" lon="10.487629769343233"><ele>1595.0</ele><time>2026-05-01T14:25:58.746Z</time></trkpt><trkpt lat="44.204346131748046" lon="10.487674792350115"><ele>1599.0</ele><time>2026-05-01T14:25:59.746Z</time></trkpt><trkpt lat="44.20422484539532" lon="10.487680604082977"><ele>1603.0</ele><time>2026-05-01T14:26:00.746Z</time></trkpt><trkpt lat="44.20411047606716" lon="10.487676025148499"><ele>1607.0</ele><time>2026-05-01T14:26:01.746Z</time></trkpt><trkpt lat="44.204010782661555" lon="10.487669528233063"><ele>1606.6</ele><time>2026-05-01T14:26:02.746Z</time></trkpt><trkpt lat="44.203922797111716" lon="10.487668694923084"><ele>1606.1999999999998</ele><time>2026-05-01T14:26:03.746Z</time></trkpt><trkpt lat="44.20382132312985" lon="10.487628121407315"><ele>1605.8</ele><time>2026-05-01T14:26:04.746Z</time></trkpt><trkpt lat="44.20371231413071" lon="10.48757842941108"><ele>1605.4</ele><time>2026-05-01T14:26:05.746Z</time></trkpt><trkpt lat="44.20360639161744" lon="10.487512579361745"><ele>1605.0</ele><time>2026-05-01T14:26:06.746Z</time></trkpt><trkpt lat="44.20347834984267" lon="10.487425722314338"><ele>1605.0</ele><time>2026-05-01T14:26:07.746Z</time></trkpt><trkpt lat="44.20334895519392" lon="10.487317839240678"><ele>1605.0</ele><time>2026-05-01T14:26:08.746Z</time></trkpt><trkpt lat="44.20321022731545" lon="10.487216572479879"><ele>1605.0</ele><time>2026-05-01T14:26:09.746Z</time></trkpt><trkpt lat="44.20306349049446" lon="10.487197640873026"><ele>1604.6666666666665</ele><time>2026-05-01T14:26:10.746Z</time></trkpt><trkpt lat="44.20290585963192" lon="10.487144961470273"><ele>1604.3333333333333</ele><time>2026-05-01T14:26:11.746Z</time></trkpt><trkpt lat="44.202745431911126" lon="10.487122095783265"><ele>1604.0</ele><time>2026-05-01T14:26:12.746Z</time></trkpt><trkpt lat="44.20258009225128" lon="10.487106443000531"><ele>1604.0</ele><time>2026-05-01T14:26:13.746Z</time></trkpt><trkpt lat="44.20241545444739" lon="10.487108328654744"><ele>1604.0</ele><time>2026-05-01T14:26:14.746Z</time></trkpt><trkpt lat="44.20226316677555" lon="10.487161424010942"><ele>1604.0</ele><time>2026-05-01T14:26:15.746Z</time></trkpt><trkpt lat="44.202124076750856" lon="10.487254825246564"><ele>1606.3333333333333</ele><time>2026-05-01T14:26:16.746Z</time></trkpt><trkpt lat="44.20197069315489" lon="10.48735939807022"><ele>1608.6666666666665</ele><time>2026-05-01T14:26:17.746Z</time></trkpt><trkpt lat="44.201808736246655" lon="10.48747067861814"><ele>1611.0</ele><time>2026-05-01T14:26:18.746Z</time></trkpt><trkpt lat="44.20165086466669" lon="10.487582749355093"><ele>1611.0</ele><time>2026-05-01T14:26:19.746Z</time></trkpt><trkpt lat="44.20150925065892" lon="10.487698861914922"><ele>1611.0</ele><time>2026-05-01T14:26:20.746Z</time></trkpt><trkpt lat="44.20139186087509" lon="10.487800896882776"><ele>1611.0</ele><time>2026-05-01T14:26:21.746Z</time></trkpt><trkpt lat="44.20127848244191" lon="10.487894391970206"><ele>1611.0</ele><time>2026-05-01T14:26:22.746Z</time></trkpt><trkpt lat="44.201178707091685" lon="10.487954912688934"><ele>1613.3333333333333</ele><time>2026-05-01T14:26:23.746Z</time></trkpt><trkpt lat="44.20108856548711" lon="10.48797579092077"><ele>1615.6666666666665</ele><time>2026-05-01T14:26:24.746Z</time></trkpt><trkpt lat="44.200995457155734" lon="10.487989463532019"><ele>1618.0</ele><time>2026-05-01T14:26:25.746Z</time></trkpt><trkpt lat="44.20091519547073" lon="10.487981658120333"><ele>1620.3333333333333</ele><time>2026-05-01T14:26:26.745Z</time></trkpt><trkpt lat="44.20084338155957" lon="10.487978148925475"><ele>1622.6666666666665</ele><time>2026-05-01T14:26:27.745Z</time></trkpt><trkpt lat="44.20077924725063" lon="10.487986894564314"><ele>1625.0</ele><time>2026-05-01T14:26:28.745Z</time></trkpt><trkpt lat="44.200704767655324" lon="10.4880131754316"><ele>1627.0</ele><time>2026-05-01T14:26:31.745Z</time></trkpt><trkpt lat="44.20061721169277" lon="10.48810866348917"><ele>1629.0</ele><time>2026-05-01T14:26:54.745Z</time></trkpt><trkpt lat="44.20054193180781" lon="10.488106953082212"><ele>1631.0</ele><time>2026-05-01T14:26:56.745Z</time></trkpt><trkpt lat="44.20046859590643" lon="10.4880482878941"><ele>1633.0</ele><time>2026-05-01T14:26:57.745Z</time></trkpt><trkpt lat="44.20037303431865" lon="10.488049361379076"><ele>1635.0</ele><time>2026-05-01T14:26:58.745Z</time></trkpt><trkpt lat="44.20028450164409" lon="10.488038848660139"><ele>1635.0</ele><time>2026-05-01T14:26:59.745Z</time></trkpt><trkpt lat="44.20017174807756" lon="10.488084149230392"><ele>1635.0</ele><time>2026-05-01T14:27:00.745Z</time></trkpt><trkpt lat="44.20003361085204" lon="10.488001777230435"><ele>1635.0</ele><time>2026-05-01T14:27:01.745Z</time></trkpt><trkpt lat="44.19991407831447" lon="10.487891845046676"><ele>1635.0</ele><time>2026-05-01T14:27:02.745Z</time></trkpt><trkpt lat="44.199798845730236" lon="10.48777235479002"><ele>1632.3333333333335</ele><time>2026-05-01T14:27:03.745Z</time></trkpt><trkpt lat="44.19970070116276" lon="10.487617594803952"><ele>1629.6666666666667</ele><time>2026-05-01T14:27:04.745Z</time></trkpt><trkpt lat="44.19955647726749" lon="10.487494063906283"><ele>1627.0</ele><time>2026-05-01T14:27:05.745Z</time></trkpt><trkpt lat="44.19943356589045" lon="10.487390005283254"><ele>1627.0</ele><time>2026-05-01T14:27:06.745Z</time></trkpt><trkpt lat="44.199320171327265" lon="10.48729064001961"><ele>1627.0</ele><time>2026-05-01T14:27:07.745Z</time></trkpt><trkpt lat="44.19921045104619" lon="10.487181765458043"><ele>1627.0</ele><time>2026-05-01T14:27:08.745Z</time></trkpt><trkpt lat="44.19911102038602" lon="10.487044693804583"><ele>1627.0</ele><time>2026-05-01T14:27:09.745Z</time></trkpt><trkpt lat="44.19901006699079" lon="10.486884859372028"><ele>1625.0</ele><time>2026-05-01T14:27:10.745Z</time></trkpt><trkpt lat="44.19888670525251" lon="10.486734639721043"><ele>1623.0</ele><time>2026-05-01T14:27:11.745Z</time></trkpt><trkpt lat="44.19875376739162" lon="10.48663286046204"><ele>1621.0</ele><time>2026-05-01T14:27:12.745Z</time></trkpt><trkpt lat="44.19862958930603" lon="10.486502837528082"><ele>1621.0</ele><time>2026-05-01T14:27:13.745Z</time></trkpt><trkpt lat="44.19849913830618" lon="10.486390069251973"><ele>1621.0</ele><time>2026-05-01T14:27:14.745Z</time></trkpt><trkpt lat="44.198366330777404" lon="10.486275180558714"><ele>1621.0</ele><time>2026-05-01T14:27:15.745Z</time></trkpt><trkpt lat="44.19823382929403" lon="10.486179187845828"><ele>1619.0</ele><time>2026-05-01T14:27:16.745Z</time></trkpt><trkpt lat="44.198120903464215" lon="10.486069446509108"><ele>1617.0</ele><time>2026-05-01T14:27:17.745Z</time></trkpt><trkpt lat="44.1979864348148" lon="10.486029835727184"><ele>1615.0</ele><time>2026-05-01T14:27:18.745Z</time></trkpt><trkpt lat="44.1978466355099" lon="10.485995717226617"><ele>1613.0</ele><time>2026-05-01T14:27:19.745Z</time></trkpt><trkpt lat="44.197695105613356" lon="10.485970194369576"><ele>1613.0</ele><time>2026-05-01T14:27:20.745Z</time></trkpt><trkpt lat="44.197540019583606" lon="10.485906542377284"><ele>1613.0</ele><time>2026-05-01T14:27:21.745Z</time></trkpt><trkpt lat="44.19742286158211" lon="10.485791779924583"><ele>1613.0</ele><time>2026-05-01T14:27:22.745Z</time></trkpt><trkpt lat="44.1973153550559" lon="10.485665572020746"><ele>1613.0</ele><time>2026-05-01T14:27:23.745Z</time></trkpt><trkpt lat="44.19721335066832" lon="10.485527346310356"><ele>1610.0</ele><time>2026-05-01T14:27:24.745Z</time></trkpt><trkpt lat="44.1970992893114" lon="10.485387111351688"><ele>1607.0</ele><time>2026-05-01T14:27:25.745Z</time></trkpt><trkpt lat="44.19699691155075" lon="10.48526491028363"><ele>1604.0</ele><time>2026-05-01T14:27:26.745Z</time></trkpt><trkpt lat="44.1969020348637" lon="10.485141836975643"><ele>1601.0</ele><time>2026-05-01T14:27:27.744Z</time></trkpt><trkpt lat="44.19680901525892" lon="10.485014503939293"><ele>1601.0</ele><time>2026-05-01T14:27:28.744Z</time></trkpt><trkpt lat="44.19671176949627" lon="10.484884850302874"><ele>1601.0</ele><time>2026-05-01T14:27:29.744Z</time></trkpt><trkpt lat="44.19661016647326" lon="10.484774796384793"><ele>1601.0</ele><time>2026-05-01T14:27:30.744Z</time></trkpt><trkpt lat="44.1965027790537" lon="10.484683279638377"><ele>1601.0</ele><time>2026-05-01T14:27:31.744Z</time></trkpt><trkpt lat="44.1963978258753" lon="10.48462430234567"><ele>1602.0</ele><time>2026-05-01T14:27:32.744Z</time></trkpt><trkpt lat="44.19628572576159" lon="10.484591566505852"><ele>1603.0</ele><time>2026-05-01T14:27:33.744Z</time></trkpt><trkpt lat="44.19615945258811" lon="10.484581214995139"><ele>1604.0</ele><time>2026-05-01T14:27:34.744Z</time></trkpt><trkpt lat="44.1960502863642" lon="10.48460486510165"><ele>1605.0</ele><time>2026-05-01T14:27:35.744Z</time></trkpt><trkpt lat="44.19595133440328" lon="10.48463252913652"><ele>1605.0</ele><time>2026-05-01T14:27:36.744Z</time></trkpt><trkpt lat="44.19585132811601" lon="10.48465218010442"><ele>1605.0</ele><time>2026-05-01T14:27:37.744Z</time></trkpt><trkpt lat="44.19574952331424" lon="10.484638919002604"><ele>1605.0</ele><time>2026-05-01T14:27:38.744Z</time></trkpt><trkpt lat="44.195654618526255" lon="10.484592199903194"><ele>1605.0</ele><time>2026-05-01T14:27:39.744Z</time></trkpt><trkpt lat="44.19555781355053" lon="10.484537884975119"><ele>1605.0</ele><time>2026-05-01T14:27:40.744Z</time></trkpt><trkpt lat="44.19546065657336" lon="10.48447405642623"><ele>1601.25</ele><time>2026-05-01T14:27:41.744Z</time></trkpt><trkpt lat="44.19536775372018" lon="10.484393859157873"><ele>1597.5</ele><time>2026-05-01T14:27:42.744Z</time></trkpt><trkpt lat="44.195275125630374" lon="10.484301593028722"><ele>1593.75</ele><time>2026-05-01T14:27:43.744Z</time></trkpt><trkpt lat="44.195185521595285" lon="10.484191686049416"><ele>1590.0</ele><time>2026-05-01T14:27:44.744Z</time></trkpt><trkpt lat="44.19509085456043" lon="10.484088846873696"><ele>1590.0</ele><time>2026-05-01T14:27:45.744Z</time></trkpt><trkpt lat="44.19502163082387" lon="10.483950024492248"><ele>1590.0</ele><time>2026-05-01T14:27:46.744Z</time></trkpt><trkpt lat="44.194957093327446" lon="10.483814250111568"><ele>1590.0</ele><time>2026-05-01T14:27:47.744Z</time></trkpt><trkpt lat="44.19490937795926" lon="10.483672427529424"><ele>1590.0</ele><time>2026-05-01T14:27:48.744Z</time></trkpt><trkpt lat="44.19488961750815" lon="10.483516750148903"><ele>1593.25</ele><time>2026-05-01T14:27:49.744Z</time></trkpt><trkpt lat="44.19487612355334" lon="10.48335225459938"><ele>1596.5</ele><time>2026-05-01T14:27:50.744Z</time></trkpt><trkpt lat="44.19486376881441" lon="10.483188505685202"><ele>1599.75</ele><time>2026-05-01T14:27:51.744Z</time></trkpt><trkpt lat="44.194831800165886" lon="10.483031099600483"><ele>1603.0</ele><time>2026-05-01T14:27:52.744Z</time></trkpt><trkpt lat="44.194748343047216" lon="10.4828868373171"><ele>1595.0</ele><time>2026-05-01T14:27:53.744Z</time></trkpt><trkpt lat="44.194662401058125" lon="10.482788623959204"><ele>1587.0</ele><time>2026-05-01T14:27:54.744Z</time></trkpt><trkpt lat="44.194540406829425" lon="10.482721101444607"><ele>1579.0</ele><time>2026-05-01T14:27:55.744Z</time></trkpt><trkpt lat="44.19439362427397" lon="10.482640031343928"><ele>1571.0</ele><time>2026-05-01T14:27:56.744Z</time></trkpt><trkpt lat="44.19424839586782" lon="10.482543645178547"><ele>1571.0</ele><time>2026-05-01T14:27:57.744Z</time></trkpt><trkpt lat="44.194073211737184" lon="10.482417634912338"><ele>1571.0</ele><time>2026-05-01T14:27:58.744Z</time></trkpt><trkpt lat="44.19388188311772" lon="10.48227225423475"><ele>1571.0</ele><time>2026-05-01T14:27:59.744Z</time></trkpt><trkpt lat="44.193693830126854" lon="10.48214226096215"><ele>1570.5</ele><time>2026-05-01T14:28:00.744Z</time></trkpt><trkpt lat="44.19351828127893" lon="10.48206626944899"><ele>1570.0</ele><time>2026-05-01T14:28:01.744Z</time></trkpt><trkpt lat="44.193397714602966" lon="10.48197135187965"><ele>1569.5</ele><time>2026-05-01T14:28:02.744Z</time></trkpt><trkpt lat="44.19332605216266" lon="10.481824880433694"><ele>1569.0</ele><time>2026-05-01T14:28:03.744Z</time></trkpt><trkpt lat="44.19331809978737" lon="10.48166985998955"><ele>1569.0</ele><time>2026-05-01T14:28:04.744Z</time></trkpt><trkpt lat="44.1933999886366" lon="10.481901217852919"><ele>1569.0</ele><time>2026-05-01T14:28:05.744Z</time></trkpt><trkpt lat="44.19339493702111" lon="10.481779629301291"><ele>1569.0</ele><time>2026-05-01T14:28:06.744Z</time></trkpt><trkpt lat="44.193387804568026" lon="10.481630239975146"><ele>1569.0</ele><time>2026-05-01T14:28:07.743Z</time></trkpt><trkpt lat="44.19337342493057" lon="10.481467501889716"><ele>1569.0</ele><time>2026-05-01T14:28:08.743Z</time></trkpt><trkpt lat="44.19335769352924" lon="10.48131072801994"><ele>1569.0</ele><time>2026-05-01T14:28:09.743Z</time></trkpt><trkpt lat="44.19333141249267" lon="10.481194794169417"><ele>1569.0</ele><time>2026-05-01T14:28:10.743Z</time></trkpt><trkpt lat="44.1933003171709" lon="10.48110627706729"><ele>1569.0</ele><time>2026-05-01T14:28:11.743Z</time></trkpt><trkpt lat="44.19324389522728" lon="10.481033594265435"><ele>1569.0</ele><time>2026-05-01T14:28:12.743Z</time></trkpt><trkpt lat="44.19313914727782" lon="10.481033201689426"><ele>1564.0</ele><time>2026-05-01T14:28:13.743Z</time></trkpt><trkpt lat="44.19304977093378" lon="10.481046789395194"><ele>1559.0</ele><time>2026-05-01T14:28:14.743Z</time></trkpt><trkpt lat="44.19294115574521" lon="10.48109668616231"><ele>1554.0</ele><time>2026-05-01T14:28:15.743Z</time></trkpt><trkpt lat="44.19281333286331" lon="10.481128846062589"><ele>1549.0</ele><time>2026-05-01T14:28:16.743Z</time></trkpt><trkpt lat="44.192667365903475" lon="10.481155818020424"><ele>1549.0</ele><time>2026-05-01T14:28:17.743Z</time></trkpt><trkpt lat="44.19252166268935" lon="10.481153917520789"><ele>1549.0</ele><time>2026-05-01T14:28:18.743Z</time></trkpt><trkpt lat="44.19237809503788" lon="10.481144540236931"><ele>1549.0</ele><time>2026-05-01T14:28:19.743Z</time></trkpt><trkpt lat="44.1922507403483" lon="10.481122346947908"><ele>1549.0</ele><time>2026-05-01T14:28:20.743Z</time></trkpt><trkpt lat="44.19213764147175" lon="10.481109447810027"><ele>1547.1666666666667</ele><time>2026-05-01T14:28:21.743Z</time></trkpt><trkpt lat="44.19203385335037" lon="10.481078856304311"><ele>1545.3333333333335</ele><time>2026-05-01T14:28:22.743Z</time></trkpt><trkpt lat="44.191940898663006" lon="10.481058513356833"><ele>1543.5</ele><time>2026-05-01T14:28:23.743Z</time></trkpt><trkpt lat="44.191847858918464" lon="10.481028164412482"><ele>1541.6666666666665</ele><time>2026-05-01T14:28:24.743Z</time></trkpt><trkpt lat="44.191775326222405" lon="10.481015965723303"><ele>1539.8333333333333</ele><time>2026-05-01T14:28:25.743Z</time></trkpt><trkpt lat="44.19170682103679" lon="10.480999385160164"><ele>1538.0</ele><time>2026-05-01T14:28:26.743Z</time></trkpt><trkpt lat="44.19163010893747" lon="10.480964939681794"><ele>1538.0</ele><time>2026-05-01T14:28:28.743Z</time></trkpt><trkpt lat="44.19157100632751" lon="10.48093180478646"><ele>1538.0</ele><time>2026-05-01T14:28:31.743Z</time></trkpt><trkpt lat="44.191420259078654" lon="10.4809841093081"><ele>1538.0</ele><time>2026-05-01T14:31:16.74Z</time></trkpt><trkpt lat="44.191318437136104" lon="10.480900542569314"><ele>1538.0</ele><time>2026-05-01T14:31:17.74Z</time></trkpt><trkpt lat="44.191197327200165" lon="10.480867562847264"><ele>1534.75</ele><time>2026-05-01T14:31:18.74Z</time></trkpt><trkpt lat="44.191032444586156" lon="10.480825946426904"><ele>1531.5</ele><time>2026-05-01T14:31:19.74Z</time></trkpt><trkpt lat="44.190894346958075" lon="10.480791758633604"><ele>1528.25</ele><time>2026-05-01T14:31:20.74Z</time></trkpt><trkpt lat="44.19077680091859" lon="10.480758778249369"><ele>1525.0</ele><time>2026-05-01T14:31:21.74Z</time></trkpt><trkpt lat="44.19065986767436" lon="10.480722811858696"><ele>1523.8333333333333</ele><time>2026-05-01T14:31:22.74Z</time></trkpt><trkpt lat="44.19056260976229" lon="10.480692897322237"><ele>1522.6666666666665</ele><time>2026-05-01T14:31:23.74Z</time></trkpt><trkpt lat="44.190469695150526" lon="10.48066431867329"><ele>1521.5</ele><time>2026-05-01T14:31:24.74Z</time></trkpt><trkpt lat="44.190385633652504" lon="10.480634725222933"><ele>1520.3333333333333</ele><time>2026-05-01T14:31:25.74Z</time></trkpt><trkpt lat="44.19031528189859" lon="10.480611140013977"><ele>1519.1666666666667</ele><time>2026-05-01T14:31:26.74Z</time></trkpt><trkpt lat="44.19023505876421" lon="10.480596420703339"><ele>1518.0</ele><time>2026-05-01T14:31:27.74Z</time></trkpt><trkpt lat="44.190160033485085" lon="10.480597893450831"><ele>1518.0</ele><time>2026-05-01T14:31:28.74Z</time></trkpt><trkpt lat="44.19009312273805" lon="10.480605122893147"><ele>1518.0</ele><time>2026-05-01T14:31:29.74Z</time></trkpt><trkpt lat="44.1900273252398" lon="10.480615878082737"><ele>1518.0</ele><time>2026-05-01T14:31:30.74Z</time></trkpt><trkpt lat="44.18994869443708" lon="10.480634257521652"><ele>1518.0</ele><time>2026-05-01T14:31:31.74Z</time></trkpt><trkpt lat="44.18987207795193" lon="10.480658645871321"><ele>1518.0</ele><time>2026-05-01T14:31:32.74Z</time></trkpt><trkpt lat="44.1897557785816" lon="10.48069707165369"><ele>1518.0</ele><time>2026-05-01T14:31:34.74Z</time></trkpt><trkpt lat="44.18974087504889" lon="10.480854805050418"><ele>1514.2</ele><time>2026-05-01T14:31:36.74Z</time></trkpt><trkpt lat="44.1897571532729" lon="10.480940244855805"><ele>1510.4</ele><time>2026-05-01T14:31:37.74Z</time></trkpt><trkpt lat="44.189827423163095" lon="10.481054209769436"><ele>1506.6000000000001</ele><time>2026-05-01T14:31:38.74Z</time></trkpt><trkpt lat="44.18975787466036" lon="10.481130772568376"><ele>1502.8000000000002</ele><time>2026-05-01T14:31:40.74Z</time></trkpt><trkpt lat="44.18964057714755" lon="10.481114297504353"><ele>1499.0</ele><time>2026-05-01T14:31:43.74Z</time></trkpt><trkpt lat="44.18957546688496" lon="10.481046002936882"><ele>1499.0</ele><time>2026-05-01T14:31:44.74Z</time></trkpt><trkpt lat="44.189492670294015" lon="10.480992223120715"><ele>1499.0</ele><time>2026-05-01T14:31:45.74Z</time></trkpt><trkpt lat="44.18940736874424" lon="10.480925678682722"><ele>1499.0</ele><time>2026-05-01T14:31:46.74Z</time></trkpt><trkpt lat="44.18932259203771" lon="10.480863652877238"><ele>1499.0</ele><time>2026-05-01T14:31:47.74Z</time></trkpt><trkpt lat="44.18924790713252" lon="10.480770041007851"><ele>1499.0</ele><time>2026-05-01T14:31:48.74Z</time></trkpt><trkpt lat="44.189149988406825" lon="10.48065441212119"><ele>1499.0</ele><time>2026-05-01T14:31:49.74Z</time></trkpt><trkpt lat="44.18905437644897" lon="10.480544121090666"><ele>1499.0</ele><time>2026-05-01T14:31:50.74Z</time></trkpt><trkpt lat="44.18896998356311" lon="10.480434649406485"><ele>1499.0</ele><time>2026-05-01T14:31:51.74Z</time></trkpt><trkpt lat="44.18888699300998" lon="10.480322236570293"><ele>1499.0</ele><time>2026-05-01T14:31:52.74Z</time></trkpt><trkpt lat="44.188805822046575" lon="10.480210749709071"><ele>1494.8000000000002</ele><time>2026-05-01T14:31:53.74Z</time></trkpt><trkpt lat="44.188731684387" lon="10.480103275043627"><ele>1490.6000000000001</ele><time>2026-05-01T14:31:54.74Z</time></trkpt><trkpt lat="44.18866831992541" lon="10.48000590746147"><ele>1486.4</ele><time>2026-05-01T14:31:55.74Z</time></trkpt><trkpt lat="44.18860133036364" lon="10.479901808173965"><ele>1482.2</ele><time>2026-05-01T14:31:56.739Z</time></trkpt><trkpt lat="44.188539111693" lon="10.479810302238425"><ele>1478.0</ele><time>2026-05-01T14:31:57.739Z</time></trkpt><trkpt lat="44.18846278928516" lon="10.479717570391987"><ele>1478.0</ele><time>2026-05-01T14:31:58.739Z</time></trkpt><trkpt lat="44.18839158965538" lon="10.479658531336812"><ele>1478.0</ele><time>2026-05-01T14:31:59.739Z</time></trkpt><trkpt lat="44.18831491445763" lon="10.479612615863088"><ele>1478.0</ele><time>2026-05-01T14:32:00.739Z</time></trkpt><trkpt lat="44.188225999760064" lon="10.479588656531423"><ele>1478.0</ele><time>2026-05-01T14:32:01.739Z</time></trkpt><trkpt lat="44.1881400229968" lon="10.479579402893858"><ele>1478.0</ele><time>2026-05-01T14:32:02.739Z</time></trkpt><trkpt lat="44.18806507179889" lon="10.47957365472043"><ele>1478.0</ele><time>2026-05-01T14:32:03.739Z</time></trkpt><trkpt lat="44.18798448239953" lon="10.479573866478777"><ele>1474.0</ele><time>2026-05-01T14:32:04.739Z</time></trkpt><trkpt lat="44.18791519017075" lon="10.479577596889659"><ele>1470.0</ele><time>2026-05-01T14:32:05.739Z</time></trkpt><trkpt lat="44.18783356590152" lon="10.479629779896573"><ele>1466.0</ele><time>2026-05-01T14:32:07.739Z</time></trkpt><trkpt lat="44.18788090219951" lon="10.479774596236156"><ele>1462.0</ele><time>2026-05-01T14:32:09.739Z</time></trkpt><trkpt lat="44.18801437967773" lon="10.479831226522588"><ele>1458.0</ele><time>2026-05-01T14:32:11.739Z</time></trkpt><trkpt lat="44.188106755148034" lon="10.479907517118443"><ele>1458.0</ele><time>2026-05-01T14:32:13.739Z</time></trkpt><trkpt lat="44.18807510496235" lon="10.479998868163507"><ele>1458.0</ele><time>2026-05-01T14:32:16.739Z</time></trkpt><trkpt lat="44.18796627598026" lon="10.479915329841583"><ele>1458.0</ele><time>2026-05-01T14:32:18.739Z</time></trkpt><trkpt lat="44.187885365371265" lon="10.479885678627102"><ele>1458.0</ele><time>2026-05-01T14:32:19.739Z</time></trkpt><trkpt lat="44.1877904704192" lon="10.47988487635115"><ele>1458.0</ele><time>2026-05-01T14:32:20.739Z</time></trkpt><trkpt lat="44.18770296136064" lon="10.479867194387557"><ele>1458.0</ele><time>2026-05-01T14:32:21.739Z</time></trkpt><trkpt lat="44.187605682640836" lon="10.47982369098657"><ele>1458.0</ele><time>2026-05-01T14:32:22.739Z</time></trkpt><trkpt lat="44.18751400853578" lon="10.479798666232325"><ele>1458.0</ele><time>2026-05-01T14:32:23.739Z</time></trkpt><trkpt lat="44.187437031786" lon="10.479767227548587"><ele>1458.0</ele><time>2026-05-01T14:32:24.739Z</time></trkpt><trkpt lat="44.18736731654035" lon="10.479721934424964"><ele>1458.0</ele><time>2026-05-01T14:32:25.739Z</time></trkpt><trkpt lat="44.18730973066067" lon="10.479667413890498"><ele>1458.0</ele><time>2026-05-01T14:32:26.739Z</time></trkpt><trkpt lat="44.18726629238726" lon="10.479590516874529"><ele>1453.8333333333333</ele><time>2026-05-01T14:32:27.739Z</time></trkpt><trkpt lat="44.18721104843938" lon="10.479534088125352"><ele>1449.6666666666667</ele><time>2026-05-01T14:32:28.739Z</time></trkpt><trkpt lat="44.18711232125819" lon="10.479471641823157"><ele>1445.5</ele><time>2026-05-01T14:32:30.739Z</time></trkpt><trkpt lat="44.18704561485725" lon="10.47951520214384"><ele>1441.3333333333335</ele><time>2026-05-01T14:32:31.739Z</time></trkpt><trkpt lat="44.18700506410055" lon="10.479611292518703"><ele>1437.1666666666667</ele><time>2026-05-01T14:32:32.74Z</time></trkpt><trkpt lat="44.18700967325878" lon="10.479732243719862"><ele>1433.0</ele><time>2026-05-01T14:32:33.739Z</time></trkpt><trkpt lat="44.18704385360467" lon="10.479826003509396"><ele>1432.8333333333335</ele><time>2026-05-01T14:32:34.739Z</time></trkpt><trkpt lat="44.18709412693893" lon="10.479895311941245"><ele>1432.6666666666667</ele><time>2026-05-01T14:32:35.739Z</time></trkpt><trkpt lat="44.187191457623996" lon="10.479942702182083"><ele>1432.5</ele><time>2026-05-01T14:32:36.74Z</time></trkpt><trkpt lat="44.187274184262485" lon="10.480011046547292"><ele>1432.3333333333333</ele><time>2026-05-01T14:32:37.74Z</time></trkpt><trkpt lat="44.187350768642304" lon="10.480072548315905"><ele>1432.1666666666665</ele><time>2026-05-01T14:32:38.739Z</time></trkpt><trkpt lat="44.18740492133916" lon="10.480142929908986"><ele>1432.0</ele><time>2026-05-01T14:32:39.739Z</time></trkpt><trkpt lat="44.18741522076399" lon="10.480236566633286"><ele>1432.0</ele><time>2026-05-01T14:32:43.739Z</time></trkpt><trkpt lat="44.18730581448915" lon="10.480180260874695"><ele>1432.0</ele><time>2026-05-01T14:32:45.739Z</time></trkpt><trkpt lat="44.187203317563046" lon="10.480161673836523"><ele>1432.0</ele><time>2026-05-01T14:32:46.739Z</time></trkpt><trkpt lat="44.18708374276135" lon="10.480140696400547"><ele>1432.0</ele><time>2026-05-01T14:32:47.739Z</time></trkpt><trkpt lat="44.18696871926876" lon="10.480121556528198"><ele>1432.0</ele><time>2026-05-01T14:32:48.739Z</time></trkpt><trkpt lat="44.186864354019974" lon="10.480110138657485"><ele>1432.0</ele><time>2026-05-01T14:32:49.739Z</time></trkpt><trkpt lat="44.18675013777145" lon="10.480090278524768"><ele>1432.0</ele><time>2026-05-01T14:32:50.739Z</time></trkpt><trkpt lat="44.18662394153808" lon="10.480029141723774"><ele>1432.0</ele><time>2026-05-01T14:32:51.739Z</time></trkpt><trkpt lat="44.18650557001149" lon="10.479940712016635"><ele>1426.0</ele><time>2026-05-01T14:32:52.739Z</time></trkpt><trkpt lat="44.186400520814466" lon="10.47984601661495"><ele>1420.0</ele><time>2026-05-01T14:32:53.739Z</time></trkpt><trkpt lat="44.186317708172815" lon="10.479698941959205"><ele>1414.0</ele><time>2026-05-01T14:32:54.739Z</time></trkpt><trkpt lat="44.18625220074516" lon="10.479573377383671"><ele>1408.0</ele><time>2026-05-01T14:32:55.739Z</time></trkpt><trkpt lat="44.18619671729272" lon="10.47945868234477"><ele>1408.0</ele><time>2026-05-01T14:32:56.739Z</time></trkpt><trkpt lat="44.186139921410515" lon="10.479354389430082"><ele>1408.0</ele><time>2026-05-01T14:32:57.739Z</time></trkpt><trkpt lat="44.186072850304754" lon="10.479273622280129"><ele>1408.0</ele><time>2026-05-01T14:32:58.739Z</time></trkpt><trkpt lat="44.186010504676645" lon="10.479202529820538"><ele>1408.0</ele><time>2026-05-01T14:32:59.739Z</time></trkpt><trkpt lat="44.1859606333948" lon="10.47912415093994"><ele>1408.0</ele><time>2026-05-01T14:33:00.739Z</time></trkpt><trkpt lat="44.18592852685728" lon="10.479041873496904"><ele>1408.0</ele><time>2026-05-01T14:33:01.739Z</time></trkpt><trkpt lat="44.18593148587037" lon="10.478943001246266"><ele>1408.0</ele><time>2026-05-01T14:33:02.739Z</time></trkpt><trkpt lat="44.18596442746512" lon="10.478848191062427"><ele>1408.0</ele><time>2026-05-01T14:33:03.739Z</time></trkpt><trkpt lat="44.18599240109521" lon="10.478764306444468"><ele>1408.0</ele><time>2026-05-01T14:33:04.739Z</time></trkpt><trkpt lat="44.18589956642662" lon="10.478640894740202"><ele>1408.0</ele><time>2026-05-01T14:33:06.739Z</time></trkpt><trkpt lat="44.18579444900213" lon="10.478639591599038"><ele>1408.0</ele><time>2026-05-01T14:33:07.739Z</time></trkpt><trkpt lat="44.185661981184715" lon="10.478585563218349"><ele>1402.75</ele><time>2026-05-01T14:33:08.739Z</time></trkpt><trkpt lat="44.18552590288012" lon="10.478554631974784"><ele>1397.5</ele><time>2026-05-01T14:33:09.739Z</time></trkpt><trkpt lat="44.185386545266304" lon="10.478525934425395"><ele>1392.25</ele><time>2026-05-01T14:33:10.739Z</time></trkpt><trkpt lat="44.18525827688765" lon="10.478503077622925"><ele>1387.0</ele><time>2026-05-01T14:33:11.739Z</time></trkpt><trkpt lat="44.185129296988265" lon="10.478475130912868"><ele>1387.0</ele><time>2026-05-01T14:33:12.739Z</time></trkpt><trkpt lat="44.18501015977503" lon="10.47841753806257"><ele>1387.0</ele><time>2026-05-01T14:33:13.739Z</time></trkpt><trkpt lat="44.18489106408181" lon="10.478320951233743"><ele>1387.0</ele><time>2026-05-01T14:33:14.738Z</time></trkpt><trkpt lat="44.184788871129726" lon="10.478148232047214"><ele>1387.0</ele><time>2026-05-01T14:33:15.738Z</time></trkpt><trkpt lat="44.184687003597425" lon="10.477998561078488"><ele>1384.0</ele><time>2026-05-01T14:33:16.738Z</time></trkpt><trkpt lat="44.184610827383494" lon="10.477850775485773"><ele>1381.0</ele><time>2026-05-01T14:33:17.738Z</time></trkpt><trkpt lat="44.18453072599702" lon="10.477727116817457"><ele>1378.0</ele><time>2026-05-01T14:33:18.738Z</time></trkpt><trkpt lat="44.184473003218855" lon="10.477605300537803"><ele>1375.0</ele><time>2026-05-01T14:33:19.738Z</time></trkpt><trkpt lat="44.18440467024525" lon="10.477513036262403"><ele>1375.0</ele><time>2026-05-01T14:33:20.738Z</time></trkpt><trkpt lat="44.184333427917004" lon="10.47742753771658"><ele>1375.0</ele><time>2026-05-01T14:33:21.738Z</time></trkpt><trkpt lat="44.18422769938429" lon="10.47736487665776"><ele>1375.0</ele><time>2026-05-01T14:33:22.738Z</time></trkpt><trkpt lat="44.184112558567854" lon="10.477313930527902"><ele>1375.0</ele><time>2026-05-01T14:33:23.738Z</time></trkpt><trkpt lat="44.18399171066235" lon="10.477293077936011"><ele>1372.0</ele><time>2026-05-01T14:33:24.738Z</time></trkpt><trkpt lat="44.18386338580458" lon="10.477292710307795"><ele>1369.0</ele><time>2026-05-01T14:33:25.738Z</time></trkpt><trkpt lat="44.183730884766966" lon="10.477308775327288"><ele>1366.0</ele><time>2026-05-01T14:33:26.738Z</time></trkpt><trkpt lat="44.183598329687634" lon="10.477322802157245"><ele>1363.0</ele><time>2026-05-01T14:33:27.738Z</time></trkpt><trkpt lat="44.18346085545911" lon="10.47729606285498"><ele>1363.0</ele><time>2026-05-01T14:33:28.738Z</time></trkpt><trkpt lat="44.183341192180315" lon="10.477213713991967"><ele>1363.0</ele><time>2026-05-01T14:33:29.738Z</time></trkpt><trkpt lat="44.18321113732409" lon="10.477173691999882"><ele>1363.0</ele><time>2026-05-01T14:33:30.738Z</time></trkpt><trkpt lat="44.18309634732565" lon="10.477110324377993"><ele>1363.0</ele><time>2026-05-01T14:33:31.738Z</time></trkpt><trkpt lat="44.1829899505122" lon="10.477064724512427"><ele>1354.75</ele><time>2026-05-01T14:33:32.738Z</time></trkpt><trkpt lat="44.18290077434681" lon="10.476994243206102"><ele>1346.5</ele><time>2026-05-01T14:33:33.738Z</time></trkpt><trkpt lat="44.18282589385789" lon="10.476872469559808"><ele>1338.25</ele><time>2026-05-01T14:33:34.738Z</time></trkpt><trkpt lat="44.18274633956514" lon="10.476724090872093"><ele>1330.0</ele><time>2026-05-01T14:33:35.738Z</time></trkpt><trkpt lat="44.18266479428411" lon="10.476567856923396"><ele>1330.0</ele><time>2026-05-01T14:33:36.738Z</time></trkpt><trkpt lat="44.1825953122656" lon="10.47641099102141"><ele>1330.0</ele><time>2026-05-01T14:33:37.738Z</time></trkpt><trkpt lat="44.18248715091091" lon="10.47627928455081"><ele>1330.0</ele><time>2026-05-01T14:33:38.738Z</time></trkpt><trkpt lat="44.18244805082752" lon="10.476102385822534"><ele>1330.0</ele><time>2026-05-01T14:33:39.738Z</time></trkpt><trkpt lat="44.182442397094206" lon="10.47593154070159"><ele>1326.6666666666665</ele><time>2026-05-01T14:33:40.738Z</time></trkpt><trkpt lat="44.18243252926628" lon="10.475755797461497"><ele>1323.3333333333333</ele><time>2026-05-01T14:33:41.738Z</time></trkpt><trkpt lat="44.18242280830988" lon="10.475582669949807"><ele>1320.0</ele><time>2026-05-01T14:33:42.738Z</time></trkpt><trkpt lat="44.182253667811544" lon="10.475421047395162"><ele>1320.0</ele><time>2026-05-01T14:33:43.738Z</time></trkpt><trkpt lat="44.182177656032415" lon="10.475256141344369"><ele>1320.0</ele><time>2026-05-01T14:33:44.738Z</time></trkpt><trkpt lat="44.18208617736262" lon="10.475104740263163"><ele>1320.0</ele><time>2026-05-01T14:33:45.738Z</time></trkpt><trkpt lat="44.181975478673344" lon="10.474968224419523"><ele>1320.0</ele><time>2026-05-01T14:33:46.738Z</time></trkpt><trkpt lat="44.18184798900223" lon="10.47483136501673"><ele>1320.0</ele><time>2026-05-01T14:33:47.738Z</time></trkpt><trkpt lat="44.18170806346961" lon="10.4746753891518"><ele>1320.0</ele><time>2026-05-01T14:33:48.738Z</time></trkpt><trkpt lat="44.1815869221498" lon="10.474523219326061"><ele>1320.0</ele><time>2026-05-01T14:33:49.738Z</time></trkpt><trkpt lat="44.181470060096245" lon="10.47436976045159"><ele>1312.6666666666667</ele><time>2026-05-01T14:33:50.738Z</time></trkpt><trkpt lat="44.181353944779445" lon="10.474224861015383"><ele>1305.3333333333335</ele><time>2026-05-01T14:33:51.738Z</time></trkpt><trkpt lat="44.1812387745257" lon="10.474072239416587"><ele>1298.0</ele><time>2026-05-01T14:33:52.738Z</time></trkpt><trkpt lat="44.18111764368835" lon="10.473937446014647"><ele>1298.0</ele><time>2026-05-01T14:33:53.738Z</time></trkpt><trkpt lat="44.180996948337615" lon="10.473827520786502"><ele>1298.0</ele><time>2026-05-01T14:33:54.737Z</time></trkpt><trkpt lat="44.18088203859479" lon="10.473752360014267"><ele>1298.0</ele><time>2026-05-01T14:33:55.737Z</time></trkpt><trkpt lat="44.18079209164149" lon="10.473687254690818"><ele>1298.0</ele><time>2026-05-01T14:33:56.737Z</time></trkpt><trkpt lat="44.18072818141381" lon="10.47362697424824"><ele>1296.0</ele><time>2026-05-01T14:33:57.737Z</time></trkpt><trkpt lat="44.18068598955441" lon="10.473480022287562"><ele>1294.0</ele><time>2026-05-01T14:33:59.737Z</time></trkpt><trkpt lat="44.180706001584674" lon="10.473383284884928"><ele>1292.0</ele><time>2026-05-01T14:34:00.737Z</time></trkpt><trkpt lat="44.18075123911008" lon="10.473250525391522"><ele>1290.0</ele><time>2026-05-01T14:34:01.737Z</time></trkpt><trkpt lat="44.18081611921537" lon="10.473092431520923"><ele>1288.0</ele><time>2026-05-01T14:34:02.737Z</time></trkpt><trkpt lat="44.180882040160384" lon="10.472925563553403"><ele>1288.0</ele><time>2026-05-01T14:34:03.737Z</time></trkpt><trkpt lat="44.180946856690646" lon="10.472756002654311"><ele>1288.0</ele><time>2026-05-01T14:34:04.737Z</time></trkpt><trkpt lat="44.1810167147456" lon="10.472595562469028"><ele>1288.0</ele><time>2026-05-01T14:34:05.737Z</time></trkpt><trkpt lat="44.181086392058425" lon="10.47243310172114"><ele>1288.0</ele><time>2026-05-01T14:34:06.737Z</time></trkpt><trkpt lat="44.18116250448076" lon="10.472275852623126"><ele>1288.0</ele><time>2026-05-01T14:34:07.737Z</time></trkpt><trkpt lat="44.1812405622828" lon="10.472113110093291"><ele>1288.0</ele><time>2026-05-01T14:34:08.737Z</time></trkpt><trkpt lat="44.181332972540375" lon="10.471971438425488"><ele>1288.0</ele><time>2026-05-01T14:34:09.737Z</time></trkpt><trkpt lat="44.18143323427442" lon="10.471847537736409"><ele>1288.0</ele><time>2026-05-01T14:34:10.737Z</time></trkpt><trkpt lat="44.181535016407324" lon="10.471741559849516"><ele>1286.75</ele><time>2026-05-01T14:34:11.737Z</time></trkpt><trkpt lat="44.1816280234739" lon="10.47163886123961"><ele>1285.5</ele><time>2026-05-01T14:34:12.737Z</time></trkpt><trkpt lat="44.181701880949056" lon="10.471503445742126"><ele>1284.25</ele><time>2026-05-01T14:34:13.737Z</time></trkpt><trkpt lat="44.18175492259012" lon="10.471349485675297"><ele>1283.0</ele><time>2026-05-01T14:34:14.737Z</time></trkpt><trkpt lat="44.18179508311278" lon="10.471178713974744"><ele>1277.5</ele><time>2026-05-01T14:34:15.737Z</time></trkpt><trkpt lat="44.181800768435316" lon="10.471007634890283"><ele>1272.0</ele><time>2026-05-01T14:34:16.737Z</time></trkpt><trkpt lat="44.181770946795346" lon="10.470840081675727"><ele>1266.5</ele><time>2026-05-01T14:34:17.737Z</time></trkpt><trkpt lat="44.18172041300146" lon="10.470677538762581"><ele>1261.0</ele><time>2026-05-01T14:34:18.737Z</time></trkpt><trkpt lat="44.18167379026955" lon="10.47052311846758"><ele>1258.0</ele><time>2026-05-01T14:34:19.737Z</time></trkpt><trkpt lat="44.181630111149516" lon="10.47038188138591"><ele>1255.0</ele><time>2026-05-01T14:34:20.737Z</time></trkpt><trkpt lat="44.18156714545238" lon="10.470252691978365"><ele>1252.0</ele><time>2026-05-01T14:34:21.737Z</time></trkpt><trkpt lat="44.18147939635177" lon="10.470135913913598"><ele>1249.0</ele><time>2026-05-01T14:34:22.737Z</time></trkpt><trkpt lat="44.18137728286297" lon="10.470024898364828"><ele>1246.5</ele><time>2026-05-01T14:34:23.737Z</time></trkpt><trkpt lat="44.18126412629703" lon="10.469918454947974"><ele>1244.0</ele><time>2026-05-01T14:34:24.737Z</time></trkpt><trkpt lat="44.18114137910696" lon="10.469825684572381"><ele>1241.5</ele><time>2026-05-01T14:34:25.737Z</time></trkpt><trkpt lat="44.181014678018684" lon="10.469757453041554"><ele>1239.0</ele><time>2026-05-01T14:34:26.737Z</time></trkpt><trkpt lat="44.18089059636551" lon="10.469714374534393"><ele>1239.0</ele><time>2026-05-01T14:34:27.737Z</time></trkpt><trkpt lat="44.180774433967386" lon="10.469681813250114"><ele>1239.0</ele><time>2026-05-01T14:34:28.737Z</time></trkpt><trkpt lat="44.18067140024567" lon="10.469644780937806"><ele>1239.0</ele><time>2026-05-01T14:34:29.737Z</time></trkpt><trkpt lat="44.18058583927205" lon="10.469601321221223"><ele>1239.0</ele><time>2026-05-01T14:34:30.737Z</time></trkpt><trkpt lat="44.18052145317241" lon="10.469529617353349"><ele>1239.0</ele><time>2026-05-01T14:34:31.737Z</time></trkpt><trkpt lat="44.180473505305166" lon="10.469420041461333"><ele>1239.0</ele><time>2026-05-01T14:34:32.737Z</time></trkpt><trkpt lat="44.18043618888063" lon="10.469264179112226"><ele>1239.0</ele><time>2026-05-01T14:34:33.737Z</time></trkpt><trkpt lat="44.180390795136596" lon="10.469084715933821"><ele>1239.0</ele><time>2026-05-01T14:34:34.736Z</time></trkpt><trkpt lat="44.18032967347215" lon="10.468905473301692"><ele>1239.0</ele><time>2026-05-01T14:34:35.737Z</time></trkpt><trkpt lat="44.18026214615285" lon="10.468737568781705"><ele>1239.0</ele><time>2026-05-01T14:34:36.737Z</time></trkpt><trkpt lat="44.180176240600254" lon="10.468570794756644"><ele>1239.0</ele><time>2026-05-01T14:34:37.737Z</time></trkpt><trkpt lat="44.18006786316926" lon="10.468415979284424"><ele>1239.0</ele><time>2026-05-01T14:34:38.736Z</time></trkpt><trkpt lat="44.17996085685797" lon="10.468278577032592"><ele>1239.0</ele><time>2026-05-01T14:34:39.737Z</time></trkpt><trkpt lat="44.17987658592343" lon="10.468148321254704"><ele>1229.0</ele><time>2026-05-01T14:34:40.737Z</time></trkpt><trkpt lat="44.179809202550594" lon="10.468029253141884"><ele>1219.0</ele><time>2026-05-01T14:34:41.737Z</time></trkpt><trkpt lat="44.17975879757971" lon="10.467910539059929"><ele>1209.0</ele><time>2026-05-01T14:34:42.736Z</time></trkpt><trkpt lat="44.17972406463416" lon="10.467778696456406"><ele>1199.0</ele><time>2026-05-01T14:34:43.736Z</time></trkpt><trkpt lat="44.17971631884992" lon="10.467638094135745"><ele>1189.0</ele><time>2026-05-01T14:34:44.737Z</time></trkpt><trkpt lat="44.179723512376" lon="10.467494406317963"><ele>1189.0</ele><time>2026-05-01T14:34:45.737Z</time></trkpt><trkpt lat="44.17973320973779" lon="10.46734587705459"><ele>1189.0</ele><time>2026-05-01T14:34:46.737Z</time></trkpt><trkpt lat="44.17975959792265" lon="10.467205063013525"><ele>1189.0</ele><time>2026-05-01T14:34:47.737Z</time></trkpt><trkpt lat="44.1798084055083" lon="10.467064923214608"><ele>1189.0</ele><time>2026-05-01T14:34:48.737Z</time></trkpt><trkpt lat="44.17987028825623" lon="10.466923749077162"><ele>1189.0</ele><time>2026-05-01T14:34:49.737Z</time></trkpt><trkpt lat="44.17991717162032" lon="10.466784173575622"><ele>1198.25</ele><time>2026-05-01T14:34:50.737Z</time></trkpt><trkpt lat="44.17994847642113" lon="10.466641056725267"><ele>1207.5</ele><time>2026-05-01T14:34:51.737Z</time></trkpt><trkpt lat="44.17994076423037" lon="10.466488849750773"><ele>1216.75</ele><time>2026-05-01T14:34:52.737Z</time></trkpt><trkpt lat="44.17991264482303" lon="10.466294723308847"><ele>1226.0</ele><time>2026-05-01T14:34:53.737Z</time></trkpt><trkpt lat="44.17987890114784" lon="10.466103957728649"><ele>1226.0</ele><time>2026-05-01T14:34:54.737Z</time></trkpt><trkpt lat="44.179851401804534" lon="10.465916754839263"><ele>1226.0</ele><time>2026-05-01T14:34:55.737Z</time></trkpt><trkpt lat="44.17981062959625" lon="10.46574330142401"><ele>1226.0</ele><time>2026-05-01T14:34:56.737Z</time></trkpt><trkpt lat="44.179749224752136" lon="10.465565985735761"><ele>1226.0</ele><time>2026-05-01T14:34:57.737Z</time></trkpt><trkpt lat="44.17967029558794" lon="10.465402228542942"><ele>1216.25</ele><time>2026-05-01T14:34:58.737Z</time></trkpt><trkpt lat="44.17958470181955" lon="10.465261403995116"><ele>1206.5</ele><time>2026-05-01T14:34:59.737Z</time></trkpt><trkpt lat="44.17949409757588" lon="10.465126907783262"><ele>1196.75</ele><time>2026-05-01T14:35:00.737Z</time></trkpt><trkpt lat="44.17941087153284" lon="10.464977942869078"><ele>1187.0</ele><time>2026-05-01T14:35:01.737Z</time></trkpt><trkpt lat="44.17934847854521" lon="10.464823358812149"><ele>1187.0</ele><time>2026-05-01T14:35:02.737Z</time></trkpt><trkpt lat="44.17931316090233" lon="10.464645822548597"><ele>1187.0</ele><time>2026-05-01T14:35:03.737Z</time></trkpt><trkpt lat="44.17931233701353" lon="10.464524191475368"><ele>1187.0</ele><time>2026-05-01T14:35:04.737Z</time></trkpt><trkpt lat="44.17934243915898" lon="10.464424800191301"><ele>1187.0</ele><time>2026-05-01T14:35:05.737Z</time></trkpt><trkpt lat="44.17941607361504" lon="10.46423594415778"><ele>1186.75</ele><time>2026-05-01T14:35:07.737Z</time></trkpt><trkpt lat="44.179411588969536" lon="10.464068719652147"><ele>1186.5</ele><time>2026-05-01T14:35:08.737Z</time></trkpt><trkpt lat="44.17937429625162" lon="10.463865208386952"><ele>1186.25</ele><time>2026-05-01T14:35:09.737Z</time></trkpt><trkpt lat="44.17933008937232" lon="10.4636373011111"><ele>1186.0</ele><time>2026-05-01T14:35:10.737Z</time></trkpt><trkpt lat="44.17931557235767" lon="10.463729326598935"><ele>1188.2</ele><time>2026-05-01T14:35:11.737Z</time></trkpt><trkpt lat="44.17928918418416" lon="10.463580264336358"><ele>1190.3999999999999</ele><time>2026-05-01T14:35:12.737Z</time></trkpt><trkpt lat="44.1792607451062" lon="10.463443960282206"><ele>1192.6</ele><time>2026-05-01T14:35:13.736Z</time></trkpt><trkpt lat="44.17920796627805" lon="10.463330811918247"><ele>1194.8</ele><time>2026-05-01T14:35:14.736Z</time></trkpt><trkpt lat="44.17911921748491" lon="10.463231377105563"><ele>1197.0</ele><time>2026-05-01T14:35:15.736Z</time></trkpt><trkpt lat="44.17901338083134" lon="10.463124559549906"><ele>1192.25</ele><time>2026-05-01T14:35:16.736Z</time></trkpt><trkpt lat="44.17891839896444" lon="10.463021423739075"><ele>1187.5</ele><time>2026-05-01T14:35:17.736Z</time></trkpt><trkpt lat="44.178826478696365" lon="10.462916359084984"><ele>1182.75</ele><time>2026-05-01T14:35:18.736Z</time></trkpt><trkpt lat="44.17874269853232" lon="10.462812691613884"><ele>1178.0</ele><time>2026-05-01T14:35:19.736Z</time></trkpt><trkpt lat="44.178668571283545" lon="10.46270753956503"><ele>1178.0</ele><time>2026-05-01T14:35:20.736Z</time></trkpt><trkpt lat="44.17861290895841" lon="10.462587353459112"><ele>1178.0</ele><time>2026-05-01T14:35:21.736Z</time></trkpt><trkpt lat="44.178577410063696" lon="10.462439044336447"><ele>1178.0</ele><time>2026-05-01T14:35:22.736Z</time></trkpt><trkpt lat="44.17854364870925" lon="10.462277493558286"><ele>1178.0</ele><time>2026-05-01T14:35:23.736Z</time></trkpt><trkpt lat="44.17848612750962" lon="10.462144238946106"><ele>1178.0</ele><time>2026-05-01T14:35:24.736Z</time></trkpt><trkpt lat="44.178403234971164" lon="10.462044136718092"><ele>1180.0</ele><time>2026-05-01T14:35:25.736Z</time></trkpt><trkpt lat="44.178297433468224" lon="10.461972910109894"><ele>1182.0</ele><time>2026-05-01T14:35:26.736Z</time></trkpt><trkpt lat="44.17818213395426" lon="10.46189271998642"><ele>1184.0</ele><time>2026-05-01T14:35:27.736Z</time></trkpt><trkpt lat="44.178061523075506" lon="10.461813868070715"><ele>1186.0</ele><time>2026-05-01T14:35:28.736Z</time></trkpt><trkpt lat="44.17793701824143" lon="10.46174369587884"><ele>1186.25</ele><time>2026-05-01T14:35:29.736Z</time></trkpt><trkpt lat="44.17780970886104" lon="10.461680612371781"><ele>1186.5</ele><time>2026-05-01T14:35:30.736Z</time></trkpt><trkpt lat="44.1776785568502" lon="10.461609258762621"><ele>1186.75</ele><time>2026-05-01T14:35:31.736Z</time></trkpt><trkpt lat="44.177539350196284" lon="10.46152768556306"><ele>1187.0</ele><time>2026-05-01T14:35:32.736Z</time></trkpt><trkpt lat="44.177399939614496" lon="10.461458932423655"><ele>1190.25</ele><time>2026-05-01T14:35:33.736Z</time></trkpt><trkpt lat="44.17726262044479" lon="10.46140372800645"><ele>1193.5</ele><time>2026-05-01T14:35:34.736Z</time></trkpt><trkpt lat="44.17712070336981" lon="10.461393793301944"><ele>1196.75</ele><time>2026-05-01T14:35:35.736Z</time></trkpt><trkpt lat="44.17696980753147" lon="10.461439942990369"><ele>1200.0</ele><time>2026-05-01T14:35:36.736Z</time></trkpt><trkpt lat="44.17682944887092" lon="10.461440860787343"><ele>1200.0</ele><time>2026-05-01T14:35:37.736Z</time></trkpt><trkpt lat="44.17668760160572" lon="10.46144745693035"><ele>1200.0</ele><time>2026-05-01T14:35:38.736Z</time></trkpt><trkpt lat="44.17654367648095" lon="10.461464859832398"><ele>1200.0</ele><time>2026-05-01T14:35:39.736Z</time></trkpt><trkpt lat="44.176394484287826" lon="10.461488729362745"><ele>1200.0</ele><time>2026-05-01T14:35:40.736Z</time></trkpt><trkpt lat="44.176248397474744" lon="10.46152015552425"><ele>1200.25</ele><time>2026-05-01T14:35:41.736Z</time></trkpt><trkpt lat="44.176103856792615" lon="10.461534658163151"><ele>1200.5</ele><time>2026-05-01T14:35:42.736Z</time></trkpt><trkpt lat="44.175958442351316" lon="10.461538455423629"><ele>1200.75</ele><time>2026-05-01T14:35:43.736Z</time></trkpt><trkpt lat="44.175818099585555" lon="10.461520654101093"><ele>1201.0</ele><time>2026-05-01T14:35:44.736Z</time></trkpt><trkpt lat="44.175693192491366" lon="10.46149985315802"><ele>1198.6</ele><time>2026-05-01T14:35:45.736Z</time></trkpt><trkpt lat="44.17557239870151" lon="10.46148817785982"><ele>1196.1999999999998</ele><time>2026-05-01T14:35:46.736Z</time></trkpt><trkpt lat="44.17549157564785" lon="10.4614790731545"><ele>1193.8000000000002</ele><time>2026-05-01T14:35:47.736Z</time></trkpt><trkpt lat="44.17539722722042" lon="10.46137985831382"><ele>1191.4</ele><time>2026-05-01T14:35:49.736Z</time></trkpt><trkpt lat="44.17537811452621" lon="10.461292805579609"><ele>1189.0</ele><time>2026-05-01T14:35:50.736Z</time></trkpt><trkpt lat="44.175366595671115" lon="10.461179641396235"><ele>1187.75</ele><time>2026-05-01T14:35:51.736Z</time></trkpt><trkpt lat="44.175361428621486" lon="10.461045072257718"><ele>1186.5</ele><time>2026-05-01T14:35:52.736Z</time></trkpt><trkpt lat="44.17536273220524" lon="10.460891046028184"><ele>1185.25</ele><time>2026-05-01T14:35:53.735Z</time></trkpt><trkpt lat="44.175393421799875" lon="10.460731621689725"><ele>1184.0</ele><time>2026-05-01T14:35:54.735Z</time></trkpt><trkpt lat="44.17543895878239" lon="10.460567688563804"><ele>1185.0</ele><time>2026-05-01T14:35:55.735Z</time></trkpt><trkpt lat="44.175481152681776" lon="10.460409903852057"><ele>1186.0</ele><time>2026-05-01T14:35:56.735Z</time></trkpt><trkpt lat="44.17550321543992" lon="10.460272407716865"><ele>1187.0</ele><time>2026-05-01T14:35:57.735Z</time></trkpt><trkpt lat="44.17549196357374" lon="10.460131805843785"><ele>1188.0</ele><time>2026-05-01T14:35:58.735Z</time></trkpt><trkpt lat="44.175445422948705" lon="10.459971424990457"><ele>1189.0</ele><time>2026-05-01T14:35:59.735Z</time></trkpt><trkpt lat="44.17536876143697" lon="10.45976944707843"><ele>1195.6666666666665</ele><time>2026-05-01T14:36:00.735Z</time></trkpt><trkpt lat="44.17529744042665" lon="10.459563167971833"><ele>1202.3333333333333</ele><time>2026-05-01T14:36:01.735Z</time></trkpt><trkpt lat="44.17523020488756" lon="10.459377387504713"><ele>1209.0</ele><time>2026-05-01T14:36:02.735Z</time></trkpt><trkpt lat="44.17517278149317" lon="10.459204260592761"><ele>1209.0</ele><time>2026-05-01T14:36:03.735Z</time></trkpt><trkpt lat="44.17508999028004" lon="10.459045129003801"><ele>1209.0</ele><time>2026-05-01T14:36:04.735Z</time></trkpt><trkpt lat="44.17500320854146" lon="10.458907767137642"><ele>1209.0</ele><time>2026-05-01T14:36:05.735Z</time></trkpt><trkpt lat="44.17494574778944" lon="10.458740035350564"><ele>1209.0</ele><time>2026-05-01T14:36:06.735Z</time></trkpt><trkpt lat="44.174914330036515" lon="10.458534277886915"><ele>1213.25</ele><time>2026-05-01T14:36:07.735Z</time></trkpt><trkpt lat="44.17487566612694" lon="10.45834803908467"><ele>1217.5</ele><time>2026-05-01T14:36:08.735Z</time></trkpt><trkpt lat="44.17482936114037" lon="10.458165669045279"><ele>1221.75</ele><time>2026-05-01T14:36:09.735Z</time></trkpt><trkpt lat="44.174784092158895" lon="10.457969980844933"><ele>1226.0</ele><time>2026-05-01T14:36:10.735Z</time></trkpt><trkpt lat="44.17472711035573" lon="10.457788695282265"><ele>1215.75</ele><time>2026-05-01T14:36:11.735Z</time></trkpt><trkpt lat="44.17465334408736" lon="10.457621503590032"><ele>1205.5</ele><time>2026-05-01T14:36:12.735Z</time></trkpt><trkpt lat="44.17457050996599" lon="10.457458721498094"><ele>1195.25</ele><time>2026-05-01T14:36:13.735Z</time></trkpt><trkpt lat="44.17447452221784" lon="10.457325734810736"><ele>1185.0</ele><time>2026-05-01T14:36:14.735Z</time></trkpt><trkpt lat="44.17437378602104" lon="10.45719607254169"><ele>1179.3333333333333</ele><time>2026-05-01T14:36:15.735Z</time></trkpt><trkpt lat="44.174262523719406" lon="10.457036426383796"><ele>1173.6666666666665</ele><time>2026-05-01T14:36:16.735Z</time></trkpt><trkpt lat="44.17413202628267" lon="10.456880740088616"><ele>1168.0</ele><time>2026-05-01T14:36:17.735Z</time></trkpt><trkpt lat="44.173998947729075" lon="10.456735138977606"><ele>1168.0</ele><time>2026-05-01T14:36:18.735Z</time></trkpt><trkpt lat="44.17386474716047" lon="10.456583995787001"><ele>1168.0</ele><time>2026-05-01T14:36:19.735Z</time></trkpt><trkpt lat="44.17372517387149" lon="10.456432478265068"><ele>1168.0</ele><time>2026-05-01T14:36:20.735Z</time></trkpt><trkpt lat="44.17358632633725" lon="10.456282168709901"><ele>1178.0</ele><time>2026-05-01T14:36:21.735Z</time></trkpt><trkpt lat="44.17345474590759" lon="10.456152311270321"><ele>1188.0</ele><time>2026-05-01T14:36:22.735Z</time></trkpt><trkpt lat="44.17332958695114" lon="10.456030580519952"><ele>1198.0</ele><time>2026-05-01T14:36:23.735Z</time></trkpt><trkpt lat="44.173202052067595" lon="10.455925323945733"><ele>1191.5</ele><time>2026-05-01T14:36:24.735Z</time></trkpt><trkpt lat="44.1730680354286" lon="10.455853263008004"><ele>1185.0</ele><time>2026-05-01T14:36:25.735Z</time></trkpt><trkpt lat="44.17293610571245" lon="10.455797834076234"><ele>1178.5</ele><time>2026-05-01T14:36:26.735Z</time></trkpt><trkpt lat="44.17280321489643" lon="10.45575949353509"><ele>1172.0</ele><time>2026-05-01T14:36:27.735Z</time></trkpt><trkpt lat="44.17267399768129" lon="10.455717959127197"><ele>1172.0</ele><time>2026-05-01T14:36:28.735Z</time></trkpt><trkpt lat="44.17255130889986" lon="10.455644761720126"><ele>1172.0</ele><time>2026-05-01T14:36:29.735Z</time></trkpt><trkpt lat="44.17241764421735" lon="10.455553670222638"><ele>1172.0</ele><time>2026-05-01T14:36:30.735Z</time></trkpt><trkpt lat="44.172289578572695" lon="10.455434540568271"><ele>1172.0</ele><time>2026-05-01T14:36:31.735Z</time></trkpt><trkpt lat="44.17215911312578" lon="10.455321636113451"><ele>1173.0</ele><time>2026-05-01T14:36:32.735Z</time></trkpt><trkpt lat="44.17202693013584" lon="10.455212662893844"><ele>1174.0</ele><time>2026-05-01T14:36:33.734Z</time></trkpt><trkpt lat="44.17189631820187" lon="10.455108958255558"><ele>1175.0</ele><time>2026-05-01T14:36:34.734Z</time></trkpt><trkpt lat="44.1717731056582" lon="10.455007979993098"><ele>1176.0</ele><time>2026-05-01T14:36:35.734Z</time></trkpt><trkpt lat="44.17165648582905" lon="10.454926501368789"><ele>1176.0</ele><time>2026-05-01T14:36:36.734Z</time></trkpt><trkpt lat="44.171548996389845" lon="10.454869507259616"><ele>1176.0</ele><time>2026-05-01T14:36:37.734Z</time></trkpt><trkpt lat="44.17143334225096" lon="10.454851578606595"><ele>1176.0</ele><time>2026-05-01T14:36:38.734Z</time></trkpt><trkpt lat="44.171319745825045" lon="10.454881838944202"><ele>1176.0</ele><time>2026-05-01T14:36:39.734Z</time></trkpt><trkpt lat="44.17121140317415" lon="10.454912614611471"><ele>1171.5</ele><time>2026-05-01T14:36:40.734Z</time></trkpt><trkpt lat="44.17110440101331" lon="10.454944448790501"><ele>1167.0</ele><time>2026-05-01T14:36:41.735Z</time></trkpt><trkpt lat="44.17097684054966" lon="10.454948055168941"><ele>1162.5</ele><time>2026-05-01T14:36:42.735Z</time></trkpt><trkpt lat="44.17085788759618" lon="10.454901301300904"><ele>1158.0</ele><time>2026-05-01T14:36:43.735Z</time></trkpt><trkpt lat="44.17073196273246" lon="10.454890956074587"><ele>1152.5</ele><time>2026-05-01T14:36:44.734Z</time></trkpt><trkpt lat="44.17061987158791" lon="10.454867027510712"><ele>1147.0</ele><time>2026-05-01T14:36:45.734Z</time></trkpt><trkpt lat="44.17050455110023" lon="10.454863932143"><ele>1141.5</ele><time>2026-05-01T14:36:46.734Z</time></trkpt><trkpt lat="44.17038732846636" lon="10.454827580196577"><ele>1136.0</ele><time>2026-05-01T14:36:47.734Z</time></trkpt><trkpt lat="44.17028205738034" lon="10.45477409818501"><ele>1136.0</ele><time>2026-05-01T14:36:48.734Z</time></trkpt><trkpt lat="44.17017961821413" lon="10.454710115951867"><ele>1136.0</ele><time>2026-05-01T14:36:49.734Z</time></trkpt><trkpt lat="44.170078772564146" lon="10.454642852198404"><ele>1136.0</ele><time>2026-05-01T14:36:50.735Z</time></trkpt><trkpt lat="44.16997587802914" lon="10.454594392638443"><ele>1136.0</ele><time>2026-05-01T14:36:51.734Z</time></trkpt><trkpt lat="44.16987275648239" lon="10.454549392181695"><ele>1136.0</ele><time>2026-05-01T14:36:52.734Z</time></trkpt><trkpt lat="44.169764749524035" lon="10.454521071675696"><ele>1136.8</ele><time>2026-05-01T14:36:53.735Z</time></trkpt><trkpt lat="44.169664101077466" lon="10.454489644597055"><ele>1137.6</ele><time>2026-05-01T14:36:54.734Z</time></trkpt><trkpt lat="44.169567136733406" lon="10.454429965356962"><ele>1138.4</ele><time>2026-05-01T14:36:55.734Z</time></trkpt><trkpt lat="44.169474862283295" lon="10.454345870711421"><ele>1139.2</ele><time>2026-05-01T14:36:56.734Z</time></trkpt><trkpt lat="44.169381269590396" lon="10.454259576483063"><ele>1140.0</ele><time>2026-05-01T14:36:57.734Z</time></trkpt><trkpt lat="44.16928571261575" lon="10.454196730955461"><ele>1140.0</ele><time>2026-05-01T14:36:58.734Z</time></trkpt><trkpt lat="44.16919739646084" lon="10.45413188988532"><ele>1140.0</ele><time>2026-05-01T14:36:59.734Z</time></trkpt><trkpt lat="44.16911900358874" lon="10.454071779366767"><ele>1140.0</ele><time>2026-05-01T14:37:00.734Z</time></trkpt><trkpt lat="44.169040392738395" lon="10.45399363735591"><ele>1140.0</ele><time>2026-05-01T14:37:01.734Z</time></trkpt><trkpt lat="44.168965439736745" lon="10.453909414960856"><ele>1140.0</ele><time>2026-05-01T14:37:02.734Z</time></trkpt><trkpt lat="44.168889085845215" lon="10.453798163678671"><ele>1138.6</ele><time>2026-05-01T14:37:03.734Z</time></trkpt><trkpt lat="44.16880474184059" lon="10.45370639540998"><ele>1137.2</ele><time>2026-05-01T14:37:04.734Z</time></trkpt><trkpt lat="44.16870725123602" lon="10.45362102132982"><ele>1135.8</ele><time>2026-05-01T14:37:05.734Z</time></trkpt><trkpt lat="44.16861459021627" lon="10.45353706228214"><ele>1134.4</ele><time>2026-05-01T14:37:06.734Z</time></trkpt><trkpt lat="44.168514316334" lon="10.45345702546106"><ele>1133.0</ele><time>2026-05-01T14:37:07.734Z</time></trkpt><trkpt lat="44.16839388014982" lon="10.453388483713955"><ele>1133.0</ele><time>2026-05-01T14:37:08.734Z</time></trkpt><trkpt lat="44.16827490127985" lon="10.453313488210656"><ele>1133.0</ele><time>2026-05-01T14:37:09.734Z</time></trkpt><trkpt lat="44.168163216758465" lon="10.45324183496313"><ele>1133.0</ele><time>2026-05-01T14:37:10.734Z</time></trkpt><trkpt lat="44.168049087633484" lon="10.453181885655766"><ele>1133.0</ele><time>2026-05-01T14:37:11.734Z</time></trkpt><trkpt lat="44.16794252410635" lon="10.453114907250962"><ele>1130.25</ele><time>2026-05-01T14:37:12.734Z</time></trkpt><trkpt lat="44.16783347849101" lon="10.453052131445721"><ele>1127.5</ele><time>2026-05-01T14:37:13.734Z</time></trkpt><trkpt lat="44.16772630693963" lon="10.452988374485864"><ele>1124.75</ele><time>2026-05-01T14:37:14.734Z</time></trkpt><trkpt lat="44.167612160129075" lon="10.452937946814679"><ele>1122.0</ele><time>2026-05-01T14:37:15.734Z</time></trkpt><trkpt lat="44.16748979642164" lon="10.45290829345444"><ele>1122.0</ele><time>2026-05-01T14:37:16.734Z</time></trkpt><trkpt lat="44.167370112131046" lon="10.452877829329"><ele>1122.0</ele><time>2026-05-01T14:37:17.734Z</time></trkpt><trkpt lat="44.16724987761004" lon="10.452857661807114"><ele>1122.0</ele><time>2026-05-01T14:37:18.734Z</time></trkpt><trkpt lat="44.16713056209727" lon="10.452835589617388"><ele>1122.0</ele><time>2026-05-01T14:37:19.734Z</time></trkpt><trkpt lat="44.16701331864495" lon="10.452817584919158"><ele>1121.0</ele><time>2026-05-01T14:37:20.734Z</time></trkpt><trkpt lat="44.16689828117082" lon="10.452834250972439"><ele>1120.0</ele><time>2026-05-01T14:37:21.734Z</time></trkpt><trkpt lat="44.16678693257065" lon="10.4528615702761"><ele>1119.0</ele><time>2026-05-01T14:37:22.734Z</time></trkpt><trkpt lat="44.166676423569776" lon="10.452899168809294"><ele>1118.0</ele><time>2026-05-01T14:37:23.734Z</time></trkpt><trkpt lat="44.166571846864336" lon="10.452946371546888"><ele>1114.2</ele><time>2026-05-01T14:37:24.734Z</time></trkpt><trkpt lat="44.16645852387901" lon="10.452986805168518"><ele>1110.4</ele><time>2026-05-01T14:37:25.734Z</time></trkpt><trkpt lat="44.166345637831455" lon="10.453013840238773"><ele>1106.6000000000001</ele><time>2026-05-01T14:37:26.734Z</time></trkpt><trkpt lat="44.16624869136617" lon="10.4530173621978"><ele>1102.8</ele><time>2026-05-01T14:37:27.734Z</time></trkpt><trkpt lat="44.16616071883119" lon="10.453008306540287"><ele>1099.0</ele><time>2026-05-01T14:37:28.734Z</time></trkpt><trkpt lat="44.16608310572914" lon="10.452967640220065"><ele>1101.6000000000001</ele><time>2026-05-01T14:37:29.734Z</time></trkpt><trkpt lat="44.16601771317982" lon="10.4528932623546"><ele>1104.2</ele><time>2026-05-01T14:37:30.734Z</time></trkpt><trkpt lat="44.16596951932519" lon="10.452786863476717"><ele>1106.8000000000002</ele><time>2026-05-01T14:37:31.733Z</time></trkpt><trkpt lat="44.16592389574226" lon="10.452643517435485"><ele>1109.4</ele><time>2026-05-01T14:37:32.733Z</time></trkpt><trkpt lat="44.16586528837625" lon="10.45249982312398"><ele>1112.0</ele><time>2026-05-01T14:37:33.733Z</time></trkpt><trkpt lat="44.16583573654636" lon="10.452360505691594"><ele>1112.0</ele><time>2026-05-01T14:37:34.733Z</time></trkpt><trkpt lat="44.16577585120516" lon="10.452208977491638"><ele>1112.0</ele><time>2026-05-01T14:37:35.733Z</time></trkpt><trkpt lat="44.165727639945565" lon="10.452049353351278"><ele>1112.0</ele><time>2026-05-01T14:37:36.733Z</time></trkpt><trkpt lat="44.16569159264066" lon="10.45189544200849"><ele>1112.0</ele><time>2026-05-01T14:37:37.733Z</time></trkpt><trkpt lat="44.165688175244966" lon="10.451736628793396"><ele>1104.3333333333335</ele><time>2026-05-01T14:37:38.733Z</time></trkpt><trkpt lat="44.165669217498404" lon="10.451549714948916"><ele>1096.6666666666667</ele><time>2026-05-01T14:37:39.733Z</time></trkpt><trkpt lat="44.165632695283" lon="10.451333025816973"><ele>1089.0</ele><time>2026-05-01T14:37:40.733Z</time></trkpt><trkpt lat="44.165601238051416" lon="10.45111218527225"><ele>1089.0</ele><time>2026-05-01T14:37:41.733Z</time></trkpt><trkpt lat="44.16556157556116" lon="10.450892731875088"><ele>1089.0</ele><time>2026-05-01T14:37:42.733Z</time></trkpt><trkpt lat="44.16551479574971" lon="10.450664240856902"><ele>1089.0</ele><time>2026-05-01T14:37:43.733Z</time></trkpt><trkpt lat="44.165463841597735" lon="10.450417435149326"><ele>1087.3333333333333</ele><time>2026-05-01T14:37:44.733Z</time></trkpt><trkpt lat="44.16540826466551" lon="10.450151479883154"><ele>1085.6666666666665</ele><time>2026-05-01T14:37:45.733Z</time></trkpt><trkpt lat="44.16533164746399" lon="10.44989058813775"><ele>1084.0</ele><time>2026-05-01T14:37:46.733Z</time></trkpt><trkpt lat="44.16529173028976" lon="10.449625599272727"><ele>1083.0</ele><time>2026-05-01T14:37:47.733Z</time></trkpt><trkpt lat="44.165261776240385" lon="10.449367576721679"><ele>1082.0</ele><time>2026-05-01T14:37:48.733Z</time></trkpt><trkpt lat="44.16524729386404" lon="10.449104991134853"><ele>1081.0</ele><time>2026-05-01T14:37:49.733Z</time></trkpt><trkpt lat="44.16523829330273" lon="10.44885486058662"><ele>1082.3333333333333</ele><time>2026-05-01T14:37:50.733Z</time></trkpt><trkpt lat="44.16522791725714" lon="10.448601508878975"><ele>1083.6666666666667</ele><time>2026-05-01T14:37:51.733Z</time></trkpt><trkpt lat="44.16521355036946" lon="10.44835358576571"><ele>1085.0</ele><time>2026-05-01T14:37:52.733Z</time></trkpt><trkpt lat="44.16519709129033" lon="10.448111794198397"><ele>1084.0</ele><time>2026-05-01T14:37:53.733Z</time></trkpt><trkpt lat="44.16519138831772" lon="10.447875079646733"><ele>1083.0</ele><time>2026-05-01T14:37:54.733Z</time></trkpt><trkpt lat="44.165195577463294" lon="10.447648473107883"><ele>1082.0</ele><time>2026-05-01T14:37:55.733Z</time></trkpt><trkpt lat="44.16521323085976" lon="10.447434934739043"><ele>1082.0</ele><time>2026-05-01T14:37:56.733Z</time></trkpt><trkpt lat="44.16524412418002" lon="10.447206176745725"><ele>1082.0</ele><time>2026-05-01T14:37:57.733Z</time></trkpt><trkpt lat="44.16528178471078" lon="10.446961027597352"><ele>1082.0</ele><time>2026-05-01T14:37:58.733Z</time></trkpt><trkpt lat="44.1653188935747" lon="10.446730294791653"><ele>1081.3333333333335</ele><time>2026-05-01T14:37:59.733Z</time></trkpt><trkpt lat="44.16535865064516" lon="10.44649426521048"><ele>1080.6666666666667</ele><time>2026-05-01T14:38:00.733Z</time></trkpt><trkpt lat="44.1653788558654" lon="10.446249385934737"><ele>1080.0</ele><time>2026-05-01T14:38:01.733Z</time></trkpt><trkpt lat="44.165389435752836" lon="10.445994151770583"><ele>1079.0</ele><time>2026-05-01T14:38:02.733Z</time></trkpt><trkpt lat="44.16540397615355" lon="10.445740321272673"><ele>1078.0</ele><time>2026-05-01T14:38:03.733Z</time></trkpt><trkpt lat="44.16540746414335" lon="10.445507458159229"><ele>1077.0</ele><time>2026-05-01T14:38:04.733Z</time></trkpt><trkpt lat="44.16541199581454" lon="10.445278034863039"><ele>1077.0</ele><time>2026-05-01T14:38:05.733Z</time></trkpt><trkpt lat="44.16542268811007" lon="10.445034193109626"><ele>1077.0</ele><time>2026-05-01T14:38:06.733Z</time></trkpt><trkpt lat="44.165423851303544" lon="10.444807787008136"><ele>1077.0</ele><time>2026-05-01T14:38:07.733Z</time></trkpt><trkpt lat="44.1654162303119" lon="10.444579926587432"><ele>1076.6666666666667</ele><time>2026-05-01T14:38:08.733Z</time></trkpt><trkpt lat="44.16541146408226" lon="10.44436208638655"><ele>1076.3333333333335</ele><time>2026-05-01T14:38:09.733Z</time></trkpt><trkpt lat="44.16540152964134" lon="10.444154342990203"><ele>1076.0</ele><time>2026-05-01T14:38:10.733Z</time></trkpt><trkpt lat="44.16540097513757" lon="10.443950183162958"><ele>1074.0</ele><time>2026-05-01T14:38:11.732Z</time></trkpt><trkpt lat="44.16539364496078" lon="10.443752854988299"><ele>1072.0</ele><time>2026-05-01T14:38:12.732Z</time></trkpt><trkpt lat="44.16539572606995" lon="10.443560632238633"><ele>1070.0</ele><time>2026-05-01T14:38:13.732Z</time></trkpt><trkpt lat="44.1653957518144" lon="10.443377256543839"><ele>1068.0</ele><time>2026-05-01T14:38:14.732Z</time></trkpt><trkpt lat="44.16543443993197" lon="10.443203889982096"><ele>1068.0</ele><time>2026-05-01T14:38:15.732Z</time></trkpt><trkpt lat="44.1655035531134" lon="10.443052725763689"><ele>1068.0</ele><time>2026-05-01T14:38:16.732Z</time></trkpt><trkpt lat="44.165576311136" lon="10.442917308422508"><ele>1068.0</ele><time>2026-05-01T14:38:17.732Z</time></trkpt><trkpt lat="44.165633436723574" lon="10.442769488647127"><ele>1068.0</ele><time>2026-05-01T14:38:18.732Z</time></trkpt><trkpt lat="44.16568523661936" lon="10.442637348924007"><ele>1063.3333333333333</ele><time>2026-05-01T14:38:19.732Z</time></trkpt><trkpt lat="44.16572403450908" lon="10.44252815303798"><ele>1058.6666666666667</ele><time>2026-05-01T14:38:20.732Z</time></trkpt><trkpt lat="44.1657568400465" lon="10.44244086974423"><ele>1054.0</ele><time>2026-05-01T14:38:21.732Z</time></trkpt><trkpt lat="44.16572643153833" lon="10.44228365087334"><ele>1049.3333333333335</ele><time>2026-05-01T14:38:23.732Z</time></trkpt><trkpt lat="44.165668713523175" lon="10.442212586011628"><ele>1044.6666666666667</ele><time>2026-05-01T14:38:24.732Z</time></trkpt><trkpt lat="44.16558907375651" lon="10.44216513429934"><ele>1040.0</ele><time>2026-05-01T14:38:25.732Z</time></trkpt><trkpt lat="44.165494379400066" lon="10.442147755318715"><ele>1040.0</ele><time>2026-05-01T14:38:26.732Z</time></trkpt><trkpt lat="44.16537573828727" lon="10.442172651636731"><ele>1040.0</ele><time>2026-05-01T14:38:27.732Z</time></trkpt><trkpt lat="44.16524797857395" lon="10.442192336089102"><ele>1040.0</ele><time>2026-05-01T14:38:28.732Z</time></trkpt><trkpt lat="44.16509248975378" lon="10.4422365395522"><ele>1040.0</ele><time>2026-05-01T14:38:29.732Z</time></trkpt><trkpt lat="44.16497905109526" lon="10.442222555538615"><ele>1040.0</ele><time>2026-05-01T14:38:30.732Z</time></trkpt><trkpt lat="44.16486893851805" lon="10.442233619378413"><ele>1040.0</ele><time>2026-05-01T14:38:31.732Z</time></trkpt><trkpt lat="44.16477825784429" lon="10.442296137214797"><ele>1040.0</ele><time>2026-05-01T14:38:32.732Z</time></trkpt><trkpt lat="44.16467873288483" lon="10.442352759278203"><ele>1040.0</ele><time>2026-05-01T14:38:33.732Z</time></trkpt><trkpt lat="44.16456142103836" lon="10.442359693190593"><ele>1040.0</ele><time>2026-05-01T14:38:34.732Z</time></trkpt><trkpt lat="44.16445454409122" lon="10.442293540256097"><ele>1040.75</ele><time>2026-05-01T14:38:35.732Z</time></trkpt><trkpt lat="44.16435241409179" lon="10.44217222678508"><ele>1041.5</ele><time>2026-05-01T14:38:36.732Z</time></trkpt><trkpt lat="44.16425622027358" lon="10.442063486005111"><ele>1042.25</ele><time>2026-05-01T14:38:37.732Z</time></trkpt><trkpt lat="44.16414871000322" lon="10.441971330604662"><ele>1043.0</ele><time>2026-05-01T14:38:38.732Z</time></trkpt><trkpt lat="44.16405361753023" lon="10.441915290532762"><ele>1029.25</ele><time>2026-05-01T14:38:39.732Z</time></trkpt><trkpt lat="44.16394922712352" lon="10.441913403207273"><ele>1015.5</ele><time>2026-05-01T14:38:40.732Z</time></trkpt><trkpt lat="44.16383395452322" lon="10.44195035962292"><ele>1001.75</ele><time>2026-05-01T14:38:41.732Z</time></trkpt><trkpt lat="44.163701490682904" lon="10.442020460726422"><ele>988.0</ele><time>2026-05-01T14:38:42.732Z</time></trkpt><trkpt lat="44.16355448578817" lon="10.442040980757554"><ele>988.0</ele><time>2026-05-01T14:38:43.732Z</time></trkpt><trkpt lat="44.16341089947746" lon="10.442034359408156"><ele>988.0</ele><time>2026-05-01T14:38:44.732Z</time></trkpt><trkpt lat="44.16327167224169" lon="10.442025084032924"><ele>988.0</ele><time>2026-05-01T14:38:45.732Z</time></trkpt><trkpt lat="44.1631412600387" lon="10.44202458704473"><ele>988.0</ele><time>2026-05-01T14:38:46.732Z</time></trkpt><trkpt lat="44.16302515027088" lon="10.442024153163704"><ele>987.25</ele><time>2026-05-01T14:38:47.732Z</time></trkpt><trkpt lat="44.16289837824232" lon="10.441999941309323"><ele>986.5</ele><time>2026-05-01T14:38:48.732Z</time></trkpt><trkpt lat="44.162767014483144" lon="10.441947277180912"><ele>985.75</ele><time>2026-05-01T14:38:49.732Z</time></trkpt><trkpt lat="44.16264718949567" lon="10.44185058416249"><ele>985.0</ele><time>2026-05-01T14:38:50.731Z</time></trkpt><trkpt lat="44.162537550034976" lon="10.44174752400411"><ele>985.0</ele><time>2026-05-01T14:38:51.731Z</time></trkpt><trkpt lat="44.1624257143699" lon="10.441642769252987"><ele>985.0</ele><time>2026-05-01T14:38:52.731Z</time></trkpt><trkpt lat="44.16231248339063" lon="10.441565021556322"><ele>985.0</ele><time>2026-05-01T14:38:53.732Z</time></trkpt><trkpt lat="44.16218484357213" lon="10.441514398015507"><ele>985.0</ele><time>2026-05-01T14:38:54.732Z</time></trkpt><trkpt lat="44.16204229884639" lon="10.441478543809328"><ele>981.75</ele><time>2026-05-01T14:38:55.732Z</time></trkpt><trkpt lat="44.1618874344887" lon="10.441458186383686"><ele>978.5</ele><time>2026-05-01T14:38:56.732Z</time></trkpt><trkpt lat="44.161739618718876" lon="10.441442571961048"><ele>975.25</ele><time>2026-05-01T14:38:57.732Z</time></trkpt><trkpt lat="44.161613664028714" lon="10.44140616549151"><ele>972.0</ele><time>2026-05-01T14:38:58.732Z</time></trkpt><trkpt lat="44.1614829674147" lon="10.441340394204593"><ele>974.25</ele><time>2026-05-01T14:38:59.732Z</time></trkpt><trkpt lat="44.16135158017506" lon="10.441270022210324"><ele>976.5</ele><time>2026-05-01T14:39:00.732Z</time></trkpt><trkpt lat="44.1612266429582" lon="10.441204219856186"><ele>978.75</ele><time>2026-05-01T14:39:01.732Z</time></trkpt><trkpt lat="44.161102683312784" lon="10.441143065365505"><ele>981.0</ele><time>2026-05-01T14:39:02.732Z</time></trkpt><trkpt lat="44.16097695296728" lon="10.441087050303562"><ele>981.0</ele><time>2026-05-01T14:39:03.732Z</time></trkpt><trkpt lat="44.160843622853655" lon="10.44103261211076"><ele>981.0</ele><time>2026-05-01T14:39:04.732Z</time></trkpt><trkpt lat="44.16071168481401" lon="10.440972969617436"><ele>981.0</ele><time>2026-05-01T14:39:05.732Z</time></trkpt><trkpt lat="44.160590494485746" lon="10.44091147115355"><ele>981.0</ele><time>2026-05-01T14:39:06.732Z</time></trkpt><trkpt lat="44.16047766026422" lon="10.440833335227872"><ele>978.25</ele><time>2026-05-01T14:39:07.732Z</time></trkpt><trkpt lat="44.16037030790544" lon="10.440744529094085"><ele>975.5</ele><time>2026-05-01T14:39:08.732Z</time></trkpt><trkpt lat="44.16027294437134" lon="10.440638720861012"><ele>972.75</ele><time>2026-05-01T14:39:09.732Z</time></trkpt><trkpt lat="44.1601878918888" lon="10.44051254467696"><ele>970.0</ele><time>2026-05-01T14:39:10.732Z</time></trkpt><trkpt lat="44.16011364145534" lon="10.440374370281674"><ele>970.0</ele><time>2026-05-01T14:39:11.731Z</time></trkpt><trkpt lat="44.16003983816249" lon="10.440241920007162"><ele>970.0</ele><time>2026-05-01T14:39:12.731Z</time></trkpt><trkpt lat="44.159956237769556" lon="10.440124788174387"><ele>970.0</ele><time>2026-05-01T14:39:13.731Z</time></trkpt><trkpt lat="44.15985808763967" lon="10.440026823762393"><ele>970.0</ele><time>2026-05-01T14:39:14.731Z</time></trkpt><trkpt lat="44.15973698386402" lon="10.439960770138216"><ele>967.75</ele><time>2026-05-01T14:39:15.731Z</time></trkpt><trkpt lat="44.15961391732997" lon="10.439923287826833"><ele>965.5</ele><time>2026-05-01T14:39:16.731Z</time></trkpt><trkpt lat="44.15949452014198" lon="10.439879160262079"><ele>963.25</ele><time>2026-05-01T14:39:17.731Z</time></trkpt><trkpt lat="44.15937680557355" lon="10.439818881005957"><ele>961.0</ele><time>2026-05-01T14:39:18.731Z</time></trkpt><trkpt lat="44.159270591634666" lon="10.43974239713756"><ele>961.0</ele><time>2026-05-01T14:39:19.731Z</time></trkpt><trkpt lat="44.1591727420659" lon="10.439653188906712"><ele>961.0</ele><time>2026-05-01T14:39:20.731Z</time></trkpt><trkpt lat="44.15907697125307" lon="10.439561743309637"><ele>961.0</ele><time>2026-05-01T14:39:21.731Z</time></trkpt><trkpt lat="44.158981468891334" lon="10.439463120439692"><ele>961.0</ele><time>2026-05-01T14:39:22.731Z</time></trkpt><trkpt lat="44.1588803321145" lon="10.439382564503445"><ele>959.5999999999999</ele><time>2026-05-01T14:39:23.731Z</time></trkpt><trkpt lat="44.158771714783704" lon="10.439332642891443"><ele>958.1999999999999</ele><time>2026-05-01T14:39:24.731Z</time></trkpt><trkpt lat="44.158660215762296" lon="10.439306298469752"><ele>956.8000000000001</ele><time>2026-05-01T14:39:25.731Z</time></trkpt><trkpt lat="44.158563749216725" lon="10.43925718544748"><ele>955.4000000000001</ele><time>2026-05-01T14:39:26.731Z</time></trkpt><trkpt lat="44.15846749443235" lon="10.439235386232465"><ele>954.0</ele><time>2026-05-01T14:39:27.731Z</time></trkpt><trkpt lat="44.15837718275654" lon="10.439206707637068"><ele>954.0</ele><time>2026-05-01T14:39:28.731Z</time></trkpt><trkpt lat="44.15828206937167" lon="10.439194223873503"><ele>954.0</ele><time>2026-05-01T14:39:29.731Z</time></trkpt><trkpt lat="44.15818939452368" lon="10.43918332041122"><ele>954.0</ele><time>2026-05-01T14:39:30.731Z</time></trkpt><trkpt lat="44.15810716475204" lon="10.439157727846569"><ele>954.0</ele><time>2026-05-01T14:39:31.731Z</time></trkpt><trkpt lat="44.15803218177704" lon="10.439142540844111"><ele>954.0</ele><time>2026-05-01T14:39:32.731Z</time></trkpt><trkpt lat="44.15796574293523" lon="10.439148786837483"><ele>954.0</ele><time>2026-05-01T14:39:33.731Z</time></trkpt><trkpt lat="44.15789512008823" lon="10.439171647831378"><ele>951.6</ele><time>2026-05-01T14:39:34.731Z</time></trkpt><trkpt lat="44.157813477388494" lon="10.43921072952587"><ele>949.2</ele><time>2026-05-01T14:39:35.731Z</time></trkpt><trkpt lat="44.157722966070594" lon="10.439192237989067"><ele>946.8000000000001</ele><time>2026-05-01T14:39:36.731Z</time></trkpt><trkpt lat="44.15762331442931" lon="10.439140298858058"><ele>944.4000000000001</ele><time>2026-05-01T14:39:37.731Z</time></trkpt><trkpt lat="44.15751507598451" lon="10.43909387784813"><ele>942.0</ele><time>2026-05-01T14:39:38.731Z</time></trkpt><trkpt lat="44.15740236159407" lon="10.439065420087076"><ele>937.25</ele><time>2026-05-01T14:39:39.731Z</time></trkpt><trkpt lat="44.157296851230235" lon="10.439020461651163"><ele>932.5</ele><time>2026-05-01T14:39:40.731Z</time></trkpt><trkpt lat="44.157184540371446" lon="10.438978055580419"><ele>927.75</ele><time>2026-05-01T14:39:41.731Z</time></trkpt><trkpt lat="44.15707229232791" lon="10.438944948668574"><ele>923.0</ele><time>2026-05-01T14:39:42.731Z</time></trkpt><trkpt lat="44.15695422093333" lon="10.43892474636701"><ele>923.0</ele><time>2026-05-01T14:39:43.731Z</time></trkpt><trkpt lat="44.15683915538427" lon="10.438900633379891"><ele>923.0</ele><time>2026-05-01T14:39:44.731Z</time></trkpt><trkpt lat="44.156725042694234" lon="10.438871298688378"><ele>923.0</ele><time>2026-05-01T14:39:45.731Z</time></trkpt><trkpt lat="44.15661942926565" lon="10.438845236346557"><ele>923.0</ele><time>2026-05-01T14:39:46.731Z</time></trkpt><trkpt lat="44.156526492638925" lon="10.438821138965494"><ele>923.0</ele><time>2026-05-01T14:39:47.731Z</time></trkpt><trkpt lat="44.15644182566938" lon="10.438771539233846"><ele>923.2</ele><time>2026-05-01T14:39:48.731Z</time></trkpt><trkpt lat="44.15637199436728" lon="10.43869218971538"><ele>923.4</ele><time>2026-05-01T14:39:49.731Z</time></trkpt><trkpt lat="44.156313222864306" lon="10.438578778376057"><ele>923.6000000000001</ele><time>2026-05-01T14:39:50.731Z</time></trkpt><trkpt lat="44.156266658372616" lon="10.438440746359737"><ele>923.8000000000001</ele><time>2026-05-01T14:39:51.73Z</time></trkpt><trkpt lat="44.15622230102285" lon="10.438321493048921"><ele>924.0</ele><time>2026-05-01T14:39:52.73Z</time></trkpt><trkpt lat="44.15614647812772" lon="10.438235381622171"><ele>924.0</ele><time>2026-05-01T14:39:53.73Z</time></trkpt><trkpt lat="44.15607930846091" lon="10.438158367762203"><ele>924.0</ele><time>2026-05-01T14:39:54.73Z</time></trkpt><trkpt lat="44.15600627615057" lon="10.43809572358938"><ele>924.0</ele><time>2026-05-01T14:39:55.73Z</time></trkpt><trkpt lat="44.155931887107435" lon="10.438041699717527"><ele>924.0</ele><time>2026-05-01T14:39:56.73Z</time></trkpt><trkpt lat="44.15586280369457" lon="10.43799107516419"><ele>924.0</ele><time>2026-05-01T14:39:57.73Z</time></trkpt><trkpt lat="44.15579174837996" lon="10.437943193481514"><ele>924.0</ele><time>2026-05-01T14:39:58.73Z</time></trkpt><trkpt lat="44.155731999682146" lon="10.437902742265988"><ele>921.0</ele><time>2026-05-01T14:39:59.73Z</time></trkpt><trkpt lat="44.155630274092275" lon="10.437850820265265"><ele>918.0000000000001</ele><time>2026-05-01T14:40:01.73Z</time></trkpt><trkpt lat="44.15554975246381" lon="10.437860687629893"><ele>915.0000000000001</ele><time>2026-05-01T14:40:03.73Z</time></trkpt><trkpt lat="44.15551610207979" lon="10.43802902169771"><ele>912.0</ele><time>2026-05-01T14:40:05.73Z</time></trkpt><trkpt lat="44.155514279859375" lon="10.438165481621333"><ele>909.0</ele><time>2026-05-01T14:40:06.73Z</time></trkpt><trkpt lat="44.1555078388166" lon="10.438295526686895"><ele>908.6</ele><time>2026-05-01T14:40:07.73Z</time></trkpt><trkpt lat="44.15550501203066" lon="10.438426552784309"><ele>908.2</ele><time>2026-05-01T14:40:08.73Z</time></trkpt><trkpt lat="44.155499733119036" lon="10.438552989888596"><ele>907.8000000000001</ele><time>2026-05-01T14:40:09.73Z</time></trkpt><trkpt lat="44.15549128660797" lon="10.438683657477261"><ele>907.4000000000001</ele><time>2026-05-01T14:40:10.73Z</time></trkpt><trkpt lat="44.155477225129324" lon="10.438821329934422"><ele>907.0</ele><time>2026-05-01T14:40:11.73Z</time></trkpt><trkpt lat="44.155458588383645" lon="10.438960225061544"><ele>905.4000000000001</ele><time>2026-05-01T14:40:12.73Z</time></trkpt><trkpt lat="44.15543823866924" lon="10.439093860519431"><ele>903.8000000000001</ele><time>2026-05-01T14:40:13.73Z</time></trkpt><trkpt lat="44.155432769828934" lon="10.439243974506978"><ele>902.2</ele><time>2026-05-01T14:40:14.73Z</time></trkpt><trkpt lat="44.15543688514791" lon="10.439373709070955"><ele>900.6</ele><time>2026-05-01T14:40:15.73Z</time></trkpt><trkpt lat="44.1554534424341" lon="10.439501420581493"><ele>899.0</ele><time>2026-05-01T14:40:16.73Z</time></trkpt><trkpt lat="44.15549927875463" lon="10.439611233180216"><ele>897.4000000000001</ele><time>2026-05-01T14:40:17.73Z</time></trkpt><trkpt lat="44.155563616636165" lon="10.439714211511363"><ele>895.8000000000001</ele><time>2026-05-01T14:40:18.73Z</time></trkpt><trkpt lat="44.155646071947395" lon="10.43978858230317"><ele>894.1999999999999</ele><time>2026-05-01T14:40:19.73Z</time></trkpt><trkpt lat="44.15575026223696" lon="10.439815550165084"><ele>892.5999999999999</ele><time>2026-05-01T14:40:20.73Z</time></trkpt><trkpt lat="44.155859623657186" lon="10.43984427426625"><ele>891.0</ele><time>2026-05-01T14:40:21.73Z</time></trkpt><trkpt lat="44.15596595543642" lon="10.439876535299419"><ele>891.0</ele><time>2026-05-01T14:40:22.73Z</time></trkpt><trkpt lat="44.156075203724306" lon="10.439908384677677"><ele>890.9999999999999</ele><time>2026-05-01T14:40:23.73Z</time></trkpt><trkpt lat="44.156187387476535" lon="10.439921325531014"><ele>890.9999999999999</ele><time>2026-05-01T14:40:24.73Z</time></trkpt><trkpt lat="44.15629747453643" lon="10.439913898647516"><ele>891.0</ele><time>2026-05-01T14:40:25.73Z</time></trkpt><trkpt lat="44.156410523005995" lon="10.439895160874922"><ele>891.0</ele><time>2026-05-01T14:40:26.73Z</time></trkpt><trkpt lat="44.15652538905621" lon="10.439873803179085"><ele>893.0</ele><time>2026-05-01T14:40:27.73Z</time></trkpt><trkpt lat="44.15662649836003" lon="10.43986646607083"><ele>894.9999999999999</ele><time>2026-05-01T14:40:28.73Z</time></trkpt><trkpt lat="44.15672179013586" lon="10.439878788838945"><ele>896.9999999999999</ele><time>2026-05-01T14:40:29.73Z</time></trkpt><trkpt lat="44.15680664634431" lon="10.4399332810414"><ele>899.0</ele><time>2026-05-01T14:40:30.73Z</time></trkpt><trkpt lat="44.15686495992427" lon="10.440036085510478"><ele>901.0</ele><time>2026-05-01T14:40:31.729Z</time></trkpt><trkpt lat="44.15689049993572" lon="10.440171214238767"><ele>901.0</ele><time>2026-05-01T14:40:32.729Z</time></trkpt><trkpt lat="44.15687470407016" lon="10.440308128277136"><ele>900.9999999999999</ele><time>2026-05-01T14:40:33.729Z</time></trkpt><trkpt lat="44.156820735061395" lon="10.440416621627692"><ele>900.9999999999999</ele><time>2026-05-01T14:40:34.729Z</time></trkpt><trkpt lat="44.156725709683336" lon="10.44046355831523"><ele>901.0</ele><time>2026-05-01T14:40:35.729Z</time></trkpt><trkpt lat="44.15662855400975" lon="10.44050547386345"><ele>901.0</ele><time>2026-05-01T14:40:36.729Z</time></trkpt><trkpt lat="44.156539523211286" lon="10.44057472770436"><ele>895.25</ele><time>2026-05-01T14:40:37.729Z</time></trkpt><trkpt lat="44.156451177335356" lon="10.440692650226321"><ele>889.5</ele><time>2026-05-01T14:40:38.729Z</time></trkpt><trkpt lat="44.156383944315166" lon="10.44082556534591"><ele>883.75</ele><time>2026-05-01T14:40:39.729Z</time></trkpt><trkpt lat="44.15630898403321" lon="10.440954835370315"><ele>878.0</ele><time>2026-05-01T14:40:40.729Z</time></trkpt><trkpt lat="44.15620520405022" lon="10.441062467264343"><ele>878.0</ele><time>2026-05-01T14:40:41.729Z</time></trkpt><trkpt lat="44.156093191884985" lon="10.441134880126652"><ele>878.0</ele><time>2026-05-01T14:40:42.729Z</time></trkpt><trkpt lat="44.15599421976473" lon="10.441199900193727"><ele>878.0</ele><time>2026-05-01T14:40:43.729Z</time></trkpt><trkpt lat="44.15590987940769" lon="10.441287454511617"><ele>878.0</ele><time>2026-05-01T14:40:44.729Z</time></trkpt><trkpt lat="44.155820530637165" lon="10.44136313994171"><ele>878.0</ele><time>2026-05-01T14:40:45.729Z</time></trkpt><trkpt lat="44.15576523125972" lon="10.441479347200072"><ele>879.2</ele><time>2026-05-01T14:40:46.729Z</time></trkpt><trkpt lat="44.155718159110044" lon="10.441613393554974"><ele>880.4</ele><time>2026-05-01T14:40:47.729Z</time></trkpt><trkpt lat="44.15567652558456" lon="10.441743118965672"><ele>881.6000000000001</ele><time>2026-05-01T14:40:48.729Z</time></trkpt><trkpt lat="44.15563499380561" lon="10.441848078554935"><ele>882.8000000000001</ele><time>2026-05-01T14:40:49.729Z</time></trkpt><trkpt lat="44.15556752337437" lon="10.441913456247827"><ele>884.0</ele><time>2026-05-01T14:40:50.729Z</time></trkpt><trkpt lat="44.155476280003704" lon="10.441924246808837"><ele>879.5</ele><time>2026-05-01T14:40:51.729Z</time></trkpt><trkpt lat="44.15536029986875" lon="10.441876493765099"><ele>875.0</ele><time>2026-05-01T14:40:52.729Z</time></trkpt><trkpt lat="44.15522648026959" lon="10.441839142209664"><ele>870.5</ele><time>2026-05-01T14:40:53.729Z</time></trkpt><trkpt lat="44.15508388146633" lon="10.441805279707243"><ele>866.0</ele><time>2026-05-01T14:40:54.729Z</time></trkpt><trkpt lat="44.15495065200403" lon="10.441764589318115"><ele>864.5</ele><time>2026-05-01T14:40:55.729Z</time></trkpt><trkpt lat="44.15482243777943" lon="10.441696987301572"><ele>863.0</ele><time>2026-05-01T14:40:56.729Z</time></trkpt><trkpt lat="44.1546943228602" lon="10.441636899271542"><ele>861.5</ele><time>2026-05-01T14:40:57.729Z</time></trkpt><trkpt lat="44.15455989420912" lon="10.441609401312682"><ele>860.0</ele><time>2026-05-01T14:40:58.729Z</time></trkpt><trkpt lat="44.15442640431085" lon="10.441621590446212"><ele>860.0</ele><time>2026-05-01T14:40:59.73Z</time></trkpt><trkpt lat="44.15429404721901" lon="10.441673357088328"><ele>860.0</ele><time>2026-05-01T14:41:00.729Z</time></trkpt><trkpt lat="44.15417303727745" lon="10.441762598220567"><ele>860.0</ele><time>2026-05-01T14:41:01.729Z</time></trkpt><trkpt lat="44.1540424060974" lon="10.441800332524437"><ele>860.0</ele><time>2026-05-01T14:41:02.729Z</time></trkpt><trkpt lat="44.153906594430815" lon="10.441769979731987"><ele>857.3333333333334</ele><time>2026-05-01T14:41:03.729Z</time></trkpt><trkpt lat="44.15376783702885" lon="10.44170285033894"><ele>854.6666666666667</ele><time>2026-05-01T14:41:04.729Z</time></trkpt><trkpt lat="44.15362305431773" lon="10.441620541085346"><ele>852.0</ele><time>2026-05-01T14:41:05.729Z</time></trkpt><trkpt lat="44.15348718827175" lon="10.441529928420866"><ele>852.0</ele><time>2026-05-01T14:41:06.729Z</time></trkpt><trkpt lat="44.153340275523405" lon="10.441383524971247"><ele>852.0</ele><time>2026-05-01T14:41:07.729Z</time></trkpt><trkpt lat="44.15322080696796" lon="10.441296084366543"><ele>852.0</ele><time>2026-05-01T14:41:08.729Z</time></trkpt><trkpt lat="44.153103085742124" lon="10.44122792797378"><ele>852.0</ele><time>2026-05-01T14:41:09.729Z</time></trkpt><trkpt lat="44.15298676065017" lon="10.44117592032382"><ele>841.75</ele><time>2026-05-01T14:41:10.729Z</time></trkpt><trkpt lat="44.152871014542924" lon="10.441178997455104"><ele>831.5</ele><time>2026-05-01T14:41:11.729Z</time></trkpt><trkpt lat="44.152746097795514" lon="10.441221242012983"><ele>821.25</ele><time>2026-05-01T14:41:12.729Z</time></trkpt><trkpt lat="44.152621021460064" lon="10.441262880104665"><ele>811.0</ele><time>2026-05-01T14:41:13.729Z</time></trkpt><trkpt lat="44.152482208139055" lon="10.441289879874379"><ele>811.5</ele><time>2026-05-01T14:41:14.729Z</time></trkpt><trkpt lat="44.15235348724681" lon="10.44128669126108"><ele>812.0</ele><time>2026-05-01T14:41:15.729Z</time></trkpt><trkpt lat="44.152228660141866" lon="10.441277888549294"><ele>812.5</ele><time>2026-05-01T14:41:16.729Z</time></trkpt><trkpt lat="44.15211722865773" lon="10.441287756079545"><ele>813.0</ele><time>2026-05-01T14:41:17.729Z</time></trkpt><trkpt lat="44.15202403880521" lon="10.441309456495768"><ele>813.0</ele><time>2026-05-01T14:41:18.729Z</time></trkpt><trkpt lat="44.151956158181854" lon="10.441375018904056"><ele>813.0</ele><time>2026-05-01T14:41:19.729Z</time></trkpt><trkpt lat="44.15192404954555" lon="10.441477056039858"><ele>813.0</ele><time>2026-05-01T14:41:20.729Z</time></trkpt><trkpt lat="44.15193184440571" lon="10.441616793191464"><ele>813.0</ele><time>2026-05-01T14:41:21.729Z</time></trkpt><trkpt lat="44.1519639647387" lon="10.44175524583688"><ele>813.0</ele><time>2026-05-01T14:41:22.729Z</time></trkpt><trkpt lat="44.151996474680026" lon="10.441884405443096"><ele>813.0</ele><time>2026-05-01T14:41:23.729Z</time></trkpt><trkpt lat="44.152043954798344" lon="10.442041029214923"><ele>813.0</ele><time>2026-05-01T14:41:24.729Z</time></trkpt><trkpt lat="44.152087151190976" lon="10.442160549345111"><ele>813.0</ele><time>2026-05-01T14:41:25.729Z</time></trkpt><trkpt lat="44.15213119922797" lon="10.44225769694285"><ele>813.0</ele><time>2026-05-01T14:41:26.729Z</time></trkpt><trkpt lat="44.1522057023349" lon="10.4423305207563"><ele>813.0</ele><time>2026-05-01T14:41:27.729Z</time></trkpt><trkpt lat="44.152276809743796" lon="10.4423940566673"><ele>817.25</ele><time>2026-05-01T14:41:28.729Z</time></trkpt><trkpt lat="44.15236673178317" lon="10.442437100283774"><ele>821.5</ele><time>2026-05-01T14:41:29.729Z</time></trkpt><trkpt lat="44.15246857319593" lon="10.442495366414065"><ele>825.75</ele><time>2026-05-01T14:41:30.729Z</time></trkpt><trkpt lat="44.152576116654714" lon="10.442597342892999"><ele>830.0</ele><time>2026-05-01T14:41:31.729Z</time></trkpt><trkpt lat="44.15266661520099" lon="10.44271857806786"><ele>830.0</ele><time>2026-05-01T14:41:32.729Z</time></trkpt><trkpt lat="44.15273682711718" lon="10.442834250203084"><ele>830.0</ele><time>2026-05-01T14:41:33.729Z</time></trkpt><trkpt lat="44.15281153876837" lon="10.442928887303731"><ele>830.0</ele><time>2026-05-01T14:41:34.729Z</time></trkpt><trkpt lat="44.15287167085146" lon="10.442981743646252"><ele>830.0</ele><time>2026-05-01T14:41:35.729Z</time></trkpt><trkpt lat="44.152947550027385" lon="10.443083721651357"><ele>830.0</ele><time>2026-05-01T14:41:37.729Z</time></trkpt><trkpt lat="44.15292069114489" lon="10.443199983736069"><ele>830.0</ele><time>2026-05-01T14:41:39.729Z</time></trkpt><trkpt lat="44.15280457832747" lon="10.44314699642611"><ele>830.0</ele><time>2026-05-01T14:41:41.729Z</time></trkpt><trkpt lat="44.15275666489286" lon="10.443047026161322"><ele>830.0</ele><time>2026-05-01T14:41:42.729Z</time></trkpt><trkpt lat="44.152683403555855" lon="10.442934121989294"><ele>830.0</ele><time>2026-05-01T14:41:43.729Z</time></trkpt><trkpt lat="44.15259907045703" lon="10.44282150412041"><ele>830.0</ele><time>2026-05-01T14:41:44.728Z</time></trkpt><trkpt lat="44.15251624134771" lon="10.442714660410001"><ele>830.0</ele><time>2026-05-01T14:41:45.728Z</time></trkpt><trkpt lat="44.15241686497664" lon="10.442654707186122"><ele>830.0</ele><time>2026-05-01T14:41:46.728Z</time></trkpt><trkpt lat="44.152309928941044" lon="10.442610870081797"><ele>830.0</ele><time>2026-05-01T14:41:47.728Z</time></trkpt><trkpt lat="44.15220013103761" lon="10.44260722535437"><ele>830.0</ele><time>2026-05-01T14:41:48.728Z</time></trkpt><trkpt lat="44.15209980181322" lon="10.442600677373925"><ele>830.0</ele><time>2026-05-01T14:41:49.728Z</time></trkpt><trkpt lat="44.15199882372591" lon="10.442567116876162"><ele>825.75</ele><time>2026-05-01T14:41:50.728Z</time></trkpt><trkpt lat="44.151912060904316" lon="10.442493527184727"><ele>821.5</ele><time>2026-05-01T14:41:51.728Z</time></trkpt><trkpt lat="44.15183646226583" lon="10.442370029625401"><ele>817.25</ele><time>2026-05-01T14:41:52.728Z</time></trkpt><trkpt lat="44.15175795552532" lon="10.442228337804554"><ele>813.0</ele><time>2026-05-01T14:41:53.728Z</time></trkpt><trkpt lat="44.151664094892254" lon="10.442090732615723"><ele>813.0</ele><time>2026-05-01T14:41:54.728Z</time></trkpt><trkpt lat="44.15158857694775" lon="10.441949832770476"><ele>813.0</ele><time>2026-05-01T14:41:55.728Z</time></trkpt><trkpt lat="44.151519539626904" lon="10.441797802540576"><ele>813.0</ele><time>2026-05-01T14:41:56.728Z</time></trkpt><trkpt lat="44.151438103267886" lon="10.441679135909522"><ele>813.0</ele><time>2026-05-01T14:41:57.728Z</time></trkpt><trkpt lat="44.15133066249336" lon="10.441568948202981"><ele>806.5</ele><time>2026-05-01T14:41:58.728Z</time></trkpt><trkpt lat="44.15122917365145" lon="10.441451968836182"><ele>800.0</ele><time>2026-05-01T14:41:59.728Z</time></trkpt><trkpt lat="44.151135637039246" lon="10.44132949183184"><ele>793.5</ele><time>2026-05-01T14:42:00.728Z</time></trkpt><trkpt lat="44.1510613477707" lon="10.441189156386608"><ele>787.0</ele><time>2026-05-01T14:42:01.728Z</time></trkpt><trkpt lat="44.1509858259566" lon="10.44107886407713"><ele>787.0</ele><time>2026-05-01T14:42:02.728Z</time></trkpt><trkpt lat="44.15090636322702" lon="10.440989967588601"><ele>787.0</ele><time>2026-05-01T14:42:03.728Z</time></trkpt><trkpt lat="44.150805280022325" lon="10.440963950820947"><ele>787.0</ele><time>2026-05-01T14:42:04.728Z</time></trkpt><trkpt lat="44.15069067596813" lon="10.440971545885565"><ele>787.0</ele><time>2026-05-01T14:42:05.728Z</time></trkpt><trkpt lat="44.15058475041227" lon="10.441012820966874"><ele>787.0</ele><time>2026-05-01T14:42:06.728Z</time></trkpt><trkpt lat="44.150464916224955" lon="10.441055095160594"><ele>786.4000000000001</ele><time>2026-05-01T14:42:07.728Z</time></trkpt><trkpt lat="44.150357418171936" lon="10.441073519100422"><ele>785.8000000000001</ele><time>2026-05-01T14:42:08.728Z</time></trkpt><trkpt lat="44.15025826563785" lon="10.441042767440674"><ele>785.2</ele><time>2026-05-01T14:42:09.728Z</time></trkpt><trkpt lat="44.150165681877276" lon="10.440983237587247"><ele>784.6</ele><time>2026-05-01T14:42:10.728Z</time></trkpt><trkpt lat="44.15007765080748" lon="10.440893822698342"><ele>784.0</ele><time>2026-05-01T14:42:11.728Z</time></trkpt><trkpt lat="44.14998089142748" lon="10.440793494426783"><ele>784.0</ele><time>2026-05-01T14:42:12.728Z</time></trkpt><trkpt lat="44.14987808097512" lon="10.440699930820584"><ele>784.0</ele><time>2026-05-01T14:42:13.728Z</time></trkpt><trkpt lat="44.149770637191104" lon="10.44061471270999"><ele>784.0</ele><time>2026-05-01T14:42:14.728Z</time></trkpt><trkpt lat="44.149663863694656" lon="10.440525138709559"><ele>784.0</ele><time>2026-05-01T14:42:15.728Z</time></trkpt><trkpt lat="44.149550766848115" lon="10.4404463988342"><ele>780.0</ele><time>2026-05-01T14:42:16.728Z</time></trkpt><trkpt lat="44.14944330416623" lon="10.4403668199145"><ele>776.0</ele><time>2026-05-01T14:42:17.728Z</time></trkpt><trkpt lat="44.14934235965486" lon="10.440287327070964"><ele>772.0</ele><time>2026-05-01T14:42:18.728Z</time></trkpt><trkpt lat="44.1492319145011" lon="10.440241550074942"><ele>768.0</ele><time>2026-05-01T14:42:19.728Z</time></trkpt><trkpt lat="44.14911566948525" lon="10.440231819245895"><ele>767.75</ele><time>2026-05-01T14:42:20.728Z</time></trkpt><trkpt lat="44.14898572731755" lon="10.44022341354753"><ele>767.5</ele><time>2026-05-01T14:42:21.728Z</time></trkpt><trkpt lat="44.14884074304847" lon="10.440231123062938"><ele>767.25</ele><time>2026-05-01T14:42:22.728Z</time></trkpt><trkpt lat="44.14870746577151" lon="10.44022422111977"><ele>767.0</ele><time>2026-05-01T14:42:23.728Z</time></trkpt><trkpt lat="44.148580725294586" lon="10.440200617998977"><ele>767.0</ele><time>2026-05-01T14:42:24.727Z</time></trkpt><trkpt lat="44.148459431755676" lon="10.440164068790107"><ele>767.0</ele><time>2026-05-01T14:42:25.727Z</time></trkpt><trkpt lat="44.14833027057078" lon="10.440128749417926"><ele>767.0</ele><time>2026-05-01T14:42:26.727Z</time></trkpt><trkpt lat="44.14819469222764" lon="10.440089503441403"><ele>767.0</ele><time>2026-05-01T14:42:27.727Z</time></trkpt><trkpt lat="44.14806009770251" lon="10.440058704985733"><ele>766.75</ele><time>2026-05-01T14:42:28.727Z</time></trkpt><trkpt lat="44.14792468412591" lon="10.440022563667293"><ele>766.5</ele><time>2026-05-01T14:42:29.727Z</time></trkpt><trkpt lat="44.14779244092753" lon="10.439970661107418"><ele>766.25</ele><time>2026-05-01T14:42:30.727Z</time></trkpt><trkpt lat="44.14766532606033" lon="10.439892171337704"><ele>766.0</ele><time>2026-05-01T14:42:31.727Z</time></trkpt><trkpt lat="44.147553796027196" lon="10.439789010120153"><ele>766.0</ele><time>2026-05-01T14:42:32.727Z</time></trkpt><trkpt lat="44.14744493510727" lon="10.439641868911915"><ele>766.0</ele><time>2026-05-01T14:42:33.727Z</time></trkpt><trkpt lat="44.14733267694073" lon="10.439501626018926"><ele>766.0</ele><time>2026-05-01T14:42:34.727Z</time></trkpt><trkpt lat="44.14721794462849" lon="10.439368878763258"><ele>766.75</ele><time>2026-05-01T14:42:35.727Z</time></trkpt><trkpt lat="44.14709804859344" lon="10.439228704023497"><ele>767.5</ele><time>2026-05-01T14:42:36.727Z</time></trkpt><trkpt lat="44.146986279908155" lon="10.439096978645741"><ele>768.25</ele><time>2026-05-01T14:42:37.727Z</time></trkpt><trkpt lat="44.14688126847968" lon="10.43898547932707"><ele>769.0</ele><time>2026-05-01T14:42:38.727Z</time></trkpt><trkpt lat="44.14677826012519" lon="10.43890233996628"><ele>768.9999999999999</ele><time>2026-05-01T14:42:39.727Z</time></trkpt><trkpt lat="44.1466932258759" lon="10.438865874385082"><ele>769.0</ele><time>2026-05-01T14:42:40.727Z</time></trkpt><trkpt lat="44.14661863592999" lon="10.438808937986002"><ele>769.0</ele><time>2026-05-01T14:42:42.727Z</time></trkpt><trkpt lat="44.14667938025013" lon="10.438696825078717"><ele>769.0</ele><time>2026-05-01T14:42:44.727Z</time></trkpt><trkpt lat="44.146750259783836" lon="10.438695756856454"><ele>768.9999999999999</ele><time>2026-05-01T14:42:45.727Z</time></trkpt><trkpt lat="44.14682981703767" lon="10.438727818308701"><ele>769.0</ele><time>2026-05-01T14:42:46.727Z</time></trkpt><trkpt lat="44.146923141276275" lon="10.438769996974868"><ele>769.0</ele><time>2026-05-01T14:42:47.727Z</time></trkpt><trkpt lat="44.14703446513852" lon="10.438811985135862"><ele>769.0</ele><time>2026-05-01T14:42:48.727Z</time></trkpt><trkpt lat="44.1471701527166" lon="10.438857993440635"><ele>769.0</ele><time>2026-05-01T14:42:49.727Z</time></trkpt><trkpt lat="44.14731251897826" lon="10.438940704392365"><ele>769.0</ele><time>2026-05-01T14:42:50.727Z</time></trkpt><trkpt lat="44.14744877787899" lon="10.439033382680353"><ele>767.5</ele><time>2026-05-01T14:42:51.727Z</time></trkpt><trkpt lat="44.147556163773" lon="10.439122738111909"><ele>766.0</ele><time>2026-05-01T14:42:52.727Z</time></trkpt><trkpt lat="44.147674573536634" lon="10.439184913193003"><ele>764.5</ele><time>2026-05-01T14:42:53.727Z</time></trkpt><trkpt lat="44.14779638558862" lon="10.43925037761867"><ele>763.0</ele><time>2026-05-01T14:42:54.727Z</time></trkpt><trkpt lat="44.14789440449569" lon="10.439311762505135"><ele>763.0</ele><time>2026-05-01T14:42:55.727Z</time></trkpt><trkpt lat="44.14796940409443" lon="10.439351234871387"><ele>763.0</ele><time>2026-05-01T14:42:56.727Z</time></trkpt><trkpt lat="44.148054053135056" lon="10.439308665421224"><ele>763.0</ele><time>2026-05-01T14:42:58.727Z</time></trkpt><trkpt lat="44.1480424969224" lon="10.439143789068568"><ele>763.0</ele><time>2026-05-01T14:43:00.727Z</time></trkpt><trkpt lat="44.147968881358516" lon="10.439032535233604"><ele>763.0</ele><time>2026-05-01T14:43:01.727Z</time></trkpt><trkpt lat="44.14787985609535" lon="10.438912406786326"><ele>757.5</ele><time>2026-05-01T14:43:02.727Z</time></trkpt><trkpt lat="44.147777761571476" lon="10.438773593891431"><ele>752.0</ele><time>2026-05-01T14:43:03.726Z</time></trkpt><trkpt lat="44.147678088169705" lon="10.438652613331802"><ele>746.5</ele><time>2026-05-01T14:43:04.726Z</time></trkpt><trkpt lat="44.147587493709565" lon="10.43854208501441"><ele>741.0</ele><time>2026-05-01T14:43:05.727Z</time></trkpt><trkpt lat="44.14749260479929" lon="10.43843512395494"><ele>741.0</ele><time>2026-05-01T14:43:06.727Z</time></trkpt><trkpt lat="44.14739703481122" lon="10.438326886036112"><ele>741.0</ele><time>2026-05-01T14:43:07.727Z</time></trkpt><trkpt lat="44.14730154331525" lon="10.438237983499516"><ele>741.0</ele><time>2026-05-01T14:43:08.726Z</time></trkpt><trkpt lat="44.14719952049711" lon="10.438206409319356"><ele>741.0</ele><time>2026-05-01T14:43:09.727Z</time></trkpt><trkpt lat="44.14708754941335" lon="10.438197719894955"><ele>740.5</ele><time>2026-05-01T14:43:10.727Z</time></trkpt><trkpt lat="44.146969292450734" lon="10.438189919056352"><ele>740.0</ele><time>2026-05-01T14:43:11.726Z</time></trkpt><trkpt lat="44.146876490643486" lon="10.438101975153305"><ele>739.5</ele><time>2026-05-01T14:43:12.727Z</time></trkpt><trkpt lat="44.146804999435474" lon="10.437955742634765"><ele>739.0</ele><time>2026-05-01T14:43:13.726Z</time></trkpt><trkpt lat="44.14675294971654" lon="10.437797816876724"><ele>739.0</ele><time>2026-05-01T14:43:14.726Z</time></trkpt><trkpt lat="44.14674204913783" lon="10.43765994926736"><ele>739.0</ele><time>2026-05-01T14:43:15.726Z</time></trkpt><trkpt lat="44.14675119979726" lon="10.437518347946972"><ele>739.0</ele><time>2026-05-01T14:43:16.726Z</time></trkpt><trkpt lat="44.14674016363014" lon="10.437381078565203"><ele>739.0</ele><time>2026-05-01T14:43:17.726Z</time></trkpt><trkpt lat="44.146713772437856" lon="10.437261291364228"><ele>739.0</ele><time>2026-05-01T14:43:18.726Z</time></trkpt><trkpt lat="44.1466452080384" lon="10.437173667882972"><ele>739.2</ele><time>2026-05-01T14:43:19.726Z</time></trkpt><trkpt lat="44.14654899493494" lon="10.437121961692784"><ele>739.4000000000001</ele><time>2026-05-01T14:43:20.726Z</time></trkpt><trkpt lat="44.146450075632956" lon="10.437084512014376"><ele>739.6</ele><time>2026-05-01T14:43:21.726Z</time></trkpt><trkpt lat="44.146342948114814" lon="10.43703210767186"><ele>739.8</ele><time>2026-05-01T14:43:22.726Z</time></trkpt><trkpt lat="44.14626887390002" lon="10.436940273271544"><ele>740.0</ele><time>2026-05-01T14:43:23.726Z</time></trkpt><trkpt lat="44.146190559611114" lon="10.43681376124054"><ele>740.0</ele><time>2026-05-01T14:43:24.726Z</time></trkpt><trkpt lat="44.146105119608166" lon="10.436672525771478"><ele>740.0</ele><time>2026-05-01T14:43:25.726Z</time></trkpt><trkpt lat="44.14604099034785" lon="10.436529119800099"><ele>740.0</ele><time>2026-05-01T14:43:26.726Z</time></trkpt><trkpt lat="44.145985285362954" lon="10.43639165024656"><ele>740.0</ele><time>2026-05-01T14:43:27.726Z</time></trkpt><trkpt lat="44.14593478461698" lon="10.436242438711366"><ele>735.25</ele><time>2026-05-01T14:43:28.726Z</time></trkpt><trkpt lat="44.145888935152044" lon="10.436095222443715"><ele>730.5</ele><time>2026-05-01T14:43:29.726Z</time></trkpt><trkpt lat="44.14585120014998" lon="10.43593111736353"><ele>725.75</ele><time>2026-05-01T14:43:30.726Z</time></trkpt><trkpt lat="44.145838577981806" lon="10.435776253640794"><ele>721.0</ele><time>2026-05-01T14:43:31.726Z</time></trkpt><trkpt lat="44.14583118332519" lon="10.435620888787689"><ele>721.0</ele><time>2026-05-01T14:43:32.726Z</time></trkpt><trkpt lat="44.14581045883315" lon="10.435482196256496"><ele>721.0</ele><time>2026-05-01T14:43:33.726Z</time></trkpt><trkpt lat="44.14576857851295" lon="10.435355035150593"><ele>721.0</ele><time>2026-05-01T14:43:34.726Z</time></trkpt><trkpt lat="44.145698138464205" lon="10.43527163931852"><ele>721.0</ele><time>2026-05-01T14:43:35.726Z</time></trkpt><trkpt lat="44.14561113904215" lon="10.435197113025492"><ele>721.0</ele><time>2026-05-01T14:43:36.726Z</time></trkpt><trkpt lat="44.14551356218676" lon="10.435121202334402"><ele>719.75</ele><time>2026-05-01T14:43:37.726Z</time></trkpt><trkpt lat="44.14541877071822" lon="10.435030398031172"><ele>718.5</ele><time>2026-05-01T14:43:38.726Z</time></trkpt><trkpt lat="44.145321698441954" lon="10.43493757241804"><ele>717.25</ele><time>2026-05-01T14:43:39.726Z</time></trkpt><trkpt lat="44.145219079166104" lon="10.434868888967747"><ele>716.0</ele><time>2026-05-01T14:43:40.726Z</time></trkpt><trkpt lat="44.14511433662229" lon="10.434829031631917"><ele>716.0</ele><time>2026-05-01T14:43:41.726Z</time></trkpt><trkpt lat="44.145016604176384" lon="10.434829413656672"><ele>716.0</ele><time>2026-05-01T14:43:42.726Z</time></trkpt><trkpt lat="44.14493079636245" lon="10.43484098539856"><ele>716.0</ele><time>2026-05-01T14:43:43.726Z</time></trkpt><trkpt lat="44.14486448751561" lon="10.434831172421188"><ele>716.0</ele><time>2026-05-01T14:43:44.726Z</time></trkpt><trkpt lat="44.14478409936366" lon="10.434735096726726"><ele>716.0</ele><time>2026-05-01T14:43:46.726Z</time></trkpt><trkpt lat="44.14476171351639" lon="10.434603925212917"><ele>712.0</ele><time>2026-05-01T14:43:47.726Z</time></trkpt><trkpt lat="44.144732107768355" lon="10.434443099202287"><ele>708.0</ele><time>2026-05-01T14:43:48.726Z</time></trkpt><trkpt lat="44.144683807837865" lon="10.434297279814045"><ele>704.0</ele><time>2026-05-01T14:43:49.726Z</time></trkpt><trkpt lat="44.14462689156223" lon="10.434159522940423"><ele>700.0</ele><time>2026-05-01T14:43:50.726Z</time></trkpt><trkpt lat="44.14456141770449" lon="10.434024845396218"><ele>700.0</ele><time>2026-05-01T14:43:51.726Z</time></trkpt><trkpt lat="44.14448955803847" lon="10.433904046651213"><ele>700.0</ele><time>2026-05-01T14:43:52.726Z</time></trkpt><trkpt lat="44.144409634343965" lon="10.433814776760391"><ele>700.0</ele><time>2026-05-01T14:43:53.725Z</time></trkpt><trkpt lat="44.144313833591845" lon="10.433751680820114"><ele>700.0</ele><time>2026-05-01T14:43:54.725Z</time></trkpt><trkpt lat="44.144217162014534" lon="10.433732437249844"><ele>700.0</ele><time>2026-05-01T14:43:55.725Z</time></trkpt><trkpt lat="44.144133908641706" lon="10.433775096021156"><ele>700.0</ele><time>2026-05-01T14:43:56.725Z</time></trkpt><trkpt lat="44.14406553331323" lon="10.433845125143447"><ele>700.0</ele><time>2026-05-01T14:43:57.725Z</time></trkpt><trkpt lat="44.14398619422333" lon="10.433900715854774"><ele>700.0</ele><time>2026-05-01T14:43:58.725Z</time></trkpt><trkpt lat="44.143912112293734" lon="10.43391814601885"><ele>700.0</ele><time>2026-05-01T14:43:59.725Z</time></trkpt><trkpt lat="44.143818302754674" lon="10.433868023478201"><ele>700.0</ele><time>2026-05-01T14:44:00.725Z</time></trkpt><trkpt lat="44.14372348798178" lon="10.433791850590506"><ele>695.4</ele><time>2026-05-01T14:44:01.725Z</time></trkpt><trkpt lat="44.14363335826674" lon="10.433722531540251"><ele>690.8</ele><time>2026-05-01T14:44:02.725Z</time></trkpt><trkpt lat="44.14353749054059" lon="10.433639745895572"><ele>686.2</ele><time>2026-05-01T14:44:03.725Z</time></trkpt><trkpt lat="44.143454459927796" lon="10.433533862195555"><ele>681.6</ele><time>2026-05-01T14:44:04.725Z</time></trkpt><trkpt lat="44.143391021003055" lon="10.433400204925873"><ele>677.0</ele><time>2026-05-01T14:44:05.725Z</time></trkpt><trkpt lat="44.143329747679964" lon="10.433235773544702"><ele>677.0</ele><time>2026-05-01T14:44:06.725Z</time></trkpt><trkpt lat="44.1432710083614" lon="10.433068841966767"><ele>677.0</ele><time>2026-05-01T14:44:07.725Z</time></trkpt><trkpt lat="44.143218490870424" lon="10.432922653718926"><ele>677.0</ele><time>2026-05-01T14:44:08.725Z</time></trkpt><trkpt lat="44.14317085092983" lon="10.432797333910381"><ele>677.0</ele><time>2026-05-01T14:44:09.725Z</time></trkpt><trkpt lat="44.143112202900696" lon="10.432695378803519"><ele>677.0</ele><time>2026-05-01T14:44:10.725Z</time></trkpt><trkpt lat="44.14306464790136" lon="10.432620541383383"><ele>674.6666666666666</ele><time>2026-05-01T14:44:11.725Z</time></trkpt><trkpt lat="44.1429827609082" lon="10.432522538881814"><ele>672.3333333333333</ele><time>2026-05-01T14:44:13.725Z</time></trkpt><trkpt lat="44.14298601954044" lon="10.432372824615047"><ele>670.0</ele><time>2026-05-01T14:44:15.725Z</time></trkpt><trkpt lat="44.14305021146449" lon="10.432371172804704"><ele>667.6666666666666</ele><time>2026-05-01T14:44:16.725Z</time></trkpt><trkpt lat="44.14309787102686" lon="10.432432961659384"><ele>665.3333333333334</ele><time>2026-05-01T14:44:17.725Z</time></trkpt><trkpt lat="44.14315417860934" lon="10.43251737737013"><ele>663.0</ele><time>2026-05-01T14:44:18.725Z</time></trkpt><trkpt lat="44.14321512693642" lon="10.432611294379583"><ele>663.0</ele><time>2026-05-01T14:44:19.725Z</time></trkpt><trkpt lat="44.14326469652394" lon="10.432687404254835"><ele>663.0</ele><time>2026-05-01T14:44:20.725Z</time></trkpt><trkpt lat="44.143360875228346" lon="10.432708109387137"><ele>663.0</ele><time>2026-05-01T14:44:22.725Z</time></trkpt><trkpt lat="44.14339144890997" lon="10.43253939044448"><ele>663.0</ele><time>2026-05-01T14:44:24.725Z</time></trkpt><trkpt lat="44.14336988014767" lon="10.432432233511669"><ele>663.0</ele><time>2026-05-01T14:44:25.725Z</time></trkpt><trkpt lat="44.14334319138088" lon="10.432310289322533"><ele>663.0</ele><time>2026-05-01T14:44:26.725Z</time></trkpt><trkpt lat="44.143303287971314" lon="10.432179890008662"><ele>663.0</ele><time>2026-05-01T14:44:27.725Z</time></trkpt><trkpt lat="44.14323734133224" lon="10.432067167313237"><ele>663.0</ele><time>2026-05-01T14:44:28.725Z</time></trkpt><trkpt lat="44.14315468444297" lon="10.431992620789986"><ele>663.0</ele><time>2026-05-01T14:44:29.725Z</time></trkpt><trkpt lat="44.14305458916355" lon="10.43194516189336"><ele>663.0</ele><time>2026-05-01T14:44:30.725Z</time></trkpt><trkpt lat="44.14293557080622" lon="10.431891963948923"><ele>657.75</ele><time>2026-05-01T14:44:31.725Z</time></trkpt><trkpt lat="44.14281316357269" lon="10.431841314028292"><ele>652.5</ele><time>2026-05-01T14:44:32.725Z</time></trkpt><trkpt lat="44.1426886487634" lon="10.431802609988384"><ele>647.25</ele><time>2026-05-01T14:44:33.724Z</time></trkpt><trkpt lat="44.142564393457214" lon="10.43182760952726"><ele>642.0</ele><time>2026-05-01T14:44:34.724Z</time></trkpt><trkpt lat="44.142446449007274" lon="10.431887961724877"><ele>636.5</ele><time>2026-05-01T14:44:35.724Z</time></trkpt><trkpt lat="44.14233705162933" lon="10.43196092095859"><ele>631.0</ele><time>2026-05-01T14:44:36.724Z</time></trkpt><trkpt lat="44.142231619793975" lon="10.432027335171794"><ele>625.5</ele><time>2026-05-01T14:44:37.724Z</time></trkpt><trkpt lat="44.14213166560308" lon="10.43209118903486"><ele>620.0</ele><time>2026-05-01T14:44:38.724Z</time></trkpt><trkpt lat="44.14204550901117" lon="10.43217256182659"><ele>620.0</ele><time>2026-05-01T14:44:39.724Z</time></trkpt><trkpt lat="44.14197965098801" lon="10.432274132970415"><ele>620.0</ele><time>2026-05-01T14:44:40.724Z</time></trkpt><trkpt lat="44.141950974195076" lon="10.432376941706536"><ele>620.0</ele><time>2026-05-01T14:44:41.724Z</time></trkpt><trkpt lat="44.14196117891781" lon="10.432487446253415"><ele>620.0</ele><time>2026-05-01T14:44:42.724Z</time></trkpt><trkpt lat="44.14199388678519" lon="10.432588551755826"><ele>620.0</ele><time>2026-05-01T14:44:43.724Z</time></trkpt><trkpt lat="44.142011883429724" lon="10.432673598612912"><ele>620.0</ele><time>2026-05-01T14:44:44.724Z</time></trkpt><trkpt lat="44.141968405418176" lon="10.432764797500845"><ele>620.0</ele><time>2026-05-01T14:44:46.724Z</time></trkpt><trkpt lat="44.1418686611792" lon="10.432689588486667"><ele>620.0</ele><time>2026-05-01T14:44:48.724Z</time></trkpt><trkpt lat="44.14186026409148" lon="10.432590883541588"><ele>620.0</ele><time>2026-05-01T14:44:49.724Z</time></trkpt><trkpt lat="44.14185404347979" lon="10.432493965554686"><ele>620.0</ele><time>2026-05-01T14:44:50.724Z</time></trkpt><trkpt lat="44.14184912912245" lon="10.432376510357233"><ele>620.0</ele><time>2026-05-01T14:44:51.724Z</time></trkpt><trkpt lat="44.14187279583306" lon="10.432239858688558"><ele>620.0</ele><time>2026-05-01T14:44:52.724Z</time></trkpt><trkpt lat="44.14191655125375" lon="10.432102038421434"><ele>618.2</ele><time>2026-05-01T14:44:53.724Z</time></trkpt><trkpt lat="44.14196557614862" lon="10.431972109297016"><ele>616.4</ele><time>2026-05-01T14:44:54.724Z</time></trkpt><trkpt lat="44.142013023181114" lon="10.43185001254623"><ele>614.6</ele><time>2026-05-01T14:44:55.724Z</time></trkpt><trkpt lat="44.1420659472491" lon="10.43174937663884"><ele>612.8</ele><time>2026-05-01T14:44:56.724Z</time></trkpt><trkpt lat="44.14211108589169" lon="10.431639235449712"><ele>611.0</ele><time>2026-05-01T14:44:57.724Z</time></trkpt><trkpt lat="44.142136659178384" lon="10.431510496752217"><ele>611.0</ele><time>2026-05-01T14:44:58.724Z</time></trkpt><trkpt lat="44.14211727561959" lon="10.43138537487304"><ele>611.0</ele><time>2026-05-01T14:44:59.724Z</time></trkpt><trkpt lat="44.142076662403895" lon="10.431284805004214"><ele>611.0</ele><time>2026-05-01T14:45:00.724Z</time></trkpt><trkpt lat="44.14202070448952" lon="10.431187035780523"><ele>611.0</ele><time>2026-05-01T14:45:01.724Z</time></trkpt><trkpt lat="44.141962516209" lon="10.431083420986855"><ele>611.0</ele><time>2026-05-01T14:45:02.724Z</time></trkpt><trkpt lat="44.141900645822076" lon="10.430975587365646"><ele>610.1666666666666</ele><time>2026-05-01T14:45:03.724Z</time></trkpt><trkpt lat="44.14184033303023" lon="10.43087513115967"><ele>609.3333333333333</ele><time>2026-05-01T14:45:04.724Z</time></trkpt><trkpt lat="44.14179037191931" lon="10.430782042574231"><ele>608.5</ele><time>2026-05-01T14:45:05.724Z</time></trkpt><trkpt lat="44.141759816588014" lon="10.430687882513231"><ele>607.6666666666666</ele><time>2026-05-01T14:45:06.723Z</time></trkpt><trkpt lat="44.1417593715485" lon="10.430583822860994"><ele>606.8333333333334</ele><time>2026-05-01T14:45:07.723Z</time></trkpt><trkpt lat="44.141798210214596" lon="10.430483656176929"><ele>606.0</ele><time>2026-05-01T14:45:08.724Z</time></trkpt><trkpt lat="44.141858541940145" lon="10.430386432956267"><ele>604.2</ele><time>2026-05-01T14:45:09.724Z</time></trkpt><trkpt lat="44.1419293614365" lon="10.430276731179013"><ele>602.4000000000001</ele><time>2026-05-01T14:45:10.724Z</time></trkpt><trkpt lat="44.14199241932954" lon="10.430153586444957"><ele>600.6</ele><time>2026-05-01T14:45:11.724Z</time></trkpt><trkpt lat="44.142049880219716" lon="10.430034078097203"><ele>598.8000000000001</ele><time>2026-05-01T14:45:12.724Z</time></trkpt><trkpt lat="44.14210608196439" lon="10.429940651137432"><ele>597.0</ele><time>2026-05-01T14:45:13.724Z</time></trkpt><trkpt lat="44.142164031879545" lon="10.429892387995153"><ele>597.0</ele><time>2026-05-01T14:45:14.724Z</time></trkpt><trkpt lat="44.14222935084481" lon="10.429894068036543"><ele>597.0</ele><time>2026-05-01T14:45:15.724Z</time></trkpt><trkpt lat="44.142294496768066" lon="10.429973924240386"><ele>597.0</ele><time>2026-05-01T14:45:16.724Z</time></trkpt><trkpt lat="44.14233558235203" lon="10.430116118110726"><ele>597.0</ele><time>2026-05-01T14:45:17.723Z</time></trkpt><trkpt lat="44.142368872789596" lon="10.430299313712272"><ele>597.0</ele><time>2026-05-01T14:45:18.724Z</time></trkpt><trkpt lat="44.14242472625604" lon="10.430481921246175"><ele>601.4</ele><time>2026-05-01T14:45:19.724Z</time></trkpt><trkpt lat="44.14248635176565" lon="10.430616081004517"><ele>605.8000000000001</ele><time>2026-05-01T14:45:20.723Z</time></trkpt><trkpt lat="44.14253914877567" lon="10.430711583709005"><ele>610.2</ele><time>2026-05-01T14:45:21.723Z</time></trkpt><trkpt lat="44.142672743462015" lon="10.430688995232964"><ele>614.6</ele><time>2026-05-01T14:45:23.723Z</time></trkpt><trkpt lat="44.14276901879672" lon="10.430670248531841"><ele>619.0</ele><time>2026-05-01T14:45:24.723Z</time></trkpt><trkpt lat="44.142870691663546" lon="10.430662463371053"><ele>619.0</ele><time>2026-05-01T14:45:25.723Z</time></trkpt><trkpt lat="44.142988553868385" lon="10.430643988445574"><ele>619.0</ele><time>2026-05-01T14:45:26.723Z</time></trkpt><trkpt lat="44.14311753198968" lon="10.430592755145724"><ele>619.0</ele><time>2026-05-01T14:45:27.723Z</time></trkpt><trkpt lat="44.14326074438597" lon="10.430499431150253"><ele>619.0</ele><time>2026-05-01T14:45:28.723Z</time></trkpt><trkpt lat="44.14337485290171" lon="10.43042414451798"><ele>613.2</ele><time>2026-05-01T14:45:29.723Z</time></trkpt><trkpt lat="44.143478212324425" lon="10.430349985886968"><ele>607.4</ele><time>2026-05-01T14:45:30.723Z</time></trkpt><trkpt lat="44.143579816208614" lon="10.430288568550427"><ele>601.6</ele><time>2026-05-01T14:45:31.723Z</time></trkpt><trkpt lat="44.143669425244326" lon="10.430239746704695"><ele>595.8</ele><time>2026-05-01T14:45:32.723Z</time></trkpt><trkpt lat="44.14375605223091" lon="10.430230708813312"><ele>590.0</ele><time>2026-05-01T14:45:33.723Z</time></trkpt><trkpt lat="44.14382469356243" lon="10.430219858520994"><ele>590.0</ele><time>2026-05-01T14:45:34.723Z</time></trkpt><trkpt lat="44.14386905715564" lon="10.430107117671405"><ele>590.0</ele><time>2026-05-01T14:45:36.723Z</time></trkpt><trkpt lat="44.14385292383792" lon="10.430020319473105"><ele>590.0</ele><time>2026-05-01T14:45:37.723Z</time></trkpt><trkpt lat="44.14377414440516" lon="10.429974427552631"><ele>590.0</ele><time>2026-05-01T14:45:38.723Z</time></trkpt><trkpt lat="44.14370604690027" lon="10.429997184154086"><ele>590.0</ele><time>2026-05-01T14:45:39.723Z</time></trkpt><trkpt lat="44.143624050111356" lon="10.430033413746344"><ele>590.0</ele><time>2026-05-01T14:45:40.723Z</time></trkpt><trkpt lat="44.14351608269566" lon="10.430076124960896"><ele>590.0</ele><time>2026-05-01T14:45:41.723Z</time></trkpt><trkpt lat="44.14340760390275" lon="10.430101960661288"><ele>590.0</ele><time>2026-05-01T14:45:42.723Z</time></trkpt><trkpt lat="44.14328447112807" lon="10.430128510667027"><ele>590.0</ele><time>2026-05-01T14:45:43.723Z</time></trkpt><trkpt lat="44.14316593951479" lon="10.430161826458754"><ele>590.0</ele><time>2026-05-01T14:45:44.723Z</time></trkpt><trkpt lat="44.14306511458484" lon="10.430201076273468"><ele>591.6</ele><time>2026-05-01T14:45:45.723Z</time></trkpt><trkpt lat="44.14297973316884" lon="10.430216715211088"><ele>593.2</ele><time>2026-05-01T14:45:46.723Z</time></trkpt><trkpt lat="44.14289984696631" lon="10.430190263951124"><ele>594.8</ele><time>2026-05-01T14:45:47.723Z</time></trkpt><trkpt lat="44.142844127224485" lon="10.430103578322829"><ele>596.4</ele><time>2026-05-01T14:45:48.723Z</time></trkpt><trkpt lat="44.14281932102608" lon="10.42997414267635"><ele>598.0</ele><time>2026-05-01T14:45:49.723Z</time></trkpt><trkpt lat="44.14282804735984" lon="10.429817280603677"><ele>595.25</ele><time>2026-05-01T14:45:50.723Z</time></trkpt><trkpt lat="44.14283715190085" lon="10.429631392725206"><ele>592.5</ele><time>2026-05-01T14:45:51.723Z</time></trkpt><trkpt lat="44.14280786664627" lon="10.42942960214232"><ele>589.75</ele><time>2026-05-01T14:45:52.723Z</time></trkpt><trkpt lat="44.14276744784692" lon="10.429236201733753"><ele>587.0</ele><time>2026-05-01T14:45:53.723Z</time></trkpt><trkpt lat="44.14273998528281" lon="10.429052636252731"><ele>587.0</ele><time>2026-05-01T14:45:54.723Z</time></trkpt><trkpt lat="44.14272663328642" lon="10.428874314547537"><ele>587.0</ele><time>2026-05-01T14:45:55.723Z</time></trkpt><trkpt lat="44.14272176242889" lon="10.428705098766171"><ele>587.0</ele><time>2026-05-01T14:45:56.723Z</time></trkpt><trkpt lat="44.14271806003857" lon="10.428523722183405"><ele>587.0</ele><time>2026-05-01T14:45:57.723Z</time></trkpt><trkpt lat="44.142708279136066" lon="10.428355554029926"><ele>584.5</ele><time>2026-05-01T14:45:58.723Z</time></trkpt><trkpt lat="44.14269616598027" lon="10.42821525835883"><ele>582.0</ele><time>2026-05-01T14:45:59.723Z</time></trkpt><trkpt lat="44.142662656876766" lon="10.428091967859135"><ele>579.5</ele><time>2026-05-01T14:46:00.722Z</time></trkpt><trkpt lat="44.142644060919494" lon="10.427991152416988"><ele>577.0</ele><time>2026-05-01T14:46:01.722Z</time></trkpt><trkpt lat="44.14264366456956" lon="10.427894521195253"><ele>574.5</ele><time>2026-05-01T14:46:02.722Z</time></trkpt><trkpt lat="44.14268328384124" lon="10.427823166314383"><ele>572.0</ele><time>2026-05-01T14:46:03.722Z</time></trkpt><trkpt lat="44.14277258562277" lon="10.427892769377948"><ele>572.0</ele><time>2026-05-01T14:46:05.722Z</time></trkpt><trkpt lat="44.14279958196388" lon="10.427974408154068"><ele>572.0</ele><time>2026-05-01T14:46:06.722Z</time></trkpt><trkpt lat="44.14282162785492" lon="10.428087659967073"><ele>572.0</ele><time>2026-05-01T14:46:07.722Z</time></trkpt><trkpt lat="44.1428573579065" lon="10.428174472968742"><ele>572.0</ele><time>2026-05-01T14:46:08.722Z</time></trkpt><trkpt lat="44.14296181809764" lon="10.428143374745494"><ele>572.0</ele><time>2026-05-01T14:46:10.722Z</time></trkpt><trkpt lat="44.142986985733145" lon="10.428056015448385"><ele>572.0</ele><time>2026-05-01T14:46:11.722Z</time></trkpt><trkpt lat="44.14297524819102" lon="10.427961300220911"><ele>569.6666666666666</ele><time>2026-05-01T14:46:12.722Z</time></trkpt><trkpt lat="44.14296696834654" lon="10.427850963215946"><ele>567.3333333333333</ele><time>2026-05-01T14:46:13.722Z</time></trkpt><trkpt lat="44.142954863472205" lon="10.427719672315227"><ele>565.0</ele><time>2026-05-01T14:46:14.722Z</time></trkpt><trkpt lat="44.1429358810137" lon="10.427604926729957"><ele>562.6666666666666</ele><time>2026-05-01T14:46:15.722Z</time></trkpt><trkpt lat="44.14289201665337" lon="10.427521364271328"><ele>560.3333333333334</ele><time>2026-05-01T14:46:16.722Z</time></trkpt><trkpt lat="44.14282286462977" lon="10.427483422759263"><ele>558.0</ele><time>2026-05-01T14:46:17.722Z</time></trkpt><trkpt lat="44.14276175920901" lon="10.427459033500224"><ele>558.0</ele><time>2026-05-01T14:46:18.722Z</time></trkpt><trkpt lat="44.14271006588974" lon="10.427382944505155"><ele>558.0</ele><time>2026-05-01T14:46:19.722Z</time></trkpt><trkpt lat="44.14266186084767" lon="10.427267673678793"><ele>558.0</ele><time>2026-05-01T14:46:20.722Z</time></trkpt><trkpt lat="44.14262165768295" lon="10.427147129359273"><ele>558.0</ele><time>2026-05-01T14:46:21.722Z</time></trkpt><trkpt lat="44.14256706402913" lon="10.427065430006852"><ele>558.0</ele><time>2026-05-01T14:46:22.722Z</time></trkpt><trkpt lat="44.14246522277493" lon="10.426976887329147"><ele>553.1999999999999</ele><time>2026-05-01T14:46:23.722Z</time></trkpt><trkpt lat="44.14236704539051" lon="10.426888027752792"><ele>548.4</ele><time>2026-05-01T14:46:24.722Z</time></trkpt><trkpt lat="44.142281790049175" lon="10.426820777906078"><ele>543.5999999999999</ele><time>2026-05-01T14:46:25.722Z</time></trkpt><trkpt lat="44.1422085068966" lon="10.426740668765005"><ele>538.8</ele><time>2026-05-01T14:46:26.722Z</time></trkpt><trkpt lat="44.14214729288153" lon="10.426636415835533"><ele>534.0</ele><time>2026-05-01T14:46:27.722Z</time></trkpt><trkpt lat="44.14210048288689" lon="10.426524425224235"><ele>534.0</ele><time>2026-05-01T14:46:28.722Z</time></trkpt><trkpt lat="44.142067088434516" lon="10.426407965115354"><ele>534.0</ele><time>2026-05-01T14:46:29.722Z</time></trkpt><trkpt lat="44.14202458864347" lon="10.426305676680483"><ele>534.0</ele><time>2026-05-01T14:46:30.722Z</time></trkpt><trkpt lat="44.14196098712427" lon="10.426231461439933"><ele>534.0</ele><time>2026-05-01T14:46:31.722Z</time></trkpt><trkpt lat="44.141877612224356" lon="10.426174805837313"><ele>534.0</ele><time>2026-05-01T14:46:32.722Z</time></trkpt><trkpt lat="44.14178061668017" lon="10.426132035022604"><ele>534.4</ele><time>2026-05-01T14:46:33.722Z</time></trkpt><trkpt lat="44.14166299738148" lon="10.426079569019839"><ele>534.8</ele><time>2026-05-01T14:46:34.722Z</time></trkpt><trkpt lat="44.141558741518025" lon="10.42601607405265"><ele>535.2</ele><time>2026-05-01T14:46:35.722Z</time></trkpt><trkpt lat="44.14146221838188" lon="10.42595874054049"><ele>535.6</ele><time>2026-05-01T14:46:36.722Z</time></trkpt><trkpt lat="44.14138567604159" lon="10.425914128379109"><ele>536.0</ele><time>2026-05-01T14:46:37.722Z</time></trkpt><trkpt lat="44.141262860154015" lon="10.425886466393115"><ele>533.0</ele><time>2026-05-01T14:46:39.722Z</time></trkpt><trkpt lat="44.141196563860824" lon="10.426024332987163"><ele>530.0</ele><time>2026-05-01T14:46:41.721Z</time></trkpt><trkpt lat="44.1412151729283" lon="10.426114745193312"><ele>527.0</ele><time>2026-05-01T14:46:42.721Z</time></trkpt><trkpt lat="44.14127758347075" lon="10.426177762469836"><ele>524.0</ele><time>2026-05-01T14:46:43.721Z</time></trkpt><trkpt lat="44.14135884719481" lon="10.426226314134848"><ele>521.0</ele><time>2026-05-01T14:46:44.721Z</time></trkpt><trkpt lat="44.14144502937504" lon="10.42626980968953"><ele>518.0</ele><time>2026-05-01T14:46:45.721Z</time></trkpt><trkpt lat="44.141517472594046" lon="10.426313544886709"><ele>517.4</ele><time>2026-05-01T14:46:46.721Z</time></trkpt><trkpt lat="44.1415710183157" lon="10.426374353299174"><ele>516.8</ele><time>2026-05-01T14:46:47.721Z</time></trkpt><trkpt lat="44.14153723769106" lon="10.42654222486598"><ele>516.2</ele><time>2026-05-01T14:46:49.721Z</time></trkpt><trkpt lat="44.1414545366732" lon="10.426609881220688"><ele>515.6</ele><time>2026-05-01T14:46:50.721Z</time></trkpt><trkpt lat="44.14135337190736" lon="10.42667598789833"><ele>515.0</ele><time>2026-05-01T14:46:51.721Z</time></trkpt><trkpt lat="44.141247897481" lon="10.426722945319005"><ele>515.0</ele><time>2026-05-01T14:46:52.721Z</time></trkpt><trkpt lat="44.14111253760363" lon="10.426772138500434"><ele>515.0</ele><time>2026-05-01T14:46:53.721Z</time></trkpt><trkpt lat="44.140967071587674" lon="10.426774878987835"><ele>515.0</ele><time>2026-05-01T14:46:54.721Z</time></trkpt><trkpt lat="44.140847310544835" lon="10.426781648169257"><ele>515.0</ele><time>2026-05-01T14:46:55.721Z</time></trkpt><trkpt lat="44.1407548508724" lon="10.42681835476303"><ele>511.75</ele><time>2026-05-01T14:46:56.721Z</time></trkpt><trkpt lat="44.14060689378854" lon="10.426842293690745"><ele>508.5</ele><time>2026-05-01T14:46:57.721Z</time></trkpt><trkpt lat="44.140638915386745" lon="10.427002697213343"><ele>505.25</ele><time>2026-05-01T14:46:58.721Z</time></trkpt><trkpt lat="44.140701439214695" lon="10.427175226462918"><ele>502.0</ele><time>2026-05-01T14:46:59.721Z</time></trkpt><trkpt lat="44.14061364261022" lon="10.427276675410324"><ele>502.0</ele><time>2026-05-01T14:47:00.721Z</time></trkpt><trkpt lat="44.140500531535565" lon="10.42731567164483"><ele>502.0</ele><time>2026-05-01T14:47:01.721Z</time></trkpt><trkpt lat="44.140379292300096" lon="10.427299926528175"><ele>502.0</ele><time>2026-05-01T14:47:02.721Z</time></trkpt><trkpt lat="44.140254601971584" lon="10.427283861674066"><ele>502.0</ele><time>2026-05-01T14:47:03.721Z</time></trkpt><trkpt lat="44.14012594661753" lon="10.427258069014975"><ele>502.0</ele><time>2026-05-01T14:47:04.721Z</time></trkpt><trkpt lat="44.14000645389467" lon="10.42728516752552"><ele>502.00000000000006</ele><time>2026-05-01T14:47:05.721Z</time></trkpt><trkpt lat="44.1399087383139" lon="10.427344479072362"><ele>502.00000000000006</ele><time>2026-05-01T14:47:06.721Z</time></trkpt><trkpt lat="44.13982745408675" lon="10.427406743727733"><ele>502.0</ele><time>2026-05-01T14:47:07.721Z</time></trkpt><trkpt lat="44.13974678072715" lon="10.42744978450294"><ele>502.0</ele><time>2026-05-01T14:47:08.721Z</time></trkpt><trkpt lat="44.13964767546054" lon="10.427439178091985"><ele>502.0</ele><time>2026-05-01T14:47:10.721Z</time></trkpt><trkpt lat="44.13966009873831" lon="10.427281108201731"><ele>502.00000000000006</ele><time>2026-05-01T14:47:12.721Z</time></trkpt><trkpt lat="44.139719571890474" lon="10.427215150844201"><ele>502.00000000000006</ele><time>2026-05-01T14:47:13.721Z</time></trkpt><trkpt lat="44.13982210759061" lon="10.42721154877434"><ele>502.0</ele><time>2026-05-01T14:47:14.72Z</time></trkpt><trkpt lat="44.13992930926382" lon="10.427176486524147"><ele>502.0</ele><time>2026-05-01T14:47:15.721Z</time></trkpt><trkpt lat="44.140046829235985" lon="10.427133908948266"><ele>501.40000000000003</ele><time>2026-05-01T14:47:16.721Z</time></trkpt><trkpt lat="44.140150970500756" lon="10.427086041093153"><ele>500.80000000000007</ele><time>2026-05-01T14:47:17.72Z</time></trkpt><trkpt lat="44.14024602235001" lon="10.427034639602912"><ele>500.2</ele><time>2026-05-01T14:47:18.72Z</time></trkpt><trkpt lat="44.140326568499816" lon="10.42697097290459"><ele>499.6</ele><time>2026-05-01T14:47:19.72Z</time></trkpt><trkpt lat="44.14039418589692" lon="10.426922303479838"><ele>499.0</ele><time>2026-05-01T14:47:20.72Z</time></trkpt><trkpt lat="44.14043081931534" lon="10.426772088634703"><ele>499.0</ele><time>2026-05-01T14:47:22.721Z</time></trkpt><trkpt lat="44.140396534701466" lon="10.426672542687161"><ele>499.0</ele><time>2026-05-01T14:47:23.721Z</time></trkpt><trkpt lat="44.14029129494792" lon="10.426679588634046"><ele>499.0</ele><time>2026-05-01T14:47:24.72Z</time></trkpt><trkpt lat="44.14021423651835" lon="10.426690911143274"><ele>499.0</ele><time>2026-05-01T14:47:25.72Z</time></trkpt><trkpt lat="44.14011406875022" lon="10.426687018345943"><ele>499.0</ele><time>2026-05-01T14:47:26.72Z</time></trkpt><trkpt lat="44.14000509111755" lon="10.426662845355045"><ele>499.0</ele><time>2026-05-01T14:47:27.72Z</time></trkpt><trkpt lat="44.13988504473561" lon="10.426612277444631"><ele>499.0</ele><time>2026-05-01T14:47:28.72Z</time></trkpt><trkpt lat="44.1397743434585" lon="10.426572560775561"><ele>499.0</ele><time>2026-05-01T14:47:29.72Z</time></trkpt><trkpt lat="44.13966487619451" lon="10.426526960130051"><ele>499.0</ele><time>2026-05-01T14:47:30.72Z</time></trkpt><trkpt lat="44.1395723688121" lon="10.42645895175461"><ele>494.5</ele><time>2026-05-01T14:47:31.72Z</time></trkpt><trkpt lat="44.139480103863" lon="10.426366549160546"><ele>490.0</ele><time>2026-05-01T14:47:32.72Z</time></trkpt><trkpt lat="44.139380386633945" lon="10.426249912414418"><ele>485.5</ele><time>2026-05-01T14:47:33.72Z</time></trkpt><trkpt lat="44.13928304617848" lon="10.426147098577133"><ele>481.0</ele><time>2026-05-01T14:47:34.72Z</time></trkpt><trkpt lat="44.139196451929294" lon="10.426056735703247"><ele>480.4</ele><time>2026-05-01T14:47:35.72Z</time></trkpt><trkpt lat="44.13911063057163" lon="10.42594905738992"><ele>479.8</ele><time>2026-05-01T14:47:36.72Z</time></trkpt><trkpt lat="44.13904634168561" lon="10.425844406107915"><ele>479.19999999999993</ele><time>2026-05-01T14:47:37.72Z</time></trkpt><trkpt lat="44.13900247272611" lon="10.425749523211282"><ele>478.59999999999997</ele><time>2026-05-01T14:47:38.72Z</time></trkpt><trkpt lat="44.13896364959519" lon="10.425660527468702"><ele>478.0</ele><time>2026-05-01T14:47:39.72Z</time></trkpt><trkpt lat="44.13896502768124" lon="10.42553998516318"><ele>477.59999999999997</ele><time>2026-05-01T14:47:40.72Z</time></trkpt><trkpt lat="44.138993928349876" lon="10.425423311642517"><ele>477.19999999999993</ele><time>2026-05-01T14:47:41.72Z</time></trkpt><trkpt lat="44.13903990889646" lon="10.42531354992046"><ele>476.8</ele><time>2026-05-01T14:47:42.72Z</time></trkpt><trkpt lat="44.13907253319724" lon="10.425187691371699"><ele>476.4</ele><time>2026-05-01T14:47:43.72Z</time></trkpt><trkpt lat="44.139064982646154" lon="10.425042399176288"><ele>476.0</ele><time>2026-05-01T14:47:44.72Z</time></trkpt><trkpt lat="44.139019751222285" lon="10.424889131185454"><ele>472.8</ele><time>2026-05-01T14:47:45.72Z</time></trkpt><trkpt lat="44.13895755466686" lon="10.424754787045131"><ele>469.6</ele><time>2026-05-01T14:47:46.72Z</time></trkpt><trkpt lat="44.13891740925488" lon="10.424613798091531"><ele>466.4</ele><time>2026-05-01T14:47:47.72Z</time></trkpt><trkpt lat="44.13887797829748" lon="10.42446987162169"><ele>463.2</ele><time>2026-05-01T14:47:48.719Z</time></trkpt><trkpt lat="44.13887452687426" lon="10.424337250426728"><ele>460.0</ele><time>2026-05-01T14:47:49.719Z</time></trkpt><trkpt lat="44.13885906902263" lon="10.424217368219226"><ele>459.8</ele><time>2026-05-01T14:47:50.719Z</time></trkpt><trkpt lat="44.13886996909405" lon="10.424068945707118"><ele>459.6</ele><time>2026-05-01T14:47:51.719Z</time></trkpt><trkpt lat="44.1388872710962" lon="10.423920923530208"><ele>459.4</ele><time>2026-05-01T14:47:52.719Z</time></trkpt><trkpt lat="44.13890011176066" lon="10.423777807054995"><ele>459.2</ele><time>2026-05-01T14:47:53.719Z</time></trkpt><trkpt lat="44.138904984788596" lon="10.423628544059405"><ele>459.0</ele><time>2026-05-01T14:47:54.719Z</time></trkpt><trkpt lat="44.1389100814467" lon="10.423490027942433"><ele>457.2</ele><time>2026-05-01T14:47:55.719Z</time></trkpt><trkpt lat="44.13886760564549" lon="10.423344857473579"><ele>455.4</ele><time>2026-05-01T14:47:56.719Z</time></trkpt><trkpt lat="44.13881675916697" lon="10.423195548245157"><ele>453.6</ele><time>2026-05-01T14:47:57.719Z</time></trkpt><trkpt lat="44.13876633808482" lon="10.423050520954448"><ele>451.8</ele><time>2026-05-01T14:47:58.719Z</time></trkpt><trkpt lat="44.13873123977826" lon="10.422920658419208"><ele>450.0</ele><time>2026-05-01T14:47:59.719Z</time></trkpt><trkpt lat="44.13869989789705" lon="10.422781620403887"><ele>447.6666666666667</ele><time>2026-05-01T14:48:00.719Z</time></trkpt><trkpt lat="44.13867765737945" lon="10.422638387720736"><ele>445.33333333333337</ele><time>2026-05-01T14:48:01.719Z</time></trkpt><trkpt lat="44.13866701288897" lon="10.422515037918513"><ele>443.0</ele><time>2026-05-01T14:48:02.719Z</time></trkpt><trkpt lat="44.138662119191935" lon="10.422403152432693"><ele>440.6666666666667</ele><time>2026-05-01T14:48:03.719Z</time></trkpt><trkpt lat="44.138701291614915" lon="10.422329623586995"><ele>438.33333333333337</ele><time>2026-05-01T14:48:04.719Z</time></trkpt><trkpt lat="44.13877363567375" lon="10.42230061258081"><ele>436.0</ele><time>2026-05-01T14:48:05.719Z</time></trkpt><trkpt lat="44.138862849316894" lon="10.422318046531526"><ele>436.0</ele><time>2026-05-01T14:48:06.719Z</time></trkpt><trkpt lat="44.138938028588235" lon="10.422379573615089"><ele>436.0</ele><time>2026-05-01T14:48:07.719Z</time></trkpt><trkpt lat="44.139027235716306" lon="10.422449470651863"><ele>436.0</ele><time>2026-05-01T14:48:08.719Z</time></trkpt><trkpt lat="44.139098192343525" lon="10.422499303451927"><ele>436.0</ele><time>2026-05-01T14:48:09.719Z</time></trkpt><trkpt lat="44.13917009496225" lon="10.422527761323344"><ele>436.0</ele><time>2026-05-01T14:48:10.719Z</time></trkpt><trkpt lat="44.13927292579828" lon="10.422453623549398"><ele>435.6</ele><time>2026-05-01T14:48:12.719Z</time></trkpt><trkpt lat="44.13931566583507" lon="10.4223842789817"><ele>435.20000000000005</ele><time>2026-05-01T14:48:13.719Z</time></trkpt><trkpt lat="44.13932246458969" lon="10.422246755147711"><ele>434.79999999999995</ele><time>2026-05-01T14:48:14.719Z</time></trkpt><trkpt lat="44.13929808788718" lon="10.422100958269146"><ele>434.4</ele><time>2026-05-01T14:48:15.719Z</time></trkpt><trkpt lat="44.139285256835755" lon="10.421970510555127"><ele>434.0</ele><time>2026-05-01T14:48:16.719Z</time></trkpt><trkpt lat="44.13928001579306" lon="10.421846321482068"><ele>433.99999999999994</ele><time>2026-05-01T14:48:17.719Z</time></trkpt><trkpt lat="44.139291947274295" lon="10.421730788309894"><ele>434.0</ele><time>2026-05-01T14:48:18.719Z</time></trkpt><trkpt lat="44.13932666695387" lon="10.421616661344448"><ele>434.0</ele><time>2026-05-01T14:48:19.719Z</time></trkpt><trkpt lat="44.13937245490334" lon="10.421517285230234"><ele>434.0</ele><time>2026-05-01T14:48:20.719Z</time></trkpt><trkpt lat="44.13941186812458" lon="10.421404999591386"><ele>433.99999999999994</ele><time>2026-05-01T14:48:21.719Z</time></trkpt><trkpt lat="44.139449690703806" lon="10.421306689938326"><ele>434.0</ele><time>2026-05-01T14:48:22.719Z</time></trkpt><trkpt lat="44.13948930073884" lon="10.421212659599277"><ele>432.8333333333333</ele><time>2026-05-01T14:48:23.719Z</time></trkpt><trkpt lat="44.13951007490164" lon="10.421111891870815"><ele>431.66666666666663</ele><time>2026-05-01T14:48:24.719Z</time></trkpt><trkpt lat="44.139510148291954" lon="10.421010129216228"><ele>430.5</ele><time>2026-05-01T14:48:25.719Z</time></trkpt><trkpt lat="44.1394797185667" lon="10.420916592337983"><ele>429.33333333333337</ele><time>2026-05-01T14:48:26.719Z</time></trkpt><trkpt lat="44.13942070593347" lon="10.42083116296417"><ele>428.1666666666667</ele><time>2026-05-01T14:48:27.719Z</time></trkpt><trkpt lat="44.13933340628435" lon="10.420787012101744"><ele>427.0</ele><time>2026-05-01T14:48:28.718Z</time></trkpt><trkpt lat="44.139244569849104" lon="10.42078733459661"><ele>427.00000000000006</ele><time>2026-05-01T14:48:29.718Z</time></trkpt><trkpt lat="44.13915932850198" lon="10.42076676966533"><ele>427.0</ele><time>2026-05-01T14:48:30.718Z</time></trkpt><trkpt lat="44.139072886170865" lon="10.42074615068062"><ele>427.0</ele><time>2026-05-01T14:48:31.718Z</time></trkpt><trkpt lat="44.13899509032243" lon="10.420730223027142"><ele>427.0</ele><time>2026-05-01T14:48:32.718Z</time></trkpt><trkpt lat="44.1389278418932" lon="10.420714773438094"><ele>427.00000000000006</ele><time>2026-05-01T14:48:33.718Z</time></trkpt><trkpt lat="44.13882451890141" lon="10.42065667981042"><ele>427.0</ele><time>2026-05-01T14:48:35.718Z</time></trkpt><trkpt lat="44.138802265984516" lon="10.420512650721824"><ele>426.1666666666667</ele><time>2026-05-01T14:48:37.718Z</time></trkpt><trkpt lat="44.13884136768842" lon="10.420433157455225"><ele>425.33333333333337</ele><time>2026-05-01T14:48:38.718Z</time></trkpt><trkpt lat="44.13889568546969" lon="10.42037756095357"><ele>424.5</ele><time>2026-05-01T14:48:39.718Z</time></trkpt><trkpt lat="44.1389576135882" lon="10.420321551842013"><ele>423.66666666666663</ele><time>2026-05-01T14:48:40.718Z</time></trkpt><trkpt lat="44.13902537288157" lon="10.42026432411001"><ele>422.8333333333333</ele><time>2026-05-01T14:48:41.718Z</time></trkpt><trkpt lat="44.13908887345111" lon="10.420193367901907"><ele>422.0</ele><time>2026-05-01T14:48:42.718Z</time></trkpt><trkpt lat="44.13913901832529" lon="10.420098621196626"><ele>421.99999999999994</ele><time>2026-05-01T14:48:43.718Z</time></trkpt><trkpt lat="44.13919186681155" lon="10.419999736047822"><ele>422.0</ele><time>2026-05-01T14:48:44.718Z</time></trkpt><trkpt lat="44.13921206394612" lon="10.419876511957785"><ele>422.0</ele><time>2026-05-01T14:48:45.718Z</time></trkpt><trkpt lat="44.13920784831916" lon="10.419748688926571"><ele>422.0</ele><time>2026-05-01T14:48:46.718Z</time></trkpt><trkpt lat="44.13917808200181" lon="10.419637663111812"><ele>421.99999999999994</ele><time>2026-05-01T14:48:47.718Z</time></trkpt><trkpt lat="44.139145312399556" lon="10.419536825420696"><ele>422.0</ele><time>2026-05-01T14:48:48.718Z</time></trkpt><trkpt lat="44.139111775950305" lon="10.41943281890195"><ele>420.40000000000003</ele><time>2026-05-01T14:48:49.718Z</time></trkpt><trkpt lat="44.13907934590761" lon="10.419332243005416"><ele>418.8</ele><time>2026-05-01T14:48:50.718Z</time></trkpt><trkpt lat="44.13902015228782" lon="10.419238040360565"><ele>417.2</ele><time>2026-05-01T14:48:51.718Z</time></trkpt><trkpt lat="44.13893307462027" lon="10.419200183780099"><ele>415.6</ele><time>2026-05-01T14:48:52.718Z</time></trkpt><trkpt lat="44.13886338792706" lon="10.419110561288923"><ele>414.0</ele><time>2026-05-01T14:48:53.718Z</time></trkpt><trkpt lat="44.13877654966088" lon="10.419032703626184"><ele>413.4</ele><time>2026-05-01T14:48:54.718Z</time></trkpt><trkpt lat="44.13869034883919" lon="10.41896264224251"><ele>412.79999999999995</ele><time>2026-05-01T14:48:55.718Z</time></trkpt><trkpt lat="44.13861040116436" lon="10.418897956053847"><ele>412.20000000000005</ele><time>2026-05-01T14:48:56.718Z</time></trkpt><trkpt lat="44.138515712282306" lon="10.418858633821582"><ele>411.6</ele><time>2026-05-01T14:48:57.718Z</time></trkpt><trkpt lat="44.138428560475596" lon="10.418804017324863"><ele>411.0</ele><time>2026-05-01T14:48:58.718Z</time></trkpt><trkpt lat="44.138345613181784" lon="10.418724618627722"><ele>409.4</ele><time>2026-05-01T14:48:59.718Z</time></trkpt><trkpt lat="44.138266392213765" lon="10.41863157930361"><ele>407.8</ele><time>2026-05-01T14:49:00.718Z</time></trkpt><trkpt lat="44.138191061573025" lon="10.418536206470613"><ele>406.2</ele><time>2026-05-01T14:49:01.718Z</time></trkpt><trkpt lat="44.13812085948477" lon="10.41843530090711"><ele>404.59999999999997</ele><time>2026-05-01T14:49:02.718Z</time></trkpt><trkpt lat="44.138039721722855" lon="10.418333218666904"><ele>403.0</ele><time>2026-05-01T14:49:03.718Z</time></trkpt><trkpt lat="44.13800390412617" lon="10.418182409855964"><ele>403.0</ele><time>2026-05-01T14:49:04.718Z</time></trkpt><trkpt lat="44.13793517946196" lon="10.418057071057577"><ele>403.0</ele><time>2026-05-01T14:49:05.718Z</time></trkpt><trkpt lat="44.13784650718125" lon="10.417945526998405"><ele>403.0</ele><time>2026-05-01T14:49:06.718Z</time></trkpt><trkpt lat="44.137759336108694" lon="10.417838105445911"><ele>403.0</ele><time>2026-05-01T14:49:07.718Z</time></trkpt><trkpt lat="44.137674730461725" lon="10.417734566176048"><ele>402.4</ele><time>2026-05-01T14:49:08.717Z</time></trkpt><trkpt lat="44.1375930609475" lon="10.417634619817516"><ele>401.79999999999995</ele><time>2026-05-01T14:49:09.717Z</time></trkpt><trkpt lat="44.13752927018715" lon="10.417557378929745"><ele>401.2</ele><time>2026-05-01T14:49:10.717Z</time></trkpt><trkpt lat="44.13745249361527" lon="10.417463858363673"><ele>400.6</ele><time>2026-05-01T14:49:12.717Z</time></trkpt><trkpt lat="44.137402116914096" lon="10.417395506725306"><ele>400.0</ele><time>2026-05-01T14:49:17.717Z</time></trkpt><trkpt lat="44.13734473117379" lon="10.417291679583535"><ele>399.0</ele><time>2026-05-01T14:49:19.717Z</time></trkpt><trkpt lat="44.13727530613345" lon="10.4171774677678"><ele>398.0</ele><time>2026-05-01T14:49:20.717Z</time></trkpt><trkpt lat="44.137180489211985" lon="10.417084552158773"><ele>397.0</ele><time>2026-05-01T14:49:21.718Z</time></trkpt><trkpt lat="44.137066213063214" lon="10.41698023649303"><ele>396.0</ele><time>2026-05-01T14:49:22.718Z</time></trkpt><trkpt lat="44.136971302005236" lon="10.416833701120366"><ele>395.5</ele><time>2026-05-01T14:49:23.717Z</time></trkpt><trkpt lat="44.13687591879975" lon="10.416724704307153"><ele>395.0</ele><time>2026-05-01T14:49:24.717Z</time></trkpt><trkpt lat="44.13677190357796" lon="10.416640142021016"><ele>394.5</ele><time>2026-05-01T14:49:25.717Z</time></trkpt><trkpt lat="44.1366677018952" lon="10.41653536970236"><ele>394.0</ele><time>2026-05-01T14:49:26.717Z</time></trkpt><trkpt lat="44.13654988480045" lon="10.416424483359695"><ele>392.5</ele><time>2026-05-01T14:49:27.717Z</time></trkpt><trkpt lat="44.13643572992922" lon="10.41628718977703"><ele>391.0</ele><time>2026-05-01T14:49:28.717Z</time></trkpt><trkpt lat="44.136316768243304" lon="10.416184599541166"><ele>389.5</ele><time>2026-05-01T14:49:29.717Z</time></trkpt><trkpt lat="44.13619608353422" lon="10.416123794359258"><ele>388.0</ele><time>2026-05-01T14:49:30.717Z</time></trkpt><trkpt lat="44.13608779869173" lon="10.416042006094916"><ele>388.0</ele><time>2026-05-01T14:49:31.717Z</time></trkpt><trkpt lat="44.13597130646197" lon="10.416003259259458"><ele>388.0</ele><time>2026-05-01T14:49:32.717Z</time></trkpt><trkpt lat="44.13585080140515" lon="10.415944203089957"><ele>388.0</ele><time>2026-05-01T14:49:33.717Z</time></trkpt><trkpt lat="44.13574057941008" lon="10.415895502191521"><ele>388.0</ele><time>2026-05-01T14:49:34.717Z</time></trkpt><trkpt lat="44.13563032026313" lon="10.415846764810565"><ele>387.2</ele><time>2026-05-01T14:49:35.717Z</time></trkpt><trkpt lat="44.13552564519371" lon="10.415804094272614"><ele>386.4</ele><time>2026-05-01T14:49:36.717Z</time></trkpt><trkpt lat="44.13542333072196" lon="10.415756218362237"><ele>385.59999999999997</ele><time>2026-05-01T14:49:37.717Z</time></trkpt><trkpt lat="44.135317255317624" lon="10.415716005762798"><ele>384.79999999999995</ele><time>2026-05-01T14:49:38.717Z</time></trkpt><trkpt lat="44.13520808210077" lon="10.415665851145361"><ele>384.0</ele><time>2026-05-01T14:49:39.717Z</time></trkpt><trkpt lat="44.13511437781225" lon="10.415597746090322"><ele>384.0</ele><time>2026-05-01T14:49:40.717Z</time></trkpt><trkpt lat="44.13502072470895" lon="10.415549355242975"><ele>384.0</ele><time>2026-05-01T14:49:41.717Z</time></trkpt><trkpt lat="44.134927603225634" lon="10.415495761886646"><ele>384.0</ele><time>2026-05-01T14:49:42.717Z</time></trkpt><trkpt lat="44.13483735355336" lon="10.415427402068733"><ele>384.0</ele><time>2026-05-01T14:49:43.717Z</time></trkpt><trkpt lat="44.134732089863164" lon="10.415347571368441"><ele>384.0</ele><time>2026-05-01T14:49:44.717Z</time></trkpt><trkpt lat="44.13463000017963" lon="10.415239861519586"><ele>383.5</ele><time>2026-05-01T14:49:45.717Z</time></trkpt><trkpt lat="44.134540444318105" lon="10.415122919662396"><ele>383.0</ele><time>2026-05-01T14:49:46.717Z</time></trkpt><trkpt lat="44.13442824902944" lon="10.41500559514275"><ele>382.5</ele><time>2026-05-01T14:49:47.717Z</time></trkpt><trkpt lat="44.1343520677299" lon="10.414903261207662"><ele>382.0</ele><time>2026-05-01T14:49:48.717Z</time></trkpt><trkpt lat="44.134251736006156" lon="10.41479033006807"><ele>382.0</ele><time>2026-05-01T14:49:49.717Z</time></trkpt><trkpt lat="44.13415508899934" lon="10.41468092985923"><ele>382.0</ele><time>2026-05-01T14:49:50.717Z</time></trkpt><trkpt lat="44.134067586334915" lon="10.414579116159544"><ele>382.0</ele><time>2026-05-01T14:49:51.716Z</time></trkpt><trkpt lat="44.13398233763119" lon="10.414479925061409"><ele>382.0</ele><time>2026-05-01T14:49:52.716Z</time></trkpt><trkpt lat="44.13390205842021" lon="10.414386516192932"><ele>381.0</ele><time>2026-05-01T14:49:53.716Z</time></trkpt><trkpt lat="44.133821072928924" lon="10.41429716061949"><ele>380.0</ele><time>2026-05-01T14:49:54.716Z</time></trkpt><trkpt lat="44.133737627622544" lon="10.414207697469687"><ele>379.0</ele><time>2026-05-01T14:49:55.716Z</time></trkpt><trkpt lat="44.13363565633046" lon="10.414102294643378"><ele>378.0</ele><time>2026-05-01T14:49:56.716Z</time></trkpt><trkpt lat="44.133528366748465" lon="10.413997694961163"><ele>378.0</ele><time>2026-05-01T14:49:57.716Z</time></trkpt><trkpt lat="44.133418634767445" lon="10.413898206609133"><ele>378.0</ele><time>2026-05-01T14:49:58.716Z</time></trkpt><trkpt lat="44.1332903598034" lon="10.413816502357278"><ele>378.0</ele><time>2026-05-01T14:49:59.716Z</time></trkpt><trkpt lat="44.13313715990682" lon="10.413758101909066"><ele>378.0</ele><time>2026-05-01T14:50:00.716Z</time></trkpt><trkpt lat="44.13298419154936" lon="10.413695987948328"><ele>376.75</ele><time>2026-05-01T14:50:01.716Z</time></trkpt><trkpt lat="44.132837870662215" lon="10.413635533250245"><ele>375.5</ele><time>2026-05-01T14:50:02.716Z</time></trkpt><trkpt lat="44.13269998844111" lon="10.413578565086231"><ele>374.25</ele><time>2026-05-01T14:50:03.716Z</time></trkpt><trkpt lat="44.13255980951015" lon="10.413520940868796"><ele>373.0</ele><time>2026-05-01T14:50:04.716Z</time></trkpt><trkpt lat="44.132416218625515" lon="10.413461322516063"><ele>371.3333333333333</ele><time>2026-05-01T14:50:05.716Z</time></trkpt><trkpt lat="44.13226932031905" lon="10.413400287288233"><ele>369.6666666666667</ele><time>2026-05-01T14:50:06.716Z</time></trkpt><trkpt lat="44.13212197072857" lon="10.413339064572781"><ele>368.0</ele><time>2026-05-01T14:50:07.716Z</time></trkpt><trkpt lat="44.13197693827895" lon="10.413278804544374"><ele>368.0</ele><time>2026-05-01T14:50:08.716Z</time></trkpt><trkpt lat="44.131835510000045" lon="10.413218346445214"><ele>368.0</ele><time>2026-05-01T14:50:09.716Z</time></trkpt><trkpt lat="44.13170173783205" lon="10.413159272201566"><ele>368.0</ele><time>2026-05-01T14:50:10.716Z</time></trkpt><trkpt lat="44.131573052144645" lon="10.413091041472002"><ele>368.0</ele><time>2026-05-01T14:50:11.716Z</time></trkpt><trkpt lat="44.131447875930064" lon="10.41300698731098"><ele>366.6666666666667</ele><time>2026-05-01T14:50:12.716Z</time></trkpt><trkpt lat="44.131313601092614" lon="10.412915985150102"><ele>365.3333333333333</ele><time>2026-05-01T14:50:13.716Z</time></trkpt><trkpt lat="44.131178327279486" lon="10.41282259655746"><ele>364.0</ele><time>2026-05-01T14:50:14.716Z</time></trkpt><trkpt lat="44.13104342227291" lon="10.412729608288483"><ele>364.0</ele><time>2026-05-01T14:50:15.716Z</time></trkpt><trkpt lat="44.130913058748455" lon="10.412639750408296"><ele>364.0</ele><time>2026-05-01T14:50:16.716Z</time></trkpt><trkpt lat="44.13077063403507" lon="10.412541580732634"><ele>364.0</ele><time>2026-05-01T14:50:17.716Z</time></trkpt><trkpt lat="44.13063604341085" lon="10.412447747762169"><ele>363.75</ele><time>2026-05-01T14:50:18.716Z</time></trkpt><trkpt lat="44.13051561283612" lon="10.412364715944591"><ele>363.5</ele><time>2026-05-01T14:50:19.716Z</time></trkpt><trkpt lat="44.13039031117391" lon="10.412278325683417"><ele>363.25</ele><time>2026-05-01T14:50:20.716Z</time></trkpt><trkpt lat="44.13027354671536" lon="10.412197821464737"><ele>363.0</ele><time>2026-05-01T14:50:21.716Z</time></trkpt><trkpt lat="44.13016166453347" lon="10.412120683269027"><ele>362.5</ele><time>2026-05-01T14:50:22.716Z</time></trkpt><trkpt lat="44.13005225399088" lon="10.412046664047596"><ele>362.0</ele><time>2026-05-01T14:50:23.716Z</time></trkpt><trkpt lat="44.129949798308424" lon="10.4119775886737"><ele>361.5</ele><time>2026-05-01T14:50:24.716Z</time></trkpt><trkpt lat="44.129837668816805" lon="10.411906187318046"><ele>361.0</ele><time>2026-05-01T14:50:25.716Z</time></trkpt><trkpt lat="44.129734194189524" lon="10.411850687392413"><ele>359.8</ele><time>2026-05-01T14:50:26.716Z</time></trkpt><trkpt lat="44.12963652543992" lon="10.411805834152894"><ele>358.6</ele><time>2026-05-01T14:50:27.716Z</time></trkpt><trkpt lat="44.12953364100828" lon="10.411765976179812"><ele>357.4</ele><time>2026-05-01T14:50:28.716Z</time></trkpt><trkpt lat="44.129437952069026" lon="10.411730927990602"><ele>356.2</ele><time>2026-05-01T14:50:29.716Z</time></trkpt><trkpt lat="44.129331055334845" lon="10.41175635050624"><ele>355.0</ele><time>2026-05-01T14:50:30.716Z</time></trkpt><trkpt lat="44.12924349535418" lon="10.411717566713696"><ele>355.0</ele><time>2026-05-01T14:50:31.715Z</time></trkpt><trkpt lat="44.1291707489397" lon="10.411688921797525"><ele>355.0</ele><time>2026-05-01T14:50:32.715Z</time></trkpt><trkpt lat="44.12906868120222" lon="10.411646200717838"><ele>355.0</ele><time>2026-05-01T14:50:34.715Z</time></trkpt><trkpt lat="44.12898204958592" lon="10.41154505733037"><ele>355.0</ele><time>2026-05-01T14:50:36.715Z</time></trkpt><trkpt lat="44.128961728610335" lon="10.411460238612673"><ele>355.0</ele><time>2026-05-01T14:50:37.715Z</time></trkpt><trkpt lat="44.128959626776606" lon="10.411371031143489"><ele>355.0</ele><time>2026-05-01T14:50:38.715Z</time></trkpt><trkpt lat="44.128899777526165" lon="10.411332390935524"><ele>354.6</ele><time>2026-05-01T14:50:39.715Z</time></trkpt><trkpt lat="44.128773532224" lon="10.411414839071922"><ele>354.2</ele><time>2026-05-01T14:50:41.715Z</time></trkpt><trkpt lat="44.12870513786419" lon="10.411377706717163"><ele>353.79999999999995</ele><time>2026-05-01T14:50:42.715Z</time></trkpt><trkpt lat="44.12861386133458" lon="10.411362132821836"><ele>353.4</ele><time>2026-05-01T14:50:43.715Z</time></trkpt><trkpt lat="44.12850964055312" lon="10.41136157789095"><ele>353.0</ele><time>2026-05-01T14:50:44.715Z</time></trkpt><trkpt lat="44.12842389983971" lon="10.411365775649692"><ele>353.0</ele><time>2026-05-01T14:50:45.715Z</time></trkpt><trkpt lat="44.128344684959025" lon="10.411362712817798"><ele>353.0</ele><time>2026-05-01T14:50:47.715Z</time></trkpt><trkpt lat="44.128268801294574" lon="10.411322875956646"><ele>353.0</ele><time>2026-05-01T14:52:12.712Z</time></trkpt><trkpt lat="44.12812923595806" lon="10.411290376497188"><ele>353.0</ele><time>2026-05-01T14:52:14.712Z</time></trkpt><trkpt lat="44.128018981083734" lon="10.411255650968085"><ele>353.0</ele><time>2026-05-01T14:52:15.712Z</time></trkpt><trkpt lat="44.12792681582631" lon="10.411225390806536"><ele>352.25</ele><time>2026-05-01T14:52:16.712Z</time></trkpt><trkpt lat="44.127816218675925" lon="10.411186351340543"><ele>351.5</ele><time>2026-05-01T14:52:17.712Z</time></trkpt><trkpt lat="44.127694933293846" lon="10.411143640766708"><ele>350.75</ele><time>2026-05-01T14:52:18.712Z</time></trkpt><trkpt lat="44.12757304862462" lon="10.411103207411085"><ele>350.0</ele><time>2026-05-01T14:52:19.712Z</time></trkpt><trkpt lat="44.12743811862408" lon="10.411056054918742"><ele>349.6666666666667</ele><time>2026-05-01T14:52:20.712Z</time></trkpt><trkpt lat="44.12728365950407" lon="10.411009041748136"><ele>349.3333333333333</ele><time>2026-05-01T14:52:21.712Z</time></trkpt><trkpt lat="44.12713110186973" lon="10.410970993169851"><ele>349.0</ele><time>2026-05-01T14:52:22.712Z</time></trkpt><trkpt lat="44.12698838849706" lon="10.410938098214492"><ele>349.0</ele><time>2026-05-01T14:52:23.712Z</time></trkpt><trkpt lat="44.126850105951114" lon="10.410900039655553"><ele>349.0</ele><time>2026-05-01T14:52:24.712Z</time></trkpt><trkpt lat="44.126723775183706" lon="10.410854771965361"><ele>349.0</ele><time>2026-05-01T14:52:25.712Z</time></trkpt><trkpt lat="44.126592161197465" lon="10.410791553364234"><ele>349.0</ele><time>2026-05-01T14:52:26.712Z</time></trkpt><trkpt lat="44.126442129211874" lon="10.410751030970932"><ele>348.75</ele><time>2026-05-01T14:52:27.712Z</time></trkpt><trkpt lat="44.12630115854223" lon="10.410712955929387"><ele>348.5</ele><time>2026-05-01T14:52:28.712Z</time></trkpt><trkpt lat="44.126168745877635" lon="10.410677038100173"><ele>348.25</ele><time>2026-05-01T14:52:29.712Z</time></trkpt><trkpt lat="44.126043843862725" lon="10.41064147276538"><ele>348.0</ele><time>2026-05-01T14:52:30.712Z</time></trkpt><trkpt lat="44.12592326962883" lon="10.410605268480868"><ele>348.0</ele><time>2026-05-01T14:52:31.712Z</time></trkpt><trkpt lat="44.12580686424548" lon="10.410563717290183"><ele>348.0</ele><time>2026-05-01T14:52:32.712Z</time></trkpt><trkpt lat="44.125696464923216" lon="10.41051730467037"><ele>348.0</ele><time>2026-05-01T14:52:33.712Z</time></trkpt><trkpt lat="44.12559332720569" lon="10.410470657304703"><ele>348.0</ele><time>2026-05-01T14:52:34.712Z</time></trkpt><trkpt lat="44.125506341243" lon="10.410430529907593"><ele>348.0</ele><time>2026-05-01T14:52:35.712Z</time></trkpt><trkpt lat="44.12540710443377" lon="10.41038658894147"><ele>347.2</ele><time>2026-05-01T14:52:36.712Z</time></trkpt><trkpt lat="44.12532668464131" lon="10.410350680970241"><ele>346.4</ele><time>2026-05-01T14:52:37.712Z</time></trkpt><trkpt lat="44.12526032391587" lon="10.410321050416933"><ele>345.59999999999997</ele><time>2026-05-01T14:52:38.712Z</time></trkpt><trkpt lat="44.1251655859635" lon="10.410278749722888"><ele>344.79999999999995</ele><time>2026-05-01T14:52:40.712Z</time></trkpt><trkpt lat="44.125094118820755" lon="10.41009884064234"><ele>344.0</ele><time>2026-05-01T14:52:42.712Z</time></trkpt><trkpt lat="44.12501615620218" lon="10.409984664317761"><ele>344.0</ele><time>2026-05-01T14:52:43.712Z</time></trkpt><trkpt lat="44.124933727361395" lon="10.409898477266744"><ele>344.0</ele><time>2026-05-01T14:52:44.711Z</time></trkpt><trkpt lat="44.12482118430412" lon="10.409904068425414"><ele>344.0</ele><time>2026-05-01T14:52:45.711Z</time></trkpt><trkpt lat="44.124714165781135" lon="10.409952525659584"><ele>344.0</ele><time>2026-05-01T14:52:46.711Z</time></trkpt><trkpt lat="44.12457840520421" lon="10.409973621539814"><ele>343.0</ele><time>2026-05-01T14:52:47.711Z</time></trkpt><trkpt lat="44.124452907117075" lon="10.409917152656277"><ele>342.0</ele><time>2026-05-01T14:52:48.711Z</time></trkpt><trkpt lat="44.124322443158846" lon="10.409848402746999"><ele>341.0</ele><time>2026-05-01T14:52:49.711Z</time></trkpt><trkpt lat="44.12418183423134" lon="10.409774306736898"><ele>340.0</ele><time>2026-05-01T14:52:50.711Z</time></trkpt><trkpt lat="44.12402439675551" lon="10.409716406250974"><ele>338.3333333333333</ele><time>2026-05-01T14:52:51.711Z</time></trkpt><trkpt lat="44.123813578811934" lon="10.409637140883527"><ele>336.6666666666667</ele><time>2026-05-01T14:52:52.711Z</time></trkpt><trkpt lat="44.12360253263649" lon="10.409564472629494"><ele>335.0</ele><time>2026-05-01T14:52:53.711Z</time></trkpt><trkpt lat="44.12339429808904" lon="10.409481901643133"><ele>334.33333333333337</ele><time>2026-05-01T14:52:54.711Z</time></trkpt><trkpt lat="44.12321168683766" lon="10.409411470988179"><ele>333.6666666666667</ele><time>2026-05-01T14:52:55.711Z</time></trkpt><trkpt lat="44.12305541730817" lon="10.409354368749186"><ele>333.0</ele><time>2026-05-01T14:52:56.711Z</time></trkpt><trkpt lat="44.12290462755545" lon="10.40930137401844"><ele>333.0</ele><time>2026-05-01T14:52:57.711Z</time></trkpt><trkpt lat="44.122761697301364" lon="10.409255573355399"><ele>333.0</ele><time>2026-05-01T14:52:58.711Z</time></trkpt><trkpt lat="44.122589985239586" lon="10.409240390814412"><ele>333.0</ele><time>2026-05-01T14:52:59.711Z</time></trkpt><trkpt lat="44.12241797984943" lon="10.409224925402892"><ele>332.0</ele><time>2026-05-01T14:53:00.711Z</time></trkpt><trkpt lat="44.12224604836741" lon="10.409199741980663"><ele>331.0</ele><time>2026-05-01T14:53:01.711Z</time></trkpt><trkpt lat="44.12206869770696" lon="10.409171685933602"><ele>330.0</ele><time>2026-05-01T14:53:02.711Z</time></trkpt><trkpt lat="44.12188794903186" lon="10.409141092621503"><ele>330.0</ele><time>2026-05-01T14:53:03.711Z</time></trkpt><trkpt lat="44.12170050406377" lon="10.40910825079187"><ele>330.0</ele><time>2026-05-01T14:53:04.711Z</time></trkpt><trkpt lat="44.121523817344205" lon="10.409080024251125"><ele>330.0</ele><time>2026-05-01T14:53:05.711Z</time></trkpt><trkpt lat="44.121360037415386" lon="10.409061564697312"><ele>329.0</ele><time>2026-05-01T14:53:06.711Z</time></trkpt><trkpt lat="44.12119954145176" lon="10.409046524183475"><ele>328.0</ele><time>2026-05-01T14:53:07.711Z</time></trkpt><trkpt lat="44.12104120250213" lon="10.409032416551225"><ele>327.0</ele><time>2026-05-01T14:53:08.711Z</time></trkpt><trkpt lat="44.12089326711117" lon="10.409022729708274"><ele>327.0</ele><time>2026-05-01T14:53:09.711Z</time></trkpt><trkpt lat="44.120758229664254" lon="10.408990669482083"><ele>327.0</ele><time>2026-05-01T14:53:10.711Z</time></trkpt><trkpt lat="44.12061920407311" lon="10.408987921777415"><ele>327.0</ele><time>2026-05-01T14:53:11.711Z</time></trkpt><trkpt lat="44.120491148893464" lon="10.40901778244675"><ele>327.0</ele><time>2026-05-01T14:53:12.711Z</time></trkpt><trkpt lat="44.120338889007556" lon="10.40907475781383"><ele>324.0</ele><time>2026-05-01T14:53:13.711Z</time></trkpt><trkpt lat="44.12019337770017" lon="10.409181891086575"><ele>321.0</ele><time>2026-05-01T14:53:14.711Z</time></trkpt><trkpt lat="44.120060359935906" lon="10.409307179818658"><ele>318.0</ele><time>2026-05-01T14:53:15.711Z</time></trkpt><trkpt lat="44.119924033796785" lon="10.409428400511436"><ele>317.0</ele><time>2026-05-01T14:53:16.711Z</time></trkpt><trkpt lat="44.11978044870615" lon="10.409552256207565"><ele>316.0</ele><time>2026-05-01T14:53:17.711Z</time></trkpt><trkpt lat="44.11962158120884" lon="10.409634057372575"><ele>315.0</ele><time>2026-05-01T14:53:18.711Z</time></trkpt><trkpt lat="44.11948426996387" lon="10.409745579034437"><ele>315.0</ele><time>2026-05-01T14:53:19.711Z</time></trkpt><trkpt lat="44.11936372306784" lon="10.409843260115323"><ele>315.0</ele><time>2026-05-01T14:53:20.711Z</time></trkpt><trkpt lat="44.119256058237184" lon="10.409933046536693"><ele>315.0</ele><time>2026-05-01T14:53:21.711Z</time></trkpt><trkpt lat="44.119160444335975" lon="10.410023234369506"><ele>315.0</ele><time>2026-05-01T14:53:22.711Z</time></trkpt><trkpt lat="44.1190783782053" lon="10.4101482632845"><ele>314.0</ele><time>2026-05-01T14:53:23.711Z</time></trkpt><trkpt lat="44.11903176701743" lon="10.410300061407504"><ele>313.0</ele><time>2026-05-01T14:53:24.71Z</time></trkpt><trkpt lat="44.11904413277851" lon="10.410451000372236"><ele>312.0</ele><time>2026-05-01T14:53:25.71Z</time></trkpt><trkpt lat="44.11906853311557" lon="10.410584619278719"><ele>311.0</ele><time>2026-05-01T14:53:26.71Z</time></trkpt><trkpt lat="44.11912850849934" lon="10.41070303580437"><ele>310.0</ele><time>2026-05-01T14:53:27.71Z</time></trkpt><trkpt lat="44.119227210938746" lon="10.410798343374564"><ele>310.0</ele><time>2026-05-01T14:53:28.71Z</time></trkpt><trkpt lat="44.11933772119507" lon="10.410844842179621"><ele>310.0</ele><time>2026-05-01T14:53:29.711Z</time></trkpt><trkpt lat="44.11947249886515" lon="10.410852683498456"><ele>310.0</ele><time>2026-05-01T14:53:30.71Z</time></trkpt><trkpt lat="44.11960794313381" lon="10.410854351737513"><ele>310.0</ele><time>2026-05-01T14:53:31.71Z</time></trkpt><trkpt lat="44.11973769483895" lon="10.410869772460435"><ele>310.0</ele><time>2026-05-01T14:53:32.71Z</time></trkpt><trkpt lat="44.11984243423598" lon="10.410937993238337"><ele>310.0</ele><time>2026-05-01T14:53:33.71Z</time></trkpt><trkpt lat="44.11990378621657" lon="10.41107589349108"><ele>310.0</ele><time>2026-05-01T14:53:34.71Z</time></trkpt><trkpt lat="44.11994474168458" lon="10.411202849127642"><ele>310.0</ele><time>2026-05-01T14:53:35.71Z</time></trkpt><trkpt lat="44.119964900851514" lon="10.411311369378785"><ele>310.0</ele><time>2026-05-01T14:53:36.711Z</time></trkpt><trkpt lat="44.119970970112476" lon="10.411423169795272"><ele>310.0</ele><time>2026-05-01T14:53:37.711Z</time></trkpt><trkpt lat="44.11996909353132" lon="10.411516197606966"><ele>310.0</ele><time>2026-05-01T14:53:38.71Z</time></trkpt><trkpt lat="44.11988614269099" lon="10.411566469007942"><ele>310.0</ele><time>2026-05-01T14:53:41.71Z</time></trkpt><trkpt lat="44.11984957933404" lon="10.411480728301276"><ele>310.0</ele><time>2026-05-01T14:53:42.71Z</time></trkpt><trkpt lat="44.11984657447469" lon="10.411356989673083"><ele>310.0</ele><time>2026-05-01T14:53:43.71Z</time></trkpt><trkpt lat="44.11982857136067" lon="10.411240863824148"><ele>310.0</ele><time>2026-05-01T14:53:44.71Z</time></trkpt><trkpt lat="44.119769724328194" lon="10.411138741078224"><ele>310.0</ele><time>2026-05-01T14:53:45.71Z</time></trkpt><trkpt lat="44.11968697121004" lon="10.411062458258884"><ele>310.0</ele><time>2026-05-01T14:53:46.71Z</time></trkpt><trkpt lat="44.11959637690947" lon="10.411027387461472"><ele>310.0</ele><time>2026-05-01T14:53:47.71Z</time></trkpt><trkpt lat="44.11948020755293" lon="10.411026175542712"><ele>310.0</ele><time>2026-05-01T14:53:48.71Z</time></trkpt><trkpt lat="44.119372166159096" lon="10.411055450535276"><ele>310.0</ele><time>2026-05-01T14:53:49.71Z</time></trkpt><trkpt lat="44.11924407059793" lon="10.411046808803231"><ele>310.0</ele><time>2026-05-01T14:53:50.71Z</time></trkpt><trkpt lat="44.119110105561234" lon="10.411054146385553"><ele>310.0</ele><time>2026-05-01T14:53:51.71Z</time></trkpt><trkpt lat="44.11897937955099" lon="10.411063793208454"><ele>310.0</ele><time>2026-05-01T14:53:52.71Z</time></trkpt><trkpt lat="44.1188711208411" lon="10.411086919601015"><ele>310.0</ele><time>2026-05-01T14:53:53.71Z</time></trkpt><trkpt lat="44.118786527219" lon="10.411072257687701"><ele>309.0</ele><time>2026-05-01T14:53:54.71Z</time></trkpt><trkpt lat="44.118708919080525" lon="10.411020285131464"><ele>308.0</ele><time>2026-05-01T14:53:55.71Z</time></trkpt><trkpt lat="44.11862877107254" lon="10.410925230572223"><ele>307.0</ele><time>2026-05-01T14:53:56.71Z</time></trkpt><trkpt lat="44.118536264903874" lon="10.410804893533255"><ele>306.0</ele><time>2026-05-01T14:53:57.71Z</time></trkpt><trkpt lat="44.118452833750204" lon="10.410698966770141"><ele>305.0</ele><time>2026-05-01T14:53:58.71Z</time></trkpt><trkpt lat="44.118418447744176" lon="10.410556442165946"><ele>302.75</ele><time>2026-05-01T14:53:59.71Z</time></trkpt><trkpt lat="44.118377254681164" lon="10.410396878482144"><ele>300.5</ele><time>2026-05-01T14:54:00.71Z</time></trkpt><trkpt lat="44.11835438202454" lon="10.410240490634779"><ele>298.25</ele><time>2026-05-01T14:54:01.71Z</time></trkpt><trkpt lat="44.11833560312389" lon="10.410081631891034"><ele>296.0</ele><time>2026-05-01T14:54:02.71Z</time></trkpt><trkpt lat="44.11828977613663" lon="10.40995895199852"><ele>294.0</ele><time>2026-05-01T14:54:03.71Z</time></trkpt><trkpt lat="44.11819623571559" lon="10.409850777278733"><ele>292.0</ele><time>2026-05-01T14:54:04.71Z</time></trkpt><trkpt lat="44.11809099112438" lon="10.40975218094362"><ele>290.0</ele><time>2026-05-01T14:54:05.71Z</time></trkpt><trkpt lat="44.11798726501021" lon="10.409676191214057"><ele>288.0</ele><time>2026-05-01T14:54:06.71Z</time></trkpt><trkpt lat="44.11788601226014" lon="10.409613699678738"><ele>288.6</ele><time>2026-05-01T14:54:07.71Z</time></trkpt><trkpt lat="44.11777975550037" lon="10.409573519241802"><ele>289.20000000000005</ele><time>2026-05-01T14:54:08.71Z</time></trkpt><trkpt lat="44.11766455597794" lon="10.409602951574046"><ele>289.8</ele><time>2026-05-01T14:54:09.71Z</time></trkpt><trkpt lat="44.117558738872454" lon="10.409630994780175"><ele>290.40000000000003</ele><time>2026-05-01T14:54:10.71Z</time></trkpt><trkpt lat="44.11746461545549" lon="10.409658184670084"><ele>291.0</ele><time>2026-05-01T14:54:11.71Z</time></trkpt><trkpt lat="44.117345764420214" lon="10.409694435399368"><ele>291.0</ele><time>2026-05-01T14:54:12.71Z</time></trkpt><trkpt lat="44.11723769089472" lon="10.409727718548234"><ele>291.0</ele><time>2026-05-01T14:54:13.71Z</time></trkpt><trkpt lat="44.11714434763883" lon="10.409756465270155"><ele>291.0</ele><time>2026-05-01T14:54:14.709Z</time></trkpt><trkpt lat="44.11704766449638" lon="10.409784406793738"><ele>291.0</ele><time>2026-05-01T14:54:15.709Z</time></trkpt><trkpt lat="44.11694576574656" lon="10.409812675421492"><ele>291.0</ele><time>2026-05-01T14:54:16.709Z</time></trkpt><trkpt lat="44.116853186884576" lon="10.409837770977612"><ele>291.0</ele><time>2026-05-01T14:54:17.709Z</time></trkpt><trkpt lat="44.11677340087034" lon="10.409861559452168"><ele>291.0</ele><time>2026-05-01T14:54:18.709Z</time></trkpt><trkpt lat="44.11666968092812" lon="10.409904987396082"><ele>291.0</ele><time>2026-05-01T14:54:20.709Z</time></trkpt><trkpt lat="44.11660949555716" lon="10.409873536455866"><ele>291.0</ele><time>2026-05-01T14:54:21.709Z</time></trkpt><trkpt lat="44.116509017049374" lon="10.409855286630034"><ele>291.0</ele><time>2026-05-01T14:54:23.709Z</time></trkpt><trkpt lat="44.116473893801455" lon="10.409981848312075"><ele>291.0</ele><time>2026-05-01T14:54:25.709Z</time></trkpt><trkpt lat="44.11655028914359" lon="10.409857703321473"><ele>291.0</ele><time>2026-05-01T14:54:28.709Z</time></trkpt><trkpt lat="44.11660819706628" lon="10.409789817351575"><ele>291.0</ele><time>2026-05-01T14:54:30.709Z</time></trkpt><trkpt lat="44.11666902650437" lon="10.409758280698158"><ele>291.0</ele><time>2026-05-01T14:54:31.709Z</time></trkpt><trkpt lat="44.11674575741207" lon="10.409782524229895"><ele>291.0</ele><time>2026-05-01T14:54:32.709Z</time></trkpt><trkpt lat="44.116874136406345" lon="10.409772249458893"><ele>291.0</ele><time>2026-05-01T14:54:34.709Z</time></trkpt><trkpt lat="44.11695050948827" lon="10.409765688582603"><ele>291.0</ele><time>2026-05-01T14:54:35.709Z</time></trkpt><trkpt lat="44.11702168708136" lon="10.409746007556883"><ele>291.0</ele><time>2026-05-01T14:54:36.709Z</time></trkpt><trkpt lat="44.11709937563201" lon="10.409731972527837"><ele>291.0</ele><time>2026-05-01T14:54:37.709Z</time></trkpt><trkpt lat="44.11718711852483" lon="10.409694212726528"><ele>291.0</ele><time>2026-05-01T14:54:39.709Z</time></trkpt><trkpt lat="44.118922027040455" lon="10.407870511505351"><ele>288.5</ele><time>2026-05-01T14:55:40.707Z</time></trkpt><trkpt lat="44.11889151983256" lon="10.407980311520076"><ele>286.0</ele><time>2026-05-01T14:55:53.706Z</time></trkpt><trkpt lat="44.118876096637216" lon="10.408074579823873"><ele>283.5</ele><time>2026-05-01T14:55:54.706Z</time></trkpt><trkpt lat="44.11884988362867" lon="10.408196835589377"><ele>281.0</ele><time>2026-05-01T14:55:55.706Z</time></trkpt><trkpt lat="44.118806526117005" lon="10.40830855473495"><ele>278.5</ele><time>2026-05-01T14:55:56.706Z</time></trkpt><trkpt lat="44.118767600020036" lon="10.408439808251886"><ele>276.0</ele><time>2026-05-01T14:55:57.706Z</time></trkpt><trkpt lat="44.118704616344196" lon="10.408565740778519"><ele>276.0</ele><time>2026-05-01T14:55:58.706Z</time></trkpt><trkpt lat="44.118628685944046" lon="10.408681799406072"><ele>276.0</ele><time>2026-05-01T14:55:59.706Z</time></trkpt><trkpt lat="44.118541601135995" lon="10.408818561155122"><ele>276.0</ele><time>2026-05-01T14:56:00.706Z</time></trkpt><trkpt lat="44.11844949029715" lon="10.40896321656305"><ele>276.0</ele><time>2026-05-01T14:56:01.706Z</time></trkpt><trkpt lat="44.11836429941109" lon="10.409084856133907"><ele>276.6</ele><time>2026-05-01T14:56:02.706Z</time></trkpt><trkpt lat="44.118281939998894" lon="10.409187677597332"><ele>277.20000000000005</ele><time>2026-05-01T14:56:03.706Z</time></trkpt><trkpt lat="44.11819568526135" lon="10.409265463918095"><ele>277.79999999999995</ele><time>2026-05-01T14:56:04.706Z</time></trkpt><trkpt lat="44.11809968195081" lon="10.409305563275423"><ele>278.4</ele><time>2026-05-01T14:56:05.706Z</time></trkpt><trkpt lat="44.118007860068104" lon="10.409306292536305"><ele>279.0</ele><time>2026-05-01T14:56:06.706Z</time></trkpt><trkpt lat="44.11792347416767" lon="10.40924448954757"><ele>279.0</ele><time>2026-05-01T14:56:07.706Z</time></trkpt><trkpt lat="44.11780219157848" lon="10.409222156630216"><ele>279.0</ele><time>2026-05-01T14:56:08.706Z</time></trkpt><trkpt lat="44.11768099716185" lon="10.40925445451902"><ele>279.0</ele><time>2026-05-01T14:56:09.706Z</time></trkpt><trkpt lat="44.11756976456031" lon="10.409354123461123"><ele>279.0</ele><time>2026-05-01T14:56:10.706Z</time></trkpt><trkpt lat="44.117461371045074" lon="10.409464663873491"><ele>278.6666666666667</ele><time>2026-05-01T14:56:11.706Z</time></trkpt><trkpt lat="44.11731442389924" lon="10.409568646639576"><ele>278.33333333333337</ele><time>2026-05-01T14:56:12.706Z</time></trkpt><trkpt lat="44.11710995170464" lon="10.409659429073093"><ele>278.0</ele><time>2026-05-01T14:56:13.706Z</time></trkpt><trkpt lat="44.1169480610656" lon="10.409693216765083"><ele>279.8</ele><time>2026-05-01T14:56:14.706Z</time></trkpt><trkpt lat="44.11681643681069" lon="10.40970613410151"><ele>281.6</ele><time>2026-05-01T14:56:15.706Z</time></trkpt><trkpt lat="44.11671469838052" lon="10.409714300745655"><ele>283.4</ele><time>2026-05-01T14:56:16.706Z</time></trkpt><trkpt lat="44.11665008607485" lon="10.40972605532654"><ele>285.2</ele><time>2026-05-01T14:56:17.706Z</time></trkpt><trkpt lat="44.11654024282871" lon="10.409812119110397"><ele>287.0</ele><time>2026-05-01T14:56:19.706Z</time></trkpt><trkpt lat="44.116482022638685" lon="10.409860796816124"><ele>287.0</ele><time>2026-05-01T14:56:20.706Z</time></trkpt><trkpt lat="44.116419600157904" lon="10.40995323867326"><ele>287.0</ele><time>2026-05-01T14:56:21.706Z</time></trkpt><trkpt lat="44.11632565446898" lon="10.410085035072491"><ele>287.0</ele><time>2026-05-01T14:56:22.706Z</time></trkpt><trkpt lat="44.116170805549565" lon="10.410131620956275"><ele>287.0</ele><time>2026-05-01T14:56:23.706Z</time></trkpt><trkpt lat="44.11602827977398" lon="10.41021393027207"><ele>287.0</ele><time>2026-05-01T14:56:24.706Z</time></trkpt><trkpt lat="44.11589791620312" lon="10.410289215965697"><ele>287.0</ele><time>2026-05-01T14:56:25.706Z</time></trkpt><trkpt lat="44.115764628198455" lon="10.410365465098709"><ele>287.0</ele><time>2026-05-01T14:56:26.706Z</time></trkpt><trkpt lat="44.115642545386756" lon="10.410433044878463"><ele>287.0</ele><time>2026-05-01T14:56:27.705Z</time></trkpt><trkpt lat="44.11553165697986" lon="10.410481285031079"><ele>288.25</ele><time>2026-05-01T14:56:28.705Z</time></trkpt><trkpt lat="44.11541796132065" lon="10.410568568905756"><ele>289.5</ele><time>2026-05-01T14:56:29.705Z</time></trkpt><trkpt lat="44.115265560590004" lon="10.41058430717877"><ele>290.75</ele><time>2026-05-01T14:56:30.705Z</time></trkpt><trkpt lat="44.11513057130071" lon="10.410647740475616"><ele>292.0</ele><time>2026-05-01T14:56:31.705Z</time></trkpt><trkpt lat="44.11498819891635" lon="10.41070419896275"><ele>288.5</ele><time>2026-05-01T14:56:32.705Z</time></trkpt><trkpt lat="44.11485326446881" lon="10.410789368552033"><ele>285.0</ele><time>2026-05-01T14:56:33.705Z</time></trkpt><trkpt lat="44.114729768527845" lon="10.410873753792313"><ele>281.5</ele><time>2026-05-01T14:56:34.705Z</time></trkpt><trkpt lat="44.114608484714175" lon="10.410965426558873"><ele>278.0</ele><time>2026-05-01T14:56:35.705Z</time></trkpt><trkpt lat="44.11444743630069" lon="10.410989549566064"><ele>278.0</ele><time>2026-05-01T14:56:36.705Z</time></trkpt><trkpt lat="44.1143646452113" lon="10.411196382593795"><ele>278.0</ele><time>2026-05-01T14:56:37.705Z</time></trkpt><trkpt lat="44.114228341497004" lon="10.411335163630078"><ele>278.0</ele><time>2026-05-01T14:56:38.705Z</time></trkpt><trkpt lat="44.11409106948624" lon="10.411472911340946"><ele>279.33333333333337</ele><time>2026-05-01T14:56:39.705Z</time></trkpt><trkpt lat="44.113955985122956" lon="10.411608775871143"><ele>280.6666666666667</ele><time>2026-05-01T14:56:40.705Z</time></trkpt><trkpt lat="44.11379144306346" lon="10.411679659900802"><ele>282.0</ele><time>2026-05-01T14:56:41.705Z</time></trkpt><trkpt lat="44.1136623986822" lon="10.411814860702727"><ele>282.0</ele><time>2026-05-01T14:56:42.705Z</time></trkpt><trkpt lat="44.11353356501805" lon="10.411943803569308"><ele>282.0</ele><time>2026-05-01T14:56:43.705Z</time></trkpt><trkpt lat="44.11340953290237" lon="10.412053878497565"><ele>282.0</ele><time>2026-05-01T14:56:44.705Z</time></trkpt><trkpt lat="44.11328373234898" lon="10.412144834857786"><ele>282.0</ele><time>2026-05-01T14:56:45.705Z</time></trkpt><trkpt lat="44.11316520463564" lon="10.412226807723506"><ele>281.8</ele><time>2026-05-01T14:56:46.705Z</time></trkpt><trkpt lat="44.11305404664009" lon="10.412302259503907"><ele>281.6</ele><time>2026-05-01T14:56:47.705Z</time></trkpt><trkpt lat="44.112956912119635" lon="10.412366880199096"><ele>281.40000000000003</ele><time>2026-05-01T14:56:48.705Z</time></trkpt><trkpt lat="44.11286981788761" lon="10.412423084999109"><ele>281.2</ele><time>2026-05-01T14:56:49.705Z</time></trkpt><trkpt lat="44.11278690046228" lon="10.412475601582694"><ele>281.0</ele><time>2026-05-01T14:56:50.705Z</time></trkpt><trkpt lat="44.112702819265536" lon="10.412525136162447"><ele>281.0</ele><time>2026-05-01T14:56:51.705Z</time></trkpt><trkpt lat="44.112625131989944" lon="10.412570523640888"><ele>281.0</ele><time>2026-05-01T14:56:52.705Z</time></trkpt><trkpt lat="44.11252216583884" lon="10.412630516479654"><ele>281.0</ele><time>2026-05-01T14:56:53.705Z</time></trkpt><trkpt lat="44.112437505134395" lon="10.412696587025877"><ele>281.0</ele><time>2026-05-01T14:56:54.705Z</time></trkpt><trkpt lat="44.11233084950172" lon="10.412753734342566"><ele>281.0</ele><time>2026-05-01T14:56:55.705Z</time></trkpt><trkpt lat="44.112200588524416" lon="10.412835025755873"><ele>283.25</ele><time>2026-05-01T14:56:56.705Z</time></trkpt><trkpt lat="44.11205692196382" lon="10.412901520067713"><ele>285.5</ele><time>2026-05-01T14:56:57.705Z</time></trkpt><trkpt lat="44.11192067056963" lon="10.412980233596018"><ele>287.75</ele><time>2026-05-01T14:56:58.705Z</time></trkpt><trkpt lat="44.111790723873995" lon="10.41305530482117"><ele>290.0</ele><time>2026-05-01T14:56:59.705Z</time></trkpt><trkpt lat="44.1116556444544" lon="10.413134377171573"><ele>287.5</ele><time>2026-05-01T14:57:00.705Z</time></trkpt><trkpt lat="44.111528594298434" lon="10.413210624319255"><ele>285.0</ele><time>2026-05-01T14:57:01.705Z</time></trkpt><trkpt lat="44.111410303420655" lon="10.413281081733961"><ele>282.5</ele><time>2026-05-01T14:57:02.705Z</time></trkpt><trkpt lat="44.11130526749606" lon="10.413341497569693"><ele>280.0</ele><time>2026-05-01T14:57:03.705Z</time></trkpt><trkpt lat="44.111186234283984" lon="10.41340950054037"><ele>280.0</ele><time>2026-05-01T14:57:04.705Z</time></trkpt><trkpt lat="44.11108306966393" lon="10.413471922636734"><ele>280.0</ele><time>2026-05-01T14:57:05.705Z</time></trkpt><trkpt lat="44.11098110502185" lon="10.41353402771088"><ele>280.0</ele><time>2026-05-01T14:57:06.705Z</time></trkpt><trkpt lat="44.11088116821885" lon="10.413592118628674"><ele>280.0</ele><time>2026-05-01T14:57:07.704Z</time></trkpt><trkpt lat="44.11078369372914" lon="10.413648778366941"><ele>280.0</ele><time>2026-05-01T14:57:08.704Z</time></trkpt><trkpt lat="44.11069547110557" lon="10.413700059972427"><ele>279.4</ele><time>2026-05-01T14:57:09.704Z</time></trkpt><trkpt lat="44.11061830759326" lon="10.41374559257988"><ele>278.8</ele><time>2026-05-01T14:57:10.704Z</time></trkpt><trkpt lat="44.11054132718745" lon="10.413788813766601"><ele>278.2</ele><time>2026-05-01T14:57:11.704Z</time></trkpt><trkpt lat="44.110476438032244" lon="10.413812911117367"><ele>277.6</ele><time>2026-05-01T14:57:12.704Z</time></trkpt><trkpt lat="44.11036718797797" lon="10.41375248493152"><ele>277.0</ele><time>2026-05-01T14:57:14.704Z</time></trkpt><trkpt lat="44.11031931533642" lon="10.413633165680283"><ele>277.0</ele><time>2026-05-01T14:57:15.704Z</time></trkpt><trkpt lat="44.110276352196564" lon="10.413518381592034"><ele>277.0</ele><time>2026-05-01T14:57:16.704Z</time></trkpt><trkpt lat="44.11023158765372" lon="10.413409767306032"><ele>277.0</ele><time>2026-05-01T14:57:17.704Z</time></trkpt><trkpt lat="44.11019515438059" lon="10.41330448997738"><ele>277.0</ele><time>2026-05-01T14:57:18.704Z</time></trkpt><trkpt lat="44.11014746868232" lon="10.413196748234906"><ele>277.0</ele><time>2026-05-01T14:57:19.704Z</time></trkpt><trkpt lat="44.110113590750785" lon="10.413114836558652"><ele>277.0</ele><time>2026-05-01T14:57:20.704Z</time></trkpt><trkpt lat="44.1100743458097" lon="10.413037773647982"><ele>277.16666666666663</ele><time>2026-05-01T14:57:21.704Z</time></trkpt><trkpt lat="44.11002444780771" lon="10.412976260043079"><ele>277.3333333333333</ele><time>2026-05-01T14:57:22.704Z</time></trkpt><trkpt lat="44.1099588918208" lon="10.412948140054105"><ele>277.5</ele><time>2026-05-01T14:57:23.704Z</time></trkpt><trkpt lat="44.10982479363557" lon="10.412972488560412"><ele>277.6666666666667</ele><time>2026-05-01T14:57:25.704Z</time></trkpt><trkpt lat="44.10975834411365" lon="10.412987265764908"><ele>277.83333333333337</ele><time>2026-05-01T14:57:26.704Z</time></trkpt><trkpt lat="44.109699185570925" lon="10.413018822538357"><ele>278.0</ele><time>2026-05-01T14:57:27.704Z</time></trkpt><trkpt lat="44.10958618446191" lon="10.413097011491562"><ele>278.1666666666667</ele><time>2026-05-01T14:57:29.704Z</time></trkpt><trkpt lat="44.109530327869116" lon="10.413144008160426"><ele>278.33333333333337</ele><time>2026-05-01T14:57:30.704Z</time></trkpt><trkpt lat="44.10945225705326" lon="10.413244397531326"><ele>278.5</ele><time>2026-05-01T14:57:32.704Z</time></trkpt><trkpt lat="44.10940250046845" lon="10.413372171552503"><ele>278.6666666666667</ele><time>2026-05-01T14:57:34.704Z</time></trkpt><trkpt lat="44.10936985832763" lon="10.41345645139762"><ele>278.8333333333333</ele><time>2026-05-01T14:57:35.704Z</time></trkpt><trkpt lat="44.10933709590433" lon="10.413539033868124"><ele>279.0</ele><time>2026-05-01T14:57:36.704Z</time></trkpt><trkpt lat="44.1093030298095" lon="10.41362346601946"><ele>279.0</ele><time>2026-05-01T14:57:37.704Z</time></trkpt><trkpt lat="44.10927127167362" lon="10.413701386162654"><ele>279.0</ele><time>2026-05-01T14:57:38.704Z</time></trkpt><trkpt lat="44.109200292953446" lon="10.413839042975493"><ele>279.0</ele><time>2026-05-01T14:57:40.704Z</time></trkpt><trkpt lat="44.109047528696024" lon="10.413842620237308"><ele>279.0</ele><time>2026-05-01T14:57:42.704Z</time></trkpt><trkpt lat="44.10897096013294" lon="10.413765766319605"><ele>279.0</ele><time>2026-05-01T14:57:43.703Z</time></trkpt><trkpt lat="44.10889156871536" lon="10.413683394358996"><ele>283.0</ele><time>2026-05-01T14:57:44.703Z</time></trkpt><trkpt lat="44.10883317106993" lon="10.413591277560108"><ele>287.0</ele><time>2026-05-01T14:57:45.703Z</time></trkpt><trkpt lat="44.10883119657697" lon="10.41342752333296"><ele>291.0</ele><time>2026-05-01T14:57:46.704Z</time></trkpt><trkpt lat="44.10879740948142" lon="10.41330718785659"><ele>295.0</ele><time>2026-05-01T14:57:47.705Z</time></trkpt><trkpt lat="44.10875453560479" lon="10.413199755916317"><ele>299.0</ele><time>2026-05-01T14:57:48.705Z</time></trkpt><trkpt lat="44.10870984877762" lon="10.41307938836633"><ele>295.0</ele><time>2026-05-01T14:57:49.706Z</time></trkpt><trkpt lat="44.10865934092828" lon="10.412951668458499"><ele>291.0</ele><time>2026-05-01T14:57:50.706Z</time></trkpt><trkpt lat="44.10855710634875" lon="10.412675857061881"><ele>287.0</ele><time>2026-05-01T14:57:52.707Z</time></trkpt><trkpt lat="44.10851143308776" lon="10.412518123781455"><ele>287.0</ele><time>2026-05-01T14:57:53.707Z</time></trkpt><trkpt lat="44.10851588324028" lon="10.412361886960499"><ele>287.0</ele><time>2026-05-01T14:57:54.708Z</time></trkpt><trkpt lat="44.10848206549361" lon="10.412235895596798"><ele>287.0</ele><time>2026-05-01T14:57:55.708Z</time></trkpt><trkpt lat="44.1084519028388" lon="10.41211824554356"><ele>287.0</ele><time>2026-05-01T14:57:56.708Z</time></trkpt><trkpt lat="44.10843055067443" lon="10.412021017257644"><ele>287.0</ele><time>2026-05-01T14:57:57.709Z</time></trkpt><trkpt lat="44.10840838741425" lon="10.411904463054853"><ele>285.83333333333337</ele><time>2026-05-01T14:57:58.709Z</time></trkpt><trkpt lat="44.10839393789625" lon="10.41179966694467"><ele>284.6666666666667</ele><time>2026-05-01T14:57:59.709Z</time></trkpt><trkpt lat="44.10838934781916" lon="10.411701466102786"><ele>283.5</ele><time>2026-05-01T14:58:00.709Z</time></trkpt><trkpt lat="44.10838785842729" lon="10.411598611351222"><ele>282.3333333333333</ele><time>2026-05-01T14:58:01.71Z</time></trkpt><trkpt lat="44.10839616315337" lon="10.411472648655668"><ele>281.16666666666663</ele><time>2026-05-01T14:58:02.71Z</time></trkpt><trkpt lat="44.10840354100581" lon="10.411360121640046"><ele>280.0</ele><time>2026-05-01T14:58:03.71Z</time></trkpt><trkpt lat="44.10838848035523" lon="10.411262790046164"><ele>280.0</ele><time>2026-05-01T14:58:04.71Z</time></trkpt><trkpt lat="44.108362441926225" lon="10.41115885824618"><ele>280.0</ele><time>2026-05-01T14:58:05.71Z</time></trkpt><trkpt lat="44.10828959254786" lon="10.411095883034829"><ele>280.0</ele><time>2026-05-01T14:58:06.711Z</time></trkpt><trkpt lat="44.108206475267345" lon="10.411058697309034"><ele>280.0</ele><time>2026-05-01T14:58:07.711Z</time></trkpt><trkpt lat="44.10811530649996" lon="10.411044684060924"><ele>280.0</ele><time>2026-05-01T14:58:08.711Z</time></trkpt><trkpt lat="44.10802915156246" lon="10.410975927976342"><ele>280.0</ele><time>2026-05-01T14:58:09.711Z</time></trkpt><trkpt lat="44.1079479016361" lon="10.410925904785572"><ele>280.0</ele><time>2026-05-01T14:58:10.711Z</time></trkpt><trkpt lat="44.10786737947848" lon="10.41087632974203"><ele>280.0</ele><time>2026-05-01T14:58:11.711Z</time></trkpt><trkpt lat="44.10778574626664" lon="10.410826069667156"><ele>280.0</ele><time>2026-05-01T14:58:12.711Z</time></trkpt><trkpt lat="44.107709947344304" lon="10.410772129713589"><ele>280.0</ele><time>2026-05-01T14:58:13.711Z</time></trkpt><trkpt lat="44.107636368257054" lon="10.410719994137125"><ele>280.0</ele><time>2026-05-01T14:58:14.711Z</time></trkpt><trkpt lat="44.107548083175615" lon="10.410665837085398"><ele>280.0</ele><time>2026-05-01T14:58:15.712Z</time></trkpt><trkpt lat="44.107467894097944" lon="10.410619997130995"><ele>279.8333333333333</ele><time>2026-05-01T14:58:16.712Z</time></trkpt><trkpt lat="44.10738846400823" lon="10.410574589608167"><ele>279.66666666666663</ele><time>2026-05-01T14:58:17.712Z</time></trkpt><trkpt lat="44.10731207725938" lon="10.41052531953377"><ele>279.5</ele><time>2026-05-01T14:58:18.712Z</time></trkpt><trkpt lat="44.10723767435284" lon="10.410472540994226"><ele>279.3333333333333</ele><time>2026-05-01T14:58:19.712Z</time></trkpt><trkpt lat="44.10716207689531" lon="10.4104097944458"><ele>279.1666666666667</ele><time>2026-05-01T14:58:20.712Z</time></trkpt><trkpt lat="44.107098129425985" lon="10.410351159653993"><ele>279.0</ele><time>2026-05-01T14:58:21.712Z</time></trkpt><trkpt lat="44.10703371736488" lon="10.4102919968926"><ele>279.0</ele><time>2026-05-01T14:58:22.712Z</time></trkpt><trkpt lat="44.1069675090855" lon="10.410230237094373"><ele>279.0</ele><time>2026-05-01T14:58:23.712Z</time></trkpt><trkpt lat="44.10690402334487" lon="10.410170820924012"><ele>279.0</ele><time>2026-05-01T14:58:24.712Z</time></trkpt><trkpt lat="44.10684442847048" lon="10.41011504627063"><ele>279.0</ele><time>2026-05-01T14:58:25.712Z</time></trkpt><trkpt lat="44.106784309875415" lon="10.410058781428468"><ele>279.0</ele><time>2026-05-01T14:58:26.712Z</time></trkpt><trkpt lat="44.10671536010596" lon="10.409994251519107"><ele>279.0</ele><time>2026-05-01T14:58:27.712Z</time></trkpt><trkpt lat="44.10663405087903" lon="10.40992987037152"><ele>279.0</ele><time>2026-05-01T14:58:29.712Z</time></trkpt><trkpt lat="44.106593687842754" lon="10.409854651312866"><ele>279.0</ele><time>2026-05-01T14:58:32.712Z</time></trkpt><trkpt lat="44.1066081490843" lon="10.409763857773763"><ele>279.0</ele><time>2026-05-01T14:58:34.712Z</time></trkpt><trkpt lat="44.10667259597746" lon="10.409685954255275"><ele>279.0</ele><time>2026-05-01T14:58:36.712Z</time></trkpt><trkpt lat="44.106731934523175" lon="10.409652193677848"><ele>279.0</ele><time>2026-05-01T14:58:38.712Z</time></trkpt><trkpt lat="44.1068095178795" lon="10.409668005955156"><ele>279.0</ele><time>2026-05-01T14:58:40.712Z</time></trkpt><trkpt lat="44.106898444873615" lon="10.409748915683823"><ele>279.0</ele><time>2026-05-01T14:58:42.712Z</time></trkpt><trkpt lat="44.10699033733713" lon="10.409821638332089"><ele>279.0</ele><time>2026-05-01T14:58:44.712Z</time></trkpt><trkpt lat="44.107082865039246" lon="10.409916693439603"><ele>279.0</ele><time>2026-05-01T14:58:46.712Z</time></trkpt><trkpt lat="44.10716154264583" lon="10.410003583358275"><ele>279.0</ele><time>2026-05-01T14:58:48.712Z</time></trkpt></trkseg><trkseg><trkpt lat="44.110447305693626" lon="10.408791800916404"><ele>286.0</ele><time>2026-05-01T15:24:00.727Z</time></trkpt><trkpt lat="44.11052559066383" lon="10.408776949496003"><ele>286.0</ele><time>2026-05-01T15:24:03.727Z</time></trkpt><trkpt lat="44.11061685070655" lon="10.408790443764168"><ele>286.0</ele><time>2026-05-01T15:24:05.727Z</time></trkpt><trkpt lat="44.11069491060093" lon="10.408795794777156"><ele>286.0</ele><time>2026-05-01T15:24:08.727Z</time></trkpt><trkpt lat="44.11074890079679" lon="10.408743914263903"><ele>286.0</ele><time>2026-05-01T15:24:10.727Z</time></trkpt><trkpt lat="44.11079683086373" lon="10.408598532687462"><ele>286.0</ele><time>2026-05-01T15:24:12.727Z</time></trkpt><trkpt lat="44.11081881282849" lon="10.408477898244747"><ele>284.0</ele><time>2026-05-01T15:24:13.727Z</time></trkpt><trkpt lat="44.11084167383563" lon="10.408374825213864"><ele>282.0</ele><time>2026-05-01T15:24:14.727Z</time></trkpt><trkpt lat="44.11086957908456" lon="10.408280670887166"><ele>280.0</ele><time>2026-05-01T15:24:15.727Z</time></trkpt><trkpt lat="44.110902204101855" lon="10.40815736132629"><ele>278.0</ele><time>2026-05-01T15:24:16.727Z</time></trkpt><trkpt lat="44.11093707251651" lon="10.408023742826341"><ele>276.0</ele><time>2026-05-01T15:24:17.727Z</time></trkpt><trkpt lat="44.110990200339224" lon="10.407889764032465"><ele>276.0</ele><time>2026-05-01T15:24:18.727Z</time></trkpt><trkpt lat="44.1110279025999" lon="10.407754984489376"><ele>276.0</ele><time>2026-05-01T15:24:19.727Z</time></trkpt><trkpt lat="44.11106322559478" lon="10.407628709967373"><ele>276.0</ele><time>2026-05-01T15:24:20.727Z</time></trkpt><trkpt lat="44.11108210604968" lon="10.407511019529457"><ele>276.0</ele><time>2026-05-01T15:24:21.727Z</time></trkpt><trkpt lat="44.11111977755704" lon="10.407419782943416"><ele>276.0</ele><time>2026-05-01T15:24:22.727Z</time></trkpt><trkpt lat="44.11119248683486" lon="10.407273404068228"><ele>276.0</ele><time>2026-05-01T15:24:24.727Z</time></trkpt><trkpt lat="44.11125431292657" lon="10.407231716936074"><ele>276.0</ele><time>2026-05-01T15:24:25.727Z</time></trkpt><trkpt lat="44.11133935338522" lon="10.407226912379013"><ele>276.0</ele><time>2026-05-01T15:24:26.727Z</time></trkpt><trkpt lat="44.1114515106737" lon="10.407195040001765"><ele>276.0</ele><time>2026-05-01T15:24:27.727Z</time></trkpt><trkpt lat="44.111563423456175" lon="10.407159623659865"><ele>276.0</ele><time>2026-05-01T15:24:28.727Z</time></trkpt><trkpt lat="44.11165713539323" lon="10.407095743391142"><ele>274.75</ele><time>2026-05-01T15:24:29.727Z</time></trkpt><trkpt lat="44.11171546944609" lon="10.406980606228558"><ele>273.5</ele><time>2026-05-01T15:24:30.727Z</time></trkpt><trkpt lat="44.11176557751385" lon="10.406841179712467"><ele>272.25</ele><time>2026-05-01T15:24:31.727Z</time></trkpt><trkpt lat="44.11179163411195" lon="10.406693619286873"><ele>271.0</ele><time>2026-05-01T15:24:32.727Z</time></trkpt><trkpt lat="44.11184911715859" lon="10.406510318582681"><ele>271.0</ele><time>2026-05-01T15:24:33.727Z</time></trkpt><trkpt lat="44.111892607726645" lon="10.406333490952866"><ele>271.0</ele><time>2026-05-01T15:24:34.727Z</time></trkpt><trkpt lat="44.111938031704085" lon="10.406155119938369"><ele>271.0</ele><time>2026-05-01T15:24:35.727Z</time></trkpt><trkpt lat="44.11195160572338" lon="10.405956202371074"><ele>271.0</ele><time>2026-05-01T15:24:36.727Z</time></trkpt><trkpt lat="44.11199805702642" lon="10.405762199599279"><ele>272.75</ele><time>2026-05-01T15:24:37.727Z</time></trkpt><trkpt lat="44.11205012375273" lon="10.405573277702427"><ele>274.5</ele><time>2026-05-01T15:24:38.727Z</time></trkpt><trkpt lat="44.112099700431266" lon="10.405396399197937"><ele>276.25</ele><time>2026-05-01T15:24:39.727Z</time></trkpt><trkpt lat="44.11215204229215" lon="10.40524200165335"><ele>278.0</ele><time>2026-05-01T15:24:40.727Z</time></trkpt><trkpt lat="44.11221886828671" lon="10.405099154399304"><ele>278.75</ele><time>2026-05-01T15:24:41.726Z</time></trkpt><trkpt lat="44.11231499029913" lon="10.40497556026236"><ele>279.5</ele><time>2026-05-01T15:24:42.726Z</time></trkpt><trkpt lat="44.11241702284815" lon="10.404847809584364"><ele>280.25</ele><time>2026-05-01T15:24:43.726Z</time></trkpt><trkpt lat="44.112529637379765" lon="10.404728616220137"><ele>281.0</ele><time>2026-05-01T15:24:44.726Z</time></trkpt><trkpt lat="44.11264698314557" lon="10.404606990244629"><ele>281.0</ele><time>2026-05-01T15:24:45.726Z</time></trkpt><trkpt lat="44.1127629405405" lon="10.40449078947701"><ele>281.0</ele><time>2026-05-01T15:24:46.726Z</time></trkpt><trkpt lat="44.11288393012755" lon="10.404368590870913"><ele>281.0</ele><time>2026-05-01T15:24:47.726Z</time></trkpt><trkpt lat="44.113010016669904" lon="10.404241244355555"><ele>281.0</ele><time>2026-05-01T15:24:48.726Z</time></trkpt><trkpt lat="44.11313715861046" lon="10.404112831900173"><ele>279.6666666666667</ele><time>2026-05-01T15:24:49.726Z</time></trkpt><trkpt lat="44.11327266860489" lon="10.403975040969396"><ele>278.3333333333333</ele><time>2026-05-01T15:24:50.726Z</time></trkpt><trkpt lat="44.113401299517584" lon="10.403843861960402"><ele>277.0</ele><time>2026-05-01T15:24:51.726Z</time></trkpt><trkpt lat="44.1135186907273" lon="10.403724146837485"><ele>277.0</ele><time>2026-05-01T15:24:52.726Z</time></trkpt><trkpt lat="44.11362868114807" lon="10.403613558452"><ele>277.0</ele><time>2026-05-01T15:24:53.726Z</time></trkpt><trkpt lat="44.113732071485806" lon="10.40350931022964"><ele>277.0</ele><time>2026-05-01T15:24:54.726Z</time></trkpt><trkpt lat="44.11383118345077" lon="10.403409376050513"><ele>277.0</ele><time>2026-05-01T15:24:55.726Z</time></trkpt><trkpt lat="44.113919421605544" lon="10.403319812355434"><ele>277.0</ele><time>2026-05-01T15:24:56.726Z</time></trkpt><trkpt lat="44.11399274572714" lon="10.40324445251096"><ele>277.0</ele><time>2026-05-01T15:24:57.726Z</time></trkpt><trkpt lat="44.11401472276296" lon="10.403116172552604"><ele>277.0</ele><time>2026-05-01T15:24:58.726Z</time></trkpt><trkpt lat="44.11411092215317" lon="10.40303007528655"><ele>277.0</ele><time>2026-05-01T15:25:00.726Z</time></trkpt><trkpt lat="44.11418227630406" lon="10.403041208451763"><ele>277.0</ele><time>2026-05-01T15:25:02.726Z</time></trkpt><trkpt lat="44.11422545712653" lon="10.402967298589473"><ele>277.0</ele><time>2026-05-01T15:25:05.726Z</time></trkpt><trkpt lat="44.11431369130238" lon="10.402903671057143"><ele>276.5</ele><time>2026-05-01T15:25:07.725Z</time></trkpt><trkpt lat="44.114225071266716" lon="10.402669930539458"><ele>276.0</ele><time>2026-05-01T15:25:08.725Z</time></trkpt><trkpt lat="44.11416278264003" lon="10.402549319740647"><ele>275.5</ele><time>2026-05-01T15:25:09.725Z</time></trkpt><trkpt lat="44.11407427349595" lon="10.402442867114384"><ele>275.0</ele><time>2026-05-01T15:25:10.725Z</time></trkpt><trkpt lat="44.113998371057065" lon="10.402395751210365"><ele>277.5</ele><time>2026-05-01T15:25:11.725Z</time></trkpt><trkpt lat="44.11389608465269" lon="10.4023978445929"><ele>280.0</ele><time>2026-05-01T15:25:12.725Z</time></trkpt><trkpt lat="44.113783267553366" lon="10.4024445398416"><ele>282.5</ele><time>2026-05-01T15:25:13.725Z</time></trkpt><trkpt lat="44.11366825612863" lon="10.402536465978587"><ele>285.0</ele><time>2026-05-01T15:25:14.725Z</time></trkpt><trkpt lat="44.1135238529312" lon="10.40265639935356"><ele>285.0</ele><time>2026-05-01T15:25:15.725Z</time></trkpt><trkpt lat="44.11332836373966" lon="10.402801513392955"><ele>285.0</ele><time>2026-05-01T15:25:16.725Z</time></trkpt><trkpt lat="44.11313036027184" lon="10.402923586538758"><ele>285.0</ele><time>2026-05-01T15:25:17.725Z</time></trkpt><trkpt lat="44.11297180284748" lon="10.40302270790597"><ele>287.5</ele><time>2026-05-01T15:25:18.725Z</time></trkpt><trkpt lat="44.112842186564905" lon="10.403122185282232"><ele>290.0</ele><time>2026-05-01T15:25:19.725Z</time></trkpt><trkpt lat="44.11273229813826" lon="10.403229691925723"><ele>292.5</ele><time>2026-05-01T15:25:20.725Z</time></trkpt><trkpt lat="44.112632622300914" lon="10.403366881075492"><ele>295.0</ele><time>2026-05-01T15:25:21.725Z</time></trkpt><trkpt lat="44.112544864115236" lon="10.403525507536418"><ele>295.0</ele><time>2026-05-01T15:25:22.725Z</time></trkpt><trkpt lat="44.112454424709895" lon="10.40368439963549"><ele>295.0</ele><time>2026-05-01T15:25:23.725Z</time></trkpt><trkpt lat="44.11235151507784" lon="10.403827509730302"><ele>295.0</ele><time>2026-05-01T15:25:24.725Z</time></trkpt><trkpt lat="44.112258179826945" lon="10.403958484536536"><ele>295.0</ele><time>2026-05-01T15:25:25.725Z</time></trkpt><trkpt lat="44.11215789892508" lon="10.40406979857498"><ele>295.5</ele><time>2026-05-01T15:25:26.725Z</time></trkpt><trkpt lat="44.112047399573285" lon="10.404192244392204"><ele>296.0</ele><time>2026-05-01T15:25:27.725Z</time></trkpt><trkpt lat="44.11194533132343" lon="10.404336255307262"><ele>296.5</ele><time>2026-05-01T15:25:28.725Z</time></trkpt><trkpt lat="44.111831123640115" lon="10.404461815194757"><ele>297.0</ele><time>2026-05-01T15:25:29.725Z</time></trkpt><trkpt lat="44.111731892370855" lon="10.404593785108844"><ele>299.0</ele><time>2026-05-01T15:25:30.725Z</time></trkpt><trkpt lat="44.1116277256073" lon="10.404711333136628"><ele>301.0</ele><time>2026-05-01T15:25:31.725Z</time></trkpt><trkpt lat="44.11155584508432" lon="10.404840473327198"><ele>303.0</ele><time>2026-05-01T15:25:32.725Z</time></trkpt><trkpt lat="44.111476582183265" lon="10.404924387438735"><ele>305.0</ele><time>2026-05-01T15:25:33.724Z</time></trkpt><trkpt lat="44.11138485230304" lon="10.404995889424223"><ele>305.0</ele><time>2026-05-01T15:25:35.724Z</time></trkpt><trkpt lat="44.1112837004977" lon="10.40490274334103"><ele>305.0</ele><time>2026-05-01T15:25:37.724Z</time></trkpt><trkpt lat="44.111229978284676" lon="10.404812394984452"><ele>305.0</ele><time>2026-05-01T15:25:40.724Z</time></trkpt><trkpt lat="44.11112474746571" lon="10.404879154255461"><ele>305.0</ele><time>2026-05-01T15:25:42.724Z</time></trkpt><trkpt lat="44.111065991205656" lon="10.40496564700742"><ele>305.0</ele><time>2026-05-01T15:25:43.724Z</time></trkpt><trkpt lat="44.11100925746745" lon="10.405051306841552"><ele>305.0</ele><time>2026-05-01T15:25:44.724Z</time></trkpt><trkpt lat="44.11094860232577" lon="10.405155337055787"><ele>305.0</ele><time>2026-05-01T15:25:45.724Z</time></trkpt><trkpt lat="44.11088918568566" lon="10.405279713131588"><ele>305.0</ele><time>2026-05-01T15:25:46.724Z</time></trkpt><trkpt lat="44.11083825489647" lon="10.40540582401456"><ele>305.0</ele><time>2026-05-01T15:25:47.724Z</time></trkpt><trkpt lat="44.110792535003725" lon="10.405530615278085"><ele>305.0</ele><time>2026-05-01T15:25:48.724Z</time></trkpt><trkpt lat="44.11075103327735" lon="10.40565527057584"><ele>306.8</ele><time>2026-05-01T15:25:49.724Z</time></trkpt><trkpt lat="44.11070954007953" lon="10.405782666774195"><ele>308.6</ele><time>2026-05-01T15:25:50.724Z</time></trkpt><trkpt lat="44.110666426685015" lon="10.40591446939861"><ele>310.4</ele><time>2026-05-01T15:25:51.724Z</time></trkpt><trkpt lat="44.11062154009772" lon="10.406049039958138"><ele>312.2</ele><time>2026-05-01T15:25:52.724Z</time></trkpt><trkpt lat="44.11057706949425" lon="10.40618236368762"><ele>314.0</ele><time>2026-05-01T15:25:53.724Z</time></trkpt><trkpt lat="44.11053241614726" lon="10.406316234974652"><ele>311.8</ele><time>2026-05-01T15:25:54.724Z</time></trkpt><trkpt lat="44.11048645721749" lon="10.406454475714595"><ele>309.59999999999997</ele><time>2026-05-01T15:25:55.724Z</time></trkpt><trkpt lat="44.110439148701666" lon="10.406596876302215"><ele>307.4</ele><time>2026-05-01T15:25:56.724Z</time></trkpt><trkpt lat="44.11039416520543" lon="10.406732279002842"><ele>305.2</ele><time>2026-05-01T15:25:57.724Z</time></trkpt><trkpt lat="44.11036275661461" lon="10.406866177113951"><ele>303.0</ele><time>2026-05-01T15:25:58.724Z</time></trkpt><trkpt lat="44.110312710237906" lon="10.406982874044454"><ele>303.0</ele><time>2026-05-01T15:25:59.724Z</time></trkpt><trkpt lat="44.11027930779061" lon="10.407114274855248"><ele>303.0</ele><time>2026-05-01T15:26:00.724Z</time></trkpt><trkpt lat="44.11023243451244" lon="10.407216515003803"><ele>303.0</ele><time>2026-05-01T15:26:01.724Z</time></trkpt><trkpt lat="44.11020828299205" lon="10.40733019346703"><ele>303.0</ele><time>2026-05-01T15:26:02.724Z</time></trkpt><trkpt lat="44.11016578975052" lon="10.407417557855485"><ele>303.0</ele><time>2026-05-01T15:26:03.724Z</time></trkpt><trkpt lat="44.11013899526443" lon="10.407507013402636"><ele>303.0</ele><time>2026-05-01T15:26:04.724Z</time></trkpt><trkpt lat="44.11010880306272" lon="10.407607812662848"><ele>301.0</ele><time>2026-05-01T15:26:05.724Z</time></trkpt><trkpt lat="44.11007970618839" lon="10.40771465011954"><ele>299.0</ele><time>2026-05-01T15:26:06.724Z</time></trkpt><trkpt lat="44.11005188208945" lon="10.407814846749218"><ele>297.0</ele><time>2026-05-01T15:26:07.724Z</time></trkpt><trkpt lat="44.1100120942431" lon="10.40796028660775"><ele>295.0</ele><time>2026-05-01T15:26:09.724Z</time></trkpt><trkpt lat="44.10998433839765" lon="10.408047104129095"><ele>293.0</ele><time>2026-05-01T15:26:11.724Z</time></trkpt><trkpt lat="44.10986189265584" lon="10.408045960973727"><ele>292.0</ele><time>2026-05-01T15:26:13.724Z</time></trkpt><trkpt lat="44.109768088330206" lon="10.40805278860422"><ele>291.0</ele><time>2026-05-01T15:26:14.724Z</time></trkpt><trkpt lat="44.109681365067964" lon="10.408069220924803"><ele>290.0</ele><time>2026-05-01T15:26:15.724Z</time></trkpt><trkpt lat="44.10958551494912" lon="10.40807800700777"><ele>289.0</ele><time>2026-05-01T15:26:16.724Z</time></trkpt><trkpt lat="44.10948971064715" lon="10.408088506092769"><ele>288.0</ele><time>2026-05-01T15:26:17.724Z</time></trkpt><trkpt lat="44.10941725793324" lon="10.408140642949501"><ele>288.0</ele><time>2026-05-01T15:26:18.724Z</time></trkpt><trkpt lat="44.109349276265206" lon="10.408160318745264"><ele>288.0</ele><time>2026-05-01T15:26:19.724Z</time></trkpt><trkpt lat="44.10928370898851" lon="10.408204531096418"><ele>288.0</ele><time>2026-05-01T15:26:20.724Z</time></trkpt><trkpt lat="44.10921209456477" lon="10.408229446488699"><ele>288.0</ele><time>2026-05-01T15:26:21.724Z</time></trkpt><trkpt lat="44.10912135296148" lon="10.408249230812729"><ele>288.0</ele><time>2026-05-01T15:26:22.724Z</time></trkpt><trkpt lat="44.10900555238512" lon="10.408193797187513"><ele>288.0</ele><time>2026-05-01T15:26:23.724Z</time></trkpt><trkpt lat="44.10889864186794" lon="10.40817349419024"><ele>286.2</ele><time>2026-05-01T15:26:24.724Z</time></trkpt><trkpt lat="44.10880008877834" lon="10.408129832105482"><ele>284.4</ele><time>2026-05-01T15:26:25.724Z</time></trkpt><trkpt lat="44.10869858679278" lon="10.408100802428095"><ele>282.59999999999997</ele><time>2026-05-01T15:26:26.724Z</time></trkpt><trkpt lat="44.1086062811836" lon="10.408078706296317"><ele>280.8</ele><time>2026-05-01T15:26:27.724Z</time></trkpt><trkpt lat="44.10852259112862" lon="10.408033420733863"><ele>279.0</ele><time>2026-05-01T15:26:28.724Z</time></trkpt><trkpt lat="44.108440298720495" lon="10.408009054002271"><ele>278.5</ele><time>2026-05-01T15:26:29.724Z</time></trkpt><trkpt lat="44.10835970430244" lon="10.40798095926798"><ele>278.0</ele><time>2026-05-01T15:26:30.724Z</time></trkpt><trkpt lat="44.10828536758861" lon="10.407943206288504"><ele>277.5</ele><time>2026-05-01T15:26:31.724Z</time></trkpt><trkpt lat="44.10822230497901" lon="10.407882810605999"><ele>277.0</ele><time>2026-05-01T15:26:32.723Z</time></trkpt><trkpt lat="44.10815020033606" lon="10.407840091683672"><ele>276.5</ele><time>2026-05-01T15:26:33.723Z</time></trkpt><trkpt lat="44.10808972983719" lon="10.40778533226331"><ele>276.0</ele><time>2026-05-01T15:26:34.723Z</time></trkpt><trkpt lat="44.10803765368784" lon="10.407717463479425"><ele>276.0</ele><time>2026-05-01T15:26:35.723Z</time></trkpt><trkpt lat="44.10798586822554" lon="10.407663297914292"><ele>276.0</ele><time>2026-05-01T15:26:36.723Z</time></trkpt><trkpt lat="44.10791490590636" lon="10.407621061696226"><ele>276.0</ele><time>2026-05-01T15:26:38.723Z</time></trkpt><trkpt lat="44.10796262987694" lon="10.407857385057241"><ele>276.0</ele><time>2026-05-01T15:26:41.723Z</time></trkpt><trkpt lat="44.10800633277609" lon="10.407933572293611"><ele>276.0</ele><time>2026-05-01T15:26:42.723Z</time></trkpt><trkpt lat="44.1080560897827" lon="10.408009762838175"><ele>275.6666666666667</ele><time>2026-05-01T15:26:43.723Z</time></trkpt><trkpt lat="44.10812838803741" lon="10.408080464286721"><ele>275.3333333333333</ele><time>2026-05-01T15:26:44.723Z</time></trkpt><trkpt lat="44.108189438289486" lon="10.408190888145622"><ele>275.0</ele><time>2026-05-01T15:26:45.723Z</time></trkpt><trkpt lat="44.108252976030606" lon="10.408267626866342"><ele>274.66666666666663</ele><time>2026-05-01T15:26:46.723Z</time></trkpt><trkpt lat="44.108314848881925" lon="10.408333414363158"><ele>274.3333333333333</ele><time>2026-05-01T15:26:47.723Z</time></trkpt><trkpt lat="44.10836971921997" lon="10.408392761831612"><ele>274.0</ele><time>2026-05-01T15:26:48.723Z</time></trkpt><trkpt lat="44.1084431545362" lon="10.408455361438772"><ele>273.5</ele><time>2026-05-01T15:26:50.723Z</time></trkpt><trkpt lat="44.108361943100256" lon="10.408632024824334"><ele>273.0</ele><time>2026-05-01T15:26:53.723Z</time></trkpt><trkpt lat="44.108283855284995" lon="10.408720787069148"><ele>272.5</ele><time>2026-05-01T15:26:54.723Z</time></trkpt><trkpt lat="44.10821967113482" lon="10.408840067568375"><ele>272.0</ele><time>2026-05-01T15:26:55.723Z</time></trkpt><trkpt lat="44.108144577526154" lon="10.408936240389364"><ele>272.0</ele><time>2026-05-01T15:26:56.723Z</time></trkpt><trkpt lat="44.10807336324467" lon="10.409031179399898"><ele>272.0</ele><time>2026-05-01T15:26:57.723Z</time></trkpt><trkpt lat="44.108000678200966" lon="10.40912098969087"><ele>272.0</ele><time>2026-05-01T15:26:58.723Z</time></trkpt><trkpt lat="44.107934272805615" lon="10.40919918408745"><ele>272.0</ele><time>2026-05-01T15:26:59.723Z</time></trkpt><trkpt lat="44.10787536777505" lon="10.409276296420492"><ele>272.0</ele><time>2026-05-01T15:27:00.723Z</time></trkpt><trkpt lat="44.10781888171135" lon="10.409347202628043"><ele>272.0</ele><time>2026-05-01T15:27:01.723Z</time></trkpt><trkpt lat="44.107726443177164" lon="10.409424043961627"><ele>272.0</ele><time>2026-05-01T15:27:03.723Z</time></trkpt><trkpt lat="44.10764381283965" lon="10.409358919792371"><ele>272.0</ele><time>2026-05-01T15:27:05.723Z</time></trkpt><trkpt lat="44.10761711437766" lon="10.409254383515355"><ele>272.0</ele><time>2026-05-01T15:27:06.723Z</time></trkpt><trkpt lat="44.10759010799671" lon="10.409145518694311"><ele>272.0</ele><time>2026-05-01T15:27:07.723Z</time></trkpt><trkpt lat="44.10756728527103" lon="10.409031876898164"><ele>272.0</ele><time>2026-05-01T15:27:08.723Z</time></trkpt><trkpt lat="44.10754151528031" lon="10.408906095103765"><ele>272.0</ele><time>2026-05-01T15:27:09.723Z</time></trkpt><trkpt lat="44.10752011545556" lon="10.408789446925104"><ele>272.33333333333337</ele><time>2026-05-01T15:27:10.723Z</time></trkpt><trkpt lat="44.1075056069843" lon="10.408692542599914"><ele>272.6666666666667</ele><time>2026-05-01T15:27:11.723Z</time></trkpt><trkpt lat="44.10746764840305" lon="10.40858275214393"><ele>273.0</ele><time>2026-05-01T15:27:13.723Z</time></trkpt><trkpt lat="44.107400997941056" lon="10.408547195518421"><ele>273.3333333333333</ele><time>2026-05-01T15:27:14.722Z</time></trkpt><trkpt lat="44.1073470409354" lon="10.40863337917295"><ele>273.66666666666663</ele><time>2026-05-01T15:27:15.722Z</time></trkpt><trkpt lat="44.10726452786398" lon="10.4087552734091"><ele>274.0</ele><time>2026-05-01T15:27:17.722Z</time></trkpt><trkpt lat="44.107202334790244" lon="10.4088260923796"><ele>274.0</ele><time>2026-05-01T15:27:18.722Z</time></trkpt><trkpt lat="44.107141032977395" lon="10.408916702059717"><ele>274.0</ele><time>2026-05-01T15:27:19.723Z</time></trkpt><trkpt lat="44.10708598513421" lon="10.408996864328815"><ele>274.0</ele><time>2026-05-01T15:27:20.723Z</time></trkpt><trkpt lat="44.10702333577645" lon="10.40909435691676"><ele>274.0</ele><time>2026-05-01T15:27:21.723Z</time></trkpt><trkpt lat="44.10695304063678" lon="10.409205631805845"><ele>274.0</ele><time>2026-05-01T15:27:22.722Z</time></trkpt><trkpt lat="44.106886959089856" lon="10.409305809912773"><ele>274.0</ele><time>2026-05-01T15:27:23.722Z</time></trkpt><trkpt lat="44.106819606489175" lon="10.409408583454525"><ele>274.0</ele><time>2026-05-01T15:27:24.722Z</time></trkpt><trkpt lat="44.10675491467509" lon="10.409510760456337"><ele>274.0</ele><time>2026-05-01T15:27:25.722Z</time></trkpt><trkpt lat="44.10669586155278" lon="10.40959780683838"><ele>274.0</ele><time>2026-05-01T15:27:26.722Z</time></trkpt><trkpt lat="44.106648435128854" lon="10.409656095395269"><ele>274.0</ele><time>2026-05-01T15:27:27.722Z</time></trkpt><trkpt lat="44.10659456152513" lon="10.409706316790052"><ele>274.0</ele><time>2026-05-01T15:27:29.722Z</time></trkpt><trkpt lat="44.106546214272264" lon="10.409782144009752"><ele>275.0</ele><time>2026-05-01T15:27:33.722Z</time></trkpt><trkpt lat="44.1065216921656" lon="10.409863151036808"><ele>276.0</ele><time>2026-05-01T15:27:36.722Z</time></trkpt><trkpt lat="44.1066351266263" lon="10.40997644209647"><ele>277.0</ele><time>2026-05-01T15:27:37.722Z</time></trkpt><trkpt lat="44.10671682445112" lon="10.410042956815124"><ele>278.0</ele><time>2026-05-01T15:27:38.722Z</time></trkpt><trkpt lat="44.10681027504464" lon="10.410138819707605"><ele>279.0</ele><time>2026-05-01T15:27:39.722Z</time></trkpt><trkpt lat="44.1068914918919" lon="10.410214830431771"><ele>279.0</ele><time>2026-05-01T15:27:40.722Z</time></trkpt><trkpt lat="44.10697337922007" lon="10.41029146854544"><ele>279.0</ele><time>2026-05-01T15:27:41.722Z</time></trkpt><trkpt lat="44.107060112895795" lon="10.410371658251707"><ele>279.0</ele><time>2026-05-01T15:27:42.722Z</time></trkpt><trkpt lat="44.10715743738751" lon="10.410461053033451"><ele>279.0</ele><time>2026-05-01T15:27:43.722Z</time></trkpt><trkpt lat="44.10726374041095" lon="10.410544723873988"><ele>279.0</ele><time>2026-05-01T15:27:44.722Z</time></trkpt><trkpt lat="44.107364446525786" lon="10.410611063012263"><ele>279.1666666666667</ele><time>2026-05-01T15:27:45.722Z</time></trkpt><trkpt lat="44.10744971740785" lon="10.410659698536078"><ele>279.3333333333333</ele><time>2026-05-01T15:27:46.722Z</time></trkpt><trkpt lat="44.10752899564841" lon="10.410704905989158"><ele>279.5</ele><time>2026-05-01T15:27:47.722Z</time></trkpt><trkpt lat="44.10760994923604" lon="10.410729139014164"><ele>279.66666666666663</ele><time>2026-05-01T15:27:48.722Z</time></trkpt><trkpt lat="44.10767444228362" lon="10.410796237070478"><ele>279.8333333333333</ele><time>2026-05-01T15:27:49.722Z</time></trkpt><trkpt lat="44.10774587866482" lon="10.410849288619556"><ele>280.0</ele><time>2026-05-01T15:27:50.722Z</time></trkpt><trkpt lat="44.107825454299885" lon="10.410901649524616"><ele>280.0</ele><time>2026-05-01T15:27:51.722Z</time></trkpt><trkpt lat="44.10790391455884" lon="10.410949380002926"><ele>280.0</ele><time>2026-05-01T15:27:52.722Z</time></trkpt><trkpt lat="44.10798480613139" lon="10.410999182495647"><ele>280.0</ele><time>2026-05-01T15:27:53.722Z</time></trkpt><trkpt lat="44.10805452992426" lon="10.411040707522965"><ele>280.0</ele><time>2026-05-01T15:27:54.722Z</time></trkpt><trkpt lat="44.108114853631555" lon="10.411074659407777"><ele>280.0</ele><time>2026-05-01T15:27:56.722Z</time></trkpt><trkpt lat="44.10818660709771" lon="10.41110149090084"><ele>280.0</ele><time>2026-05-01T15:28:01.722Z</time></trkpt><trkpt lat="44.10824932713756" lon="10.41112852935053"><ele>280.0</ele><time>2026-05-01T15:28:03.722Z</time></trkpt><trkpt lat="44.108332904690876" lon="10.411194680499843"><ele>280.0</ele><time>2026-05-01T15:28:05.722Z</time></trkpt><trkpt lat="44.108357384398644" lon="10.411331333275973"><ele>280.0</ele><time>2026-05-01T15:28:07.722Z</time></trkpt><trkpt lat="44.10836053835631" lon="10.411523218796066"><ele>280.0</ele><time>2026-05-01T15:28:09.722Z</time></trkpt><trkpt lat="44.10835901695104" lon="10.41164366317073"><ele>280.0</ele><time>2026-05-01T15:28:10.722Z</time></trkpt><trkpt lat="44.10833343575927" lon="10.411747350350847"><ele>280.0</ele><time>2026-05-01T15:28:11.722Z</time></trkpt><trkpt lat="44.10835416742907" lon="10.411874873843113"><ele>280.0</ele><time>2026-05-01T15:28:12.722Z</time></trkpt><trkpt lat="44.10839272718462" lon="10.412015095083946"><ele>280.0</ele><time>2026-05-01T15:28:13.722Z</time></trkpt><trkpt lat="44.10843461060326" lon="10.412188504776974"><ele>280.0</ele><time>2026-05-01T15:28:14.722Z</time></trkpt><trkpt lat="44.10847195647986" lon="10.41234941374584"><ele>281.75</ele><time>2026-05-01T15:28:15.722Z</time></trkpt><trkpt lat="44.10852208848531" lon="10.412519628626237"><ele>283.5</ele><time>2026-05-01T15:28:16.722Z</time></trkpt><trkpt lat="44.108568518913934" lon="10.412682316315928"><ele>285.25</ele><time>2026-05-01T15:28:17.722Z</time></trkpt><trkpt lat="44.108625508346556" lon="10.412827449950706"><ele>287.0</ele><time>2026-05-01T15:28:18.721Z</time></trkpt><trkpt lat="44.10866607821879" lon="10.412973831402157"><ele>289.0</ele><time>2026-05-01T15:28:19.721Z</time></trkpt><trkpt lat="44.108686384695275" lon="10.413120726929252"><ele>291.0</ele><time>2026-05-01T15:28:20.721Z</time></trkpt><trkpt lat="44.1087161574894" lon="10.4132406536467"><ele>293.0</ele><time>2026-05-01T15:28:21.721Z</time></trkpt><trkpt lat="44.10873898797408" lon="10.413332616364102"><ele>295.0</ele><time>2026-05-01T15:28:22.721Z</time></trkpt><trkpt lat="44.10877021266972" lon="10.413453060601764"><ele>297.0</ele><time>2026-05-01T15:28:24.721Z</time></trkpt><trkpt lat="44.108703666821945" lon="10.413434790368218"><ele>299.0</ele><time>2026-05-01T15:28:30.721Z</time></trkpt><trkpt lat="44.10866412852808" lon="10.413235278803576"><ele>299.0</ele><time>2026-05-01T15:28:32.721Z</time></trkpt><trkpt lat="44.10861964288543" lon="10.413115037955817"><ele>299.0</ele><time>2026-05-01T15:28:33.721Z</time></trkpt><trkpt lat="44.10857321689373" lon="10.412948751393204"><ele>299.0</ele><time>2026-05-01T15:28:34.721Z</time></trkpt><trkpt lat="44.1085120626751" lon="10.412794129841306"><ele>299.0</ele><time>2026-05-01T15:28:35.721Z</time></trkpt><trkpt lat="44.10843718984763" lon="10.412646368965909"><ele>299.0</ele><time>2026-05-01T15:28:36.721Z</time></trkpt><trkpt lat="44.10835240390455" lon="10.412549162493086"><ele>299.0</ele><time>2026-05-01T15:28:37.721Z</time></trkpt><trkpt lat="44.10827429183671" lon="10.41249084932138"><ele>299.0</ele><time>2026-05-01T15:28:38.721Z</time></trkpt><trkpt lat="44.10817205892671" lon="10.412470524873736"><ele>299.0</ele><time>2026-05-01T15:28:39.721Z</time></trkpt><trkpt lat="44.10805592286388" lon="10.412480892409759"><ele>299.0</ele><time>2026-05-01T15:28:40.721Z</time></trkpt><trkpt lat="44.10792059924745" lon="10.412470033418543"><ele>299.0</ele><time>2026-05-01T15:28:41.721Z</time></trkpt><trkpt lat="44.10778416743578" lon="10.412460596409277"><ele>299.0</ele><time>2026-05-01T15:28:42.721Z</time></trkpt><trkpt lat="44.10764280924283" lon="10.412451871102222"><ele>299.0</ele><time>2026-05-01T15:28:43.721Z</time></trkpt><trkpt lat="44.107503642368435" lon="10.412443281051313"><ele>299.0</ele><time>2026-05-01T15:28:44.721Z</time></trkpt><trkpt lat="44.10735619294836" lon="10.41243763109408"><ele>301.25</ele><time>2026-05-01T15:28:45.721Z</time></trkpt><trkpt lat="44.10722210268515" lon="10.412449935979785"><ele>303.5</ele><time>2026-05-01T15:28:46.721Z</time></trkpt><trkpt lat="44.10711235643221" lon="10.41247306175693"><ele>305.75</ele><time>2026-05-01T15:28:47.721Z</time></trkpt><trkpt lat="44.10700568191046" lon="10.412538254779072"><ele>308.0</ele><time>2026-05-01T15:28:48.721Z</time></trkpt><trkpt lat="44.106905030619025" lon="10.412655028218035"><ele>308.0</ele><time>2026-05-01T15:28:49.721Z</time></trkpt><trkpt lat="44.10680683072791" lon="10.412823667000625"><ele>308.0</ele><time>2026-05-01T15:28:50.721Z</time></trkpt><trkpt lat="44.106704011895864" lon="10.413020414883993"><ele>308.0</ele><time>2026-05-01T15:28:51.721Z</time></trkpt><trkpt lat="44.10661055520972" lon="10.413178575321059"><ele>315.8</ele><time>2026-05-01T15:28:52.721Z</time></trkpt><trkpt lat="44.10652559623165" lon="10.413297884968687"><ele>323.6</ele><time>2026-05-01T15:28:53.721Z</time></trkpt><trkpt lat="44.10646375898844" lon="10.41338860823259"><ele>331.40000000000003</ele><time>2026-05-01T15:28:54.721Z</time></trkpt><trkpt lat="44.10641773600836" lon="10.413466421967518"><ele>339.20000000000005</ele><time>2026-05-01T15:28:55.721Z</time></trkpt><trkpt lat="44.10631108515468" lon="10.4133776668344"><ele>347.0</ele><time>2026-05-01T15:28:57.721Z</time></trkpt><trkpt lat="44.10630916001186" lon="10.413285473359744"><ele>347.0</ele><time>2026-05-01T15:28:58.721Z</time></trkpt><trkpt lat="44.106367673728336" lon="10.413113206698663"><ele>347.0</ele><time>2026-05-01T15:29:00.721Z</time></trkpt><trkpt lat="44.10643202962778" lon="10.41300586635519"><ele>347.0</ele><time>2026-05-01T15:29:01.721Z</time></trkpt><trkpt lat="44.106498034004204" lon="10.412894121717427"><ele>347.0</ele><time>2026-05-01T15:29:02.721Z</time></trkpt><trkpt lat="44.106542935342816" lon="10.412765700951537"><ele>347.0</ele><time>2026-05-01T15:29:03.721Z</time></trkpt><trkpt lat="44.1065391161065" lon="10.412646070282022"><ele>344.5</ele><time>2026-05-01T15:29:04.721Z</time></trkpt><trkpt lat="44.1064748064947" lon="10.41251323324837"><ele>342.0</ele><time>2026-05-01T15:29:05.721Z</time></trkpt><trkpt lat="44.10638881994061" lon="10.412413551847976"><ele>339.5</ele><time>2026-05-01T15:29:06.721Z</time></trkpt><trkpt lat="44.10627428073102" lon="10.412363890446587"><ele>337.0</ele><time>2026-05-01T15:29:07.721Z</time></trkpt><trkpt lat="44.106132423478314" lon="10.412332896024342"><ele>337.0</ele><time>2026-05-01T15:29:08.721Z</time></trkpt><trkpt lat="44.10598624079587" lon="10.4123017089215"><ele>337.0</ele><time>2026-05-01T15:29:09.721Z</time></trkpt><trkpt lat="44.10585990412268" lon="10.412238749155149"><ele>337.0</ele><time>2026-05-01T15:29:10.721Z</time></trkpt><trkpt lat="44.10575037683632" lon="10.412190119280167"><ele>337.0</ele><time>2026-05-01T15:29:11.721Z</time></trkpt><trkpt lat="44.10563297720871" lon="10.412123279548997"><ele>337.3333333333333</ele><time>2026-05-01T15:29:12.721Z</time></trkpt><trkpt lat="44.10552748055737" lon="10.411979574375204"><ele>337.6666666666667</ele><time>2026-05-01T15:29:13.721Z</time></trkpt><trkpt lat="44.10542258289594" lon="10.411813850804203"><ele>338.0</ele><time>2026-05-01T15:29:14.721Z</time></trkpt><trkpt lat="44.10530277545514" lon="10.411647805149085"><ele>338.0</ele><time>2026-05-01T15:29:15.721Z</time></trkpt><trkpt lat="44.10515539218855" lon="10.411523899137764"><ele>338.0</ele><time>2026-05-01T15:29:16.721Z</time></trkpt><trkpt lat="44.10499325999278" lon="10.411427270674638"><ele>338.0</ele><time>2026-05-01T15:29:17.72Z</time></trkpt><trkpt lat="44.10480462904255" lon="10.411350894520307"><ele>337.0</ele><time>2026-05-01T15:29:18.72Z</time></trkpt><trkpt lat="44.104628934240324" lon="10.411250566995475"><ele>336.0</ele><time>2026-05-01T15:29:19.72Z</time></trkpt><trkpt lat="44.10448011854475" lon="10.411155453359452"><ele>335.0</ele><time>2026-05-01T15:29:20.72Z</time></trkpt><trkpt lat="44.10435152344345" lon="10.411080309740685"><ele>335.0</ele><time>2026-05-01T15:29:21.72Z</time></trkpt><trkpt lat="44.104222868586454" lon="10.411012111038207"><ele>335.0</ele><time>2026-05-01T15:29:22.72Z</time></trkpt><trkpt lat="44.104087683808004" lon="10.410982892078728"><ele>335.0</ele><time>2026-05-01T15:29:23.72Z</time></trkpt><trkpt lat="44.103957689710256" lon="10.410997469704874"><ele>335.0</ele><time>2026-05-01T15:29:24.72Z</time></trkpt><trkpt lat="44.10381513749833" lon="10.411062669438433"><ele>337.6666666666667</ele><time>2026-05-01T15:29:25.72Z</time></trkpt><trkpt lat="44.103664766897104" lon="10.411172739365425"><ele>340.3333333333333</ele><time>2026-05-01T15:29:26.72Z</time></trkpt><trkpt lat="44.10350419554595" lon="10.411235853112247"><ele>343.0</ele><time>2026-05-01T15:29:27.719Z</time></trkpt><trkpt lat="44.10334558992669" lon="10.411313449880703"><ele>345.66666666666663</ele><time>2026-05-01T15:29:28.72Z</time></trkpt><trkpt lat="44.1031864389346" lon="10.411397617270364"><ele>348.3333333333333</ele><time>2026-05-01T15:29:29.72Z</time></trkpt><trkpt lat="44.103024010695115" lon="10.411484093747951"><ele>351.0</ele><time>2026-05-01T15:29:30.719Z</time></trkpt><trkpt lat="44.10288165602044" lon="10.411620088398928"><ele>351.0</ele><time>2026-05-01T15:29:31.719Z</time></trkpt><trkpt lat="44.10276689804139" lon="10.411796520690343"><ele>351.0</ele><time>2026-05-01T15:29:32.719Z</time></trkpt><trkpt lat="44.10266626200504" lon="10.412004658360386"><ele>351.0</ele><time>2026-05-01T15:29:33.719Z</time></trkpt><trkpt lat="44.102581352298635" lon="10.412230296447728"><ele>348.3333333333333</ele><time>2026-05-01T15:29:34.719Z</time></trkpt><trkpt lat="44.10247513601275" lon="10.412484579201225"><ele>345.66666666666663</ele><time>2026-05-01T15:29:35.719Z</time></trkpt><trkpt lat="44.10235460762389" lon="10.41277005278987"><ele>343.0</ele><time>2026-05-01T15:29:36.719Z</time></trkpt><trkpt lat="44.102252095172155" lon="10.413050292629427"><ele>348.3333333333333</ele><time>2026-05-01T15:29:37.719Z</time></trkpt><trkpt lat="44.10214771497333" lon="10.413305969530848"><ele>353.6666666666667</ele><time>2026-05-01T15:29:38.719Z</time></trkpt><trkpt lat="44.10206678471747" lon="10.413532411034199"><ele>359.0</ele><time>2026-05-01T15:29:39.719Z</time></trkpt><trkpt lat="44.101979399268544" lon="10.413731985062176"><ele>365.6666666666667</ele><time>2026-05-01T15:29:40.719Z</time></trkpt><trkpt lat="44.101875279424284" lon="10.413925684148062"><ele>372.3333333333333</ele><time>2026-05-01T15:29:41.719Z</time></trkpt><trkpt lat="44.10175369527113" lon="10.414107427670166"><ele>379.0</ele><time>2026-05-01T15:29:42.719Z</time></trkpt><trkpt lat="44.101609988695685" lon="10.4142755186118"><ele>380.3333333333333</ele><time>2026-05-01T15:29:43.719Z</time></trkpt><trkpt lat="44.10144214656302" lon="10.414441116527161"><ele>381.6666666666667</ele><time>2026-05-01T15:29:44.719Z</time></trkpt><trkpt lat="44.101273893713255" lon="10.414625339574993"><ele>383.0</ele><time>2026-05-01T15:29:45.719Z</time></trkpt><trkpt lat="44.101109501992084" lon="10.414822659506436"><ele>383.0</ele><time>2026-05-01T15:29:46.719Z</time></trkpt><trkpt lat="44.10094373670301" lon="10.415005755690835"><ele>383.0</ele><time>2026-05-01T15:29:47.719Z</time></trkpt><trkpt lat="44.10077510921076" lon="10.415187732025002"><ele>383.0</ele><time>2026-05-01T15:29:48.719Z</time></trkpt><trkpt lat="44.10060134830979" lon="10.415367870694142"><ele>385.0</ele><time>2026-05-01T15:29:49.719Z</time></trkpt><trkpt lat="44.10043151830819" lon="10.415564694884768"><ele>387.0</ele><time>2026-05-01T15:29:50.719Z</time></trkpt><trkpt lat="44.10026443436434" lon="10.4157582046524"><ele>389.0</ele><time>2026-05-01T15:29:51.719Z</time></trkpt><trkpt lat="44.100098043929094" lon="10.415954924089739"><ele>389.0</ele><time>2026-05-01T15:29:52.719Z</time></trkpt><trkpt lat="44.0999196394695" lon="10.416134550902994"><ele>389.0</ele><time>2026-05-01T15:29:53.719Z</time></trkpt><trkpt lat="44.09975841846339" lon="10.41634075009551"><ele>389.0</ele><time>2026-05-01T15:29:54.719Z</time></trkpt><trkpt lat="44.099618393141995" lon="10.416573022590786"><ele>394.0</ele><time>2026-05-01T15:29:55.719Z</time></trkpt><trkpt lat="44.09947860624112" lon="10.416827615243209"><ele>399.0</ele><time>2026-05-01T15:29:56.719Z</time></trkpt><trkpt lat="44.09933824125113" lon="10.417081856183417"><ele>402.66666666666663</ele><time>2026-05-01T15:29:57.719Z</time></trkpt><trkpt lat="44.09919203795421" lon="10.417319510598377"><ele>406.3333333333333</ele><time>2026-05-01T15:29:58.719Z</time></trkpt><trkpt lat="44.099061139110376" lon="10.417554517542358"><ele>410.0</ele><time>2026-05-01T15:29:59.719Z</time></trkpt><trkpt lat="44.098935673679534" lon="10.417793113826198"><ele>412.0</ele><time>2026-05-01T15:30:00.719Z</time></trkpt><trkpt lat="44.098811193123666" lon="10.41804200090276"><ele>414.0</ele><time>2026-05-01T15:30:01.719Z</time></trkpt><trkpt lat="44.09869204269699" lon="10.418294421096945"><ele>416.0</ele><time>2026-05-01T15:30:02.719Z</time></trkpt><trkpt lat="44.09855808445483" lon="10.418549443385528"><ele>416.0</ele><time>2026-05-01T15:30:03.719Z</time></trkpt><trkpt lat="44.09844275027379" lon="10.418788451229394"><ele>416.0</ele><time>2026-05-01T15:30:04.719Z</time></trkpt><trkpt lat="44.09833768881098" lon="10.419000919032849"><ele>416.0</ele><time>2026-05-01T15:30:05.719Z</time></trkpt><trkpt lat="44.098241558973676" lon="10.419184753340344"><ele>419.4</ele><time>2026-05-01T15:30:06.719Z</time></trkpt><trkpt lat="44.098171243003954" lon="10.419361235519476"><ele>422.8</ele><time>2026-05-01T15:30:07.719Z</time></trkpt><trkpt lat="44.09811932550834" lon="10.419499628366248"><ele>426.19999999999993</ele><time>2026-05-01T15:30:08.719Z</time></trkpt><trkpt lat="44.098062057934946" lon="10.419603832502048"><ele>429.59999999999997</ele><time>2026-05-01T15:30:09.719Z</time></trkpt><trkpt lat="44.09797600373072" lon="10.419657109637326"><ele>433.0</ele><time>2026-05-01T15:30:10.719Z</time></trkpt><trkpt lat="44.09787555855808" lon="10.419653859417863"><ele>433.0</ele><time>2026-05-01T15:30:11.719Z</time></trkpt><trkpt lat="44.09776954694664" lon="10.419672455751346"><ele>433.0</ele><time>2026-05-01T15:30:12.719Z</time></trkpt><trkpt lat="44.09764844385088" lon="10.419645831226822"><ele>433.0</ele><time>2026-05-01T15:30:13.719Z</time></trkpt><trkpt lat="44.097528182929835" lon="10.419613500383548"><ele>433.0</ele><time>2026-05-01T15:30:14.719Z</time></trkpt><trkpt lat="44.09742253591908" lon="10.419522555948642"><ele>439.33333333333337</ele><time>2026-05-01T15:30:15.719Z</time></trkpt><trkpt lat="44.0973151326276" lon="10.41950726115736"><ele>445.66666666666663</ele><time>2026-05-01T15:30:16.719Z</time></trkpt><trkpt lat="44.097247279571654" lon="10.419187324814546"><ele>452.0</ele><time>2026-05-01T15:30:17.719Z</time></trkpt><trkpt lat="44.097176665078756" lon="10.418983153731672"><ele>450.66666666666663</ele><time>2026-05-01T15:30:18.719Z</time></trkpt><trkpt lat="44.09710501708699" lon="10.418788248354868"><ele>449.33333333333337</ele><time>2026-05-01T15:30:19.719Z</time></trkpt><trkpt lat="44.09702122278461" lon="10.418593619457974"><ele>448.0</ele><time>2026-05-01T15:30:20.719Z</time></trkpt><trkpt lat="44.09694508051931" lon="10.418416764338074"><ele>448.0</ele><time>2026-05-01T15:30:21.719Z</time></trkpt><trkpt lat="44.096874549647694" lon="10.418254683530725"><ele>448.0</ele><time>2026-05-01T15:30:22.719Z</time></trkpt><trkpt lat="44.09680770804164" lon="10.41812418323373"><ele>448.0</ele><time>2026-05-01T15:30:23.719Z</time></trkpt><trkpt lat="44.096722538960655" lon="10.418031462475025"><ele>448.0</ele><time>2026-05-01T15:30:24.719Z</time></trkpt><trkpt lat="44.09658904591134" lon="10.417949843951284"><ele>446.75</ele><time>2026-05-01T15:30:25.719Z</time></trkpt><trkpt lat="44.09644765513709" lon="10.417928846835952"><ele>445.5</ele><time>2026-05-01T15:30:26.719Z</time></trkpt><trkpt lat="44.09629337506959" lon="10.417948771201132"><ele>444.25</ele><time>2026-05-01T15:30:27.719Z</time></trkpt><trkpt lat="44.09614181397242" lon="10.41795076158671"><ele>443.0</ele><time>2026-05-01T15:30:28.719Z</time></trkpt><trkpt lat="44.0959802075739" lon="10.417942932097331"><ele>443.0</ele><time>2026-05-01T15:30:29.718Z</time></trkpt><trkpt lat="44.095808073619835" lon="10.417973527370554"><ele>443.0</ele><time>2026-05-01T15:30:30.718Z</time></trkpt><trkpt lat="44.095623189438726" lon="10.418049286529417"><ele>443.0</ele><time>2026-05-01T15:30:31.718Z</time></trkpt><trkpt lat="44.095444399889026" lon="10.41813152290032"><ele>448.0</ele><time>2026-05-01T15:30:32.718Z</time></trkpt><trkpt lat="44.09526951499425" lon="10.418235495520948"><ele>453.0</ele><time>2026-05-01T15:30:33.718Z</time></trkpt><trkpt lat="44.09509507344401" lon="10.41836390369253"><ele>458.0</ele><time>2026-05-01T15:30:34.718Z</time></trkpt><trkpt lat="44.094934861140615" lon="10.418515658701319"><ele>460.66666666666663</ele><time>2026-05-01T15:30:35.718Z</time></trkpt><trkpt lat="44.094786813792" lon="10.418650056133874"><ele>463.33333333333337</ele><time>2026-05-01T15:30:36.718Z</time></trkpt><trkpt lat="44.094633817384505" lon="10.418760236908957"><ele>466.0</ele><time>2026-05-01T15:30:37.718Z</time></trkpt><trkpt lat="44.094499522230535" lon="10.418816626870186"><ele>466.0</ele><time>2026-05-01T15:30:38.718Z</time></trkpt><trkpt lat="44.09437498835412" lon="10.418816448186833"><ele>466.0</ele><time>2026-05-01T15:30:39.718Z</time></trkpt><trkpt lat="44.09426868743894" lon="10.418804259271909"><ele>466.0</ele><time>2026-05-01T15:30:40.718Z</time></trkpt><trkpt lat="44.09417883488236" lon="10.418819375354815"><ele>466.0</ele><time>2026-05-01T15:30:41.718Z</time></trkpt><trkpt lat="44.09416098875749" lon="10.418935661268103"><ele>466.0</ele><time>2026-05-01T15:30:43.718Z</time></trkpt><trkpt lat="44.094197661916" lon="10.419029300816083"><ele>467.8</ele><time>2026-05-01T15:30:44.718Z</time></trkpt><trkpt lat="44.094272424947555" lon="10.419094333125068"><ele>469.6</ele><time>2026-05-01T15:30:45.718Z</time></trkpt><trkpt lat="44.094372315660834" lon="10.419116818922593"><ele>471.4</ele><time>2026-05-01T15:30:46.718Z</time></trkpt><trkpt lat="44.09447929297512" lon="10.419131060194266"><ele>473.2</ele><time>2026-05-01T15:30:47.718Z</time></trkpt><trkpt lat="44.09458198771978" lon="10.419180302523324"><ele>475.0</ele><time>2026-05-01T15:30:48.718Z</time></trkpt><trkpt lat="44.094666298988685" lon="10.419276360994061"><ele>475.0</ele><time>2026-05-01T15:30:49.718Z</time></trkpt><trkpt lat="44.09470452368417" lon="10.419405667349755"><ele>475.0</ele><time>2026-05-01T15:30:50.718Z</time></trkpt><trkpt lat="44.094703606036894" lon="10.419550830874275"><ele>475.0</ele><time>2026-05-01T15:30:51.718Z</time></trkpt><trkpt lat="44.09467671545466" lon="10.41974082324238"><ele>475.0</ele><time>2026-05-01T15:30:52.718Z</time></trkpt><trkpt lat="44.09464175622828" lon="10.419923746125702"><ele>479.25</ele><time>2026-05-01T15:30:53.718Z</time></trkpt><trkpt lat="44.09461128105634" lon="10.420104897828312"><ele>483.5</ele><time>2026-05-01T15:30:54.718Z</time></trkpt><trkpt lat="44.09461705125292" lon="10.420290386231173"><ele>487.75</ele><time>2026-05-01T15:30:55.718Z</time></trkpt><trkpt lat="44.09465048814194" lon="10.420470194052037"><ele>492.0</ele><time>2026-05-01T15:30:56.718Z</time></trkpt><trkpt lat="44.09472926921321" lon="10.420667900183593"><ele>490.0</ele><time>2026-05-01T15:30:57.718Z</time></trkpt><trkpt lat="44.094835764858495" lon="10.420879895740105"><ele>488.0</ele><time>2026-05-01T15:30:58.718Z</time></trkpt><trkpt lat="44.094934683818906" lon="10.421098229774596"><ele>486.0</ele><time>2026-05-01T15:30:59.718Z</time></trkpt><trkpt lat="44.09501564468131" lon="10.421287888939943"><ele>489.33333333333337</ele><time>2026-05-01T15:31:00.718Z</time></trkpt><trkpt lat="44.09510594717013" lon="10.421502534166356"><ele>492.6666666666667</ele><time>2026-05-01T15:31:01.718Z</time></trkpt><trkpt lat="44.09517356429948" lon="10.421689207321933"><ele>496.0</ele><time>2026-05-01T15:31:02.718Z</time></trkpt><trkpt lat="44.0952014142622" lon="10.421865744347837"><ele>496.0</ele><time>2026-05-01T15:31:03.718Z</time></trkpt><trkpt lat="44.09519902687694" lon="10.422040910234143"><ele>496.0</ele><time>2026-05-01T15:31:04.718Z</time></trkpt><trkpt lat="44.09514275782194" lon="10.422207822798237"><ele>496.0</ele><time>2026-05-01T15:31:05.718Z</time></trkpt><trkpt lat="44.09506644019534" lon="10.422374892934524"><ele>496.0</ele><time>2026-05-01T15:31:06.718Z</time></trkpt><trkpt lat="44.094979376166066" lon="10.42255534803333"><ele>496.0</ele><time>2026-05-01T15:31:07.718Z</time></trkpt><trkpt lat="44.09490758377769" lon="10.422713607824656"><ele>496.0</ele><time>2026-05-01T15:31:08.718Z</time></trkpt><trkpt lat="44.094855889455836" lon="10.42287360357401"><ele>496.0</ele><time>2026-05-01T15:31:09.718Z</time></trkpt><trkpt lat="44.09476384745856" lon="10.423022287520068"><ele>496.0</ele><time>2026-05-01T15:31:10.718Z</time></trkpt><trkpt lat="44.09468468454937" lon="10.423140204775207"><ele>496.0</ele><time>2026-05-01T15:31:11.718Z</time></trkpt><trkpt lat="44.09458428456147" lon="10.423226084180547"><ele>496.0</ele><time>2026-05-01T15:31:12.718Z</time></trkpt><trkpt lat="44.09448530105799" lon="10.423299667266289"><ele>496.0</ele><time>2026-05-01T15:31:13.718Z</time></trkpt><trkpt lat="44.09439403386129" lon="10.423380132934636"><ele>496.0</ele><time>2026-05-01T15:31:14.718Z</time></trkpt><trkpt lat="44.09427817079592" lon="10.423459362826753"><ele>496.0</ele><time>2026-05-01T15:31:15.718Z</time></trkpt><trkpt lat="44.09414946964935" lon="10.423492355052279"><ele>496.0</ele><time>2026-05-01T15:31:16.718Z</time></trkpt><trkpt lat="44.09396751638335" lon="10.423260973914138"><ele>496.0</ele><time>2026-05-01T15:31:17.718Z</time></trkpt><trkpt lat="44.09381764375785" lon="10.423337646598632"><ele>495.0</ele><time>2026-05-01T15:31:18.718Z</time></trkpt><trkpt lat="44.09369435300248" lon="10.423406220492602"><ele>494.0</ele><time>2026-05-01T15:31:19.718Z</time></trkpt><trkpt lat="44.09393186321505" lon="10.423285570291865"><ele>493.0</ele><time>2026-05-01T15:31:20.718Z</time></trkpt><trkpt lat="44.093805299827565" lon="10.423352526727"><ele>493.0</ele><time>2026-05-01T15:31:21.718Z</time></trkpt><trkpt lat="44.09369007058535" lon="10.423421982205246"><ele>492.99999999999994</ele><time>2026-05-01T15:31:22.718Z</time></trkpt><trkpt lat="44.09359683949532" lon="10.423479884674348"><ele>492.99999999999994</ele><time>2026-05-01T15:31:23.718Z</time></trkpt><trkpt lat="44.093519820380074" lon="10.42353828998143"><ele>493.0</ele><time>2026-05-01T15:31:24.717Z</time></trkpt><trkpt lat="44.09346940080119" lon="10.423592398799368"><ele>493.0</ele><time>2026-05-01T15:31:25.717Z</time></trkpt><trkpt lat="44.09343126409637" lon="10.423747080808592"><ele>493.00000000000006</ele><time>2026-05-01T15:31:27.716Z</time></trkpt><trkpt lat="44.093439216266376" lon="10.423867279571686"><ele>493.0</ele><time>2026-05-01T15:31:28.716Z</time></trkpt><trkpt lat="44.09346277926012" lon="10.423959576905972"><ele>493.0</ele><time>2026-05-01T15:31:29.716Z</time></trkpt><trkpt lat="44.09350306689304" lon="10.424029040767662"><ele>493.0</ele><time>2026-05-01T15:31:30.716Z</time></trkpt><trkpt lat="44.09346498955512" lon="10.423929998075158"><ele>493.00000000000006</ele><time>2026-05-01T15:31:45.716Z</time></trkpt><trkpt lat="44.0934713040171" lon="10.423731970531383"><ele>493.0</ele><time>2026-05-01T15:31:46.716Z</time></trkpt><trkpt lat="44.093477627326855" lon="10.423628368520417"><ele>493.0</ele><time>2026-05-01T15:31:47.716Z</time></trkpt><trkpt lat="44.09353943689636" lon="10.423527580438233"><ele>493.0</ele><time>2026-05-01T15:31:48.716Z</time></trkpt><trkpt lat="44.093635728652615" lon="10.423467017188377"><ele>493.0</ele><time>2026-05-01T15:31:49.716Z</time></trkpt><trkpt lat="44.09376803996896" lon="10.4234122416466"><ele>493.0</ele><time>2026-05-01T15:31:50.716Z</time></trkpt><trkpt lat="44.09389431482469" lon="10.423351867549986"><ele>493.0</ele><time>2026-05-01T15:31:51.716Z</time></trkpt><trkpt lat="44.09399713437502" lon="10.42330580631171"><ele>493.0</ele><time>2026-05-01T15:31:52.716Z</time></trkpt><trkpt lat="44.09409438235763" lon="10.423268070994515"><ele>493.0</ele><time>2026-05-01T15:31:53.716Z</time></trkpt><trkpt lat="44.094192762126774" lon="10.423223026128431"><ele>493.0</ele><time>2026-05-01T15:31:54.716Z</time></trkpt><trkpt lat="44.09437757982794" lon="10.423175538447932"><ele>493.59999999999997</ele><time>2026-05-01T15:31:56.716Z</time></trkpt><trkpt lat="44.09447944943849" lon="10.42315071513541"><ele>494.19999999999993</ele><time>2026-05-01T15:31:58.716Z</time></trkpt><trkpt lat="44.0944919431517" lon="10.423047997665291"><ele>494.8</ele><time>2026-05-01T15:32:02.716Z</time></trkpt><trkpt lat="44.09439122356762" lon="10.42300024790265"><ele>495.4</ele><time>2026-05-01T15:32:04.715Z</time></trkpt><trkpt lat="44.094285756678524" lon="10.422994202676643"><ele>496.0</ele><time>2026-05-01T15:32:05.715Z</time></trkpt><trkpt lat="44.094193937103604" lon="10.422979813941959"><ele>496.0</ele><time>2026-05-01T15:32:06.715Z</time></trkpt><trkpt lat="44.09409872871107" lon="10.422943728838401"><ele>496.0</ele><time>2026-05-01T15:32:07.715Z</time></trkpt><trkpt lat="44.09399024231283" lon="10.422875531380026"><ele>496.0</ele><time>2026-05-01T15:32:08.715Z</time></trkpt><trkpt lat="44.09387071035749" lon="10.422777864095098"><ele>496.0</ele><time>2026-05-01T15:32:09.715Z</time></trkpt><trkpt lat="44.09374852831236" lon="10.422684442694662"><ele>493.5</ele><time>2026-05-01T15:32:10.715Z</time></trkpt><trkpt lat="44.093630950515724" lon="10.422581356115368"><ele>491.0</ele><time>2026-05-01T15:32:11.715Z</time></trkpt><trkpt lat="44.093520368307516" lon="10.42250596975088"><ele>488.5</ele><time>2026-05-01T15:32:12.715Z</time></trkpt><trkpt lat="44.09339926196959" lon="10.42247158036119"><ele>486.0</ele><time>2026-05-01T15:32:13.715Z</time></trkpt><trkpt lat="44.093283174543636" lon="10.422469494564158"><ele>484.25</ele><time>2026-05-01T15:32:14.715Z</time></trkpt><trkpt lat="44.09316918906525" lon="10.422536241107295"><ele>482.5</ele><time>2026-05-01T15:32:15.715Z</time></trkpt><trkpt lat="44.09304063179511" lon="10.422596814646324"><ele>480.75</ele><time>2026-05-01T15:32:16.715Z</time></trkpt><trkpt lat="44.09291355864882" lon="10.422673896718964"><ele>479.0</ele><time>2026-05-01T15:32:17.715Z</time></trkpt><trkpt lat="44.09277597844884" lon="10.422779923646837"><ele>479.0</ele><time>2026-05-01T15:32:18.715Z</time></trkpt><trkpt lat="44.09264385770159" lon="10.422929535515168"><ele>479.0</ele><time>2026-05-01T15:32:19.715Z</time></trkpt><trkpt lat="44.092467943657866" lon="10.42310549978337"><ele>479.0</ele><time>2026-05-01T15:32:20.715Z</time></trkpt><trkpt lat="44.09229212346011" lon="10.423289649875997"><ele>476.3333333333333</ele><time>2026-05-01T15:32:21.715Z</time></trkpt><trkpt lat="44.09213677008739" lon="10.423472724809487"><ele>473.66666666666663</ele><time>2026-05-01T15:32:22.715Z</time></trkpt><trkpt lat="44.0919896666096" lon="10.423638208252125"><ele>471.0</ele><time>2026-05-01T15:32:23.715Z</time></trkpt><trkpt lat="44.09184162001468" lon="10.423778667071845"><ele>470.0</ele><time>2026-05-01T15:32:24.715Z</time></trkpt><trkpt lat="44.091717251395835" lon="10.423912801128825"><ele>469.0</ele><time>2026-05-01T15:32:25.715Z</time></trkpt><trkpt lat="44.09160037740957" lon="10.42403981743861"><ele>468.0</ele><time>2026-05-01T15:32:26.715Z</time></trkpt><trkpt lat="44.091496894456355" lon="10.42418675817092"><ele>472.0</ele><time>2026-05-01T15:32:27.715Z</time></trkpt><trkpt lat="44.091433332540056" lon="10.424346751946201"><ele>476.0</ele><time>2026-05-01T15:32:28.715Z</time></trkpt><trkpt lat="44.09139893171787" lon="10.42454768699369"><ele>480.0</ele><time>2026-05-01T15:32:29.715Z</time></trkpt><trkpt lat="44.091395047157256" lon="10.424764800911163"><ele>484.0</ele><time>2026-05-01T15:32:30.715Z</time></trkpt><trkpt lat="44.0913824127195" lon="10.424965454174641"><ele>484.0</ele><time>2026-05-01T15:32:31.715Z</time></trkpt><trkpt lat="44.09133684636384" lon="10.42514629481134"><ele>484.0</ele><time>2026-05-01T15:32:32.715Z</time></trkpt><trkpt lat="44.09129789444035" lon="10.425324532624913"><ele>484.0</ele><time>2026-05-01T15:32:33.715Z</time></trkpt><trkpt lat="44.091197052650344" lon="10.425461838100718"><ele>484.0</ele><time>2026-05-01T15:32:34.715Z</time></trkpt><trkpt lat="44.091105937533335" lon="10.42561584084603"><ele>480.5</ele><time>2026-05-01T15:32:35.715Z</time></trkpt><trkpt lat="44.091016188979815" lon="10.425775568210847"><ele>477.0</ele><time>2026-05-01T15:32:36.715Z</time></trkpt><trkpt lat="44.09093463507099" lon="10.425937279264438"><ele>473.5</ele><time>2026-05-01T15:32:37.715Z</time></trkpt><trkpt lat="44.09089536603202" lon="10.426135646347685"><ele>470.0</ele><time>2026-05-01T15:32:38.715Z</time></trkpt><trkpt lat="44.090868077375426" lon="10.426338731584858"><ele>466.75</ele><time>2026-05-01T15:32:39.715Z</time></trkpt><trkpt lat="44.09082664316339" lon="10.426534280928799"><ele>463.5</ele><time>2026-05-01T15:32:40.715Z</time></trkpt><trkpt lat="44.09075981002093" lon="10.426729729020698"><ele>460.25</ele><time>2026-05-01T15:32:41.715Z</time></trkpt><trkpt lat="44.09068245881667" lon="10.42689362643276"><ele>457.0</ele><time>2026-05-01T15:32:42.715Z</time></trkpt><trkpt lat="44.09059375255391" lon="10.427057987069452"><ele>459.75</ele><time>2026-05-01T15:32:43.715Z</time></trkpt><trkpt lat="44.09049765574188" lon="10.427233795475155"><ele>462.5</ele><time>2026-05-01T15:32:44.715Z</time></trkpt><trkpt lat="44.09042158258892" lon="10.42740948725333"><ele>465.25</ele><time>2026-05-01T15:32:45.715Z</time></trkpt><trkpt lat="44.09034336178142" lon="10.427568215803038"><ele>468.0</ele><time>2026-05-01T15:32:46.715Z</time></trkpt><trkpt lat="44.09028112256856" lon="10.427719293976278"><ele>468.0</ele><time>2026-05-01T15:32:47.715Z</time></trkpt><trkpt lat="44.09024182241321" lon="10.42790035027447"><ele>468.0</ele><time>2026-05-01T15:32:48.715Z</time></trkpt><trkpt lat="44.09020856295564" lon="10.428090576279414"><ele>468.0</ele><time>2026-05-01T15:32:49.715Z</time></trkpt><trkpt lat="44.090152160184736" lon="10.428270949780345"><ele>468.0</ele><time>2026-05-01T15:32:50.715Z</time></trkpt><trkpt lat="44.09005281118659" lon="10.428426497337089"><ele>469.33333333333337</ele><time>2026-05-01T15:32:51.715Z</time></trkpt><trkpt lat="44.08994742935898" lon="10.428591962781626"><ele>470.6666666666667</ele><time>2026-05-01T15:32:52.715Z</time></trkpt><trkpt lat="44.0898285365057" lon="10.428764380013542"><ele>472.0</ele><time>2026-05-01T15:32:53.715Z</time></trkpt><trkpt lat="44.08973128634581" lon="10.428939070382757"><ele>468.75</ele><time>2026-05-01T15:32:54.715Z</time></trkpt><trkpt lat="44.08962920933985" lon="10.429088592908805"><ele>465.5</ele><time>2026-05-01T15:32:55.715Z</time></trkpt><trkpt lat="44.089548020738015" lon="10.429232489826424"><ele>462.25</ele><time>2026-05-01T15:32:56.715Z</time></trkpt><trkpt lat="44.08952569369358" lon="10.42940917344915"><ele>459.0</ele><time>2026-05-01T15:32:57.715Z</time></trkpt><trkpt lat="44.08953660893584" lon="10.42958483742641"><ele>457.25</ele><time>2026-05-01T15:32:58.715Z</time></trkpt><trkpt lat="44.08958511056267" lon="10.4297483635036"><ele>455.5</ele><time>2026-05-01T15:32:59.715Z</time></trkpt><trkpt lat="44.08967893629659" lon="10.429899415836818"><ele>453.75</ele><time>2026-05-01T15:33:00.715Z</time></trkpt><trkpt lat="44.08980418408624" lon="10.430070300780395"><ele>452.0</ele><time>2026-05-01T15:33:01.715Z</time></trkpt><trkpt lat="44.08993083771929" lon="10.430262142441276"><ele>449.8</ele><time>2026-05-01T15:33:02.715Z</time></trkpt><trkpt lat="44.090038248187994" lon="10.430422771551388"><ele>447.6</ele><time>2026-05-01T15:33:03.714Z</time></trkpt><trkpt lat="44.09011579839908" lon="10.43054167169384"><ele>445.40000000000003</ele><time>2026-05-01T15:33:04.714Z</time></trkpt><trkpt lat="44.09014673093338" lon="10.430647202448359"><ele>443.20000000000005</ele><time>2026-05-01T15:33:05.714Z</time></trkpt><trkpt lat="44.090167420910106" lon="10.430755236065764"><ele>441.0</ele><time>2026-05-01T15:33:06.714Z</time></trkpt><trkpt lat="44.09013954231346" lon="10.43085723882668"><ele>440.4</ele><time>2026-05-01T15:33:07.714Z</time></trkpt><trkpt lat="44.09006180461348" lon="10.430951703200149"><ele>439.8</ele><time>2026-05-01T15:33:08.714Z</time></trkpt><trkpt lat="44.08997106548689" lon="10.430997893158342"><ele>439.19999999999993</ele><time>2026-05-01T15:33:09.714Z</time></trkpt><trkpt lat="44.0898743284875" lon="10.43096577579207"><ele>438.59999999999997</ele><time>2026-05-01T15:33:10.714Z</time></trkpt><trkpt lat="44.08976176951875" lon="10.430875938548406"><ele>438.0</ele><time>2026-05-01T15:33:11.714Z</time></trkpt><trkpt lat="44.089628484209115" lon="10.430788243845035"><ele>434.66666666666663</ele><time>2026-05-01T15:33:12.714Z</time></trkpt><trkpt lat="44.0894759060774" lon="10.430723464627867"><ele>431.3333333333333</ele><time>2026-05-01T15:33:13.714Z</time></trkpt><trkpt lat="44.08928613416474" lon="10.430690508953884"><ele>428.0</ele><time>2026-05-01T15:33:14.714Z</time></trkpt><trkpt lat="44.089092769839645" lon="10.430694528568026"><ele>425.0</ele><time>2026-05-01T15:33:15.714Z</time></trkpt><trkpt lat="44.088901725773745" lon="10.430718377541352"><ele>422.0</ele><time>2026-05-01T15:33:16.714Z</time></trkpt><trkpt lat="44.08872400711181" lon="10.430731714300663"><ele>419.0</ele><time>2026-05-01T15:33:17.714Z</time></trkpt><trkpt lat="44.088564393907156" lon="10.430722532562122"><ele>419.0</ele><time>2026-05-01T15:33:18.714Z</time></trkpt><trkpt lat="44.088428079616996" lon="10.43072094597588"><ele>419.0</ele><time>2026-05-01T15:33:19.714Z</time></trkpt><trkpt lat="44.08831057260528" lon="10.430752142179129"><ele>419.0</ele><time>2026-05-01T15:33:20.714Z</time></trkpt><trkpt lat="44.08819573090175" lon="10.430818423124773"><ele>419.0</ele><time>2026-05-01T15:33:21.714Z</time></trkpt><trkpt lat="44.08809704164612" lon="10.430937023063978"><ele>418.0</ele><time>2026-05-01T15:33:22.714Z</time></trkpt><trkpt lat="44.088010960232566" lon="10.431094156155616"><ele>417.0</ele><time>2026-05-01T15:33:23.714Z</time></trkpt><trkpt lat="44.087942834338975" lon="10.431283789152328"><ele>416.0</ele><time>2026-05-01T15:33:24.714Z</time></trkpt><trkpt lat="44.08788960345114" lon="10.43146356595694"><ele>415.0</ele><time>2026-05-01T15:33:25.714Z</time></trkpt><trkpt lat="44.087829958592536" lon="10.431616224230178"><ele>414.75</ele><time>2026-05-01T15:33:26.714Z</time></trkpt><trkpt lat="44.08776594112052" lon="10.431757801567985"><ele>414.5</ele><time>2026-05-01T15:33:27.714Z</time></trkpt><trkpt lat="44.08767580555211" lon="10.431868878033619"><ele>414.25</ele><time>2026-05-01T15:33:28.714Z</time></trkpt><trkpt lat="44.08755703408092" lon="10.431922486965437"><ele>414.0</ele><time>2026-05-01T15:33:29.714Z</time></trkpt><trkpt lat="44.08743410681" lon="10.431930945789153"><ele>411.5</ele><time>2026-05-01T15:33:30.714Z</time></trkpt><trkpt lat="44.08731080793318" lon="10.431936125434452"><ele>409.0</ele><time>2026-05-01T15:33:31.714Z</time></trkpt><trkpt lat="44.08720300510246" lon="10.431871095622077"><ele>406.5</ele><time>2026-05-01T15:33:32.714Z</time></trkpt><trkpt lat="44.08710677552558" lon="10.431762216874699"><ele>404.0</ele><time>2026-05-01T15:33:33.714Z</time></trkpt><trkpt lat="44.08699924654965" lon="10.431643865795671"><ele>404.0</ele><time>2026-05-01T15:33:34.714Z</time></trkpt><trkpt lat="44.0868991674623" lon="10.431535960762243"><ele>404.0</ele><time>2026-05-01T15:33:35.714Z</time></trkpt><trkpt lat="44.08680169568921" lon="10.43143364421191"><ele>404.0</ele><time>2026-05-01T15:33:36.714Z</time></trkpt><trkpt lat="44.08670779190456" lon="10.431327435659782"><ele>404.0</ele><time>2026-05-01T15:33:37.714Z</time></trkpt><trkpt lat="44.08662020396939" lon="10.431235865136264"><ele>401.0</ele><time>2026-05-01T15:33:38.714Z</time></trkpt><trkpt lat="44.08654704131914" lon="10.431147941523054"><ele>398.0</ele><time>2026-05-01T15:33:39.713Z</time></trkpt><trkpt lat="44.086488786826045" lon="10.431047195564565"><ele>395.0</ele><time>2026-05-01T15:33:40.714Z</time></trkpt><trkpt lat="44.086466487440646" lon="10.43093060448545"><ele>392.0</ele><time>2026-05-01T15:33:41.714Z</time></trkpt><trkpt lat="44.0864664928418" lon="10.430781477594929"><ele>389.0</ele><time>2026-05-01T15:33:42.714Z</time></trkpt><trkpt lat="44.08648783699852" lon="10.430621634378832"><ele>390.75</ele><time>2026-05-01T15:33:43.714Z</time></trkpt><trkpt lat="44.08648565325916" lon="10.430471801157504"><ele>392.5</ele><time>2026-05-01T15:33:44.714Z</time></trkpt><trkpt lat="44.086464605746464" lon="10.430327684249466"><ele>394.25</ele><time>2026-05-01T15:33:45.713Z</time></trkpt><trkpt lat="44.08641020409209" lon="10.43019123722229"><ele>396.0</ele><time>2026-05-01T15:33:46.713Z</time></trkpt><trkpt lat="44.08631923096934" lon="10.430070208427558"><ele>396.0</ele><time>2026-05-01T15:33:47.713Z</time></trkpt><trkpt lat="44.08622275983885" lon="10.429976148480282"><ele>396.0</ele><time>2026-05-01T15:33:48.713Z</time></trkpt><trkpt lat="44.08610831880565" lon="10.429904050810668"><ele>396.0</ele><time>2026-05-01T15:33:49.713Z</time></trkpt><trkpt lat="44.08598056470267" lon="10.429852385464978"><ele>396.0</ele><time>2026-05-01T15:33:50.713Z</time></trkpt><trkpt lat="44.08584199708819" lon="10.429831737081171"><ele>395.0</ele><time>2026-05-01T15:33:51.713Z</time></trkpt><trkpt lat="44.085695846671996" lon="10.429858687805984"><ele>394.0</ele><time>2026-05-01T15:33:52.713Z</time></trkpt><trkpt lat="44.08554994920641" lon="10.429940738158358"><ele>393.0</ele><time>2026-05-01T15:33:53.713Z</time></trkpt><trkpt lat="44.08539306180689" lon="10.430046624971558"><ele>393.0</ele><time>2026-05-01T15:33:54.713Z</time></trkpt><trkpt lat="44.08526463103453" lon="10.430132276274056"><ele>393.0</ele><time>2026-05-01T15:33:55.713Z</time></trkpt><trkpt lat="44.085129143045165" lon="10.430188509947106"><ele>393.0</ele><time>2026-05-01T15:33:56.713Z</time></trkpt><trkpt lat="44.084998269349946" lon="10.430210954951276"><ele>393.0</ele><time>2026-05-01T15:33:57.713Z</time></trkpt><trkpt lat="44.08486861303904" lon="10.430156371254245"><ele>389.0</ele><time>2026-05-01T15:33:58.713Z</time></trkpt><trkpt lat="44.08471586073837" lon="10.43011939759386"><ele>385.0</ele><time>2026-05-01T15:33:59.713Z</time></trkpt><trkpt lat="44.08455196808275" lon="10.430057888408331"><ele>381.0</ele><time>2026-05-01T15:34:00.713Z</time></trkpt><trkpt lat="44.08439779785631" lon="10.430003254076826"><ele>381.0</ele><time>2026-05-01T15:34:01.713Z</time></trkpt><trkpt lat="44.0842359378444" lon="10.429947648647282"><ele>381.0</ele><time>2026-05-01T15:34:02.713Z</time></trkpt><trkpt lat="44.0840660751679" lon="10.429891769803087"><ele>381.0</ele><time>2026-05-01T15:34:03.713Z</time></trkpt><trkpt lat="44.08388662257758" lon="10.429831811179147"><ele>378.3333333333333</ele><time>2026-05-01T15:34:04.713Z</time></trkpt><trkpt lat="44.083708194469466" lon="10.429763749684971"><ele>375.66666666666663</ele><time>2026-05-01T15:34:05.713Z</time></trkpt><trkpt lat="44.0835173894517" lon="10.429696902231331"><ele>373.0</ele><time>2026-05-01T15:34:06.713Z</time></trkpt><trkpt lat="44.083407259448954" lon="10.429673350066555"><ele>371.66666666666663</ele><time>2026-05-01T15:34:07.713Z</time></trkpt><trkpt lat="44.08323347378862" lon="10.429683811382725"><ele>370.3333333333333</ele><time>2026-05-01T15:34:08.713Z</time></trkpt><trkpt lat="44.0830529542548" lon="10.429737401107232"><ele>369.0</ele><time>2026-05-01T15:34:09.713Z</time></trkpt><trkpt lat="44.08287520762904" lon="10.429818713294562"><ele>369.0</ele><time>2026-05-01T15:34:10.713Z</time></trkpt><trkpt lat="44.082707371284414" lon="10.429891156159595"><ele>369.0</ele><time>2026-05-01T15:34:11.713Z</time></trkpt><trkpt lat="44.08254695852102" lon="10.429952449665361"><ele>369.0</ele><time>2026-05-01T15:34:12.713Z</time></trkpt><trkpt lat="44.08239842173966" lon="10.430012725928663"><ele>369.25</ele><time>2026-05-01T15:34:13.713Z</time></trkpt><trkpt lat="44.08225015756225" lon="10.430084553973193"><ele>369.5</ele><time>2026-05-01T15:34:14.713Z</time></trkpt><trkpt lat="44.082131555937686" lon="10.43015684985777"><ele>369.75</ele><time>2026-05-01T15:34:15.713Z</time></trkpt><trkpt lat="44.082014017370085" lon="10.43026492636859"><ele>370.0</ele><time>2026-05-01T15:34:16.713Z</time></trkpt><trkpt lat="44.08190926238384" lon="10.430385695781757"><ele>368.25</ele><time>2026-05-01T15:34:17.713Z</time></trkpt><trkpt lat="44.08180419540582" lon="10.430525338848874"><ele>366.5</ele><time>2026-05-01T15:34:18.713Z</time></trkpt><trkpt lat="44.081703079394075" lon="10.430674582174063"><ele>364.75</ele><time>2026-05-01T15:34:19.713Z</time></trkpt><trkpt lat="44.08159605103038" lon="10.430833724471466"><ele>363.0</ele><time>2026-05-01T15:34:20.713Z</time></trkpt><trkpt lat="44.08149751541736" lon="10.430988217510333"><ele>363.0</ele><time>2026-05-01T15:34:21.713Z</time></trkpt><trkpt lat="44.08138336748162" lon="10.431111615962077"><ele>363.0</ele><time>2026-05-01T15:34:22.713Z</time></trkpt><trkpt lat="44.0812545458725" lon="10.431224493526882"><ele>363.0</ele><time>2026-05-01T15:34:23.713Z</time></trkpt><trkpt lat="44.08111481071612" lon="10.431328609045975"><ele>360.0</ele><time>2026-05-01T15:34:24.713Z</time></trkpt><trkpt lat="44.080981285702656" lon="10.43143157533462"><ele>357.0</ele><time>2026-05-01T15:34:25.713Z</time></trkpt><trkpt lat="44.0808443454078" lon="10.431513296040658"><ele>354.0</ele><time>2026-05-01T15:34:26.713Z</time></trkpt><trkpt lat="44.08072482269614" lon="10.431651879496206"><ele>354.0</ele><time>2026-05-01T15:34:27.713Z</time></trkpt><trkpt lat="44.08059480879567" lon="10.431783888067555"><ele>354.0</ele><time>2026-05-01T15:34:28.713Z</time></trkpt><trkpt lat="44.08046140578728" lon="10.431913218421958"><ele>354.0</ele><time>2026-05-01T15:34:29.713Z</time></trkpt><trkpt lat="44.08033610837868" lon="10.432039114593485"><ele>351.5</ele><time>2026-05-01T15:34:30.713Z</time></trkpt><trkpt lat="44.080231602663574" lon="10.432179216513035"><ele>349.0</ele><time>2026-05-01T15:34:31.713Z</time></trkpt><trkpt lat="44.08015940703907" lon="10.432343487762079"><ele>346.5</ele><time>2026-05-01T15:34:32.713Z</time></trkpt><trkpt lat="44.08010838126816" lon="10.432530613893904"><ele>344.0</ele><time>2026-05-01T15:34:33.713Z</time></trkpt><trkpt lat="44.080074255312866" lon="10.432751577638046"><ele>344.0</ele><time>2026-05-01T15:34:34.713Z</time></trkpt><trkpt lat="44.08006669432399" lon="10.43295894193833"><ele>344.0</ele><time>2026-05-01T15:34:35.713Z</time></trkpt><trkpt lat="44.080063818928586" lon="10.433165147284193"><ele>344.0</ele><time>2026-05-01T15:34:36.713Z</time></trkpt><trkpt lat="44.08007520169506" lon="10.433370538388502"><ele>344.0</ele><time>2026-05-01T15:34:37.713Z</time></trkpt><trkpt lat="44.08007445595954" lon="10.433564501740126"><ele>343.0</ele><time>2026-05-01T15:34:38.713Z</time></trkpt><trkpt lat="44.08008850504996" lon="10.433754115784971"><ele>342.0</ele><time>2026-05-01T15:34:39.713Z</time></trkpt><trkpt lat="44.080134435531996" lon="10.433949855473104"><ele>341.0</ele><time>2026-05-01T15:34:40.713Z</time></trkpt><trkpt lat="44.080208832650165" lon="10.43412857416519"><ele>340.0</ele><time>2026-05-01T15:34:41.713Z</time></trkpt><trkpt lat="44.08029833735612" lon="10.434275316182767"><ele>339.25</ele><time>2026-05-01T15:34:42.713Z</time></trkpt><trkpt lat="44.080376656983205" lon="10.434417462589115"><ele>338.5</ele><time>2026-05-01T15:34:43.713Z</time></trkpt><trkpt lat="44.08039589581863" lon="10.434584801172477"><ele>337.75</ele><time>2026-05-01T15:34:44.712Z</time></trkpt><trkpt lat="44.080387359679534" lon="10.434743657408443"><ele>337.0</ele><time>2026-05-01T15:34:45.712Z</time></trkpt><trkpt lat="44.08038227175526" lon="10.434916379274439"><ele>335.5</ele><time>2026-05-01T15:34:46.712Z</time></trkpt><trkpt lat="44.0803765648561" lon="10.435108039704339"><ele>334.0</ele><time>2026-05-01T15:34:47.712Z</time></trkpt><trkpt lat="44.08037535776481" lon="10.435278482511182"><ele>332.5</ele><time>2026-05-01T15:34:48.712Z</time></trkpt><trkpt lat="44.08035273694739" lon="10.435412876407545"><ele>331.0</ele><time>2026-05-01T15:34:49.712Z</time></trkpt><trkpt lat="44.0803148476251" lon="10.43552992281354"><ele>329.8</ele><time>2026-05-01T15:34:50.712Z</time></trkpt><trkpt lat="44.08024649323708" lon="10.435616296234407"><ele>328.6</ele><time>2026-05-01T15:34:51.712Z</time></trkpt><trkpt lat="44.08015405765874" lon="10.43564652423261"><ele>327.4</ele><time>2026-05-01T15:34:52.712Z</time></trkpt><trkpt lat="44.080051280887545" lon="10.435587434573499"><ele>326.2</ele><time>2026-05-01T15:34:53.712Z</time></trkpt><trkpt lat="44.0799443081889" lon="10.43549185617673"><ele>325.0</ele><time>2026-05-01T15:34:54.712Z</time></trkpt><trkpt lat="44.079815718712815" lon="10.435393256257054"><ele>325.0</ele><time>2026-05-01T15:34:55.712Z</time></trkpt><trkpt lat="44.079691083073634" lon="10.43532010153399"><ele>325.0</ele><time>2026-05-01T15:34:56.712Z</time></trkpt><trkpt lat="44.07957264706375" lon="10.435271982311662"><ele>325.0</ele><time>2026-05-01T15:34:57.712Z</time></trkpt><trkpt lat="44.07945110381878" lon="10.435271242300692"><ele>325.0</ele><time>2026-05-01T15:34:58.712Z</time></trkpt><trkpt lat="44.079341769789906" lon="10.435332253313598"><ele>325.0</ele><time>2026-05-01T15:34:59.712Z</time></trkpt><trkpt lat="44.07925255407245" lon="10.435442067886981"><ele>325.0</ele><time>2026-05-01T15:35:00.712Z</time></trkpt><trkpt lat="44.079185747652595" lon="10.435582163903794"><ele>325.0</ele><time>2026-05-01T15:35:01.712Z</time></trkpt><trkpt lat="44.07910827155788" lon="10.435669998249152"><ele>325.0</ele><time>2026-05-01T15:35:02.712Z</time></trkpt><trkpt lat="44.079047480229725" lon="10.43575584911415"><ele>325.0</ele><time>2026-05-01T15:35:03.712Z</time></trkpt><trkpt lat="44.07895937792596" lon="10.435738970217663"><ele>322.2</ele><time>2026-05-01T15:35:04.712Z</time></trkpt><trkpt lat="44.07886044948914" lon="10.43571959140368"><ele>319.4</ele><time>2026-05-01T15:35:05.712Z</time></trkpt><trkpt lat="44.07876848440757" lon="10.435663849111767"><ele>316.6</ele><time>2026-05-01T15:35:06.712Z</time></trkpt><trkpt lat="44.07871992496382" lon="10.43553923368452"><ele>313.8</ele><time>2026-05-01T15:35:07.712Z</time></trkpt><trkpt lat="44.07867296124289" lon="10.435399567877269"><ele>311.0</ele><time>2026-05-01T15:35:08.712Z</time></trkpt><trkpt lat="44.07861395041794" lon="10.435199284142213"><ele>311.0</ele><time>2026-05-01T15:35:09.712Z</time></trkpt><trkpt lat="44.07855874147988" lon="10.43500522945291"><ele>311.0</ele><time>2026-05-01T15:35:10.712Z</time></trkpt><trkpt lat="44.078510821549415" lon="10.434839502313208"><ele>311.0</ele><time>2026-05-01T15:35:11.712Z</time></trkpt><trkpt lat="44.078449403284225" lon="10.434690850679464"><ele>311.0</ele><time>2026-05-01T15:35:12.712Z</time></trkpt><trkpt lat="44.078413995615335" lon="10.43453032644148"><ele>312.0</ele><time>2026-05-01T15:35:13.712Z</time></trkpt><trkpt lat="44.07836969038972" lon="10.434407689575403"><ele>313.0</ele><time>2026-05-01T15:35:14.712Z</time></trkpt><trkpt lat="44.07832164554967" lon="10.43430807432061"><ele>314.0</ele><time>2026-05-01T15:35:15.712Z</time></trkpt><trkpt lat="44.07825054590656" lon="10.434258773237897"><ele>315.0</ele><time>2026-05-01T15:35:16.712Z</time></trkpt><trkpt lat="44.078168511647625" lon="10.43427188283596"><ele>316.0</ele><time>2026-05-01T15:35:17.712Z</time></trkpt><trkpt lat="44.078095590096424" lon="10.434335031945878"><ele>317.0</ele><time>2026-05-01T15:35:18.712Z</time></trkpt><trkpt lat="44.07806051914281" lon="10.434445205368407"><ele>313.25</ele><time>2026-05-01T15:35:19.712Z</time></trkpt><trkpt lat="44.078060200321666" lon="10.434562954339079"><ele>309.5</ele><time>2026-05-01T15:35:20.712Z</time></trkpt><trkpt lat="44.078109702422715" lon="10.434695190429302"><ele>305.75</ele><time>2026-05-01T15:35:21.712Z</time></trkpt><trkpt lat="44.07818420584853" lon="10.434844679738104"><ele>302.0</ele><time>2026-05-01T15:35:22.712Z</time></trkpt><trkpt lat="44.07825014954062" lon="10.434998935617884"><ele>304.25</ele><time>2026-05-01T15:35:23.712Z</time></trkpt><trkpt lat="44.078279641270576" lon="10.435156949910786"><ele>306.5</ele><time>2026-05-01T15:35:24.712Z</time></trkpt><trkpt lat="44.07824815692995" lon="10.435316237454705"><ele>308.75</ele><time>2026-05-01T15:35:25.712Z</time></trkpt><trkpt lat="44.07820422235312" lon="10.435461907949763"><ele>311.0</ele><time>2026-05-01T15:35:26.712Z</time></trkpt><trkpt lat="44.07812887288493" lon="10.435588883960571"><ele>306.2</ele><time>2026-05-01T15:35:27.712Z</time></trkpt><trkpt lat="44.078031571539775" lon="10.435671695130278"><ele>301.40000000000003</ele><time>2026-05-01T15:35:28.712Z</time></trkpt><trkpt lat="44.07792374834857" lon="10.435727502997802"><ele>296.6</ele><time>2026-05-01T15:35:29.712Z</time></trkpt><trkpt lat="44.07782059930243" lon="10.435795472930849"><ele>291.8</ele><time>2026-05-01T15:35:30.712Z</time></trkpt><trkpt lat="44.077722446613464" lon="10.435850424225164"><ele>287.0</ele><time>2026-05-01T15:35:31.712Z</time></trkpt><trkpt lat="44.07765510689943" lon="10.435943551736601"><ele>287.0</ele><time>2026-05-01T15:35:32.712Z</time></trkpt><trkpt lat="44.0776238139283" lon="10.4360455543693"><ele>287.0</ele><time>2026-05-01T15:35:33.712Z</time></trkpt><trkpt lat="44.077635858963916" lon="10.436160125818683"><ele>287.0</ele><time>2026-05-01T15:35:34.712Z</time></trkpt><trkpt lat="44.077683218355794" lon="10.436270851456694"><ele>287.0</ele><time>2026-05-01T15:35:35.712Z</time></trkpt><trkpt lat="44.077751393796106" lon="10.436370883284724"><ele>287.0</ele><time>2026-05-01T15:35:36.812Z</time></trkpt><trkpt lat="44.07781660219147" lon="10.436459111176989"><ele>287.0</ele><time>2026-05-01T15:35:37.811Z</time></trkpt><trkpt lat="44.0778641820464" lon="10.436565899274704"><ele>287.0</ele><time>2026-05-01T15:35:39.811Z</time></trkpt><trkpt lat="44.07776504873524" lon="10.43662227905636"><ele>287.0</ele><time>2026-05-01T15:35:41.812Z</time></trkpt><trkpt lat="44.07770658185496" lon="10.43654919016439"><ele>287.0</ele><time>2026-05-01T15:35:42.812Z</time></trkpt><trkpt lat="44.077680590307146" lon="10.436421817020802"><ele>287.0</ele><time>2026-05-01T15:35:43.811Z</time></trkpt><trkpt lat="44.07761070879625" lon="10.436305092333987"><ele>287.0</ele><time>2026-05-01T15:35:44.811Z</time></trkpt><trkpt lat="44.07754093920247" lon="10.43619774703393"><ele>287.0</ele><time>2026-05-01T15:35:45.812Z</time></trkpt><trkpt lat="44.07744322123892" lon="10.436118673116027"><ele>287.0</ele><time>2026-05-01T15:35:46.812Z</time></trkpt><trkpt lat="44.077340465776196" lon="10.43605556831963"><ele>287.0</ele><time>2026-05-01T15:35:47.812Z</time></trkpt><trkpt lat="44.077253393570416" lon="10.435983430614712"><ele>287.0</ele><time>2026-05-01T15:35:48.811Z</time></trkpt><trkpt lat="44.07716545493618" lon="10.435907194527983"><ele>287.0</ele><time>2026-05-01T15:35:49.811Z</time></trkpt><trkpt lat="44.077086700806085" lon="10.435803955059805"><ele>285.0</ele><time>2026-05-01T15:35:50.811Z</time></trkpt><trkpt lat="44.07702955644521" lon="10.435672780005335"><ele>283.0</ele><time>2026-05-01T15:35:51.811Z</time></trkpt><trkpt lat="44.0769986060539" lon="10.435507488165841"><ele>281.0</ele><time>2026-05-01T15:35:52.811Z</time></trkpt><trkpt lat="44.07698541977166" lon="10.435364749647368"><ele>279.0</ele><time>2026-05-01T15:35:53.811Z</time></trkpt><trkpt lat="44.07696079742289" lon="10.435269928593991"><ele>277.0</ele><time>2026-05-01T15:35:54.811Z</time></trkpt><trkpt lat="44.07691194736618" lon="10.435214576694191"><ele>277.0</ele><time>2026-05-01T15:35:55.811Z</time></trkpt><trkpt lat="44.07685263761396" lon="10.435178941419748"><ele>277.0</ele><time>2026-05-01T15:35:56.811Z</time></trkpt><trkpt lat="44.07676111140169" lon="10.435230116402042"><ele>277.0</ele><time>2026-05-01T15:35:57.811Z</time></trkpt><trkpt lat="44.07672171451802" lon="10.435361051081772"><ele>277.0</ele><time>2026-05-01T15:35:58.811Z</time></trkpt><trkpt lat="44.0767189283834" lon="10.43549153043568"><ele>277.0</ele><time>2026-05-01T15:35:59.811Z</time></trkpt><trkpt lat="44.07673122646715" lon="10.435637188539804"><ele>275.0</ele><time>2026-05-01T15:36:00.811Z</time></trkpt><trkpt lat="44.0767539424998" lon="10.435784294773141"><ele>273.0</ele><time>2026-05-01T15:36:01.811Z</time></trkpt><trkpt lat="44.07679361184094" lon="10.435922038028544"><ele>271.0</ele><time>2026-05-01T15:36:02.811Z</time></trkpt><trkpt lat="44.0768534547804" lon="10.436045741396487"><ele>269.0</ele><time>2026-05-01T15:36:03.811Z</time></trkpt><trkpt lat="44.07693647537725" lon="10.436154733059151"><ele>267.0</ele><time>2026-05-01T15:36:04.811Z</time></trkpt><trkpt lat="44.07701793574317" lon="10.43623311352184"><ele>267.0</ele><time>2026-05-01T15:36:05.811Z</time></trkpt><trkpt lat="44.07709935777672" lon="10.436291447154389"><ele>267.0</ele><time>2026-05-01T15:36:06.811Z</time></trkpt><trkpt lat="44.07718687120011" lon="10.436365232139819"><ele>267.0</ele><time>2026-05-01T15:36:07.811Z</time></trkpt><trkpt lat="44.07727135841684" lon="10.436446569676535"><ele>267.0</ele><time>2026-05-01T15:36:08.811Z</time></trkpt><trkpt lat="44.07734345023591" lon="10.436541302063636"><ele>267.0</ele><time>2026-05-01T15:36:09.811Z</time></trkpt><trkpt lat="44.07740292326257" lon="10.436640932219344"><ele>267.0</ele><time>2026-05-01T15:36:10.811Z</time></trkpt><trkpt lat="44.07745540781933" lon="10.436745045882647"><ele>267.0</ele><time>2026-05-01T15:36:11.811Z</time></trkpt><trkpt lat="44.07748572016628" lon="10.436891712524805"><ele>267.0</ele><time>2026-05-01T15:36:12.811Z</time></trkpt><trkpt lat="44.07751412759789" lon="10.437016739084257"><ele>267.0</ele><time>2026-05-01T15:36:13.811Z</time></trkpt><trkpt lat="44.07754124700847" lon="10.437150749737706"><ele>267.0</ele><time>2026-05-01T15:36:14.811Z</time></trkpt><trkpt lat="44.07757280077526" lon="10.437295492644791"><ele>267.0</ele><time>2026-05-01T15:36:15.811Z</time></trkpt><trkpt lat="44.07761708975977" lon="10.437442791495352"><ele>267.0</ele><time>2026-05-01T15:36:16.811Z</time></trkpt><trkpt lat="44.0776651259504" lon="10.437596479599819"><ele>267.0</ele><time>2026-05-01T15:36:17.811Z</time></trkpt><trkpt lat="44.077732987412936" lon="10.437728759176549"><ele>267.0</ele><time>2026-05-01T15:36:18.811Z</time></trkpt><trkpt lat="44.0778021138857" lon="10.437832133428444"><ele>267.0</ele><time>2026-05-01T15:36:19.811Z</time></trkpt><trkpt lat="44.077844138374694" lon="10.437932895678069"><ele>267.0</ele><time>2026-05-01T15:36:20.811Z</time></trkpt><trkpt lat="44.077905170723106" lon="10.4380457251196"><ele>267.0</ele><time>2026-05-01T15:36:22.811Z</time></trkpt><trkpt lat="44.077858405562125" lon="10.438162071101337"><ele>267.0</ele><time>2026-05-01T15:36:25.811Z</time></trkpt><trkpt lat="44.07774958854307" lon="10.43800657529621"><ele>267.0</ele><time>2026-05-01T15:36:27.811Z</time></trkpt><trkpt lat="44.0776555805278" lon="10.437841364802507"><ele>267.0</ele><time>2026-05-01T15:36:28.811Z</time></trkpt><trkpt lat="44.07754137106814" lon="10.437634704808868"><ele>267.0</ele><time>2026-05-01T15:36:29.811Z</time></trkpt><trkpt lat="44.077435436040425" lon="10.437443141349231"><ele>267.0</ele><time>2026-05-01T15:36:30.811Z</time></trkpt><trkpt lat="44.077335801495416" lon="10.437303703467283"><ele>264.25</ele><time>2026-05-01T15:36:31.811Z</time></trkpt><trkpt lat="44.07722057865259" lon="10.437197522479595"><ele>261.5</ele><time>2026-05-01T15:36:32.811Z</time></trkpt><trkpt lat="44.077108122264384" lon="10.437114147582978"><ele>258.75</ele><time>2026-05-01T15:36:33.811Z</time></trkpt><trkpt lat="44.07702595543468" lon="10.436964705559546"><ele>256.0</ele><time>2026-05-01T15:36:34.811Z</time></trkpt><trkpt lat="44.07694150224104" lon="10.436853556495528"><ele>256.0</ele><time>2026-05-01T15:36:35.811Z</time></trkpt><trkpt lat="44.07686926812817" lon="10.436771560865282"><ele>256.0</ele><time>2026-05-01T15:36:36.811Z</time></trkpt><trkpt lat="44.076772245682335" lon="10.436762341832646"><ele>256.0</ele><time>2026-05-01T15:36:37.811Z</time></trkpt><trkpt lat="44.07664041263726" lon="10.436799312174116"><ele>256.0</ele><time>2026-05-01T15:36:38.811Z</time></trkpt><trkpt lat="44.07650490848889" lon="10.436835739497402"><ele>251.20000000000002</ele><time>2026-05-01T15:36:39.811Z</time></trkpt><trkpt lat="44.07641029606507" lon="10.436850608242356"><ele>246.40000000000003</ele><time>2026-05-01T15:36:40.811Z</time></trkpt><trkpt lat="44.07631121951316" lon="10.43684177206313"><ele>241.6</ele><time>2026-05-01T15:36:41.811Z</time></trkpt><trkpt lat="44.076229736404855" lon="10.436796347543314"><ele>236.8</ele><time>2026-05-01T15:36:42.811Z</time></trkpt><trkpt lat="44.07616200247353" lon="10.436710870617349"><ele>232.0</ele><time>2026-05-01T15:36:43.811Z</time></trkpt><trkpt lat="44.076088714454606" lon="10.436585432207742"><ele>232.0</ele><time>2026-05-01T15:36:44.811Z</time></trkpt><trkpt lat="44.07600878293036" lon="10.436431793562086"><ele>232.0</ele><time>2026-05-01T15:36:45.811Z</time></trkpt><trkpt lat="44.07591400302457" lon="10.436261593740552"><ele>232.0</ele><time>2026-05-01T15:36:46.811Z</time></trkpt><trkpt lat="44.07582562623737" lon="10.436111117739847"><ele>232.0</ele><time>2026-05-01T15:36:47.811Z</time></trkpt><trkpt lat="44.07575050836121" lon="10.435961965417501"><ele>230.6</ele><time>2026-05-01T15:36:48.811Z</time></trkpt><trkpt lat="44.07568637936351" lon="10.43584220857573"><ele>229.2</ele><time>2026-05-01T15:36:49.811Z</time></trkpt><trkpt lat="44.07564653942979" lon="10.435757954423595"><ele>227.8</ele><time>2026-05-01T15:36:50.811Z</time></trkpt><trkpt lat="44.07559373451042" lon="10.435694121828671"><ele>226.4</ele><time>2026-05-01T15:36:51.811Z</time></trkpt><trkpt lat="44.0754698800218" lon="10.435714198422659"><ele>225.0</ele><time>2026-05-01T15:36:53.811Z</time></trkpt><trkpt lat="44.07543864037008" lon="10.435825460459892"><ele>225.0</ele><time>2026-05-01T15:36:54.811Z</time></trkpt><trkpt lat="44.07546972362948" lon="10.43595299137856"><ele>225.0</ele><time>2026-05-01T15:36:55.811Z</time></trkpt><trkpt lat="44.0754727349492" lon="10.436099532958735"><ele>225.0</ele><time>2026-05-01T15:36:56.811Z</time></trkpt><trkpt lat="44.07548654757498" lon="10.436259541673016"><ele>225.0</ele><time>2026-05-01T15:36:57.811Z</time></trkpt><trkpt lat="44.07550853202775" lon="10.436423342127059"><ele>225.0</ele><time>2026-05-01T15:36:58.811Z</time></trkpt><trkpt lat="44.07558259508579" lon="10.436602872501462"><ele>223.75</ele><time>2026-05-01T15:36:59.811Z</time></trkpt><trkpt lat="44.075670255068324" lon="10.436761413602797"><ele>222.5</ele><time>2026-05-01T15:37:00.811Z</time></trkpt><trkpt lat="44.0757244795847" lon="10.436933398427879"><ele>221.25</ele><time>2026-05-01T15:37:01.811Z</time></trkpt><trkpt lat="44.07579017131439" lon="10.43707488884398"><ele>220.0</ele><time>2026-05-01T15:37:02.811Z</time></trkpt><trkpt lat="44.075863972660116" lon="10.43720865951483"><ele>220.0</ele><time>2026-05-01T15:37:03.811Z</time></trkpt><trkpt lat="44.07597170565882" lon="10.437285079032364"><ele>220.0</ele><time>2026-05-01T15:37:04.811Z</time></trkpt><trkpt lat="44.07608279272908" lon="10.437357274236355"><ele>220.0</ele><time>2026-05-01T15:37:05.811Z</time></trkpt><trkpt lat="44.07619205878334" lon="10.43744313795811"><ele>220.0</ele><time>2026-05-01T15:37:06.811Z</time></trkpt><trkpt lat="44.07631284758376" lon="10.437486321287063"><ele>220.0</ele><time>2026-05-01T15:37:07.811Z</time></trkpt><trkpt lat="44.07641463574134" lon="10.437541837999321"><ele>220.0</ele><time>2026-05-01T15:37:08.811Z</time></trkpt><trkpt lat="44.07649951341151" lon="10.437581164529803"><ele>220.0</ele><time>2026-05-01T15:37:09.811Z</time></trkpt><trkpt lat="44.07656313213806" lon="10.437630965603455"><ele>220.0</ele><time>2026-05-01T15:37:10.811Z</time></trkpt><trkpt lat="44.07657728213724" lon="10.437785884867253"><ele>220.0</ele><time>2026-05-01T15:37:12.811Z</time></trkpt><trkpt lat="44.07647149865273" lon="10.437827281521418"><ele>220.0</ele><time>2026-05-01T15:37:14.811Z</time></trkpt><trkpt lat="44.076399193914355" lon="10.43776155582066"><ele>220.0</ele><time>2026-05-01T15:37:15.811Z</time></trkpt><trkpt lat="44.07627898074759" lon="10.437719083221692"><ele>220.0</ele><time>2026-05-01T15:37:16.811Z</time></trkpt><trkpt lat="44.07615382642143" lon="10.437629699664726"><ele>220.0</ele><time>2026-05-01T15:37:17.811Z</time></trkpt><trkpt lat="44.07603253005922" lon="10.437554081908177"><ele>220.0</ele><time>2026-05-01T15:37:18.811Z</time></trkpt><trkpt lat="44.07590956138174" lon="10.437466292805222"><ele>220.0</ele><time>2026-05-01T15:37:19.811Z</time></trkpt><trkpt lat="44.07577280027639" lon="10.437365741135087"><ele>220.0</ele><time>2026-05-01T15:37:20.811Z</time></trkpt><trkpt lat="44.075629558760596" lon="10.43726995383311"><ele>218.33333333333331</ele><time>2026-05-01T15:37:21.811Z</time></trkpt><trkpt lat="44.07548605999808" lon="10.437152459175076"><ele>216.66666666666669</ele><time>2026-05-01T15:37:22.811Z</time></trkpt><trkpt lat="44.07534370332141" lon="10.437037168635937"><ele>215.0</ele><time>2026-05-01T15:37:23.811Z</time></trkpt><trkpt lat="44.07521669213976" lon="10.43690598426454"><ele>215.0</ele><time>2026-05-01T15:37:24.811Z</time></trkpt><trkpt lat="44.075080974749994" lon="10.436809970151396"><ele>215.0</ele><time>2026-05-01T15:37:25.811Z</time></trkpt><trkpt lat="44.074942881508754" lon="10.436741854330105"><ele>215.0</ele><time>2026-05-01T15:37:26.811Z</time></trkpt><trkpt lat="44.074803575896595" lon="10.436718025850222"><ele>215.0</ele><time>2026-05-01T15:37:27.811Z</time></trkpt><trkpt lat="44.0746538198576" lon="10.436708320745891"><ele>211.66666666666669</ele><time>2026-05-01T15:37:28.811Z</time></trkpt><trkpt lat="44.07449510683632" lon="10.436679486746524"><ele>208.33333333333331</ele><time>2026-05-01T15:37:29.811Z</time></trkpt><trkpt lat="44.074340241756346" lon="10.436686078007131"><ele>205.0</ele><time>2026-05-01T15:37:30.811Z</time></trkpt><trkpt lat="44.07419739888743" lon="10.436759957607242"><ele>202.0</ele><time>2026-05-01T15:37:31.811Z</time></trkpt><trkpt lat="44.073999971127115" lon="10.436848398206356"><ele>199.0</ele><time>2026-05-01T15:37:32.811Z</time></trkpt><trkpt lat="44.073766011536804" lon="10.436946292002995"><ele>199.0</ele><time>2026-05-01T15:37:33.811Z</time></trkpt><trkpt lat="44.07353709690961" lon="10.437083123454366"><ele>199.0</ele><time>2026-05-01T15:37:34.811Z</time></trkpt><trkpt lat="44.07363368540841" lon="10.437084975490519"><ele>199.0</ele><time>2026-05-01T15:37:35.811Z</time></trkpt><trkpt lat="44.073512578432556" lon="10.437167349142547"><ele>199.0</ele><time>2026-05-01T15:37:36.811Z</time></trkpt><trkpt lat="44.07339918343986" lon="10.437244560588217"><ele>199.0</ele><time>2026-05-01T15:37:37.811Z</time></trkpt><trkpt lat="44.07329322273929" lon="10.437332159056506"><ele>199.0</ele><time>2026-05-01T15:37:38.811Z</time></trkpt><trkpt lat="44.0731670387004" lon="10.437400724033775"><ele>199.0</ele><time>2026-05-01T15:37:39.811Z</time></trkpt><trkpt lat="44.07315088139459" lon="10.437669752264474"><ele>199.66666666666666</ele><time>2026-05-01T15:37:40.811Z</time></trkpt><trkpt lat="44.073133505626124" lon="10.437905636851145"><ele>200.33333333333331</ele><time>2026-05-01T15:37:41.811Z</time></trkpt><trkpt lat="44.073135891593836" lon="10.438152516474203"><ele>201.0</ele><time>2026-05-01T15:37:42.811Z</time></trkpt><trkpt lat="44.07314886935074" lon="10.438413976997577"><ele>199.0</ele><time>2026-05-01T15:37:43.811Z</time></trkpt><trkpt lat="44.07315711960731" lon="10.43864704108691"><ele>197.0</ele><time>2026-05-01T15:37:44.811Z</time></trkpt><trkpt lat="44.073150568924966" lon="10.43886727311177"><ele>195.0</ele><time>2026-05-01T15:37:45.811Z</time></trkpt><trkpt lat="44.073133444843144" lon="10.439074498775714"><ele>194.0</ele><time>2026-05-01T15:37:46.811Z</time></trkpt><trkpt lat="44.07309386318144" lon="10.439269590091007"><ele>193.0</ele><time>2026-05-01T15:37:47.811Z</time></trkpt><trkpt lat="44.07304298945277" lon="10.439431122642326"><ele>192.0</ele><time>2026-05-01T15:37:48.81Z</time></trkpt><trkpt lat="44.072994087540444" lon="10.43953112545005"><ele>191.0</ele><time>2026-05-01T15:37:49.81Z</time></trkpt><trkpt lat="44.07294189181903" lon="10.439591825048781"><ele>190.0</ele><time>2026-05-01T15:37:50.81Z</time></trkpt><trkpt lat="44.072863541687376" lon="10.439644190553697"><ele>190.33333333333334</ele><time>2026-05-01T15:37:51.81Z</time></trkpt><trkpt lat="44.07274837241022" lon="10.439669828349462"><ele>190.66666666666666</ele><time>2026-05-01T15:37:52.81Z</time></trkpt><trkpt lat="44.072590693626765" lon="10.439673831665951"><ele>191.0</ele><time>2026-05-01T15:37:53.81Z</time></trkpt><trkpt lat="44.07237381452643" lon="10.439688508922352"><ele>191.0</ele><time>2026-05-01T15:37:54.811Z</time></trkpt><trkpt lat="44.07209351750678" lon="10.439677357074753"><ele>191.0</ele><time>2026-05-01T15:37:55.81Z</time></trkpt><trkpt lat="44.07179039799542" lon="10.439738581124155"><ele>190.0</ele><time>2026-05-01T15:37:56.81Z</time></trkpt><trkpt lat="44.07143475090859" lon="10.439804819287849"><ele>189.0</ele><time>2026-05-01T15:37:57.81Z</time></trkpt><trkpt lat="44.071047101752875" lon="10.439876079212471"><ele>189.0</ele><time>2026-05-01T15:37:58.81Z</time></trkpt><trkpt lat="44.07077965432646" lon="10.439942233661954"><ele>189.0</ele><time>2026-05-01T15:37:59.81Z</time></trkpt><trkpt lat="44.07052255954959" lon="10.439989408195359"><ele>189.0</ele><time>2026-05-01T15:38:00.81Z</time></trkpt><trkpt lat="44.07028493422817" lon="10.440035351172757"><ele>189.0</ele><time>2026-05-01T15:38:01.81Z</time></trkpt><trkpt lat="44.070062442250155" lon="10.44007987506005"><ele>188.0</ele><time>2026-05-01T15:38:02.81Z</time></trkpt><trkpt lat="44.06984705571787" lon="10.440126470083696"><ele>187.0</ele><time>2026-05-01T15:38:03.81Z</time></trkpt><trkpt lat="44.069631773670736" lon="10.440160084657062"><ele>186.0</ele><time>2026-05-01T15:38:04.81Z</time></trkpt><trkpt lat="44.069425598656274" lon="10.440198389616823"><ele>186.0</ele><time>2026-05-01T15:38:05.81Z</time></trkpt><trkpt lat="44.06922795969356" lon="10.440229103114394"><ele>186.0</ele><time>2026-05-01T15:38:06.81Z</time></trkpt><trkpt lat="44.06903466124782" lon="10.44026941442295"><ele>186.0</ele><time>2026-05-01T15:38:07.81Z</time></trkpt><trkpt lat="44.068851139199026" lon="10.440309657653529"><ele>186.33333333333334</ele><time>2026-05-01T15:38:08.81Z</time></trkpt><trkpt lat="44.06868100917999" lon="10.440341099447087"><ele>186.66666666666669</ele><time>2026-05-01T15:38:09.81Z</time></trkpt><trkpt lat="44.068516048464495" lon="10.440370803724251"><ele>187.0</ele><time>2026-05-01T15:38:10.81Z</time></trkpt><trkpt lat="44.06835476062147" lon="10.440399520267686"><ele>188.0</ele><time>2026-05-01T15:38:11.81Z</time></trkpt><trkpt lat="44.06819449427408" lon="10.44042893682831"><ele>189.0</ele><time>2026-05-01T15:38:12.81Z</time></trkpt><trkpt lat="44.068043036586666" lon="10.440461640004461"><ele>190.0</ele><time>2026-05-01T15:38:13.81Z</time></trkpt><trkpt lat="44.0678992660798" lon="10.440489439023317"><ele>188.33333333333334</ele><time>2026-05-01T15:38:14.81Z</time></trkpt><trkpt lat="44.06774293792395" lon="10.440519938805402"><ele>186.66666666666666</ele><time>2026-05-01T15:38:15.81Z</time></trkpt><trkpt lat="44.06757666254766" lon="10.44054578941906"><ele>185.0</ele><time>2026-05-01T15:38:16.81Z</time></trkpt><trkpt lat="44.067409171525895" lon="10.440573761544115"><ele>185.0</ele><time>2026-05-01T15:38:17.81Z</time></trkpt><trkpt lat="44.067255717504615" lon="10.440600627099286"><ele>185.0</ele><time>2026-05-01T15:38:18.81Z</time></trkpt><trkpt lat="44.067113293282155" lon="10.44062905376165"><ele>185.0</ele><time>2026-05-01T15:38:19.81Z</time></trkpt><trkpt lat="44.06697713384939" lon="10.440649010354122"><ele>185.0</ele><time>2026-05-01T15:38:20.81Z</time></trkpt><trkpt lat="44.066847230465" lon="10.44067272543562"><ele>185.0</ele><time>2026-05-01T15:38:21.81Z</time></trkpt><trkpt lat="44.0667147297246" lon="10.440702226969373"><ele>185.0</ele><time>2026-05-01T15:38:22.81Z</time></trkpt><trkpt lat="44.06658542963319" lon="10.440725983653072"><ele>185.0</ele><time>2026-05-01T15:38:23.81Z</time></trkpt><trkpt lat="44.06645253535318" lon="10.44074957276908"><ele>185.0</ele><time>2026-05-01T15:38:24.81Z</time></trkpt><trkpt lat="44.06632585676453" lon="10.440767158248988"><ele>186.0</ele><time>2026-05-01T15:38:25.81Z</time></trkpt><trkpt lat="44.0662089446249" lon="10.44079750865009"><ele>187.0</ele><time>2026-05-01T15:38:26.81Z</time></trkpt><trkpt lat="44.066091240866534" lon="10.440818184588597"><ele>188.0</ele><time>2026-05-01T15:38:27.81Z</time></trkpt><trkpt lat="44.065979098667526" lon="10.440839821119397"><ele>189.0</ele><time>2026-05-01T15:38:28.81Z</time></trkpt><trkpt lat="44.06587296450169" lon="10.440858611053537"><ele>189.39999999999998</ele><time>2026-05-01T15:38:29.81Z</time></trkpt><trkpt lat="44.06577315543717" lon="10.440878541942629"><ele>189.8</ele><time>2026-05-01T15:38:30.81Z</time></trkpt><trkpt lat="44.06568064337455" lon="10.440902228241217"><ele>190.2</ele><time>2026-05-01T15:38:31.81Z</time></trkpt><trkpt lat="44.06558826654356" lon="10.440930634071266"><ele>190.60000000000002</ele><time>2026-05-01T15:38:32.81Z</time></trkpt><trkpt lat="44.06549187327925" lon="10.440951952323376"><ele>191.0</ele><time>2026-05-01T15:38:33.81Z</time></trkpt><trkpt lat="44.06539649278474" lon="10.440975073145443"><ele>191.0</ele><time>2026-05-01T15:38:34.81Z</time></trkpt><trkpt lat="44.0652962732018" lon="10.441012380708665"><ele>191.0</ele><time>2026-05-01T15:38:35.81Z</time></trkpt><trkpt lat="44.06518494051284" lon="10.441045751085268"><ele>191.0</ele><time>2026-05-01T15:38:36.81Z</time></trkpt><trkpt lat="44.065089848153725" lon="10.441071031344638"><ele>191.0</ele><time>2026-05-01T15:38:37.81Z</time></trkpt><trkpt lat="44.06498118207381" lon="10.441107221800296"><ele>191.0</ele><time>2026-05-01T15:38:38.81Z</time></trkpt><trkpt lat="44.064871259803965" lon="10.44114659546747"><ele>190.75</ele><time>2026-05-01T15:38:39.81Z</time></trkpt><trkpt lat="44.06475787295059" lon="10.441188193533344"><ele>190.5</ele><time>2026-05-01T15:38:40.81Z</time></trkpt><trkpt lat="44.06463159815692" lon="10.441239451849924"><ele>190.25</ele><time>2026-05-01T15:38:41.81Z</time></trkpt><trkpt lat="44.06450067287433" lon="10.441299620728564"><ele>190.0</ele><time>2026-05-01T15:38:42.81Z</time></trkpt><trkpt lat="44.06436431416529" lon="10.441355064220064"><ele>189.5</ele><time>2026-05-01T15:38:43.81Z</time></trkpt><trkpt lat="44.06423107401455" lon="10.44141359844594"><ele>189.0</ele><time>2026-05-01T15:38:44.81Z</time></trkpt><trkpt lat="44.064102109294225" lon="10.441477059666317"><ele>188.5</ele><time>2026-05-01T15:38:45.81Z</time></trkpt><trkpt lat="44.06396420527589" lon="10.441552338323795"><ele>188.0</ele><time>2026-05-01T15:38:46.81Z</time></trkpt><trkpt lat="44.0637997793446" lon="10.441656266311364"><ele>187.33333333333331</ele><time>2026-05-01T15:38:47.81Z</time></trkpt><trkpt lat="44.06361808670292" lon="10.441768555236324"><ele>186.66666666666666</ele><time>2026-05-01T15:38:48.81Z</time></trkpt><trkpt lat="44.06344322585869" lon="10.441866573078775"><ele>186.0</ele><time>2026-05-01T15:38:49.81Z</time></trkpt><trkpt lat="44.06328649005688" lon="10.441959111473091"><ele>185.75</ele><time>2026-05-01T15:38:50.81Z</time></trkpt><trkpt lat="44.06314695618283" lon="10.442051741152119"><ele>185.5</ele><time>2026-05-01T15:38:51.81Z</time></trkpt><trkpt lat="44.06301745083781" lon="10.44214589852348"><ele>185.25</ele><time>2026-05-01T15:38:52.81Z</time></trkpt><trkpt lat="44.06289082171029" lon="10.442235200162198"><ele>185.0</ele><time>2026-05-01T15:38:53.81Z</time></trkpt><trkpt lat="44.06277596834987" lon="10.442338323516386"><ele>184.5</ele><time>2026-05-01T15:38:54.81Z</time></trkpt><trkpt lat="44.06266078010816" lon="10.442419593342242"><ele>184.0</ele><time>2026-05-01T15:38:55.81Z</time></trkpt><trkpt lat="44.06254831343113" lon="10.442511628614835"><ele>183.5</ele><time>2026-05-01T15:38:56.81Z</time></trkpt><trkpt lat="44.06243529879995" lon="10.442604785428426"><ele>183.0</ele><time>2026-05-01T15:38:57.81Z</time></trkpt><trkpt lat="44.06232838054585" lon="10.442701830764248"><ele>183.0</ele><time>2026-05-01T15:38:58.81Z</time></trkpt><trkpt lat="44.062228369273605" lon="10.442794437640107"><ele>183.0</ele><time>2026-05-01T15:38:59.81Z</time></trkpt><trkpt lat="44.062126675784384" lon="10.442883565167536"><ele>183.0</ele><time>2026-05-01T15:39:00.81Z</time></trkpt><trkpt lat="44.06200467013635" lon="10.442971743612247"><ele>183.0</ele><time>2026-05-01T15:39:01.81Z</time></trkpt><trkpt lat="44.06187808601211" lon="10.443088398165045"><ele>182.5</ele><time>2026-05-01T15:39:02.81Z</time></trkpt><trkpt lat="44.06175211328537" lon="10.443175494711852"><ele>182.0</ele><time>2026-05-01T15:39:03.81Z</time></trkpt><trkpt lat="44.061630396540934" lon="10.443243294701583"><ele>181.5</ele><time>2026-05-01T15:39:04.81Z</time></trkpt><trkpt lat="44.06149068362531" lon="10.443289608897858"><ele>181.0</ele><time>2026-05-01T15:39:05.81Z</time></trkpt><trkpt lat="44.06133216133745" lon="10.443360391952819"><ele>181.0</ele><time>2026-05-01T15:39:06.81Z</time></trkpt><trkpt lat="44.06116850321981" lon="10.443433062159915"><ele>181.0</ele><time>2026-05-01T15:39:07.81Z</time></trkpt><trkpt lat="44.06101543016336" lon="10.443516541534354"><ele>181.0</ele><time>2026-05-01T15:39:08.81Z</time></trkpt><trkpt lat="44.060882393814694" lon="10.443567849713755"><ele>180.5</ele><time>2026-05-01T15:39:09.81Z</time></trkpt><trkpt lat="44.060747895782626" lon="10.44362160842493"><ele>180.0</ele><time>2026-05-01T15:39:10.81Z</time></trkpt><trkpt lat="44.060619766205534" lon="10.443685373452572"><ele>179.5</ele><time>2026-05-01T15:39:11.81Z</time></trkpt><trkpt lat="44.06049429690576" lon="10.44374765516195"><ele>179.0</ele><time>2026-05-01T15:39:12.81Z</time></trkpt><trkpt lat="44.060368028055954" lon="10.443824421367134"><ele>178.33333333333331</ele><time>2026-05-01T15:39:13.81Z</time></trkpt><trkpt lat="44.060252952274176" lon="10.443914989244673"><ele>177.66666666666666</ele><time>2026-05-01T15:39:14.81Z</time></trkpt><trkpt lat="44.06011736167232" lon="10.444022240295839"><ele>177.0</ele><time>2026-05-01T15:39:15.81Z</time></trkpt><trkpt lat="44.05997823090526" lon="10.444144676753373"><ele>176.66666666666666</ele><time>2026-05-01T15:39:16.81Z</time></trkpt><trkpt lat="44.05983374487937" lon="10.444302144213076"><ele>176.33333333333331</ele><time>2026-05-01T15:39:17.81Z</time></trkpt><trkpt lat="44.05964523966172" lon="10.444507008530605"><ele>176.0</ele><time>2026-05-01T15:39:18.81Z</time></trkpt><trkpt lat="44.059474859718534" lon="10.444757492977917"><ele>174.66666666666666</ele><time>2026-05-01T15:39:19.81Z</time></trkpt><trkpt lat="44.05933168975" lon="10.444950601361688"><ele>173.33333333333334</ele><time>2026-05-01T15:39:20.81Z</time></trkpt><trkpt lat="44.05922029283561" lon="10.445095244326971"><ele>172.0</ele><time>2026-05-01T15:39:21.81Z</time></trkpt><trkpt lat="44.05912788438513" lon="10.445220264771292"><ele>172.25</ele><time>2026-05-01T15:39:22.81Z</time></trkpt><trkpt lat="44.0590429379203" lon="10.445339982222606"><ele>172.5</ele><time>2026-05-01T15:39:23.81Z</time></trkpt><trkpt lat="44.05894586063923" lon="10.445448215264975"><ele>172.75</ele><time>2026-05-01T15:39:24.81Z</time></trkpt><trkpt lat="44.05883777676262" lon="10.445615235170987"><ele>173.0</ele><time>2026-05-01T15:39:25.81Z</time></trkpt><trkpt lat="44.05867284344815" lon="10.445824318695747"><ele>173.0</ele><time>2026-05-01T15:39:26.81Z</time></trkpt><trkpt lat="44.058521482740964" lon="10.446032780311574"><ele>173.0</ele><time>2026-05-01T15:39:27.81Z</time></trkpt><trkpt lat="44.05834868122379" lon="10.446272114304929"><ele>172.5</ele><time>2026-05-01T15:39:28.81Z</time></trkpt><trkpt lat="44.058120784718696" lon="10.446582523515819"><ele>172.0</ele><time>2026-05-01T15:39:29.81Z</time></trkpt><trkpt lat="44.0578634057921" lon="10.446914756786304"><ele>172.0</ele><time>2026-05-01T15:39:30.81Z</time></trkpt><trkpt lat="44.057632617992674" lon="10.447213571680601"><ele>172.0</ele><time>2026-05-01T15:39:31.81Z</time></trkpt><trkpt lat="44.05742021044399" lon="10.447465044797507"><ele>172.0</ele><time>2026-05-01T15:39:32.81Z</time></trkpt><trkpt lat="44.05723896523747" lon="10.447718798699409"><ele>172.0</ele><time>2026-05-01T15:39:33.81Z</time></trkpt><trkpt lat="44.056899581065856" lon="10.448194745557046"><ele>172.66666666666669</ele><time>2026-05-01T15:39:35.81Z</time></trkpt><trkpt lat="44.05674297018711" lon="10.44839905032611"><ele>173.33333333333334</ele><time>2026-05-01T15:39:36.81Z</time></trkpt><trkpt lat="44.05659818299298" lon="10.448596279025706"><ele>174.0</ele><time>2026-05-01T15:39:37.81Z</time></trkpt><trkpt lat="44.05645687583522" lon="10.448783744420004"><ele>173.0</ele><time>2026-05-01T15:39:38.81Z</time></trkpt><trkpt lat="44.0563265932161" lon="10.448960024742167"><ele>172.0</ele><time>2026-05-01T15:39:39.81Z</time></trkpt><trkpt lat="44.05608888928405" lon="10.449278501034522"><ele>172.0</ele><time>2026-05-01T15:39:41.81Z</time></trkpt><trkpt lat="44.05596426168327" lon="10.449445045267774"><ele>172.0</ele><time>2026-05-01T15:39:42.81Z</time></trkpt><trkpt lat="44.055833521765074" lon="10.449617282650472"><ele>172.0</ele><time>2026-05-01T15:39:43.81Z</time></trkpt><trkpt lat="44.05571744870429" lon="10.449784108050363"><ele>171.33333333333334</ele><time>2026-05-01T15:39:44.81Z</time></trkpt><trkpt lat="44.055603199958696" lon="10.449950078823031"><ele>170.66666666666666</ele><time>2026-05-01T15:39:45.81Z</time></trkpt><trkpt lat="44.05548264316356" lon="10.450093240941074"><ele>170.0</ele><time>2026-05-01T15:39:46.81Z</time></trkpt><trkpt lat="44.05536555107623" lon="10.4502148507745"><ele>170.0</ele><time>2026-05-01T15:39:47.81Z</time></trkpt><trkpt lat="44.05524308133058" lon="10.450330758937252"><ele>170.0</ele><time>2026-05-01T15:39:48.81Z</time></trkpt><trkpt lat="44.05511146787995" lon="10.450445697722856"><ele>170.0</ele><time>2026-05-01T15:39:49.81Z</time></trkpt><trkpt lat="44.05498267739331" lon="10.450557995498219"><ele>168.0</ele><time>2026-05-01T15:39:50.81Z</time></trkpt><trkpt lat="44.05482943344676" lon="10.450648952216605"><ele>166.0</ele><time>2026-05-01T15:39:51.81Z</time></trkpt><trkpt lat="44.0546581519154" lon="10.450748156485336"><ele>164.0</ele><time>2026-05-01T15:39:52.81Z</time></trkpt><trkpt lat="44.054451798594854" lon="10.450851747448723"><ele>164.0</ele><time>2026-05-01T15:39:53.81Z</time></trkpt><trkpt lat="44.05418931132096" lon="10.450956956340402"><ele>164.0</ele><time>2026-05-01T15:39:54.81Z</time></trkpt><trkpt lat="44.053913715484605" lon="10.4510428711206"><ele>164.5</ele><time>2026-05-01T15:39:55.81Z</time></trkpt><trkpt lat="44.05364671149087" lon="10.451110212575013"><ele>165.0</ele><time>2026-05-01T15:39:56.81Z</time></trkpt><trkpt lat="44.0533965693765" lon="10.451188781422404"><ele>164.5</ele><time>2026-05-01T15:39:57.81Z</time></trkpt><trkpt lat="44.05315768697659" lon="10.451234043591047"><ele>164.0</ele><time>2026-05-01T15:39:58.81Z</time></trkpt><trkpt lat="44.052934713445225" lon="10.451295388940007"><ele>164.0</ele><time>2026-05-01T15:39:59.81Z</time></trkpt><trkpt lat="44.052727418395996" lon="10.451358888878655"><ele>164.0</ele><time>2026-05-01T15:40:00.81Z</time></trkpt><trkpt lat="44.05252389289846" lon="10.451435839277899"><ele>164.0</ele><time>2026-05-01T15:40:01.809Z</time></trkpt><trkpt lat="44.05232543971661" lon="10.451526759151502"><ele>164.66666666666666</ele><time>2026-05-01T15:40:02.809Z</time></trkpt><trkpt lat="44.05213636848061" lon="10.451660179512542"><ele>165.33333333333334</ele><time>2026-05-01T15:40:03.809Z</time></trkpt><trkpt lat="44.05197187110483" lon="10.451797461110635"><ele>166.0</ele><time>2026-05-01T15:40:04.809Z</time></trkpt><trkpt lat="44.051803146866995" lon="10.451976917251383"><ele>167.0</ele><time>2026-05-01T15:40:05.809Z</time></trkpt><trkpt lat="44.051634653645806" lon="10.452200453729894"><ele>168.0</ele><time>2026-05-01T15:40:06.809Z</time></trkpt><trkpt lat="44.05147263692631" lon="10.452422031517624"><ele>168.0</ele><time>2026-05-01T15:40:07.809Z</time></trkpt><trkpt lat="44.05133832662234" lon="10.452665178131864"><ele>168.0</ele><time>2026-05-01T15:40:08.809Z</time></trkpt><trkpt lat="44.05121497427062" lon="10.452935282890472"><ele>166.0</ele><time>2026-05-01T15:40:09.809Z</time></trkpt><trkpt lat="44.05109175338072" lon="10.453229588181404"><ele>164.0</ele><time>2026-05-01T15:40:10.809Z</time></trkpt><trkpt lat="44.05096943627949" lon="10.453521543959331"><ele>164.0</ele><time>2026-05-01T15:40:11.809Z</time></trkpt><trkpt lat="44.05084697493652" lon="10.453798008308246"><ele>164.0</ele><time>2026-05-01T15:40:12.809Z</time></trkpt><trkpt lat="44.05072103337323" lon="10.454070817290297"><ele>166.66666666666666</ele><time>2026-05-01T15:40:13.809Z</time></trkpt><trkpt lat="44.05059520875087" lon="10.454311092668643"><ele>169.33333333333334</ele><time>2026-05-01T15:40:14.809Z</time></trkpt><trkpt lat="44.05046313977897" lon="10.45451818008048"><ele>172.0</ele><time>2026-05-01T15:40:15.809Z</time></trkpt><trkpt lat="44.05032495366318" lon="10.454709485522498"><ele>172.0</ele><time>2026-05-01T15:40:16.809Z</time></trkpt><trkpt lat="44.05018685765284" lon="10.454864183514262"><ele>172.0</ele><time>2026-05-01T15:40:17.809Z</time></trkpt><trkpt lat="44.05005468278288" lon="10.454975287071465"><ele>172.0</ele><time>2026-05-01T15:40:18.809Z</time></trkpt><trkpt lat="44.049939252950125" lon="10.455066292795216"><ele>175.0</ele><time>2026-05-01T15:40:19.809Z</time></trkpt><trkpt lat="44.04982436865078" lon="10.455143981716548"><ele>178.0</ele><time>2026-05-01T15:40:20.809Z</time></trkpt><trkpt lat="44.04971481530561" lon="10.45521805359548"><ele>181.0</ele><time>2026-05-01T15:40:21.809Z</time></trkpt><trkpt lat="44.04958693547635" lon="10.455272569031488"><ele>184.0</ele><time>2026-05-01T15:40:22.809Z</time></trkpt><trkpt lat="44.049426009013196" lon="10.45536592858917"><ele>184.66666666666669</ele><time>2026-05-01T15:40:23.809Z</time></trkpt><trkpt lat="44.04927879492313" lon="10.455476499705421"><ele>185.33333333333334</ele><time>2026-05-01T15:40:24.809Z</time></trkpt><trkpt lat="44.049125177672586" lon="10.455564406083534"><ele>186.0</ele><time>2026-05-01T15:40:25.809Z</time></trkpt><trkpt lat="44.04896440051214" lon="10.455650134535688"><ele>186.0</ele><time>2026-05-01T15:40:26.809Z</time></trkpt><trkpt lat="44.04878266439584" lon="10.455764967248227"><ele>186.0</ele><time>2026-05-01T15:40:27.809Z</time></trkpt><trkpt lat="44.04856950165461" lon="10.455874275459728"><ele>186.0</ele><time>2026-05-01T15:40:28.809Z</time></trkpt><trkpt lat="44.04840812507617" lon="10.456019635248365"><ele>187.66666666666666</ele><time>2026-05-01T15:40:29.809Z</time></trkpt><trkpt lat="44.04826448392564" lon="10.456159011910547"><ele>189.33333333333331</ele><time>2026-05-01T15:40:30.809Z</time></trkpt><trkpt lat="44.04814439092768" lon="10.456320042698858"><ele>191.0</ele><time>2026-05-01T15:40:31.809Z</time></trkpt><trkpt lat="44.04801232145959" lon="10.456507688188937"><ele>191.0</ele><time>2026-05-01T15:40:32.809Z</time></trkpt><trkpt lat="44.04786769878769" lon="10.456720297887815"><ele>191.0</ele><time>2026-05-01T15:40:33.809Z</time></trkpt><trkpt lat="44.047722921330205" lon="10.456910019582974"><ele>191.0</ele><time>2026-05-01T15:40:34.809Z</time></trkpt><trkpt lat="44.04759547751376" lon="10.457077346142846"><ele>195.66666666666666</ele><time>2026-05-01T15:40:35.809Z</time></trkpt><trkpt lat="44.04748441219914" lon="10.457227630875064"><ele>200.33333333333331</ele><time>2026-05-01T15:40:36.809Z</time></trkpt><trkpt lat="44.04738012675698" lon="10.45737927266048"><ele>205.0</ele><time>2026-05-01T15:40:37.809Z</time></trkpt><trkpt lat="44.0472791348969" lon="10.457523439691862"><ele>205.0</ele><time>2026-05-01T15:40:38.809Z</time></trkpt><trkpt lat="44.047175469979024" lon="10.457671453521238"><ele>205.0</ele><time>2026-05-01T15:40:39.809Z</time></trkpt><trkpt lat="44.04707062411228" lon="10.457817168126237"><ele>205.0</ele><time>2026-05-01T15:40:40.809Z</time></trkpt><trkpt lat="44.04697010781074" lon="10.457956641086334"><ele>205.0</ele><time>2026-05-01T15:40:41.809Z</time></trkpt><trkpt lat="44.046846956462176" lon="10.458152329666651"><ele>205.0</ele><time>2026-05-01T15:40:42.809Z</time></trkpt><trkpt lat="44.04670934034282" lon="10.45839874956028"><ele>205.0</ele><time>2026-05-01T15:40:43.809Z</time></trkpt><trkpt lat="44.046616053679124" lon="10.458646042591164"><ele>205.0</ele><time>2026-05-01T15:40:44.809Z</time></trkpt><trkpt lat="44.04655297227249" lon="10.458878352752782"><ele>206.33333333333331</ele><time>2026-05-01T15:40:45.809Z</time></trkpt><trkpt lat="44.04649248784607" lon="10.459090869161116"><ele>207.66666666666669</ele><time>2026-05-01T15:40:46.809Z</time></trkpt><trkpt lat="44.046435840067275" lon="10.45928695345742"><ele>209.0</ele><time>2026-05-01T15:40:47.809Z</time></trkpt><trkpt lat="44.04638532832627" lon="10.459468722818809"><ele>206.0</ele><time>2026-05-01T15:40:48.809Z</time></trkpt><trkpt lat="44.04633194415726" lon="10.459662644704462"><ele>203.0</ele><time>2026-05-01T15:40:49.809Z</time></trkpt><trkpt lat="44.046269353802344" lon="10.459898155533928"><ele>200.0</ele><time>2026-05-01T15:40:50.809Z</time></trkpt><trkpt lat="44.04619600849128" lon="10.460143902356602"><ele>200.0</ele><time>2026-05-01T15:40:51.809Z</time></trkpt><trkpt lat="44.046112212578564" lon="10.460377648783899"><ele>200.0</ele><time>2026-05-01T15:40:52.809Z</time></trkpt><trkpt lat="44.04601632662995" lon="10.460598304464357"><ele>200.0</ele><time>2026-05-01T15:40:53.809Z</time></trkpt><trkpt lat="44.04591491145582" lon="10.460801042340782"><ele>200.66666666666669</ele><time>2026-05-01T15:40:54.809Z</time></trkpt><trkpt lat="44.0457969880245" lon="10.460997435627808"><ele>201.33333333333331</ele><time>2026-05-01T15:40:55.809Z</time></trkpt><trkpt lat="44.04566208222014" lon="10.46119499451622"><ele>202.0</ele><time>2026-05-01T15:40:56.809Z</time></trkpt><trkpt lat="44.04552930423647" lon="10.461387611805561"><ele>202.0</ele><time>2026-05-01T15:40:57.809Z</time></trkpt><trkpt lat="44.045405967538734" lon="10.461561320476182"><ele>202.0</ele><time>2026-05-01T15:40:58.809Z</time></trkpt><trkpt lat="44.045288576743076" lon="10.46172549602735"><ele>202.0</ele><time>2026-05-01T15:40:59.809Z</time></trkpt><trkpt lat="44.04517856879665" lon="10.461879501623615"><ele>202.0</ele><time>2026-05-01T15:41:00.809Z</time></trkpt><trkpt lat="44.04507306554367" lon="10.462026035080667"><ele>202.0</ele><time>2026-05-01T15:41:01.809Z</time></trkpt><trkpt lat="44.044975807158046" lon="10.462165334765213"><ele>202.0</ele><time>2026-05-01T15:41:02.809Z</time></trkpt><trkpt lat="44.04487814438039" lon="10.462300835715281"><ele>202.0</ele><time>2026-05-01T15:41:03.809Z</time></trkpt><trkpt lat="44.04478599211487" lon="10.462440742615717"><ele>205.0</ele><time>2026-05-01T15:41:04.809Z</time></trkpt><trkpt lat="44.044684235216586" lon="10.462578110817509"><ele>208.0</ele><time>2026-05-01T15:41:05.809Z</time></trkpt><trkpt lat="44.04458740176004" lon="10.462722530194203"><ele>211.0</ele><time>2026-05-01T15:41:06.809Z</time></trkpt><trkpt lat="44.044473163505785" lon="10.462875941864292"><ele>214.0</ele><time>2026-05-01T15:41:07.809Z</time></trkpt><trkpt lat="44.04430877564651" lon="10.46308225691578"><ele>217.5</ele><time>2026-05-01T15:41:08.809Z</time></trkpt><trkpt lat="44.04409925636799" lon="10.463323573670941"><ele>221.0</ele><time>2026-05-01T15:41:09.809Z</time></trkpt><trkpt lat="44.04386956176826" lon="10.463582161218952"><ele>221.0</ele><time>2026-05-01T15:41:10.809Z</time></trkpt><trkpt lat="44.04387448848122" lon="10.463742209880447"><ele>221.0</ele><time>2026-05-01T15:41:11.809Z</time></trkpt><trkpt lat="44.04373319334105" lon="10.463939320718882"><ele>221.0</ele><time>2026-05-01T15:41:12.809Z</time></trkpt><trkpt lat="44.04360831430108" lon="10.464113037166902"><ele>212.75</ele><time>2026-05-01T15:41:13.809Z</time></trkpt><trkpt lat="44.043502415678375" lon="10.46426441387921"><ele>204.5</ele><time>2026-05-01T15:41:14.809Z</time></trkpt><trkpt lat="44.04340080717679" lon="10.46439739932025"><ele>196.25</ele><time>2026-05-01T15:41:15.809Z</time></trkpt><trkpt lat="44.04330640493363" lon="10.464553271128413"><ele>188.0</ele><time>2026-05-01T15:41:16.809Z</time></trkpt><trkpt lat="44.04319369427822" lon="10.46472908965633"><ele>188.0</ele><time>2026-05-01T15:41:17.809Z</time></trkpt><trkpt lat="44.04308095760257" lon="10.46488893411776"><ele>188.0</ele><time>2026-05-01T15:41:18.809Z</time></trkpt><trkpt lat="44.042984338579764" lon="10.46502708245753"><ele>188.0</ele><time>2026-05-01T15:41:19.809Z</time></trkpt><trkpt lat="44.042895271566096" lon="10.465140185210547"><ele>188.0</ele><time>2026-05-01T15:41:20.809Z</time></trkpt><trkpt lat="44.0428303471569" lon="10.465253032675388"><ele>188.0</ele><time>2026-05-01T15:41:21.809Z</time></trkpt><trkpt lat="44.042758058896084" lon="10.465372638846473"><ele>188.0</ele><time>2026-05-01T15:41:22.809Z</time></trkpt><trkpt lat="44.04267712245992" lon="10.465507979147457"><ele>188.0</ele><time>2026-05-01T15:41:23.809Z</time></trkpt><trkpt lat="44.04257622657909" lon="10.465662686860416"><ele>188.0</ele><time>2026-05-01T15:41:24.809Z</time></trkpt><trkpt lat="44.042478518320806" lon="10.465814830183358"><ele>184.33333333333331</ele><time>2026-05-01T15:41:25.809Z</time></trkpt><trkpt lat="44.04239121521216" lon="10.465992357336884"><ele>180.66666666666666</ele><time>2026-05-01T15:41:26.809Z</time></trkpt><trkpt lat="44.04228642275767" lon="10.466200724939807"><ele>177.0</ele><time>2026-05-01T15:41:27.809Z</time></trkpt><trkpt lat="44.04219476100367" lon="10.466415451410798"><ele>175.33333333333334</ele><time>2026-05-01T15:41:28.809Z</time></trkpt><trkpt lat="44.04211308388893" lon="10.466603907985077"><ele>173.66666666666669</ele><time>2026-05-01T15:41:29.809Z</time></trkpt><trkpt lat="44.042040922707976" lon="10.466799008592911"><ele>172.0</ele><time>2026-05-01T15:41:30.809Z</time></trkpt><trkpt lat="44.041972066031825" lon="10.46700715519341"><ele>168.33333333333334</ele><time>2026-05-01T15:41:31.809Z</time></trkpt><trkpt lat="44.041912055383555" lon="10.467220374898082"><ele>164.66666666666666</ele><time>2026-05-01T15:41:32.809Z</time></trkpt><trkpt lat="44.04185429380026" lon="10.467438649257451"><ele>161.0</ele><time>2026-05-01T15:41:33.809Z</time></trkpt><trkpt lat="44.041801900213244" lon="10.467666429798747"><ele>161.0</ele><time>2026-05-01T15:41:34.809Z</time></trkpt><trkpt lat="44.04176244483376" lon="10.467897432267598"><ele>161.0</ele><time>2026-05-01T15:41:35.809Z</time></trkpt><trkpt lat="44.041732589135385" lon="10.468139377252676"><ele>161.0</ele><time>2026-05-01T15:41:36.809Z</time></trkpt><trkpt lat="44.04170659030904" lon="10.468390906538952"><ele>159.33333333333331</ele><time>2026-05-01T15:41:37.809Z</time></trkpt><trkpt lat="44.041699684209775" lon="10.468648328731382"><ele>157.66666666666666</ele><time>2026-05-01T15:41:38.809Z</time></trkpt><trkpt lat="44.041677978152194" lon="10.468893511341921"><ele>156.0</ele><time>2026-05-01T15:41:39.809Z</time></trkpt><trkpt lat="44.04166735605786" lon="10.469111115400532"><ele>155.5</ele><time>2026-05-01T15:41:40.809Z</time></trkpt><trkpt lat="44.0416533870028" lon="10.469325853259422"><ele>155.0</ele><time>2026-05-01T15:41:41.809Z</time></trkpt><trkpt lat="44.041638510499084" lon="10.469528635990404"><ele>154.5</ele><time>2026-05-01T15:41:42.809Z</time></trkpt><trkpt lat="44.04162737884667" lon="10.469731534669918"><ele>154.0</ele><time>2026-05-01T15:41:43.809Z</time></trkpt><trkpt lat="44.04159308850881" lon="10.469933277666717"><ele>156.66666666666669</ele><time>2026-05-01T15:41:44.809Z</time></trkpt><trkpt lat="44.04157422693961" lon="10.470144566475884"><ele>159.33333333333334</ele><time>2026-05-01T15:41:45.809Z</time></trkpt><trkpt lat="44.04154407825196" lon="10.470351832770277"><ele>162.0</ele><time>2026-05-01T15:41:46.809Z</time></trkpt><trkpt lat="44.04151322045191" lon="10.470557635331327"><ele>162.0</ele><time>2026-05-01T15:41:47.809Z</time></trkpt><trkpt lat="44.041472045506275" lon="10.470760534255135"><ele>162.0</ele><time>2026-05-01T15:41:48.809Z</time></trkpt><trkpt lat="44.04142534518844" lon="10.470965363849512"><ele>162.0</ele><time>2026-05-01T15:41:49.809Z</time></trkpt><trkpt lat="44.04137313181924" lon="10.471158008016616"><ele>160.5</ele><time>2026-05-01T15:41:50.809Z</time></trkpt><trkpt lat="44.04130965430859" lon="10.471345510012306"><ele>159.0</ele><time>2026-05-01T15:41:51.809Z</time></trkpt><trkpt lat="44.04124108173372" lon="10.47151627544952"><ele>157.5</ele><time>2026-05-01T15:41:52.809Z</time></trkpt><trkpt lat="44.041175677678574" lon="10.47170532138103"><ele>156.0</ele><time>2026-05-01T15:41:53.809Z</time></trkpt><trkpt lat="44.04110133409074" lon="10.471884592508108"><ele>156.0</ele><time>2026-05-01T15:41:54.809Z</time></trkpt><trkpt lat="44.041021194320635" lon="10.472059589203736"><ele>156.0</ele><time>2026-05-01T15:41:55.809Z</time></trkpt><trkpt lat="44.040935166500454" lon="10.472229621715718"><ele>156.0</ele><time>2026-05-01T15:41:56.809Z</time></trkpt><trkpt lat="44.04084099039717" lon="10.472408061467343"><ele>156.33333333333334</ele><time>2026-05-01T15:41:57.809Z</time></trkpt><trkpt lat="44.04073696900907" lon="10.472586739070694"><ele>156.66666666666669</ele><time>2026-05-01T15:41:58.809Z</time></trkpt><trkpt lat="44.04062427735842" lon="10.47274675924915"><ele>157.0</ele><time>2026-05-01T15:41:59.809Z</time></trkpt><trkpt lat="44.04051758381303" lon="10.472897606470271"><ele>156.0</ele><time>2026-05-01T15:42:00.809Z</time></trkpt><trkpt lat="44.040390886506074" lon="10.473040409615553"><ele>155.0</ele><time>2026-05-01T15:42:01.809Z</time></trkpt><trkpt lat="44.04026654170018" lon="10.473194392562553"><ele>154.0</ele><time>2026-05-01T15:42:02.809Z</time></trkpt><trkpt lat="44.0401152140665" lon="10.473342857873357"><ele>154.66666666666669</ele><time>2026-05-01T15:42:03.809Z</time></trkpt><trkpt lat="44.039965030559394" lon="10.473497816818236"><ele>155.33333333333334</ele><time>2026-05-01T15:42:04.809Z</time></trkpt><trkpt lat="44.03978821401115" lon="10.473687975414265"><ele>156.0</ele><time>2026-05-01T15:42:05.809Z</time></trkpt><trkpt lat="44.03956990215794" lon="10.473905398708258"><ele>154.0</ele><time>2026-05-01T15:42:06.809Z</time></trkpt><trkpt lat="44.039323157469255" lon="10.47415131839544"><ele>152.0</ele><time>2026-05-01T15:42:07.809Z</time></trkpt><trkpt lat="44.03906803909692" lon="10.474407540645213"><ele>154.0</ele><time>2026-05-01T15:42:08.809Z</time></trkpt><trkpt lat="44.03881632136947" lon="10.47463990957079"><ele>156.0</ele><time>2026-05-01T15:42:09.809Z</time></trkpt><trkpt lat="44.03858639085288" lon="10.47487153631711"><ele>156.0</ele><time>2026-05-01T15:42:10.809Z</time></trkpt><trkpt lat="44.03838098779765" lon="10.475083358124058"><ele>156.0</ele><time>2026-05-01T15:42:11.809Z</time></trkpt><trkpt lat="44.03819369589683" lon="10.475308443286727"><ele>167.5</ele><time>2026-05-01T15:42:12.809Z</time></trkpt><trkpt lat="44.038011311561235" lon="10.47555309639881"><ele>179.0</ele><time>2026-05-01T15:42:13.809Z</time></trkpt><trkpt lat="44.03784387799064" lon="10.475809608843615"><ele>179.0</ele><time>2026-05-01T15:42:14.809Z</time></trkpt><trkpt lat="44.037703936702705" lon="10.476067635502098"><ele>179.0</ele><time>2026-05-01T15:42:15.809Z</time></trkpt><trkpt lat="44.03756585372297" lon="10.476317350981562"><ele>189.5</ele><time>2026-05-01T15:42:16.809Z</time></trkpt><trkpt lat="44.03744934697622" lon="10.476586248452046"><ele>200.0</ele><time>2026-05-01T15:42:17.809Z</time></trkpt><trkpt lat="44.037334381879624" lon="10.476869752328998"><ele>189.5</ele><time>2026-05-01T15:42:18.809Z</time></trkpt><trkpt lat="44.03722926407297" lon="10.477159967447632"><ele>179.0</ele><time>2026-05-01T15:42:19.809Z</time></trkpt><trkpt lat="44.0371299332466" lon="10.477444893310409"><ele>179.0</ele><time>2026-05-01T15:42:20.809Z</time></trkpt><trkpt lat="44.037029032199904" lon="10.477720606702698"><ele>179.0</ele><time>2026-05-01T15:42:21.809Z</time></trkpt><trkpt lat="44.036944927801954" lon="10.47797636555224"><ele>179.0</ele><time>2026-05-01T15:42:22.809Z</time></trkpt><trkpt lat="44.036853896786276" lon="10.478218797272739"><ele>175.0</ele><time>2026-05-01T15:42:23.809Z</time></trkpt><trkpt lat="44.03678592269296" lon="10.478436139177136"><ele>171.0</ele><time>2026-05-01T15:42:24.809Z</time></trkpt><trkpt lat="44.036716198349716" lon="10.478629808730432"><ele>167.0</ele><time>2026-05-01T15:42:25.809Z</time></trkpt><trkpt lat="44.03665225758481" lon="10.478847709406827"><ele>173.0</ele><time>2026-05-01T15:42:26.809Z</time></trkpt><trkpt lat="44.036573375381046" lon="10.479087500131795"><ele>179.0</ele><time>2026-05-01T15:42:27.809Z</time></trkpt><trkpt lat="44.03648557285215" lon="10.479316777711741"><ele>185.0</ele><time>2026-05-01T15:42:28.809Z</time></trkpt><trkpt lat="44.03641386230799" lon="10.479526540282825"><ele>181.66666666666666</ele><time>2026-05-01T15:42:29.809Z</time></trkpt><trkpt lat="44.036337896004504" lon="10.47974057236117"><ele>178.33333333333334</ele><time>2026-05-01T15:42:30.809Z</time></trkpt><trkpt lat="44.03624810713924" lon="10.480001030500397"><ele>175.0</ele><time>2026-05-01T15:42:31.809Z</time></trkpt><trkpt lat="44.036162030852836" lon="10.480283913414766"><ele>171.0</ele><time>2026-05-01T15:42:32.809Z</time></trkpt><trkpt lat="44.03607395153184" lon="10.480574105258633"><ele>167.0</ele><time>2026-05-01T15:42:33.809Z</time></trkpt><trkpt lat="44.036007837156916" lon="10.480878916781554"><ele>167.0</ele><time>2026-05-01T15:42:34.809Z</time></trkpt><trkpt lat="44.03595559001297" lon="10.481197198982333"><ele>167.0</ele><time>2026-05-01T15:42:35.809Z</time></trkpt><trkpt lat="44.03591636702889" lon="10.481532464348657"><ele>165.0</ele><time>2026-05-01T15:42:36.809Z</time></trkpt><trkpt lat="44.03588313937501" lon="10.481868478536278"><ele>163.0</ele><time>2026-05-01T15:42:37.809Z</time></trkpt><trkpt lat="44.03584655606377" lon="10.48217978752518"><ele>163.0</ele><time>2026-05-01T15:42:38.809Z</time></trkpt><trkpt lat="44.03581397225614" lon="10.482473405098052"><ele>163.0</ele><time>2026-05-01T15:42:39.809Z</time></trkpt><trkpt lat="44.03577966077939" lon="10.482778468229201"><ele>163.0</ele><time>2026-05-01T15:42:40.809Z</time></trkpt><trkpt lat="44.03574451783818" lon="10.483116216199411"><ele>168.0</ele><time>2026-05-01T15:42:41.809Z</time></trkpt><trkpt lat="44.03570187640349" lon="10.483508844018742"><ele>173.0</ele><time>2026-05-01T15:42:42.809Z</time></trkpt><trkpt lat="44.035649557137134" lon="10.483913134507038"><ele>173.0</ele><time>2026-05-01T15:42:43.809Z</time></trkpt><trkpt lat="44.035593229370825" lon="10.484278188387695"><ele>173.0</ele><time>2026-05-01T15:42:44.809Z</time></trkpt><trkpt lat="44.03554918079755" lon="10.484613313193456"><ele>169.5</ele><time>2026-05-01T15:42:45.809Z</time></trkpt><trkpt lat="44.035507805845405" lon="10.484931194320312"><ele>166.0</ele><time>2026-05-01T15:42:46.809Z</time></trkpt><trkpt lat="44.0354683345583" lon="10.485239130338265"><ele>165.0</ele><time>2026-05-01T15:42:47.809Z</time></trkpt><trkpt lat="44.03541948532343" lon="10.485524566247646"><ele>164.0</ele><time>2026-05-01T15:42:48.809Z</time></trkpt><trkpt lat="44.03536352209621" lon="10.485794656840083"><ele>163.0</ele><time>2026-05-01T15:42:49.809Z</time></trkpt><trkpt lat="44.035299043615744" lon="10.486052971294226"><ele>160.0</ele><time>2026-05-01T15:42:50.809Z</time></trkpt><trkpt lat="44.03521766891116" lon="10.486309921340954"><ele>157.0</ele><time>2026-05-01T15:42:51.809Z</time></trkpt><trkpt lat="44.03513431893681" lon="10.48653070570917"><ele>154.0</ele><time>2026-05-01T15:42:52.809Z</time></trkpt><trkpt lat="44.03505475000746" lon="10.486742762003677"><ele>154.0</ele><time>2026-05-01T15:42:53.809Z</time></trkpt><trkpt lat="44.034970545277744" lon="10.486937373521663"><ele>154.0</ele><time>2026-05-01T15:42:54.809Z</time></trkpt><trkpt lat="44.034859916477366" lon="10.487140193714588"><ele>154.0</ele><time>2026-05-01T15:42:55.809Z</time></trkpt><trkpt lat="44.03474769530015" lon="10.487341341791106"><ele>154.0</ele><time>2026-05-01T15:42:56.809Z</time></trkpt><trkpt lat="44.034601916938264" lon="10.487568330818855"><ele>154.0</ele><time>2026-05-01T15:42:57.809Z</time></trkpt><trkpt lat="44.03444187040957" lon="10.48779078652108"><ele>154.0</ele><time>2026-05-01T15:42:58.809Z</time></trkpt><trkpt lat="44.03425066065957" lon="10.487995446494594"><ele>147.5</ele><time>2026-05-01T15:42:59.809Z</time></trkpt><trkpt lat="44.034036457659866" lon="10.488203750200041"><ele>141.0</ele><time>2026-05-01T15:43:00.809Z</time></trkpt><trkpt lat="44.033801139128535" lon="10.488393340367034"><ele>141.0</ele><time>2026-05-01T15:43:01.809Z</time></trkpt><trkpt lat="44.03355670710467" lon="10.488598888694309"><ele>141.0</ele><time>2026-05-01T15:43:02.809Z</time></trkpt><trkpt lat="44.03330125143224" lon="10.488808827639554"><ele>136.5</ele><time>2026-05-01T15:43:03.809Z</time></trkpt><trkpt lat="44.033063750722036" lon="10.489018250991917"><ele>132.0</ele><time>2026-05-01T15:43:04.809Z</time></trkpt><trkpt lat="44.03284274275447" lon="10.489212073677114"><ele>132.0</ele><time>2026-05-01T15:43:05.809Z</time></trkpt><trkpt lat="44.03264007932332" lon="10.489403093896431"><ele>132.0</ele><time>2026-05-01T15:43:06.809Z</time></trkpt><trkpt lat="44.032442503356314" lon="10.489572189342905"><ele>133.0</ele><time>2026-05-01T15:43:07.809Z</time></trkpt><trkpt lat="44.032258648700925" lon="10.489738834206808"><ele>134.0</ele><time>2026-05-01T15:43:08.809Z</time></trkpt><trkpt lat="44.032071216886045" lon="10.489931495261681"><ele>134.0</ele><time>2026-05-01T15:43:09.809Z</time></trkpt><trkpt lat="44.03190072058876" lon="10.4901453570842"><ele>134.0</ele><time>2026-05-01T15:43:10.809Z</time></trkpt><trkpt lat="44.03173390311385" lon="10.490364978710746"><ele>139.0</ele><time>2026-05-01T15:43:11.809Z</time></trkpt><trkpt lat="44.03158258389237" lon="10.490611782713016"><ele>144.0</ele><time>2026-05-01T15:43:12.809Z</time></trkpt><trkpt lat="44.03143920939737" lon="10.490866435365227"><ele>144.0</ele><time>2026-05-01T15:43:13.809Z</time></trkpt><trkpt lat="44.03130511598289" lon="10.49113037456687"><ele>144.0</ele><time>2026-05-01T15:43:14.809Z</time></trkpt><trkpt lat="44.03116518481549" lon="10.491397225335447"><ele>140.0</ele><time>2026-05-01T15:43:15.809Z</time></trkpt><trkpt lat="44.031042674982565" lon="10.491673144403727"><ele>136.0</ele><time>2026-05-01T15:43:16.809Z</time></trkpt><trkpt lat="44.030925150339606" lon="10.49195855763298"><ele>152.5</ele><time>2026-05-01T15:43:17.809Z</time></trkpt><trkpt lat="44.03079553600557" lon="10.492230496277966"><ele>169.0</ele><time>2026-05-01T15:43:18.809Z</time></trkpt><trkpt lat="44.03066399394813" lon="10.492511090595102"><ele>169.0</ele><time>2026-05-01T15:43:19.809Z</time></trkpt><trkpt lat="44.0305308936875" lon="10.492789693277189"><ele>169.0</ele><time>2026-05-01T15:43:20.809Z</time></trkpt><trkpt lat="44.030412663500115" lon="10.493075165486408"><ele>158.0</ele><time>2026-05-01T15:43:21.809Z</time></trkpt><trkpt lat="44.0302781141172" lon="10.49334421285244"><ele>147.0</ele><time>2026-05-01T15:43:22.809Z</time></trkpt><trkpt lat="44.030146545141434" lon="10.493615751908484"><ele>141.0</ele><time>2026-05-01T15:43:23.809Z</time></trkpt><trkpt lat="44.0300284345659" lon="10.493891213823455"><ele>135.0</ele><time>2026-05-01T15:43:24.809Z</time></trkpt><trkpt lat="44.02989874430775" lon="10.49415105746054"><ele>145.5</ele><time>2026-05-01T15:43:25.809Z</time></trkpt><trkpt lat="44.02977447826597" lon="10.494421047933905"><ele>156.0</ele><time>2026-05-01T15:43:26.809Z</time></trkpt><trkpt lat="44.02965176638445" lon="10.49468851266206"><ele>156.0</ele><time>2026-05-01T15:43:27.809Z</time></trkpt><trkpt lat="44.02953906129212" lon="10.494953703549804"><ele>156.0</ele><time>2026-05-01T15:43:28.809Z</time></trkpt><trkpt lat="44.02942404700204" lon="10.495207912657612"><ele>156.0</ele><time>2026-05-01T15:43:29.809Z</time></trkpt><trkpt lat="44.02931373438278" lon="10.495435729699588"><ele>161.66666666666666</ele><time>2026-05-01T15:43:30.809Z</time></trkpt><trkpt lat="44.02920793630684" lon="10.495657267034721"><ele>167.33333333333331</ele><time>2026-05-01T15:43:31.809Z</time></trkpt><trkpt lat="44.02910162850463" lon="10.495868568133687"><ele>173.0</ele><time>2026-05-01T15:43:32.809Z</time></trkpt><trkpt lat="44.02898406856407" lon="10.496055990757224"><ele>173.0</ele><time>2026-05-01T15:43:33.809Z</time></trkpt><trkpt lat="44.02884371255657" lon="10.496249736512965"><ele>173.0</ele><time>2026-05-01T15:43:34.809Z</time></trkpt><trkpt lat="44.02867358452723" lon="10.496424471157328"><ele>173.0</ele><time>2026-05-01T15:43:35.809Z</time></trkpt><trkpt lat="44.02848544392716" lon="10.496602181111552"><ele>179.66666666666666</ele><time>2026-05-01T15:43:36.809Z</time></trkpt><trkpt lat="44.028297221781735" lon="10.496765383941296"><ele>186.33333333333331</ele><time>2026-05-01T15:43:37.809Z</time></trkpt><trkpt lat="44.028115631661755" lon="10.496909036042439"><ele>193.0</ele><time>2026-05-01T15:43:38.809Z</time></trkpt><trkpt lat="44.02794656797858" lon="10.497063284301454"><ele>182.33333333333331</ele><time>2026-05-01T15:43:39.809Z</time></trkpt><trkpt lat="44.027791994776194" lon="10.497252991490443"><ele>171.66666666666666</ele><time>2026-05-01T15:43:40.809Z</time></trkpt><trkpt lat="44.02767630130547" lon="10.497461526552133"><ele>161.0</ele><time>2026-05-01T15:43:41.809Z</time></trkpt><trkpt lat="44.02758017262387" lon="10.497731606204137"><ele>166.66666666666666</ele><time>2026-05-01T15:43:42.809Z</time></trkpt><trkpt lat="44.02748684348881" lon="10.498008091342282"><ele>172.33333333333334</ele><time>2026-05-01T15:43:43.809Z</time></trkpt><trkpt lat="44.02737225236378" lon="10.498249023225336"><ele>178.0</ele><time>2026-05-01T15:43:44.809Z</time></trkpt><trkpt lat="44.02725614539476" lon="10.498441593241587"><ele>178.0</ele><time>2026-05-01T15:43:45.809Z</time></trkpt><trkpt lat="44.027139182308495" lon="10.4986170154058"><ele>178.0</ele><time>2026-05-01T15:43:46.809Z</time></trkpt><trkpt lat="44.02703464189673" lon="10.49877528320425"><ele>178.0</ele><time>2026-05-01T15:43:47.809Z</time></trkpt><trkpt lat="44.02693595977987" lon="10.498928331202276"><ele>185.0</ele><time>2026-05-01T15:43:48.809Z</time></trkpt><trkpt lat="44.026813801112695" lon="10.499089732160703"><ele>192.0</ele><time>2026-05-01T15:43:49.809Z</time></trkpt><trkpt lat="44.02673524382144" lon="10.499268375868247"><ele>199.0</ele><time>2026-05-01T15:43:50.809Z</time></trkpt><trkpt lat="44.02663352646164" lon="10.499440491925961"><ele>190.33333333333331</ele><time>2026-05-01T15:43:51.809Z</time></trkpt><trkpt lat="44.0265347196135" lon="10.49967599329697"><ele>181.66666666666666</ele><time>2026-05-01T15:43:52.809Z</time></trkpt><trkpt lat="44.02641562178964" lon="10.499966304728714"><ele>173.0</ele><time>2026-05-01T15:43:53.809Z</time></trkpt><trkpt lat="44.02628015299839" lon="10.500296521847737"><ele>162.5</ele><time>2026-05-01T15:43:54.809Z</time></trkpt><trkpt lat="44.02615004566345" lon="10.50061449016512"><ele>152.0</ele><time>2026-05-01T15:43:55.809Z</time></trkpt><trkpt lat="44.026014290673494" lon="10.500948392981321"><ele>144.5</ele><time>2026-05-01T15:43:56.809Z</time></trkpt><trkpt lat="44.02589382727485" lon="10.501287995064848"><ele>137.0</ele><time>2026-05-01T15:43:57.809Z</time></trkpt><trkpt lat="44.02575054209553" lon="10.50159550168748"><ele>142.5</ele><time>2026-05-01T15:43:58.809Z</time></trkpt><trkpt lat="44.025618082075425" lon="10.501918835622504"><ele>148.0</ele><time>2026-05-01T15:43:59.809Z</time></trkpt><trkpt lat="44.02549477983895" lon="10.502219815469157"><ele>148.0</ele><time>2026-05-01T15:44:00.808Z</time></trkpt><trkpt lat="44.02537669299562" lon="10.502508064570304"><ele>148.0</ele><time>2026-05-01T15:44:01.808Z</time></trkpt><trkpt lat="44.02527966636999" lon="10.50278509831676"><ele>144.33333333333334</ele><time>2026-05-01T15:44:02.808Z</time></trkpt><trkpt lat="44.02517526160244" lon="10.50303564718283"><ele>140.66666666666666</ele><time>2026-05-01T15:44:03.808Z</time></trkpt><trkpt lat="44.02505694659791" lon="10.503306777600093"><ele>137.0</ele><time>2026-05-01T15:44:04.809Z</time></trkpt><trkpt lat="44.0249471820969" lon="10.503578743589284"><ele>141.5</ele><time>2026-05-01T15:44:05.809Z</time></trkpt><trkpt lat="44.02483968220555" lon="10.503858356835865"><ele>146.0</ele><time>2026-05-01T15:44:06.808Z</time></trkpt><trkpt lat="44.02471692811787" lon="10.504128926982935"><ele>146.0</ele><time>2026-05-01T15:44:07.808Z</time></trkpt><trkpt lat="44.0246081839411" lon="10.50439385360805"><ele>146.0</ele><time>2026-05-01T15:44:08.808Z</time></trkpt><trkpt lat="44.02450095689462" lon="10.504654208864546"><ele>146.0</ele><time>2026-05-01T15:44:09.808Z</time></trkpt><trkpt lat="44.024389788759294" lon="10.504940556356145"><ele>149.5</ele><time>2026-05-01T15:44:10.808Z</time></trkpt><trkpt lat="44.02426662984307" lon="10.505275137737875"><ele>153.0</ele><time>2026-05-01T15:44:11.808Z</time></trkpt><trkpt lat="44.024128751995555" lon="10.505609667637176"><ele>153.0</ele><time>2026-05-01T15:44:12.808Z</time></trkpt><trkpt lat="44.02399206390572" lon="10.50591199458417"><ele>153.0</ele><time>2026-05-01T15:44:13.808Z</time></trkpt><trkpt lat="44.0238626917369" lon="10.506200356623332"><ele>150.0</ele><time>2026-05-01T15:44:14.808Z</time></trkpt><trkpt lat="44.02374041177482" lon="10.506499172457994"><ele>147.0</ele><time>2026-05-01T15:44:15.808Z</time></trkpt><trkpt lat="44.02362496249387" lon="10.506816931341165"><ele>143.0</ele><time>2026-05-01T15:44:16.808Z</time></trkpt><trkpt lat="44.023490344238574" lon="10.507156565725097"><ele>139.0</ele><time>2026-05-01T15:44:17.808Z</time></trkpt><trkpt lat="44.023367165641574" lon="10.507546783784749"><ele>153.0</ele><time>2026-05-01T15:44:18.808Z</time></trkpt><trkpt lat="44.02324998692728" lon="10.507940503281421"><ele>167.0</ele><time>2026-05-01T15:44:19.808Z</time></trkpt><trkpt lat="44.023157453342435" lon="10.508256123523612"><ele>167.0</ele><time>2026-05-01T15:44:20.808Z</time></trkpt><trkpt lat="44.02310167612946" lon="10.508491750610261"><ele>167.0</ele><time>2026-05-01T15:44:21.808Z</time></trkpt><trkpt lat="44.02303992293279" lon="10.508696206281597"><ele>167.0</ele><time>2026-05-01T15:44:22.808Z</time></trkpt><trkpt lat="44.02297530391526" lon="10.508893345468358"><ele>164.33333333333331</ele><time>2026-05-01T15:44:23.808Z</time></trkpt><trkpt lat="44.02291480468025" lon="10.509098623677179"><ele>161.66666666666666</ele><time>2026-05-01T15:44:24.808Z</time></trkpt><trkpt lat="44.02285332181871" lon="10.509308693416283"><ele>159.0</ele><time>2026-05-01T15:44:25.808Z</time></trkpt><trkpt lat="44.02275490602165" lon="10.509529203563346"><ele>161.0</ele><time>2026-05-01T15:44:26.808Z</time></trkpt><trkpt lat="44.02264162621278" lon="10.509778383352334"><ele>163.0</ele><time>2026-05-01T15:44:27.808Z</time></trkpt><trkpt lat="44.02253475580857" lon="10.510029638755087"><ele>165.0</ele><time>2026-05-01T15:44:28.808Z</time></trkpt><trkpt lat="44.0223766386957" lon="10.510269773678901"><ele>157.5</ele><time>2026-05-01T15:44:29.808Z</time></trkpt><trkpt lat="44.022200527352496" lon="10.510524406398222"><ele>150.0</ele><time>2026-05-01T15:44:30.808Z</time></trkpt><trkpt lat="44.02203689681344" lon="10.510768440641842"><ele>150.0</ele><time>2026-05-01T15:44:31.808Z</time></trkpt><trkpt lat="44.02189154738815" lon="10.510985132655188"><ele>150.0</ele><time>2026-05-01T15:44:32.808Z</time></trkpt><trkpt lat="44.0217636957431" lon="10.511203953195437"><ele>150.0</ele><time>2026-05-01T15:44:33.808Z</time></trkpt><trkpt lat="44.021632878877405" lon="10.511390518907655"><ele>158.66666666666666</ele><time>2026-05-01T15:44:34.808Z</time></trkpt><trkpt lat="44.02151625469641" lon="10.511589583780145"><ele>167.33333333333331</ele><time>2026-05-01T15:44:35.808Z</time></trkpt><trkpt lat="44.02140999577986" lon="10.511808548791011"><ele>176.0</ele><time>2026-05-01T15:44:36.808Z</time></trkpt><trkpt lat="44.021294229163146" lon="10.512048534812125"><ele>171.0</ele><time>2026-05-01T15:44:37.808Z</time></trkpt><trkpt lat="44.02117985884107" lon="10.512303131194743"><ele>166.0</ele><time>2026-05-01T15:44:38.808Z</time></trkpt><trkpt lat="44.02107026552996" lon="10.512554551618159"><ele>161.0</ele><time>2026-05-01T15:44:39.808Z</time></trkpt><trkpt lat="44.02097545069283" lon="10.51277663042654"><ele>155.0</ele><time>2026-05-01T15:44:40.808Z</time></trkpt><trkpt lat="44.02088843449816" lon="10.512970513460019"><ele>149.0</ele><time>2026-05-01T15:44:41.808Z</time></trkpt><trkpt lat="44.02080730823577" lon="10.513158842481884"><ele>143.0</ele><time>2026-05-01T15:44:42.808Z</time></trkpt><trkpt lat="44.02072131854442" lon="10.51335786840959"><ele>149.66666666666666</ele><time>2026-05-01T15:44:43.808Z</time></trkpt><trkpt lat="44.02063160423461" lon="10.513591265037144"><ele>156.33333333333334</ele><time>2026-05-01T15:44:44.808Z</time></trkpt><trkpt lat="44.02051789312702" lon="10.513864976897418"><ele>163.0</ele><time>2026-05-01T15:44:45.808Z</time></trkpt><trkpt lat="44.02038956177754" lon="10.514137777108486"><ele>163.0</ele><time>2026-05-01T15:44:46.808Z</time></trkpt><trkpt lat="44.02027054957276" lon="10.51443023926908"><ele>163.0</ele><time>2026-05-01T15:44:47.808Z</time></trkpt><trkpt lat="44.02014471095563" lon="10.514726929561965"><ele>164.66666666666669</ele><time>2026-05-01T15:44:48.808Z</time></trkpt><trkpt lat="44.02002869778173" lon="10.515005275724727"><ele>166.33333333333334</ele><time>2026-05-01T15:44:49.808Z</time></trkpt><trkpt lat="44.019915101073984" lon="10.51526374993345"><ele>168.0</ele><time>2026-05-01T15:44:50.808Z</time></trkpt><trkpt lat="44.019804430041276" lon="10.515533779956725"><ele>168.0</ele><time>2026-05-01T15:44:51.808Z</time></trkpt><trkpt lat="44.01968592653555" lon="10.515846484211398"><ele>168.0</ele><time>2026-05-01T15:44:52.808Z</time></trkpt><trkpt lat="44.019549818629706" lon="10.516185907450819"><ele>159.0</ele><time>2026-05-01T15:44:53.808Z</time></trkpt><trkpt lat="44.019394290794004" lon="10.516552459370516"><ele>150.0</ele><time>2026-05-01T15:44:54.808Z</time></trkpt><trkpt lat="44.01922857484916" lon="10.516926569808062"><ele>158.0</ele><time>2026-05-01T15:44:55.808Z</time></trkpt><trkpt lat="44.01907762678082" lon="10.517258707501133"><ele>166.0</ele><time>2026-05-01T15:44:56.808Z</time></trkpt><trkpt lat="44.01894578252029" lon="10.517553982590155"><ele>166.0</ele><time>2026-05-01T15:44:57.808Z</time></trkpt><trkpt lat="44.018830974522935" lon="10.517827710784998"><ele>166.0</ele><time>2026-05-01T15:44:58.808Z</time></trkpt><trkpt lat="44.01872557900104" lon="10.518072277689893"><ele>166.0</ele><time>2026-05-01T15:44:59.808Z</time></trkpt><trkpt lat="44.01862457520752" lon="10.518304550169509"><ele>162.0</ele><time>2026-05-01T15:45:00.808Z</time></trkpt><trkpt lat="44.01852693464739" lon="10.518527537132728"><ele>158.0</ele><time>2026-05-01T15:45:01.808Z</time></trkpt><trkpt lat="44.01843436170933" lon="10.518743784346828"><ele>154.0</ele><time>2026-05-01T15:45:02.808Z</time></trkpt><trkpt lat="44.018336580679644" lon="10.518974186944405"><ele>169.5</ele><time>2026-05-01T15:45:03.808Z</time></trkpt><trkpt lat="44.01823582418232" lon="10.519233643687526"><ele>185.0</ele><time>2026-05-01T15:45:04.808Z</time></trkpt><trkpt lat="44.018108559066114" lon="10.519528184023157"><ele>177.5</ele><time>2026-05-01T15:45:05.808Z</time></trkpt><trkpt lat="44.017968694512916" lon="10.519841658833625"><ele>170.0</ele><time>2026-05-01T15:45:06.808Z</time></trkpt><trkpt lat="44.017830392302876" lon="10.52014564981811"><ele>162.0</ele><time>2026-05-01T15:45:07.808Z</time></trkpt><trkpt lat="44.017700858480104" lon="10.520437134048159"><ele>154.0</ele><time>2026-05-01T15:45:08.808Z</time></trkpt><trkpt lat="44.017577526040974" lon="10.520711302925886"><ele>159.0</ele><time>2026-05-01T15:45:09.808Z</time></trkpt><trkpt lat="44.017463274493615" lon="10.520972043257045"><ele>164.0</ele><time>2026-05-01T15:45:10.808Z</time></trkpt><trkpt lat="44.017355856667834" lon="10.521234874742431"><ele>169.0</ele><time>2026-05-01T15:45:11.808Z</time></trkpt><trkpt lat="44.01725382429524" lon="10.5214994666494"><ele>169.0</ele><time>2026-05-01T15:45:12.808Z</time></trkpt><trkpt lat="44.01715827548368" lon="10.521759246092454"><ele>169.0</ele><time>2026-05-01T15:45:13.808Z</time></trkpt><trkpt lat="44.01708410036646" lon="10.52201560183258"><ele>169.0</ele><time>2026-05-01T15:45:14.808Z</time></trkpt><trkpt lat="44.017019135697225" lon="10.52226382877478"><ele>163.66666666666669</ele><time>2026-05-01T15:45:15.808Z</time></trkpt><trkpt lat="44.01696611800341" lon="10.522505377105608"><ele>158.33333333333334</ele><time>2026-05-01T15:45:16.808Z</time></trkpt><trkpt lat="44.016923842942866" lon="10.522741464878203"><ele>153.0</ele><time>2026-05-01T15:45:17.808Z</time></trkpt><trkpt lat="44.016893026901535" lon="10.522977342057214"><ele>151.0</ele><time>2026-05-01T15:45:18.808Z</time></trkpt><trkpt lat="44.016861280267996" lon="10.523204711957298"><ele>149.0</ele><time>2026-05-01T15:45:19.808Z</time></trkpt><trkpt lat="44.016846383788426" lon="10.523421657498458"><ele>147.0</ele><time>2026-05-01T15:45:20.808Z</time></trkpt><trkpt lat="44.016846672132246" lon="10.523673237326062"><ele>145.5</ele><time>2026-05-01T15:45:21.808Z</time></trkpt><trkpt lat="44.01685436044687" lon="10.523994559624708"><ele>144.0</ele><time>2026-05-01T15:45:22.808Z</time></trkpt><trkpt lat="44.016861389324234" lon="10.5243692030419"><ele>142.0</ele><time>2026-05-01T15:45:23.808Z</time></trkpt><trkpt lat="44.01687866024168" lon="10.524713680674335"><ele>140.0</ele><time>2026-05-01T15:45:24.808Z</time></trkpt><trkpt lat="44.01692497366579" lon="10.52503167082675"><ele>140.0</ele><time>2026-05-01T15:45:25.808Z</time></trkpt><trkpt lat="44.01696847199399" lon="10.525292518841493"><ele>140.0</ele><time>2026-05-01T15:45:26.808Z</time></trkpt><trkpt lat="44.01702284672777" lon="10.525517868780183"><ele>140.0</ele><time>2026-05-01T15:45:27.808Z</time></trkpt><trkpt lat="44.017065984581826" lon="10.52573734949919"><ele>137.5</ele><time>2026-05-01T15:45:28.808Z</time></trkpt><trkpt lat="44.01712069283186" lon="10.525948227488538"><ele>135.0</ele><time>2026-05-01T15:45:29.808Z</time></trkpt><trkpt lat="44.01719914491855" lon="10.526665158927019"><ele>136.0</ele><time>2026-05-01T15:45:30.808Z</time></trkpt><trkpt lat="44.01726974030219" lon="10.52697211085621"><ele>137.0</ele><time>2026-05-01T15:45:31.808Z</time></trkpt><trkpt lat="44.01733556876814" lon="10.527278207010143"><ele>137.0</ele><time>2026-05-01T15:45:32.808Z</time></trkpt><trkpt lat="44.01740004795599" lon="10.527580561829351"><ele>137.0</ele><time>2026-05-01T15:45:33.808Z</time></trkpt><trkpt lat="44.01746382473373" lon="10.527881075394005"><ele>135.0</ele><time>2026-05-01T15:45:34.808Z</time></trkpt><trkpt lat="44.01752731734805" lon="10.528178250447862"><ele>133.0</ele><time>2026-05-01T15:45:35.808Z</time></trkpt><trkpt lat="44.01759380354969" lon="10.528474847845981"><ele>131.0</ele><time>2026-05-01T15:45:36.808Z</time></trkpt><trkpt lat="44.0176608953105" lon="10.528753235053605"><ele>131.0</ele><time>2026-05-01T15:45:37.808Z</time></trkpt><trkpt lat="44.017725826843794" lon="10.529013571188795"><ele>131.0</ele><time>2026-05-01T15:45:38.808Z</time></trkpt><trkpt lat="44.01778470130163" lon="10.529269802604126"><ele>131.0</ele><time>2026-05-01T15:45:39.808Z</time></trkpt><trkpt lat="44.017853989148286" lon="10.529538760121552"><ele>128.5</ele><time>2026-05-01T15:45:40.808Z</time></trkpt><trkpt lat="44.017924998231074" lon="10.529841455478387"><ele>126.0</ele><time>2026-05-01T15:45:41.808Z</time></trkpt><trkpt lat="44.01800192690724" lon="10.53018401983208"><ele>126.5</ele><time>2026-05-01T15:45:42.808Z</time></trkpt><trkpt lat="44.01807142042024" lon="10.530530723377971"><ele>127.0</ele><time>2026-05-01T15:45:43.808Z</time></trkpt><trkpt lat="44.01814179794743" lon="10.530884465750633"><ele>132.5</ele><time>2026-05-01T15:45:44.808Z</time></trkpt><trkpt lat="44.01820931729293" lon="10.531229538928612"><ele>138.0</ele><time>2026-05-01T15:45:45.808Z</time></trkpt><trkpt lat="44.018273582876056" lon="10.531547940214894"><ele>139.5</ele><time>2026-05-01T15:45:46.808Z</time></trkpt><trkpt lat="44.01834015394364" lon="10.531859142124027"><ele>141.0</ele><time>2026-05-01T15:45:47.808Z</time></trkpt><trkpt lat="44.01840526060741" lon="10.532159837343361"><ele>141.0</ele><time>2026-05-01T15:45:48.808Z</time></trkpt><trkpt lat="44.018467781276" lon="10.532459937096194"><ele>141.0</ele><time>2026-05-01T15:45:49.808Z</time></trkpt><trkpt lat="44.01853532044488" lon="10.532743868396734"><ele>141.0</ele><time>2026-05-01T15:45:50.808Z</time></trkpt><trkpt lat="44.01861549948335" lon="10.533018034790897"><ele>147.66666666666666</ele><time>2026-05-01T15:45:51.808Z</time></trkpt><trkpt lat="44.01871416231811" lon="10.53329058726329"><ele>154.33333333333331</ele><time>2026-05-01T15:45:52.808Z</time></trkpt><trkpt lat="44.0188372849383" lon="10.533535944904923"><ele>161.0</ele><time>2026-05-01T15:45:53.808Z</time></trkpt><trkpt lat="44.01895388175386" lon="10.533778950169607"><ele>153.66666666666666</ele><time>2026-05-01T15:45:54.808Z</time></trkpt><trkpt lat="44.019065705046856" lon="10.533993005548401"><ele>146.33333333333334</ele><time>2026-05-01T15:45:55.808Z</time></trkpt><trkpt lat="44.01917291060663" lon="10.534201220004562"><ele>139.0</ele><time>2026-05-01T15:45:56.808Z</time></trkpt><trkpt lat="44.019261469348294" lon="10.534385119237413"><ele>139.0</ele><time>2026-05-01T15:45:57.808Z</time></trkpt><trkpt lat="44.01933740520144" lon="10.534547675777779"><ele>139.0</ele><time>2026-05-01T15:45:58.808Z</time></trkpt><trkpt lat="44.019399419305294" lon="10.534680716971904"><ele>139.0</ele><time>2026-05-01T15:45:59.808Z</time></trkpt><trkpt lat="44.01945534926033" lon="10.534797334919805"><ele>139.0</ele><time>2026-05-01T15:46:00.808Z</time></trkpt><trkpt lat="44.01950164859738" lon="10.534888955135472"><ele>139.0</ele><time>2026-05-01T15:46:01.808Z</time></trkpt><trkpt lat="44.01953501094852" lon="10.53497077958044"><ele>139.0</ele><time>2026-05-01T15:46:03.808Z</time></trkpt><trkpt lat="44.01966325593354" lon="10.534864945200287"><ele>139.0</ele><time>2026-05-01T15:46:04.808Z</time></trkpt><trkpt lat="44.01975659840874" lon="10.534757945085781"><ele>139.0</ele><time>2026-05-01T15:46:05.808Z</time></trkpt><trkpt lat="44.01986079166209" lon="10.53462234317233"><ele>139.0</ele><time>2026-05-01T15:46:06.807Z</time></trkpt><trkpt lat="44.01994769379355" lon="10.534517266610921"><ele>135.0</ele><time>2026-05-01T15:46:07.808Z</time></trkpt><trkpt lat="44.020024209555515" lon="10.534424052742821"><ele>131.0</ele><time>2026-05-01T15:46:08.808Z</time></trkpt><trkpt lat="44.02008729400059" lon="10.534359939003885"><ele>127.0</ele><time>2026-05-01T15:46:09.808Z</time></trkpt><trkpt lat="44.020173254476965" lon="10.53431988966671"><ele>123.0</ele><time>2026-05-01T15:46:11.808Z</time></trkpt><trkpt lat="44.02026701584178" lon="10.534516783397978"><ele>119.0</ele><time>2026-05-01T15:46:13.808Z</time></trkpt><trkpt lat="44.02030993035403" lon="10.534681969914855"><ele>119.0</ele><time>2026-05-01T15:46:14.808Z</time></trkpt><trkpt lat="44.02036990892649" lon="10.534853046635927"><ele>119.0</ele><time>2026-05-01T15:46:15.808Z</time></trkpt><trkpt lat="44.020398047338695" lon="10.535050671570573"><ele>119.0</ele><time>2026-05-01T15:46:16.808Z</time></trkpt><trkpt lat="44.02045686782849" lon="10.5352911751391"><ele>120.66666666666666</ele><time>2026-05-01T15:46:17.808Z</time></trkpt><trkpt lat="44.02052051101402" lon="10.53549680840521"><ele>122.33333333333334</ele><time>2026-05-01T15:46:18.808Z</time></trkpt><trkpt lat="44.02058101421993" lon="10.535714275038425"><ele>124.0</ele><time>2026-05-01T15:46:19.808Z</time></trkpt><trkpt lat="44.02062866488636" lon="10.53591422753271"><ele>124.0</ele><time>2026-05-01T15:46:20.808Z</time></trkpt><trkpt lat="44.02064070048974" lon="10.536112601137258"><ele>124.0</ele><time>2026-05-01T15:46:21.808Z</time></trkpt><trkpt lat="44.020648565943745" lon="10.536321077143832"><ele>124.0</ele><time>2026-05-01T15:46:22.808Z</time></trkpt><trkpt lat="44.02063503398311" lon="10.536534614163592"><ele>124.0</ele><time>2026-05-01T15:46:23.808Z</time></trkpt><trkpt lat="44.0206096528732" lon="10.53675515430117"><ele>123.66666666666667</ele><time>2026-05-01T15:46:24.808Z</time></trkpt><trkpt lat="44.020593987772884" lon="10.536981545305695"><ele>123.33333333333334</ele><time>2026-05-01T15:46:25.808Z</time></trkpt><trkpt lat="44.02054896583188" lon="10.53717123210536"><ele>123.0</ele><time>2026-05-01T15:46:26.808Z</time></trkpt><trkpt lat="44.02050830897255" lon="10.537364456751998"><ele>123.0</ele><time>2026-05-01T15:46:27.808Z</time></trkpt><trkpt lat="44.02040121758234" lon="10.537547732411996"><ele>123.0</ele><time>2026-05-01T15:46:28.808Z</time></trkpt><trkpt lat="44.020307136045226" lon="10.537760437548757"><ele>123.0</ele><time>2026-05-01T15:46:29.808Z</time></trkpt><trkpt lat="44.02018982933637" lon="10.537954798463266"><ele>121.33333333333334</ele><time>2026-05-01T15:46:30.808Z</time></trkpt><trkpt lat="44.02006835951526" lon="10.53816507588614"><ele>119.66666666666667</ele><time>2026-05-01T15:46:31.808Z</time></trkpt><trkpt lat="44.01993190331265" lon="10.53836124604013"><ele>118.0</ele><time>2026-05-01T15:46:32.808Z</time></trkpt><trkpt lat="44.0197869912328" lon="10.538535874330382"><ele>118.0</ele><time>2026-05-01T15:46:33.808Z</time></trkpt><trkpt lat="44.01965411066947" lon="10.53867846635441"><ele>118.0</ele><time>2026-05-01T15:46:34.808Z</time></trkpt><trkpt lat="44.01954066046132" lon="10.53880329590011"><ele>118.0</ele><time>2026-05-01T15:46:35.808Z</time></trkpt><trkpt lat="44.019452992748704" lon="10.538925462829859"><ele>118.0</ele><time>2026-05-01T15:46:36.808Z</time></trkpt><trkpt lat="44.01936299776681" lon="10.539019622487356"><ele>118.2</ele><time>2026-05-01T15:46:37.808Z</time></trkpt><trkpt lat="44.01929084132059" lon="10.53911076744924"><ele>118.4</ele><time>2026-05-01T15:46:38.808Z</time></trkpt><trkpt lat="44.01921421031308" lon="10.539160140849646"><ele>118.60000000000001</ele><time>2026-05-01T15:46:39.808Z</time></trkpt><trkpt lat="44.01916404796902" lon="10.539227250121876"><ele>118.80000000000001</ele><time>2026-05-01T15:46:40.808Z</time></trkpt><trkpt lat="44.01908389988739" lon="10.53929534987886"><ele>119.0</ele><time>2026-05-01T15:46:41.808Z</time></trkpt><trkpt lat="44.01897944358409" lon="10.539380461136059"><ele>119.0</ele><time>2026-05-01T15:46:42.808Z</time></trkpt><trkpt lat="44.018841592051224" lon="10.539450064141905"><ele>119.0</ele><time>2026-05-01T15:46:43.808Z</time></trkpt><trkpt lat="44.01869817070027" lon="10.539497312564967"><ele>119.0</ele><time>2026-05-01T15:46:44.808Z</time></trkpt><trkpt lat="44.018573059656894" lon="10.539549527216415"><ele>119.0</ele><time>2026-05-01T15:46:45.808Z</time></trkpt><trkpt lat="44.01842882578794" lon="10.539654035141009"><ele>116.66666666666666</ele><time>2026-05-01T15:46:46.808Z</time></trkpt><trkpt lat="44.018258184227655" lon="10.539816131837375"><ele>114.33333333333334</ele><time>2026-05-01T15:46:47.808Z</time></trkpt><trkpt lat="44.01807435701492" lon="10.53998824993846"><ele>112.0</ele><time>2026-05-01T15:46:48.808Z</time></trkpt><trkpt lat="44.01788129126016" lon="10.540106158767097"><ele>112.0</ele><time>2026-05-01T15:46:49.808Z</time></trkpt><trkpt lat="44.0176748441228" lon="10.540221857039864"><ele>112.0</ele><time>2026-05-01T15:46:50.808Z</time></trkpt><trkpt lat="44.01746686166463" lon="10.54034470424363"><ele>112.0</ele><time>2026-05-01T15:46:51.808Z</time></trkpt><trkpt lat="44.017260349793666" lon="10.540471970311541"><ele>113.5</ele><time>2026-05-01T15:46:52.808Z</time></trkpt><trkpt lat="44.0170488474401" lon="10.540606265491713"><ele>115.0</ele><time>2026-05-01T15:46:53.808Z</time></trkpt><trkpt lat="44.01683537206245" lon="10.540738602793047"><ele>114.0</ele><time>2026-05-01T15:46:54.808Z</time></trkpt><trkpt lat="44.016618067210125" lon="10.540872802022076"><ele>113.0</ele><time>2026-05-01T15:46:55.808Z</time></trkpt><trkpt lat="44.01640449350947" lon="10.540999596391378"><ele>113.0</ele><time>2026-05-01T15:46:56.808Z</time></trkpt><trkpt lat="44.01620968719835" lon="10.54111565599136"><ele>113.0</ele><time>2026-05-01T15:46:57.808Z</time></trkpt><trkpt lat="44.01602504250016" lon="10.54123196362511"><ele>113.0</ele><time>2026-05-01T15:46:58.808Z</time></trkpt><trkpt lat="44.01583349680695" lon="10.541348724625648"><ele>114.0</ele><time>2026-05-01T15:46:59.808Z</time></trkpt><trkpt lat="44.01564182243315" lon="10.541466541207656"><ele>115.0</ele><time>2026-05-01T15:47:00.808Z</time></trkpt><trkpt lat="44.01544640477365" lon="10.541584126381672"><ele>116.0</ele><time>2026-05-01T15:47:01.808Z</time></trkpt><trkpt lat="44.01525212354222" lon="10.541703811277344"><ele>116.0</ele><time>2026-05-01T15:47:02.808Z</time></trkpt><trkpt lat="44.01505317002458" lon="10.541812059016232"><ele>116.0</ele><time>2026-05-01T15:47:03.808Z</time></trkpt><trkpt lat="44.01484145978451" lon="10.541887495261868"><ele>116.0</ele><time>2026-05-01T15:47:04.808Z</time></trkpt><trkpt lat="44.014620209011554" lon="10.541937805913387"><ele>115.33333333333333</ele><time>2026-05-01T15:47:05.808Z</time></trkpt><trkpt lat="44.0143988131866" lon="10.541976191395328"><ele>114.66666666666666</ele><time>2026-05-01T15:47:06.808Z</time></trkpt><trkpt lat="44.01418884511362" lon="10.542013999346091"><ele>114.0</ele><time>2026-05-01T15:47:07.808Z</time></trkpt><trkpt lat="44.014003311868436" lon="10.542049815720087"><ele>114.0</ele><time>2026-05-01T15:47:08.808Z</time></trkpt><trkpt lat="44.01383750547532" lon="10.542101126127365"><ele>114.0</ele><time>2026-05-01T15:47:09.808Z</time></trkpt><trkpt lat="44.013694384835816" lon="10.542179346201639"><ele>114.0</ele><time>2026-05-01T15:47:10.808Z</time></trkpt><trkpt lat="44.01356487444676" lon="10.54229524978468"><ele>114.0</ele><time>2026-05-01T15:47:11.808Z</time></trkpt><trkpt lat="44.013445693467304" lon="10.542459535819034"><ele>114.0</ele><time>2026-05-01T15:47:12.808Z</time></trkpt><trkpt lat="44.01333707493514" lon="10.54265139199609"><ele>114.0</ele><time>2026-05-01T15:47:13.808Z</time></trkpt><trkpt lat="44.01323068702479" lon="10.542842740089391"><ele>113.66666666666666</ele><time>2026-05-01T15:47:14.808Z</time></trkpt><trkpt lat="44.013127260634874" lon="10.543012619971362"><ele>113.33333333333333</ele><time>2026-05-01T15:47:15.808Z</time></trkpt><trkpt lat="44.01302349716714" lon="10.543180358101097"><ele>113.0</ele><time>2026-05-01T15:47:16.808Z</time></trkpt><trkpt lat="44.01290579789566" lon="10.543363853818486"><ele>113.0</ele><time>2026-05-01T15:47:17.808Z</time></trkpt><trkpt lat="44.01278233192704" lon="10.543526180437715"><ele>113.0</ele><time>2026-05-01T15:47:18.808Z</time></trkpt><trkpt lat="44.01265684019392" lon="10.543657382403323"><ele>113.0</ele><time>2026-05-01T15:47:19.808Z</time></trkpt><trkpt lat="44.01252758347512" lon="10.543765676657143"><ele>113.0</ele><time>2026-05-01T15:47:20.808Z</time></trkpt><trkpt lat="44.012397319674925" lon="10.543839202411641"><ele>113.0</ele><time>2026-05-01T15:47:21.808Z</time></trkpt><trkpt lat="44.012276391500286" lon="10.543899196509477"><ele>113.0</ele><time>2026-05-01T15:47:22.808Z</time></trkpt><trkpt lat="44.012183525578614" lon="10.543984559182256"><ele>113.0</ele><time>2026-05-01T15:47:23.808Z</time></trkpt><trkpt lat="44.01212717500681" lon="10.54414181906798"><ele>113.0</ele><time>2026-05-01T15:47:24.808Z</time></trkpt><trkpt lat="44.01209587357791" lon="10.544335473423784"><ele>113.0</ele><time>2026-05-01T15:47:25.808Z</time></trkpt><trkpt lat="44.01207457361544" lon="10.544570964778265"><ele>113.0</ele><time>2026-05-01T15:47:26.808Z</time></trkpt><trkpt lat="44.01204048340684" lon="10.544818344523023"><ele>116.5</ele><time>2026-05-01T15:47:27.808Z</time></trkpt><trkpt lat="44.011883690241525" lon="10.54506115166073"><ele>120.0</ele><time>2026-05-01T15:47:28.808Z</time></trkpt><trkpt lat="44.011747635701795" lon="10.545326523938924"><ele>117.5</ele><time>2026-05-01T15:47:29.808Z</time></trkpt><trkpt lat="44.01161164938266" lon="10.545596213035687"><ele>115.0</ele><time>2026-05-01T15:47:30.808Z</time></trkpt><trkpt lat="44.01149521858635" lon="10.545862405041422"><ele>115.0</ele><time>2026-05-01T15:47:31.808Z</time></trkpt><trkpt lat="44.011362635193024" lon="10.54607658599209"><ele>115.0</ele><time>2026-05-01T15:47:32.808Z</time></trkpt><trkpt lat="44.011250477226895" lon="10.546287075953895"><ele>115.0</ele><time>2026-05-01T15:47:33.808Z</time></trkpt><trkpt lat="44.01115767215785" lon="10.546486187387005"><ele>115.66666666666667</ele><time>2026-05-01T15:47:34.808Z</time></trkpt><trkpt lat="44.01103989443384" lon="10.546666479242857"><ele>116.33333333333334</ele><time>2026-05-01T15:47:35.808Z</time></trkpt><trkpt lat="44.01089941355899" lon="10.546826507691785"><ele>117.0</ele><time>2026-05-01T15:47:36.808Z</time></trkpt><trkpt lat="44.01073279764642" lon="10.546962472531437"><ele>122.66666666666666</ele><time>2026-05-01T15:47:37.808Z</time></trkpt><trkpt lat="44.010556841579366" lon="10.547064448773432"><ele>128.33333333333331</ele><time>2026-05-01T15:47:38.808Z</time></trkpt><trkpt lat="44.01037402392928" lon="10.54714953273142"><ele>134.0</ele><time>2026-05-01T15:47:39.808Z</time></trkpt><trkpt lat="44.01018045933771" lon="10.547186203570005"><ele>133.66666666666666</ele><time>2026-05-01T15:47:40.808Z</time></trkpt><trkpt lat="44.009985836979716" lon="10.547146988183814"><ele>133.33333333333334</ele><time>2026-05-01T15:47:41.808Z</time></trkpt><trkpt lat="44.00979917440023" lon="10.547137232020653"><ele>133.0</ele><time>2026-05-01T15:47:42.808Z</time></trkpt><trkpt lat="44.00962922642743" lon="10.547148842205816"><ele>133.0</ele><time>2026-05-01T15:47:43.808Z</time></trkpt><trkpt lat="44.0094729443055" lon="10.547137933605724"><ele>133.0</ele><time>2026-05-01T15:47:44.808Z</time></trkpt><trkpt lat="44.009334148066884" lon="10.54715711389805"><ele>133.0</ele><time>2026-05-01T15:47:45.808Z</time></trkpt><trkpt lat="44.00919372233636" lon="10.54720406399607"><ele>133.0</ele><time>2026-05-01T15:47:46.808Z</time></trkpt><trkpt lat="44.00904649411217" lon="10.547270282966306"><ele>130.0</ele><time>2026-05-01T15:47:47.808Z</time></trkpt><trkpt lat="44.008894848740006" lon="10.547338786692853"><ele>127.0</ele><time>2026-05-01T15:47:48.808Z</time></trkpt><trkpt lat="44.00872667221235" lon="10.547388109792227"><ele>124.0</ele><time>2026-05-01T15:47:49.808Z</time></trkpt><trkpt lat="44.008586672902965" lon="10.547470020333536"><ele>124.0</ele><time>2026-05-01T15:47:50.808Z</time></trkpt><trkpt lat="44.008458129494706" lon="10.547540325265432"><ele>124.0</ele><time>2026-05-01T15:47:51.808Z</time></trkpt><trkpt lat="44.008370434400966" lon="10.547626045434447"><ele>124.0</ele><time>2026-05-01T15:47:52.808Z</time></trkpt><trkpt lat="44.00831585578957" lon="10.547745552197412"><ele>124.0</ele><time>2026-05-01T15:47:53.808Z</time></trkpt><trkpt lat="44.008301756135" lon="10.547907757373194"><ele>121.33333333333334</ele><time>2026-05-01T15:47:54.808Z</time></trkpt><trkpt lat="44.00831515719017" lon="10.548097776250485"><ele>118.66666666666666</ele><time>2026-05-01T15:47:55.808Z</time></trkpt><trkpt lat="44.008337967600774" lon="10.54830812288952"><ele>116.0</ele><time>2026-05-01T15:47:56.808Z</time></trkpt><trkpt lat="44.00831651783517" lon="10.548527652755682"><ele>120.33333333333333</ele><time>2026-05-01T15:47:57.808Z</time></trkpt><trkpt lat="44.00829069412907" lon="10.548739234722465"><ele>124.66666666666666</ele><time>2026-05-01T15:47:58.808Z</time></trkpt><trkpt lat="44.00820673337814" lon="10.548912386926522"><ele>129.0</ele><time>2026-05-01T15:47:59.808Z</time></trkpt><trkpt lat="44.00808816194518" lon="10.549075666428589"><ele>129.0</ele><time>2026-05-01T15:48:00.808Z</time></trkpt><trkpt lat="44.00793890877357" lon="10.549221151451523"><ele>129.0</ele><time>2026-05-01T15:48:01.808Z</time></trkpt><trkpt lat="44.00777113288781" lon="10.549356287515414"><ele>129.0</ele><time>2026-05-01T15:48:02.808Z</time></trkpt><trkpt lat="44.00759515475621" lon="10.54949628538922"><ele>129.66666666666666</ele><time>2026-05-01T15:48:03.808Z</time></trkpt><trkpt lat="44.00742650608003" lon="10.549627314708129"><ele>130.33333333333331</ele><time>2026-05-01T15:48:04.808Z</time></trkpt><trkpt lat="44.007269254116444" lon="10.54974524939699"><ele>131.0</ele><time>2026-05-01T15:48:05.808Z</time></trkpt><trkpt lat="44.00710664245685" lon="10.549840000644407"><ele>131.0</ele><time>2026-05-01T15:48:06.808Z</time></trkpt><trkpt lat="44.00694028293575" lon="10.549910405361409"><ele>131.0</ele><time>2026-05-01T15:48:07.808Z</time></trkpt><trkpt lat="44.006759879641955" lon="10.549966806964296"><ele>131.0</ele><time>2026-05-01T15:48:08.808Z</time></trkpt><trkpt lat="44.00658003804944" lon="10.550040767033682"><ele>126.66666666666666</ele><time>2026-05-01T15:48:09.808Z</time></trkpt><trkpt lat="44.00639644796087" lon="10.55007529316197"><ele>122.33333333333334</ele><time>2026-05-01T15:48:10.808Z</time></trkpt><trkpt lat="44.00622195834727" lon="10.55013698739422"><ele>118.0</ele><time>2026-05-01T15:48:11.808Z</time></trkpt><trkpt lat="44.00604930710928" lon="10.55022664512883"><ele>118.0</ele><time>2026-05-01T15:48:12.807Z</time></trkpt><trkpt lat="44.00588114183987" lon="10.550338010853514"><ele>118.0</ele><time>2026-05-01T15:48:13.807Z</time></trkpt><trkpt lat="44.00571561171753" lon="10.550464403251071"><ele>118.0</ele><time>2026-05-01T15:48:14.807Z</time></trkpt><trkpt lat="44.00555029670133" lon="10.550603021449438"><ele>116.66666666666667</ele><time>2026-05-01T15:48:15.807Z</time></trkpt><trkpt lat="44.00538851676413" lon="10.550759747587385"><ele>115.33333333333334</ele><time>2026-05-01T15:48:16.807Z</time></trkpt><trkpt lat="44.00523978698768" lon="10.550921970449323"><ele>114.0</ele><time>2026-05-01T15:48:17.807Z</time></trkpt><trkpt lat="44.005101079388965" lon="10.551074603475469"><ele>114.0</ele><time>2026-05-01T15:48:18.807Z</time></trkpt><trkpt lat="44.004968880884384" lon="10.55121219761989"><ele>114.0</ele><time>2026-05-01T15:48:19.807Z</time></trkpt><trkpt lat="44.00483799712802" lon="10.5513277860496"><ele>114.0</ele><time>2026-05-01T15:48:20.807Z</time></trkpt><trkpt lat="44.004709346307" lon="10.551403782437163"><ele>114.0</ele><time>2026-05-01T15:48:21.807Z</time></trkpt><trkpt lat="44.0045848507389" lon="10.551489922196044"><ele>114.0</ele><time>2026-05-01T15:48:22.807Z</time></trkpt><trkpt lat="44.004461204616426" lon="10.551539978277683"><ele>114.0</ele><time>2026-05-01T15:48:23.807Z</time></trkpt><trkpt lat="44.004357842028384" lon="10.551641015893077"><ele>114.0</ele><time>2026-05-01T15:48:24.807Z</time></trkpt><trkpt lat="44.004283509957446" lon="10.551785387977217"><ele>114.0</ele><time>2026-05-01T15:48:25.807Z</time></trkpt><trkpt lat="44.00423252883546" lon="10.551955562929596"><ele>114.0</ele><time>2026-05-01T15:48:26.807Z</time></trkpt><trkpt lat="44.00422750642875" lon="10.5521486014714"><ele>114.0</ele><time>2026-05-01T15:48:27.807Z</time></trkpt><trkpt lat="44.0042299116352" lon="10.552339718203536"><ele>114.0</ele><time>2026-05-01T15:48:28.807Z</time></trkpt><trkpt lat="44.00426845486969" lon="10.552520345076749"><ele>113.5</ele><time>2026-05-01T15:48:29.807Z</time></trkpt><trkpt lat="44.00431204970998" lon="10.55271868277232"><ele>113.0</ele><time>2026-05-01T15:48:30.807Z</time></trkpt><trkpt lat="44.004361379789685" lon="10.552865356910251"><ele>112.5</ele><time>2026-05-01T15:48:31.807Z</time></trkpt><trkpt lat="44.004481626928545" lon="10.553057227716163"><ele>112.0</ele><time>2026-05-01T15:48:32.807Z</time></trkpt><trkpt lat="44.0045791628546" lon="10.553253486351817"><ele>112.0</ele><time>2026-05-01T15:48:33.807Z</time></trkpt><trkpt lat="44.00466219388689" lon="10.553475202172534"><ele>112.0</ele><time>2026-05-01T15:48:34.807Z</time></trkpt><trkpt lat="44.00474660994881" lon="10.55368677948412"><ele>112.0</ele><time>2026-05-01T15:48:35.807Z</time></trkpt><trkpt lat="44.00481633860802" lon="10.553900150331394"><ele>112.0</ele><time>2026-05-01T15:48:36.807Z</time></trkpt><trkpt lat="44.004882195282306" lon="10.554100188342986"><ele>112.0</ele><time>2026-05-01T15:48:37.807Z</time></trkpt><trkpt lat="44.00493787359311" lon="10.554299337629617"><ele>112.0</ele><time>2026-05-01T15:48:38.807Z</time></trkpt><trkpt lat="44.0049918484094" lon="10.55449614268985"><ele>113.0</ele><time>2026-05-01T15:48:39.807Z</time></trkpt><trkpt lat="44.00504805457568" lon="10.554694572275572"><ele>114.0</ele><time>2026-05-01T15:48:40.807Z</time></trkpt><trkpt lat="44.00508885930071" lon="10.554866332012825"><ele>115.0</ele><time>2026-05-01T15:48:41.807Z</time></trkpt><trkpt lat="44.00511516124212" lon="10.555035106644926"><ele>116.0</ele><time>2026-05-01T15:48:42.807Z</time></trkpt><trkpt lat="44.00513520070946" lon="10.555179233924084"><ele>116.0</ele><time>2026-05-01T15:48:43.807Z</time></trkpt><trkpt lat="44.005099989232214" lon="10.555291803279182"><ele>116.0</ele><time>2026-05-01T15:48:44.807Z</time></trkpt><trkpt lat="44.00505273733295" lon="10.55540261463494"><ele>116.0</ele><time>2026-05-01T15:48:45.807Z</time></trkpt><trkpt lat="44.00496157087876" lon="10.555499417439794"><ele>116.0</ele><time>2026-05-01T15:48:46.807Z</time></trkpt><trkpt lat="44.00484251304474" lon="10.555572001623782"><ele>116.0</ele><time>2026-05-01T15:48:47.807Z</time></trkpt><trkpt lat="44.004684161296346" lon="10.555681439703708"><ele>114.0</ele><time>2026-05-01T15:48:48.807Z</time></trkpt><trkpt lat="44.00452064550277" lon="10.555794787179181"><ele>112.0</ele><time>2026-05-01T15:48:49.807Z</time></trkpt><trkpt lat="44.00433794821601" lon="10.555917311536765"><ele>110.0</ele><time>2026-05-01T15:48:50.807Z</time></trkpt><trkpt lat="44.004137817889735" lon="10.556050346583392"><ele>109.5</ele><time>2026-05-01T15:48:51.807Z</time></trkpt><trkpt lat="44.00390216929068" lon="10.556207439594182"><ele>109.0</ele><time>2026-05-01T15:48:52.807Z</time></trkpt><trkpt lat="44.00359882966803" lon="10.556425104478539"><ele>109.0</ele><time>2026-05-01T15:48:53.807Z</time></trkpt><trkpt lat="44.0033695828194" lon="10.556559034048195"><ele>109.0</ele><time>2026-05-01T15:48:54.807Z</time></trkpt><trkpt lat="44.00316792230159" lon="10.556696318111804"><ele>107.66666666666667</ele><time>2026-05-01T15:48:55.807Z</time></trkpt><trkpt lat="44.00297326552584" lon="10.556829378384217"><ele>106.33333333333334</ele><time>2026-05-01T15:48:56.807Z</time></trkpt><trkpt lat="44.00278582117266" lon="10.55696531874617"><ele>105.0</ele><time>2026-05-01T15:48:57.807Z</time></trkpt><trkpt lat="44.002599040061114" lon="10.557102731160148"><ele>103.33333333333334</ele><time>2026-05-01T15:48:58.807Z</time></trkpt><trkpt lat="44.00240154601492" lon="10.55721757178214"><ele>101.66666666666667</ele><time>2026-05-01T15:48:59.807Z</time></trkpt><trkpt lat="44.00220727779752" lon="10.557354578493365"><ele>100.0</ele><time>2026-05-01T15:49:00.807Z</time></trkpt><trkpt lat="44.00200780959852" lon="10.557494944904679"><ele>100.0</ele><time>2026-05-01T15:49:01.807Z</time></trkpt><trkpt lat="44.00180636956545" lon="10.557633777270436"><ele>100.0</ele><time>2026-05-01T15:49:02.807Z</time></trkpt><trkpt lat="44.00160569153966" lon="10.557762270149146"><ele>100.0</ele><time>2026-05-01T15:49:03.807Z</time></trkpt><trkpt lat="44.00140587584354" lon="10.557894038485452"><ele>102.33333333333334</ele><time>2026-05-01T15:49:04.807Z</time></trkpt><trkpt lat="44.00121926061337" lon="10.558019653630556"><ele>104.66666666666666</ele><time>2026-05-01T15:49:05.807Z</time></trkpt><trkpt lat="44.00104535268322" lon="10.558140873191975"><ele>107.0</ele><time>2026-05-01T15:49:06.807Z</time></trkpt><trkpt lat="44.000883003918794" lon="10.558261331849701"><ele>107.0</ele><time>2026-05-01T15:49:07.807Z</time></trkpt><trkpt lat="44.000714155157006" lon="10.558355178614303"><ele>107.0</ele><time>2026-05-01T15:49:08.807Z</time></trkpt><trkpt lat="44.00057346760735" lon="10.558449953822993"><ele>107.0</ele><time>2026-05-01T15:49:09.807Z</time></trkpt><trkpt lat="44.0004414136232" lon="10.558536106593502"><ele>107.0</ele><time>2026-05-01T15:49:10.807Z</time></trkpt><trkpt lat="44.00031483694198" lon="10.558612770449145"><ele>106.99999999999999</ele><time>2026-05-01T15:49:11.807Z</time></trkpt><trkpt lat="44.00020462473951" lon="10.558686525439837"><ele>106.99999999999999</ele><time>2026-05-01T15:49:12.807Z</time></trkpt><trkpt lat="44.00012383485885" lon="10.5587651297372"><ele>107.0</ele><time>2026-05-01T15:49:13.807Z</time></trkpt><trkpt lat="44.00007925053003" lon="10.558839346517317"><ele>107.0</ele><time>2026-05-01T15:49:14.807Z</time></trkpt><trkpt lat="44.00008392246511" lon="10.558940617780202"><ele>108.0</ele><time>2026-05-01T15:49:16.807Z</time></trkpt><trkpt lat="44.0001020955373" lon="10.559071837027092"><ele>109.0</ele><time>2026-05-01T15:49:18.807Z</time></trkpt><trkpt lat="44.000266137698475" lon="10.559146818632255"><ele>110.0</ele><time>2026-05-01T15:49:19.807Z</time></trkpt><trkpt lat="44.00038032520761" lon="10.559242531735885"><ele>111.0</ele><time>2026-05-01T15:49:20.807Z</time></trkpt><trkpt lat="44.000523623808654" lon="10.559345197300681"><ele>111.0</ele><time>2026-05-01T15:49:21.807Z</time></trkpt><trkpt lat="44.00068403341095" lon="10.559460662884966"><ele>111.0</ele><time>2026-05-01T15:49:22.807Z</time></trkpt><trkpt lat="44.00085088124362" lon="10.559580456006229"><ele>111.0</ele><time>2026-05-01T15:49:23.807Z</time></trkpt><trkpt lat="44.00102648308971" lon="10.559706692681662"><ele>112.66666666666666</ele><time>2026-05-01T15:49:24.807Z</time></trkpt><trkpt lat="44.00120998174496" lon="10.55983899665099"><ele>114.33333333333333</ele><time>2026-05-01T15:49:25.807Z</time></trkpt><trkpt lat="44.00139207964868" lon="10.559969687722921"><ele>116.0</ele><time>2026-05-01T15:49:26.807Z</time></trkpt><trkpt lat="44.001601352031095" lon="10.560118314157858"><ele>115.33333333333333</ele><time>2026-05-01T15:49:27.807Z</time></trkpt><trkpt lat="44.00179006326052" lon="10.560250671010309"><ele>114.66666666666666</ele><time>2026-05-01T15:49:28.807Z</time></trkpt><trkpt lat="44.00195372094161" lon="10.560365455955987"><ele>114.0</ele><time>2026-05-01T15:49:29.807Z</time></trkpt><trkpt lat="44.00210837325522" lon="10.560475781832448"><ele>116.33333333333334</ele><time>2026-05-01T15:49:30.807Z</time></trkpt><trkpt lat="44.00226854899484" lon="10.560593708840907"><ele>118.66666666666667</ele><time>2026-05-01T15:49:31.807Z</time></trkpt><trkpt lat="44.0024205828577" lon="10.560721341987714"><ele>121.0</ele><time>2026-05-01T15:49:32.807Z</time></trkpt><trkpt lat="44.002579077508095" lon="10.56087079211979"><ele>121.0</ele><time>2026-05-01T15:49:33.807Z</time></trkpt><trkpt lat="44.002746103288274" lon="10.561030651899651"><ele>121.0</ele><time>2026-05-01T15:49:34.807Z</time></trkpt><trkpt lat="44.002915121098084" lon="10.561194312663641"><ele>121.0</ele><time>2026-05-01T15:49:35.807Z</time></trkpt><trkpt lat="44.00308365579912" lon="10.561366361937555"><ele>122.33333333333334</ele><time>2026-05-01T15:49:36.807Z</time></trkpt><trkpt lat="44.00324869898697" lon="10.561543572080973"><ele>123.66666666666666</ele><time>2026-05-01T15:49:37.807Z</time></trkpt><trkpt lat="44.00342935215629" lon="10.561745231365341"><ele>125.0</ele><time>2026-05-01T15:49:38.807Z</time></trkpt><trkpt lat="44.00360711774061" lon="10.561940018245762"><ele>142.5</ele><time>2026-05-01T15:49:39.807Z</time></trkpt><trkpt lat="44.003797639209495" lon="10.562144798997219"><ele>160.0</ele><time>2026-05-01T15:49:40.807Z</time></trkpt><trkpt lat="44.003984336503116" lon="10.562354598083568"><ele>137.5</ele><time>2026-05-01T15:49:41.807Z</time></trkpt><trkpt lat="44.00417661447831" lon="10.562564402363078"><ele>115.0</ele><time>2026-05-01T15:49:42.807Z</time></trkpt><trkpt lat="44.00435302097806" lon="10.562789407246015"><ele>130.5</ele><time>2026-05-01T15:49:43.807Z</time></trkpt><trkpt lat="44.004544131015535" lon="10.562990418040036"><ele>146.0</ele><time>2026-05-01T15:49:44.807Z</time></trkpt><trkpt lat="44.00471947198135" lon="10.56318082949792"><ele>146.0</ele><time>2026-05-01T15:49:45.807Z</time></trkpt><trkpt lat="44.00488285478658" lon="10.563347464778742"><ele>146.0</ele><time>2026-05-01T15:49:46.807Z</time></trkpt><trkpt lat="44.005046949545" lon="10.563529580391506"><ele>146.0</ele><time>2026-05-01T15:49:47.807Z</time></trkpt><trkpt lat="44.00521340589683" lon="10.563722205058568"><ele>139.0</ele><time>2026-05-01T15:49:48.807Z</time></trkpt><trkpt lat="44.005382543559584" lon="10.563906219339142"><ele>132.0</ele><time>2026-05-01T15:49:49.807Z</time></trkpt><trkpt lat="44.005544863525955" lon="10.564097190570928"><ele>125.0</ele><time>2026-05-01T15:49:50.807Z</time></trkpt><trkpt lat="44.00571440591352" lon="10.564279112284519"><ele>124.0</ele><time>2026-05-01T15:49:51.807Z</time></trkpt><trkpt lat="44.005888977657186" lon="10.564440250856585"><ele>123.0</ele><time>2026-05-01T15:49:52.807Z</time></trkpt><trkpt lat="44.0060507189427" lon="10.56461705879783"><ele>122.0</ele><time>2026-05-01T15:49:53.807Z</time></trkpt><trkpt lat="44.00620397026242" lon="10.56480723068758"><ele>122.0</ele><time>2026-05-01T15:49:54.807Z</time></trkpt><trkpt lat="44.0063586853747" lon="10.564963623429469"><ele>122.0</ele><time>2026-05-01T15:49:55.807Z</time></trkpt><trkpt lat="44.006491576203324" lon="10.565125604664967"><ele>122.0</ele><time>2026-05-01T15:49:56.807Z</time></trkpt><trkpt lat="44.00663194755057" lon="10.565281283197168"><ele>120.33333333333333</ele><time>2026-05-01T15:49:57.807Z</time></trkpt><trkpt lat="44.00676612946822" lon="10.565466396631948"><ele>118.66666666666666</ele><time>2026-05-01T15:49:58.807Z</time></trkpt><trkpt lat="44.00686558118533" lon="10.565675435497115"><ele>117.0</ele><time>2026-05-01T15:49:59.807Z</time></trkpt><trkpt lat="44.00695228903597" lon="10.56587720015805"><ele>117.0</ele><time>2026-05-01T15:50:00.807Z</time></trkpt><trkpt lat="44.00704935970251" lon="10.566121333985494"><ele>117.0</ele><time>2026-05-01T15:50:01.807Z</time></trkpt><trkpt lat="44.00714653808545" lon="10.566356825077454"><ele>117.0</ele><time>2026-05-01T15:50:02.807Z</time></trkpt><trkpt lat="44.007232958512716" lon="10.566618560221064"><ele>119.33333333333334</ele><time>2026-05-01T15:50:03.807Z</time></trkpt><trkpt lat="44.007349193102414" lon="10.566852464925026"><ele>121.66666666666667</ele><time>2026-05-01T15:50:04.807Z</time></trkpt><trkpt lat="44.00745311356046" lon="10.567090872880042"><ele>124.0</ele><time>2026-05-01T15:50:05.807Z</time></trkpt><trkpt lat="44.00754797161903" lon="10.567339653545108"><ele>124.0</ele><time>2026-05-01T15:50:06.807Z</time></trkpt><trkpt lat="44.007645077110695" lon="10.56755620214536"><ele>124.0</ele><time>2026-05-01T15:50:07.807Z</time></trkpt><trkpt lat="44.00774351504766" lon="10.567782166343774"><ele>124.0</ele><time>2026-05-01T15:50:08.807Z</time></trkpt><trkpt lat="44.00784486890584" lon="10.568012205741319"><ele>131.33333333333334</ele><time>2026-05-01T15:50:09.807Z</time></trkpt><trkpt lat="44.00793871339175" lon="10.568237701149693"><ele>138.66666666666666</ele><time>2026-05-01T15:50:10.807Z</time></trkpt><trkpt lat="44.00802710659508" lon="10.568462804693564"><ele>146.0</ele><time>2026-05-01T15:50:11.807Z</time></trkpt><trkpt lat="44.00812353177437" lon="10.56866727014136"><ele>153.66666666666666</ele><time>2026-05-01T15:50:12.807Z</time></trkpt><trkpt lat="44.008171846414584" lon="10.568906123203902"><ele>161.33333333333334</ele><time>2026-05-01T15:50:13.807Z</time></trkpt><trkpt lat="44.0082392617713" lon="10.569141394950242"><ele>169.0</ele><time>2026-05-01T15:50:14.807Z</time></trkpt><trkpt lat="44.008293267552965" lon="10.56937378888552"><ele>158.66666666666669</ele><time>2026-05-01T15:50:15.807Z</time></trkpt><trkpt lat="44.00835453213247" lon="10.56960305999258"><ele>148.33333333333334</ele><time>2026-05-01T15:50:16.807Z</time></trkpt><trkpt lat="44.00841816243995" lon="10.569820972982656"><ele>138.0</ele><time>2026-05-01T15:50:17.807Z</time></trkpt><trkpt lat="44.008465899754526" lon="10.570046737356538"><ele>138.0</ele><time>2026-05-01T15:50:18.806Z</time></trkpt><trkpt lat="44.0085241840593" lon="10.570239317345232"><ele>138.0</ele><time>2026-05-01T15:50:19.807Z</time></trkpt><trkpt lat="44.00856429597119" lon="10.570408829644522"><ele>138.0</ele><time>2026-05-01T15:50:20.807Z</time></trkpt><trkpt lat="44.0086101437326" lon="10.57055137755049"><ele>138.0</ele><time>2026-05-01T15:50:21.806Z</time></trkpt><trkpt lat="44.00864726138" lon="10.570715295247092"><ele>140.25</ele><time>2026-05-01T15:50:22.806Z</time></trkpt><trkpt lat="44.008681188712565" lon="10.570891370825972"><ele>142.5</ele><time>2026-05-01T15:50:23.806Z</time></trkpt><trkpt lat="44.00871727021791" lon="10.571073372117382"><ele>144.75</ele><time>2026-05-01T15:50:24.806Z</time></trkpt><trkpt lat="44.00875016429344" lon="10.571243294371776"><ele>147.0</ele><time>2026-05-01T15:50:25.806Z</time></trkpt><trkpt lat="44.00879375799192" lon="10.571424259560082"><ele>150.25</ele><time>2026-05-01T15:50:26.806Z</time></trkpt><trkpt lat="44.00881272093335" lon="10.571627371682995"><ele>153.5</ele><time>2026-05-01T15:50:27.806Z</time></trkpt><trkpt lat="44.00881509318059" lon="10.571797416114137"><ele>156.75</ele><time>2026-05-01T15:50:28.806Z</time></trkpt><trkpt lat="44.00880515055405" lon="10.571986225617525"><ele>160.0</ele><time>2026-05-01T15:50:29.806Z</time></trkpt><trkpt lat="44.00880004121167" lon="10.57214404757554"><ele>161.5</ele><time>2026-05-01T15:50:30.806Z</time></trkpt><trkpt lat="44.00878685490633" lon="10.57230679329431"><ele>163.0</ele><time>2026-05-01T15:50:31.806Z</time></trkpt><trkpt lat="44.00878579948033" lon="10.57248289628194"><ele>164.5</ele><time>2026-05-01T15:50:32.806Z</time></trkpt><trkpt lat="44.00881452477848" lon="10.572680704722632"><ele>166.0</ele><time>2026-05-01T15:50:33.806Z</time></trkpt><trkpt lat="44.00883862322648" lon="10.572870770181106"><ele>166.33333333333334</ele><time>2026-05-01T15:50:34.806Z</time></trkpt><trkpt lat="44.008856141292654" lon="10.573086022803686"><ele>166.66666666666666</ele><time>2026-05-01T15:50:35.806Z</time></trkpt><trkpt lat="44.00887804706982" lon="10.573295829603621"><ele>167.0</ele><time>2026-05-01T15:50:36.806Z</time></trkpt><trkpt lat="44.008899594515555" lon="10.573506672720946"><ele>167.66666666666666</ele><time>2026-05-01T15:50:37.806Z</time></trkpt><trkpt lat="44.00892575769461" lon="10.573728255837253"><ele>168.33333333333334</ele><time>2026-05-01T15:50:38.806Z</time></trkpt><trkpt lat="44.008947142247486" lon="10.573933642216515"><ele>169.0</ele><time>2026-05-01T15:50:39.806Z</time></trkpt><trkpt lat="44.008974169523" lon="10.574146686295865"><ele>169.0</ele><time>2026-05-01T15:50:40.806Z</time></trkpt><trkpt lat="44.00898853304598" lon="10.574345411401582"><ele>169.0</ele><time>2026-05-01T15:50:41.806Z</time></trkpt><trkpt lat="44.00902814011298" lon="10.574536167385768"><ele>169.0</ele><time>2026-05-01T15:50:42.806Z</time></trkpt><trkpt lat="44.009044498582575" lon="10.57473454259458"><ele>169.0</ele><time>2026-05-01T15:50:43.806Z</time></trkpt><trkpt lat="44.009069567668725" lon="10.574930893715596"><ele>168.75</ele><time>2026-05-01T15:50:44.806Z</time></trkpt><trkpt lat="44.009100471445976" lon="10.575124117532095"><ele>168.5</ele><time>2026-05-01T15:50:45.806Z</time></trkpt><trkpt lat="44.00912179432431" lon="10.575322257317726"><ele>168.25</ele><time>2026-05-01T15:50:46.806Z</time></trkpt><trkpt lat="44.00913955394307" lon="10.575521768690036"><ele>168.0</ele><time>2026-05-01T15:50:47.806Z</time></trkpt><trkpt lat="44.00916755658273" lon="10.575713474693664"><ele>158.66666666666666</ele><time>2026-05-01T15:50:48.806Z</time></trkpt><trkpt lat="44.009196744752714" lon="10.57592056925615"><ele>149.33333333333331</ele><time>2026-05-01T15:50:49.806Z</time></trkpt><trkpt lat="44.00921327349641" lon="10.576122953219084"><ele>140.0</ele><time>2026-05-01T15:50:50.806Z</time></trkpt><trkpt lat="44.00923962513689" lon="10.576331103299813"><ele>140.0</ele><time>2026-05-01T15:50:51.806Z</time></trkpt><trkpt lat="44.00926699003099" lon="10.576530735943843"><ele>140.0</ele><time>2026-05-01T15:50:52.806Z</time></trkpt><trkpt lat="44.00928747528834" lon="10.576708322831324"><ele>140.0</ele><time>2026-05-01T15:50:53.806Z</time></trkpt><trkpt lat="44.00932089825751" lon="10.57685323047701"><ele>140.0</ele><time>2026-05-01T15:50:54.806Z</time></trkpt><trkpt lat="44.00935202105818" lon="10.576992570599733"><ele>140.2</ele><time>2026-05-01T15:50:55.806Z</time></trkpt><trkpt lat="44.00938443167061" lon="10.577124855716724"><ele>140.4</ele><time>2026-05-01T15:50:56.806Z</time></trkpt><trkpt lat="44.00942327925506" lon="10.577250002665094"><ele>140.6</ele><time>2026-05-01T15:50:57.806Z</time></trkpt><trkpt lat="44.00945236281104" lon="10.577374517918166"><ele>140.8</ele><time>2026-05-01T15:50:58.806Z</time></trkpt><trkpt lat="44.009475924046804" lon="10.577495159350931"><ele>141.0</ele><time>2026-05-01T15:50:59.806Z</time></trkpt><trkpt lat="44.00949952629877" lon="10.577623223546507"><ele>141.0</ele><time>2026-05-01T15:51:00.806Z</time></trkpt><trkpt lat="44.00950979561144" lon="10.577751751826142"><ele>141.0</ele><time>2026-05-01T15:51:01.806Z</time></trkpt><trkpt lat="44.00949160321704" lon="10.577888684963268"><ele>141.0</ele><time>2026-05-01T15:51:02.806Z</time></trkpt><trkpt lat="44.00943111685014" lon="10.578013404408699"><ele>141.0</ele><time>2026-05-01T15:51:03.806Z</time></trkpt><trkpt lat="44.00934096739335" lon="10.57808987856994"><ele>141.0</ele><time>2026-05-01T15:51:04.806Z</time></trkpt><trkpt lat="44.00923257738197" lon="10.578145070346332"><ele>139.25</ele><time>2026-05-01T15:51:05.806Z</time></trkpt><trkpt lat="44.00911894965887" lon="10.578189005423589"><ele>137.5</ele><time>2026-05-01T15:51:06.806Z</time></trkpt><trkpt lat="44.009015060291915" lon="10.578224267893324"><ele>135.75</ele><time>2026-05-01T15:51:07.806Z</time></trkpt><trkpt lat="44.008892743013796" lon="10.578262703311912"><ele>134.0</ele><time>2026-05-01T15:51:08.806Z</time></trkpt><trkpt lat="44.00876152497008" lon="10.57829665393729"><ele>134.0</ele><time>2026-05-01T15:51:09.806Z</time></trkpt><trkpt lat="44.008658692313915" lon="10.578324773826392"><ele>134.0</ele><time>2026-05-01T15:51:10.806Z</time></trkpt><trkpt lat="44.00855101847881" lon="10.578352935668738"><ele>134.0</ele><time>2026-05-01T15:51:11.806Z</time></trkpt><trkpt lat="44.00845792704491" lon="10.578374830484512"><ele>134.0</ele><time>2026-05-01T15:51:12.806Z</time></trkpt><trkpt lat="44.008381173759695" lon="10.578387565046505"><ele>134.0</ele><time>2026-05-01T15:51:14.806Z</time></trkpt><trkpt lat="44.00831865524747" lon="10.578568496344701"><ele>134.6</ele><time>2026-05-01T15:51:16.806Z</time></trkpt><trkpt lat="44.0083032629187" lon="10.578677898764203"><ele>135.2</ele><time>2026-05-01T15:51:17.806Z</time></trkpt><trkpt lat="44.008283637090784" lon="10.57881895088045"><ele>135.79999999999998</ele><time>2026-05-01T15:51:18.806Z</time></trkpt><trkpt lat="44.008271066655716" lon="10.578918384347634"><ele>136.4</ele><time>2026-05-01T15:51:19.806Z</time></trkpt><trkpt lat="44.00823506898711" lon="10.57907224754017"><ele>137.0</ele><time>2026-05-01T15:51:21.806Z</time></trkpt><trkpt lat="44.0081561894578" lon="10.579118159106592"><ele>137.0</ele><time>2026-05-01T15:51:22.806Z</time></trkpt><trkpt lat="44.00805466810451" lon="10.579157219557713"><ele>137.0</ele><time>2026-05-01T15:51:23.806Z</time></trkpt><trkpt lat="44.00794476228256" lon="10.579175151210645"><ele>137.0</ele><time>2026-05-01T15:51:24.806Z</time></trkpt><trkpt lat="44.0078110080053" lon="10.57919203896259"><ele>137.0</ele><time>2026-05-01T15:51:25.806Z</time></trkpt><trkpt lat="44.00764762280105" lon="10.57917557568181"><ele>135.66666666666666</ele><time>2026-05-01T15:51:26.806Z</time></trkpt><trkpt lat="44.00748097895262" lon="10.579195821324861"><ele>134.33333333333334</ele><time>2026-05-01T15:51:27.806Z</time></trkpt><trkpt lat="44.007296130954835" lon="10.57923555228213"><ele>133.0</ele><time>2026-05-01T15:51:28.806Z</time></trkpt><trkpt lat="44.007119006704386" lon="10.579253915781635"><ele>133.0</ele><time>2026-05-01T15:51:29.806Z</time></trkpt><trkpt lat="44.00692956031037" lon="10.5792899767348"><ele>133.0</ele><time>2026-05-01T15:51:30.806Z</time></trkpt><trkpt lat="44.00674427761205" lon="10.57927737805537"><ele>133.0</ele><time>2026-05-01T15:51:31.806Z</time></trkpt><trkpt lat="44.00656111668644" lon="10.579234551072245"><ele>133.33333333333334</ele><time>2026-05-01T15:51:32.806Z</time></trkpt><trkpt lat="44.006381630082394" lon="10.579226894167146"><ele>133.66666666666666</ele><time>2026-05-01T15:51:33.806Z</time></trkpt><trkpt lat="44.0061907309754" lon="10.579233132007541"><ele>134.0</ele><time>2026-05-01T15:51:34.806Z</time></trkpt><trkpt lat="44.00601257119771" lon="10.579249933228795"><ele>134.0</ele><time>2026-05-01T15:51:35.806Z</time></trkpt><trkpt lat="44.00584465040719" lon="10.579267588308374"><ele>134.0</ele><time>2026-05-01T15:51:36.86Z</time></trkpt><trkpt lat="44.005683563625524" lon="10.579268953483886"><ele>134.0</ele><time>2026-05-01T15:51:37.86Z</time></trkpt><trkpt lat="44.00555058054106" lon="10.579295538074152"><ele>133.0</ele><time>2026-05-01T15:51:38.86Z</time></trkpt><trkpt lat="44.005411301382686" lon="10.579307380723835"><ele>132.0</ele><time>2026-05-01T15:51:39.86Z</time></trkpt><trkpt lat="44.00529094886876" lon="10.579355221415758"><ele>131.0</ele><time>2026-05-01T15:51:40.86Z</time></trkpt><trkpt lat="44.005138926160534" lon="10.579512655058876"><ele>131.33333333333331</ele><time>2026-05-01T15:51:41.86Z</time></trkpt><trkpt lat="44.00497886251352" lon="10.579609533996077"><ele>131.66666666666666</ele><time>2026-05-01T15:51:42.86Z</time></trkpt><trkpt lat="44.004835422704836" lon="10.579730097211963"><ele>132.0</ele><time>2026-05-01T15:51:43.86Z</time></trkpt><trkpt lat="44.004692800735924" lon="10.57986914315481"><ele>132.0</ele><time>2026-05-01T15:51:44.86Z</time></trkpt><trkpt lat="44.00456767652892" lon="10.57998502982051"><ele>132.0</ele><time>2026-05-01T15:51:45.86Z</time></trkpt><trkpt lat="44.004460153115325" lon="10.580122188311114"><ele>132.0</ele><time>2026-05-01T15:51:46.86Z</time></trkpt><trkpt lat="44.00435231467307" lon="10.580258499931483"><ele>132.0</ele><time>2026-05-01T15:51:47.86Z</time></trkpt><trkpt lat="44.004252070386066" lon="10.58041558753487"><ele>131.33333333333334</ele><time>2026-05-01T15:51:48.86Z</time></trkpt><trkpt lat="44.00419203565207" lon="10.58060373024893"><ele>130.66666666666669</ele><time>2026-05-01T15:51:49.86Z</time></trkpt><trkpt lat="44.00411156731104" lon="10.580799600619608"><ele>130.0</ele><time>2026-05-01T15:51:50.86Z</time></trkpt><trkpt lat="44.00407723469739" lon="10.581021008134991"><ele>131.33333333333334</ele><time>2026-05-01T15:51:51.86Z</time></trkpt><trkpt lat="44.00401939404723" lon="10.581246997820845"><ele>132.66666666666666</ele><time>2026-05-01T15:51:52.86Z</time></trkpt><trkpt lat="44.00398140345066" lon="10.581479848253114"><ele>134.0</ele><time>2026-05-01T15:51:53.86Z</time></trkpt><trkpt lat="44.003966738421965" lon="10.581712553087355"><ele>134.0</ele><time>2026-05-01T15:51:54.861Z</time></trkpt><trkpt lat="44.00397458331355" lon="10.581915402882109"><ele>134.0</ele><time>2026-05-01T15:51:55.861Z</time></trkpt><trkpt lat="44.00399805595937" lon="10.582087204814554"><ele>134.0</ele><time>2026-05-01T15:51:56.861Z</time></trkpt><trkpt lat="44.00403487328096" lon="10.582246305957531"><ele>134.0</ele><time>2026-05-01T15:51:57.861Z</time></trkpt><trkpt lat="44.004091903705266" lon="10.582448590251897"><ele>135.33333333333331</ele><time>2026-05-01T15:51:58.861Z</time></trkpt><trkpt lat="44.00415821760999" lon="10.582658680966823"><ele>136.66666666666666</ele><time>2026-05-01T15:51:59.861Z</time></trkpt><trkpt lat="44.0042349459521" lon="10.582886010021614"><ele>138.0</ele><time>2026-05-01T15:52:00.861Z</time></trkpt><trkpt lat="44.004315407028116" lon="10.583073507541478"><ele>138.0</ele><time>2026-05-01T15:52:01.861Z</time></trkpt><trkpt lat="44.00439478495257" lon="10.583227481895824"><ele>138.0</ele><time>2026-05-01T15:52:02.861Z</time></trkpt><trkpt lat="44.004444810384626" lon="10.58334736190827"><ele>138.0</ele><time>2026-05-01T15:52:03.861Z</time></trkpt><trkpt lat="44.004510171949775" lon="10.583465598569443"><ele>138.0</ele><time>2026-05-01T15:52:04.861Z</time></trkpt><trkpt lat="44.00457153737299" lon="10.58358242471826"><ele>138.0</ele><time>2026-05-01T15:52:05.861Z</time></trkpt><trkpt lat="44.004645671258174" lon="10.583693570524755"><ele>136.66666666666666</ele><time>2026-05-01T15:52:06.861Z</time></trkpt><trkpt lat="44.004730706463775" lon="10.583834532668682"><ele>135.33333333333331</ele><time>2026-05-01T15:52:07.861Z</time></trkpt><trkpt lat="44.00482770442839" lon="10.583995526619983"><ele>134.0</ele><time>2026-05-01T15:52:08.861Z</time></trkpt><trkpt lat="44.00494183748778" lon="10.584167082534881"><ele>135.66666666666666</ele><time>2026-05-01T15:52:09.861Z</time></trkpt><trkpt lat="44.00508414413555" lon="10.58434356609149"><ele>137.33333333333334</ele><time>2026-05-01T15:52:10.861Z</time></trkpt><trkpt lat="44.00523688608626" lon="10.584504490656876"><ele>139.0</ele><time>2026-05-01T15:52:11.861Z</time></trkpt><trkpt lat="44.00538793337869" lon="10.584676019289732"><ele>139.0</ele><time>2026-05-01T15:52:12.861Z</time></trkpt><trkpt lat="44.00552829185624" lon="10.584850338643491"><ele>139.0</ele><time>2026-05-01T15:52:13.861Z</time></trkpt><trkpt lat="44.005671488570364" lon="10.585011160908234"><ele>139.0</ele><time>2026-05-01T15:52:14.861Z</time></trkpt><trkpt lat="44.00579816680247" lon="10.585190175424055"><ele>140.25</ele><time>2026-05-01T15:52:15.861Z</time></trkpt><trkpt lat="44.00590593739268" lon="10.585326871498014"><ele>141.5</ele><time>2026-05-01T15:52:16.861Z</time></trkpt><trkpt lat="44.0060043233138" lon="10.585479351663334"><ele>142.75</ele><time>2026-05-01T15:52:17.861Z</time></trkpt><trkpt lat="44.0060851037894" lon="10.585652990125316"><ele>144.0</ele><time>2026-05-01T15:52:18.861Z</time></trkpt><trkpt lat="44.006165977364155" lon="10.58583805082386"><ele>144.0</ele><time>2026-05-01T15:52:19.861Z</time></trkpt><trkpt lat="44.00625492580156" lon="10.586042979804652"><ele>144.0</ele><time>2026-05-01T15:52:20.861Z</time></trkpt><trkpt lat="44.0063362325104" lon="10.586231768902827"><ele>144.0</ele><time>2026-05-01T15:52:21.861Z</time></trkpt><trkpt lat="44.00642075508176" lon="10.586426087864043"><ele>142.66666666666666</ele><time>2026-05-01T15:52:22.861Z</time></trkpt><trkpt lat="44.00650413238092" lon="10.586615404067937"><ele>141.33333333333331</ele><time>2026-05-01T15:52:23.861Z</time></trkpt><trkpt lat="44.00658758146195" lon="10.586805499889362"><ele>140.0</ele><time>2026-05-01T15:52:24.861Z</time></trkpt><trkpt lat="44.00666843430919" lon="10.586992945225887"><ele>141.0</ele><time>2026-05-01T15:52:25.86Z</time></trkpt><trkpt lat="44.00676607674106" lon="10.587169398443528"><ele>142.0</ele><time>2026-05-01T15:52:26.86Z</time></trkpt><trkpt lat="44.006863213557224" lon="10.58735573670059"><ele>143.0</ele><time>2026-05-01T15:52:27.861Z</time></trkpt><trkpt lat="44.00697753949248" lon="10.587507560828495"><ele>143.0</ele><time>2026-05-01T15:52:28.86Z</time></trkpt><trkpt lat="44.00711465844987" lon="10.587620187554737"><ele>143.0</ele><time>2026-05-01T15:52:29.86Z</time></trkpt><trkpt lat="44.00722813140244" lon="10.5877177865646"><ele>143.0</ele><time>2026-05-01T15:52:30.861Z</time></trkpt><trkpt lat="44.00731968622523" lon="10.587812635973695"><ele>143.0</ele><time>2026-05-01T15:52:31.861Z</time></trkpt><trkpt lat="44.00739981713626" lon="10.58792791413335"><ele>143.4</ele><time>2026-05-01T15:52:32.861Z</time></trkpt><trkpt lat="44.00748742789745" lon="10.588002513711999"><ele>143.8</ele><time>2026-05-01T15:52:33.861Z</time></trkpt><trkpt lat="44.00754447487548" lon="10.588088930652404"><ele>144.2</ele><time>2026-05-01T15:52:34.86Z</time></trkpt><trkpt lat="44.0076160679139" lon="10.588168515199044"><ele>144.6</ele><time>2026-05-01T15:52:35.86Z</time></trkpt><trkpt lat="44.00769367538251" lon="10.588254785585312"><ele>145.0</ele><time>2026-05-01T15:52:36.861Z</time></trkpt><trkpt lat="44.00778799167426" lon="10.588359629983323"><ele>145.0</ele><time>2026-05-01T15:52:37.86Z</time></trkpt><trkpt lat="44.00789476163179" lon="10.58845104791426"><ele>145.0</ele><time>2026-05-01T15:52:38.86Z</time></trkpt><trkpt lat="44.008006726329825" lon="10.5885902705591"><ele>145.0</ele><time>2026-05-01T15:52:39.86Z</time></trkpt><trkpt lat="44.00811356512624" lon="10.58870922240035"><ele>145.0</ele><time>2026-05-01T15:52:40.86Z</time></trkpt><trkpt lat="44.00820909144116" lon="10.588840729515606"><ele>146.0</ele><time>2026-05-01T15:52:41.86Z</time></trkpt><trkpt lat="44.00830953523692" lon="10.588957037103464"><ele>147.0</ele><time>2026-05-01T15:52:42.86Z</time></trkpt><trkpt lat="44.00841126088059" lon="10.589075382729083"><ele>148.0</ele><time>2026-05-01T15:52:43.86Z</time></trkpt><trkpt lat="44.008514879083556" lon="10.58919701705742"><ele>149.0</ele><time>2026-05-01T15:52:44.86Z</time></trkpt><trkpt lat="44.00860785170007" lon="10.58929935111768"><ele>149.0</ele><time>2026-05-01T15:52:45.86Z</time></trkpt><trkpt lat="44.00869847268922" lon="10.589405821135738"><ele>149.0</ele><time>2026-05-01T15:52:46.86Z</time></trkpt><trkpt lat="44.008786971039925" lon="10.589517392460511"><ele>149.0</ele><time>2026-05-01T15:52:47.86Z</time></trkpt><trkpt lat="44.00887111564397" lon="10.589600156731594"><ele>149.0</ele><time>2026-05-01T15:52:48.86Z</time></trkpt><trkpt lat="44.008972126043126" lon="10.589697423327276"><ele>148.8</ele><time>2026-05-01T15:52:49.86Z</time></trkpt><trkpt lat="44.0090582097247" lon="10.589779152952337"><ele>148.60000000000002</ele><time>2026-05-01T15:52:50.86Z</time></trkpt><trkpt lat="44.0091519391414" lon="10.589838034126052"><ele>148.4</ele><time>2026-05-01T15:52:51.86Z</time></trkpt><trkpt lat="44.009229999713774" lon="10.589928015823178"><ele>148.20000000000002</ele><time>2026-05-01T15:52:52.86Z</time></trkpt><trkpt lat="44.00932401882921" lon="10.590007543149955"><ele>148.0</ele><time>2026-05-01T15:52:53.86Z</time></trkpt><trkpt lat="44.00943505220038" lon="10.590072280318362"><ele>148.0</ele><time>2026-05-01T15:52:54.86Z</time></trkpt><trkpt lat="44.009532236685786" lon="10.590160775425797"><ele>148.0</ele><time>2026-05-01T15:52:55.86Z</time></trkpt><trkpt lat="44.009597198532994" lon="10.590232161663264"><ele>148.0</ele><time>2026-05-01T15:52:56.86Z</time></trkpt><trkpt lat="44.00965314768434" lon="10.590283894251263"><ele>148.0</ele><time>2026-05-01T15:52:57.86Z</time></trkpt><trkpt lat="44.00969281437542" lon="10.590361639431341"><ele>148.0</ele><time>2026-05-01T15:52:58.86Z</time></trkpt><trkpt lat="44.00976060204053" lon="10.5904320860927"><ele>148.0</ele><time>2026-05-01T15:53:00.86Z</time></trkpt><trkpt lat="44.00983130849493" lon="10.59050319779303"><ele>147.8</ele><time>2026-05-01T15:53:03.86Z</time></trkpt><trkpt lat="44.00989176210974" lon="10.590563998229008"><ele>147.60000000000002</ele><time>2026-05-01T15:53:05.86Z</time></trkpt><trkpt lat="44.00999810442269" lon="10.590670949229287"><ele>147.39999999999998</ele><time>2026-05-01T15:53:07.86Z</time></trkpt><trkpt lat="44.01008978707423" lon="10.59070205112022"><ele>147.2</ele><time>2026-05-01T15:53:08.86Z</time></trkpt><trkpt lat="44.010160251991266" lon="10.59078539990069"><ele>147.0</ele><time>2026-05-01T15:53:09.86Z</time></trkpt><trkpt lat="44.010218866384164" lon="10.590856912110597"><ele>147.0</ele><time>2026-05-01T15:53:10.86Z</time></trkpt><trkpt lat="44.01028939095225" lon="10.590928784024298"><ele>147.0</ele><time>2026-05-01T15:53:11.86Z</time></trkpt><trkpt lat="44.01035648243731" lon="10.5909992701781"><ele>147.0</ele><time>2026-05-01T15:53:12.86Z</time></trkpt><trkpt lat="44.010417232453776" lon="10.591066537449379"><ele>147.0</ele><time>2026-05-01T15:53:13.86Z</time></trkpt><trkpt lat="44.010479361263606" lon="10.591130339851206"><ele>147.0</ele><time>2026-05-01T15:53:14.86Z</time></trkpt><trkpt lat="44.01054195331228" lon="10.591188204445976"><ele>147.0</ele><time>2026-05-01T15:53:15.86Z</time></trkpt><trkpt lat="44.010602851433816" lon="10.591253010661601"><ele>146.6</ele><time>2026-05-01T15:53:16.86Z</time></trkpt><trkpt lat="44.01066998594968" lon="10.591339727017864"><ele>146.2</ele><time>2026-05-01T15:53:17.86Z</time></trkpt><trkpt lat="44.01072219208897" lon="10.591431566956738"><ele>145.8</ele><time>2026-05-01T15:53:18.86Z</time></trkpt><trkpt lat="44.01080433946602" lon="10.59150964517839"><ele>145.4</ele><time>2026-05-01T15:53:19.86Z</time></trkpt><trkpt lat="44.010873250473544" lon="10.591596051403782"><ele>145.0</ele><time>2026-05-01T15:53:20.86Z</time></trkpt><trkpt lat="44.01095380213911" lon="10.591698111852146"><ele>145.4</ele><time>2026-05-01T15:53:21.86Z</time></trkpt><trkpt lat="44.01102103311466" lon="10.591809655022757"><ele>145.8</ele><time>2026-05-01T15:53:22.86Z</time></trkpt><trkpt lat="44.01109409816336" lon="10.59191469406099"><ele>146.2</ele><time>2026-05-01T15:53:23.86Z</time></trkpt><trkpt lat="44.011166121552094" lon="10.592019857479487"><ele>146.6</ele><time>2026-05-01T15:53:24.86Z</time></trkpt><trkpt lat="44.01123570590398" lon="10.592130814075924"><ele>147.0</ele><time>2026-05-01T15:53:25.86Z</time></trkpt><trkpt lat="44.01130073604781" lon="10.592262818881148"><ele>147.0</ele><time>2026-05-01T15:53:26.861Z</time></trkpt><trkpt lat="44.0113740018389" lon="10.59235827541724"><ele>147.0</ele><time>2026-05-01T15:53:27.861Z</time></trkpt><trkpt lat="44.011436093016385" lon="10.592463025968787"><ele>147.0</ele><time>2026-05-01T15:53:28.861Z</time></trkpt><trkpt lat="44.01148337704349" lon="10.592582445105961"><ele>147.0</ele><time>2026-05-01T15:53:29.861Z</time></trkpt><trkpt lat="44.011538148883965" lon="10.592650583863104"><ele>147.0</ele><time>2026-05-01T15:53:30.861Z</time></trkpt><trkpt lat="44.01159796581152" lon="10.59271559551203"><ele>147.0</ele><time>2026-05-01T15:53:31.861Z</time></trkpt><trkpt lat="44.011661037833164" lon="10.592819640318961"><ele>147.2</ele><time>2026-05-01T15:53:33.861Z</time></trkpt><trkpt lat="44.01171145131818" lon="10.592901329667743"><ele>147.39999999999998</ele><time>2026-05-01T15:53:35.861Z</time></trkpt><trkpt lat="44.01176042983366" lon="10.592989210100809"><ele>147.60000000000002</ele><time>2026-05-01T15:53:36.861Z</time></trkpt><trkpt lat="44.01183381497347" lon="10.593111976414136"><ele>147.8</ele><time>2026-05-01T15:53:37.861Z</time></trkpt><trkpt lat="44.011906742612396" lon="10.593217423879993"><ele>148.0</ele><time>2026-05-01T15:53:38.861Z</time></trkpt><trkpt lat="44.0119669294972" lon="10.593294026093927"><ele>148.0</ele><time>2026-05-01T15:53:39.861Z</time></trkpt><trkpt lat="44.01197927142185" lon="10.59345938313075"><ele>148.0</ele><time>2026-05-01T15:53:41.861Z</time></trkpt><trkpt lat="44.011921968657646" lon="10.593527661070581"><ele>148.0</ele><time>2026-05-01T15:53:42.861Z</time></trkpt><trkpt lat="44.01181495039076" lon="10.593620497891466"><ele>148.0</ele><time>2026-05-01T15:53:43.861Z</time></trkpt><trkpt lat="44.011701103623615" lon="10.593701602427796"><ele>148.0</ele><time>2026-05-01T15:53:44.861Z</time></trkpt><trkpt lat="44.01158532857187" lon="10.59382231541556"><ele>151.8</ele><time>2026-05-01T15:53:45.861Z</time></trkpt><trkpt lat="44.01147042952117" lon="10.593922976660881"><ele>155.60000000000002</ele><time>2026-05-01T15:53:46.861Z</time></trkpt><trkpt lat="44.01138646178725" lon="10.594026234644254"><ele>159.39999999999998</ele><time>2026-05-01T15:53:47.861Z</time></trkpt><trkpt lat="44.01129977526903" lon="10.594097933794028"><ele>163.2</ele><time>2026-05-01T15:53:48.861Z</time></trkpt><trkpt lat="44.01125295246853" lon="10.59420581382338"><ele>167.0</ele><time>2026-05-01T15:53:49.861Z</time></trkpt><trkpt lat="44.01126634773816" lon="10.594452179274102"><ele>173.0</ele><time>2026-05-01T15:53:51.861Z</time></trkpt><trkpt lat="44.011309102690305" lon="10.594593553427368"><ele>179.0</ele><time>2026-05-01T15:53:52.861Z</time></trkpt><trkpt lat="44.01138611568144" lon="10.594808616380657"><ele>185.0</ele><time>2026-05-01T15:53:53.861Z</time></trkpt><trkpt lat="44.01146944919866" lon="10.59507539935"><ele>185.0</ele><time>2026-05-01T15:53:54.861Z</time></trkpt><trkpt lat="44.01154727064718" lon="10.595331771295701"><ele>185.0</ele><time>2026-05-01T15:53:55.861Z</time></trkpt><trkpt lat="44.01161867202537" lon="10.59561147661612"><ele>185.0</ele><time>2026-05-01T15:53:56.861Z</time></trkpt><trkpt lat="44.01168193084518" lon="10.595889798076977"><ele>176.0</ele><time>2026-05-01T15:53:57.861Z</time></trkpt><trkpt lat="44.011725211386626" lon="10.596129899736988"><ele>167.0</ele><time>2026-05-01T15:53:58.861Z</time></trkpt><trkpt lat="44.01178887752889" lon="10.596334756629963"><ele>158.0</ele><time>2026-05-01T15:53:59.861Z</time></trkpt><trkpt lat="44.011841710461255" lon="10.596534767085883"><ele>158.0</ele><time>2026-05-01T15:54:00.861Z</time></trkpt><trkpt lat="44.01190198793786" lon="10.596741208269627"><ele>158.0</ele><time>2026-05-01T15:54:01.861Z</time></trkpt><trkpt lat="44.01194008106828" lon="10.596948611768127"><ele>158.0</ele><time>2026-05-01T15:54:02.861Z</time></trkpt><trkpt lat="44.012001947816465" lon="10.597146832930475"><ele>161.66666666666666</ele><time>2026-05-01T15:54:03.861Z</time></trkpt><trkpt lat="44.0120637177117" lon="10.597367823370083"><ele>165.33333333333334</ele><time>2026-05-01T15:54:04.861Z</time></trkpt><trkpt lat="44.01212102862813" lon="10.597586874226682"><ele>169.0</ele><time>2026-05-01T15:54:05.861Z</time></trkpt><trkpt lat="44.01217698905009" lon="10.597793609149234"><ele>174.66666666666669</ele><time>2026-05-01T15:54:06.861Z</time></trkpt><trkpt lat="44.0122387400813" lon="10.598023117216078"><ele>180.33333333333334</ele><time>2026-05-01T15:54:07.861Z</time></trkpt><trkpt lat="44.01228177707091" lon="10.598254994311635"><ele>186.0</ele><time>2026-05-01T15:54:08.861Z</time></trkpt><trkpt lat="44.012346475740216" lon="10.59850691481255"><ele>190.66666666666669</ele><time>2026-05-01T15:54:09.861Z</time></trkpt><trkpt lat="44.0123979246449" lon="10.598755730492293"><ele>195.33333333333334</ele><time>2026-05-01T15:54:10.861Z</time></trkpt><trkpt lat="44.01242755919974" lon="10.599023245941241"><ele>200.0</ele><time>2026-05-01T15:54:11.861Z</time></trkpt><trkpt lat="44.012453398033855" lon="10.59925604691363"><ele>200.0</ele><time>2026-05-01T15:54:12.861Z</time></trkpt><trkpt lat="44.01247955089439" lon="10.599476201960094"><ele>200.0</ele><time>2026-05-01T15:54:13.861Z</time></trkpt><trkpt lat="44.012497695865335" lon="10.599683082128598"><ele>200.0</ele><time>2026-05-01T15:54:14.861Z</time></trkpt><trkpt lat="44.01248428322382" lon="10.599880436055305"><ele>202.0</ele><time>2026-05-01T15:54:15.861Z</time></trkpt><trkpt lat="44.01248120177975" lon="10.600072132749995"><ele>204.0</ele><time>2026-05-01T15:54:16.861Z</time></trkpt><trkpt lat="44.01243803349219" lon="10.600281968785952"><ele>206.0</ele><time>2026-05-01T15:54:17.861Z</time></trkpt><trkpt lat="44.012379587541034" lon="10.600510295622087"><ele>206.0</ele><time>2026-05-01T15:54:18.861Z</time></trkpt><trkpt lat="44.0123246205174" lon="10.60074910407263"><ele>206.0</ele><time>2026-05-01T15:54:19.861Z</time></trkpt><trkpt lat="44.012224160770174" lon="10.600974098921636"><ele>206.0</ele><time>2026-05-01T15:54:20.861Z</time></trkpt><trkpt lat="44.01214656701631" lon="10.601229204366273"><ele>200.66666666666669</ele><time>2026-05-01T15:54:21.861Z</time></trkpt><trkpt lat="44.01203910910488" lon="10.601484227901018"><ele>195.33333333333334</ele><time>2026-05-01T15:54:22.861Z</time></trkpt><trkpt lat="44.01192472810538" lon="10.601758096311613"><ele>190.0</ele><time>2026-05-01T15:54:23.861Z</time></trkpt><trkpt lat="44.01179385022988" lon="10.602029506682822"><ele>179.5</ele><time>2026-05-01T15:54:24.861Z</time></trkpt><trkpt lat="44.01169913539625" lon="10.602304917680568"><ele>169.0</ele><time>2026-05-01T15:54:25.861Z</time></trkpt><trkpt lat="44.01160651142262" lon="10.60262643415129"><ele>187.66666666666669</ele><time>2026-05-01T15:54:26.861Z</time></trkpt><trkpt lat="44.01154146749349" lon="10.602911488259293"><ele>206.33333333333334</ele><time>2026-05-01T15:54:27.861Z</time></trkpt><trkpt lat="44.011475849168306" lon="10.603202346099508"><ele>225.0</ele><time>2026-05-01T15:54:28.861Z</time></trkpt><trkpt lat="44.011426409291566" lon="10.603475871913416"><ele>220.0</ele><time>2026-05-01T15:54:29.861Z</time></trkpt><trkpt lat="44.01140396683004" lon="10.603746730573524"><ele>215.0</ele><time>2026-05-01T15:54:30.861Z</time></trkpt><trkpt lat="44.011406536625486" lon="10.60398880367382"><ele>210.0</ele><time>2026-05-01T15:54:31.861Z</time></trkpt><trkpt lat="44.01140850964253" lon="10.604225957321846"><ele>210.0</ele><time>2026-05-01T15:54:32.861Z</time></trkpt><trkpt lat="44.011410628231125" lon="10.604469268726184"><ele>210.0</ele><time>2026-05-01T15:54:33.861Z</time></trkpt><trkpt lat="44.01141332551877" lon="10.6047316993115"><ele>210.0</ele><time>2026-05-01T15:54:34.861Z</time></trkpt><trkpt lat="44.01139776342496" lon="10.604986051484712"><ele>205.33333333333331</ele><time>2026-05-01T15:54:35.861Z</time></trkpt><trkpt lat="44.01136545860697" lon="10.605214334866618"><ele>200.66666666666666</ele><time>2026-05-01T15:54:36.861Z</time></trkpt><trkpt lat="44.01133571785889" lon="10.605455738895033"><ele>196.0</ele><time>2026-05-01T15:54:37.861Z</time></trkpt><trkpt lat="44.01127502714315" lon="10.605745210554154"><ele>190.0</ele><time>2026-05-01T15:54:38.861Z</time></trkpt><trkpt lat="44.011211240413594" lon="10.606025960983468"><ele>184.0</ele><time>2026-05-01T15:54:39.861Z</time></trkpt><trkpt lat="44.01115453628221" lon="10.606361053585893"><ele>180.5</ele><time>2026-05-01T15:54:40.861Z</time></trkpt><trkpt lat="44.01114575554884" lon="10.606718722554644"><ele>177.0</ele><time>2026-05-01T15:54:41.861Z</time></trkpt><trkpt lat="44.01122694360124" lon="10.607039878479785"><ele>176.33333333333334</ele><time>2026-05-01T15:54:42.861Z</time></trkpt><trkpt lat="44.01134704483301" lon="10.607240669243499"><ele>175.66666666666669</ele><time>2026-05-01T15:54:44.861Z</time></trkpt><trkpt lat="44.01137513630361" lon="10.607453915666767"><ele>175.0</ele><time>2026-05-01T15:54:45.861Z</time></trkpt><trkpt lat="44.01138646035532" lon="10.607663085272517"><ele>174.66666666666669</ele><time>2026-05-01T15:54:46.861Z</time></trkpt><trkpt lat="44.0113577069222" lon="10.607869575390843"><ele>174.33333333333334</ele><time>2026-05-01T15:54:47.861Z</time></trkpt><trkpt lat="44.01132240399036" lon="10.608107933843831"><ele>174.0</ele><time>2026-05-01T15:54:48.861Z</time></trkpt><trkpt lat="44.01128274649427" lon="10.60836508597181"><ele>174.0</ele><time>2026-05-01T15:54:49.861Z</time></trkpt><trkpt lat="44.01123299289741" lon="10.608622367160564"><ele>174.0</ele><time>2026-05-01T15:54:50.861Z</time></trkpt><trkpt lat="44.01115495976241" lon="10.608861837888986"><ele>174.0</ele><time>2026-05-01T15:54:51.861Z</time></trkpt><trkpt lat="44.01105769416387" lon="10.609118495009195"><ele>173.0</ele><time>2026-05-01T15:54:52.861Z</time></trkpt><trkpt lat="44.01095484808689" lon="10.609389568286494"><ele>172.0</ele><time>2026-05-01T15:54:53.861Z</time></trkpt><trkpt lat="44.01084984441585" lon="10.609663808201446"><ele>171.0</ele><time>2026-05-01T15:54:54.861Z</time></trkpt><trkpt lat="44.01074706269224" lon="10.609927578885602"><ele>173.33333333333334</ele><time>2026-05-01T15:54:55.861Z</time></trkpt><trkpt lat="44.01064721495927" lon="10.610157438576614"><ele>175.66666666666669</ele><time>2026-05-01T15:54:56.861Z</time></trkpt><trkpt lat="44.010536998210696" lon="10.610378613362512"><ele>178.0</ele><time>2026-05-01T15:54:57.861Z</time></trkpt><trkpt lat="44.010416802607324" lon="10.610599174101907"><ele>178.0</ele><time>2026-05-01T15:54:58.861Z</time></trkpt><trkpt lat="44.010288504509994" lon="10.610825738727286"><ele>178.0</ele><time>2026-05-01T15:54:59.861Z</time></trkpt><trkpt lat="44.010161304680295" lon="10.611053818375552"><ele>178.0</ele><time>2026-05-01T15:55:00.861Z</time></trkpt><trkpt lat="44.01003002568416" lon="10.6112906654383"><ele>179.33333333333334</ele><time>2026-05-01T15:55:01.861Z</time></trkpt><trkpt lat="44.00989604282374" lon="10.611517415311996"><ele>180.66666666666666</ele><time>2026-05-01T15:55:02.861Z</time></trkpt><trkpt lat="44.00974817051159" lon="10.61175258956296"><ele>182.0</ele><time>2026-05-01T15:55:03.861Z</time></trkpt><trkpt lat="44.009600332326585" lon="10.611990180781742"><ele>182.0</ele><time>2026-05-01T15:55:04.861Z</time></trkpt><trkpt lat="44.00945054073729" lon="10.612231915425221"><ele>182.0</ele><time>2026-05-01T15:55:05.861Z</time></trkpt><trkpt lat="44.00931318524269" lon="10.612477679723701"><ele>182.0</ele><time>2026-05-01T15:55:06.861Z</time></trkpt><trkpt lat="44.00917533654981" lon="10.612681923530172"><ele>182.0</ele><time>2026-05-01T15:55:07.861Z</time></trkpt><trkpt lat="44.00907067177335" lon="10.612902696643193"><ele>182.0</ele><time>2026-05-01T15:55:08.861Z</time></trkpt><trkpt lat="44.008967811368095" lon="10.613108792421682"><ele>182.33333333333331</ele><time>2026-05-01T15:55:09.861Z</time></trkpt><trkpt lat="44.0088984602851" lon="10.613317967768738"><ele>182.66666666666666</ele><time>2026-05-01T15:55:10.861Z</time></trkpt><trkpt lat="44.00886715116164" lon="10.613535641874709"><ele>183.0</ele><time>2026-05-01T15:55:11.861Z</time></trkpt><trkpt lat="44.008855740923515" lon="10.613736065904355"><ele>183.0</ele><time>2026-05-01T15:55:12.861Z</time></trkpt><trkpt lat="44.008836182527055" lon="10.613923571573448"><ele>183.0</ele><time>2026-05-01T15:55:13.861Z</time></trkpt><trkpt lat="44.00881407929093" lon="10.614099202361635"><ele>183.0</ele><time>2026-05-01T15:55:14.861Z</time></trkpt><trkpt lat="44.00877113189316" lon="10.61427344834734"><ele>183.0</ele><time>2026-05-01T15:55:15.861Z</time></trkpt><trkpt lat="44.00870920485072" lon="10.61442051015237"><ele>180.25</ele><time>2026-05-01T15:55:16.861Z</time></trkpt><trkpt lat="44.00863748664749" lon="10.61455193829322"><ele>177.5</ele><time>2026-05-01T15:55:17.861Z</time></trkpt><trkpt lat="44.00855736947352" lon="10.614677342665054"><ele>174.75</ele><time>2026-05-01T15:55:18.861Z</time></trkpt><trkpt lat="44.00848763797728" lon="10.614826303716436"><ele>172.0</ele><time>2026-05-01T15:55:19.861Z</time></trkpt><trkpt lat="44.00841295453303" lon="10.61497476299969"><ele>172.0</ele><time>2026-05-01T15:55:20.861Z</time></trkpt><trkpt lat="44.008365798576314" lon="10.615135327554775"><ele>172.0</ele><time>2026-05-01T15:55:21.861Z</time></trkpt><trkpt lat="44.00833208728791" lon="10.615313261027156"><ele>172.0</ele><time>2026-05-01T15:55:22.861Z</time></trkpt><trkpt lat="44.0082893589927" lon="10.615489520511995"><ele>172.0</ele><time>2026-05-01T15:55:23.861Z</time></trkpt><trkpt lat="44.00827224980606" lon="10.61565956570055"><ele>182.25</ele><time>2026-05-01T15:55:24.861Z</time></trkpt><trkpt lat="44.00826194109192" lon="10.615816958127159"><ele>192.5</ele><time>2026-05-01T15:55:25.861Z</time></trkpt><trkpt lat="44.00823920383919" lon="10.615977277704241"><ele>202.75</ele><time>2026-05-01T15:55:26.861Z</time></trkpt><trkpt lat="44.00824569668861" lon="10.616131589300403"><ele>213.0</ele><time>2026-05-01T15:55:27.861Z</time></trkpt><trkpt lat="44.008270239682304" lon="10.616295377100586"><ele>214.25</ele><time>2026-05-01T15:55:28.861Z</time></trkpt><trkpt lat="44.008297801197465" lon="10.616467408919798"><ele>215.5</ele><time>2026-05-01T15:55:29.861Z</time></trkpt><trkpt lat="44.008329125284185" lon="10.616634062904312"><ele>216.75</ele><time>2026-05-01T15:55:30.861Z</time></trkpt><trkpt lat="44.008367559896904" lon="10.616786099546935"><ele>218.0</ele><time>2026-05-01T15:55:31.861Z</time></trkpt><trkpt lat="44.008413693517085" lon="10.616937923350081"><ele>212.0</ele><time>2026-05-01T15:55:32.861Z</time></trkpt><trkpt lat="44.00846577223726" lon="10.617074610324963"><ele>206.0</ele><time>2026-05-01T15:55:33.861Z</time></trkpt><trkpt lat="44.008505246270715" lon="10.617217660577637"><ele>200.0</ele><time>2026-05-01T15:55:34.861Z</time></trkpt><trkpt lat="44.008532352179145" lon="10.617374957424436"><ele>194.0</ele><time>2026-05-01T15:55:35.861Z</time></trkpt><trkpt lat="44.00855394780364" lon="10.617522948738312"><ele>188.0</ele><time>2026-05-01T15:55:36.861Z</time></trkpt><trkpt lat="44.00856143011958" lon="10.617670353964352"><ele>188.0</ele><time>2026-05-01T15:55:37.861Z</time></trkpt><trkpt lat="44.008581715584796" lon="10.617807657034149"><ele>188.0</ele><time>2026-05-01T15:55:38.861Z</time></trkpt><trkpt lat="44.008604412143654" lon="10.61795502596218"><ele>188.0</ele><time>2026-05-01T15:55:39.861Z</time></trkpt><trkpt lat="44.00863802225846" lon="10.618095856856584"><ele>188.0</ele><time>2026-05-01T15:55:40.861Z</time></trkpt><trkpt lat="44.00868276567309" lon="10.6182256286376"><ele>188.0</ele><time>2026-05-01T15:55:41.861Z</time></trkpt><trkpt lat="44.00873882650654" lon="10.618342414159626"><ele>187.2</ele><time>2026-05-01T15:55:42.861Z</time></trkpt><trkpt lat="44.00882454849923" lon="10.618425419177676"><ele>186.4</ele><time>2026-05-01T15:55:43.861Z</time></trkpt><trkpt lat="44.008933035896455" lon="10.618478212042525"><ele>185.6</ele><time>2026-05-01T15:55:44.861Z</time></trkpt><trkpt lat="44.00904412812181" lon="10.618511943455198"><ele>184.79999999999998</ele><time>2026-05-01T15:55:45.861Z</time></trkpt><trkpt lat="44.00914684484558" lon="10.618529899094643"><ele>184.0</ele><time>2026-05-01T15:55:46.861Z</time></trkpt><trkpt lat="44.00925206629091" lon="10.618547846273055"><ele>185.6</ele><time>2026-05-01T15:55:47.861Z</time></trkpt><trkpt lat="44.00936276389017" lon="10.61856007532166"><ele>187.2</ele><time>2026-05-01T15:55:48.861Z</time></trkpt><trkpt lat="44.0094644681693" lon="10.618573807237407"><ele>188.79999999999998</ele><time>2026-05-01T15:55:49.861Z</time></trkpt><trkpt lat="44.00956374257855" lon="10.618611407662101"><ele>190.39999999999998</ele><time>2026-05-01T15:55:50.861Z</time></trkpt><trkpt lat="44.009651560409395" lon="10.618687696692067"><ele>192.0</ele><time>2026-05-01T15:55:51.861Z</time></trkpt><trkpt lat="44.009744296852574" lon="10.618816428198937"><ele>192.0</ele><time>2026-05-01T15:55:52.861Z</time></trkpt><trkpt lat="44.00987188949799" lon="10.618957751997732"><ele>192.0</ele><time>2026-05-01T15:55:53.861Z</time></trkpt><trkpt lat="44.010016566921045" lon="10.619118870950881"><ele>192.0</ele><time>2026-05-01T15:55:54.861Z</time></trkpt><trkpt lat="44.01017568965063" lon="10.619296077162982"><ele>194.66666666666669</ele><time>2026-05-01T15:55:55.861Z</time></trkpt><trkpt lat="44.01033310892126" lon="10.619471386088724"><ele>197.33333333333334</ele><time>2026-05-01T15:55:56.861Z</time></trkpt><trkpt lat="44.010496272794484" lon="10.619625657554884"><ele>200.0</ele><time>2026-05-01T15:55:57.861Z</time></trkpt><trkpt lat="44.01064562207147" lon="10.619793878990153"><ele>200.0</ele><time>2026-05-01T15:55:58.861Z</time></trkpt><trkpt lat="44.01081658997472" lon="10.619976091798238"><ele>200.0</ele><time>2026-05-01T15:55:59.861Z</time></trkpt><trkpt lat="44.01099088625797" lon="10.620147219078936"><ele>200.0</ele><time>2026-05-01T15:56:00.861Z</time></trkpt><trkpt lat="44.01116101122412" lon="10.620323378259304"><ele>197.66666666666669</ele><time>2026-05-01T15:56:01.861Z</time></trkpt><trkpt lat="44.0113379600222" lon="10.62052695901219"><ele>195.33333333333331</ele><time>2026-05-01T15:56:02.861Z</time></trkpt><trkpt lat="44.01152283872491" lon="10.620691127144527"><ele>193.0</ele><time>2026-05-01T15:56:03.861Z</time></trkpt><trkpt lat="44.011695165363875" lon="10.62088691298514"><ele>194.33333333333331</ele><time>2026-05-01T15:56:04.861Z</time></trkpt><trkpt lat="44.01186912553254" lon="10.621044614570938"><ele>195.66666666666669</ele><time>2026-05-01T15:56:05.861Z</time></trkpt><trkpt lat="44.01205947453116" lon="10.621164302556318"><ele>197.0</ele><time>2026-05-01T15:56:06.861Z</time></trkpt><trkpt lat="44.01224406409705" lon="10.621280813842587"><ele>197.0</ele><time>2026-05-01T15:56:07.861Z</time></trkpt><trkpt lat="44.01241529025836" lon="10.621409426499389"><ele>197.0</ele><time>2026-05-01T15:56:08.861Z</time></trkpt><trkpt lat="44.01259210393683" lon="10.621522243226172"><ele>197.0</ele><time>2026-05-01T15:56:09.861Z</time></trkpt><trkpt lat="44.01278159546388" lon="10.621625844642887"><ele>193.0</ele><time>2026-05-01T15:56:10.861Z</time></trkpt><trkpt lat="44.01296831500782" lon="10.621748047605553"><ele>189.0</ele><time>2026-05-01T15:56:11.861Z</time></trkpt><trkpt lat="44.013153220835015" lon="10.621867166234468"><ele>185.0</ele><time>2026-05-01T15:56:12.861Z</time></trkpt><trkpt lat="44.01334251343301" lon="10.621984294874736"><ele>185.0</ele><time>2026-05-01T15:56:13.861Z</time></trkpt><trkpt lat="44.01352820686056" lon="10.62210197234318"><ele>185.0</ele><time>2026-05-01T15:56:14.861Z</time></trkpt><trkpt lat="44.01371354313817" lon="10.62221761497512"><ele>185.0</ele><time>2026-05-01T15:56:15.861Z</time></trkpt><trkpt lat="44.01390235554817" lon="10.62231637893591"><ele>185.0</ele><time>2026-05-01T15:56:16.861Z</time></trkpt><trkpt lat="44.01409160689418" lon="10.622392608093566"><ele>185.0</ele><time>2026-05-01T15:56:17.861Z</time></trkpt><trkpt lat="44.014286847891746" lon="10.622456191395086"><ele>185.0</ele><time>2026-05-01T15:56:18.861Z</time></trkpt><trkpt lat="44.014469414090684" lon="10.62250096176048"><ele>184.33333333333331</ele><time>2026-05-01T15:56:19.861Z</time></trkpt><trkpt lat="44.01463158732312" lon="10.622568838470487"><ele>183.66666666666666</ele><time>2026-05-01T15:56:20.861Z</time></trkpt><trkpt lat="44.01477855550433" lon="10.62267662052672"><ele>183.0</ele><time>2026-05-01T15:56:21.861Z</time></trkpt><trkpt lat="44.01492355150314" lon="10.622790120138408"><ele>184.33333333333334</ele><time>2026-05-01T15:56:22.861Z</time></trkpt><trkpt lat="44.015066712679115" lon="10.622947559499487"><ele>185.66666666666669</ele><time>2026-05-01T15:56:23.861Z</time></trkpt><trkpt lat="44.01519988605362" lon="10.623131917067356"><ele>187.0</ele><time>2026-05-01T15:56:24.861Z</time></trkpt><trkpt lat="44.01531042930381" lon="10.623357094928929"><ele>187.0</ele><time>2026-05-01T15:56:25.861Z</time></trkpt><trkpt lat="44.01542235572639" lon="10.62362017335908"><ele>187.0</ele><time>2026-05-01T15:56:26.861Z</time></trkpt><trkpt lat="44.01557048039436" lon="10.623869317412671"><ele>187.33333333333334</ele><time>2026-05-01T15:56:27.861Z</time></trkpt><trkpt lat="44.015712102128724" lon="10.624118561980818"><ele>187.66666666666666</ele><time>2026-05-01T15:56:28.861Z</time></trkpt><trkpt lat="44.01586429368023" lon="10.62433085487536"><ele>188.0</ele><time>2026-05-01T15:56:29.861Z</time></trkpt><trkpt lat="44.01599506438791" lon="10.624563792742142"><ele>194.66666666666666</ele><time>2026-05-01T15:56:30.861Z</time></trkpt><trkpt lat="44.016129609147654" lon="10.624787192846176"><ele>201.33333333333331</ele><time>2026-05-01T15:56:31.861Z</time></trkpt><trkpt lat="44.01623697445631" lon="10.625026280349687"><ele>208.0</ele><time>2026-05-01T15:56:32.861Z</time></trkpt><trkpt lat="44.01633934918788" lon="10.625314597569705"><ele>226.0</ele><time>2026-05-01T15:56:33.861Z</time></trkpt><trkpt lat="44.01645018571154" lon="10.625603143675892"><ele>244.0</ele><time>2026-05-01T15:56:34.861Z</time></trkpt><trkpt lat="44.01657951536713" lon="10.625875867209471"><ele>227.5</ele><time>2026-05-01T15:56:35.861Z</time></trkpt><trkpt lat="44.0167240167137" lon="10.626143925259594"><ele>211.0</ele><time>2026-05-01T15:56:36.862Z</time></trkpt><trkpt lat="44.016883023807694" lon="10.626440494785998"><ele>211.0</ele><time>2026-05-01T15:56:37.862Z</time></trkpt><trkpt lat="44.017061943361355" lon="10.62677432348013"><ele>211.0</ele><time>2026-05-01T15:56:38.862Z</time></trkpt><trkpt lat="44.01723439699518" lon="10.627094298519815"><ele>201.0</ele><time>2026-05-01T15:56:39.862Z</time></trkpt><trkpt lat="44.017403337677464" lon="10.62737489385362"><ele>191.0</ele><time>2026-05-01T15:56:40.862Z</time></trkpt><trkpt lat="44.0175502756401" lon="10.627648708925523"><ele>200.66666666666666</ele><time>2026-05-01T15:56:41.862Z</time></trkpt><trkpt lat="44.01766090184509" lon="10.627898182067248"><ele>210.33333333333331</ele><time>2026-05-01T15:56:42.861Z</time></trkpt><trkpt lat="44.01775674630798" lon="10.628133311586486"><ele>220.0</ele><time>2026-05-01T15:56:43.862Z</time></trkpt><trkpt lat="44.01784324846233" lon="10.628357985523735"><ele>220.0</ele><time>2026-05-01T15:56:44.862Z</time></trkpt><trkpt lat="44.01793288263574" lon="10.628547155187192"><ele>220.0</ele><time>2026-05-01T15:56:45.861Z</time></trkpt><trkpt lat="44.01803601895985" lon="10.628676045777139"><ele>220.0</ele><time>2026-05-01T15:56:46.862Z</time></trkpt><trkpt lat="44.0181735496563" lon="10.628777835447087"><ele>213.33333333333331</ele><time>2026-05-01T15:56:47.862Z</time></trkpt><trkpt lat="44.018334164178995" lon="10.628866284291027"><ele>206.66666666666669</ele><time>2026-05-01T15:56:48.862Z</time></trkpt><trkpt lat="44.0184319577775" lon="10.629029345281062"><ele>200.0</ele><time>2026-05-01T15:56:49.862Z</time></trkpt><trkpt lat="44.018521841921775" lon="10.629199155017954"><ele>200.0</ele><time>2026-05-01T15:56:50.862Z</time></trkpt><trkpt lat="44.01860860605417" lon="10.62938423756627"><ele>200.0</ele><time>2026-05-01T15:56:51.862Z</time></trkpt><trkpt lat="44.0186909337321" lon="10.629587549710527"><ele>200.0</ele><time>2026-05-01T15:56:52.862Z</time></trkpt><trkpt lat="44.01877174996414" lon="10.629801072048378"><ele>203.0</ele><time>2026-05-01T15:56:53.862Z</time></trkpt><trkpt lat="44.018880136411994" lon="10.630010434277334"><ele>206.0</ele><time>2026-05-01T15:56:54.862Z</time></trkpt><trkpt lat="44.01901448318733" lon="10.630204073334056"><ele>209.0</ele><time>2026-05-01T15:56:55.862Z</time></trkpt><trkpt lat="44.019157447327395" lon="10.630391680708467"><ele>209.0</ele><time>2026-05-01T15:56:56.862Z</time></trkpt><trkpt lat="44.019306744340135" lon="10.630589501789656"><ele>209.0</ele><time>2026-05-01T15:56:57.862Z</time></trkpt><trkpt lat="44.01945336729756" lon="10.630785129845902"><ele>209.0</ele><time>2026-05-01T15:56:58.862Z</time></trkpt><trkpt lat="44.019562152245335" lon="10.631011912390035"><ele>215.0</ele><time>2026-05-01T15:56:59.862Z</time></trkpt><trkpt lat="44.019673448179454" lon="10.631235371486182"><ele>221.0</ele><time>2026-05-01T15:57:00.862Z</time></trkpt><trkpt lat="44.01975870036289" lon="10.631466582230729"><ele>227.0</ele><time>2026-05-01T15:57:01.862Z</time></trkpt><trkpt lat="44.019824357748966" lon="10.63174667149083"><ele>238.0</ele><time>2026-05-01T15:57:02.862Z</time></trkpt><trkpt lat="44.01990171060282" lon="10.632069895021422"><ele>249.0</ele><time>2026-05-01T15:57:03.862Z</time></trkpt><trkpt lat="44.02000974596855" lon="10.632384954249021"><ele>234.0</ele><time>2026-05-01T15:57:04.862Z</time></trkpt><trkpt lat="44.02008458841308" lon="10.632686824599986"><ele>219.0</ele><time>2026-05-01T15:57:05.862Z</time></trkpt><trkpt lat="44.020186191557514" lon="10.632990969665402"><ele>219.0</ele><time>2026-05-01T15:57:06.862Z</time></trkpt><trkpt lat="44.0202791413917" lon="10.633265572469588"><ele>219.0</ele><time>2026-05-01T15:57:07.862Z</time></trkpt><trkpt lat="44.02037159974438" lon="10.633504347790621"><ele>219.0</ele><time>2026-05-01T15:57:08.862Z</time></trkpt><trkpt lat="44.020459274275375" lon="10.633731613959583"><ele>214.33333333333331</ele><time>2026-05-01T15:57:09.862Z</time></trkpt><trkpt lat="44.020557099663314" lon="10.63392446602024"><ele>209.66666666666666</ele><time>2026-05-01T15:57:10.862Z</time></trkpt><trkpt lat="44.02067650930589" lon="10.634099131813823"><ele>205.0</ele><time>2026-05-01T15:57:11.862Z</time></trkpt><trkpt lat="44.02082828330366" lon="10.63426661220283"><ele>205.0</ele><time>2026-05-01T15:57:12.863Z</time></trkpt><trkpt lat="44.02099324286789" lon="10.63442186942469"><ele>205.0</ele><time>2026-05-01T15:57:13.863Z</time></trkpt><trkpt lat="44.02115255414655" lon="10.63457780181221"><ele>205.0</ele><time>2026-05-01T15:57:14.863Z</time></trkpt><trkpt lat="44.02129886331547" lon="10.63475936882908"><ele>201.66666666666666</ele><time>2026-05-01T15:57:15.863Z</time></trkpt><trkpt lat="44.02143122632759" lon="10.63491616225308"><ele>198.33333333333331</ele><time>2026-05-01T15:57:16.863Z</time></trkpt><trkpt lat="44.02155368140796" lon="10.635085647189896"><ele>195.0</ele><time>2026-05-01T15:57:17.863Z</time></trkpt><trkpt lat="44.02165725270933" lon="10.635279893840533"><ele>196.33333333333331</ele><time>2026-05-01T15:57:18.863Z</time></trkpt><trkpt lat="44.021730640950075" lon="10.635517733137362"><ele>197.66666666666666</ele><time>2026-05-01T15:57:19.863Z</time></trkpt><trkpt lat="44.02176834379483" lon="10.635766429749944"><ele>199.0</ele><time>2026-05-01T15:57:20.863Z</time></trkpt><trkpt lat="44.021833485914186" lon="10.635983744917135"><ele>199.66666666666666</ele><time>2026-05-01T15:57:21.863Z</time></trkpt><trkpt lat="44.02191489796645" lon="10.636169629811794"><ele>200.33333333333331</ele><time>2026-05-01T15:57:22.863Z</time></trkpt><trkpt lat="44.022015243225084" lon="10.636337028484585"><ele>201.0</ele><time>2026-05-01T15:57:23.863Z</time></trkpt><trkpt lat="44.02214744506954" lon="10.63647375275792"><ele>201.0</ele><time>2026-05-01T15:57:24.863Z</time></trkpt><trkpt lat="44.02226742910888" lon="10.63666215363254"><ele>201.0</ele><time>2026-05-01T15:57:25.863Z</time></trkpt><trkpt lat="44.02238038452368" lon="10.636858427247212"><ele>201.0</ele><time>2026-05-01T15:57:26.863Z</time></trkpt><trkpt lat="44.02248640431197" lon="10.637057233006947"><ele>202.0</ele><time>2026-05-01T15:57:27.863Z</time></trkpt><trkpt lat="44.022566902441795" lon="10.637238982568288"><ele>203.0</ele><time>2026-05-01T15:57:28.863Z</time></trkpt><trkpt lat="44.02264691943039" lon="10.637410849400633"><ele>204.0</ele><time>2026-05-01T15:57:29.863Z</time></trkpt><trkpt lat="44.02272052651972" lon="10.637573114647703"><ele>205.0</ele><time>2026-05-01T15:57:30.863Z</time></trkpt><trkpt lat="44.02279604825807" lon="10.637753823830032"><ele>207.33333333333331</ele><time>2026-05-01T15:57:31.863Z</time></trkpt><trkpt lat="44.02287976393119" lon="10.637924957869238"><ele>209.66666666666669</ele><time>2026-05-01T15:57:32.863Z</time></trkpt><trkpt lat="44.02297038837272" lon="10.638141078243079"><ele>212.0</ele><time>2026-05-01T15:57:33.863Z</time></trkpt><trkpt lat="44.023055493499825" lon="10.638384247181552"><ele>212.0</ele><time>2026-05-01T15:57:34.863Z</time></trkpt><trkpt lat="44.02312040570805" lon="10.6386334928403"><ele>212.0</ele><time>2026-05-01T15:57:35.863Z</time></trkpt><trkpt lat="44.02319134987161" lon="10.638872541679941"><ele>212.0</ele><time>2026-05-01T15:57:36.863Z</time></trkpt><trkpt lat="44.023262054413" lon="10.639124348791164"><ele>208.0</ele><time>2026-05-01T15:57:37.863Z</time></trkpt><trkpt lat="44.023642396066464" lon="10.639655969102957"><ele>208.0</ele><time>2026-05-01T15:57:38.863Z</time></trkpt><trkpt lat="44.02377610392226" lon="10.639967457484312"><ele>208.0</ele><time>2026-05-01T15:57:39.863Z</time></trkpt><trkpt lat="44.02389181014548" lon="10.640250342282549"><ele>207.0</ele><time>2026-05-01T15:57:40.863Z</time></trkpt><trkpt lat="44.023999412258526" lon="10.640514685825456"><ele>206.0</ele><time>2026-05-01T15:57:41.863Z</time></trkpt><trkpt lat="44.024106835072494" lon="10.64077008085003"><ele>205.0</ele><time>2026-05-01T15:57:42.863Z</time></trkpt><trkpt lat="44.024216071287185" lon="10.641019309437358"><ele>212.66666666666666</ele><time>2026-05-01T15:57:43.863Z</time></trkpt><trkpt lat="44.024331332542076" lon="10.641249825200841"><ele>220.33333333333331</ele><time>2026-05-01T15:57:44.863Z</time></trkpt><trkpt lat="44.02447466305544" lon="10.641440937440642"><ele>228.0</ele><time>2026-05-01T15:57:45.863Z</time></trkpt><trkpt lat="44.02464347521612" lon="10.641590754240731"><ele>228.0</ele><time>2026-05-01T15:57:46.863Z</time></trkpt><trkpt lat="44.02482758695474" lon="10.641692862012494"><ele>228.0</ele><time>2026-05-01T15:57:47.863Z</time></trkpt><trkpt lat="44.025040547776634" lon="10.64178425111853"><ele>228.0</ele><time>2026-05-01T15:57:48.863Z</time></trkpt><trkpt lat="44.02525084451172" lon="10.641887105161876"><ele>229.66666666666669</ele><time>2026-05-01T15:57:49.863Z</time></trkpt><trkpt lat="44.02546066554546" lon="10.641999126829703"><ele>231.33333333333334</ele><time>2026-05-01T15:57:50.863Z</time></trkpt><trkpt lat="44.02566881624912" lon="10.64211452769598"><ele>233.0</ele><time>2026-05-01T15:57:51.863Z</time></trkpt><trkpt lat="44.02587019449253" lon="10.642245582851492"><ele>223.0</ele><time>2026-05-01T15:57:52.863Z</time></trkpt><trkpt lat="44.026059365271124" lon="10.642412154926907"><ele>213.0</ele><time>2026-05-01T15:57:53.863Z</time></trkpt><trkpt lat="44.026252872963" lon="10.642628316106345"><ele>217.0</ele><time>2026-05-01T15:57:54.863Z</time></trkpt><trkpt lat="44.02645205058007" lon="10.642832551720103"><ele>221.0</ele><time>2026-05-01T15:57:55.863Z</time></trkpt><trkpt lat="44.02665229502488" lon="10.643054646131379"><ele>221.0</ele><time>2026-05-01T15:57:56.863Z</time></trkpt><trkpt lat="44.026858657045665" lon="10.643277893161654"><ele>221.0</ele><time>2026-05-01T15:57:57.863Z</time></trkpt><trkpt lat="44.02706546865326" lon="10.64348788222523"><ele>229.0</ele><time>2026-05-01T15:57:58.863Z</time></trkpt><trkpt lat="44.02725977282716" lon="10.643708363786667"><ele>237.0</ele><time>2026-05-01T15:57:59.863Z</time></trkpt><trkpt lat="44.02744091460002" lon="10.643900023249076"><ele>237.0</ele><time>2026-05-01T15:58:00.863Z</time></trkpt><trkpt lat="44.027613170477" lon="10.644083036501863"><ele>237.0</ele><time>2026-05-01T15:58:01.863Z</time></trkpt><trkpt lat="44.02778853005546" lon="10.64427270340535"><ele>237.0</ele><time>2026-05-01T15:58:02.863Z</time></trkpt><trkpt lat="44.02797984165256" lon="10.644480611538096"><ele>237.0</ele><time>2026-05-01T15:58:03.863Z</time></trkpt><trkpt lat="44.02816812462653" lon="10.64468163680159"><ele>237.0</ele><time>2026-05-01T15:58:04.863Z</time></trkpt><trkpt lat="44.028357438140624" lon="10.644893652174494"><ele>227.5</ele><time>2026-05-01T15:58:05.863Z</time></trkpt><trkpt lat="44.02855367056987" lon="10.645091127884584"><ele>218.0</ele><time>2026-05-01T15:58:06.863Z</time></trkpt><trkpt lat="44.028753400647254" lon="10.64528827556308"><ele>227.5</ele><time>2026-05-01T15:58:07.863Z</time></trkpt><trkpt lat="44.028948994058474" lon="10.64548887010725"><ele>237.0</ele><time>2026-05-01T15:58:08.863Z</time></trkpt><trkpt lat="44.029140350969215" lon="10.645692136334816"><ele>227.5</ele><time>2026-05-01T15:58:09.863Z</time></trkpt><trkpt lat="44.029319776870935" lon="10.645895104787416"><ele>218.0</ele><time>2026-05-01T15:58:10.863Z</time></trkpt><trkpt lat="44.02950964504022" lon="10.64607456409512"><ele>219.33333333333334</ele><time>2026-05-01T15:58:11.863Z</time></trkpt><trkpt lat="44.02968237663355" lon="10.64624570308058"><ele>220.66666666666669</ele><time>2026-05-01T15:58:12.863Z</time></trkpt><trkpt lat="44.029839325709666" lon="10.646409792224995"><ele>222.0</ele><time>2026-05-01T15:58:13.863Z</time></trkpt><trkpt lat="44.02999450954452" lon="10.646546258246314"><ele>222.0</ele><time>2026-05-01T15:58:14.863Z</time></trkpt><trkpt lat="44.03016139701704" lon="10.64662815842005"><ele>222.0</ele><time>2026-05-01T15:58:15.863Z</time></trkpt><trkpt lat="44.030372009030756" lon="10.64669342131507"><ele>222.0</ele><time>2026-05-01T15:58:16.863Z</time></trkpt><trkpt lat="44.03059845697634" lon="10.646744847882518"><ele>220.0</ele><time>2026-05-01T15:58:17.863Z</time></trkpt><trkpt lat="44.030821432474895" lon="10.646801497223278"><ele>218.0</ele><time>2026-05-01T15:58:18.863Z</time></trkpt><trkpt lat="44.03104535605857" lon="10.646889795630466"><ele>218.0</ele><time>2026-05-01T15:58:19.863Z</time></trkpt><trkpt lat="44.03127587278388" lon="10.646939369178025"><ele>218.0</ele><time>2026-05-01T15:58:20.863Z</time></trkpt><trkpt lat="44.031491466622356" lon="10.647007287963772"><ele>222.0</ele><time>2026-05-01T15:58:21.863Z</time></trkpt><trkpt lat="44.03169838187897" lon="10.647080160444284"><ele>226.0</ele><time>2026-05-01T15:58:22.863Z</time></trkpt><trkpt lat="44.03189535038462" lon="10.647138243392329"><ele>230.0</ele><time>2026-05-01T15:58:23.863Z</time></trkpt><trkpt lat="44.03210248853114" lon="10.64720012676931"><ele>230.0</ele><time>2026-05-01T15:58:24.863Z</time></trkpt><trkpt lat="44.032298450711906" lon="10.647255210208746"><ele>230.0</ele><time>2026-05-01T15:58:25.863Z</time></trkpt><trkpt lat="44.03251289229341" lon="10.64730256095714"><ele>230.0</ele><time>2026-05-01T15:58:26.863Z</time></trkpt><trkpt lat="44.03273647417858" lon="10.647355971366409"><ele>229.5</ele><time>2026-05-01T15:58:27.863Z</time></trkpt><trkpt lat="44.03296756986847" lon="10.647344236147548"><ele>229.0</ele><time>2026-05-01T15:58:28.863Z</time></trkpt><trkpt lat="44.03320569865778" lon="10.647355933432888"><ele>228.5</ele><time>2026-05-01T15:58:29.863Z</time></trkpt><trkpt lat="44.03343906567005" lon="10.647363077789104"><ele>228.0</ele><time>2026-05-01T15:58:30.863Z</time></trkpt><trkpt lat="44.03367357678685" lon="10.647370428463665"><ele>228.0</ele><time>2026-05-01T15:58:31.863Z</time></trkpt><trkpt lat="44.033913707548706" lon="10.647382095442605"><ele>228.0</ele><time>2026-05-01T15:58:32.863Z</time></trkpt><trkpt lat="44.03415878411961" lon="10.64738370690218"><ele>229.0</ele><time>2026-05-01T15:58:33.863Z</time></trkpt><trkpt lat="44.03439711632447" lon="10.647382362791026"><ele>230.0</ele><time>2026-05-01T15:58:34.863Z</time></trkpt><trkpt lat="44.034630489447984" lon="10.647380014037033"><ele>230.0</ele><time>2026-05-01T15:58:35.863Z</time></trkpt><trkpt lat="44.03484985236946" lon="10.647389638962888"><ele>230.0</ele><time>2026-05-01T15:58:36.863Z</time></trkpt><trkpt lat="44.03504553143885" lon="10.64740210183985"><ele>230.0</ele><time>2026-05-01T15:58:37.863Z</time></trkpt><trkpt lat="44.0352318562139" lon="10.647404188135912"><ele>229.33333333333334</ele><time>2026-05-01T15:58:38.863Z</time></trkpt><trkpt lat="44.035407269569" lon="10.647419259541817"><ele>228.66666666666669</ele><time>2026-05-01T15:58:39.863Z</time></trkpt><trkpt lat="44.035574470504216" lon="10.64744220805513"><ele>228.0</ele><time>2026-05-01T15:58:40.863Z</time></trkpt><trkpt lat="44.03571444899839" lon="10.647514533624637"><ele>227.33333333333331</ele><time>2026-05-01T15:58:41.863Z</time></trkpt><trkpt lat="44.03586122470822" lon="10.647614348767247"><ele>226.66666666666666</ele><time>2026-05-01T15:58:42.863Z</time></trkpt><trkpt lat="44.036014855288634" lon="10.647747178730317"><ele>226.0</ele><time>2026-05-01T15:58:43.862Z</time></trkpt><trkpt lat="44.03617492492335" lon="10.647884080885829"><ele>229.0</ele><time>2026-05-01T15:58:44.862Z</time></trkpt><trkpt lat="44.036324794548676" lon="10.648012438073978"><ele>232.0</ele><time>2026-05-01T15:58:45.863Z</time></trkpt><trkpt lat="44.03645622249619" lon="10.64812452883224"><ele>235.0</ele><time>2026-05-01T15:58:46.862Z</time></trkpt><trkpt lat="44.036573191201555" lon="10.648227235340274"><ele>233.75</ele><time>2026-05-01T15:58:47.862Z</time></trkpt><trkpt lat="44.03666696757082" lon="10.648321432186945"><ele>232.5</ele><time>2026-05-01T15:58:48.862Z</time></trkpt><trkpt lat="44.03669631142346" lon="10.648455278910816"><ele>231.25</ele><time>2026-05-01T15:58:49.863Z</time></trkpt><trkpt lat="44.03672832817287" lon="10.648608654763159"><ele>230.0</ele><time>2026-05-01T15:58:50.863Z</time></trkpt><trkpt lat="44.036674358549526" lon="10.648784821245707"><ele>227.66666666666669</ele><time>2026-05-01T15:58:51.863Z</time></trkpt><trkpt lat="44.03660032159176" lon="10.648964441658311"><ele>225.33333333333331</ele><time>2026-05-01T15:58:52.863Z</time></trkpt><trkpt lat="44.03650566039863" lon="10.649163802747136"><ele>223.0</ele><time>2026-05-01T15:58:53.863Z</time></trkpt><trkpt lat="44.0363929649742" lon="10.649371967887074"><ele>224.66666666666666</ele><time>2026-05-01T15:58:54.863Z</time></trkpt><trkpt lat="44.03629794701281" lon="10.649561253846022"><ele>226.33333333333331</ele><time>2026-05-01T15:58:55.863Z</time></trkpt><trkpt lat="44.036143573726406" lon="10.649687094143282"><ele>228.0</ele><time>2026-05-01T15:58:56.863Z</time></trkpt><trkpt lat="44.03598103014616" lon="10.649817944246674"><ele>228.0</ele><time>2026-05-01T15:58:57.863Z</time></trkpt><trkpt lat="44.03581720708651" lon="10.649953227471277"><ele>228.0</ele><time>2026-05-01T15:58:58.863Z</time></trkpt><trkpt lat="44.03564808180364" lon="10.65007077539213"><ele>228.0</ele><time>2026-05-01T15:58:59.863Z</time></trkpt><trkpt lat="44.035475454414915" lon="10.65016002965782"><ele>228.66666666666669</ele><time>2026-05-01T15:59:00.863Z</time></trkpt><trkpt lat="44.03529644640957" lon="10.650245246592396"><ele>229.33333333333334</ele><time>2026-05-01T15:59:01.863Z</time></trkpt><trkpt lat="44.03513396689159" lon="10.650323288320214"><ele>230.0</ele><time>2026-05-01T15:59:02.863Z</time></trkpt><trkpt lat="44.03499788575106" lon="10.650407159457322"><ele>229.33333333333334</ele><time>2026-05-01T15:59:03.863Z</time></trkpt><trkpt lat="44.034897051655165" lon="10.650537591917653"><ele>228.66666666666669</ele><time>2026-05-01T15:59:04.863Z</time></trkpt><trkpt lat="44.03478484190133" lon="10.65069663663203"><ele>228.0</ele><time>2026-05-01T15:59:05.863Z</time></trkpt><trkpt lat="44.034654793070544" lon="10.650902722433038"><ele>230.0</ele><time>2026-05-01T15:59:06.863Z</time></trkpt><trkpt lat="44.03452556521402" lon="10.651126455266814"><ele>232.0</ele><time>2026-05-01T15:59:07.863Z</time></trkpt><trkpt lat="44.03439458282427" lon="10.651317171380342"><ele>234.0</ele><time>2026-05-01T15:59:08.863Z</time></trkpt><trkpt lat="44.034276485164106" lon="10.651528337447266"><ele>234.0</ele><time>2026-05-01T15:59:09.863Z</time></trkpt><trkpt lat="44.03417573961232" lon="10.651756055480732"><ele>234.0</ele><time>2026-05-01T15:59:10.863Z</time></trkpt><trkpt lat="44.03408308905606" lon="10.651960480748064"><ele>234.0</ele><time>2026-05-01T15:59:11.863Z</time></trkpt><trkpt lat="44.03400787820977" lon="10.65215162595663"><ele>232.25</ele><time>2026-05-01T15:59:12.863Z</time></trkpt><trkpt lat="44.033950101959775" lon="10.652312575627159"><ele>230.5</ele><time>2026-05-01T15:59:13.863Z</time></trkpt><trkpt lat="44.03391074722758" lon="10.652473498912164"><ele>228.75</ele><time>2026-05-01T15:59:14.863Z</time></trkpt><trkpt lat="44.03391136714943" lon="10.65265434288012"><ele>227.0</ele><time>2026-05-01T15:59:15.863Z</time></trkpt><trkpt lat="44.03395775507075" lon="10.65283553480289"><ele>227.0</ele><time>2026-05-01T15:59:16.863Z</time></trkpt><trkpt lat="44.03402944781769" lon="10.652983356359986"><ele>227.0</ele><time>2026-05-01T15:59:17.863Z</time></trkpt><trkpt lat="44.034126971258914" lon="10.653127221354673"><ele>227.0</ele><time>2026-05-01T15:59:18.863Z</time></trkpt><trkpt lat="44.034255736635984" lon="10.653220852260413"><ele>227.0</ele><time>2026-05-01T15:59:19.863Z</time></trkpt><trkpt lat="44.03440993863437" lon="10.653287693340111"><ele>231.66666666666669</ele><time>2026-05-01T15:59:20.863Z</time></trkpt><trkpt lat="44.03459924381673" lon="10.653313865139024"><ele>236.33333333333331</ele><time>2026-05-01T15:59:21.863Z</time></trkpt><trkpt lat="44.034851744280154" lon="10.653359806902511"><ele>241.0</ele><time>2026-05-01T15:59:22.863Z</time></trkpt><trkpt lat="44.03509979258358" lon="10.653453921666879"><ele>241.0</ele><time>2026-05-01T15:59:23.863Z</time></trkpt><trkpt lat="44.03532669025133" lon="10.653518777474815"><ele>241.0</ele><time>2026-05-01T15:59:24.863Z</time></trkpt><trkpt lat="44.035526773226714" lon="10.653575913609496"><ele>241.0</ele><time>2026-05-01T15:59:25.863Z</time></trkpt><trkpt lat="44.035707891764886" lon="10.653627634220411"><ele>242.0</ele><time>2026-05-01T15:59:26.863Z</time></trkpt><trkpt lat="44.03587601645157" lon="10.653675194497758"><ele>243.0</ele><time>2026-05-01T15:59:27.863Z</time></trkpt><trkpt lat="44.03602955424457" lon="10.653718590247435"><ele>244.0</ele><time>2026-05-01T15:59:28.863Z</time></trkpt><trkpt lat="44.0361613034717" lon="10.653755827703"><ele>244.0</ele><time>2026-05-01T15:59:29.863Z</time></trkpt><trkpt lat="44.03625729938377" lon="10.653803046908289"><ele>244.0</ele><time>2026-05-01T15:59:30.863Z</time></trkpt><trkpt lat="44.03635245409903" lon="10.653856140504743"><ele>244.0</ele><time>2026-05-01T15:59:31.863Z</time></trkpt><trkpt lat="44.0364414724007" lon="10.65398956869778"><ele>244.0</ele><time>2026-05-01T15:59:32.863Z</time></trkpt><trkpt lat="44.03654353360294" lon="10.654157222082802"><ele>242.33333333333331</ele><time>2026-05-01T15:59:33.863Z</time></trkpt><trkpt lat="44.03664823257954" lon="10.654331419409106"><ele>240.66666666666669</ele><time>2026-05-01T15:59:34.863Z</time></trkpt><trkpt lat="44.036765569366175" lon="10.654501482690014"><ele>239.0</ele><time>2026-05-01T15:59:35.863Z</time></trkpt><trkpt lat="44.036849695476526" lon="10.654695541179008"><ele>239.0</ele><time>2026-05-01T15:59:36.863Z</time></trkpt><trkpt lat="44.036958540235325" lon="10.654856765544512"><ele>239.0</ele><time>2026-05-01T15:59:37.863Z</time></trkpt><trkpt lat="44.0370220879623" lon="10.655015674663863"><ele>239.0</ele><time>2026-05-01T15:59:38.864Z</time></trkpt><trkpt lat="44.037065343831046" lon="10.655171806176543"><ele>239.0</ele><time>2026-05-01T15:59:39.864Z</time></trkpt><trkpt lat="44.03705228982613" lon="10.65534780642524"><ele>238.0</ele><time>2026-05-01T15:59:40.864Z</time></trkpt><trkpt lat="44.03702984676932" lon="10.655570835038093"><ele>237.0</ele><time>2026-05-01T15:59:41.864Z</time></trkpt><trkpt lat="44.03702870475219" lon="10.655805687876102"><ele>236.0</ele><time>2026-05-01T15:59:42.864Z</time></trkpt><trkpt lat="44.03700768905387" lon="10.656022535531502"><ele>234.75</ele><time>2026-05-01T15:59:43.864Z</time></trkpt><trkpt lat="44.03700486500211" lon="10.656226245085112"><ele>233.5</ele><time>2026-05-01T15:59:44.864Z</time></trkpt><trkpt lat="44.037006276817394" lon="10.656418119190263"><ele>232.25</ele><time>2026-05-01T15:59:45.864Z</time></trkpt><trkpt lat="44.03702893806097" lon="10.656606297955642"><ele>231.0</ele><time>2026-05-01T15:59:46.864Z</time></trkpt><trkpt lat="44.037081610117575" lon="10.656775845078233"><ele>231.0</ele><time>2026-05-01T15:59:47.864Z</time></trkpt><trkpt lat="44.03714253783218" lon="10.656940741815943"><ele>231.0</ele><time>2026-05-01T15:59:48.864Z</time></trkpt><trkpt lat="44.03721228465667" lon="10.65710761927872"><ele>231.0</ele><time>2026-05-01T15:59:49.864Z</time></trkpt><trkpt lat="44.03722550116247" lon="10.657324407224054"><ele>231.0</ele><time>2026-05-01T15:59:50.864Z</time></trkpt><trkpt lat="44.03719237674165" lon="10.65757027654388"><ele>232.66666666666669</ele><time>2026-05-01T15:59:51.864Z</time></trkpt><trkpt lat="44.03715666980267" lon="10.657825006733281"><ele>234.33333333333334</ele><time>2026-05-01T15:59:52.864Z</time></trkpt><trkpt lat="44.037113706416896" lon="10.658035650255755"><ele>236.0</ele><time>2026-05-01T15:59:53.864Z</time></trkpt><trkpt lat="44.03703759032946" lon="10.658203553204014"><ele>236.0</ele><time>2026-05-01T15:59:54.864Z</time></trkpt><trkpt lat="44.03694290885647" lon="10.65833260125738"><ele>236.0</ele><time>2026-05-01T15:59:55.864Z</time></trkpt><trkpt lat="44.03682069233257" lon="10.658419844554501"><ele>236.0</ele><time>2026-05-01T15:59:56.864Z</time></trkpt><trkpt lat="44.03668380286135" lon="10.65844082457937"><ele>236.0</ele><time>2026-05-01T15:59:57.864Z</time></trkpt><trkpt lat="44.03654949134619" lon="10.658427762549053"><ele>236.0</ele><time>2026-05-01T15:59:58.864Z</time></trkpt><trkpt lat="44.036442455867416" lon="10.658440226189988"><ele>236.00000000000003</ele><time>2026-05-01T15:59:59.864Z</time></trkpt><trkpt lat="44.03636570469495" lon="10.658474605071556"><ele>236.00000000000003</ele><time>2026-05-01T16:00:00.864Z</time></trkpt><trkpt lat="44.03630454763399" lon="10.658557482849927"><ele>236.0</ele><time>2026-05-01T16:00:01.864Z</time></trkpt><trkpt lat="44.0362392562964" lon="10.658678891889439"><ele>236.0</ele><time>2026-05-01T16:00:02.864Z</time></trkpt><trkpt lat="44.03617755226645" lon="10.658826496109933"><ele>236.0</ele><time>2026-05-01T16:00:03.864Z</time></trkpt><trkpt lat="44.03611723474389" lon="10.658994101446424"><ele>236.0</ele><time>2026-05-01T16:00:04.864Z</time></trkpt><trkpt lat="44.03608650018696" lon="10.659147393851413"><ele>236.0</ele><time>2026-05-01T16:00:05.864Z</time></trkpt><trkpt lat="44.03607627712194" lon="10.659281530565758"><ele>236.0</ele><time>2026-05-01T16:00:06.864Z</time></trkpt><trkpt lat="44.03610766800663" lon="10.659420751176569"><ele>235.66666666666669</ele><time>2026-05-01T16:00:07.864Z</time></trkpt><trkpt lat="44.036184926307484" lon="10.659566040324087"><ele>235.33333333333331</ele><time>2026-05-01T16:00:08.864Z</time></trkpt><trkpt lat="44.03629428159816" lon="10.659750310825899"><ele>235.0</ele><time>2026-05-01T16:00:09.864Z</time></trkpt><trkpt lat="44.03643395787324" lon="10.65996434080706"><ele>235.0</ele><time>2026-05-01T16:00:10.864Z</time></trkpt><trkpt lat="44.03653540031322" lon="10.660170585580786"><ele>235.0</ele><time>2026-05-01T16:00:11.864Z</time></trkpt><trkpt lat="44.03664953293573" lon="10.660357059890893"><ele>235.0</ele><time>2026-05-01T16:00:12.864Z</time></trkpt><trkpt lat="44.03674810962562" lon="10.660552984142534"><ele>236.0</ele><time>2026-05-01T16:00:13.864Z</time></trkpt><trkpt lat="44.03686038725406" lon="10.660742092271592"><ele>237.0</ele><time>2026-05-01T16:00:14.864Z</time></trkpt><trkpt lat="44.036965259229994" lon="10.660951259591245"><ele>238.0</ele><time>2026-05-01T16:00:15.864Z</time></trkpt><trkpt lat="44.03705982571847" lon="10.661178540371376"><ele>238.0</ele><time>2026-05-01T16:00:16.864Z</time></trkpt><trkpt lat="44.037145937284095" lon="10.661397275522214"><ele>238.0</ele><time>2026-05-01T16:00:17.864Z</time></trkpt><trkpt lat="44.03721999142585" lon="10.661597787321078"><ele>238.0</ele><time>2026-05-01T16:00:18.864Z</time></trkpt><trkpt lat="44.03729514228604" lon="10.661783432833595"><ele>238.5</ele><time>2026-05-01T16:00:19.864Z</time></trkpt><trkpt lat="44.03736844596255" lon="10.661960200202627"><ele>239.0</ele><time>2026-05-01T16:00:20.864Z</time></trkpt><trkpt lat="44.03743755198641" lon="10.662126240189119"><ele>239.5</ele><time>2026-05-01T16:00:21.864Z</time></trkpt><trkpt lat="44.03749286571118" lon="10.66227295419997"><ele>240.0</ele><time>2026-05-01T16:00:22.864Z</time></trkpt><trkpt lat="44.037538917231366" lon="10.662401626335878"><ele>243.2</ele><time>2026-05-01T16:00:23.864Z</time></trkpt><trkpt lat="44.037596301200075" lon="10.662512906664256"><ele>246.4</ele><time>2026-05-01T16:00:24.864Z</time></trkpt><trkpt lat="44.037678774705945" lon="10.662580396794931"><ele>249.60000000000002</ele><time>2026-05-01T16:00:25.864Z</time></trkpt><trkpt lat="44.037769967195516" lon="10.66263583049678"><ele>252.8</ele><time>2026-05-01T16:00:26.864Z</time></trkpt><trkpt lat="44.03790675840856" lon="10.662641480101925"><ele>256.0</ele><time>2026-05-01T16:00:27.864Z</time></trkpt><trkpt lat="44.038076917655545" lon="10.662627759803438"><ele>256.0</ele><time>2026-05-01T16:00:28.864Z</time></trkpt><trkpt lat="44.03828070392861" lon="10.662605509556414"><ele>256.0</ele><time>2026-05-01T16:00:29.864Z</time></trkpt><trkpt lat="44.03851627317558" lon="10.662579789100878"><ele>256.0</ele><time>2026-05-01T16:00:30.864Z</time></trkpt><trkpt lat="44.038753697103466" lon="10.662545824276073"><ele>264.3333333333333</ele><time>2026-05-01T16:00:31.864Z</time></trkpt><trkpt lat="44.03895408336047" lon="10.662581529929337"><ele>272.6666666666667</ele><time>2026-05-01T16:00:32.864Z</time></trkpt><trkpt lat="44.03916980828573" lon="10.662598315726582"><ele>281.0</ele><time>2026-05-01T16:00:33.864Z</time></trkpt><trkpt lat="44.039358827659754" lon="10.66259733442493"><ele>282.6666666666667</ele><time>2026-05-01T16:00:34.864Z</time></trkpt><trkpt lat="44.03958087498392" lon="10.662655196798248"><ele>284.3333333333333</ele><time>2026-05-01T16:00:35.864Z</time></trkpt><trkpt lat="44.0397539183482" lon="10.662755482668405"><ele>286.0</ele><time>2026-05-01T16:00:36.864Z</time></trkpt><trkpt lat="44.03989872938889" lon="10.662767806149107"><ele>286.0</ele><time>2026-05-01T16:00:37.864Z</time></trkpt><trkpt lat="44.04006482045707" lon="10.662879881811895"><ele>286.0</ele><time>2026-05-01T16:00:38.864Z</time></trkpt><trkpt lat="44.04025639999722" lon="10.662999228484152"><ele>286.0</ele><time>2026-05-01T16:00:39.864Z</time></trkpt><trkpt lat="44.04046230340799" lon="10.663141698036716"><ele>286.0</ele><time>2026-05-01T16:00:40.864Z</time></trkpt><trkpt lat="44.04066441430084" lon="10.663292720689105"><ele>286.0</ele><time>2026-05-01T16:00:41.864Z</time></trkpt><trkpt lat="44.04084705146053" lon="10.663413557188914"><ele>286.0</ele><time>2026-05-01T16:00:42.864Z</time></trkpt><trkpt lat="44.041025205804864" lon="10.6635424995143"><ele>285.66666666666663</ele><time>2026-05-01T16:00:43.864Z</time></trkpt><trkpt lat="44.041196006149576" lon="10.663630990418104"><ele>285.3333333333333</ele><time>2026-05-01T16:00:44.864Z</time></trkpt><trkpt lat="44.04136689538778" lon="10.663742562358497"><ele>285.0</ele><time>2026-05-01T16:00:45.864Z</time></trkpt><trkpt lat="44.04155273832374" lon="10.663792225176005"><ele>278.6666666666667</ele><time>2026-05-01T16:00:46.864Z</time></trkpt><trkpt lat="44.041754559995624" lon="10.663857917372226"><ele>272.33333333333337</ele><time>2026-05-01T16:00:47.864Z</time></trkpt><trkpt lat="44.04196450140929" lon="10.663919316000213"><ele>266.0</ele><time>2026-05-01T16:00:48.863Z</time></trkpt><trkpt lat="44.042167849228356" lon="10.663975851545432"><ele>266.0</ele><time>2026-05-01T16:00:49.863Z</time></trkpt><trkpt lat="44.04237498610131" lon="10.664009906311234"><ele>266.0</ele><time>2026-05-01T16:00:50.863Z</time></trkpt><trkpt lat="44.04258264981918" lon="10.66408474037084"><ele>266.0</ele><time>2026-05-01T16:00:51.864Z</time></trkpt><trkpt lat="44.04279191871947" lon="10.664125452076023"><ele>265.33333333333337</ele><time>2026-05-01T16:00:52.863Z</time></trkpt><trkpt lat="44.042984291511196" lon="10.66414997328793"><ele>264.6666666666667</ele><time>2026-05-01T16:00:53.863Z</time></trkpt><trkpt lat="44.043190017211536" lon="10.664172436779845"><ele>264.0</ele><time>2026-05-01T16:00:54.864Z</time></trkpt><trkpt lat="44.04335102881295" lon="10.664191056094133"><ele>266.0</ele><time>2026-05-01T16:00:55.863Z</time></trkpt><trkpt lat="44.04349811742636" lon="10.664209334336702"><ele>268.0</ele><time>2026-05-01T16:00:56.863Z</time></trkpt><trkpt lat="44.043626871526655" lon="10.664242134480668"><ele>270.0</ele><time>2026-05-01T16:00:57.864Z</time></trkpt><trkpt lat="44.0437159838064" lon="10.664299502345841"><ele>272.0</ele><time>2026-05-01T16:00:58.864Z</time></trkpt><trkpt lat="44.04380422352484" lon="10.664386335131868"><ele>273.33333333333337</ele><time>2026-05-01T16:00:59.864Z</time></trkpt><trkpt lat="44.043860200374276" lon="10.664524420162374"><ele>274.6666666666667</ele><time>2026-05-01T16:01:00.864Z</time></trkpt><trkpt lat="44.04390999576094" lon="10.664734345155136"><ele>276.0</ele><time>2026-05-01T16:01:01.864Z</time></trkpt><trkpt lat="44.043976726745115" lon="10.665014114857437"><ele>287.3333333333333</ele><time>2026-05-01T16:01:02.864Z</time></trkpt><trkpt lat="44.04404497554988" lon="10.6653024627183"><ele>298.66666666666663</ele><time>2026-05-01T16:01:03.864Z</time></trkpt><trkpt lat="44.04409808783216" lon="10.665542228958282"><ele>310.0</ele><time>2026-05-01T16:01:04.864Z</time></trkpt><trkpt lat="44.044112650981276" lon="10.665735426173555"><ele>310.0</ele><time>2026-05-01T16:01:05.864Z</time></trkpt><trkpt lat="44.044103962524765" lon="10.665940331453104"><ele>310.0</ele><time>2026-05-01T16:01:06.864Z</time></trkpt><trkpt lat="44.04410987403914" lon="10.666193672103295"><ele>310.0</ele><time>2026-05-01T16:01:07.864Z</time></trkpt><trkpt lat="44.044181459515904" lon="10.66647743135481"><ele>298.3333333333333</ele><time>2026-05-01T16:01:08.864Z</time></trkpt><trkpt lat="44.04426962635701" lon="10.666738349032626"><ele>286.6666666666667</ele><time>2026-05-01T16:01:09.864Z</time></trkpt><trkpt lat="44.044363230786026" lon="10.667016637936639"><ele>275.0</ele><time>2026-05-01T16:01:10.864Z</time></trkpt><trkpt lat="44.04445868158263" lon="10.667315326372405"><ele>275.0</ele><time>2026-05-01T16:01:11.864Z</time></trkpt><trkpt lat="44.044552852391355" lon="10.66762730491934"><ele>275.0</ele><time>2026-05-01T16:01:12.864Z</time></trkpt><trkpt lat="44.0446285039716" lon="10.66793595850714"><ele>280.0</ele><time>2026-05-01T16:01:13.864Z</time></trkpt><trkpt lat="44.04467228208194" lon="10.668229903292938"><ele>285.0</ele><time>2026-05-01T16:01:14.864Z</time></trkpt><trkpt lat="44.044687705495235" lon="10.668530724801853"><ele>290.0</ele><time>2026-05-01T16:01:15.864Z</time></trkpt><trkpt lat="44.04466959542194" lon="10.668830404172153"><ele>290.0</ele><time>2026-05-01T16:01:16.864Z</time></trkpt><trkpt lat="44.04463381457038" lon="10.669129690062887"><ele>290.0</ele><time>2026-05-01T16:01:17.864Z</time></trkpt><trkpt lat="44.04457894676484" lon="10.669431284555737"><ele>290.0</ele><time>2026-05-01T16:01:18.864Z</time></trkpt><trkpt lat="44.04448460672108" lon="10.669737490106312"><ele>287.0</ele><time>2026-05-01T16:01:19.864Z</time></trkpt><trkpt lat="44.04436071891052" lon="10.670102262550035"><ele>284.0</ele><time>2026-05-01T16:01:20.864Z</time></trkpt><trkpt lat="44.044264773069116" lon="10.670472785021868"><ele>282.5</ele><time>2026-05-01T16:01:21.864Z</time></trkpt><trkpt lat="44.04417507742998" lon="10.670824174296508"><ele>281.0</ele><time>2026-05-01T16:01:22.864Z</time></trkpt><trkpt lat="44.04407775796023" lon="10.6711988068173"><ele>279.0</ele><time>2026-05-01T16:01:23.864Z</time></trkpt><trkpt lat="44.04398488627493" lon="10.671556317139624"><ele>277.0</ele><time>2026-05-01T16:01:24.864Z</time></trkpt><trkpt lat="44.043903803123044" lon="10.671868447688098"><ele>274.3333333333333</ele><time>2026-05-01T16:01:25.864Z</time></trkpt><trkpt lat="44.04382892898464" lon="10.672157199707794"><ele>271.6666666666667</ele><time>2026-05-01T16:01:26.864Z</time></trkpt><trkpt lat="44.04376011475766" lon="10.672421582160354"><ele>269.0</ele><time>2026-05-01T16:01:27.864Z</time></trkpt><trkpt lat="44.04369299949217" lon="10.672679437526568"><ele>270.0</ele><time>2026-05-01T16:01:28.864Z</time></trkpt><trkpt lat="44.04362486140519" lon="10.672940201244945"><ele>271.0</ele><time>2026-05-01T16:01:29.864Z</time></trkpt><trkpt lat="44.04356047875169" lon="10.673186164495505"><ele>272.0</ele><time>2026-05-01T16:01:30.864Z</time></trkpt><trkpt lat="44.04350154374345" lon="10.673405229468921"><ele>274.0</ele><time>2026-05-01T16:01:31.864Z</time></trkpt><trkpt lat="44.04344270568099" lon="10.673616353014662"><ele>276.0</ele><time>2026-05-01T16:01:32.864Z</time></trkpt><trkpt lat="44.04338397887076" lon="10.673807191575698"><ele>278.0</ele><time>2026-05-01T16:01:33.864Z</time></trkpt><trkpt lat="44.043307026322175" lon="10.673988431171733"><ele>277.0</ele><time>2026-05-01T16:01:34.864Z</time></trkpt><trkpt lat="44.04320605053156" lon="10.674167190784123"><ele>276.0</ele><time>2026-05-01T16:01:35.864Z</time></trkpt><trkpt lat="44.04308931009488" lon="10.674353900344316"><ele>275.0</ele><time>2026-05-01T16:01:36.864Z</time></trkpt><trkpt lat="44.04297195284602" lon="10.674566670679674"><ele>275.0</ele><time>2026-05-01T16:01:37.864Z</time></trkpt><trkpt lat="44.04285239218899" lon="10.67474696888197"><ele>275.0</ele><time>2026-05-01T16:01:38.864Z</time></trkpt><trkpt lat="44.04273187817329" lon="10.674956353805031"><ele>275.0</ele><time>2026-05-01T16:01:39.864Z</time></trkpt><trkpt lat="44.042608239025846" lon="10.675176471890833"><ele>275.6666666666667</ele><time>2026-05-01T16:01:40.864Z</time></trkpt><trkpt lat="44.04252393961963" lon="10.675438257178632"><ele>276.3333333333333</ele><time>2026-05-01T16:01:41.864Z</time></trkpt><trkpt lat="44.04244495391469" lon="10.67570755778975"><ele>277.0</ele><time>2026-05-01T16:01:42.864Z</time></trkpt><trkpt lat="44.04236432382917" lon="10.67596631275673"><ele>277.3333333333333</ele><time>2026-05-01T16:01:43.864Z</time></trkpt><trkpt lat="44.04231748642889" lon="10.676236444203507"><ele>277.6666666666667</ele><time>2026-05-01T16:01:44.864Z</time></trkpt><trkpt lat="44.04231306737113" lon="10.676517289510532"><ele>278.0</ele><time>2026-05-01T16:01:45.864Z</time></trkpt><trkpt lat="44.04229408642838" lon="10.676805103804574"><ele>277.33333333333337</ele><time>2026-05-01T16:01:46.864Z</time></trkpt><trkpt lat="44.04231793310951" lon="10.677082567935535"><ele>276.6666666666667</ele><time>2026-05-01T16:01:47.864Z</time></trkpt><trkpt lat="44.04235445738916" lon="10.677364661166466"><ele>276.0</ele><time>2026-05-01T16:01:48.864Z</time></trkpt><trkpt lat="44.042405814664534" lon="10.677650690607473"><ele>277.3333333333333</ele><time>2026-05-01T16:01:49.864Z</time></trkpt><trkpt lat="44.04247730497005" lon="10.677935392420267"><ele>278.66666666666663</ele><time>2026-05-01T16:01:50.864Z</time></trkpt><trkpt lat="44.04255898954164" lon="10.678217036619959"><ele>280.0</ele><time>2026-05-01T16:01:51.864Z</time></trkpt><trkpt lat="44.04264250773024" lon="10.678500032484337"><ele>280.0</ele><time>2026-05-01T16:01:52.864Z</time></trkpt><trkpt lat="44.042728908135935" lon="10.6787924435947"><ele>280.0</ele><time>2026-05-01T16:01:53.864Z</time></trkpt><trkpt lat="44.042812137346566" lon="10.679084590190282"><ele>280.0</ele><time>2026-05-01T16:01:54.864Z</time></trkpt><trkpt lat="44.04289714874978" lon="10.679358392644492"><ele>280.0</ele><time>2026-05-01T16:01:55.864Z</time></trkpt><trkpt lat="44.04297969630036" lon="10.67963215211428"><ele>280.0</ele><time>2026-05-01T16:01:56.864Z</time></trkpt><trkpt lat="44.04305370045109" lon="10.679889679395835"><ele>281.66666666666663</ele><time>2026-05-01T16:01:57.864Z</time></trkpt><trkpt lat="44.04313554541046" lon="10.680103146307097"><ele>283.3333333333333</ele><time>2026-05-01T16:01:58.864Z</time></trkpt><trkpt lat="44.043235150045334" lon="10.680300740360344"><ele>285.0</ele><time>2026-05-01T16:01:59.864Z</time></trkpt><trkpt lat="44.04333228939499" lon="10.680480796072548"><ele>288.3333333333333</ele><time>2026-05-01T16:02:00.864Z</time></trkpt><trkpt lat="44.04343811509225" lon="10.680672296661362"><ele>291.66666666666663</ele><time>2026-05-01T16:02:01.864Z</time></trkpt><trkpt lat="44.04350419812287" lon="10.680909873219164"><ele>295.0</ele><time>2026-05-01T16:02:02.864Z</time></trkpt><trkpt lat="44.043536172775724" lon="10.681154024501456"><ele>295.0</ele><time>2026-05-01T16:02:03.864Z</time></trkpt><trkpt lat="44.04355809738024" lon="10.681392763771788"><ele>295.0</ele><time>2026-05-01T16:02:04.864Z</time></trkpt><trkpt lat="44.04356829322664" lon="10.681632213964695"><ele>295.0</ele><time>2026-05-01T16:02:05.864Z</time></trkpt><trkpt lat="44.043534267767164" lon="10.68189258924727"><ele>294.0</ele><time>2026-05-01T16:02:06.864Z</time></trkpt><trkpt lat="44.04347300769257" lon="10.682146597993851"><ele>293.0</ele><time>2026-05-01T16:02:07.864Z</time></trkpt><trkpt lat="44.04341985933059" lon="10.682412169783971"><ele>292.0</ele><time>2026-05-01T16:02:08.864Z</time></trkpt><trkpt lat="44.04337046255367" lon="10.68272798399302"><ele>294.5</ele><time>2026-05-01T16:02:09.864Z</time></trkpt><trkpt lat="44.04333149531269" lon="10.683041084306018"><ele>297.0</ele><time>2026-05-01T16:02:10.864Z</time></trkpt><trkpt lat="44.04329266072076" lon="10.683350052035847"><ele>296.0</ele><time>2026-05-01T16:02:11.864Z</time></trkpt><trkpt lat="44.043251807650066" lon="10.683656203472696"><ele>295.0</ele><time>2026-05-01T16:02:12.864Z</time></trkpt><trkpt lat="44.043212034298065" lon="10.683953306794617"><ele>294.0</ele><time>2026-05-01T16:02:13.864Z</time></trkpt><trkpt lat="44.0431696533433" lon="10.684239957978672"><ele>294.0</ele><time>2026-05-01T16:02:14.864Z</time></trkpt><trkpt lat="44.04312080085151" lon="10.684526903897126"><ele>294.0</ele><time>2026-05-01T16:02:15.864Z</time></trkpt><trkpt lat="44.04307686171554" lon="10.684807527919704"><ele>294.0</ele><time>2026-05-01T16:02:16.864Z</time></trkpt><trkpt lat="44.04303072693927" lon="10.685089759447987"><ele>292.6666666666667</ele><time>2026-05-01T16:02:17.864Z</time></trkpt><trkpt lat="44.042982870107245" lon="10.68537807365019"><ele>291.33333333333337</ele><time>2026-05-01T16:02:18.864Z</time></trkpt><trkpt lat="44.04294899647645" lon="10.685660260825436"><ele>290.0</ele><time>2026-05-01T16:02:19.864Z</time></trkpt><trkpt lat="44.04291224765519" lon="10.685928203479104"><ele>292.0</ele><time>2026-05-01T16:02:20.864Z</time></trkpt><trkpt lat="44.042859698051714" lon="10.686169011309671"><ele>294.0</ele><time>2026-05-01T16:02:21.864Z</time></trkpt><trkpt lat="44.042796081682184" lon="10.686420403336076"><ele>296.0</ele><time>2026-05-01T16:02:22.864Z</time></trkpt><trkpt lat="44.04271958821445" lon="10.68668466676981"><ele>296.6666666666667</ele><time>2026-05-01T16:02:23.864Z</time></trkpt><trkpt lat="44.042641178714554" lon="10.68694891837947"><ele>297.3333333333333</ele><time>2026-05-01T16:02:24.864Z</time></trkpt><trkpt lat="44.042567111942155" lon="10.68721586955668"><ele>298.0</ele><time>2026-05-01T16:02:25.864Z</time></trkpt><trkpt lat="44.042509941727246" lon="10.687487882651277"><ele>296.0</ele><time>2026-05-01T16:02:26.864Z</time></trkpt><trkpt lat="44.04245002603598" lon="10.687714810326339"><ele>294.0</ele><time>2026-05-01T16:02:27.864Z</time></trkpt><trkpt lat="44.04240538108407" lon="10.687936422255046"><ele>292.0</ele><time>2026-05-01T16:02:28.864Z</time></trkpt><trkpt lat="44.04238046340401" lon="10.68813635444395"><ele>292.0</ele><time>2026-05-01T16:02:29.864Z</time></trkpt><trkpt lat="44.04237790092864" lon="10.68834779248231"><ele>292.0</ele><time>2026-05-01T16:02:30.864Z</time></trkpt><trkpt lat="44.042415271418335" lon="10.68856405465876"><ele>292.0</ele><time>2026-05-01T16:02:31.864Z</time></trkpt><trkpt lat="44.04248025341658" lon="10.688753867617788"><ele>293.3333333333333</ele><time>2026-05-01T16:02:32.864Z</time></trkpt><trkpt lat="44.04258339462046" lon="10.688934473936511"><ele>294.6666666666667</ele><time>2026-05-01T16:02:33.864Z</time></trkpt><trkpt lat="44.042704969237676" lon="10.689094030918566"><ele>296.0</ele><time>2026-05-01T16:02:34.864Z</time></trkpt><trkpt lat="44.04284626245862" lon="10.689228114010762"><ele>296.0</ele><time>2026-05-01T16:02:35.864Z</time></trkpt><trkpt lat="44.04298273652447" lon="10.689361819082952"><ele>296.0</ele><time>2026-05-01T16:02:36.864Z</time></trkpt><trkpt lat="44.043112303303374" lon="10.689508777606408"><ele>296.0</ele><time>2026-05-01T16:02:37.864Z</time></trkpt><trkpt lat="44.04323265824043" lon="10.689684908765344"><ele>296.0</ele><time>2026-05-01T16:02:38.864Z</time></trkpt><trkpt lat="44.04333141761563" lon="10.689893199944395"><ele>296.0</ele><time>2026-05-01T16:02:39.864Z</time></trkpt><trkpt lat="44.043424356056796" lon="10.690099379582847"><ele>296.0</ele><time>2026-05-01T16:02:40.864Z</time></trkpt><trkpt lat="44.04353352122588" lon="10.690260648508195"><ele>296.33333333333337</ele><time>2026-05-01T16:02:41.865Z</time></trkpt><trkpt lat="44.04365767817749" lon="10.690375132983247"><ele>296.6666666666667</ele><time>2026-05-01T16:02:42.865Z</time></trkpt><trkpt lat="44.043812564149086" lon="10.690453767192015"><ele>297.0</ele><time>2026-05-01T16:02:43.865Z</time></trkpt><trkpt lat="44.04402342746713" lon="10.690518552399723"><ele>299.0</ele><time>2026-05-01T16:02:44.865Z</time></trkpt><trkpt lat="44.04424683725545" lon="10.690599671407064"><ele>301.0</ele><time>2026-05-01T16:02:45.865Z</time></trkpt><trkpt lat="44.04445843499404" lon="10.690721865257427"><ele>301.0</ele><time>2026-05-01T16:02:46.865Z</time></trkpt><trkpt lat="44.044678491637775" lon="10.690897124363055"><ele>301.0</ele><time>2026-05-01T16:02:47.865Z</time></trkpt><trkpt lat="44.04489819116155" lon="10.691068356935153"><ele>301.0</ele><time>2026-05-01T16:02:48.865Z</time></trkpt><trkpt lat="44.04510789201299" lon="10.691212311324513"><ele>301.0</ele><time>2026-05-01T16:02:49.865Z</time></trkpt><trkpt lat="44.04527394245733" lon="10.691368295168576"><ele>301.0</ele><time>2026-05-01T16:02:50.865Z</time></trkpt><trkpt lat="44.04542534633966" lon="10.691540224725802"><ele>301.0</ele><time>2026-05-01T16:02:51.865Z</time></trkpt><trkpt lat="44.04558362321536" lon="10.69173815593097"><ele>301.0</ele><time>2026-05-01T16:02:52.865Z</time></trkpt><trkpt lat="44.04571366046855" lon="10.691977279789702"><ele>301.0</ele><time>2026-05-01T16:02:53.865Z</time></trkpt><trkpt lat="44.04584495802556" lon="10.692205078727563"><ele>303.3333333333333</ele><time>2026-05-01T16:02:54.865Z</time></trkpt><trkpt lat="44.04597804250075" lon="10.692416972726743"><ele>305.6666666666667</ele><time>2026-05-01T16:02:55.864Z</time></trkpt><trkpt lat="44.04609940944099" lon="10.692581111121873"><ele>308.0</ele><time>2026-05-01T16:02:56.864Z</time></trkpt><trkpt lat="44.04622856440734" lon="10.692736335598331"><ele>307.0</ele><time>2026-05-01T16:02:57.865Z</time></trkpt><trkpt lat="44.04634985628741" lon="10.69286473821136"><ele>306.0</ele><time>2026-05-01T16:02:58.864Z</time></trkpt><trkpt lat="44.04641734304533" lon="10.693023295393157"><ele>305.0</ele><time>2026-05-01T16:02:59.864Z</time></trkpt><trkpt lat="44.04643983671419" lon="10.693212222769223"><ele>304.0</ele><time>2026-05-01T16:03:00.865Z</time></trkpt><trkpt lat="44.04642463848318" lon="10.69342330678792"><ele>305.66666666666663</ele><time>2026-05-01T16:03:01.864Z</time></trkpt><trkpt lat="44.04635057421282" lon="10.693640835714316"><ele>307.3333333333333</ele><time>2026-05-01T16:03:02.864Z</time></trkpt><trkpt lat="44.046277330469856" lon="10.693868943044857"><ele>309.0</ele><time>2026-05-01T16:03:03.864Z</time></trkpt><trkpt lat="44.04622496529949" lon="10.69407508276715"><ele>309.0</ele><time>2026-05-01T16:03:04.865Z</time></trkpt><trkpt lat="44.046156678973894" lon="10.694311994133269"><ele>309.0</ele><time>2026-05-01T16:03:05.865Z</time></trkpt><trkpt lat="44.04609182129163" lon="10.69455854492082"><ele>309.0</ele><time>2026-05-01T16:03:06.864Z</time></trkpt><trkpt lat="44.0460428181179" lon="10.694832519205493"><ele>310.0</ele><time>2026-05-01T16:03:07.864Z</time></trkpt><trkpt lat="44.04602417948687" lon="10.695122054826737"><ele>311.0</ele><time>2026-05-01T16:03:08.864Z</time></trkpt><trkpt lat="44.0460276542383" lon="10.695412827068132"><ele>312.0</ele><time>2026-05-01T16:03:09.864Z</time></trkpt><trkpt lat="44.04603420335132" lon="10.695687546198037"><ele>312.0</ele><time>2026-05-01T16:03:10.864Z</time></trkpt><trkpt lat="44.046050583303526" lon="10.695979455064116"><ele>312.0</ele><time>2026-05-01T16:03:11.864Z</time></trkpt><trkpt lat="44.046068724367615" lon="10.696268632248573"><ele>312.0</ele><time>2026-05-01T16:03:12.864Z</time></trkpt><trkpt lat="44.04608516335281" lon="10.696579805152105"><ele>311.0</ele><time>2026-05-01T16:03:13.864Z</time></trkpt><trkpt lat="44.046093652460755" lon="10.6968582717199"><ele>310.0</ele><time>2026-05-01T16:03:14.864Z</time></trkpt><trkpt lat="44.046086252137826" lon="10.697140724922411"><ele>309.0</ele><time>2026-05-01T16:03:15.864Z</time></trkpt><trkpt lat="44.046031743341416" lon="10.697416696405817"><ele>309.0</ele><time>2026-05-01T16:03:16.864Z</time></trkpt><trkpt lat="44.045963123560355" lon="10.697704104125712"><ele>309.0</ele><time>2026-05-01T16:03:17.864Z</time></trkpt><trkpt lat="44.04588918142794" lon="10.697991958361026"><ele>309.0</ele><time>2026-05-01T16:03:18.864Z</time></trkpt><trkpt lat="44.04581293772542" lon="10.698273246539935"><ele>314.6666666666667</ele><time>2026-05-01T16:03:19.864Z</time></trkpt><trkpt lat="44.04574165131367" lon="10.698549214933685"><ele>320.33333333333337</ele><time>2026-05-01T16:03:20.864Z</time></trkpt><trkpt lat="44.04568071586972" lon="10.698801960316045"><ele>326.0</ele><time>2026-05-01T16:03:21.864Z</time></trkpt><trkpt lat="44.04564691717065" lon="10.699026117176931"><ele>326.33333333333337</ele><time>2026-05-01T16:03:22.864Z</time></trkpt><trkpt lat="44.04564292801609" lon="10.699233686324309"><ele>326.6666666666667</ele><time>2026-05-01T16:03:23.864Z</time></trkpt><trkpt lat="44.045660246897185" lon="10.699459585076132"><ele>327.0</ele><time>2026-05-01T16:03:24.864Z</time></trkpt><trkpt lat="44.04570135600246" lon="10.699701297814613"><ele>327.6666666666667</ele><time>2026-05-01T16:03:25.864Z</time></trkpt><trkpt lat="44.045715791745614" lon="10.699962221526519"><ele>328.33333333333337</ele><time>2026-05-01T16:03:26.864Z</time></trkpt><trkpt lat="44.04569954254797" lon="10.700239805955727"><ele>329.0</ele><time>2026-05-01T16:03:27.864Z</time></trkpt><trkpt lat="44.04566544133174" lon="10.70055239303776"><ele>331.0</ele><time>2026-05-01T16:03:28.864Z</time></trkpt><trkpt lat="44.04561100807065" lon="10.70087092442555"><ele>333.0</ele><time>2026-05-01T16:03:29.864Z</time></trkpt><trkpt lat="44.04557178048448" lon="10.70119370312167"><ele>333.3333333333333</ele><time>2026-05-01T16:03:30.864Z</time></trkpt><trkpt lat="44.04555494283553" lon="10.701499929320864"><ele>333.66666666666663</ele><time>2026-05-01T16:03:31.864Z</time></trkpt><trkpt lat="44.04553904860559" lon="10.701781823519847"><ele>334.0</ele><time>2026-05-01T16:03:32.864Z</time></trkpt><trkpt lat="44.045518104957786" lon="10.702037971098513"><ele>332.3333333333333</ele><time>2026-05-01T16:03:33.864Z</time></trkpt><trkpt lat="44.04546586463973" lon="10.702277911813878"><ele>330.6666666666667</ele><time>2026-05-01T16:03:34.864Z</time></trkpt><trkpt lat="44.04536191877566" lon="10.70252682413755"><ele>329.0</ele><time>2026-05-01T16:03:35.865Z</time></trkpt><trkpt lat="44.0452282062057" lon="10.702758076873367"><ele>330.6666666666667</ele><time>2026-05-01T16:03:36.865Z</time></trkpt><trkpt lat="44.04508765248654" lon="10.70296908274016"><ele>332.3333333333333</ele><time>2026-05-01T16:03:37.865Z</time></trkpt><trkpt lat="44.04495742877628" lon="10.703202218834202"><ele>334.0</ele><time>2026-05-01T16:03:38.865Z</time></trkpt><trkpt lat="44.04480863368158" lon="10.70342801983101"><ele>332.0</ele><time>2026-05-01T16:03:39.865Z</time></trkpt><trkpt lat="44.04465445463622" lon="10.703643241399586"><ele>330.0</ele><time>2026-05-01T16:03:40.865Z</time></trkpt><trkpt lat="44.04449223131119" lon="10.70384004614767"><ele>328.0</ele><time>2026-05-01T16:03:41.865Z</time></trkpt><trkpt lat="44.04433736899703" lon="10.704042896248234"><ele>328.0</ele><time>2026-05-01T16:03:42.865Z</time></trkpt><trkpt lat="44.044210294201584" lon="10.704269702667482"><ele>328.0</ele><time>2026-05-01T16:03:43.865Z</time></trkpt><trkpt lat="44.04409236604631" lon="10.704506210200721"><ele>328.0</ele><time>2026-05-01T16:03:44.865Z</time></trkpt><trkpt lat="44.043975193825474" lon="10.704756795073603"><ele>327.66666666666663</ele><time>2026-05-01T16:03:45.865Z</time></trkpt><trkpt lat="44.04386703561046" lon="10.705004369602879"><ele>327.3333333333333</ele><time>2026-05-01T16:03:46.865Z</time></trkpt><trkpt lat="44.04375302998319" lon="10.705221624190186"><ele>327.0</ele><time>2026-05-01T16:03:47.865Z</time></trkpt><trkpt lat="44.04365631622822" lon="10.70542518823907"><ele>327.3333333333333</ele><time>2026-05-01T16:03:48.865Z</time></trkpt><trkpt lat="44.04357590147468" lon="10.705639244487893"><ele>327.66666666666663</ele><time>2026-05-01T16:03:49.865Z</time></trkpt><trkpt lat="44.04351292591342" lon="10.705882317590675"><ele>328.0</ele><time>2026-05-01T16:03:50.865Z</time></trkpt><trkpt lat="44.04346841111543" lon="10.706137700559898"><ele>328.0</ele><time>2026-05-01T16:03:51.865Z</time></trkpt><trkpt lat="44.04341771918718" lon="10.706407825490679"><ele>328.0</ele><time>2026-05-01T16:03:52.865Z</time></trkpt><trkpt lat="44.043364196483154" lon="10.706702492696943"><ele>328.0</ele><time>2026-05-01T16:03:53.865Z</time></trkpt><trkpt lat="44.043309103213716" lon="10.707000016542151"><ele>326.0</ele><time>2026-05-01T16:03:54.865Z</time></trkpt><trkpt lat="44.04324374947746" lon="10.707272425277027"><ele>324.0</ele><time>2026-05-01T16:03:55.865Z</time></trkpt><trkpt lat="44.043180657206186" lon="10.707540617912725"><ele>322.0</ele><time>2026-05-01T16:03:56.865Z</time></trkpt><trkpt lat="44.04313037549937" lon="10.70779841283472"><ele>321.0</ele><time>2026-05-01T16:03:57.865Z</time></trkpt><trkpt lat="44.04309334276657" lon="10.708071960395033"><ele>320.0</ele><time>2026-05-01T16:03:58.865Z</time></trkpt><trkpt lat="44.04307628722188" lon="10.708354091734236"><ele>319.0</ele><time>2026-05-01T16:03:59.865Z</time></trkpt><trkpt lat="44.043076050400295" lon="10.708651863395353"><ele>318.66666666666663</ele><time>2026-05-01T16:04:00.865Z</time></trkpt><trkpt lat="44.04309859071724" lon="10.70895797812018"><ele>318.3333333333333</ele><time>2026-05-01T16:04:01.865Z</time></trkpt><trkpt lat="44.04310765884606" lon="10.709273339504444"><ele>318.0</ele><time>2026-05-01T16:04:02.865Z</time></trkpt><trkpt lat="44.043116090149695" lon="10.70959042676994"><ele>319.5</ele><time>2026-05-01T16:04:03.865Z</time></trkpt><trkpt lat="44.04311700359901" lon="10.709915997847903"><ele>321.0</ele><time>2026-05-01T16:04:04.865Z</time></trkpt><trkpt lat="44.04312355588875" lon="10.71022929239061"><ele>328.0</ele><time>2026-05-01T16:04:05.865Z</time></trkpt><trkpt lat="44.0431350640363" lon="10.710559487640422"><ele>335.0</ele><time>2026-05-01T16:04:06.865Z</time></trkpt><trkpt lat="44.04313362158418" lon="10.71089307542071"><ele>337.6666666666667</ele><time>2026-05-01T16:04:07.865Z</time></trkpt><trkpt lat="44.043137085990864" lon="10.711207640340843"><ele>340.3333333333333</ele><time>2026-05-01T16:04:08.865Z</time></trkpt><trkpt lat="44.04314686181318" lon="10.711506342555815"><ele>343.0</ele><time>2026-05-01T16:04:09.865Z</time></trkpt><trkpt lat="44.04315746851626" lon="10.711777368190626"><ele>343.0</ele><time>2026-05-01T16:04:10.865Z</time></trkpt><trkpt lat="44.04317111155052" lon="10.712034084329227"><ele>343.0</ele><time>2026-05-01T16:04:11.865Z</time></trkpt><trkpt lat="44.04319192315445" lon="10.712295896247822"><ele>343.0</ele><time>2026-05-01T16:04:12.865Z</time></trkpt><trkpt lat="44.04321827882377" lon="10.712556204463803"><ele>343.66666666666663</ele><time>2026-05-01T16:04:13.865Z</time></trkpt><trkpt lat="44.04327876463739" lon="10.712834448719356"><ele>344.3333333333333</ele><time>2026-05-01T16:04:14.865Z</time></trkpt><trkpt lat="44.04334930375813" lon="10.713093285721305"><ele>345.0</ele><time>2026-05-01T16:04:15.865Z</time></trkpt><trkpt lat="44.04345034267241" lon="10.713359378878339"><ele>340.6666666666667</ele><time>2026-05-01T16:04:16.865Z</time></trkpt><trkpt lat="44.043571049479404" lon="10.713620524082101"><ele>336.33333333333337</ele><time>2026-05-01T16:04:17.865Z</time></trkpt><trkpt lat="44.043682845331325" lon="10.713877409753014"><ele>332.0</ele><time>2026-05-01T16:04:18.865Z</time></trkpt><trkpt lat="44.043794680682176" lon="10.714137792622488"><ele>332.0</ele><time>2026-05-01T16:04:19.865Z</time></trkpt><trkpt lat="44.04390345767894" lon="10.714407421937466"><ele>332.0</ele><time>2026-05-01T16:04:20.865Z</time></trkpt><trkpt lat="44.04400579656856" lon="10.714677031562122"><ele>332.0</ele><time>2026-05-01T16:04:21.865Z</time></trkpt><trkpt lat="44.04411570317776" lon="10.714938210369688"><ele>332.0</ele><time>2026-05-01T16:04:22.865Z</time></trkpt><trkpt lat="44.044225543013894" lon="10.71520328287671"><ele>332.0</ele><time>2026-05-01T16:04:23.865Z</time></trkpt><trkpt lat="44.04434076442404" lon="10.715465088968543"><ele>332.0</ele><time>2026-05-01T16:04:24.865Z</time></trkpt><trkpt lat="44.04444991505618" lon="10.71573016478725"><ele>332.0</ele><time>2026-05-01T16:04:25.865Z</time></trkpt><trkpt lat="44.04455345526957" lon="10.715997964355312"><ele>332.0</ele><time>2026-05-01T16:04:26.865Z</time></trkpt><trkpt lat="44.04464099793449" lon="10.716263698774624"><ele>332.0</ele><time>2026-05-01T16:04:27.865Z</time></trkpt><trkpt lat="44.04470558558523" lon="10.716529940920017"><ele>332.0</ele><time>2026-05-01T16:04:28.865Z</time></trkpt><trkpt lat="44.04475251272041" lon="10.716797079165575"><ele>332.0</ele><time>2026-05-01T16:04:29.865Z</time></trkpt><trkpt lat="44.04478550250594" lon="10.717069758778713"><ele>332.0</ele><time>2026-05-01T16:04:30.865Z</time></trkpt><trkpt lat="44.04479257424626" lon="10.717339108794066"><ele>333.0</ele><time>2026-05-01T16:04:31.865Z</time></trkpt><trkpt lat="44.044780915361144" lon="10.717615262284246"><ele>334.0</ele><time>2026-05-01T16:04:32.865Z</time></trkpt><trkpt lat="44.044737946968645" lon="10.717884159459485"><ele>335.0</ele><time>2026-05-01T16:04:33.865Z</time></trkpt><trkpt lat="44.0446714786212" lon="10.718150959366351"><ele>336.6666666666667</ele><time>2026-05-01T16:04:34.865Z</time></trkpt><trkpt lat="44.04457797364255" lon="10.718403414094658"><ele>338.3333333333333</ele><time>2026-05-01T16:04:35.865Z</time></trkpt><trkpt lat="44.0444656157511" lon="10.718638072491101"><ele>340.0</ele><time>2026-05-01T16:04:36.865Z</time></trkpt><trkpt lat="44.04435061939239" lon="10.718862717744997"><ele>340.3333333333333</ele><time>2026-05-01T16:04:37.865Z</time></trkpt><trkpt lat="44.04422277708136" lon="10.719087913397093"><ele>340.6666666666667</ele><time>2026-05-01T16:04:38.865Z</time></trkpt><trkpt lat="44.04410109876841" lon="10.719319874077614"><ele>341.0</ele><time>2026-05-01T16:04:39.865Z</time></trkpt><trkpt lat="44.04399886723368" lon="10.719535765107816"><ele>341.0</ele><time>2026-05-01T16:04:40.865Z</time></trkpt><trkpt lat="44.04389091803406" lon="10.719744782485455"><ele>341.0</ele><time>2026-05-01T16:04:41.865Z</time></trkpt><trkpt lat="44.04379302453451" lon="10.719955547498127"><ele>341.0</ele><time>2026-05-01T16:04:42.865Z</time></trkpt><trkpt lat="44.043705721340885" lon="10.720170820592376"><ele>340.6666666666667</ele><time>2026-05-01T16:04:43.865Z</time></trkpt><trkpt lat="44.04364043090614" lon="10.720389405930383"><ele>340.3333333333333</ele><time>2026-05-01T16:04:44.865Z</time></trkpt><trkpt lat="44.04360260387616" lon="10.72063929236337"><ele>340.0</ele><time>2026-05-01T16:04:45.865Z</time></trkpt><trkpt lat="44.04357220683878" lon="10.720887475414346"><ele>344.3333333333333</ele><time>2026-05-01T16:04:46.865Z</time></trkpt><trkpt lat="44.04353697088682" lon="10.721102388233536"><ele>348.6666666666667</ele><time>2026-05-01T16:04:47.865Z</time></trkpt><trkpt lat="44.04345255945699" lon="10.721314214221767"><ele>353.0</ele><time>2026-05-01T16:04:48.865Z</time></trkpt><trkpt lat="44.04330417196042" lon="10.721572598223592"><ele>349.5</ele><time>2026-05-01T16:04:49.865Z</time></trkpt><trkpt lat="44.04316754165603" lon="10.721863503733106"><ele>346.0</ele><time>2026-05-01T16:04:50.865Z</time></trkpt><trkpt lat="44.04301337798121" lon="10.722172764777765"><ele>346.0</ele><time>2026-05-01T16:04:51.865Z</time></trkpt><trkpt lat="44.04287211406459" lon="10.722474037045297"><ele>346.0</ele><time>2026-05-01T16:04:52.865Z</time></trkpt><trkpt lat="44.042738511761094" lon="10.722728548752414"><ele>342.66666666666663</ele><time>2026-05-01T16:04:53.865Z</time></trkpt><trkpt lat="44.042628334882494" lon="10.722981003919044"><ele>339.3333333333333</ele><time>2026-05-01T16:04:54.865Z</time></trkpt><trkpt lat="44.04252941486805" lon="10.72322956450813"><ele>336.0</ele><time>2026-05-01T16:04:55.865Z</time></trkpt><trkpt lat="44.04242818073405" lon="10.723484058648149"><ele>339.3333333333333</ele><time>2026-05-01T16:04:56.865Z</time></trkpt><trkpt lat="44.042334560006054" lon="10.723751080016108"><ele>342.66666666666663</ele><time>2026-05-01T16:04:57.865Z</time></trkpt><trkpt lat="44.042249546297505" lon="10.724015987612681"><ele>346.0</ele><time>2026-05-01T16:04:58.865Z</time></trkpt><trkpt lat="44.04216398817697" lon="10.724277160616374"><ele>351.3333333333333</ele><time>2026-05-01T16:04:59.865Z</time></trkpt><trkpt lat="44.04207552423087" lon="10.72453290720252"><ele>356.6666666666667</ele><time>2026-05-01T16:05:00.866Z</time></trkpt><trkpt lat="44.04198700068581" lon="10.72476115164806"><ele>362.0</ele><time>2026-05-01T16:05:01.866Z</time></trkpt><trkpt lat="44.04187356969203" lon="10.724990028932393"><ele>362.0</ele><time>2026-05-01T16:05:02.866Z</time></trkpt><trkpt lat="44.04173597261491" lon="10.725206455288106"><ele>362.0</ele><time>2026-05-01T16:05:03.866Z</time></trkpt><trkpt lat="44.04159687875772" lon="10.725401662125723"><ele>362.0</ele><time>2026-05-01T16:05:04.866Z</time></trkpt><trkpt lat="44.041453488689065" lon="10.725613232591956"><ele>361.6666666666667</ele><time>2026-05-01T16:05:05.866Z</time></trkpt><trkpt lat="44.04130676781743" lon="10.725812206386912"><ele>361.3333333333333</ele><time>2026-05-01T16:05:06.865Z</time></trkpt><trkpt lat="44.0411555052792" lon="10.72601010189317"><ele>361.0</ele><time>2026-05-01T16:05:07.866Z</time></trkpt><trkpt lat="44.04098923592459" lon="10.726186293922423"><ele>359.3333333333333</ele><time>2026-05-01T16:05:08.866Z</time></trkpt><trkpt lat="44.040819890444595" lon="10.726353000709437"><ele>357.6666666666667</ele><time>2026-05-01T16:05:09.866Z</time></trkpt><trkpt lat="44.040664848424434" lon="10.72651815752118"><ele>356.0</ele><time>2026-05-01T16:05:10.866Z</time></trkpt><trkpt lat="44.0405315292602" lon="10.726700529010035"><ele>356.0</ele><time>2026-05-01T16:05:11.866Z</time></trkpt><trkpt lat="44.040412041772406" lon="10.726894105031803"><ele>356.0</ele><time>2026-05-01T16:05:12.866Z</time></trkpt><trkpt lat="44.040301073210934" lon="10.727110173231434"><ele>356.0</ele><time>2026-05-01T16:05:13.866Z</time></trkpt><trkpt lat="44.040198344101235" lon="10.727354406887697"><ele>357.0</ele><time>2026-05-01T16:05:14.866Z</time></trkpt><trkpt lat="44.04010649196975" lon="10.727587617914619"><ele>358.0</ele><time>2026-05-01T16:05:15.866Z</time></trkpt><trkpt lat="44.04002441557752" lon="10.727803344917875"><ele>359.0</ele><time>2026-05-01T16:05:16.866Z</time></trkpt><trkpt lat="44.039939801709885" lon="10.728002180091483"><ele>359.0</ele><time>2026-05-01T16:05:17.866Z</time></trkpt><trkpt lat="44.039901067502676" lon="10.728236937346223"><ele>359.0</ele><time>2026-05-01T16:05:18.866Z</time></trkpt><trkpt lat="44.03989390854235" lon="10.728516011970456"><ele>359.0</ele><time>2026-05-01T16:05:19.866Z</time></trkpt><trkpt lat="44.03990257687122" lon="10.728830452244095"><ele>359.0</ele><time>2026-05-01T16:05:20.866Z</time></trkpt><trkpt lat="44.039898902356036" lon="10.72915782737328"><ele>359.0</ele><time>2026-05-01T16:05:21.866Z</time></trkpt><trkpt lat="44.039873667079085" lon="10.729434027844395"><ele>359.0</ele><time>2026-05-01T16:05:22.866Z</time></trkpt><trkpt lat="44.03986052573503" lon="10.729687859072587"><ele>358.0</ele><time>2026-05-01T16:05:23.866Z</time></trkpt><trkpt lat="44.03987273519984" lon="10.729942844988148"><ele>357.0</ele><time>2026-05-01T16:05:24.866Z</time></trkpt><trkpt lat="44.039917089170196" lon="10.730201383991036"><ele>356.0</ele><time>2026-05-01T16:05:25.866Z</time></trkpt><trkpt lat="44.03999024430619" lon="10.730461339445071"><ele>361.0</ele><time>2026-05-01T16:05:26.866Z</time></trkpt><trkpt lat="44.040068960931706" lon="10.73071624329876"><ele>366.0</ele><time>2026-05-01T16:05:27.866Z</time></trkpt><trkpt lat="44.04018385439" lon="10.7309516647304"><ele>371.0</ele><time>2026-05-01T16:05:28.866Z</time></trkpt><trkpt lat="44.04032195663395" lon="10.731162144749947"><ele>371.0</ele><time>2026-05-01T16:05:29.866Z</time></trkpt><trkpt lat="44.04045264945071" lon="10.731347842532578"><ele>371.0</ele><time>2026-05-01T16:05:30.866Z</time></trkpt><trkpt lat="44.04057877716061" lon="10.73151058913273"><ele>371.0</ele><time>2026-05-01T16:05:31.866Z</time></trkpt><trkpt lat="44.04064931440612" lon="10.731665208579981"><ele>371.0</ele><time>2026-05-01T16:05:32.866Z</time></trkpt><trkpt lat="44.04066798084795" lon="10.731804292322437"><ele>371.0</ele><time>2026-05-01T16:05:33.866Z</time></trkpt><trkpt lat="44.04063675802656" lon="10.731961148279467"><ele>371.0</ele><time>2026-05-01T16:05:34.866Z</time></trkpt><trkpt lat="44.04059933025395" lon="10.732127849627197"><ele>371.0</ele><time>2026-05-01T16:05:35.866Z</time></trkpt><trkpt lat="44.04058440610243" lon="10.732324711402622"><ele>371.33333333333337</ele><time>2026-05-01T16:05:36.866Z</time></trkpt><trkpt lat="44.04059935802212" lon="10.732531792580783"><ele>371.6666666666667</ele><time>2026-05-01T16:05:37.866Z</time></trkpt><trkpt lat="44.040638709426545" lon="10.732738312119016"><ele>372.0</ele><time>2026-05-01T16:05:38.866Z</time></trkpt><trkpt lat="44.04069719841863" lon="10.732935420144077"><ele>373.6666666666667</ele><time>2026-05-01T16:05:39.866Z</time></trkpt><trkpt lat="44.040797615782886" lon="10.733126290520854"><ele>375.33333333333337</ele><time>2026-05-01T16:05:40.866Z</time></trkpt><trkpt lat="44.04090264199853" lon="10.733302750048397"><ele>377.0</ele><time>2026-05-01T16:05:41.866Z</time></trkpt><trkpt lat="44.040980160988106" lon="10.733441440170461"><ele>385.25</ele><time>2026-05-01T16:05:42.866Z</time></trkpt><trkpt lat="44.04103267885137" lon="10.733594026824047"><ele>393.5</ele><time>2026-05-01T16:05:43.866Z</time></trkpt><trkpt lat="44.041054712234626" lon="10.73374950917156"><ele>401.75</ele><time>2026-05-01T16:05:44.866Z</time></trkpt><trkpt lat="44.041032784026335" lon="10.73391462355904"><ele>410.0</ele><time>2026-05-01T16:05:45.866Z</time></trkpt><trkpt lat="44.040951551088106" lon="10.73407623417289"><ele>410.0</ele><time>2026-05-01T16:05:46.866Z</time></trkpt><trkpt lat="44.04082176917978" lon="10.73420174564511"><ele>410.0</ele><time>2026-05-01T16:05:47.866Z</time></trkpt><trkpt lat="44.040709784058315" lon="10.734339642895844"><ele>410.0</ele><time>2026-05-01T16:05:48.866Z</time></trkpt><trkpt lat="44.04063820218912" lon="10.734484933707417"><ele>410.0</ele><time>2026-05-01T16:05:49.866Z</time></trkpt><trkpt lat="44.040623822593616" lon="10.734673482537373"><ele>398.66666666666663</ele><time>2026-05-01T16:05:50.866Z</time></trkpt><trkpt lat="44.04064071632667" lon="10.734877743133088"><ele>387.3333333333333</ele><time>2026-05-01T16:05:51.866Z</time></trkpt><trkpt lat="44.04069889652012" lon="10.735085359859058"><ele>376.0</ele><time>2026-05-01T16:05:52.866Z</time></trkpt><trkpt lat="44.04076304763773" lon="10.735305920783947"><ele>385.5</ele><time>2026-05-01T16:05:53.866Z</time></trkpt><trkpt lat="44.04083731551486" lon="10.735501588698497"><ele>395.0</ele><time>2026-05-01T16:05:54.866Z</time></trkpt><trkpt lat="44.0408798014156" lon="10.735679113754058"><ele>404.5</ele><time>2026-05-01T16:05:55.866Z</time></trkpt><trkpt lat="44.04086304934964" lon="10.73582833445227"><ele>414.0</ele><time>2026-05-01T16:05:56.866Z</time></trkpt><trkpt lat="44.040806286494444" lon="10.736001409786361"><ele>415.75</ele><time>2026-05-01T16:05:57.866Z</time></trkpt><trkpt lat="44.04076702907319" lon="10.73619342941219"><ele>417.5</ele><time>2026-05-01T16:05:58.866Z</time></trkpt><trkpt lat="44.040776667405176" lon="10.736402056233544"><ele>419.25</ele><time>2026-05-01T16:05:59.866Z</time></trkpt><trkpt lat="44.04080370810765" lon="10.736610582074732"><ele>421.0</ele><time>2026-05-01T16:06:00.866Z</time></trkpt><trkpt lat="44.040805335823556" lon="10.736804278487513"><ele>420.4</ele><time>2026-05-01T16:06:01.866Z</time></trkpt><trkpt lat="44.040751107190154" lon="10.73695612221283"><ele>419.8</ele><time>2026-05-01T16:06:02.866Z</time></trkpt><trkpt lat="44.04072650130175" lon="10.737096147845037"><ele>419.2</ele><time>2026-05-01T16:06:03.866Z</time></trkpt><trkpt lat="44.04076097443724" lon="10.737228178731256"><ele>418.59999999999997</ele><time>2026-05-01T16:06:04.866Z</time></trkpt><trkpt lat="44.04081616894715" lon="10.737354263275046"><ele>418.0</ele><time>2026-05-01T16:06:05.866Z</time></trkpt><trkpt lat="44.04089318628858" lon="10.737473493085792"><ele>418.0</ele><time>2026-05-01T16:06:06.866Z</time></trkpt><trkpt lat="44.04094487816526" lon="10.73760660686848"><ele>418.0</ele><time>2026-05-01T16:06:07.866Z</time></trkpt><trkpt lat="44.04092604703985" lon="10.737757017501558"><ele>418.0</ele><time>2026-05-01T16:06:08.866Z</time></trkpt><trkpt lat="44.04084277218715" lon="10.73787749419411"><ele>418.0</ele><time>2026-05-01T16:06:09.866Z</time></trkpt><trkpt lat="44.0407525736398" lon="10.738000361644778"><ele>422.75</ele><time>2026-05-01T16:06:10.866Z</time></trkpt><trkpt lat="44.04071687763223" lon="10.738144430046116"><ele>427.5</ele><time>2026-05-01T16:06:11.866Z</time></trkpt><trkpt lat="44.04072741728156" lon="10.738319218146998"><ele>432.25</ele><time>2026-05-01T16:06:12.866Z</time></trkpt><trkpt lat="44.04076926815162" lon="10.738479293562"><ele>437.0</ele><time>2026-05-01T16:06:13.866Z</time></trkpt><trkpt lat="44.04080765251091" lon="10.738682079922688"><ele>426.5</ele><time>2026-05-01T16:06:14.866Z</time></trkpt><trkpt lat="44.04077483933733" lon="10.738852791811262"><ele>416.0</ele><time>2026-05-01T16:06:15.866Z</time></trkpt><trkpt lat="44.04069510607264" lon="10.739024003353379"><ele>405.5</ele><time>2026-05-01T16:06:16.866Z</time></trkpt><trkpt lat="44.040631441707916" lon="10.739210939953425"><ele>395.0</ele><time>2026-05-01T16:06:17.866Z</time></trkpt><trkpt lat="44.04059380617322" lon="10.739444342326786"><ele>395.0</ele><time>2026-05-01T16:06:18.866Z</time></trkpt><trkpt lat="44.04057058878661" lon="10.739687677120285"><ele>395.0</ele><time>2026-05-01T16:06:19.866Z</time></trkpt><trkpt lat="44.0405561465784" lon="10.739953350312646"><ele>395.0</ele><time>2026-05-01T16:06:20.866Z</time></trkpt><trkpt lat="44.04052530262893" lon="10.740213374467679"><ele>397.0</ele><time>2026-05-01T16:06:21.866Z</time></trkpt><trkpt lat="44.0404929013725" lon="10.740466768741872"><ele>399.0</ele><time>2026-05-01T16:06:22.866Z</time></trkpt><trkpt lat="44.040469333855015" lon="10.740669485003147"><ele>401.0</ele><time>2026-05-01T16:06:23.866Z</time></trkpt><trkpt lat="44.04044517662906" lon="10.740851127055759"><ele>401.0</ele><time>2026-05-01T16:06:24.866Z</time></trkpt><trkpt lat="44.04044057987983" lon="10.741014187148608"><ele>401.0</ele><time>2026-05-01T16:06:25.866Z</time></trkpt><trkpt lat="44.04047290973582" lon="10.74118126264429"><ele>401.0</ele><time>2026-05-01T16:06:26.866Z</time></trkpt><trkpt lat="44.04053826879022" lon="10.741328466339297"><ele>401.0</ele><time>2026-05-01T16:06:27.866Z</time></trkpt><trkpt lat="44.04058491138562" lon="10.741474067867525"><ele>401.75</ele><time>2026-05-01T16:06:28.866Z</time></trkpt><trkpt lat="44.04057135141226" lon="10.741586906882983"><ele>402.5</ele><time>2026-05-01T16:06:29.866Z</time></trkpt><trkpt lat="44.040527864668384" lon="10.74170826280943"><ele>403.25</ele><time>2026-05-01T16:06:30.866Z</time></trkpt><trkpt lat="44.04041060022604" lon="10.741797713843885"><ele>404.0</ele><time>2026-05-01T16:06:31.866Z</time></trkpt><trkpt lat="44.040283462662586" lon="10.741876302689503"><ele>410.0</ele><time>2026-05-01T16:06:32.866Z</time></trkpt><trkpt lat="44.040164584408174" lon="10.741968604373268"><ele>416.0</ele><time>2026-05-01T16:06:33.866Z</time></trkpt><trkpt lat="44.04006428603389" lon="10.742114325386073"><ele>422.0</ele><time>2026-05-01T16:06:34.866Z</time></trkpt><trkpt lat="44.03999426896262" lon="10.74230630474126"><ele>428.0</ele><time>2026-05-01T16:06:35.866Z</time></trkpt><trkpt lat="44.03996391710984" lon="10.742503097109225"><ele>415.0</ele><time>2026-05-01T16:06:36.866Z</time></trkpt><trkpt lat="44.03993828170799" lon="10.742742181087603"><ele>402.0</ele><time>2026-05-01T16:06:37.866Z</time></trkpt><trkpt lat="44.0398881235412" lon="10.743005814645533"><ele>389.0</ele><time>2026-05-01T16:06:38.866Z</time></trkpt><trkpt lat="44.03984928460677" lon="10.743275531839574"><ele>389.0</ele><time>2026-05-01T16:06:39.866Z</time></trkpt><trkpt lat="44.03982891212992" lon="10.743541014606317"><ele>389.0</ele><time>2026-05-01T16:06:40.866Z</time></trkpt><trkpt lat="44.03980503568232" lon="10.743792373673303"><ele>389.0</ele><time>2026-05-01T16:06:41.866Z</time></trkpt><trkpt lat="44.03976477518194" lon="10.744034252547934"><ele>396.0</ele><time>2026-05-01T16:06:42.866Z</time></trkpt><trkpt lat="44.03973891790034" lon="10.744297813264929"><ele>403.0</ele><time>2026-05-01T16:06:43.866Z</time></trkpt><trkpt lat="44.0397582698536" lon="10.744548080034345"><ele>410.0</ele><time>2026-05-01T16:06:44.866Z</time></trkpt><trkpt lat="44.0397663447866" lon="10.744777539404527"><ele>414.0</ele><time>2026-05-01T16:06:45.866Z</time></trkpt><trkpt lat="44.03974116987964" lon="10.744983087139781"><ele>418.0</ele><time>2026-05-01T16:06:46.866Z</time></trkpt><trkpt lat="44.03974558372556" lon="10.745172295297472"><ele>422.0</ele><time>2026-05-01T16:06:47.866Z</time></trkpt><trkpt lat="44.03977986836331" lon="10.745353847370648"><ele>426.0</ele><time>2026-05-01T16:06:48.866Z</time></trkpt><trkpt lat="44.039840976212865" lon="10.745541293313698"><ele>426.66666666666663</ele><time>2026-05-01T16:06:49.866Z</time></trkpt><trkpt lat="44.03991790070982" lon="10.745769213131418"><ele>427.3333333333333</ele><time>2026-05-01T16:06:50.866Z</time></trkpt><trkpt lat="44.03998442979826" lon="10.745988792955078"><ele>428.0</ele><time>2026-05-01T16:06:51.866Z</time></trkpt><trkpt lat="44.04002082262581" lon="10.74617895640448"><ele>426.66666666666663</ele><time>2026-05-01T16:06:52.866Z</time></trkpt><trkpt lat="44.0400143806088" lon="10.74636910669379"><ele>425.33333333333337</ele><time>2026-05-01T16:06:53.866Z</time></trkpt><trkpt lat="44.0399903208662" lon="10.7465785518569"><ele>424.0</ele><time>2026-05-01T16:06:54.866Z</time></trkpt><trkpt lat="44.03996071580888" lon="10.746799228315052"><ele>423.5</ele><time>2026-05-01T16:06:55.866Z</time></trkpt><trkpt lat="44.03993368142292" lon="10.747004106469982"><ele>423.0</ele><time>2026-05-01T16:06:56.866Z</time></trkpt><trkpt lat="44.039917372312715" lon="10.747170964484637"><ele>422.5</ele><time>2026-05-01T16:06:57.866Z</time></trkpt><trkpt lat="44.039921154202204" lon="10.747329311152637"><ele>422.0</ele><time>2026-05-01T16:06:58.866Z</time></trkpt><trkpt lat="44.03997184679683" lon="10.747475031505234"><ele>426.25</ele><time>2026-05-01T16:06:59.866Z</time></trkpt><trkpt lat="44.040063944050296" lon="10.74757508796587"><ele>430.5</ele><time>2026-05-01T16:07:00.866Z</time></trkpt><trkpt lat="44.04017830654499" lon="10.747683159807034"><ele>434.75</ele><time>2026-05-01T16:07:01.866Z</time></trkpt><trkpt lat="44.04034677315547" lon="10.747806205338755"><ele>439.0</ele><time>2026-05-01T16:07:02.866Z</time></trkpt><trkpt lat="44.0405465668124" lon="10.747948883340111"><ele>439.0</ele><time>2026-05-01T16:07:03.866Z</time></trkpt><trkpt lat="44.04076121579977" lon="10.748095060931359"><ele>439.0</ele><time>2026-05-01T16:07:04.866Z</time></trkpt><trkpt lat="44.0409890134373" lon="10.748215801745685"><ele>453.0</ele><time>2026-05-01T16:07:05.866Z</time></trkpt><trkpt lat="44.041232182548015" lon="10.74833172335827"><ele>467.0</ele><time>2026-05-01T16:07:06.866Z</time></trkpt><trkpt lat="44.0414712196974" lon="10.748437693131985"><ele>465.0</ele><time>2026-05-01T16:07:07.866Z</time></trkpt><trkpt lat="44.04166311366758" lon="10.748575534055698"><ele>463.0</ele><time>2026-05-01T16:07:08.866Z</time></trkpt><trkpt lat="44.04183627625633" lon="10.748701582965602"><ele>461.0</ele><time>2026-05-01T16:07:09.867Z</time></trkpt><trkpt lat="44.04200372001422" lon="10.748837179307177"><ele>461.0</ele><time>2026-05-01T16:07:10.867Z</time></trkpt><trkpt lat="44.042177602604895" lon="10.748968843803066"><ele>461.0</ele><time>2026-05-01T16:07:11.867Z</time></trkpt><trkpt lat="44.042332344803064" lon="10.749107858720835"><ele>461.0</ele><time>2026-05-01T16:07:12.867Z</time></trkpt><trkpt lat="44.042491836797915" lon="10.749238437328742"><ele>463.3333333333333</ele><time>2026-05-01T16:07:13.867Z</time></trkpt><trkpt lat="44.04265936264033" lon="10.749350701127632"><ele>465.66666666666663</ele><time>2026-05-01T16:07:14.867Z</time></trkpt><trkpt lat="44.04282905806637" lon="10.749430715321079"><ele>468.0</ele><time>2026-05-01T16:07:15.867Z</time></trkpt><trkpt lat="44.04297282109679" lon="10.749537477338382"><ele>468.0</ele><time>2026-05-01T16:07:16.866Z</time></trkpt><trkpt lat="44.04313033214588" lon="10.749598209010106"><ele>468.0</ele><time>2026-05-01T16:07:17.866Z</time></trkpt><trkpt lat="44.04330059371182" lon="10.749648997737909"><ele>468.0</ele><time>2026-05-01T16:07:18.867Z</time></trkpt><trkpt lat="44.04347584226292" lon="10.749663028188092"><ele>472.33333333333337</ele><time>2026-05-01T16:07:19.867Z</time></trkpt><trkpt lat="44.04364929199139" lon="10.749650840594247"><ele>476.6666666666667</ele><time>2026-05-01T16:07:20.867Z</time></trkpt><trkpt lat="44.04380169275566" lon="10.749591213008575"><ele>481.0</ele><time>2026-05-01T16:07:21.867Z</time></trkpt><trkpt lat="44.043952559289224" lon="10.749500683660603"><ele>481.0</ele><time>2026-05-01T16:07:22.867Z</time></trkpt><trkpt lat="44.04411985502539" lon="10.749400254565225"><ele>481.0</ele><time>2026-05-01T16:07:23.867Z</time></trkpt><trkpt lat="44.04429940902897" lon="10.749395979978967"><ele>481.0</ele><time>2026-05-01T16:07:24.867Z</time></trkpt><trkpt lat="44.044475134338036" lon="10.749421203383488"><ele>484.33333333333337</ele><time>2026-05-01T16:07:25.867Z</time></trkpt><trkpt lat="44.04464149003641" lon="10.749466393269524"><ele>487.66666666666663</ele><time>2026-05-01T16:07:26.867Z</time></trkpt><trkpt lat="44.04480052966261" lon="10.749545569172671"><ele>491.0</ele><time>2026-05-01T16:07:27.867Z</time></trkpt><trkpt lat="44.04497572711817" lon="10.749618642104148"><ele>495.25</ele><time>2026-05-01T16:07:28.867Z</time></trkpt><trkpt lat="44.045135084307596" lon="10.749659642468009"><ele>499.5</ele><time>2026-05-01T16:07:29.867Z</time></trkpt><trkpt lat="44.04528210085563" lon="10.749693694350999"><ele>503.75</ele><time>2026-05-01T16:07:30.867Z</time></trkpt><trkpt lat="44.04540128984355" lon="10.749722904441706"><ele>508.0</ele><time>2026-05-01T16:07:31.867Z</time></trkpt><trkpt lat="44.045494935941484" lon="10.749766764952348"><ele>508.0</ele><time>2026-05-01T16:07:32.867Z</time></trkpt><trkpt lat="44.04555518386714" lon="10.749854614723127"><ele>507.99999999999994</ele><time>2026-05-01T16:07:33.867Z</time></trkpt><trkpt lat="44.04558497902639" lon="10.749973321384402"><ele>507.99999999999994</ele><time>2026-05-01T16:07:34.867Z</time></trkpt><trkpt lat="44.045582377635455" lon="10.750120014461059"><ele>508.0</ele><time>2026-05-01T16:07:35.867Z</time></trkpt><trkpt lat="44.04556160543359" lon="10.750258795536402"><ele>508.0</ele><time>2026-05-01T16:07:36.867Z</time></trkpt><trkpt lat="44.04547120804759" lon="10.750345573357926"><ele>507.25</ele><time>2026-05-01T16:07:37.866Z</time></trkpt><trkpt lat="44.04533667396168" lon="10.75037224413008"><ele>506.5</ele><time>2026-05-01T16:07:38.865Z</time></trkpt><trkpt lat="44.045197703431874" lon="10.750418501120775"><ele>505.75</ele><time>2026-05-01T16:07:39.863Z</time></trkpt><trkpt lat="44.04504236695998" lon="10.750427530956962"><ele>505.0</ele><time>2026-05-01T16:07:40.862Z</time></trkpt><trkpt lat="44.04490578257742" lon="10.750439047268703"><ele>505.0</ele><time>2026-05-01T16:07:41.861Z</time></trkpt><trkpt lat="44.04478808259121" lon="10.750456967071216"><ele>505.0</ele><time>2026-05-01T16:07:42.86Z</time></trkpt><trkpt lat="44.044677059184366" lon="10.750498508206471"><ele>505.0</ele><time>2026-05-01T16:07:43.858Z</time></trkpt><trkpt lat="44.04457968154958" lon="10.750602970160475"><ele>505.0</ele><time>2026-05-01T16:07:44.857Z</time></trkpt><trkpt lat="44.044485701105295" lon="10.750772877773304"><ele>505.0</ele><time>2026-05-01T16:07:45.856Z</time></trkpt><trkpt lat="44.04438972246906" lon="10.750922558000047"><ele>505.0</ele><time>2026-05-01T16:07:46.855Z</time></trkpt><trkpt lat="44.04430362927334" lon="10.751066199052188"><ele>505.0</ele><time>2026-05-01T16:07:47.854Z</time></trkpt><trkpt lat="44.04419825033504" lon="10.751156883945177"><ele>505.0</ele><time>2026-05-01T16:07:48.854Z</time></trkpt><trkpt lat="44.04408498829922" lon="10.751206227966"><ele>505.8</ele><time>2026-05-01T16:07:49.853Z</time></trkpt><trkpt lat="44.043942428798374" lon="10.751175282953021"><ele>506.6</ele><time>2026-05-01T16:07:50.852Z</time></trkpt><trkpt lat="44.043861751804265" lon="10.751159304485272"><ele>507.4</ele><time>2026-05-01T16:07:51.851Z</time></trkpt><trkpt lat="44.04376858933141" lon="10.751170900485716"><ele>508.2</ele><time>2026-05-01T16:07:52.851Z</time></trkpt><trkpt lat="44.043702615197866" lon="10.751216831346543"><ele>509.0</ele><time>2026-05-01T16:07:53.85Z</time></trkpt><trkpt lat="44.04365779980183" lon="10.751285917612982"><ele>509.0</ele><time>2026-05-01T16:07:54.85Z</time></trkpt><trkpt lat="44.04365259750709" lon="10.751418780625638"><ele>509.0</ele><time>2026-05-01T16:07:55.849Z</time></trkpt><trkpt lat="44.04366076215793" lon="10.751512711309159"><ele>509.0</ele><time>2026-05-01T16:07:56.849Z</time></trkpt><trkpt lat="44.04371263847667" lon="10.751597321235607"><ele>509.0</ele><time>2026-05-01T16:07:57.848Z</time></trkpt><trkpt lat="44.043813965144075" lon="10.751645385810203"><ele>509.0</ele><time>2026-05-01T16:07:58.848Z</time></trkpt><trkpt lat="44.04392440047285" lon="10.751698386553043"><ele>509.0</ele><time>2026-05-01T16:07:59.847Z</time></trkpt><trkpt lat="44.04405911549654" lon="10.751702061471097"><ele>509.0</ele><time>2026-05-01T16:08:00.847Z</time></trkpt><trkpt lat="44.04417956329108" lon="10.75174706878875"><ele>509.0</ele><time>2026-05-01T16:08:01.847Z</time></trkpt><trkpt lat="44.04428493696564" lon="10.751845533454851"><ele>509.0</ele><time>2026-05-01T16:08:02.846Z</time></trkpt><trkpt lat="44.044392573369294" lon="10.751961791607954"><ele>509.0</ele><time>2026-05-01T16:08:03.846Z</time></trkpt><trkpt lat="44.044484629323115" lon="10.75214502237424"><ele>509.0</ele><time>2026-05-01T16:08:04.846Z</time></trkpt><trkpt lat="44.044601060368045" lon="10.75236080024469"><ele>509.0</ele><time>2026-05-01T16:08:05.845Z</time></trkpt><trkpt lat="44.044710599960766" lon="10.752584815494561"><ele>512.6666666666666</ele><time>2026-05-01T16:08:06.845Z</time></trkpt><trkpt lat="44.04481689978387" lon="10.752776787814664"><ele>516.3333333333334</ele><time>2026-05-01T16:08:07.845Z</time></trkpt><trkpt lat="44.04491856918467" lon="10.752977783250191"><ele>520.0</ele><time>2026-05-01T16:08:08.845Z</time></trkpt><trkpt lat="44.04499894270996" lon="10.753193675726504"><ele>520.0</ele><time>2026-05-01T16:08:09.845Z</time></trkpt><trkpt lat="44.0450976163907" lon="10.753387497284756"><ele>520.0</ele><time>2026-05-01T16:08:10.844Z</time></trkpt><trkpt lat="44.04519682422336" lon="10.753580849179182"><ele>520.0</ele><time>2026-05-01T16:08:11.844Z</time></trkpt><trkpt lat="44.04530895684936" lon="10.753759697002696"><ele>518.25</ele><time>2026-05-01T16:08:12.844Z</time></trkpt><trkpt lat="44.04541350060132" lon="10.753910181751051"><ele>516.5</ele><time>2026-05-01T16:08:13.844Z</time></trkpt><trkpt lat="44.04549553069312" lon="10.754024871973304"><ele>514.75</ele><time>2026-05-01T16:08:14.844Z</time></trkpt><trkpt lat="44.04554433700803" lon="10.75417339414374"><ele>513.0</ele><time>2026-05-01T16:08:15.844Z</time></trkpt><trkpt lat="44.04561586195134" lon="10.754344327435344"><ele>512.3333333333334</ele><time>2026-05-01T16:08:16.843Z</time></trkpt><trkpt lat="44.04571021301434" lon="10.754507363987678"><ele>511.6666666666667</ele><time>2026-05-01T16:08:17.843Z</time></trkpt><trkpt lat="44.045795146424595" lon="10.754693892925365"><ele>511.0</ele><time>2026-05-01T16:08:18.843Z</time></trkpt><trkpt lat="44.04590005709858" lon="10.754872377184476"><ele>509.33333333333337</ele><time>2026-05-01T16:08:19.843Z</time></trkpt><trkpt lat="44.04600314283622" lon="10.755051425280543"><ele>507.66666666666663</ele><time>2026-05-01T16:08:20.843Z</time></trkpt><trkpt lat="44.0460849397251" lon="10.755246073979611"><ele>506.0</ele><time>2026-05-01T16:08:21.843Z</time></trkpt><trkpt lat="44.046183872063644" lon="10.755422719111877"><ele>506.0</ele><time>2026-05-01T16:08:22.843Z</time></trkpt><trkpt lat="44.046292730286886" lon="10.75559039967581"><ele>506.0</ele><time>2026-05-01T16:08:23.843Z</time></trkpt><trkpt lat="44.04632179677049" lon="10.755787671271896"><ele>506.0</ele><time>2026-05-01T16:08:24.843Z</time></trkpt><trkpt lat="44.046340437558136" lon="10.755996278011134"><ele>497.3333333333333</ele><time>2026-05-01T16:08:25.843Z</time></trkpt><trkpt lat="44.04636860207639" lon="10.756205484169747"><ele>488.66666666666663</ele><time>2026-05-01T16:08:26.842Z</time></trkpt><trkpt lat="44.04638263955147" lon="10.756436362704264"><ele>480.0</ele><time>2026-05-01T16:08:27.842Z</time></trkpt><trkpt lat="44.04640133912489" lon="10.756647821778335"><ele>480.0</ele><time>2026-05-01T16:08:28.842Z</time></trkpt><trkpt lat="44.04643080322044" lon="10.75683165889192"><ele>480.0</ele><time>2026-05-01T16:08:29.842Z</time></trkpt><trkpt lat="44.04647585467428" lon="10.756993027497598"><ele>480.0</ele><time>2026-05-01T16:08:30.842Z</time></trkpt><trkpt lat="44.046562385904075" lon="10.757126403055373"><ele>480.0</ele><time>2026-05-01T16:08:31.842Z</time></trkpt><trkpt lat="44.04667758879512" lon="10.757246555826047"><ele>486.33333333333337</ele><time>2026-05-01T16:08:32.842Z</time></trkpt><trkpt lat="44.046767148681674" lon="10.757408111881047"><ele>492.6666666666667</ele><time>2026-05-01T16:08:33.842Z</time></trkpt><trkpt lat="44.046824807835115" lon="10.757585495538281"><ele>499.0</ele><time>2026-05-01T16:08:34.842Z</time></trkpt><trkpt lat="44.04687366180829" lon="10.757811443723469"><ele>499.0</ele><time>2026-05-01T16:08:35.842Z</time></trkpt><trkpt lat="44.04689712963023" lon="10.758025658819836"><ele>499.0</ele><time>2026-05-01T16:08:36.842Z</time></trkpt><trkpt lat="44.04689181541398" lon="10.758226647566731"><ele>499.0</ele><time>2026-05-01T16:08:37.842Z</time></trkpt><trkpt lat="44.04689488995762" lon="10.758433053219697"><ele>499.0</ele><time>2026-05-01T16:08:38.842Z</time></trkpt><trkpt lat="44.046896398493715" lon="10.758625952225172"><ele>494.5</ele><time>2026-05-01T16:08:39.842Z</time></trkpt><trkpt lat="44.04691699807607" lon="10.75880120316943"><ele>490.0</ele><time>2026-05-01T16:08:40.842Z</time></trkpt><trkpt lat="44.04697681157177" lon="10.758974894225952"><ele>485.5</ele><time>2026-05-01T16:08:41.842Z</time></trkpt><trkpt lat="44.04705641799772" lon="10.759131592293274"><ele>481.0</ele><time>2026-05-01T16:08:42.842Z</time></trkpt><trkpt lat="44.047148757818114" lon="10.759246009551653"><ele>481.0</ele><time>2026-05-01T16:08:43.842Z</time></trkpt><trkpt lat="44.04724043119876" lon="10.759327398520393"><ele>481.0</ele><time>2026-05-01T16:08:44.842Z</time></trkpt><trkpt lat="44.04736232795259" lon="10.759410445201226"><ele>481.0</ele><time>2026-05-01T16:08:45.842Z</time></trkpt><trkpt lat="44.04750776634738" lon="10.759487487889567"><ele>481.0</ele><time>2026-05-01T16:08:46.842Z</time></trkpt><trkpt lat="44.04767020606214" lon="10.759564895472971"><ele>480.75</ele><time>2026-05-01T16:08:47.842Z</time></trkpt><trkpt lat="44.04781979884958" lon="10.759667386255073"><ele>480.5</ele><time>2026-05-01T16:08:48.842Z</time></trkpt><trkpt lat="44.047942767185624" lon="10.759767142707336"><ele>480.25</ele><time>2026-05-01T16:08:49.842Z</time></trkpt><trkpt lat="44.0480677819304" lon="10.75983903819535"><ele>480.0</ele><time>2026-05-01T16:08:50.842Z</time></trkpt><trkpt lat="44.04819235466561" lon="10.759873688360972"><ele>475.75</ele><time>2026-05-01T16:08:51.842Z</time></trkpt><trkpt lat="44.04831767703927" lon="10.759907118617432"><ele>471.5</ele><time>2026-05-01T16:08:52.842Z</time></trkpt><trkpt lat="44.04839344210942" lon="10.760048631395449"><ele>467.25</ele><time>2026-05-01T16:08:53.842Z</time></trkpt><trkpt lat="44.0484560787895" lon="10.760194902809266"><ele>463.0</ele><time>2026-05-01T16:08:54.842Z</time></trkpt><trkpt lat="44.04856552844872" lon="10.760319080711321"><ele>463.0</ele><time>2026-05-01T16:08:55.842Z</time></trkpt><trkpt lat="44.04868914382263" lon="10.760402131313045"><ele>463.0</ele><time>2026-05-01T16:08:56.842Z</time></trkpt><trkpt lat="44.04883948495315" lon="10.76047514098359"><ele>463.0</ele><time>2026-05-01T16:08:57.842Z</time></trkpt><trkpt lat="44.04899289226192" lon="10.760557918412875"><ele>474.0</ele><time>2026-05-01T16:08:58.842Z</time></trkpt><trkpt lat="44.049136190604415" lon="10.76063785332251"><ele>485.0</ele><time>2026-05-01T16:08:59.842Z</time></trkpt><trkpt lat="44.049246875234594" lon="10.760717316789263"><ele>496.0</ele><time>2026-05-01T16:09:00.842Z</time></trkpt><trkpt lat="44.049323823524176" lon="10.760845344942519"><ele>507.0</ele><time>2026-05-01T16:09:01.842Z</time></trkpt><trkpt lat="44.049361140114854" lon="10.760988755652615"><ele>497.75</ele><time>2026-05-01T16:09:02.842Z</time></trkpt><trkpt lat="44.049385498953754" lon="10.761137327967868"><ele>488.5</ele><time>2026-05-01T16:09:03.842Z</time></trkpt><trkpt lat="44.04944303435961" lon="10.761287939901054"><ele>479.25</ele><time>2026-05-01T16:09:04.842Z</time></trkpt><trkpt lat="44.04952120454202" lon="10.761457751977735"><ele>470.0</ele><time>2026-05-01T16:09:05.842Z</time></trkpt><trkpt lat="44.04962729664647" lon="10.761607729224648"><ele>470.0</ele><time>2026-05-01T16:09:06.842Z</time></trkpt><trkpt lat="44.04976692453039" lon="10.761730298332422"><ele>470.0</ele><time>2026-05-01T16:09:07.842Z</time></trkpt><trkpt lat="44.04991395738617" lon="10.76186242473611"><ele>470.0</ele><time>2026-05-01T16:09:08.842Z</time></trkpt><trkpt lat="44.050063484186616" lon="10.761998187110247"><ele>474.0</ele><time>2026-05-01T16:09:09.842Z</time></trkpt><trkpt lat="44.050219535629196" lon="10.762096744147946"><ele>478.0</ele><time>2026-05-01T16:09:10.842Z</time></trkpt><trkpt lat="44.05035523212361" lon="10.762194118069962"><ele>482.0</ele><time>2026-05-01T16:09:11.842Z</time></trkpt><trkpt lat="44.05047422595848" lon="10.762333901028349"><ele>482.0</ele><time>2026-05-01T16:09:12.842Z</time></trkpt><trkpt lat="44.05056424517843" lon="10.762524317486928"><ele>482.0</ele><time>2026-05-01T16:09:13.841Z</time></trkpt><trkpt lat="44.05065564296897" lon="10.762723673901231"><ele>482.0</ele><time>2026-05-01T16:09:14.841Z</time></trkpt><trkpt lat="44.05072491855155" lon="10.762928931146165"><ele>484.0</ele><time>2026-05-01T16:09:15.842Z</time></trkpt><trkpt lat="44.050792235196326" lon="10.76310053656159"><ele>486.0</ele><time>2026-05-01T16:09:16.842Z</time></trkpt><trkpt lat="44.05086457169596" lon="10.76323285874295"><ele>488.0</ele><time>2026-05-01T16:09:17.842Z</time></trkpt><trkpt lat="44.05094597772634" lon="10.763343172089794"><ele>490.0</ele><time>2026-05-01T16:09:18.842Z</time></trkpt><trkpt lat="44.05106009905277" lon="10.763413292376342"><ele>490.0</ele><time>2026-05-01T16:09:19.841Z</time></trkpt><trkpt lat="44.05119769923918" lon="10.763444159845719"><ele>490.0</ele><time>2026-05-01T16:09:20.841Z</time></trkpt><trkpt lat="44.05135729502103" lon="10.76349354088942"><ele>490.0</ele><time>2026-05-01T16:09:21.841Z</time></trkpt><trkpt lat="44.05152839420525" lon="10.763577771385085"><ele>483.33333333333337</ele><time>2026-05-01T16:09:22.841Z</time></trkpt><trkpt lat="44.05172559494144" lon="10.763676072126614"><ele>476.66666666666663</ele><time>2026-05-01T16:09:23.841Z</time></trkpt><trkpt lat="44.05191572943843" lon="10.763739545786638"><ele>470.0</ele><time>2026-05-01T16:09:24.842Z</time></trkpt><trkpt lat="44.05212427285814" lon="10.763780923565134"><ele>470.0</ele><time>2026-05-01T16:09:25.842Z</time></trkpt><trkpt lat="44.05231657549114" lon="10.763843867147822"><ele>470.0</ele><time>2026-05-01T16:09:26.842Z</time></trkpt><trkpt lat="44.05249797388645" lon="10.763922443551422"><ele>470.0</ele><time>2026-05-01T16:09:27.842Z</time></trkpt><trkpt lat="44.05266652516054" lon="10.763997855182586"><ele>474.66666666666663</ele><time>2026-05-01T16:09:28.842Z</time></trkpt><trkpt lat="44.05284713327997" lon="10.764053524544384"><ele>479.33333333333337</ele><time>2026-05-01T16:09:29.842Z</time></trkpt><trkpt lat="44.053021015499674" lon="10.76414616353888"><ele>484.0</ele><time>2026-05-01T16:09:30.842Z</time></trkpt><trkpt lat="44.05316976788291" lon="10.764253549335434"><ele>475.6666666666667</ele><time>2026-05-01T16:09:31.842Z</time></trkpt><trkpt lat="44.05331268221352" lon="10.764371888245384"><ele>467.33333333333337</ele><time>2026-05-01T16:09:32.842Z</time></trkpt><trkpt lat="44.0534604279352" lon="10.76443934504188"><ele>459.0</ele><time>2026-05-01T16:09:33.842Z</time></trkpt><trkpt lat="44.05361294307431" lon="10.764507526979436"><ele>459.0</ele><time>2026-05-01T16:09:34.842Z</time></trkpt><trkpt lat="44.05378556135444" lon="10.764519387836664"><ele>459.0</ele><time>2026-05-01T16:09:35.842Z</time></trkpt><trkpt lat="44.05397591389114" lon="10.764522055823909"><ele>459.0</ele><time>2026-05-01T16:09:36.842Z</time></trkpt><trkpt lat="44.05416432919853" lon="10.764510592868072"><ele>460.33333333333337</ele><time>2026-05-01T16:09:37.842Z</time></trkpt><trkpt lat="44.05432648261248" lon="10.764548152697826"><ele>461.6666666666667</ele><time>2026-05-01T16:09:38.842Z</time></trkpt><trkpt lat="44.054475688333554" lon="10.764573507884188"><ele>463.0</ele><time>2026-05-01T16:09:39.842Z</time></trkpt><trkpt lat="44.05462474723075" lon="10.764572224225656"><ele>463.0</ele><time>2026-05-01T16:09:40.842Z</time></trkpt><trkpt lat="44.05477626931761" lon="10.764510702288844"><ele>463.0</ele><time>2026-05-01T16:09:41.842Z</time></trkpt><trkpt lat="44.05494450378111" lon="10.764408207470664"><ele>463.0</ele><time>2026-05-01T16:09:42.842Z</time></trkpt><trkpt lat="44.05512325179269" lon="10.764309636776265"><ele>473.6666666666667</ele><time>2026-05-01T16:09:43.842Z</time></trkpt><trkpt lat="44.05528592060667" lon="10.764220677458727"><ele>484.33333333333337</ele><time>2026-05-01T16:09:44.842Z</time></trkpt><trkpt lat="44.05543862624478" lon="10.764143295736396"><ele>495.0</ele><time>2026-05-01T16:09:45.842Z</time></trkpt><trkpt lat="44.05558160878816" lon="10.764065587012261"><ele>495.0</ele><time>2026-05-01T16:09:46.842Z</time></trkpt><trkpt lat="44.05571928129006" lon="10.763987778370655"><ele>495.0</ele><time>2026-05-01T16:09:47.842Z</time></trkpt><trkpt lat="44.0558546458362" lon="10.763905469844474"><ele>495.0</ele><time>2026-05-01T16:09:48.842Z</time></trkpt><trkpt lat="44.05599138827891" lon="10.763917984300608"><ele>495.0</ele><time>2026-05-01T16:09:49.842Z</time></trkpt><trkpt lat="44.05612719847711" lon="10.76397217633541"><ele>492.75</ele><time>2026-05-01T16:09:50.842Z</time></trkpt><trkpt lat="44.05625203093593" lon="10.764065110533284"><ele>490.5</ele><time>2026-05-01T16:09:51.842Z</time></trkpt><trkpt lat="44.056376627475565" lon="10.764181990322804"><ele>488.25</ele><time>2026-05-01T16:09:52.842Z</time></trkpt><trkpt lat="44.056485015675634" lon="10.764251528030353"><ele>486.0</ele><time>2026-05-01T16:09:53.842Z</time></trkpt><trkpt lat="44.056604831477806" lon="10.764220899872585"><ele>487.0</ele><time>2026-05-01T16:09:54.842Z</time></trkpt><trkpt lat="44.05670989113442" lon="10.764135685553924"><ele>488.0</ele><time>2026-05-01T16:09:55.842Z</time></trkpt><trkpt lat="44.05682181512538" lon="10.764010739709809"><ele>489.0</ele><time>2026-05-01T16:09:56.842Z</time></trkpt><trkpt lat="44.05696188715149" lon="10.763945789438797"><ele>490.0</ele><time>2026-05-01T16:09:57.842Z</time></trkpt><trkpt lat="44.057097078214824" lon="10.764025701236449"><ele>490.0</ele><time>2026-05-01T16:09:58.842Z</time></trkpt><trkpt lat="44.057213375237076" lon="10.76413778009013"><ele>490.0</ele><time>2026-05-01T16:09:59.842Z</time></trkpt><trkpt lat="44.05731978721273" lon="10.76423815036457"><ele>490.0</ele><time>2026-05-01T16:10:00.842Z</time></trkpt><trkpt lat="44.057400165121365" lon="10.764295728807943"><ele>490.0</ele><time>2026-05-01T16:10:01.842Z</time></trkpt><trkpt lat="44.057455146875064" lon="10.764358674315675"><ele>490.0</ele><time>2026-05-01T16:10:02.842Z</time></trkpt><trkpt lat="44.0575232302983" lon="10.76439811371857"><ele>486.8</ele><time>2026-05-01T16:10:03.842Z</time></trkpt><trkpt lat="44.05759920675464" lon="10.764428373098285"><ele>483.6</ele><time>2026-05-01T16:10:04.842Z</time></trkpt><trkpt lat="44.05771250880751" lon="10.764435806837641"><ele>480.4</ele><time>2026-05-01T16:10:05.842Z</time></trkpt><trkpt lat="44.05781314371495" lon="10.764438854159458"><ele>477.2</ele><time>2026-05-01T16:10:06.842Z</time></trkpt><trkpt lat="44.057938376569" lon="10.764437936194652"><ele>474.0</ele><time>2026-05-01T16:10:07.842Z</time></trkpt><trkpt lat="44.0580732418103" lon="10.764415871931394"><ele>478.75</ele><time>2026-05-01T16:10:08.842Z</time></trkpt><trkpt lat="44.058206055401335" lon="10.764327466069412"><ele>483.5</ele><time>2026-05-01T16:10:09.842Z</time></trkpt><trkpt lat="44.05832476221896" lon="10.764263349333211"><ele>488.25</ele><time>2026-05-01T16:10:10.842Z</time></trkpt><trkpt lat="44.058446651610424" lon="10.764178267156328"><ele>493.0</ele><time>2026-05-01T16:10:11.842Z</time></trkpt><trkpt lat="44.05855936909311" lon="10.764183128444726"><ele>493.0</ele><time>2026-05-01T16:10:12.842Z</time></trkpt><trkpt lat="44.058657918248684" lon="10.76426975145435"><ele>493.0</ele><time>2026-05-01T16:10:13.842Z</time></trkpt><trkpt lat="44.05874668413662" lon="10.76439289308438"><ele>493.0</ele><time>2026-05-01T16:10:14.842Z</time></trkpt><trkpt lat="44.05885191633776" lon="10.764497247871965"><ele>493.0</ele><time>2026-05-01T16:10:15.842Z</time></trkpt><trkpt lat="44.058971103742934" lon="10.76455619412054"><ele>486.6666666666667</ele><time>2026-05-01T16:10:16.842Z</time></trkpt><trkpt lat="44.0591133655159" lon="10.764583213535685"><ele>480.33333333333337</ele><time>2026-05-01T16:10:17.842Z</time></trkpt><trkpt lat="44.05927897391976" lon="10.764597622539801"><ele>474.0</ele><time>2026-05-01T16:10:18.842Z</time></trkpt><trkpt lat="44.059440932973104" lon="10.764612666113633"><ele>474.0</ele><time>2026-05-01T16:10:19.842Z</time></trkpt><trkpt lat="44.05957966566339" lon="10.76462846447541"><ele>474.0</ele><time>2026-05-01T16:10:20.842Z</time></trkpt><trkpt lat="44.059708946124616" lon="10.764613085236793"><ele>474.0</ele><time>2026-05-01T16:10:21.842Z</time></trkpt><trkpt lat="44.05982353441019" lon="10.764555967987672"><ele>474.0</ele><time>2026-05-01T16:10:22.842Z</time></trkpt><trkpt lat="44.05994986760842" lon="10.764438503341134"><ele>474.2</ele><time>2026-05-01T16:10:23.842Z</time></trkpt><trkpt lat="44.06007544915885" lon="10.76433403147673"><ele>474.4</ele><time>2026-05-01T16:10:24.842Z</time></trkpt><trkpt lat="44.06018044449102" lon="10.764300593983137"><ele>474.6</ele><time>2026-05-01T16:10:25.842Z</time></trkpt><trkpt lat="44.060265025898914" lon="10.764340508722066"><ele>474.8</ele><time>2026-05-01T16:10:26.842Z</time></trkpt><trkpt lat="44.06033353963391" lon="10.764420390908336"><ele>475.0</ele><time>2026-05-01T16:10:27.842Z</time></trkpt><trkpt lat="44.060368107421986" lon="10.76453571070682"><ele>475.0</ele><time>2026-05-01T16:10:28.842Z</time></trkpt><trkpt lat="44.06038898494922" lon="10.764673732033026"><ele>475.0</ele><time>2026-05-01T16:10:29.842Z</time></trkpt><trkpt lat="44.06043804388074" lon="10.764833370206901"><ele>475.0</ele><time>2026-05-01T16:10:30.842Z</time></trkpt><trkpt lat="44.06050871686324" lon="10.76498746956396"><ele>475.0</ele><time>2026-05-01T16:10:31.842Z</time></trkpt><trkpt lat="44.0605954678088" lon="10.765146640850983"><ele>471.75</ele><time>2026-05-01T16:10:32.842Z</time></trkpt><trkpt lat="44.06068993329885" lon="10.76525056101253"><ele>468.5</ele><time>2026-05-01T16:10:33.842Z</time></trkpt><trkpt lat="44.06078498305464" lon="10.765299472373078"><ele>465.25</ele><time>2026-05-01T16:10:34.842Z</time></trkpt><trkpt lat="44.06091171595491" lon="10.765310231484463"><ele>462.0</ele><time>2026-05-01T16:10:35.842Z</time></trkpt><trkpt lat="44.06107698234985" lon="10.765332321651275"><ele>462.0</ele><time>2026-05-01T16:10:36.842Z</time></trkpt><trkpt lat="44.06123227231781" lon="10.765333499060542"><ele>462.0</ele><time>2026-05-01T16:10:37.842Z</time></trkpt><trkpt lat="44.06137743269848" lon="10.765331214845501"><ele>462.0</ele><time>2026-05-01T16:10:38.842Z</time></trkpt><trkpt lat="44.06151710765158" lon="10.765310024507027"><ele>462.0</ele><time>2026-05-01T16:10:39.842Z</time></trkpt><trkpt lat="44.06164135036919" lon="10.76527685553697"><ele>467.40000000000003</ele><time>2026-05-01T16:10:40.842Z</time></trkpt><trkpt lat="44.06172698091227" lon="10.765165723863163"><ele>472.80000000000007</ele><time>2026-05-01T16:10:41.842Z</time></trkpt><trkpt lat="44.06178449579632" lon="10.76504176391595"><ele>478.2</ele><time>2026-05-01T16:10:42.842Z</time></trkpt><trkpt lat="44.06181921806648" lon="10.764928095903597"><ele>483.6</ele><time>2026-05-01T16:10:43.842Z</time></trkpt><trkpt lat="44.06188291185857" lon="10.764803060693064"><ele>489.0</ele><time>2026-05-01T16:10:44.842Z</time></trkpt><trkpt lat="44.06200383614687" lon="10.764730142153287"><ele>489.0</ele><time>2026-05-01T16:10:45.842Z</time></trkpt><trkpt lat="44.06213474508981" lon="10.764699210664233"><ele>489.0</ele><time>2026-05-01T16:10:46.842Z</time></trkpt><trkpt lat="44.06228181520173" lon="10.76470787451126"><ele>489.0</ele><time>2026-05-01T16:10:47.842Z</time></trkpt><trkpt lat="44.06245858222738" lon="10.764692937307567"><ele>485.66666666666663</ele><time>2026-05-01T16:10:48.842Z</time></trkpt><trkpt lat="44.0626275426986" lon="10.764723891220731"><ele>482.3333333333333</ele><time>2026-05-01T16:10:49.842Z</time></trkpt><trkpt lat="44.06277688965591" lon="10.764730138170192"><ele>479.0</ele><time>2026-05-01T16:10:50.842Z</time></trkpt><trkpt lat="44.062916766898965" lon="10.7647423798494"><ele>479.0</ele><time>2026-05-01T16:10:51.842Z</time></trkpt><trkpt lat="44.06302396653651" lon="10.764778961376642"><ele>479.0</ele><time>2026-05-01T16:10:52.842Z</time></trkpt><trkpt lat="44.063123427415164" lon="10.764863380239118"><ele>479.0</ele><time>2026-05-01T16:10:53.842Z</time></trkpt><trkpt lat="44.06319839154483" lon="10.764994144034825"><ele>479.0</ele><time>2026-05-01T16:10:54.842Z</time></trkpt><trkpt lat="44.063261631256964" lon="10.765101792107448"><ele>479.0</ele><time>2026-05-01T16:10:55.842Z</time></trkpt><trkpt lat="44.06333870141193" lon="10.765183789362963"><ele>471.5</ele><time>2026-05-01T16:10:56.842Z</time></trkpt><trkpt lat="44.063461103857975" lon="10.765248414558275"><ele>464.0</ele><time>2026-05-01T16:10:57.842Z</time></trkpt><trkpt lat="44.063585635228" lon="10.765319807287774"><ele>456.5</ele><time>2026-05-01T16:10:58.842Z</time></trkpt><trkpt lat="44.06370152434015" lon="10.765405547076663"><ele>449.0</ele><time>2026-05-01T16:10:59.842Z</time></trkpt><trkpt lat="44.06380228637271" lon="10.76550328276531"><ele>449.0</ele><time>2026-05-01T16:11:00.842Z</time></trkpt><trkpt lat="44.0638814584142" lon="10.765609451635825"><ele>449.0</ele><time>2026-05-01T16:11:01.842Z</time></trkpt><trkpt lat="44.06394519145436" lon="10.76573409957014"><ele>449.0</ele><time>2026-05-01T16:11:02.842Z</time></trkpt><trkpt lat="44.06401493694906" lon="10.765888407025372"><ele>449.0</ele><time>2026-05-01T16:11:03.842Z</time></trkpt><trkpt lat="44.06408686781328" lon="10.766056910135898"><ele>450.75</ele><time>2026-05-01T16:11:04.842Z</time></trkpt><trkpt lat="44.064147225637335" lon="10.766210172372684"><ele>452.5</ele><time>2026-05-01T16:11:05.842Z</time></trkpt><trkpt lat="44.06419553836133" lon="10.766361089860325"><ele>454.25</ele><time>2026-05-01T16:11:06.842Z</time></trkpt><trkpt lat="44.06422928941049" lon="10.766513705873159"><ele>456.0</ele><time>2026-05-01T16:11:07.842Z</time></trkpt><trkpt lat="44.06421019438489" lon="10.766673061293021"><ele>456.0</ele><time>2026-05-01T16:11:08.842Z</time></trkpt><trkpt lat="44.0641562788899" lon="10.766829809708605"><ele>456.0</ele><time>2026-05-01T16:11:09.842Z</time></trkpt><trkpt lat="44.06407394048789" lon="10.766981572118226"><ele>456.0</ele><time>2026-05-01T16:11:10.842Z</time></trkpt><trkpt lat="44.06396329260432" lon="10.767120606591833"><ele>456.0</ele><time>2026-05-01T16:11:11.842Z</time></trkpt><trkpt lat="44.063843262564795" lon="10.76722664393645"><ele>461.25</ele><time>2026-05-01T16:11:12.842Z</time></trkpt><trkpt lat="44.06372176374021" lon="10.76730012141318"><ele>466.5</ele><time>2026-05-01T16:11:13.842Z</time></trkpt><trkpt lat="44.063607215939726" lon="10.767319434523293"><ele>471.75</ele><time>2026-05-01T16:11:14.842Z</time></trkpt><trkpt lat="44.06350115883254" lon="10.767271621041875"><ele>477.0</ele><time>2026-05-01T16:11:15.842Z</time></trkpt><trkpt lat="44.063398435911495" lon="10.767182055114583"><ele>477.0</ele><time>2026-05-01T16:11:16.842Z</time></trkpt><trkpt lat="44.063291292571286" lon="10.76709443741005"><ele>477.0</ele><time>2026-05-01T16:11:17.842Z</time></trkpt><trkpt lat="44.06319372143499" lon="10.766962869711064"><ele>477.0</ele><time>2026-05-01T16:11:18.843Z</time></trkpt><trkpt lat="44.06311078512985" lon="10.766773659293666"><ele>477.0</ele><time>2026-05-01T16:11:19.843Z</time></trkpt><trkpt lat="44.063033607711226" lon="10.7665767384883"><ele>476.5</ele><time>2026-05-01T16:11:20.843Z</time></trkpt><trkpt lat="44.062951880802814" lon="10.766430224818256"><ele>476.0</ele><time>2026-05-01T16:11:21.843Z</time></trkpt><trkpt lat="44.06286824935152" lon="10.766313593436928"><ele>475.5</ele><time>2026-05-01T16:11:22.843Z</time></trkpt><trkpt lat="44.06279072093436" lon="10.76617961615806"><ele>475.0</ele><time>2026-05-01T16:11:23.843Z</time></trkpt><trkpt lat="44.062704529380206" lon="10.766103529986278"><ele>475.0</ele><time>2026-05-01T16:11:24.842Z</time></trkpt><trkpt lat="44.06260670764325" lon="10.766045129196835"><ele>475.0</ele><time>2026-05-01T16:11:25.843Z</time></trkpt><trkpt lat="44.062476483980916" lon="10.76604425147917"><ele>475.0</ele><time>2026-05-01T16:11:26.843Z</time></trkpt><trkpt lat="44.06233134059222" lon="10.766133526114666"><ele>475.0</ele><time>2026-05-01T16:11:27.843Z</time></trkpt><trkpt lat="44.06221308687463" lon="10.766299281018673"><ele>475.0</ele><time>2026-05-01T16:11:28.842Z</time></trkpt><trkpt lat="44.06210634157365" lon="10.766476724955208"><ele>475.0</ele><time>2026-05-01T16:11:29.842Z</time></trkpt><trkpt lat="44.06196146969364" lon="10.7667219683257"><ele>475.0</ele><time>2026-05-01T16:11:30.843Z</time></trkpt><trkpt lat="44.06185926881606" lon="10.766992456189957"><ele>475.0</ele><time>2026-05-01T16:11:31.842Z</time></trkpt><trkpt lat="44.06177418295041" lon="10.767255096733203"><ele>475.0</ele><time>2026-05-01T16:11:32.842Z</time></trkpt><trkpt lat="44.06170984739025" lon="10.767383956075541"><ele>475.0</ele><time>2026-05-01T16:11:33.842Z</time></trkpt><trkpt lat="44.06163237650762" lon="10.767501321979536"><ele>475.0</ele><time>2026-05-01T16:11:34.842Z</time></trkpt><trkpt lat="44.06156779889985" lon="10.767597801382195"><ele>479.6666666666667</ele><time>2026-05-01T16:11:35.842Z</time></trkpt><trkpt lat="44.06139608609059" lon="10.767810187881295"><ele>484.33333333333337</ele><time>2026-05-01T16:11:36.842Z</time></trkpt><trkpt lat="44.06128979959862" lon="10.767976485193788"><ele>489.0</ele><time>2026-05-01T16:11:37.842Z</time></trkpt><trkpt lat="44.061186369527476" lon="10.768126561200994"><ele>489.0</ele><time>2026-05-01T16:11:38.842Z</time></trkpt><trkpt lat="44.06108461374195" lon="10.768237052365333"><ele>489.0</ele><time>2026-05-01T16:11:39.842Z</time></trkpt><trkpt lat="44.060961101088985" lon="10.768257260450024"><ele>489.0</ele><time>2026-05-01T16:11:40.842Z</time></trkpt><trkpt lat="44.06084341932925" lon="10.768217655453165"><ele>489.0</ele><time>2026-05-01T16:11:41.842Z</time></trkpt><trkpt lat="44.060694913278134" lon="10.768156100649039"><ele>494.33333333333337</ele><time>2026-05-01T16:11:42.842Z</time></trkpt><trkpt lat="44.060516612317606" lon="10.768091464770992"><ele>499.6666666666667</ele><time>2026-05-01T16:11:43.842Z</time></trkpt><trkpt lat="44.06032743560342" lon="10.768029949990355"><ele>505.0</ele><time>2026-05-01T16:11:44.842Z</time></trkpt><trkpt lat="44.06009653025478" lon="10.76795948515605"><ele>504.33333333333337</ele><time>2026-05-01T16:11:45.842Z</time></trkpt><trkpt lat="44.059877478983736" lon="10.767906617197164"><ele>503.66666666666663</ele><time>2026-05-01T16:11:46.842Z</time></trkpt><trkpt lat="44.0596999445431" lon="10.767862061443774"><ele>503.0</ele><time>2026-05-01T16:11:47.842Z</time></trkpt><trkpt lat="44.05954665257208" lon="10.767826957056414"><ele>503.0</ele><time>2026-05-01T16:11:48.842Z</time></trkpt><trkpt lat="44.05941321585733" lon="10.767846830220602"><ele>503.0</ele><time>2026-05-01T16:11:49.842Z</time></trkpt><trkpt lat="44.05928998938982" lon="10.767879664473549"><ele>503.0</ele><time>2026-05-01T16:11:50.842Z</time></trkpt><trkpt lat="44.05917808370528" lon="10.76797768175847"><ele>503.0</ele><time>2026-05-01T16:11:51.842Z</time></trkpt><trkpt lat="44.05907077067173" lon="10.76811043303116"><ele>504.25</ele><time>2026-05-01T16:11:52.842Z</time></trkpt><trkpt lat="44.05896723838401" lon="10.76825107853527"><ele>505.5</ele><time>2026-05-01T16:11:53.842Z</time></trkpt><trkpt lat="44.05885641344563" lon="10.76838211953313"><ele>506.75</ele><time>2026-05-01T16:11:54.842Z</time></trkpt><trkpt lat="44.05874678087448" lon="10.768503792963594"><ele>508.0</ele><time>2026-05-01T16:11:55.842Z</time></trkpt><trkpt lat="44.058632093306564" lon="10.768628108208746"><ele>508.0</ele><time>2026-05-01T16:11:56.842Z</time></trkpt><trkpt lat="44.05851439587805" lon="10.768750984216656"><ele>508.0</ele><time>2026-05-01T16:11:57.842Z</time></trkpt><trkpt lat="44.05838306630369" lon="10.768822219831083"><ele>508.0</ele><time>2026-05-01T16:11:58.842Z</time></trkpt><trkpt lat="44.05824308046116" lon="10.768882457573502"><ele>508.0</ele><time>2026-05-01T16:11:59.842Z</time></trkpt><trkpt lat="44.058139596003876" lon="10.768956473388215"><ele>506.5</ele><time>2026-05-01T16:12:00.842Z</time></trkpt><trkpt lat="44.058046857672096" lon="10.769066723875989"><ele>505.0</ele><time>2026-05-01T16:12:01.842Z</time></trkpt><trkpt lat="44.058012262175374" lon="10.769191390569706"><ele>503.5</ele><time>2026-05-01T16:12:02.842Z</time></trkpt><trkpt lat="44.05797647143673" lon="10.769327972416663"><ele>502.0</ele><time>2026-05-01T16:12:03.842Z</time></trkpt><trkpt lat="44.05796912876424" lon="10.769533945767016"><ele>502.0</ele><time>2026-05-01T16:12:04.842Z</time></trkpt><trkpt lat="44.05798766731911" lon="10.769723956250044"><ele>502.0</ele><time>2026-05-01T16:12:05.842Z</time></trkpt><trkpt lat="44.058023973295285" lon="10.769893548836196"><ele>502.0</ele><time>2026-05-01T16:12:06.842Z</time></trkpt><trkpt lat="44.0580685991142" lon="10.770045978057198"><ele>502.0</ele><time>2026-05-01T16:12:07.842Z</time></trkpt><trkpt lat="44.05805925567665" lon="10.770172886311181"><ele>504.40000000000003</ele><time>2026-05-01T16:12:08.842Z</time></trkpt><trkpt lat="44.05798886295283" lon="10.770307154625378"><ele>506.80000000000007</ele><time>2026-05-01T16:12:09.842Z</time></trkpt><trkpt lat="44.05789578343247" lon="10.770399767353794"><ele>509.2</ele><time>2026-05-01T16:12:10.842Z</time></trkpt><trkpt lat="44.05778838791238" lon="10.770460105452258"><ele>511.6</ele><time>2026-05-01T16:12:11.842Z</time></trkpt><trkpt lat="44.05769753406627" lon="10.770502684261848"><ele>514.0</ele><time>2026-05-01T16:12:12.842Z</time></trkpt><trkpt lat="44.057630700499836" lon="10.770562751511077"><ele>514.0</ele><time>2026-05-01T16:12:13.842Z</time></trkpt><trkpt lat="44.05760269569114" lon="10.770646650102103"><ele>514.0</ele><time>2026-05-01T16:12:14.842Z</time></trkpt><trkpt lat="44.057584029062404" lon="10.77076411948478"><ele>514.0</ele><time>2026-05-01T16:12:15.842Z</time></trkpt><trkpt lat="44.057580053802575" lon="10.77090803229888"><ele>514.0</ele><time>2026-05-01T16:12:16.842Z</time></trkpt><trkpt lat="44.057576647190125" lon="10.77105594065607"><ele>514.0</ele><time>2026-05-01T16:12:17.842Z</time></trkpt><trkpt lat="44.05757293907312" lon="10.771194270841"><ele>514.4</ele><time>2026-05-01T16:12:18.842Z</time></trkpt><trkpt lat="44.05754420838431" lon="10.771285800290473"><ele>514.8</ele><time>2026-05-01T16:12:19.842Z</time></trkpt><trkpt lat="44.057414778140554" lon="10.771290282960232"><ele>515.2</ele><time>2026-05-01T16:12:21.842Z</time></trkpt><trkpt lat="44.05731209497582" lon="10.771301902791514"><ele>515.6</ele><time>2026-05-01T16:12:22.842Z</time></trkpt><trkpt lat="44.05717586440214" lon="10.771337346329712"><ele>516.0</ele><time>2026-05-01T16:12:23.842Z</time></trkpt><trkpt lat="44.057024710108905" lon="10.771402357442284"><ele>516.0</ele><time>2026-05-01T16:12:24.842Z</time></trkpt><trkpt lat="44.05686972512401" lon="10.77145868582244"><ele>516.0</ele><time>2026-05-01T16:12:25.842Z</time></trkpt><trkpt lat="44.05671889972323" lon="10.771514505352377"><ele>516.0</ele><time>2026-05-01T16:12:26.842Z</time></trkpt><trkpt lat="44.05654018962979" lon="10.771559734928728"><ele>512.3333333333334</ele><time>2026-05-01T16:12:27.842Z</time></trkpt><trkpt lat="44.056353593974784" lon="10.771637066467573"><ele>508.6666666666667</ele><time>2026-05-01T16:12:28.842Z</time></trkpt><trkpt lat="44.056174314003755" lon="10.77170302082625"><ele>505.0</ele><time>2026-05-01T16:12:29.842Z</time></trkpt><trkpt lat="44.05600605209386" lon="10.77177432810802"><ele>505.0</ele><time>2026-05-01T16:12:30.842Z</time></trkpt><trkpt lat="44.055845361965474" lon="10.771838912133077"><ele>505.0</ele><time>2026-05-01T16:12:31.842Z</time></trkpt><trkpt lat="44.05570659120676" lon="10.771904403102758"><ele>505.0</ele><time>2026-05-01T16:12:32.842Z</time></trkpt><trkpt lat="44.055576818379826" lon="10.771966721589916"><ele>507.6666666666667</ele><time>2026-05-01T16:12:33.842Z</time></trkpt><trkpt lat="44.0554350493094" lon="10.772018312542595"><ele>510.33333333333337</ele><time>2026-05-01T16:12:34.842Z</time></trkpt><trkpt lat="44.05528224014588" lon="10.772066601033941"><ele>513.0</ele><time>2026-05-01T16:12:35.842Z</time></trkpt><trkpt lat="44.05513314829134" lon="10.77211899188537"><ele>513.0</ele><time>2026-05-01T16:12:36.842Z</time></trkpt><trkpt lat="44.054996915363276" lon="10.772164167018897"><ele>513.0</ele><time>2026-05-01T16:12:37.842Z</time></trkpt><trkpt lat="44.05488589352388" lon="10.772202751675282"><ele>513.0</ele><time>2026-05-01T16:12:38.842Z</time></trkpt><trkpt lat="44.05478618894615" lon="10.772228906091712"><ele>513.0</ele><time>2026-05-01T16:12:39.842Z</time></trkpt><trkpt lat="44.05469329518667" lon="10.772177227773561"><ele>513.6</ele><time>2026-05-01T16:12:40.842Z</time></trkpt><trkpt lat="44.05462855947744" lon="10.772086242045638"><ele>514.1999999999999</ele><time>2026-05-01T16:12:41.842Z</time></trkpt><trkpt lat="44.054543387392904" lon="10.771996464645262"><ele>514.8</ele><time>2026-05-01T16:12:42.842Z</time></trkpt><trkpt lat="44.05445416813058" lon="10.771903603570163"><ele>515.4</ele><time>2026-05-01T16:12:43.842Z</time></trkpt><trkpt lat="44.05436817914688" lon="10.77181463748414"><ele>516.0</ele><time>2026-05-01T16:12:44.842Z</time></trkpt><trkpt lat="44.054251148220324" lon="10.771836822723275"><ele>511.4</ele><time>2026-05-01T16:12:45.842Z</time></trkpt><trkpt lat="44.05417369879117" lon="10.77182762654073"><ele>506.8</ele><time>2026-05-01T16:12:46.842Z</time></trkpt><trkpt lat="44.054093473295765" lon="10.771840795190089"><ele>502.19999999999993</ele><time>2026-05-01T16:12:47.842Z</time></trkpt><trkpt lat="44.0539941959517" lon="10.771824272242014"><ele>497.59999999999997</ele><time>2026-05-01T16:12:48.842Z</time></trkpt><trkpt lat="44.0538751453415" lon="10.77182576672189"><ele>493.0</ele><time>2026-05-01T16:12:49.842Z</time></trkpt><trkpt lat="44.05374442352763" lon="10.771826813928792"><ele>490.0</ele><time>2026-05-01T16:12:50.842Z</time></trkpt><trkpt lat="44.05360629288193" lon="10.771826200350636"><ele>487.0</ele><time>2026-05-01T16:12:51.842Z</time></trkpt><trkpt lat="44.05347650464536" lon="10.771822043703727"><ele>484.0</ele><time>2026-05-01T16:12:52.842Z</time></trkpt><trkpt lat="44.053377446625234" lon="10.771834612389528"><ele>481.0</ele><time>2026-05-01T16:12:53.842Z</time></trkpt><trkpt lat="44.05327854855733" lon="10.771791012511464"><ele>480.8</ele><time>2026-05-01T16:12:54.842Z</time></trkpt><trkpt lat="44.053196799884546" lon="10.77182193714774"><ele>480.6</ele><time>2026-05-01T16:12:55.842Z</time></trkpt><trkpt lat="44.053106589948065" lon="10.771875134143238"><ele>480.4</ele><time>2026-05-01T16:12:56.842Z</time></trkpt><trkpt lat="44.053042051236304" lon="10.772025588688292"><ele>480.2</ele><time>2026-05-01T16:12:57.843Z</time></trkpt><trkpt lat="44.0529566115864" lon="10.772156999545315"><ele>480.0</ele><time>2026-05-01T16:12:58.843Z</time></trkpt><trkpt lat="44.0528616330999" lon="10.77227105624956"><ele>480.0</ele><time>2026-05-01T16:12:59.843Z</time></trkpt><trkpt lat="44.05276605812247" lon="10.772354722231544"><ele>480.0</ele><time>2026-05-01T16:13:00.843Z</time></trkpt><trkpt lat="44.05265989170584" lon="10.772425317672779"><ele>480.0</ele><time>2026-05-01T16:13:01.843Z</time></trkpt><trkpt lat="44.05253517367478" lon="10.772505327281353"><ele>480.0</ele><time>2026-05-01T16:13:02.843Z</time></trkpt><trkpt lat="44.05239847184581" lon="10.772582825350062"><ele>481.0</ele><time>2026-05-01T16:13:03.843Z</time></trkpt><trkpt lat="44.052246838753824" lon="10.772645923192549"><ele>482.0</ele><time>2026-05-01T16:13:04.843Z</time></trkpt><trkpt lat="44.05210751018512" lon="10.77269439266778"><ele>483.0</ele><time>2026-05-01T16:13:05.843Z</time></trkpt><trkpt lat="44.051977704343614" lon="10.772734756547155"><ele>484.0</ele><time>2026-05-01T16:13:06.843Z</time></trkpt><trkpt lat="44.05187622923589" lon="10.772794011133518"><ele>484.0</ele><time>2026-05-01T16:13:07.843Z</time></trkpt><trkpt lat="44.05179888517082" lon="10.772861806559858"><ele>484.0</ele><time>2026-05-01T16:13:08.843Z</time></trkpt><trkpt lat="44.05173123599301" lon="10.772969351246378"><ele>484.0</ele><time>2026-05-01T16:13:09.843Z</time></trkpt><trkpt lat="44.051670280830834" lon="10.773103641761404"><ele>484.0</ele><time>2026-05-01T16:13:10.843Z</time></trkpt><trkpt lat="44.05160749810224" lon="10.773245852557572"><ele>484.0</ele><time>2026-05-01T16:13:11.843Z</time></trkpt><trkpt lat="44.05154826490334" lon="10.773380985820022"><ele>484.50000000000006</ele><time>2026-05-01T16:13:12.843Z</time></trkpt><trkpt lat="44.051501695631416" lon="10.773479588872931"><ele>485.0</ele><time>2026-05-01T16:13:13.843Z</time></trkpt><trkpt lat="44.051457616501004" lon="10.773561435868825"><ele>485.5</ele><time>2026-05-01T16:13:14.843Z</time></trkpt><trkpt lat="44.05139454063291" lon="10.773590741480335"><ele>486.0</ele><time>2026-05-01T16:13:15.843Z</time></trkpt><trkpt lat="44.05133262456358" lon="10.773566682839274"><ele>486.50000000000006</ele><time>2026-05-01T16:13:16.843Z</time></trkpt><trkpt lat="44.05127809898556" lon="10.773459791862168"><ele>487.0</ele><time>2026-05-01T16:13:17.843Z</time></trkpt><trkpt lat="44.051185900240945" lon="10.773385142954016"><ele>487.0</ele><time>2026-05-01T16:13:18.843Z</time></trkpt><trkpt lat="44.05110452648991" lon="10.773289490267473"><ele>487.00000000000006</ele><time>2026-05-01T16:13:19.843Z</time></trkpt><trkpt lat="44.051039742187946" lon="10.773218317802137"><ele>487.00000000000006</ele><time>2026-05-01T16:13:20.843Z</time></trkpt><trkpt lat="44.05098423002864" lon="10.773155318594194"><ele>487.0</ele><time>2026-05-01T16:13:21.843Z</time></trkpt><trkpt lat="44.050938061067" lon="10.772989876171115"><ele>487.0</ele><time>2026-05-01T16:13:23.843Z</time></trkpt><trkpt lat="44.05097523082007" lon="10.772878359323117"><ele>487.0</ele><time>2026-05-01T16:13:24.843Z</time></trkpt><trkpt lat="44.051016296979036" lon="10.772733816327564"><ele>487.0</ele><time>2026-05-01T16:13:25.843Z</time></trkpt><trkpt lat="44.05105694505352" lon="10.772561275460488"><ele>487.0</ele><time>2026-05-01T16:13:26.843Z</time></trkpt><trkpt lat="44.051090854260245" lon="10.772350577911045"><ele>487.0</ele><time>2026-05-01T16:13:27.843Z</time></trkpt><trkpt lat="44.05116553943164" lon="10.772116533819377"><ele>493.6666666666667</ele><time>2026-05-01T16:13:28.843Z</time></trkpt><trkpt lat="44.051231332729" lon="10.771899567609534"><ele>500.33333333333337</ele><time>2026-05-01T16:13:29.843Z</time></trkpt><trkpt lat="44.05132334637284" lon="10.771687740263463"><ele>507.0</ele><time>2026-05-01T16:13:30.843Z</time></trkpt><trkpt lat="44.05142053602558" lon="10.771521562758027"><ele>508.0</ele><time>2026-05-01T16:13:31.843Z</time></trkpt><trkpt lat="44.0515044774577" lon="10.771380409831046"><ele>509.0</ele><time>2026-05-01T16:13:32.843Z</time></trkpt><trkpt lat="44.051555457380445" lon="10.771236075716738"><ele>510.0</ele><time>2026-05-01T16:13:33.844Z</time></trkpt><trkpt lat="44.051562057113735" lon="10.771090993856225"><ele>511.0</ele><time>2026-05-01T16:13:34.843Z</time></trkpt><trkpt lat="44.051528036894005" lon="10.770949238061174"><ele>508.75</ele><time>2026-05-01T16:13:35.843Z</time></trkpt><trkpt lat="44.05148743233302" lon="10.770843225250081"><ele>506.5</ele><time>2026-05-01T16:13:36.843Z</time></trkpt><trkpt lat="44.051413989552806" lon="10.770741905533187"><ele>504.25</ele><time>2026-05-01T16:13:37.842Z</time></trkpt><trkpt lat="44.05131213492057" lon="10.770665858514427"><ele>502.0</ele><time>2026-05-01T16:13:38.842Z</time></trkpt><trkpt lat="44.051197156018866" lon="10.770543314226789"><ele>502.0</ele><time>2026-05-01T16:13:39.842Z</time></trkpt><trkpt lat="44.051077951675765" lon="10.770413282202439"><ele>502.0</ele><time>2026-05-01T16:13:40.842Z</time></trkpt><trkpt lat="44.0509748737578" lon="10.77027580044006"><ele>502.0</ele><time>2026-05-01T16:13:41.842Z</time></trkpt><trkpt lat="44.05089710219712" lon="10.770129680660968"><ele>502.0</ele><time>2026-05-01T16:13:42.842Z</time></trkpt><trkpt lat="44.05084206568491" lon="10.769966891154386"><ele>500.5</ele><time>2026-05-01T16:13:43.842Z</time></trkpt><trkpt lat="44.05079789129632" lon="10.76977638874634"><ele>499.0</ele><time>2026-05-01T16:13:44.842Z</time></trkpt><trkpt lat="44.05076450327012" lon="10.769594639679765"><ele>497.5</ele><time>2026-05-01T16:13:45.842Z</time></trkpt><trkpt lat="44.0507323424964" lon="10.769435175075692"><ele>496.0</ele><time>2026-05-01T16:13:46.842Z</time></trkpt><trkpt lat="44.050733730715976" lon="10.76926928341261"><ele>496.20000000000005</ele><time>2026-05-01T16:13:47.842Z</time></trkpt><trkpt lat="44.05078720131124" lon="10.769111941274401"><ele>496.40000000000003</ele><time>2026-05-01T16:13:48.842Z</time></trkpt><trkpt lat="44.050852160711166" lon="10.768965638331974"><ele>496.6</ele><time>2026-05-01T16:13:49.842Z</time></trkpt><trkpt lat="44.05088700757307" lon="10.768831523664092"><ele>496.8</ele><time>2026-05-01T16:13:50.842Z</time></trkpt><trkpt lat="44.050880905666716" lon="10.768711124459108"><ele>497.0</ele><time>2026-05-01T16:13:51.842Z</time></trkpt><trkpt lat="44.05084700464118" lon="10.768619494355772"><ele>500.75</ele><time>2026-05-01T16:13:52.842Z</time></trkpt><trkpt lat="44.050775286033065" lon="10.768542960279335"><ele>504.5</ele><time>2026-05-01T16:13:53.842Z</time></trkpt><trkpt lat="44.05066605460286" lon="10.768432298065816"><ele>508.25</ele><time>2026-05-01T16:13:54.842Z</time></trkpt><trkpt lat="44.050528898669185" lon="10.768296771435027"><ele>512.0</ele><time>2026-05-01T16:13:55.842Z</time></trkpt><trkpt lat="44.05038552358972" lon="10.768149081708101"><ele>512.0</ele><time>2026-05-01T16:13:56.842Z</time></trkpt><trkpt lat="44.050255987369106" lon="10.768022340786851"><ele>512.0</ele><time>2026-05-01T16:13:57.842Z</time></trkpt><trkpt lat="44.05013725935433" lon="10.767925280297973"><ele>512.0</ele><time>2026-05-01T16:13:58.842Z</time></trkpt><trkpt lat="44.05002352680289" lon="10.767860076870631"><ele>512.0</ele><time>2026-05-01T16:13:59.842Z</time></trkpt><trkpt lat="44.04991154425921" lon="10.767827011686832"><ele>514.0</ele><time>2026-05-01T16:14:00.842Z</time></trkpt><trkpt lat="44.04977718632972" lon="10.767822042327087"><ele>516.0</ele><time>2026-05-01T16:14:01.842Z</time></trkpt><trkpt lat="44.04962104405089" lon="10.767814187083147"><ele>518.0</ele><time>2026-05-01T16:14:02.842Z</time></trkpt><trkpt lat="44.04944821307935" lon="10.767825743821566"><ele>518.0</ele><time>2026-05-01T16:14:03.842Z</time></trkpt><trkpt lat="44.04926043853876" lon="10.767893099277094"><ele>518.0</ele><time>2026-05-01T16:14:04.842Z</time></trkpt><trkpt lat="44.04906130588025" lon="10.767937895722763"><ele>518.0</ele><time>2026-05-01T16:14:05.842Z</time></trkpt><trkpt lat="44.04886872609545" lon="10.767949703715939"><ele>523.6666666666666</ele><time>2026-05-01T16:14:06.842Z</time></trkpt><trkpt lat="44.048675874335096" lon="10.767923338999783"><ele>529.3333333333334</ele><time>2026-05-01T16:14:07.842Z</time></trkpt><trkpt lat="44.04848836692471" lon="10.767895464866484"><ele>535.0</ele><time>2026-05-01T16:14:08.842Z</time></trkpt><trkpt lat="44.04833392021574" lon="10.767884301589858"><ele>534.6666666666667</ele><time>2026-05-01T16:14:09.842Z</time></trkpt><trkpt lat="44.04818342086728" lon="10.767859590566148"><ele>534.3333333333334</ele><time>2026-05-01T16:14:10.843Z</time></trkpt><trkpt lat="44.04802900695049" lon="10.767802812027213"><ele>534.0</ele><time>2026-05-01T16:14:11.843Z</time></trkpt><trkpt lat="44.047867862308" lon="10.767689145754444"><ele>534.0</ele><time>2026-05-01T16:14:12.843Z</time></trkpt><trkpt lat="44.04771408983034" lon="10.767563730359496"><ele>534.0</ele><time>2026-05-01T16:14:13.843Z</time></trkpt><trkpt lat="44.04755913322995" lon="10.76743070285091"><ele>534.0</ele><time>2026-05-01T16:14:14.843Z</time></trkpt><trkpt lat="44.04741111671464" lon="10.767280448336809"><ele>538.0</ele><time>2026-05-01T16:14:15.843Z</time></trkpt><trkpt lat="44.04727793374515" lon="10.767099972695439"><ele>542.0</ele><time>2026-05-01T16:14:16.843Z</time></trkpt><trkpt lat="44.04714009305924" lon="10.766896033687706"><ele>546.0</ele><time>2026-05-01T16:14:17.843Z</time></trkpt><trkpt lat="44.046989243121644" lon="10.766721332669707"><ele>546.0</ele><time>2026-05-01T16:14:18.843Z</time></trkpt><trkpt lat="44.04684022598063" lon="10.766554737140485"><ele>546.0</ele><time>2026-05-01T16:14:19.843Z</time></trkpt><trkpt lat="44.0467117166761" lon="10.766391289444938"><ele>546.0</ele><time>2026-05-01T16:14:20.843Z</time></trkpt><trkpt lat="44.046604788878504" lon="10.766225747606526"><ele>548.75</ele><time>2026-05-01T16:14:21.843Z</time></trkpt><trkpt lat="44.04650906532134" lon="10.766059299083782"><ele>551.5</ele><time>2026-05-01T16:14:22.843Z</time></trkpt><trkpt lat="44.046438815545336" lon="10.765888989164804"><ele>554.25</ele><time>2026-05-01T16:14:23.843Z</time></trkpt><trkpt lat="44.046389208274555" lon="10.765698611449888"><ele>557.0</ele><time>2026-05-01T16:14:24.843Z</time></trkpt><trkpt lat="44.04632127623778" lon="10.765521581666052"><ele>557.0</ele><time>2026-05-01T16:14:25.843Z</time></trkpt><trkpt lat="44.04624184901182" lon="10.765346193687911"><ele>557.0</ele><time>2026-05-01T16:14:26.843Z</time></trkpt><trkpt lat="44.04617414220295" lon="10.76520258521423"><ele>557.0</ele><time>2026-05-01T16:14:27.843Z</time></trkpt><trkpt lat="44.04608668804093" lon="10.765093398842717"><ele>557.0</ele><time>2026-05-01T16:14:28.843Z</time></trkpt><trkpt lat="44.04600071880424" lon="10.765042216066439"><ele>555.0</ele><time>2026-05-01T16:14:29.843Z</time></trkpt><trkpt lat="44.04591911658526" lon="10.76505872744634"><ele>553.0</ele><time>2026-05-01T16:14:30.843Z</time></trkpt><trkpt lat="44.04584392326484" lon="10.765102872731322"><ele>551.0</ele><time>2026-05-01T16:14:31.843Z</time></trkpt><trkpt lat="44.04576134896109" lon="10.765156481687832"><ele>549.0</ele><time>2026-05-01T16:14:32.843Z</time></trkpt><trkpt lat="44.045653007962" lon="10.765215228215693"><ele>547.0</ele><time>2026-05-01T16:14:33.843Z</time></trkpt><trkpt lat="44.04550799791286" lon="10.765214547753533"><ele>547.0</ele><time>2026-05-01T16:14:34.843Z</time></trkpt><trkpt lat="44.045384180781205" lon="10.765200313426222"><ele>547.0</ele><time>2026-05-01T16:14:35.843Z</time></trkpt><trkpt lat="44.045253187308184" lon="10.765130367942753"><ele>547.0</ele><time>2026-05-01T16:14:36.843Z</time></trkpt><trkpt lat="44.04513120961095" lon="10.765027687534397"><ele>547.0</ele><time>2026-05-01T16:14:37.843Z</time></trkpt><trkpt lat="44.04500814125214" lon="10.764915078071784"><ele>552.0</ele><time>2026-05-01T16:14:38.843Z</time></trkpt><trkpt lat="44.04489110705957" lon="10.764820348673148"><ele>557.0</ele><time>2026-05-01T16:14:39.843Z</time></trkpt><trkpt lat="44.04475999855629" lon="10.764763701020806"><ele>562.0</ele><time>2026-05-01T16:14:40.843Z</time></trkpt><trkpt lat="44.04461511264733" lon="10.764717217034438"><ele>567.0</ele><time>2026-05-01T16:14:41.843Z</time></trkpt><trkpt lat="44.044464570775794" lon="10.764681594181992"><ele>567.0</ele><time>2026-05-01T16:14:42.843Z</time></trkpt><trkpt lat="44.044320945557146" lon="10.764637449780059"><ele>567.0</ele><time>2026-05-01T16:14:43.843Z</time></trkpt><trkpt lat="44.04417185260485" lon="10.764577476108126"><ele>567.0</ele><time>2026-05-01T16:14:44.843Z</time></trkpt><trkpt lat="44.04403206780573" lon="10.764479609603958"><ele>565.75</ele><time>2026-05-01T16:14:45.843Z</time></trkpt><trkpt lat="44.043905365446356" lon="10.764339015456114"><ele>564.5</ele><time>2026-05-01T16:14:46.843Z</time></trkpt><trkpt lat="44.04379174041627" lon="10.764195595586468"><ele>563.25</ele><time>2026-05-01T16:14:47.843Z</time></trkpt><trkpt lat="44.04368913222065" lon="10.764084301097927"><ele>562.0</ele><time>2026-05-01T16:14:48.843Z</time></trkpt><trkpt lat="44.04359345259775" lon="10.764012204389962"><ele>562.0</ele><time>2026-05-01T16:14:49.843Z</time></trkpt><trkpt lat="44.04349432172971" lon="10.763972885405437"><ele>562.0</ele><time>2026-05-01T16:14:50.843Z</time></trkpt><trkpt lat="44.043371388560715" lon="10.763975978427165"><ele>562.0</ele><time>2026-05-01T16:14:51.843Z</time></trkpt><trkpt lat="44.0432274584918" lon="10.763967476003762"><ele>562.0</ele><time>2026-05-01T16:14:52.843Z</time></trkpt><trkpt lat="44.04308801984102" lon="10.76398664009593"><ele>563.0</ele><time>2026-05-01T16:14:53.843Z</time></trkpt><trkpt lat="44.042928845678645" lon="10.764012131917344"><ele>564.0</ele><time>2026-05-01T16:14:54.843Z</time></trkpt><trkpt lat="44.04278372940692" lon="10.764038999486104"><ele>565.0</ele><time>2026-05-01T16:14:55.843Z</time></trkpt><trkpt lat="44.0426267656583" lon="10.764072877407054"><ele>564.0</ele><time>2026-05-01T16:14:56.843Z</time></trkpt><trkpt lat="44.04241656390082" lon="10.764139422594825"><ele>563.0</ele><time>2026-05-01T16:14:57.843Z</time></trkpt><trkpt lat="44.04219702966127" lon="10.764243958576477"><ele>562.0</ele><time>2026-05-01T16:14:58.843Z</time></trkpt><trkpt lat="44.04201501061248" lon="10.764325477792784"><ele>565.3333333333334</ele><time>2026-05-01T16:14:59.843Z</time></trkpt><trkpt lat="44.04184396653804" lon="10.76438543135518"><ele>568.6666666666666</ele><time>2026-05-01T16:15:00.843Z</time></trkpt><trkpt lat="44.04167360508768" lon="10.7644115885017"><ele>572.0</ele><time>2026-05-01T16:15:01.843Z</time></trkpt><trkpt lat="44.04151873974892" lon="10.764404473631684"><ele>572.0</ele><time>2026-05-01T16:15:02.843Z</time></trkpt><trkpt lat="44.04137755788806" lon="10.764382482327091"><ele>572.0</ele><time>2026-05-01T16:15:03.843Z</time></trkpt><trkpt lat="44.041265976544" lon="10.764373064093222"><ele>572.0</ele><time>2026-05-01T16:15:04.843Z</time></trkpt><trkpt lat="44.04116163844564" lon="10.764415897322593"><ele>572.0</ele><time>2026-05-01T16:15:05.843Z</time></trkpt><trkpt lat="44.04108606062258" lon="10.76453900315928"><ele>572.0</ele><time>2026-05-01T16:15:06.843Z</time></trkpt><trkpt lat="44.04110652251475" lon="10.76469014369768"><ele>572.0</ele><time>2026-05-01T16:15:07.843Z</time></trkpt><trkpt lat="44.04114017240109" lon="10.764803253986392"><ele>572.0</ele><time>2026-05-01T16:15:08.843Z</time></trkpt><trkpt lat="44.041216986660835" lon="10.764883259125465"><ele>572.0</ele><time>2026-05-01T16:15:09.843Z</time></trkpt><trkpt lat="44.04131173214918" lon="10.76491119075532"><ele>572.0</ele><time>2026-05-01T16:15:10.843Z</time></trkpt><trkpt lat="44.041437035704" lon="10.764903687301585"><ele>572.0</ele><time>2026-05-01T16:15:11.843Z</time></trkpt><trkpt lat="44.041593211311096" lon="10.764868539828083"><ele>572.0</ele><time>2026-05-01T16:15:12.843Z</time></trkpt><trkpt lat="44.041760242823734" lon="10.764882442502795"><ele>572.0</ele><time>2026-05-01T16:15:13.843Z</time></trkpt><trkpt lat="44.041924580444864" lon="10.764859983563323"><ele>574.6666666666666</ele><time>2026-05-01T16:15:14.843Z</time></trkpt><trkpt lat="44.04207475499714" lon="10.764789046056617"><ele>577.3333333333334</ele><time>2026-05-01T16:15:15.843Z</time></trkpt><trkpt lat="44.04222588657716" lon="10.76470123481628"><ele>580.0</ele><time>2026-05-01T16:15:16.843Z</time></trkpt><trkpt lat="44.04236660337205" lon="10.764601723849344"><ele>583.5</ele><time>2026-05-01T16:15:17.843Z</time></trkpt><trkpt lat="44.04250253360023" lon="10.764524550467035"><ele>587.0</ele><time>2026-05-01T16:15:18.843Z</time></trkpt><trkpt lat="44.04265196764957" lon="10.764480950972294"><ele>590.5</ele><time>2026-05-01T16:15:19.843Z</time></trkpt><trkpt lat="44.042799303186946" lon="10.764466001320475"><ele>594.0</ele><time>2026-05-01T16:15:20.843Z</time></trkpt><trkpt lat="44.042945264899075" lon="10.764489002074155"><ele>594.0</ele><time>2026-05-01T16:15:21.843Z</time></trkpt><trkpt lat="44.04309154942249" lon="10.76455152502395"><ele>594.0</ele><time>2026-05-01T16:15:22.843Z</time></trkpt><trkpt lat="44.04323073365383" lon="10.764638331981988"><ele>594.0</ele><time>2026-05-01T16:15:23.843Z</time></trkpt><trkpt lat="44.043366063440395" lon="10.76474727412227"><ele>593.3333333333334</ele><time>2026-05-01T16:15:24.843Z</time></trkpt><trkpt lat="44.04350815314575" lon="10.764867815225706"><ele>592.6666666666667</ele><time>2026-05-01T16:15:25.843Z</time></trkpt><trkpt lat="44.04365160625101" lon="10.764992796210388"><ele>592.0</ele><time>2026-05-01T16:15:26.843Z</time></trkpt><trkpt lat="44.04378733092467" lon="10.765113503825932"><ele>591.3333333333334</ele><time>2026-05-01T16:15:27.843Z</time></trkpt><trkpt lat="44.043918275321545" lon="10.765254848452596"><ele>590.6666666666666</ele><time>2026-05-01T16:15:28.843Z</time></trkpt><trkpt lat="44.0440695301536" lon="10.765417529272785"><ele>590.0</ele><time>2026-05-01T16:15:29.843Z</time></trkpt><trkpt lat="44.04416611151382" lon="10.765623188908865"><ele>590.0</ele><time>2026-05-01T16:15:30.843Z</time></trkpt><trkpt lat="44.04419622496233" lon="10.765796508261921"><ele>590.0</ele><time>2026-05-01T16:15:31.844Z</time></trkpt><trkpt lat="44.044198521070754" lon="10.765907034287334"><ele>590.0</ele><time>2026-05-01T16:15:32.844Z</time></trkpt><trkpt lat="44.04419604168107" lon="10.766013879725948"><ele>590.0</ele><time>2026-05-01T16:15:33.844Z</time></trkpt><trkpt lat="44.04408066904227" lon="10.766117032274263"><ele>590.0</ele><time>2026-05-01T16:15:35.844Z</time></trkpt><trkpt lat="44.044054150821765" lon="10.766307992642435"><ele>591.0</ele><time>2026-05-01T16:15:36.844Z</time></trkpt><trkpt lat="44.044078865621046" lon="10.766511411452106"><ele>592.0</ele><time>2026-05-01T16:15:37.844Z</time></trkpt><trkpt lat="44.04414150879682" lon="10.766667479509563"><ele>593.0</ele><time>2026-05-01T16:15:38.844Z</time></trkpt><trkpt lat="44.044155820843486" lon="10.766820822729763"><ele>594.0</ele><time>2026-05-01T16:15:39.844Z</time></trkpt><trkpt lat="44.04416287099853" lon="10.766939953034385"><ele>597.8333333333334</ele><time>2026-05-01T16:15:40.844Z</time></trkpt><trkpt lat="44.044097792495265" lon="10.767013560118844"><ele>601.6666666666666</ele><time>2026-05-01T16:15:41.844Z</time></trkpt><trkpt lat="44.044034438871314" lon="10.767079090770471"><ele>605.5</ele><time>2026-05-01T16:15:42.844Z</time></trkpt><trkpt lat="44.04395676012489" lon="10.767061769478373"><ele>609.3333333333333</ele><time>2026-05-01T16:15:43.844Z</time></trkpt><trkpt lat="44.043888638820924" lon="10.767000892844543"><ele>613.1666666666666</ele><time>2026-05-01T16:15:44.844Z</time></trkpt><trkpt lat="44.04383725504301" lon="10.766884809587667"><ele>617.0</ele><time>2026-05-01T16:15:45.844Z</time></trkpt><trkpt lat="44.04380474009058" lon="10.766728819093686"><ele>617.0</ele><time>2026-05-01T16:15:46.844Z</time></trkpt><trkpt lat="44.043771132388805" lon="10.7665276313019"><ele>617.0</ele><time>2026-05-01T16:15:47.844Z</time></trkpt><trkpt lat="44.04376709266368" lon="10.766339630805094"><ele>617.0</ele><time>2026-05-01T16:15:48.844Z</time></trkpt><trkpt lat="44.04378308718579" lon="10.766171791063604"><ele>617.0</ele><time>2026-05-01T16:15:49.844Z</time></trkpt><trkpt lat="44.043806253465426" lon="10.765994906062106"><ele>616.0</ele><time>2026-05-01T16:15:50.844Z</time></trkpt><trkpt lat="44.04381447806828" lon="10.765861747932272"><ele>615.0</ele><time>2026-05-01T16:15:51.844Z</time></trkpt><trkpt lat="44.04380855186838" lon="10.76573105514542"><ele>614.0</ele><time>2026-05-01T16:15:52.844Z</time></trkpt><trkpt lat="44.043778143825925" lon="10.765607139653481"><ele>613.0</ele><time>2026-05-01T16:15:53.844Z</time></trkpt><trkpt lat="44.04370380912645" lon="10.765503476879559"><ele>612.0</ele><time>2026-05-01T16:15:54.844Z</time></trkpt><trkpt lat="44.04361428200915" lon="10.765406560227257"><ele>612.0</ele><time>2026-05-01T16:15:55.844Z</time></trkpt><trkpt lat="44.0434936813995" lon="10.765344568446263"><ele>612.0</ele><time>2026-05-01T16:15:56.844Z</time></trkpt><trkpt lat="44.04331780327627" lon="10.76525833394762"><ele>612.0</ele><time>2026-05-01T16:15:57.844Z</time></trkpt><trkpt lat="44.043173961155816" lon="10.76519561593375"><ele>607.5</ele><time>2026-05-01T16:15:58.844Z</time></trkpt><trkpt lat="44.04302845892945" lon="10.765159704250422"><ele>603.0</ele><time>2026-05-01T16:15:59.844Z</time></trkpt><trkpt lat="44.04288090991369" lon="10.765140749913362"><ele>598.5</ele><time>2026-05-01T16:16:00.844Z</time></trkpt><trkpt lat="44.04274550287655" lon="10.765165070371467"><ele>594.0</ele><time>2026-05-01T16:16:01.844Z</time></trkpt><trkpt lat="44.04263219985845" lon="10.765168292284503"><ele>595.0</ele><time>2026-05-01T16:16:02.844Z</time></trkpt><trkpt lat="44.04254072589657" lon="10.765251904786084"><ele>596.0</ele><time>2026-05-01T16:16:03.844Z</time></trkpt><trkpt lat="44.042481104055405" lon="10.765352045657409"><ele>597.0</ele><time>2026-05-01T16:16:04.844Z</time></trkpt><trkpt lat="44.04247176795733" lon="10.765524540333953"><ele>598.0</ele><time>2026-05-01T16:16:05.844Z</time></trkpt><trkpt lat="44.04243635329685" lon="10.765740398658924"><ele>598.0</ele><time>2026-05-01T16:16:06.844Z</time></trkpt><trkpt lat="44.04242240013904" lon="10.765972298763613"><ele>598.0</ele><time>2026-05-01T16:16:07.844Z</time></trkpt><trkpt lat="44.04239485862897" lon="10.766194755807307"><ele>598.0</ele><time>2026-05-01T16:16:08.844Z</time></trkpt><trkpt lat="44.04236142474018" lon="10.76638131265942"><ele>601.75</ele><time>2026-05-01T16:16:09.844Z</time></trkpt><trkpt lat="44.04231546220048" lon="10.76652293291291"><ele>605.5</ele><time>2026-05-01T16:16:10.844Z</time></trkpt><trkpt lat="44.04226203969313" lon="10.766671701579222"><ele>609.25</ele><time>2026-05-01T16:16:11.844Z</time></trkpt><trkpt lat="44.04218965140826" lon="10.76681337694659"><ele>613.0</ele><time>2026-05-01T16:16:12.844Z</time></trkpt><trkpt lat="44.04203789297613" lon="10.766912445654409"><ele>622.0</ele><time>2026-05-01T16:16:13.844Z</time></trkpt><trkpt lat="44.041861232518414" lon="10.76701223013915"><ele>631.0</ele><time>2026-05-01T16:16:14.844Z</time></trkpt><trkpt lat="44.04169046336216" lon="10.76711594736625"><ele>640.0</ele><time>2026-05-01T16:16:15.844Z</time></trkpt><trkpt lat="44.04154639578596" lon="10.767211124042017"><ele>641.75</ele><time>2026-05-01T16:16:16.844Z</time></trkpt><trkpt lat="44.041416813292926" lon="10.767282718665156"><ele>643.5</ele><time>2026-05-01T16:16:17.844Z</time></trkpt><trkpt lat="44.04128459589714" lon="10.767289320141117"><ele>645.25</ele><time>2026-05-01T16:16:18.844Z</time></trkpt><trkpt lat="44.04112013910658" lon="10.767272775203638"><ele>647.0</ele><time>2026-05-01T16:16:19.844Z</time></trkpt><trkpt lat="44.04093973426587" lon="10.767275030741436"><ele>652.6666666666666</ele><time>2026-05-01T16:16:20.844Z</time></trkpt><trkpt lat="44.04075649279442" lon="10.767236198837441"><ele>658.3333333333334</ele><time>2026-05-01T16:16:21.844Z</time></trkpt><trkpt lat="44.04060573925861" lon="10.767204830708632"><ele>664.0</ele><time>2026-05-01T16:16:22.844Z</time></trkpt><trkpt lat="44.0404693432873" lon="10.767137974196286"><ele>664.0</ele><time>2026-05-01T16:16:23.844Z</time></trkpt><trkpt lat="44.04033362515153" lon="10.76703265639916"><ele>664.0</ele><time>2026-05-01T16:16:24.844Z</time></trkpt><trkpt lat="44.0401876294087" lon="10.7669029266557"><ele>664.0</ele><time>2026-05-01T16:16:25.844Z</time></trkpt><trkpt lat="44.040027231782105" lon="10.76678693804154"><ele>655.0</ele><time>2026-05-01T16:16:26.844Z</time></trkpt><trkpt lat="44.03986770726702" lon="10.766667699007764"><ele>646.0</ele><time>2026-05-01T16:16:27.844Z</time></trkpt><trkpt lat="44.039698062787885" lon="10.7665914063859"><ele>637.0</ele><time>2026-05-01T16:16:28.844Z</time></trkpt><trkpt lat="44.03952849621848" lon="10.766582444340303"><ele>637.0</ele><time>2026-05-01T16:16:29.844Z</time></trkpt><trkpt lat="44.03938925467228" lon="10.766585908418927"><ele>637.0</ele><time>2026-05-01T16:16:30.844Z</time></trkpt><trkpt lat="44.03928727917051" lon="10.766654079325907"><ele>637.0</ele><time>2026-05-01T16:16:31.844Z</time></trkpt><trkpt lat="44.03920549982036" lon="10.766749929495447"><ele>637.0</ele><time>2026-05-01T16:16:32.844Z</time></trkpt><trkpt lat="44.039144215047145" lon="10.766898971617668"><ele>639.5</ele><time>2026-05-01T16:16:33.844Z</time></trkpt><trkpt lat="44.03905164165556" lon="10.767061455621953"><ele>642.0</ele><time>2026-05-01T16:16:34.844Z</time></trkpt><trkpt lat="44.03897826682731" lon="10.767227185242197"><ele>644.5</ele><time>2026-05-01T16:16:35.844Z</time></trkpt><trkpt lat="44.038916465252946" lon="10.76742282538612"><ele>647.0</ele><time>2026-05-01T16:16:36.844Z</time></trkpt><trkpt lat="44.03883587289911" lon="10.767592139470946"><ele>653.5</ele><time>2026-05-01T16:16:37.844Z</time></trkpt><trkpt lat="44.03876004467607" lon="10.76771900504801"><ele>660.0</ele><time>2026-05-01T16:16:38.844Z</time></trkpt><trkpt lat="44.0386719153708" lon="10.767829092054484"><ele>666.5</ele><time>2026-05-01T16:16:39.844Z</time></trkpt><trkpt lat="44.03855294476154" lon="10.7678423942814"><ele>673.0</ele><time>2026-05-01T16:16:40.844Z</time></trkpt><trkpt lat="44.0384335613806" lon="10.767869478407688"><ele>673.0</ele><time>2026-05-01T16:16:41.844Z</time></trkpt><trkpt lat="44.038302774778195" lon="10.767933291171454"><ele>673.0</ele><time>2026-05-01T16:16:42.844Z</time></trkpt><trkpt lat="44.038176134159016" lon="10.768024180078822"><ele>673.0</ele><time>2026-05-01T16:16:43.844Z</time></trkpt><trkpt lat="44.03806314910242" lon="10.768119535411223"><ele>673.0</ele><time>2026-05-01T16:16:44.844Z</time></trkpt><trkpt lat="44.03790820378861" lon="10.768204537206035"><ele>672.25</ele><time>2026-05-01T16:16:45.844Z</time></trkpt><trkpt lat="44.03778673984318" lon="10.76827173459565"><ele>671.5</ele><time>2026-05-01T16:16:46.844Z</time></trkpt><trkpt lat="44.037679931478905" lon="10.768291804247442"><ele>670.75</ele><time>2026-05-01T16:16:47.844Z</time></trkpt><trkpt lat="44.03756885961206" lon="10.768247936205714"><ele>670.0</ele><time>2026-05-01T16:16:48.844Z</time></trkpt><trkpt lat="44.03745164508449" lon="10.768182030767713"><ele>670.0</ele><time>2026-05-01T16:16:49.844Z</time></trkpt><trkpt lat="44.0373606181979" lon="10.768053735341987"><ele>670.0</ele><time>2026-05-01T16:16:50.844Z</time></trkpt><trkpt lat="44.03725130031069" lon="10.767959801038312"><ele>670.0</ele><time>2026-05-01T16:16:51.844Z</time></trkpt><trkpt lat="44.037152359402924" lon="10.767896667849307"><ele>670.0</ele><time>2026-05-01T16:16:52.844Z</time></trkpt><trkpt lat="44.03705653313422" lon="10.767896837088129"><ele>670.0</ele><time>2026-05-01T16:16:53.844Z</time></trkpt><trkpt lat="44.03694068689743" lon="10.76795290316974"><ele>670.0</ele><time>2026-05-01T16:16:54.844Z</time></trkpt><trkpt lat="44.03684203578032" lon="10.76811235850001"><ele>670.0</ele><time>2026-05-01T16:16:55.844Z</time></trkpt><trkpt lat="44.036710289449616" lon="10.768244690836964"><ele>670.0</ele><time>2026-05-01T16:16:56.844Z</time></trkpt><trkpt lat="44.03659092294978" lon="10.768368345574086"><ele>669.75</ele><time>2026-05-01T16:16:57.844Z</time></trkpt><trkpt lat="44.03647335359909" lon="10.768447261150232"><ele>669.5</ele><time>2026-05-01T16:16:58.844Z</time></trkpt><trkpt lat="44.03633897358104" lon="10.7683832756869"><ele>669.25</ele><time>2026-05-01T16:16:59.844Z</time></trkpt><trkpt lat="44.03620902608084" lon="10.768400470554056"><ele>669.0</ele><time>2026-05-01T16:17:00.844Z</time></trkpt><trkpt lat="44.03606226077917" lon="10.76838742125129"><ele>669.0</ele><time>2026-05-01T16:17:01.844Z</time></trkpt><trkpt lat="44.035914666270905" lon="10.76835230696374"><ele>669.0</ele><time>2026-05-01T16:17:02.844Z</time></trkpt><trkpt lat="44.03577262440275" lon="10.768290508071779"><ele>669.0</ele><time>2026-05-01T16:17:03.844Z</time></trkpt><trkpt lat="44.035630048841426" lon="10.768217418930636"><ele>669.5</ele><time>2026-05-01T16:17:04.844Z</time></trkpt><trkpt lat="44.03550642340045" lon="10.76815853986765"><ele>670.0</ele><time>2026-05-01T16:17:05.844Z</time></trkpt><trkpt lat="44.03538776013249" lon="10.768124652124698"><ele>670.5</ele><time>2026-05-01T16:17:06.844Z</time></trkpt><trkpt lat="44.03527025988231" lon="10.76814681047252"><ele>671.0</ele><time>2026-05-01T16:17:07.844Z</time></trkpt><trkpt lat="44.03514839013924" lon="10.768220745316054"><ele>671.0</ele><time>2026-05-01T16:17:08.844Z</time></trkpt><trkpt lat="44.035020463325274" lon="10.76835020813949"><ele>671.0</ele><time>2026-05-01T16:17:09.844Z</time></trkpt><trkpt lat="44.03488790800373" lon="10.768495318838024"><ele>671.0</ele><time>2026-05-01T16:17:10.844Z</time></trkpt><trkpt lat="44.0347481654987" lon="10.768655625114683"><ele>674.0</ele><time>2026-05-01T16:17:11.844Z</time></trkpt><trkpt lat="44.03461397049838" lon="10.768795960802604"><ele>677.0</ele><time>2026-05-01T16:17:12.844Z</time></trkpt><trkpt lat="44.03447163039097" lon="10.768921167764102"><ele>680.0</ele><time>2026-05-01T16:17:13.844Z</time></trkpt><trkpt lat="44.03431472798443" lon="10.769024840488438"><ele>680.0</ele><time>2026-05-01T16:17:14.844Z</time></trkpt><trkpt lat="44.034149181695774" lon="10.769109877101721"><ele>680.0</ele><time>2026-05-01T16:17:15.844Z</time></trkpt><trkpt lat="44.03396018085745" lon="10.769168731625768"><ele>680.0</ele><time>2026-05-01T16:17:16.844Z</time></trkpt><trkpt lat="44.03373689205771" lon="10.769230811561961"><ele>680.0</ele><time>2026-05-01T16:17:17.844Z</time></trkpt><trkpt lat="44.03349067984411" lon="10.769296834733067"><ele>680.0</ele><time>2026-05-01T16:17:18.844Z</time></trkpt><trkpt lat="44.03328050918248" lon="10.769353193177105"><ele>685.0</ele><time>2026-05-01T16:17:19.844Z</time></trkpt><trkpt lat="44.033096265055406" lon="10.769405309659538"><ele>690.0</ele><time>2026-05-01T16:17:20.844Z</time></trkpt><trkpt lat="44.032928185779134" lon="10.769456124894715"><ele>695.0</ele><time>2026-05-01T16:17:21.844Z</time></trkpt><trkpt lat="44.03278301603964" lon="10.76950051955001"><ele>695.0</ele><time>2026-05-01T16:17:22.844Z</time></trkpt><trkpt lat="44.03264748045835" lon="10.769563541746903"><ele>695.0</ele><time>2026-05-01T16:17:23.844Z</time></trkpt><trkpt lat="44.03251122691952" lon="10.76957380783121"><ele>695.0</ele><time>2026-05-01T16:17:24.844Z</time></trkpt><trkpt lat="44.032364916415844" lon="10.76953425431332"><ele>695.0</ele><time>2026-05-01T16:17:25.844Z</time></trkpt><trkpt lat="44.03224250519027" lon="10.769503371362198"><ele>692.0</ele><time>2026-05-01T16:17:26.844Z</time></trkpt><trkpt lat="44.03212329775603" lon="10.76952338292344"><ele>689.0</ele><time>2026-05-01T16:17:27.844Z</time></trkpt><trkpt lat="44.03201485599895" lon="10.769586022083299"><ele>686.0</ele><time>2026-05-01T16:17:28.844Z</time></trkpt><trkpt lat="44.03192566472519" lon="10.769699719479334"><ele>683.0</ele><time>2026-05-01T16:17:29.844Z</time></trkpt><trkpt lat="44.03183424725576" lon="10.76984924513023"><ele>683.0</ele><time>2026-05-01T16:17:30.844Z</time></trkpt><trkpt lat="44.03174084621579" lon="10.770027719850132"><ele>683.0</ele><time>2026-05-01T16:17:31.844Z</time></trkpt><trkpt lat="44.03163872156771" lon="10.770225395542564"><ele>683.0</ele><time>2026-05-01T16:17:32.844Z</time></trkpt><trkpt lat="44.03153268093747" lon="10.770430652225805"><ele>682.75</ele><time>2026-05-01T16:17:33.844Z</time></trkpt><trkpt lat="44.03143516412376" lon="10.770622179926644"><ele>682.5</ele><time>2026-05-01T16:17:34.844Z</time></trkpt><trkpt lat="44.031353100339715" lon="10.770787663656602"><ele>682.25</ele><time>2026-05-01T16:17:35.844Z</time></trkpt><trkpt lat="44.031288254350365" lon="10.7709494193948"><ele>682.0</ele><time>2026-05-01T16:17:36.845Z</time></trkpt><trkpt lat="44.03123686425134" lon="10.771163976900977"><ele>686.3333333333334</ele><time>2026-05-01T16:17:37.845Z</time></trkpt><trkpt lat="44.03118747286686" lon="10.771409558817462"><ele>690.6666666666666</ele><time>2026-05-01T16:17:38.845Z</time></trkpt><trkpt lat="44.03113361747537" lon="10.771620445738101"><ele>695.0</ele><time>2026-05-01T16:17:39.845Z</time></trkpt><trkpt lat="44.03104986636306" lon="10.771781618143283"><ele>696.6666666666666</ele><time>2026-05-01T16:17:40.845Z</time></trkpt><trkpt lat="44.03093548404658" lon="10.771905666194073"><ele>698.3333333333334</ele><time>2026-05-01T16:17:41.845Z</time></trkpt><trkpt lat="44.03078548412245" lon="10.77206226979223"><ele>700.0</ele><time>2026-05-01T16:17:42.845Z</time></trkpt><trkpt lat="44.030637930109386" lon="10.772241865687217"><ele>700.0</ele><time>2026-05-01T16:17:43.845Z</time></trkpt><trkpt lat="44.03050961468669" lon="10.772448903120324"><ele>700.0</ele><time>2026-05-01T16:17:44.845Z</time></trkpt><trkpt lat="44.03038545099488" lon="10.772630610279041"><ele>700.0</ele><time>2026-05-01T16:17:45.845Z</time></trkpt><trkpt lat="44.030258590424104" lon="10.772783355685217"><ele>704.25</ele><time>2026-05-01T16:17:46.845Z</time></trkpt><trkpt lat="44.03016043543538" lon="10.772913583133116"><ele>708.5</ele><time>2026-05-01T16:17:47.845Z</time></trkpt><trkpt lat="44.03007518493081" lon="10.773020786277964"><ele>712.75</ele><time>2026-05-01T16:17:48.845Z</time></trkpt><trkpt lat="44.02995638066002" lon="10.77303999801193"><ele>717.0</ele><time>2026-05-01T16:17:49.845Z</time></trkpt><trkpt lat="44.02980932043171" lon="10.77300609848765"><ele>717.0</ele><time>2026-05-01T16:17:50.845Z</time></trkpt><trkpt lat="44.02964960967687" lon="10.772967614433131"><ele>717.0</ele><time>2026-05-01T16:17:51.845Z</time></trkpt><trkpt lat="44.02947949767653" lon="10.772964861217828"><ele>717.0</ele><time>2026-05-01T16:17:52.845Z</time></trkpt><trkpt lat="44.02931111144234" lon="10.773005475101279"><ele>718.0</ele><time>2026-05-01T16:17:53.845Z</time></trkpt><trkpt lat="44.02913443814415" lon="10.773075914886634"><ele>719.0</ele><time>2026-05-01T16:17:54.845Z</time></trkpt><trkpt lat="44.02894875518939" lon="10.773148133216315"><ele>720.0</ele><time>2026-05-01T16:17:55.845Z</time></trkpt><trkpt lat="44.02874787671098" lon="10.773210005478068"><ele>720.0</ele><time>2026-05-01T16:17:56.845Z</time></trkpt><trkpt lat="44.02856338529671" lon="10.773233156045613"><ele>720.0</ele><time>2026-05-01T16:17:57.845Z</time></trkpt><trkpt lat="44.028380676355034" lon="10.77323382485767"><ele>720.0</ele><time>2026-05-01T16:17:58.845Z</time></trkpt><trkpt lat="44.028204934002666" lon="10.77320469988072"><ele>722.6666666666666</ele><time>2026-05-01T16:17:59.845Z</time></trkpt><trkpt lat="44.0280184559784" lon="10.773174905194804"><ele>725.3333333333333</ele><time>2026-05-01T16:18:00.845Z</time></trkpt><trkpt lat="44.027834115821825" lon="10.773110112790372"><ele>728.0</ele><time>2026-05-01T16:18:01.845Z</time></trkpt><trkpt lat="44.02766071807158" lon="10.773025004905492"><ele>728.0</ele><time>2026-05-01T16:18:02.845Z</time></trkpt><trkpt lat="44.027505575804014" lon="10.77290736804854"><ele>728.0</ele><time>2026-05-01T16:18:03.845Z</time></trkpt><trkpt lat="44.027356303273514" lon="10.772761554044045"><ele>728.0</ele><time>2026-05-01T16:18:04.845Z</time></trkpt><trkpt lat="44.027200228373076" lon="10.77262465928308"><ele>733.3333333333333</ele><time>2026-05-01T16:18:05.845Z</time></trkpt><trkpt lat="44.02706743155458" lon="10.772455041249618"><ele>738.6666666666666</ele><time>2026-05-01T16:18:06.845Z</time></trkpt><trkpt lat="44.02696306320002" lon="10.77226763035673"><ele>744.0</ele><time>2026-05-01T16:18:07.845Z</time></trkpt><trkpt lat="44.02685132556055" lon="10.772092749837231"><ele>744.0</ele><time>2026-05-01T16:18:08.845Z</time></trkpt><trkpt lat="44.026759283523035" lon="10.771935308947297"><ele>744.0</ele><time>2026-05-01T16:18:09.845Z</time></trkpt><trkpt lat="44.02668617987212" lon="10.771811154831223"><ele>744.0</ele><time>2026-05-01T16:18:10.845Z</time></trkpt><trkpt lat="44.02660123029695" lon="10.77173497538471"><ele>744.0</ele><time>2026-05-01T16:18:11.845Z</time></trkpt><trkpt lat="44.02648585901215" lon="10.771691720639817"><ele>744.75</ele><time>2026-05-01T16:18:12.845Z</time></trkpt><trkpt lat="44.02636027691841" lon="10.771656405098861"><ele>745.5</ele><time>2026-05-01T16:18:13.845Z</time></trkpt><trkpt lat="44.02624640711162" lon="10.771613192691254"><ele>746.25</ele><time>2026-05-01T16:18:14.845Z</time></trkpt><trkpt lat="44.02615001489487" lon="10.77155837610691"><ele>747.0</ele><time>2026-05-01T16:18:15.845Z</time></trkpt><trkpt lat="44.026070364846994" lon="10.771467326057753"><ele>747.0</ele><time>2026-05-01T16:18:16.845Z</time></trkpt><trkpt lat="44.02602279717688" lon="10.771339788598736"><ele>747.0</ele><time>2026-05-01T16:18:17.845Z</time></trkpt><trkpt lat="44.02600375386964" lon="10.771168281677266"><ele>747.0</ele><time>2026-05-01T16:18:18.845Z</time></trkpt><trkpt lat="44.025975330885814" lon="10.770990793812441"><ele>747.0</ele><time>2026-05-01T16:18:19.845Z</time></trkpt><trkpt lat="44.02594465707788" lon="10.770805814769663"><ele>747.0</ele><time>2026-05-01T16:18:20.845Z</time></trkpt><trkpt lat="44.0259140216396" lon="10.77060660883478"><ele>747.0</ele><time>2026-05-01T16:18:21.845Z</time></trkpt><trkpt lat="44.02587544124497" lon="10.770413901620689"><ele>747.0</ele><time>2026-05-01T16:18:22.845Z</time></trkpt><trkpt lat="44.025830790236704" lon="10.77021987759569"><ele>747.0</ele><time>2026-05-01T16:18:23.845Z</time></trkpt><trkpt lat="44.02577550992949" lon="10.770035308971007"><ele>751.0</ele><time>2026-05-01T16:18:24.845Z</time></trkpt><trkpt lat="44.02571311268338" lon="10.769859972373162"><ele>755.0</ele><time>2026-05-01T16:18:25.845Z</time></trkpt><trkpt lat="44.025643885177715" lon="10.769680023861696"><ele>759.0</ele><time>2026-05-01T16:18:26.845Z</time></trkpt><trkpt lat="44.025589801321296" lon="10.769487440673348"><ele>763.0</ele><time>2026-05-01T16:18:27.845Z</time></trkpt><trkpt lat="44.0255224676936" lon="10.769315880273814"><ele>763.0</ele><time>2026-05-01T16:18:28.845Z</time></trkpt><trkpt lat="44.02544387851017" lon="10.769157015577381"><ele>763.0</ele><time>2026-05-01T16:18:29.845Z</time></trkpt><trkpt lat="44.025350607492" lon="10.769042792161818"><ele>763.0</ele><time>2026-05-01T16:18:30.845Z</time></trkpt><trkpt lat="44.0252549854941" lon="10.768996689925137"><ele>763.0</ele><time>2026-05-01T16:18:31.845Z</time></trkpt><trkpt lat="44.025160583981936" lon="10.769034086085906"><ele>763.0</ele><time>2026-05-01T16:18:32.845Z</time></trkpt><trkpt lat="44.02511019576869" lon="10.76912999563323"><ele>763.0</ele><time>2026-05-01T16:18:33.845Z</time></trkpt><trkpt lat="44.025131764343755" lon="10.76925824314102"><ele>763.0</ele><time>2026-05-01T16:18:34.845Z</time></trkpt><trkpt lat="44.02515547028972" lon="10.769372669102102"><ele>763.0</ele><time>2026-05-01T16:18:35.845Z</time></trkpt><trkpt lat="44.02519985183417" lon="10.769489901216033"><ele>763.0</ele><time>2026-05-01T16:18:36.845Z</time></trkpt><trkpt lat="44.02524849203025" lon="10.769615716387426"><ele>764.25</ele><time>2026-05-01T16:18:37.845Z</time></trkpt><trkpt lat="44.02528645466519" lon="10.769781294643407"><ele>765.5</ele><time>2026-05-01T16:18:38.845Z</time></trkpt><trkpt lat="44.02532245695787" lon="10.769964896713256"><ele>766.75</ele><time>2026-05-01T16:18:39.845Z</time></trkpt><trkpt lat="44.02533751313785" lon="10.77015733506875"><ele>768.0</ele><time>2026-05-01T16:18:40.845Z</time></trkpt><trkpt lat="44.02535402854281" lon="10.77032422093351"><ele>768.8</ele><time>2026-05-01T16:18:41.845Z</time></trkpt><trkpt lat="44.02534372108974" lon="10.770476478557585"><ele>769.5999999999999</ele><time>2026-05-01T16:18:42.845Z</time></trkpt><trkpt lat="44.02535531293154" lon="10.770622434581819"><ele>770.4000000000001</ele><time>2026-05-01T16:18:43.845Z</time></trkpt><trkpt lat="44.02536071558848" lon="10.770758517197576"><ele>771.2</ele><time>2026-05-01T16:18:44.845Z</time></trkpt><trkpt lat="44.025338220792975" lon="10.770894993938978"><ele>772.0</ele><time>2026-05-01T16:18:45.845Z</time></trkpt><trkpt lat="44.025262190417386" lon="10.771007963414029"><ele>770.75</ele><time>2026-05-01T16:18:46.845Z</time></trkpt><trkpt lat="44.02517125828409" lon="10.771153005326681"><ele>769.5</ele><time>2026-05-01T16:18:47.845Z</time></trkpt><trkpt lat="44.02508246283719" lon="10.771320129598266"><ele>768.25</ele><time>2026-05-01T16:18:48.845Z</time></trkpt><trkpt lat="44.024970025298266" lon="10.771455889891692"><ele>767.0</ele><time>2026-05-01T16:18:49.845Z</time></trkpt><trkpt lat="44.024878131993766" lon="10.771610291811637"><ele>772.75</ele><time>2026-05-01T16:18:50.845Z</time></trkpt><trkpt lat="44.02478362583303" lon="10.77175210634114"><ele>778.5</ele><time>2026-05-01T16:18:51.845Z</time></trkpt><trkpt lat="44.02468455600235" lon="10.771884285808765"><ele>784.25</ele><time>2026-05-01T16:18:52.845Z</time></trkpt><trkpt lat="44.02459362282545" lon="10.771963076618482"><ele>790.0</ele><time>2026-05-01T16:18:53.845Z</time></trkpt><trkpt lat="44.024507440865" lon="10.772037896856633"><ele>790.0</ele><time>2026-05-01T16:18:54.845Z</time></trkpt><trkpt lat="44.024431940695656" lon="10.772121006354453"><ele>790.0</ele><time>2026-05-01T16:18:55.845Z</time></trkpt><trkpt lat="44.024410506405346" lon="10.772252475120753"><ele>790.0</ele><time>2026-05-01T16:18:56.845Z</time></trkpt><trkpt lat="44.02440425669025" lon="10.772365016049063"><ele>790.0</ele><time>2026-05-01T16:18:57.845Z</time></trkpt><trkpt lat="44.02443372936812" lon="10.77248895952479"><ele>790.0</ele><time>2026-05-01T16:18:58.845Z</time></trkpt><trkpt lat="44.024499443711775" lon="10.772633803513248"><ele>793.75</ele><time>2026-05-01T16:18:59.845Z</time></trkpt><trkpt lat="44.02459156840061" lon="10.77277644189712"><ele>797.5</ele><time>2026-05-01T16:19:00.845Z</time></trkpt><trkpt lat="44.02468929578164" lon="10.772891982854578"><ele>801.25</ele><time>2026-05-01T16:19:01.845Z</time></trkpt><trkpt lat="44.02480835683938" lon="10.77299656101504"><ele>805.0</ele><time>2026-05-01T16:19:02.845Z</time></trkpt><trkpt lat="44.02493683229484" lon="10.7730653607805"><ele>803.8</ele><time>2026-05-01T16:19:03.845Z</time></trkpt><trkpt lat="44.025042321743946" lon="10.7731152676416"><ele>802.6</ele><time>2026-05-01T16:19:04.845Z</time></trkpt><trkpt lat="44.02511736561495" lon="10.773161248734553"><ele>801.4000000000001</ele><time>2026-05-01T16:19:05.845Z</time></trkpt><trkpt lat="44.02518900532225" lon="10.773243497194018"><ele>800.2</ele><time>2026-05-01T16:19:06.845Z</time></trkpt><trkpt lat="44.025234792716326" lon="10.773380220355778"><ele>799.0</ele><time>2026-05-01T16:19:07.845Z</time></trkpt><trkpt lat="44.02525923477219" lon="10.77353945642679"><ele>799.0</ele><time>2026-05-01T16:19:08.845Z</time></trkpt><trkpt lat="44.02526756766298" lon="10.773709530905522"><ele>799.0</ele><time>2026-05-01T16:19:09.845Z</time></trkpt><trkpt lat="44.02528703376763" lon="10.773882382681617"><ele>799.0</ele><time>2026-05-01T16:19:10.845Z</time></trkpt><trkpt lat="44.02531136368596" lon="10.774064617690271"><ele>799.0</ele><time>2026-05-01T16:19:11.845Z</time></trkpt><trkpt lat="44.02530284024726" lon="10.77423910565176"><ele>797.2</ele><time>2026-05-01T16:19:12.845Z</time></trkpt><trkpt lat="44.02529892802406" lon="10.774384206581075"><ele>795.4000000000001</ele><time>2026-05-01T16:19:13.845Z</time></trkpt><trkpt lat="44.02527860631896" lon="10.774524803360729"><ele>793.6</ele><time>2026-05-01T16:19:14.845Z</time></trkpt><trkpt lat="44.025222633047136" lon="10.774647561125024"><ele>791.8</ele><time>2026-05-01T16:19:15.845Z</time></trkpt><trkpt lat="44.025131288941424" lon="10.774733712028032"><ele>790.0</ele><time>2026-05-01T16:19:16.845Z</time></trkpt><trkpt lat="44.025034302637856" lon="10.774797274135292"><ele>795.6</ele><time>2026-05-01T16:19:17.845Z</time></trkpt><trkpt lat="44.024938596762446" lon="10.774872836136433"><ele>801.2</ele><time>2026-05-01T16:19:18.845Z</time></trkpt><trkpt lat="44.02484296919524" lon="10.774952317880468"><ele>806.8</ele><time>2026-05-01T16:19:19.845Z</time></trkpt><trkpt lat="44.02475262041639" lon="10.775023190841102"><ele>812.4</ele><time>2026-05-01T16:19:20.845Z</time></trkpt><trkpt lat="44.02466222938187" lon="10.775074511820357"><ele>818.0</ele><time>2026-05-01T16:19:21.845Z</time></trkpt><trkpt lat="44.024568440828304" lon="10.775101291479181"><ele>818.0</ele><time>2026-05-01T16:19:22.845Z</time></trkpt><trkpt lat="44.02447129157707" lon="10.775151948021849"><ele>818.0</ele><time>2026-05-01T16:19:23.845Z</time></trkpt><trkpt lat="44.024410600156784" lon="10.775258389502708"><ele>818.0</ele><time>2026-05-01T16:19:24.845Z</time></trkpt><trkpt lat="44.02441156602948" lon="10.775435580383686"><ele>818.0</ele><time>2026-05-01T16:19:25.845Z</time></trkpt><trkpt lat="44.02441877378788" lon="10.775588654294713"><ele>818.0</ele><time>2026-05-01T16:19:26.845Z</time></trkpt><trkpt lat="44.024399137222275" lon="10.775725595957416"><ele>816.0</ele><time>2026-05-01T16:19:27.845Z</time></trkpt><trkpt lat="44.024357194147505" lon="10.775845910966476"><ele>814.0</ele><time>2026-05-01T16:19:28.845Z</time></trkpt><trkpt lat="44.02428819273649" lon="10.776049497374625"><ele>812.0</ele><time>2026-05-01T16:19:29.845Z</time></trkpt><trkpt lat="44.02423267001477" lon="10.776321562236076"><ele>811.75</ele><time>2026-05-01T16:19:30.845Z</time></trkpt><trkpt lat="44.024194837072116" lon="10.77656419506607"><ele>811.5</ele><time>2026-05-01T16:19:31.845Z</time></trkpt><trkpt lat="44.02416575777676" lon="10.776763795179145"><ele>811.25</ele><time>2026-05-01T16:19:32.845Z</time></trkpt><trkpt lat="44.024150292759" lon="10.77692861288615"><ele>811.0</ele><time>2026-05-01T16:19:33.845Z</time></trkpt><trkpt lat="44.02415305505987" lon="10.77707634297979"><ele>811.0</ele><time>2026-05-01T16:19:34.845Z</time></trkpt><trkpt lat="44.024175323093175" lon="10.77722417894421"><ele>811.0</ele><time>2026-05-01T16:19:35.845Z</time></trkpt><trkpt lat="44.024216072575896" lon="10.777370763972469"><ele>811.0</ele><time>2026-05-01T16:19:36.845Z</time></trkpt><trkpt lat="44.0242662563374" lon="10.777538749339875"><ele>811.0</ele><time>2026-05-01T16:19:37.845Z</time></trkpt><trkpt lat="44.02431418121806" lon="10.77776332935302"><ele>810.0</ele><time>2026-05-01T16:19:38.845Z</time></trkpt><trkpt lat="44.02434613241827" lon="10.778060531757932"><ele>809.0</ele><time>2026-05-01T16:19:39.845Z</time></trkpt><trkpt lat="44.02436568527387" lon="10.778437451955764"><ele>806.0</ele><time>2026-05-01T16:19:40.845Z</time></trkpt><trkpt lat="44.024414142206936" lon="10.778785572466983"><ele>803.0</ele><time>2026-05-01T16:19:41.845Z</time></trkpt><trkpt lat="44.02443533257962" lon="10.779127205238705"><ele>802.5</ele><time>2026-05-01T16:19:42.845Z</time></trkpt><trkpt lat="44.02445508066536" lon="10.779491906536624"><ele>802.0</ele><time>2026-05-01T16:19:43.846Z</time></trkpt><trkpt lat="44.02447493870119" lon="10.779847943269816"><ele>806.5</ele><time>2026-05-01T16:19:44.846Z</time></trkpt><trkpt lat="44.024472087343966" lon="10.780183841741179"><ele>811.0</ele><time>2026-05-01T16:19:45.846Z</time></trkpt><trkpt lat="44.02448696439381" lon="10.780479842492516"><ele>811.0</ele><time>2026-05-01T16:19:46.846Z</time></trkpt><trkpt lat="44.02451474346424" lon="10.780735614008007"><ele>811.0</ele><time>2026-05-01T16:19:47.846Z</time></trkpt><trkpt lat="44.02450687953696" lon="10.78094884808642"><ele>811.0</ele><time>2026-05-01T16:19:48.846Z</time></trkpt><trkpt lat="44.02450642660932" lon="10.781097402030255"><ele>811.0</ele><time>2026-05-01T16:19:49.846Z</time></trkpt><trkpt lat="44.02448721735519" lon="10.781194580542696"><ele>815.0</ele><time>2026-05-01T16:19:50.846Z</time></trkpt><trkpt lat="44.024440638570155" lon="10.781266098073557"><ele>819.0</ele><time>2026-05-01T16:19:51.846Z</time></trkpt><trkpt lat="44.02430267553077" lon="10.781237391352581"><ele>823.0</ele><time>2026-05-01T16:19:52.846Z</time></trkpt><trkpt lat="44.02416749138434" lon="10.781270840167656"><ele>827.0</ele><time>2026-05-01T16:19:53.846Z</time></trkpt><trkpt lat="44.02400910801856" lon="10.781284239651942"><ele>829.5</ele><time>2026-05-01T16:19:54.845Z</time></trkpt><trkpt lat="44.02387174142409" lon="10.78126186056466"><ele>832.0</ele><time>2026-05-01T16:19:55.845Z</time></trkpt><trkpt lat="44.0237412280513" lon="10.781205090620162"><ele>834.5</ele><time>2026-05-01T16:19:56.845Z</time></trkpt><trkpt lat="44.02361710877189" lon="10.781097160721012"><ele>837.0</ele><time>2026-05-01T16:19:57.845Z</time></trkpt><trkpt lat="44.023496504679265" lon="10.781058095777341"><ele>835.2</ele><time>2026-05-01T16:19:58.845Z</time></trkpt><trkpt lat="44.02339373483246" lon="10.780997033557151"><ele>833.4000000000001</ele><time>2026-05-01T16:19:59.845Z</time></trkpt><trkpt lat="44.02331681431007" lon="10.780910126713811"><ele>831.5999999999999</ele><time>2026-05-01T16:20:00.845Z</time></trkpt><trkpt lat="44.02327732422225" lon="10.780786659358013"><ele>829.8</ele><time>2026-05-01T16:20:01.845Z</time></trkpt><trkpt lat="44.02333472554112" lon="10.780677447664123"><ele>828.0</ele><time>2026-05-01T16:20:02.845Z</time></trkpt><trkpt lat="44.02337804328637" lon="10.780536886723697"><ele>828.0</ele><time>2026-05-01T16:20:03.845Z</time></trkpt><trkpt lat="44.02339520837653" lon="10.780432914444392"><ele>828.0</ele><time>2026-05-01T16:20:04.845Z</time></trkpt><trkpt lat="44.02339091104476" lon="10.78026543154765"><ele>828.0</ele><time>2026-05-01T16:20:05.845Z</time></trkpt><trkpt lat="44.02335979793585" lon="10.78012436844224"><ele>828.0</ele><time>2026-05-01T16:20:06.845Z</time></trkpt><trkpt lat="44.023291407070744" lon="10.779989927424205"><ele>828.0</ele><time>2026-05-01T16:20:07.845Z</time></trkpt><trkpt lat="44.02321147475073" lon="10.77990519963253"><ele>829.75</ele><time>2026-05-01T16:20:08.845Z</time></trkpt><trkpt lat="44.02309366631674" lon="10.779867944066979"><ele>831.5</ele><time>2026-05-01T16:20:09.845Z</time></trkpt><trkpt lat="44.02296242531036" lon="10.779889711377017"><ele>833.25</ele><time>2026-05-01T16:20:10.845Z</time></trkpt><trkpt lat="44.02280408308118" lon="10.779902650029216"><ele>835.0</ele><time>2026-05-01T16:20:11.845Z</time></trkpt><trkpt lat="44.02263417513324" lon="10.779896295640091"><ele>831.3333333333333</ele><time>2026-05-01T16:20:12.845Z</time></trkpt><trkpt lat="44.02244478868167" lon="10.779877404346164"><ele>827.6666666666667</ele><time>2026-05-01T16:20:13.845Z</time></trkpt><trkpt lat="44.022258050601586" lon="10.77983016560249"><ele>824.0</ele><time>2026-05-01T16:20:14.845Z</time></trkpt><trkpt lat="44.02209798689491" lon="10.779781970317936"><ele>824.0</ele><time>2026-05-01T16:20:15.845Z</time></trkpt><trkpt lat="44.021963398314384" lon="10.779762638685167"><ele>824.0</ele><time>2026-05-01T16:20:16.845Z</time></trkpt><trkpt lat="44.02187733583214" lon="10.77976285964797"><ele>824.0</ele><time>2026-05-01T16:20:17.845Z</time></trkpt><trkpt lat="44.02180498190132" lon="10.779792144666052"><ele>824.0</ele><time>2026-05-01T16:20:18.845Z</time></trkpt><trkpt lat="44.02175105803613" lon="10.779860996476996"><ele>824.0</ele><time>2026-05-01T16:20:19.845Z</time></trkpt><trkpt lat="44.021712943382546" lon="10.779996127054213"><ele>824.0</ele><time>2026-05-01T16:20:20.845Z</time></trkpt><trkpt lat="44.02167890751483" lon="10.780149094943468"><ele>824.0</ele><time>2026-05-01T16:20:21.845Z</time></trkpt><trkpt lat="44.02165854311565" lon="10.78033219511948"><ele>824.0</ele><time>2026-05-01T16:20:22.845Z</time></trkpt><trkpt lat="44.02160141135651" lon="10.780513087372778"><ele>824.0</ele><time>2026-05-01T16:20:23.845Z</time></trkpt><trkpt lat="44.02155938290868" lon="10.780681275887419"><ele>827.5</ele><time>2026-05-01T16:20:24.845Z</time></trkpt><trkpt lat="44.021553978767784" lon="10.780854611181573"><ele>831.0</ele><time>2026-05-01T16:20:25.845Z</time></trkpt><trkpt lat="44.021591523067926" lon="10.781029296961325"><ele>834.5</ele><time>2026-05-01T16:20:26.845Z</time></trkpt><trkpt lat="44.021644599993984" lon="10.781204711344309"><ele>838.0</ele><time>2026-05-01T16:20:27.845Z</time></trkpt><trkpt lat="44.02170092173361" lon="10.781397838330413"><ele>838.0</ele><time>2026-05-01T16:20:28.845Z</time></trkpt><trkpt lat="44.021751263340896" lon="10.78160403139578"><ele>838.0</ele><time>2026-05-01T16:20:29.845Z</time></trkpt><trkpt lat="44.0217436870795" lon="10.781786371367064"><ele>838.0</ele><time>2026-05-01T16:20:30.845Z</time></trkpt><trkpt lat="44.02169414463239" lon="10.781922495562712"><ele>838.0</ele><time>2026-05-01T16:20:31.845Z</time></trkpt><trkpt lat="44.02160278170596" lon="10.781986749753838"><ele>833.75</ele><time>2026-05-01T16:20:32.845Z</time></trkpt><trkpt lat="44.02148080591334" lon="10.78204365773725"><ele>829.5</ele><time>2026-05-01T16:20:33.845Z</time></trkpt><trkpt lat="44.02135349871387" lon="10.78219323813795"><ele>825.25</ele><time>2026-05-01T16:20:35.845Z</time></trkpt><trkpt lat="44.02124584710488" lon="10.782298519375523"><ele>821.0</ele><time>2026-05-01T16:20:36.845Z</time></trkpt><trkpt lat="44.021183149887776" lon="10.782444727453743"><ele>821.0</ele><time>2026-05-01T16:20:37.845Z</time></trkpt><trkpt lat="44.02111600228166" lon="10.782631540539064"><ele>821.0</ele><time>2026-05-01T16:20:38.845Z</time></trkpt><trkpt lat="44.02102170583966" lon="10.782776789233901"><ele>821.0</ele><time>2026-05-01T16:20:39.845Z</time></trkpt><trkpt lat="44.02091710591296" lon="10.7828711074484"><ele>821.0</ele><time>2026-05-01T16:20:40.845Z</time></trkpt><trkpt lat="44.02086164036711" lon="10.782994019070612"><ele>813.75</ele><time>2026-05-01T16:20:41.845Z</time></trkpt><trkpt lat="44.02080974690787" lon="10.783137148672191"><ele>806.5</ele><time>2026-05-01T16:20:42.845Z</time></trkpt><trkpt lat="44.020786197790166" lon="10.7833144451858"><ele>799.25</ele><time>2026-05-01T16:20:43.845Z</time></trkpt><trkpt lat="44.020714966202426" lon="10.783460043658676"><ele>792.0</ele><time>2026-05-01T16:20:44.845Z</time></trkpt><trkpt lat="44.020665946359344" lon="10.783590958971208"><ele>792.0</ele><time>2026-05-01T16:20:45.845Z</time></trkpt><trkpt lat="44.02064423343903" lon="10.783724896286225"><ele>792.0</ele><time>2026-05-01T16:20:46.845Z</time></trkpt><trkpt lat="44.02066988264611" lon="10.783864801450148"><ele>792.0</ele><time>2026-05-01T16:20:47.845Z</time></trkpt><trkpt lat="44.02073807367597" lon="10.783999286007"><ele>792.0</ele><time>2026-05-01T16:20:48.845Z</time></trkpt><trkpt lat="44.020821112413536" lon="10.784067951277725"><ele>792.0</ele><time>2026-05-01T16:20:49.846Z</time></trkpt><trkpt lat="44.020902117515945" lon="10.784078336846123"><ele>803.75</ele><time>2026-05-01T16:20:50.846Z</time></trkpt><trkpt lat="44.0210245488788" lon="10.7840738895413"><ele>815.5</ele><time>2026-05-01T16:20:51.846Z</time></trkpt><trkpt lat="44.02115726083244" lon="10.784074372836445"><ele>827.25</ele><time>2026-05-01T16:20:52.846Z</time></trkpt><trkpt lat="44.02128932390747" lon="10.784124790176824"><ele>839.0</ele><time>2026-05-01T16:20:53.846Z</time></trkpt><trkpt lat="44.02142275912883" lon="10.784212895642494"><ele>839.0</ele><time>2026-05-01T16:20:54.846Z</time></trkpt><trkpt lat="44.02156229069669" lon="10.784319285117668"><ele>839.0</ele><time>2026-05-01T16:20:55.846Z</time></trkpt><trkpt lat="44.02170078124758" lon="10.784425871767334"><ele>839.0</ele><time>2026-05-01T16:20:56.846Z</time></trkpt><trkpt lat="44.02185987892759" lon="10.784525582993043"><ele>841.25</ele><time>2026-05-01T16:20:57.846Z</time></trkpt><trkpt lat="44.02200446053913" lon="10.784580934650993"><ele>843.5</ele><time>2026-05-01T16:20:58.846Z</time></trkpt><trkpt lat="44.02215834873587" lon="10.784610131114382"><ele>845.75</ele><time>2026-05-01T16:20:59.846Z</time></trkpt><trkpt lat="44.02229138862884" lon="10.784659199073426"><ele>848.0</ele><time>2026-05-01T16:21:00.846Z</time></trkpt><trkpt lat="44.02239712869471" lon="10.784682509538436"><ele>852.5</ele><time>2026-05-01T16:21:01.846Z</time></trkpt><trkpt lat="44.02250719448421" lon="10.784769699947468"><ele>857.0</ele><time>2026-05-01T16:21:02.846Z</time></trkpt><trkpt lat="44.02259084942798" lon="10.784924893227577"><ele>861.5</ele><time>2026-05-01T16:21:03.846Z</time></trkpt><trkpt lat="44.022621705329215" lon="10.785129543947512"><ele>866.0</ele><time>2026-05-01T16:21:04.846Z</time></trkpt><trkpt lat="44.02265652062157" lon="10.78533181571597"><ele>866.0</ele><time>2026-05-01T16:21:05.846Z</time></trkpt><trkpt lat="44.022674304061454" lon="10.785518862979636"><ele>866.0</ele><time>2026-05-01T16:21:06.846Z</time></trkpt><trkpt lat="44.02267715450786" lon="10.78571185257589"><ele>866.0</ele><time>2026-05-01T16:21:07.846Z</time></trkpt><trkpt lat="44.02266793075154" lon="10.785886532196656"><ele>866.0</ele><time>2026-05-01T16:21:08.846Z</time></trkpt><trkpt lat="44.02263993751701" lon="10.786089016569994"><ele>868.0</ele><time>2026-05-01T16:21:09.846Z</time></trkpt><trkpt lat="44.022587856597276" lon="10.786292693730957"><ele>870.0</ele><time>2026-05-01T16:21:10.846Z</time></trkpt><trkpt lat="44.02251642765727" lon="10.786498922689827"><ele>872.0</ele><time>2026-05-01T16:21:11.846Z</time></trkpt><trkpt lat="44.02243654136206" lon="10.786680701673133"><ele>871.5</ele><time>2026-05-01T16:21:12.846Z</time></trkpt><trkpt lat="44.02236842337834" lon="10.786864274164959"><ele>871.0</ele><time>2026-05-01T16:21:13.846Z</time></trkpt><trkpt lat="44.022313818066706" lon="10.787036633682128"><ele>870.5</ele><time>2026-05-01T16:21:14.846Z</time></trkpt><trkpt lat="44.02228970430189" lon="10.787181939416206"><ele>870.0</ele><time>2026-05-01T16:21:15.846Z</time></trkpt><trkpt lat="44.02230187709265" lon="10.787322924189494"><ele>870.0</ele><time>2026-05-01T16:21:16.846Z</time></trkpt><trkpt lat="44.02234925446699" lon="10.787473598384558"><ele>870.0</ele><time>2026-05-01T16:21:17.846Z</time></trkpt><trkpt lat="44.022401217627404" lon="10.787594909927739"><ele>870.0</ele><time>2026-05-01T16:21:18.846Z</time></trkpt><trkpt lat="44.022435808032505" lon="10.787694129078602"><ele>870.0</ele><time>2026-05-01T16:21:19.846Z</time></trkpt><trkpt lat="44.02241238847066" lon="10.78778554025453"><ele>870.0</ele><time>2026-05-01T16:21:20.846Z</time></trkpt><trkpt lat="44.02233573955926" lon="10.7878586142123"><ele>877.25</ele><time>2026-05-01T16:21:21.846Z</time></trkpt><trkpt lat="44.02222583908409" lon="10.787869847736834"><ele>884.5</ele><time>2026-05-01T16:21:22.846Z</time></trkpt><trkpt lat="44.02209425123858" lon="10.787847279073924"><ele>891.75</ele><time>2026-05-01T16:21:23.846Z</time></trkpt><trkpt lat="44.021938509805075" lon="10.78781818654281"><ele>899.0</ele><time>2026-05-01T16:21:24.846Z</time></trkpt><trkpt lat="44.02178150180264" lon="10.787802775103554"><ele>896.3333333333334</ele><time>2026-05-01T16:21:25.846Z</time></trkpt><trkpt lat="44.021624304088725" lon="10.787836660931836"><ele>893.6666666666667</ele><time>2026-05-01T16:21:26.846Z</time></trkpt><trkpt lat="44.021447099152894" lon="10.787901592999681"><ele>891.0</ele><time>2026-05-01T16:21:27.846Z</time></trkpt><trkpt lat="44.02125914526599" lon="10.787946241368603"><ele>891.0</ele><time>2026-05-01T16:21:28.846Z</time></trkpt><trkpt lat="44.021091598235856" lon="10.787985957364803"><ele>891.0</ele><time>2026-05-01T16:21:29.846Z</time></trkpt><trkpt lat="44.020936143183235" lon="10.788031270311205"><ele>891.0</ele><time>2026-05-01T16:21:30.846Z</time></trkpt><trkpt lat="44.02079774745673" lon="10.788083297992063"><ele>887.0</ele><time>2026-05-01T16:21:31.846Z</time></trkpt><trkpt lat="44.020660512873505" lon="10.788152374233723"><ele>883.0</ele><time>2026-05-01T16:21:32.846Z</time></trkpt><trkpt lat="44.02052823003204" lon="10.788229221685567"><ele>879.0</ele><time>2026-05-01T16:21:33.846Z</time></trkpt><trkpt lat="44.02041390068217" lon="10.788291146521889"><ele>875.0</ele><time>2026-05-01T16:21:34.846Z</time></trkpt><trkpt lat="44.02031568744227" lon="10.788351865854438"><ele>875.0000000000001</ele><time>2026-05-01T16:21:35.846Z</time></trkpt><trkpt lat="44.02023625281211" lon="10.788399957947902"><ele>875.0</ele><time>2026-05-01T16:21:36.846Z</time></trkpt><trkpt lat="44.02018404922938" lon="10.78845435288792"><ele>875.0</ele><time>2026-05-01T16:21:37.846Z</time></trkpt><trkpt lat="44.02012751996062" lon="10.788577227613354"><ele>875.0</ele><time>2026-05-01T16:21:39.846Z</time></trkpt><trkpt lat="44.02015167779143" lon="10.788682923675719"><ele>875.0000000000001</ele><time>2026-05-01T16:21:40.846Z</time></trkpt><trkpt lat="44.020180255486316" lon="10.788789842662634"><ele>875.0</ele><time>2026-05-01T16:21:41.846Z</time></trkpt><trkpt lat="44.02020356890638" lon="10.78888341046531"><ele>875.4</ele><time>2026-05-01T16:21:42.846Z</time></trkpt><trkpt lat="44.02023233635881" lon="10.788998867303139"><ele>875.8</ele><time>2026-05-01T16:21:43.846Z</time></trkpt><trkpt lat="44.02026106353193" lon="10.7891205493043"><ele>876.2</ele><time>2026-05-01T16:21:44.846Z</time></trkpt><trkpt lat="44.020282206701324" lon="10.789209565692548"><ele>876.6</ele><time>2026-05-01T16:21:45.846Z</time></trkpt><trkpt lat="44.020325956740884" lon="10.78935437993966"><ele>877.0</ele><time>2026-05-01T16:21:47.846Z</time></trkpt><trkpt lat="44.02033519966561" lon="10.789499574449898"><ele>877.0</ele><time>2026-05-01T16:21:49.847Z</time></trkpt><trkpt lat="44.02031239771113" lon="10.78967924801317"><ele>877.0</ele><time>2026-05-01T16:21:51.846Z</time></trkpt><trkpt lat="44.02028918255886" lon="10.78979759424188"><ele>877.0</ele><time>2026-05-01T16:21:52.846Z</time></trkpt><trkpt lat="44.020229150658295" lon="10.789962039507165"><ele>877.0</ele><time>2026-05-01T16:21:53.846Z</time></trkpt><trkpt lat="44.02016291496335" lon="10.79018108022661"><ele>878.6666666666666</ele><time>2026-05-01T16:21:54.846Z</time></trkpt><trkpt lat="44.0201012427854" lon="10.790433307263585"><ele>880.3333333333333</ele><time>2026-05-01T16:21:55.847Z</time></trkpt><trkpt lat="44.02004456062822" lon="10.790639226789468"><ele>882.0</ele><time>2026-05-01T16:21:56.847Z</time></trkpt><trkpt lat="44.019992016395264" lon="10.790826417010424"><ele>882.5</ele><time>2026-05-01T16:21:57.847Z</time></trkpt><trkpt lat="44.01996497713658" lon="10.791020224430667"><ele>883.0</ele><time>2026-05-01T16:21:58.846Z</time></trkpt><trkpt lat="44.01994535498145" lon="10.791214419705934"><ele>883.5</ele><time>2026-05-01T16:21:59.846Z</time></trkpt><trkpt lat="44.019956168213454" lon="10.791436860953382"><ele>884.0</ele><time>2026-05-01T16:22:00.847Z</time></trkpt><trkpt lat="44.01998287035973" lon="10.791639232367503"><ele>884.4000000000001</ele><time>2026-05-01T16:22:01.847Z</time></trkpt><trkpt lat="44.019987347846005" lon="10.791825197117133"><ele>884.8000000000001</ele><time>2026-05-01T16:22:02.847Z</time></trkpt><trkpt lat="44.019954297532244" lon="10.791992329385105"><ele>885.1999999999999</ele><time>2026-05-01T16:22:03.847Z</time></trkpt><trkpt lat="44.01990648243714" lon="10.792117995797739"><ele>885.5999999999999</ele><time>2026-05-01T16:22:04.847Z</time></trkpt><trkpt lat="44.01983608018783" lon="10.792172947707673"><ele>886.0</ele><time>2026-05-01T16:22:05.847Z</time></trkpt><trkpt lat="44.019756611014884" lon="10.792124177166384"><ele>885.5</ele><time>2026-05-01T16:22:06.847Z</time></trkpt><trkpt lat="44.01962438630966" lon="10.792031709616767"><ele>885.0</ele><time>2026-05-01T16:22:08.847Z</time></trkpt><trkpt lat="44.01954230734874" lon="10.791919108972985"><ele>884.5</ele><time>2026-05-01T16:22:09.847Z</time></trkpt><trkpt lat="44.019429700841926" lon="10.79179065894955"><ele>884.0</ele><time>2026-05-01T16:22:10.847Z</time></trkpt><trkpt lat="44.01929366624864" lon="10.791626213646646"><ele>884.0</ele><time>2026-05-01T16:22:11.847Z</time></trkpt><trkpt lat="44.019184897147525" lon="10.791462358554428"><ele>884.0</ele><time>2026-05-01T16:22:12.847Z</time></trkpt><trkpt lat="44.01908260504048" lon="10.791335430739492"><ele>884.0</ele><time>2026-05-01T16:22:13.847Z</time></trkpt><trkpt lat="44.01897282233616" lon="10.791196728112673"><ele>884.0</ele><time>2026-05-01T16:22:14.847Z</time></trkpt><trkpt lat="44.01888342492434" lon="10.79104244565094"><ele>890.0</ele><time>2026-05-01T16:22:15.847Z</time></trkpt><trkpt lat="44.01880706709405" lon="10.790873409577465"><ele>896.0</ele><time>2026-05-01T16:22:16.847Z</time></trkpt><trkpt lat="44.01877140541526" lon="10.790714069787134"><ele>902.0</ele><time>2026-05-01T16:22:17.847Z</time></trkpt><trkpt lat="44.01874783380116" lon="10.790528548704097"><ele>908.0</ele><time>2026-05-01T16:22:18.847Z</time></trkpt><trkpt lat="44.01873033679473" lon="10.790315693585272"><ele>904.75</ele><time>2026-05-01T16:22:19.847Z</time></trkpt><trkpt lat="44.018706936449384" lon="10.790138815998484"><ele>901.5</ele><time>2026-05-01T16:22:20.847Z</time></trkpt><trkpt lat="44.018676786680636" lon="10.7900096645817"><ele>898.25</ele><time>2026-05-01T16:22:21.847Z</time></trkpt><trkpt lat="44.018599528651336" lon="10.789887442798792"><ele>895.0</ele><time>2026-05-01T16:22:22.847Z</time></trkpt><trkpt lat="44.01849446390523" lon="10.789752738395103"><ele>895.0</ele><time>2026-05-01T16:22:23.847Z</time></trkpt><trkpt lat="44.01842399500538" lon="10.78962085431953"><ele>895.0</ele><time>2026-05-01T16:22:24.847Z</time></trkpt><trkpt lat="44.01835201517303" lon="10.789525260724794"><ele>895.0</ele><time>2026-05-01T16:22:25.847Z</time></trkpt><trkpt lat="44.018269214015746" lon="10.789457231596264"><ele>895.0</ele><time>2026-05-01T16:22:26.847Z</time></trkpt><trkpt lat="44.01816692437758" lon="10.789475995015051"><ele>895.0</ele><time>2026-05-01T16:22:27.847Z</time></trkpt><trkpt lat="44.01808542147712" lon="10.789582207088621"><ele>897.75</ele><time>2026-05-01T16:22:28.847Z</time></trkpt><trkpt lat="44.01800194219711" lon="10.789679926707963"><ele>900.5</ele><time>2026-05-01T16:22:29.847Z</time></trkpt><trkpt lat="44.017901934754946" lon="10.789765018197965"><ele>903.25</ele><time>2026-05-01T16:22:30.847Z</time></trkpt><trkpt lat="44.017767633498906" lon="10.789774706726059"><ele>906.0</ele><time>2026-05-01T16:22:31.847Z</time></trkpt><trkpt lat="44.0176274289774" lon="10.789721285088504"><ele>912.0</ele><time>2026-05-01T16:22:32.847Z</time></trkpt><trkpt lat="44.01748134507436" lon="10.789653205609795"><ele>918.0</ele><time>2026-05-01T16:22:33.847Z</time></trkpt><trkpt lat="44.01734791398138" lon="10.789546616616148"><ele>924.0</ele><time>2026-05-01T16:22:34.847Z</time></trkpt><trkpt lat="44.01722461353172" lon="10.78942633193271"><ele>919.0</ele><time>2026-05-01T16:22:35.847Z</time></trkpt><trkpt lat="44.0171014229634" lon="10.789271398809118"><ele>914.0</ele><time>2026-05-01T16:22:36.847Z</time></trkpt><trkpt lat="44.01697661151452" lon="10.789118273288244"><ele>909.0</ele><time>2026-05-01T16:22:37.847Z</time></trkpt><trkpt lat="44.01686603148543" lon="10.788926713084694"><ele>909.0</ele><time>2026-05-01T16:22:38.847Z</time></trkpt><trkpt lat="44.01675221867255" lon="10.788752200712585"><ele>909.0</ele><time>2026-05-01T16:22:39.847Z</time></trkpt><trkpt lat="44.016654467847516" lon="10.788557356047777"><ele>909.0</ele><time>2026-05-01T16:22:40.847Z</time></trkpt><trkpt lat="44.016544602357705" lon="10.788384655288288"><ele>909.75</ele><time>2026-05-01T16:22:41.847Z</time></trkpt><trkpt lat="44.0164493274344" lon="10.78826371484961"><ele>910.5</ele><time>2026-05-01T16:22:42.847Z</time></trkpt><trkpt lat="44.01634920801874" lon="10.78817770851677"><ele>911.25</ele><time>2026-05-01T16:22:43.847Z</time></trkpt><trkpt lat="44.016235198951655" lon="10.788097789626217"><ele>912.0</ele><time>2026-05-01T16:22:44.847Z</time></trkpt><trkpt lat="44.016116944125564" lon="10.788013425571158"><ele>912.0</ele><time>2026-05-01T16:22:45.847Z</time></trkpt><trkpt lat="44.01598797258279" lon="10.787947855515986"><ele>912.0</ele><time>2026-05-01T16:22:46.847Z</time></trkpt><trkpt lat="44.01586600785095" lon="10.787928451665849"><ele>912.0</ele><time>2026-05-01T16:22:47.847Z</time></trkpt><trkpt lat="44.0157160472312" lon="10.787972000754475"><ele>912.0</ele><time>2026-05-01T16:22:48.847Z</time></trkpt><trkpt lat="44.0155629300563" lon="10.787993225239768"><ele>912.25</ele><time>2026-05-01T16:22:49.847Z</time></trkpt><trkpt lat="44.01540600565384" lon="10.787968538919747"><ele>912.5</ele><time>2026-05-01T16:22:50.847Z</time></trkpt><trkpt lat="44.01527658469027" lon="10.78787758762286"><ele>912.75</ele><time>2026-05-01T16:22:51.847Z</time></trkpt><trkpt lat="44.01517543271298" lon="10.787830056545767"><ele>913.0</ele><time>2026-05-01T16:22:52.847Z</time></trkpt><trkpt lat="44.015102284158864" lon="10.787846968721201"><ele>913.0</ele><time>2026-05-01T16:22:53.847Z</time></trkpt><trkpt lat="44.01502206555416" lon="10.787885507395"><ele>913.0</ele><time>2026-05-01T16:22:54.847Z</time></trkpt><trkpt lat="44.01495797471889" lon="10.787972613259512"><ele>913.0</ele><time>2026-05-01T16:22:55.847Z</time></trkpt><trkpt lat="44.01490510918259" lon="10.788097181332883"><ele>913.0</ele><time>2026-05-01T16:22:56.847Z</time></trkpt><trkpt lat="44.0148499402555" lon="10.788216696738068"><ele>913.0</ele><time>2026-05-01T16:22:57.847Z</time></trkpt><trkpt lat="44.01478549425277" lon="10.78830712706467"><ele>908.0</ele><time>2026-05-01T16:22:58.847Z</time></trkpt><trkpt lat="44.01467229727276" lon="10.788304959174827"><ele>903.0</ele><time>2026-05-01T16:22:59.847Z</time></trkpt><trkpt lat="44.014558118389296" lon="10.788285085864082"><ele>898.0</ele><time>2026-05-01T16:23:00.847Z</time></trkpt><trkpt lat="44.014442367443586" lon="10.788303068787364"><ele>893.0</ele><time>2026-05-01T16:23:01.847Z</time></trkpt><trkpt lat="44.0143266111849" lon="10.788383857386039"><ele>898.6666666666667</ele><time>2026-05-01T16:23:02.847Z</time></trkpt><trkpt lat="44.01421763065258" lon="10.788543033583883"><ele>904.3333333333333</ele><time>2026-05-01T16:23:03.847Z</time></trkpt><trkpt lat="44.01412795660408" lon="10.788728908284858"><ele>910.0</ele><time>2026-05-01T16:23:04.847Z</time></trkpt><trkpt lat="44.014045896588556" lon="10.78892018940137"><ele>903.75</ele><time>2026-05-01T16:23:05.847Z</time></trkpt><trkpt lat="44.01401267475157" lon="10.789114514244659"><ele>897.5</ele><time>2026-05-01T16:23:06.847Z</time></trkpt><trkpt lat="44.014016841392014" lon="10.78927678771506"><ele>891.25</ele><time>2026-05-01T16:23:07.847Z</time></trkpt><trkpt lat="44.014063679848945" lon="10.789427148255967"><ele>885.0</ele><time>2026-05-01T16:23:08.847Z</time></trkpt><trkpt lat="44.014144357806515" lon="10.789564914034662"><ele>891.75</ele><time>2026-05-01T16:23:09.847Z</time></trkpt><trkpt lat="44.01421535923372" lon="10.789724072779054"><ele>898.5</ele><time>2026-05-01T16:23:10.847Z</time></trkpt><trkpt lat="44.0142443533445" lon="10.789896992364088"><ele>905.25</ele><time>2026-05-01T16:23:11.847Z</time></trkpt><trkpt lat="44.01423174686953" lon="10.790077966065704"><ele>912.0</ele><time>2026-05-01T16:23:12.847Z</time></trkpt><trkpt lat="44.01419232437242" lon="10.790313074943494"><ele>912.6666666666667</ele><time>2026-05-01T16:23:13.847Z</time></trkpt><trkpt lat="44.01413943362199" lon="10.790586335800626"><ele>913.3333333333334</ele><time>2026-05-01T16:23:14.847Z</time></trkpt><trkpt lat="44.01408304616334" lon="10.790834722841876"><ele>914.0</ele><time>2026-05-01T16:23:15.847Z</time></trkpt><trkpt lat="44.01401247181158" lon="10.791035055575168"><ele>914.0</ele><time>2026-05-01T16:23:16.847Z</time></trkpt><trkpt lat="44.013918450922894" lon="10.791205001298973"><ele>914.0</ele><time>2026-05-01T16:23:17.847Z</time></trkpt><trkpt lat="44.01380104084882" lon="10.791348870838695"><ele>914.0</ele><time>2026-05-01T16:23:18.847Z</time></trkpt><trkpt lat="44.013653970603414" lon="10.791507867952092"><ele>914.0</ele><time>2026-05-01T16:23:19.847Z</time></trkpt><trkpt lat="44.01347777942784" lon="10.791695171677599"><ele>914.0</ele><time>2026-05-01T16:23:20.847Z</time></trkpt><trkpt lat="44.01333977982721" lon="10.791896799887644"><ele>914.0</ele><time>2026-05-01T16:23:21.847Z</time></trkpt><trkpt lat="44.01317293995815" lon="10.792085880748227"><ele>915.3333333333334</ele><time>2026-05-01T16:23:22.847Z</time></trkpt><trkpt lat="44.013014645998624" lon="10.792255583620141"><ele>916.6666666666667</ele><time>2026-05-01T16:23:23.847Z</time></trkpt><trkpt lat="44.01289200345645" lon="10.792419307299575"><ele>918.0</ele><time>2026-05-01T16:23:24.847Z</time></trkpt><trkpt lat="44.012757919109475" lon="10.792519588226385"><ele>918.0</ele><time>2026-05-01T16:23:25.847Z</time></trkpt><trkpt lat="44.01262759557697" lon="10.792591691019432"><ele>918.0</ele><time>2026-05-01T16:23:26.847Z</time></trkpt><trkpt lat="44.01251153345904" lon="10.792672171003462"><ele>918.0</ele><time>2026-05-01T16:23:27.847Z</time></trkpt><trkpt lat="44.0124088981835" lon="10.792767746307238"><ele>918.0</ele><time>2026-05-01T16:23:28.847Z</time></trkpt><trkpt lat="44.01235732243138" lon="10.792948276913604"><ele>918.3333333333333</ele><time>2026-05-01T16:23:29.847Z</time></trkpt><trkpt lat="44.01230046731574" lon="10.793138406496137"><ele>918.6666666666666</ele><time>2026-05-01T16:23:30.847Z</time></trkpt><trkpt lat="44.01220734532578" lon="10.793324721093626"><ele>919.0</ele><time>2026-05-01T16:23:31.847Z</time></trkpt><trkpt lat="44.01209430523061" lon="10.793483930552016"><ele>926.0</ele><time>2026-05-01T16:23:32.847Z</time></trkpt><trkpt lat="44.01195465880344" lon="10.793613872980751"><ele>933.0</ele><time>2026-05-01T16:23:33.847Z</time></trkpt><trkpt lat="44.011817282858644" lon="10.793693803529282"><ele>940.0</ele><time>2026-05-01T16:23:34.847Z</time></trkpt><trkpt lat="44.011707552782966" lon="10.793802089019627"><ele>938.75</ele><time>2026-05-01T16:23:35.847Z</time></trkpt><trkpt lat="44.01159288262945" lon="10.793951428843066"><ele>937.5</ele><time>2026-05-01T16:23:36.847Z</time></trkpt><trkpt lat="44.01152787754356" lon="10.794145905074458"><ele>936.25</ele><time>2026-05-01T16:23:37.847Z</time></trkpt><trkpt lat="44.01152100686504" lon="10.794316913030254"><ele>935.0</ele><time>2026-05-01T16:23:38.846Z</time></trkpt><trkpt lat="44.01152996888243" lon="10.79446685602755"><ele>937.3333333333334</ele><time>2026-05-01T16:23:39.845Z</time></trkpt><trkpt lat="44.011539859565595" lon="10.794624652682028"><ele>939.6666666666667</ele><time>2026-05-01T16:23:40.844Z</time></trkpt><trkpt lat="44.011498588619766" lon="10.794702721996975"><ele>942.0</ele><time>2026-05-01T16:23:41.844Z</time></trkpt><trkpt lat="44.011422983343486" lon="10.794737854758827"><ele>944.3333333333333</ele><time>2026-05-01T16:23:42.843Z</time></trkpt><trkpt lat="44.01133338539556" lon="10.794703956151057"><ele>946.6666666666666</ele><time>2026-05-01T16:23:43.842Z</time></trkpt><trkpt lat="44.011267651903495" lon="10.794670990634202"><ele>949.0</ele><time>2026-05-01T16:23:44.842Z</time></trkpt><trkpt lat="44.01113314598238" lon="10.794599038782255"><ele>949.0</ele><time>2026-05-01T16:23:45.841Z</time></trkpt><trkpt lat="44.01097611214916" lon="10.79459062969766"><ele>949.0</ele><time>2026-05-01T16:23:46.841Z</time></trkpt><trkpt lat="44.01080640915142" lon="10.794597467936201"><ele>949.0</ele><time>2026-05-01T16:23:47.84Z</time></trkpt><trkpt lat="44.01062602385055" lon="10.794640232953196"><ele>950.0</ele><time>2026-05-01T16:23:48.84Z</time></trkpt><trkpt lat="44.0104461599372" lon="10.794560056897664"><ele>951.0</ele><time>2026-05-01T16:23:49.84Z</time></trkpt><trkpt lat="44.01025395904868" lon="10.794523701703024"><ele>952.0</ele><time>2026-05-01T16:23:50.839Z</time></trkpt><trkpt lat="44.01006258209299" lon="10.79450794020292"><ele>950.0</ele><time>2026-05-01T16:23:51.839Z</time></trkpt><trkpt lat="44.00987091020549" lon="10.794482516822479"><ele>948.0</ele><time>2026-05-01T16:23:52.838Z</time></trkpt><trkpt lat="44.00972279768546" lon="10.794435208239626"><ele>946.0</ele><time>2026-05-01T16:23:53.838Z</time></trkpt><trkpt lat="44.00962138105109" lon="10.794347923320476"><ele>944.25</ele><time>2026-05-01T16:23:54.838Z</time></trkpt><trkpt lat="44.00951707201469" lon="10.794262015613146"><ele>942.5</ele><time>2026-05-01T16:23:55.838Z</time></trkpt><trkpt lat="44.009411515736865" lon="10.794211146863793"><ele>940.75</ele><time>2026-05-01T16:23:56.837Z</time></trkpt><trkpt lat="44.00927918822641" lon="10.794183193633524"><ele>939.0</ele><time>2026-05-01T16:23:57.837Z</time></trkpt><trkpt lat="44.009139330104475" lon="10.794182458008061"><ele>938.25</ele><time>2026-05-01T16:23:58.837Z</time></trkpt><trkpt lat="44.008990580709806" lon="10.794206215818493"><ele>937.5</ele><time>2026-05-01T16:23:59.837Z</time></trkpt><trkpt lat="44.00887179841196" lon="10.794239347296536"><ele>936.75</ele><time>2026-05-01T16:24:00.837Z</time></trkpt><trkpt lat="44.00878420610666" lon="10.794299072156186"><ele>936.0</ele><time>2026-05-01T16:24:01.837Z</time></trkpt><trkpt lat="44.00873591633018" lon="10.794407841317494"><ele>936.0</ele><time>2026-05-01T16:24:02.836Z</time></trkpt><trkpt lat="44.008726782016446" lon="10.794523721635324"><ele>935.9999999999999</ele><time>2026-05-01T16:24:03.837Z</time></trkpt><trkpt lat="44.008750620800775" lon="10.79466976030105"><ele>935.9999999999999</ele><time>2026-05-01T16:24:04.836Z</time></trkpt><trkpt lat="44.008794627846" lon="10.794812679410697"><ele>936.0</ele><time>2026-05-01T16:24:05.836Z</time></trkpt><trkpt lat="44.00887066461246" lon="10.794960627303517"><ele>936.0</ele><time>2026-05-01T16:24:06.836Z</time></trkpt><trkpt lat="44.00900947658222" lon="10.79513334966284"><ele>938.5</ele><time>2026-05-01T16:24:07.835Z</time></trkpt><trkpt lat="44.00907901987411" lon="10.79526118731626"><ele>941.0</ele><time>2026-05-01T16:24:08.835Z</time></trkpt><trkpt lat="44.00910197162708" lon="10.795403939625057"><ele>943.5</ele><time>2026-05-01T16:24:09.835Z</time></trkpt><trkpt lat="44.009051399367294" lon="10.795553006366633"><ele>946.0</ele><time>2026-05-01T16:24:10.835Z</time></trkpt><trkpt lat="44.00899408221317" lon="10.795703567292147"><ele>946.0</ele><time>2026-05-01T16:24:11.835Z</time></trkpt><trkpt lat="44.00891564707615" lon="10.795837113530876"><ele>946.0</ele><time>2026-05-01T16:24:12.835Z</time></trkpt><trkpt lat="44.008816006403876" lon="10.795920243263875"><ele>946.0</ele><time>2026-05-01T16:24:13.835Z</time></trkpt><trkpt lat="44.008695770953956" lon="10.795960579717171"><ele>946.0</ele><time>2026-05-01T16:24:14.835Z</time></trkpt><trkpt lat="44.00856531767165" lon="10.795979592140219"><ele>945.25</ele><time>2026-05-01T16:24:15.834Z</time></trkpt><trkpt lat="44.00844897896724" lon="10.796012589745121"><ele>944.5</ele><time>2026-05-01T16:24:16.834Z</time></trkpt><trkpt lat="44.00833892813917" lon="10.79605951493155"><ele>943.75</ele><time>2026-05-01T16:24:17.834Z</time></trkpt><trkpt lat="44.0082484548769" lon="10.79614570703139"><ele>943.0</ele><time>2026-05-01T16:24:18.834Z</time></trkpt><trkpt lat="44.00818230136393" lon="10.796274545393253"><ele>943.0</ele><time>2026-05-01T16:24:19.834Z</time></trkpt><trkpt lat="44.008136723960426" lon="10.796446922660925"><ele>943.0</ele><time>2026-05-01T16:24:20.834Z</time></trkpt><trkpt lat="44.00810742663533" lon="10.79663008085209"><ele>943.0</ele><time>2026-05-01T16:24:21.834Z</time></trkpt><trkpt lat="44.00807902827678" lon="10.796845166639546"><ele>943.0</ele><time>2026-05-01T16:24:22.834Z</time></trkpt><trkpt lat="44.00804023111523" lon="10.79713089760036"><ele>945.0</ele><time>2026-05-01T16:24:23.834Z</time></trkpt><trkpt lat="44.00801848411685" lon="10.797423433796958"><ele>947.0</ele><time>2026-05-01T16:24:24.834Z</time></trkpt><trkpt lat="44.00800034371886" lon="10.797672683864128"><ele>949.0</ele><time>2026-05-01T16:24:25.834Z</time></trkpt><trkpt lat="44.007990155014994" lon="10.797878628535818"><ele>948.5</ele><time>2026-05-01T16:24:26.834Z</time></trkpt><trkpt lat="44.008004950481" lon="10.798065353421737"><ele>948.0</ele><time>2026-05-01T16:24:27.834Z</time></trkpt><trkpt lat="44.008029240053325" lon="10.798252903581895"><ele>947.5</ele><time>2026-05-01T16:24:28.834Z</time></trkpt><trkpt lat="44.0080757098626" lon="10.798430965573562"><ele>947.0</ele><time>2026-05-01T16:24:29.834Z</time></trkpt><trkpt lat="44.008154021659486" lon="10.798604554075354"><ele>947.0</ele><time>2026-05-01T16:24:30.834Z</time></trkpt><trkpt lat="44.00825284992351" lon="10.798771450512126"><ele>947.0</ele><time>2026-05-01T16:24:31.834Z</time></trkpt><trkpt lat="44.00835853395756" lon="10.798936235779514"><ele>947.0</ele><time>2026-05-01T16:24:32.834Z</time></trkpt><trkpt lat="44.00844146595133" lon="10.799114021081172"><ele>950.4000000000001</ele><time>2026-05-01T16:24:33.834Z</time></trkpt><trkpt lat="44.0084480792914" lon="10.79929904720153"><ele>953.8000000000001</ele><time>2026-05-01T16:24:34.834Z</time></trkpt><trkpt lat="44.008442619906084" lon="10.799437990610965"><ele>957.2</ele><time>2026-05-01T16:24:35.834Z</time></trkpt><trkpt lat="44.008437323070126" lon="10.799565358586204"><ele>960.6</ele><time>2026-05-01T16:24:36.834Z</time></trkpt><trkpt lat="44.00842918130231" lon="10.799708704516158"><ele>964.0</ele><time>2026-05-01T16:24:37.834Z</time></trkpt><trkpt lat="44.008411680004976" lon="10.799879848055417"><ele>965.0</ele><time>2026-05-01T16:24:38.834Z</time></trkpt><trkpt lat="44.00838688734207" lon="10.800078504097177"><ele>966.0</ele><time>2026-05-01T16:24:39.834Z</time></trkpt><trkpt lat="44.00836138266285" lon="10.800249361982662"><ele>967.0</ele><time>2026-05-01T16:24:40.834Z</time></trkpt><trkpt lat="44.008323331581884" lon="10.80040384271203"><ele>968.0</ele><time>2026-05-01T16:24:41.834Z</time></trkpt><trkpt lat="44.00826445579866" lon="10.800536973915984"><ele>964.75</ele><time>2026-05-01T16:24:42.834Z</time></trkpt><trkpt lat="44.008178200996966" lon="10.800661901011004"><ele>961.5</ele><time>2026-05-01T16:24:43.834Z</time></trkpt><trkpt lat="44.008080932483495" lon="10.800821047307023"><ele>958.25</ele><time>2026-05-01T16:24:44.834Z</time></trkpt><trkpt lat="44.007988506162654" lon="10.800970298540033"><ele>955.0</ele><time>2026-05-01T16:24:45.834Z</time></trkpt><trkpt lat="44.00792027745207" lon="10.801123589633121"><ele>955.0</ele><time>2026-05-01T16:24:46.834Z</time></trkpt><trkpt lat="44.00788068496164" lon="10.801274919001239"><ele>955.0</ele><time>2026-05-01T16:24:47.834Z</time></trkpt><trkpt lat="44.00786944088382" lon="10.801443671982177"><ele>955.0</ele><time>2026-05-01T16:24:48.833Z</time></trkpt><trkpt lat="44.00782172221526" lon="10.80160189106713"><ele>955.0</ele><time>2026-05-01T16:24:49.833Z</time></trkpt><trkpt lat="44.00782398408354" lon="10.80181258120734"><ele>955.0</ele><time>2026-05-01T16:24:50.833Z</time></trkpt><trkpt lat="44.007796830341064" lon="10.802001249704137"><ele>955.0</ele><time>2026-05-01T16:24:51.833Z</time></trkpt><trkpt lat="44.0077934750764" lon="10.802173651728575"><ele>955.0</ele><time>2026-05-01T16:24:52.833Z</time></trkpt><trkpt lat="44.007766795848624" lon="10.802291442282572"><ele>955.0</ele><time>2026-05-01T16:24:53.833Z</time></trkpt><trkpt lat="44.00775349072223" lon="10.802422742419159"><ele>955.0</ele><time>2026-05-01T16:24:54.833Z</time></trkpt><trkpt lat="44.00781673253789" lon="10.802537524794703"><ele>955.0</ele><time>2026-05-01T16:24:55.833Z</time></trkpt><trkpt lat="44.00786303840571" lon="10.802642696030412"><ele>955.0</ele><time>2026-05-01T16:24:56.833Z</time></trkpt><trkpt lat="44.00793367259265" lon="10.802719192229805"><ele>955.0</ele><time>2026-05-01T16:24:57.833Z</time></trkpt><trkpt lat="44.00802938814288" lon="10.80273401610541"><ele>955.0</ele><time>2026-05-01T16:24:58.833Z</time></trkpt><trkpt lat="44.0080998807847" lon="10.802816384249853"><ele>955.0</ele><time>2026-05-01T16:24:59.833Z</time></trkpt><trkpt lat="44.008185108354205" lon="10.802874503068024"><ele>954.2</ele><time>2026-05-01T16:25:00.833Z</time></trkpt><trkpt lat="44.00825882187715" lon="10.802936832083237"><ele>953.4</ele><time>2026-05-01T16:25:01.833Z</time></trkpt><trkpt lat="44.008305431761116" lon="10.803040965322912"><ele>952.5999999999999</ele><time>2026-05-01T16:25:02.833Z</time></trkpt><trkpt lat="44.008294117005214" lon="10.80317217084486"><ele>951.8</ele><time>2026-05-01T16:25:03.833Z</time></trkpt><trkpt lat="44.00825359581959" lon="10.803280522266073"><ele>951.0</ele><time>2026-05-01T16:25:04.833Z</time></trkpt><trkpt lat="44.00819326302551" lon="10.803403506898865"><ele>952.25</ele><time>2026-05-01T16:25:05.833Z</time></trkpt><trkpt lat="44.008109482934096" lon="10.803531289274773"><ele>953.5</ele><time>2026-05-01T16:25:06.833Z</time></trkpt><trkpt lat="44.00802539602849" lon="10.803655440979455"><ele>954.75</ele><time>2026-05-01T16:25:07.833Z</time></trkpt><trkpt lat="44.00795402794571" lon="10.803779195966458"><ele>956.0</ele><time>2026-05-01T16:25:08.833Z</time></trkpt><trkpt lat="44.00784989792965" lon="10.803861407804376"><ele>956.0</ele><time>2026-05-01T16:25:09.833Z</time></trkpt><trkpt lat="44.007745823389605" lon="10.803905159419429"><ele>955.9999999999999</ele><time>2026-05-01T16:25:10.833Z</time></trkpt><trkpt lat="44.00762943021566" lon="10.803942338230858"><ele>955.9999999999999</ele><time>2026-05-01T16:25:11.833Z</time></trkpt><trkpt lat="44.00753655737234" lon="10.803980568608809"><ele>956.0</ele><time>2026-05-01T16:25:12.833Z</time></trkpt><trkpt lat="44.00744632393716" lon="10.80405093410563"><ele>956.0</ele><time>2026-05-01T16:25:13.833Z</time></trkpt><trkpt lat="44.00737018958295" lon="10.80409341792994"><ele>956.0</ele><time>2026-05-01T16:25:14.833Z</time></trkpt><trkpt lat="44.00729756611664" lon="10.804147133577876"><ele>955.9999999999999</ele><time>2026-05-01T16:25:15.833Z</time></trkpt><trkpt lat="44.007219976252856" lon="10.804167312221969"><ele>955.9999999999999</ele><time>2026-05-01T16:25:16.833Z</time></trkpt><trkpt lat="44.00708577643708" lon="10.804179407149087"><ele>956.0</ele><time>2026-05-01T16:25:18.833Z</time></trkpt><trkpt lat="44.00700508993347" lon="10.804183153192097"><ele>956.0</ele><time>2026-05-01T16:25:20.833Z</time></trkpt><trkpt lat="44.00694729303493" lon="10.80411793516357"><ele>956.0</ele><time>2026-05-01T16:25:23.833Z</time></trkpt><trkpt lat="44.006855765283106" lon="10.804119621505683"><ele>955.9999999999999</ele><time>2026-05-01T16:25:30.833Z</time></trkpt><trkpt lat="44.00675714502031" lon="10.804124259516758"><ele>955.9999999999999</ele><time>2026-05-01T16:25:31.833Z</time></trkpt><trkpt lat="44.006630398807445" lon="10.804131082031963"><ele>956.0</ele><time>2026-05-01T16:25:32.833Z</time></trkpt><trkpt lat="44.006510732969886" lon="10.804137523395164"><ele>956.0</ele><time>2026-05-01T16:25:33.833Z</time></trkpt><trkpt lat="44.00637583987419" lon="10.804153263016072"><ele>954.5</ele><time>2026-05-01T16:25:34.833Z</time></trkpt><trkpt lat="44.00623586327433" lon="10.804183499787822"><ele>953.0</ele><time>2026-05-01T16:25:35.833Z</time></trkpt><trkpt lat="44.006105964554074" lon="10.804213418192218"><ele>951.5</ele><time>2026-05-01T16:25:36.833Z</time></trkpt><trkpt lat="44.00596989391879" lon="10.804258771341871"><ele>950.0</ele><time>2026-05-01T16:25:37.833Z</time></trkpt><trkpt lat="44.00584250722322" lon="10.804311513838863"><ele>950.75</ele><time>2026-05-01T16:25:38.833Z</time></trkpt><trkpt lat="44.00572756274816" lon="10.804366347817929"><ele>951.5</ele><time>2026-05-01T16:25:39.833Z</time></trkpt><trkpt lat="44.00562357197589" lon="10.804422274374314"><ele>952.25</ele><time>2026-05-01T16:25:40.833Z</time></trkpt><trkpt lat="44.005527864483476" lon="10.80450167569626"><ele>953.0</ele><time>2026-05-01T16:25:41.833Z</time></trkpt><trkpt lat="44.00543777220679" lon="10.804617431907651"><ele>953.0</ele><time>2026-05-01T16:25:42.833Z</time></trkpt><trkpt lat="44.00535230683408" lon="10.804758341952281"><ele>953.0</ele><time>2026-05-01T16:25:43.833Z</time></trkpt><trkpt lat="44.005260087647905" lon="10.804913696544808"><ele>953.0</ele><time>2026-05-01T16:25:44.833Z</time></trkpt><trkpt lat="44.00516942296427" lon="10.80507082433111"><ele>953.0</ele><time>2026-05-01T16:25:45.833Z</time></trkpt><trkpt lat="44.005060693874675" lon="10.805188474709762"><ele>954.5</ele><time>2026-05-01T16:25:46.833Z</time></trkpt><trkpt lat="44.004930682946096" lon="10.80526456514849"><ele>956.0</ele><time>2026-05-01T16:25:47.833Z</time></trkpt><trkpt lat="44.0048178919611" lon="10.805343444643457"><ele>957.5</ele><time>2026-05-01T16:25:48.833Z</time></trkpt><trkpt lat="44.004739529967196" lon="10.80544202156265"><ele>959.0</ele><time>2026-05-01T16:25:49.833Z</time></trkpt><trkpt lat="44.00464228446084" lon="10.805513455197088"><ele>959.0</ele><time>2026-05-01T16:25:50.833Z</time></trkpt><trkpt lat="44.004522080452205" lon="10.805550506459932"><ele>959.0</ele><time>2026-05-01T16:25:51.833Z</time></trkpt><trkpt lat="44.004395232587015" lon="10.805517896568492"><ele>959.0</ele><time>2026-05-01T16:25:52.833Z</time></trkpt><trkpt lat="44.00426622584193" lon="10.805487342682087"><ele>959.0</ele><time>2026-05-01T16:25:53.833Z</time></trkpt><trkpt lat="44.0041444028387" lon="10.805436911057278"><ele>959.25</ele><time>2026-05-01T16:25:54.833Z</time></trkpt><trkpt lat="44.00404952109111" lon="10.805272948929503"><ele>959.5</ele><time>2026-05-01T16:25:55.833Z</time></trkpt><trkpt lat="44.00395988096131" lon="10.805147210176122"><ele>959.75</ele><time>2026-05-01T16:25:56.833Z</time></trkpt><trkpt lat="44.0038791665694" lon="10.805037783294214"><ele>960.0</ele><time>2026-05-01T16:25:57.833Z</time></trkpt><trkpt lat="44.003842418503524" lon="10.804913461242483"><ele>960.0</ele><time>2026-05-01T16:25:58.833Z</time></trkpt><trkpt lat="44.00383935792578" lon="10.80477617151681"><ele>960.0</ele><time>2026-05-01T16:25:59.833Z</time></trkpt><trkpt lat="44.003851931276806" lon="10.804631371899648"><ele>960.0</ele><time>2026-05-01T16:26:00.834Z</time></trkpt><trkpt lat="44.00386425960783" lon="10.804498826224568"><ele>960.0</ele><time>2026-05-01T16:26:01.834Z</time></trkpt><trkpt lat="44.003864169378225" lon="10.80433608434969"><ele>960.0</ele><time>2026-05-01T16:26:02.834Z</time></trkpt><trkpt lat="44.00383630350273" lon="10.804183164044138"><ele>959.0</ele><time>2026-05-01T16:26:03.835Z</time></trkpt><trkpt lat="44.00381959583992" lon="10.80407204320891"><ele>958.0</ele><time>2026-05-01T16:26:04.834Z</time></trkpt><trkpt lat="44.00376030851562" lon="10.803982378271504"><ele>957.0</ele><time>2026-05-01T16:26:05.834Z</time></trkpt><trkpt lat="44.00367482166718" lon="10.803954771873777"><ele>956.0</ele><time>2026-05-01T16:26:06.834Z</time></trkpt><trkpt lat="44.003587261235104" lon="10.803970335134453"><ele>955.0</ele><time>2026-05-01T16:26:07.834Z</time></trkpt><trkpt lat="44.003502561365124" lon="10.804040259062566"><ele>954.0</ele><time>2026-05-01T16:26:08.834Z</time></trkpt><trkpt lat="44.003394017991376" lon="10.804160037050526"><ele>952.25</ele><time>2026-05-01T16:26:09.835Z</time></trkpt><trkpt lat="44.00330415103531" lon="10.804304788513274"><ele>950.5</ele><time>2026-05-01T16:26:10.834Z</time></trkpt><trkpt lat="44.003228253977454" lon="10.8044818879966"><ele>948.75</ele><time>2026-05-01T16:26:11.834Z</time></trkpt><trkpt lat="44.00313255637967" lon="10.804629688105717"><ele>947.0</ele><time>2026-05-01T16:26:12.834Z</time></trkpt><trkpt lat="44.00303808939914" lon="10.804804971746051"><ele>947.0</ele><time>2026-05-01T16:26:13.834Z</time></trkpt><trkpt lat="44.002940128659006" lon="10.80498972268835"><ele>947.0</ele><time>2026-05-01T16:26:14.834Z</time></trkpt><trkpt lat="44.00286193450788" lon="10.805179706483592"><ele>947.0</ele><time>2026-05-01T16:26:15.834Z</time></trkpt><trkpt lat="44.00278985173534" lon="10.805349507661901"><ele>949.2</ele><time>2026-05-01T16:26:16.834Z</time></trkpt><trkpt lat="44.002716852034865" lon="10.805481903462534"><ele>951.4000000000001</ele><time>2026-05-01T16:26:17.834Z</time></trkpt><trkpt lat="44.00265683329511" lon="10.805598683433557"><ele>953.5999999999999</ele><time>2026-05-01T16:26:18.834Z</time></trkpt><trkpt lat="44.00260173656246" lon="10.805702077632086"><ele>955.8</ele><time>2026-05-01T16:26:19.834Z</time></trkpt><trkpt lat="44.00254142478123" lon="10.80575464930607"><ele>958.0</ele><time>2026-05-01T16:26:20.834Z</time></trkpt><trkpt lat="44.00247104211192" lon="10.805753625271345"><ele>958.5999999999999</ele><time>2026-05-01T16:26:21.834Z</time></trkpt><trkpt lat="44.00236441929638" lon="10.805646438169344"><ele>959.1999999999999</ele><time>2026-05-01T16:26:23.834Z</time></trkpt><trkpt lat="44.00233832551224" lon="10.805541328039583"><ele>959.8</ele><time>2026-05-01T16:26:24.834Z</time></trkpt><trkpt lat="44.002289135992996" lon="10.805443297087367"><ele>960.4</ele><time>2026-05-01T16:26:25.834Z</time></trkpt><trkpt lat="44.0022071577708" lon="10.805297266273044"><ele>961.0</ele><time>2026-05-01T16:26:26.834Z</time></trkpt><trkpt lat="44.002116732740475" lon="10.805171621974493"><ele>957.1999999999999</ele><time>2026-05-01T16:26:27.834Z</time></trkpt><trkpt lat="44.00201833629817" lon="10.805067376538123"><ele>953.3999999999999</ele><time>2026-05-01T16:26:28.834Z</time></trkpt><trkpt lat="44.00192043147217" lon="10.804977311256957"><ele>949.6</ele><time>2026-05-01T16:26:29.834Z</time></trkpt><trkpt lat="44.001823910928714" lon="10.804908805932122"><ele>945.8</ele><time>2026-05-01T16:26:30.834Z</time></trkpt><trkpt lat="44.00172809021938" lon="10.804883465335879"><ele>942.0</ele><time>2026-05-01T16:26:31.834Z</time></trkpt><trkpt lat="44.00160740405991" lon="10.804886739500638"><ele>940.25</ele><time>2026-05-01T16:26:32.834Z</time></trkpt><trkpt lat="44.00149944797398" lon="10.804932889076419"><ele>938.5</ele><time>2026-05-01T16:26:33.834Z</time></trkpt><trkpt lat="44.00140995068749" lon="10.804989581001081"><ele>936.75</ele><time>2026-05-01T16:26:34.834Z</time></trkpt><trkpt lat="44.001292769153274" lon="10.805073577690424"><ele>935.0</ele><time>2026-05-01T16:26:35.834Z</time></trkpt><trkpt lat="44.00119554636519" lon="10.805159609741626"><ele>937.5</ele><time>2026-05-01T16:26:36.834Z</time></trkpt><trkpt lat="44.001083359945994" lon="10.805284074794807"><ele>940.0</ele><time>2026-05-01T16:26:37.834Z</time></trkpt><trkpt lat="44.00096337314071" lon="10.805415596191247"><ele>942.5</ele><time>2026-05-01T16:26:38.834Z</time></trkpt><trkpt lat="44.00084704876783" lon="10.805545310770892"><ele>945.0</ele><time>2026-05-01T16:26:39.834Z</time></trkpt><trkpt lat="44.00071494408011" lon="10.805656169191996"><ele>945.0</ele><time>2026-05-01T16:26:40.834Z</time></trkpt><trkpt lat="44.00060969741116" lon="10.80577227281605"><ele>945.0</ele><time>2026-05-01T16:26:41.834Z</time></trkpt><trkpt lat="44.00052266395733" lon="10.80587225248454"><ele>945.0</ele><time>2026-05-01T16:26:42.834Z</time></trkpt><trkpt lat="44.00045567985225" lon="10.805957198257268"><ele>945.0</ele><time>2026-05-01T16:26:43.834Z</time></trkpt><trkpt lat="44.000378955548086" lon="10.806002186528719"><ele>945.0</ele><time>2026-05-01T16:26:44.834Z</time></trkpt><trkpt lat="44.00029558564215" lon="10.806005585815468"><ele>945.0</ele><time>2026-05-01T16:26:45.834Z</time></trkpt><trkpt lat="44.00022045637912" lon="10.805975378295717"><ele>945.0</ele><time>2026-05-01T16:26:46.834Z</time></trkpt><trkpt lat="44.000159253578076" lon="10.805867463574124"><ele>945.0</ele><time>2026-05-01T16:26:48.834Z</time></trkpt><trkpt lat="44.000180133240725" lon="10.805758291301158"><ele>945.0</ele><time>2026-05-01T16:26:49.834Z</time></trkpt><trkpt lat="44.000217764515675" lon="10.805540657851267"><ele>945.0</ele><time>2026-05-01T16:26:51.834Z</time></trkpt><trkpt lat="44.000239244718294" lon="10.805375269076185"><ele>945.0</ele><time>2026-05-01T16:26:52.834Z</time></trkpt><trkpt lat="44.000261784620015" lon="10.805194504633224"><ele>945.0</ele><time>2026-05-01T16:26:53.834Z</time></trkpt><trkpt lat="44.00028718446828" lon="10.804993438779812"><ele>945.0</ele><time>2026-05-01T16:26:54.834Z</time></trkpt><trkpt lat="44.00031084881474" lon="10.804797808890198"><ele>945.0</ele><time>2026-05-01T16:26:55.834Z</time></trkpt><trkpt lat="44.000331804731" lon="10.804625567096428"><ele>947.5</ele><time>2026-05-01T16:26:56.834Z</time></trkpt><trkpt lat="44.00034681037943" lon="10.804433511836502"><ele>950.0</ele><time>2026-05-01T16:26:57.834Z</time></trkpt><trkpt lat="44.000344121100056" lon="10.804223261546037"><ele>952.5</ele><time>2026-05-01T16:26:58.834Z</time></trkpt><trkpt lat="44.00031927723847" lon="10.804063505376387"><ele>955.0</ele><time>2026-05-01T16:26:59.834Z</time></trkpt><trkpt lat="44.00030831148104" lon="10.803869990750846"><ele>956.0</ele><time>2026-05-01T16:27:00.834Z</time></trkpt><trkpt lat="44.000380362595024" lon="10.80368593537096"><ele>957.0</ele><time>2026-05-01T16:27:01.834Z</time></trkpt><trkpt lat="44.00043564669827" lon="10.80353740258293"><ele>958.0</ele><time>2026-05-01T16:27:02.834Z</time></trkpt><trkpt lat="44.00045076190588" lon="10.803358633602008"><ele>959.0</ele><time>2026-05-01T16:27:03.834Z</time></trkpt><trkpt lat="44.000417325537626" lon="10.803196982648338"><ele>959.0</ele><time>2026-05-01T16:27:04.834Z</time></trkpt><trkpt lat="44.00038526862129" lon="10.803046477192616"><ele>959.0</ele><time>2026-05-01T16:27:05.834Z</time></trkpt><trkpt lat="44.00036234322334" lon="10.802867345456358"><ele>959.0</ele><time>2026-05-01T16:27:06.834Z</time></trkpt><trkpt lat="44.000363286279324" lon="10.802708704948289"><ele>959.0</ele><time>2026-05-01T16:27:07.834Z</time></trkpt><trkpt lat="44.00037586166998" lon="10.802531698871014"><ele>959.0</ele><time>2026-05-01T16:27:08.834Z</time></trkpt><trkpt lat="44.00037472282498" lon="10.802318775014038"><ele>959.0</ele><time>2026-05-01T16:27:09.834Z</time></trkpt><trkpt lat="44.00035661139124" lon="10.80210384474992"><ele>959.0</ele><time>2026-05-01T16:27:10.834Z</time></trkpt><trkpt lat="44.000325990050364" lon="10.801899460123696"><ele>958.0</ele><time>2026-05-01T16:27:11.834Z</time></trkpt><trkpt lat="44.00028058094024" lon="10.801669873623338"><ele>957.0</ele><time>2026-05-01T16:27:12.834Z</time></trkpt><trkpt lat="44.000231553776345" lon="10.801469357118307"><ele>956.0</ele><time>2026-05-01T16:27:13.834Z</time></trkpt><trkpt lat="44.000171261238776" lon="10.801256392215759"><ele>956.0</ele><time>2026-05-01T16:27:14.834Z</time></trkpt><trkpt lat="44.00011776548276" lon="10.801065801688525"><ele>956.0</ele><time>2026-05-01T16:27:15.834Z</time></trkpt><trkpt lat="44.0000627308613" lon="10.800867168837376"><ele>956.0</ele><time>2026-05-01T16:27:16.834Z</time></trkpt><trkpt lat="44.00001457313803" lon="10.800685136931884"><ele>956.0</ele><time>2026-05-01T16:27:17.834Z</time></trkpt><trkpt lat="43.999971307745604" lon="10.800520618758194"><ele>954.4</ele><time>2026-05-01T16:27:18.834Z</time></trkpt><trkpt lat="43.99993376252645" lon="10.80037785147612"><ele>952.8</ele><time>2026-05-01T16:27:19.834Z</time></trkpt><trkpt lat="43.99988690215056" lon="10.800219585773979"><ele>951.1999999999999</ele><time>2026-05-01T16:27:20.834Z</time></trkpt><trkpt lat="43.99983643438036" lon="10.800109180826931"><ele>949.5999999999999</ele><time>2026-05-01T16:27:21.834Z</time></trkpt><trkpt lat="43.99978155480257" lon="10.8000398488422"><ele>948.0</ele><time>2026-05-01T16:27:22.834Z</time></trkpt><trkpt lat="43.99967897115526" lon="10.80000268525577"><ele>948.0</ele><time>2026-05-01T16:27:23.834Z</time></trkpt><trkpt lat="43.99956758443521" lon="10.800092144479883"><ele>948.0</ele><time>2026-05-01T16:27:24.834Z</time></trkpt><trkpt lat="43.99951313418891" lon="10.800229073984598"><ele>948.0</ele><time>2026-05-01T16:27:25.834Z</time></trkpt><trkpt lat="43.999458354526254" lon="10.800351202246654"><ele>948.0</ele><time>2026-05-01T16:27:26.834Z</time></trkpt><trkpt lat="43.999382729769266" lon="10.800491854120043"><ele>948.0</ele><time>2026-05-01T16:27:27.834Z</time></trkpt><trkpt lat="43.99931217276067" lon="10.800640299849762"><ele>948.0</ele><time>2026-05-01T16:27:28.834Z</time></trkpt><trkpt lat="43.999271268890894" lon="10.80077623870293"><ele>948.0</ele><time>2026-05-01T16:27:29.834Z</time></trkpt><trkpt lat="43.99923723125943" lon="10.80091130221007"><ele>948.0</ele><time>2026-05-01T16:27:30.834Z</time></trkpt><trkpt lat="43.999219076729496" lon="10.801062729546365"><ele>948.0</ele><time>2026-05-01T16:27:31.834Z</time></trkpt><trkpt lat="43.99919189842958" lon="10.801185342540375"><ele>949.0</ele><time>2026-05-01T16:27:32.834Z</time></trkpt><trkpt lat="43.99916946904762" lon="10.801286795593159"><ele>950.0</ele><time>2026-05-01T16:27:33.834Z</time></trkpt><trkpt lat="43.999072628519755" lon="10.801391810779466"><ele>951.0</ele><time>2026-05-01T16:27:35.834Z</time></trkpt><trkpt lat="43.99898925776842" lon="10.801358042488864"><ele>952.0</ele><time>2026-05-01T16:27:36.834Z</time></trkpt><trkpt lat="43.99891304851855" lon="10.801270580559377"><ele>953.0</ele><time>2026-05-01T16:27:37.834Z</time></trkpt><trkpt lat="43.99885854352423" lon="10.801155822909971"><ele>953.0</ele><time>2026-05-01T16:27:38.834Z</time></trkpt><trkpt lat="43.998837418076405" lon="10.801000283505227"><ele>953.0</ele><time>2026-05-01T16:27:39.834Z</time></trkpt><trkpt lat="43.99881990212754" lon="10.80082311832803"><ele>953.0</ele><time>2026-05-01T16:27:40.834Z</time></trkpt><trkpt lat="43.99881493356376" lon="10.800663481498091"><ele>953.0</ele><time>2026-05-01T16:27:41.834Z</time></trkpt><trkpt lat="43.998785302832104" lon="10.800477989891558"><ele>951.75</ele><time>2026-05-01T16:27:42.834Z</time></trkpt><trkpt lat="43.99874124376878" lon="10.80030282979919"><ele>950.5</ele><time>2026-05-01T16:27:43.834Z</time></trkpt><trkpt lat="43.99866405583747" lon="10.800127928809545"><ele>949.25</ele><time>2026-05-01T16:27:44.834Z</time></trkpt><trkpt lat="43.998589300350055" lon="10.799967623392792"><ele>948.0</ele><time>2026-05-01T16:27:45.834Z</time></trkpt><trkpt lat="43.99850588390042" lon="10.799821676453545"><ele>948.25</ele><time>2026-05-01T16:27:46.834Z</time></trkpt><trkpt lat="43.99843166957224" lon="10.799682271647702"><ele>948.5</ele><time>2026-05-01T16:27:47.834Z</time></trkpt><trkpt lat="43.998329034541996" lon="10.799558409269299"><ele>948.75</ele><time>2026-05-01T16:27:48.834Z</time></trkpt><trkpt lat="43.998218327027445" lon="10.799423439916389"><ele>949.0</ele><time>2026-05-01T16:27:49.834Z</time></trkpt><trkpt lat="43.998113559129756" lon="10.79929865475657"><ele>949.0</ele><time>2026-05-01T16:27:50.834Z</time></trkpt><trkpt lat="43.99800667614851" lon="10.799183428026057"><ele>949.0</ele><time>2026-05-01T16:27:51.834Z</time></trkpt><trkpt lat="43.997901931562566" lon="10.799097646318089"><ele>949.0</ele><time>2026-05-01T16:27:52.834Z</time></trkpt><trkpt lat="43.99779187006949" lon="10.799065857030085"><ele>949.0</ele><time>2026-05-01T16:27:53.834Z</time></trkpt><trkpt lat="43.99770454190925" lon="10.799076812540992"><ele>949.0</ele><time>2026-05-01T16:27:54.834Z</time></trkpt><trkpt lat="43.99760981362213" lon="10.79914336826868"><ele>949.0</ele><time>2026-05-01T16:27:55.834Z</time></trkpt><trkpt lat="43.99750728880931" lon="10.799284219956915"><ele>949.0</ele><time>2026-05-01T16:27:56.834Z</time></trkpt><trkpt lat="43.99738739660965" lon="10.799430568357797"><ele>949.0</ele><time>2026-05-01T16:27:57.834Z</time></trkpt><trkpt lat="43.997224953769624" lon="10.799599503637815"><ele>952.0</ele><time>2026-05-01T16:27:58.834Z</time></trkpt><trkpt lat="43.99710350024347" lon="10.799746195408973"><ele>955.0</ele><time>2026-05-01T16:27:59.834Z</time></trkpt><trkpt lat="43.99700506273515" lon="10.799807969904192"><ele>958.0</ele><time>2026-05-01T16:28:00.834Z</time></trkpt><trkpt lat="43.99688573208811" lon="10.799855690054724"><ele>961.0</ele><time>2026-05-01T16:28:01.834Z</time></trkpt><trkpt lat="43.996762598513314" lon="10.799840460442471"><ele>961.75</ele><time>2026-05-01T16:28:02.834Z</time></trkpt><trkpt lat="43.9966462768774" lon="10.79980181447684"><ele>962.5</ele><time>2026-05-01T16:28:03.834Z</time></trkpt><trkpt lat="43.99652575824166" lon="10.79973737458154"><ele>963.25</ele><time>2026-05-01T16:28:04.834Z</time></trkpt><trkpt lat="43.99640735997737" lon="10.799662838534486"><ele>964.0</ele><time>2026-05-01T16:28:05.835Z</time></trkpt><trkpt lat="43.996326545426335" lon="10.799495170024771"><ele>961.3333333333333</ele><time>2026-05-01T16:28:06.835Z</time></trkpt><trkpt lat="43.99629563704987" lon="10.799270840369125"><ele>958.6666666666667</ele><time>2026-05-01T16:28:07.835Z</time></trkpt><trkpt lat="43.99626424544435" lon="10.799040332438532"><ele>956.0</ele><time>2026-05-01T16:28:08.835Z</time></trkpt><trkpt lat="43.9962235997585" lon="10.798734825491755"><ele>950.0</ele><time>2026-05-01T16:28:09.835Z</time></trkpt><trkpt lat="43.99617868799527" lon="10.79839558671842"><ele>944.0</ele><time>2026-05-01T16:28:10.835Z</time></trkpt><trkpt lat="43.996141808299186" lon="10.798118764604823"><ele>944.0</ele><time>2026-05-01T16:28:11.835Z</time></trkpt><trkpt lat="43.996102943580006" lon="10.797884769031151"><ele>944.0</ele><time>2026-05-01T16:28:12.835Z</time></trkpt><trkpt lat="43.99607062841994" lon="10.797686615539403"><ele>944.0</ele><time>2026-05-01T16:28:13.835Z</time></trkpt><trkpt lat="43.996030113141714" lon="10.797535555600966"><ele>944.0</ele><time>2026-05-01T16:28:14.835Z</time></trkpt><trkpt lat="43.99597485510883" lon="10.797420543217564"><ele>941.2</ele><time>2026-05-01T16:28:15.835Z</time></trkpt><trkpt lat="43.995905584483346" lon="10.797321000202416"><ele>938.4000000000001</ele><time>2026-05-01T16:28:16.835Z</time></trkpt><trkpt lat="43.995823441957754" lon="10.797263504829948"><ele>935.6</ele><time>2026-05-01T16:28:17.835Z</time></trkpt><trkpt lat="43.995729621239306" lon="10.79718764769104"><ele>932.8</ele><time>2026-05-01T16:28:18.835Z</time></trkpt><trkpt lat="43.99560539117688" lon="10.79713369616558"><ele>930.0</ele><time>2026-05-01T16:28:19.835Z</time></trkpt><trkpt lat="43.99548067906658" lon="10.797052912890353"><ele>937.75</ele><time>2026-05-01T16:28:20.835Z</time></trkpt><trkpt lat="43.99536086854453" lon="10.797002446139745"><ele>945.5</ele><time>2026-05-01T16:28:21.835Z</time></trkpt><trkpt lat="43.99523699739054" lon="10.796946346124322"><ele>953.25</ele><time>2026-05-01T16:28:22.835Z</time></trkpt><trkpt lat="43.99512166951299" lon="10.796941129045099"><ele>961.0</ele><time>2026-05-01T16:28:23.835Z</time></trkpt><trkpt lat="43.995043316804924" lon="10.796962754921704"><ele>961.8</ele><time>2026-05-01T16:28:24.835Z</time></trkpt><trkpt lat="43.99493722697733" lon="10.796859320680856"><ele>962.5999999999999</ele><time>2026-05-01T16:28:26.835Z</time></trkpt><trkpt lat="43.99492338251516" lon="10.796749798567276"><ele>963.4</ele><time>2026-05-01T16:28:27.835Z</time></trkpt><trkpt lat="43.99494606261945" lon="10.796663817724879"><ele>964.2</ele><time>2026-05-01T16:28:28.835Z</time></trkpt><trkpt lat="43.99501426551449" lon="10.79657792017493"><ele>965.0</ele><time>2026-05-01T16:28:29.835Z</time></trkpt><trkpt lat="43.99512101152917" lon="10.79651989416084"><ele>960.75</ele><time>2026-05-01T16:28:30.835Z</time></trkpt><trkpt lat="43.9952734014265" lon="10.79645072456729"><ele>956.5</ele><time>2026-05-01T16:28:31.835Z</time></trkpt><trkpt lat="43.99543110075844" lon="10.79641690659532"><ele>952.25</ele><time>2026-05-01T16:28:32.835Z</time></trkpt><trkpt lat="43.99554165793848" lon="10.796386732014911"><ele>948.0</ele><time>2026-05-01T16:28:33.835Z</time></trkpt><trkpt lat="43.99561422420458" lon="10.796233696344165"><ele>948.0</ele><time>2026-05-01T16:28:35.835Z</time></trkpt><trkpt lat="43.99562072576572" lon="10.796111379474024"><ele>948.0</ele><time>2026-05-01T16:28:36.835Z</time></trkpt><trkpt lat="43.99560284953694" lon="10.795961390823274"><ele>948.0</ele><time>2026-05-01T16:28:37.835Z</time></trkpt><trkpt lat="43.99561653063996" lon="10.79580644557495"><ele>948.0</ele><time>2026-05-01T16:28:38.835Z</time></trkpt><trkpt lat="43.995618847308165" lon="10.795657086847115"><ele>948.0</ele><time>2026-05-01T16:28:39.835Z</time></trkpt><trkpt lat="43.995598221109425" lon="10.795499826644896"><ele>948.75</ele><time>2026-05-01T16:28:40.835Z</time></trkpt><trkpt lat="43.99552876387821" lon="10.795393887360644"><ele>949.5</ele><time>2026-05-01T16:28:41.835Z</time></trkpt><trkpt lat="43.99541926153432" lon="10.795340742111108"><ele>950.25</ele><time>2026-05-01T16:28:42.835Z</time></trkpt><trkpt lat="43.995326180636305" lon="10.795249915320417"><ele>951.0</ele><time>2026-05-01T16:28:43.835Z</time></trkpt><trkpt lat="43.995256469118246" lon="10.795112032509694"><ele>953.0</ele><time>2026-05-01T16:28:44.835Z</time></trkpt><trkpt lat="43.995172221376635" lon="10.794982732528274"><ele>954.9999999999999</ele><time>2026-05-01T16:28:45.835Z</time></trkpt><trkpt lat="43.99507563858663" lon="10.794928012445821"><ele>956.9999999999999</ele><time>2026-05-01T16:28:46.835Z</time></trkpt><trkpt lat="43.99497404682038" lon="10.794925629077202"><ele>959.0</ele><time>2026-05-01T16:28:47.835Z</time></trkpt><trkpt lat="43.994872671984844" lon="10.794943045272433"><ele>961.0</ele><time>2026-05-01T16:28:48.835Z</time></trkpt><trkpt lat="43.99474832853471" lon="10.794953335364943"><ele>961.0</ele><time>2026-05-01T16:28:49.835Z</time></trkpt><trkpt lat="43.994598596939" lon="10.794892549105239"><ele>961.0</ele><time>2026-05-01T16:28:50.835Z</time></trkpt><trkpt lat="43.99443100732516" lon="10.794841997942223"><ele>961.0</ele><time>2026-05-01T16:28:51.835Z</time></trkpt><trkpt lat="43.99428186779559" lon="10.794845132108234"><ele>963.25</ele><time>2026-05-01T16:28:52.835Z</time></trkpt><trkpt lat="43.99412985880256" lon="10.794852240035334"><ele>965.5</ele><time>2026-05-01T16:28:53.835Z</time></trkpt><trkpt lat="43.99400255032625" lon="10.79479910373174"><ele>967.75</ele><time>2026-05-01T16:28:54.835Z</time></trkpt><trkpt lat="43.99387169164028" lon="10.794751018606094"><ele>970.0</ele><time>2026-05-01T16:28:55.835Z</time></trkpt><trkpt lat="43.99375212529221" lon="10.794631192542939"><ele>970.0</ele><time>2026-05-01T16:28:56.835Z</time></trkpt><trkpt lat="43.993649190608416" lon="10.794516789647556"><ele>970.0</ele><time>2026-05-01T16:28:57.835Z</time></trkpt><trkpt lat="43.99357087294203" lon="10.79439564220079"><ele>970.0</ele><time>2026-05-01T16:28:58.835Z</time></trkpt><trkpt lat="43.993480910332224" lon="10.794297951996834"><ele>970.0</ele><time>2026-05-01T16:28:59.835Z</time></trkpt><trkpt lat="43.99339686767207" lon="10.79420617355182"><ele>966.8</ele><time>2026-05-01T16:29:00.835Z</time></trkpt><trkpt lat="43.99330500992981" lon="10.794163743461025"><ele>963.6</ele><time>2026-05-01T16:29:01.835Z</time></trkpt><trkpt lat="43.99318747156842" lon="10.794152629498601"><ele>960.4000000000001</ele><time>2026-05-01T16:29:02.835Z</time></trkpt><trkpt lat="43.993079561124354" lon="10.79416035826073"><ele>957.2</ele><time>2026-05-01T16:29:03.835Z</time></trkpt><trkpt lat="43.99295377223309" lon="10.79418074960549"><ele>954.0</ele><time>2026-05-01T16:29:04.835Z</time></trkpt><trkpt lat="43.99283152387157" lon="10.794227765894227"><ele>954.0</ele><time>2026-05-01T16:29:05.835Z</time></trkpt><trkpt lat="43.99269539139749" lon="10.79430627296471"><ele>954.0</ele><time>2026-05-01T16:29:06.835Z</time></trkpt><trkpt lat="43.99255282084882" lon="10.79436071669086"><ele>954.0</ele><time>2026-05-01T16:29:07.835Z</time></trkpt><trkpt lat="43.9924266001819" lon="10.794466528740715"><ele>954.0</ele><time>2026-05-01T16:29:08.835Z</time></trkpt><trkpt lat="43.99231506261737" lon="10.794604883265688"><ele>958.75</ele><time>2026-05-01T16:29:09.835Z</time></trkpt><trkpt lat="43.99222159863142" lon="10.794754691392187"><ele>963.5</ele><time>2026-05-01T16:29:10.835Z</time></trkpt><trkpt lat="43.992153476880716" lon="10.794865082117857"><ele>968.25</ele><time>2026-05-01T16:29:11.835Z</time></trkpt><trkpt lat="43.99208101965375" lon="10.794988528130457"><ele>973.0</ele><time>2026-05-01T16:29:12.835Z</time></trkpt><trkpt lat="43.99197979299294" lon="10.795083415278956"><ele>973.0</ele><time>2026-05-01T16:29:13.835Z</time></trkpt><trkpt lat="43.99185670430301" lon="10.795156013113397"><ele>973.0</ele><time>2026-05-01T16:29:14.835Z</time></trkpt><trkpt lat="43.991738555244446" lon="10.79519295298215"><ele>973.0</ele><time>2026-05-01T16:29:15.835Z</time></trkpt><trkpt lat="43.99166662022694" lon="10.795196191354124"><ele>973.0</ele><time>2026-05-01T16:29:16.835Z</time></trkpt><trkpt lat="43.99157445618834" lon="10.795253784677485"><ele>973.0</ele><time>2026-05-01T16:29:18.835Z</time></trkpt><trkpt lat="43.99152155935315" lon="10.795319530858146"><ele>972.9999999999999</ele><time>2026-05-01T16:29:22.835Z</time></trkpt><trkpt lat="43.99144531952146" lon="10.795362089709226"><ele>973.0</ele><time>2026-05-01T16:30:06.835Z</time></trkpt><trkpt lat="43.99135323316394" lon="10.795432590280948"><ele>973.0</ele><time>2026-05-01T16:30:08.835Z</time></trkpt><trkpt lat="43.991271813616734" lon="10.795482718187419"><ele>973.0</ele><time>2026-05-01T16:30:09.835Z</time></trkpt><trkpt lat="43.99120137437707" lon="10.795511030343146"><ele>972.9999999999999</ele><time>2026-05-01T16:30:10.835Z</time></trkpt><trkpt lat="43.991134501635244" lon="10.79551505734278"><ele>973.0</ele><time>2026-05-01T16:30:11.836Z</time></trkpt><trkpt lat="43.99106478644004" lon="10.795533021419754"><ele>973.0</ele><time>2026-05-01T16:30:12.836Z</time></trkpt><trkpt lat="43.990978443371944" lon="10.795565910775826"><ele>973.0</ele><time>2026-05-01T16:30:13.836Z</time></trkpt><trkpt lat="43.990881292758225" lon="10.795628458390745"><ele>973.0</ele><time>2026-05-01T16:30:14.836Z</time></trkpt><trkpt lat="43.99080131688842" lon="10.795698823477306"><ele>973.0</ele><time>2026-05-01T16:30:15.836Z</time></trkpt><trkpt lat="43.99071577908093" lon="10.795801230765665"><ele>973.0</ele><time>2026-05-01T16:30:16.836Z</time></trkpt><trkpt lat="43.99064554811062" lon="10.795919903430923"><ele>973.4</ele><time>2026-05-01T16:30:17.836Z</time></trkpt><trkpt lat="43.99058058079189" lon="10.796042175031298"><ele>973.8</ele><time>2026-05-01T16:30:18.836Z</time></trkpt><trkpt lat="43.9905146235149" lon="10.796148082267166"><ele>974.2</ele><time>2026-05-01T16:30:19.836Z</time></trkpt><trkpt lat="43.99046334284254" lon="10.796213237624944"><ele>974.6</ele><time>2026-05-01T16:30:20.836Z</time></trkpt><trkpt lat="43.99038418423154" lon="10.796317857799265"><ele>975.0</ele><time>2026-05-01T16:30:21.836Z</time></trkpt><trkpt lat="43.990342668223725" lon="10.79649455348633"><ele>975.0</ele><time>2026-05-01T16:30:22.836Z</time></trkpt><trkpt lat="43.99029695709132" lon="10.796632644533414"><ele>975.0</ele><time>2026-05-01T16:30:23.837Z</time></trkpt><trkpt lat="43.99027372016985" lon="10.796787641326205"><ele>975.0</ele><time>2026-05-01T16:30:24.836Z</time></trkpt><trkpt lat="43.99019849136234" lon="10.796894025894709"><ele>975.0</ele><time>2026-05-01T16:30:25.836Z</time></trkpt><trkpt lat="43.990098003766114" lon="10.79686134085523"><ele>975.0</ele><time>2026-05-01T16:30:26.836Z</time></trkpt><trkpt lat="43.98999443067259" lon="10.79680201767362"><ele>971.4</ele><time>2026-05-01T16:30:27.836Z</time></trkpt><trkpt lat="43.989889807344134" lon="10.796759945332715"><ele>967.8</ele><time>2026-05-01T16:30:28.836Z</time></trkpt><trkpt lat="43.98977428034291" lon="10.79674992468455"><ele>964.2</ele><time>2026-05-01T16:30:29.836Z</time></trkpt><trkpt lat="43.989672340998396" lon="10.796759239446613"><ele>960.6</ele><time>2026-05-01T16:30:30.836Z</time></trkpt><trkpt lat="43.989574295824724" lon="10.796787118921221"><ele>957.0</ele><time>2026-05-01T16:30:31.836Z</time></trkpt><trkpt lat="43.98947777758934" lon="10.796819380955315"><ele>960.5</ele><time>2026-05-01T16:30:32.836Z</time></trkpt><trkpt lat="43.98938504629528" lon="10.796853798228835"><ele>964.0</ele><time>2026-05-01T16:30:33.836Z</time></trkpt><trkpt lat="43.98930040109382" lon="10.796908552097296"><ele>967.5</ele><time>2026-05-01T16:30:34.836Z</time></trkpt><trkpt lat="43.98926601800168" lon="10.796992517310711"><ele>971.0</ele><time>2026-05-01T16:30:35.836Z</time></trkpt><trkpt lat="43.98924731730027" lon="10.797092662626374"><ele>974.5</ele><time>2026-05-01T16:30:36.836Z</time></trkpt><trkpt lat="43.989253776335374" lon="10.797225755592908"><ele>978.0</ele><time>2026-05-01T16:30:37.836Z</time></trkpt><trkpt lat="43.98930677658601" lon="10.797370653892726"><ele>978.0</ele><time>2026-05-01T16:30:38.836Z</time></trkpt><trkpt lat="43.989334878271805" lon="10.797486138858734"><ele>978.0</ele><time>2026-05-01T16:30:39.836Z</time></trkpt><trkpt lat="43.98923672531938" lon="10.797586018748488"><ele>978.0</ele><time>2026-05-01T16:30:41.836Z</time></trkpt><trkpt lat="43.98914055554028" lon="10.797564675792382"><ele>978.0</ele><time>2026-05-01T16:30:42.836Z</time></trkpt><trkpt lat="43.98901077527538" lon="10.797512422229495"><ele>978.0</ele><time>2026-05-01T16:30:43.836Z</time></trkpt><trkpt lat="43.98889915889929" lon="10.797454000739503"><ele>978.3333333333334</ele><time>2026-05-01T16:30:44.836Z</time></trkpt><trkpt lat="43.98880561863519" lon="10.79744127731638"><ele>978.6666666666667</ele><time>2026-05-01T16:30:45.836Z</time></trkpt><trkpt lat="43.988716219491714" lon="10.797460569228454"><ele>979.0</ele><time>2026-05-01T16:30:46.836Z</time></trkpt><trkpt lat="43.98863731905296" lon="10.797482073242302"><ele>979.3333333333334</ele><time>2026-05-01T16:30:47.836Z</time></trkpt><trkpt lat="43.988551493302865" lon="10.797561810283417"><ele>979.6666666666667</ele><time>2026-05-01T16:30:48.836Z</time></trkpt><trkpt lat="43.98849945812694" lon="10.797646193974117"><ele>980.0</ele><time>2026-05-01T16:30:49.836Z</time></trkpt><trkpt lat="43.98844358927251" lon="10.797765979765002"><ele>980.0</ele><time>2026-05-01T16:30:50.836Z</time></trkpt><trkpt lat="43.98841145802316" lon="10.797927957552133"><ele>980.0</ele><time>2026-05-01T16:30:51.836Z</time></trkpt><trkpt lat="43.98839767591593" lon="10.798082642885792"><ele>980.0</ele><time>2026-05-01T16:30:52.836Z</time></trkpt><trkpt lat="43.9884174063406" lon="10.798229093609507"><ele>980.0</ele><time>2026-05-01T16:30:53.836Z</time></trkpt><trkpt lat="43.98846015274865" lon="10.798359624251892"><ele>980.0</ele><time>2026-05-01T16:30:54.836Z</time></trkpt><trkpt lat="43.98845882936712" lon="10.798456990037588"><ele>979.0</ele><time>2026-05-01T16:30:55.836Z</time></trkpt><trkpt lat="43.98839551357682" lon="10.798531517807117"><ele>978.0</ele><time>2026-05-01T16:30:56.836Z</time></trkpt><trkpt lat="43.98829294470649" lon="10.798575460190754"><ele>977.0</ele><time>2026-05-01T16:30:57.836Z</time></trkpt><trkpt lat="43.988161220401246" lon="10.798508328061065"><ele>976.0</ele><time>2026-05-01T16:30:58.836Z</time></trkpt><trkpt lat="43.98803970779446" lon="10.798433205763073"><ele>976.0</ele><time>2026-05-01T16:30:59.836Z</time></trkpt><trkpt lat="43.98792163492177" lon="10.798418652722683"><ele>975.9999999999999</ele><time>2026-05-01T16:31:00.836Z</time></trkpt><trkpt lat="43.987812939129235" lon="10.798413499364745"><ele>975.9999999999999</ele><time>2026-05-01T16:31:01.836Z</time></trkpt><trkpt lat="43.987711875297926" lon="10.79844172938919"><ele>976.0</ele><time>2026-05-01T16:31:02.836Z</time></trkpt><trkpt lat="43.987624571611335" lon="10.798496058191663"><ele>976.0</ele><time>2026-05-01T16:31:03.836Z</time></trkpt><trkpt lat="43.98755988644196" lon="10.798556393904931"><ele>976.0</ele><time>2026-05-01T16:31:04.836Z</time></trkpt><trkpt lat="43.98751583382393" lon="10.798718435604885"><ele>976.0</ele><time>2026-05-01T16:31:05.836Z</time></trkpt><trkpt lat="43.98749404479004" lon="10.798885572501618"><ele>976.0</ele><time>2026-05-01T16:31:06.836Z</time></trkpt><trkpt lat="43.98745062163786" lon="10.799071980561871"><ele>976.0</ele><time>2026-05-01T16:31:07.836Z</time></trkpt><trkpt lat="43.987379889485986" lon="10.799210358695868"><ele>973.8</ele><time>2026-05-01T16:31:08.836Z</time></trkpt><trkpt lat="43.987302848179056" lon="10.799324684434104"><ele>971.5999999999999</ele><time>2026-05-01T16:31:09.836Z</time></trkpt><trkpt lat="43.987235505548156" lon="10.799427087632347"><ele>969.4</ele><time>2026-05-01T16:31:10.836Z</time></trkpt><trkpt lat="43.98721721890677" lon="10.799518110867705"><ele>967.2</ele><time>2026-05-01T16:31:11.836Z</time></trkpt><trkpt lat="43.98719516401027" lon="10.799618777216175"><ele>965.0</ele><time>2026-05-01T16:31:12.836Z</time></trkpt><trkpt lat="43.98723505421336" lon="10.799780468946727"><ele>965.0</ele><time>2026-05-01T16:31:13.836Z</time></trkpt><trkpt lat="43.987310496119704" lon="10.799902890573716"><ele>965.0</ele><time>2026-05-01T16:31:14.836Z</time></trkpt><trkpt lat="43.987382743132024" lon="10.800005860484784"><ele>965.0</ele><time>2026-05-01T16:31:15.836Z</time></trkpt><trkpt lat="43.98742944392164" lon="10.800104108395715"><ele>965.0</ele><time>2026-05-01T16:31:16.836Z</time></trkpt><trkpt lat="43.98745440935896" lon="10.800203130717705"><ele>965.0</ele><time>2026-05-01T16:31:17.836Z</time></trkpt><trkpt lat="43.98740424989085" lon="10.80029977142952"><ele>966.25</ele><time>2026-05-01T16:31:18.836Z</time></trkpt><trkpt lat="43.98732775961175" lon="10.80038141238594"><ele>967.5</ele><time>2026-05-01T16:31:19.836Z</time></trkpt><trkpt lat="43.98722531108706" lon="10.800386721829076"><ele>968.75</ele><time>2026-05-01T16:31:20.836Z</time></trkpt><trkpt lat="43.987077934187646" lon="10.800316825633303"><ele>970.0</ele><time>2026-05-01T16:31:21.836Z</time></trkpt><trkpt lat="43.98694443079038" lon="10.800232397632394"><ele>968.75</ele><time>2026-05-01T16:31:22.836Z</time></trkpt><trkpt lat="43.986837892939846" lon="10.800151913543907"><ele>967.5</ele><time>2026-05-01T16:31:23.836Z</time></trkpt><trkpt lat="43.98672429234003" lon="10.800069220274716"><ele>966.25</ele><time>2026-05-01T16:31:24.836Z</time></trkpt><trkpt lat="43.98662113267996" lon="10.799983678310259"><ele>965.0</ele><time>2026-05-01T16:31:25.836Z</time></trkpt><trkpt lat="43.98652347968412" lon="10.799920041658883"><ele>964.5</ele><time>2026-05-01T16:31:26.836Z</time></trkpt><trkpt lat="43.98642121382974" lon="10.799899935254794"><ele>964.0</ele><time>2026-05-01T16:31:27.836Z</time></trkpt><trkpt lat="43.98629890955572" lon="10.7999302149024"><ele>963.5</ele><time>2026-05-01T16:31:28.836Z</time></trkpt><trkpt lat="43.986185025040854" lon="10.799999017978005"><ele>963.0</ele><time>2026-05-01T16:31:29.836Z</time></trkpt><trkpt lat="43.986063592933" lon="10.800112040364903"><ele>961.3333333333333</ele><time>2026-05-01T16:31:30.836Z</time></trkpt><trkpt lat="43.985929994952464" lon="10.80024963734054"><ele>959.6666666666666</ele><time>2026-05-01T16:31:31.836Z</time></trkpt><trkpt lat="43.98578697989718" lon="10.80036650974361"><ele>958.0</ele><time>2026-05-01T16:31:32.836Z</time></trkpt><trkpt lat="43.98565572031475" lon="10.800468497938374"><ele>958.0</ele><time>2026-05-01T16:31:33.836Z</time></trkpt><trkpt lat="43.985529566706454" lon="10.800550798216227"><ele>958.0</ele><time>2026-05-01T16:31:34.836Z</time></trkpt><trkpt lat="43.98540659470611" lon="10.800612085835406"><ele>958.0</ele><time>2026-05-01T16:31:35.836Z</time></trkpt><trkpt lat="43.98524783253704" lon="10.800617657392985"><ele>958.0</ele><time>2026-05-01T16:31:36.836Z</time></trkpt><trkpt lat="43.98510264466805" lon="10.800592454712143"><ele>958.5999999999999</ele><time>2026-05-01T16:31:37.836Z</time></trkpt><trkpt lat="43.985007340403556" lon="10.800539112017194"><ele>959.1999999999999</ele><time>2026-05-01T16:31:38.836Z</time></trkpt><trkpt lat="43.98495974189808" lon="10.800463178598381"><ele>959.8</ele><time>2026-05-01T16:31:39.836Z</time></trkpt><trkpt lat="43.98494534433627" lon="10.800337368800903"><ele>960.4</ele><time>2026-05-01T16:31:40.836Z</time></trkpt><trkpt lat="43.9848816991442" lon="10.800230365970473"><ele>961.0</ele><time>2026-05-01T16:31:41.836Z</time></trkpt><trkpt lat="43.984810464531556" lon="10.80012492612173"><ele>961.0</ele><time>2026-05-01T16:31:42.836Z</time></trkpt><trkpt lat="43.984703443574645" lon="10.800073633006667"><ele>960.9999999999999</ele><time>2026-05-01T16:31:43.836Z</time></trkpt><trkpt lat="43.984580143992574" lon="10.800048804898978"><ele>960.9999999999999</ele><time>2026-05-01T16:31:44.836Z</time></trkpt><trkpt lat="43.9844693609344" lon="10.80006599895719"><ele>961.0</ele><time>2026-05-01T16:31:45.836Z</time></trkpt><trkpt lat="43.98439016119904" lon="10.80010580317013"><ele>961.0</ele><time>2026-05-01T16:31:46.836Z</time></trkpt><trkpt lat="43.98433901179734" lon="10.800211896974842"><ele>958.4</ele><time>2026-05-01T16:31:47.836Z</time></trkpt><trkpt lat="43.98432736221864" lon="10.800332824072637"><ele>955.8</ele><time>2026-05-01T16:31:48.836Z</time></trkpt><trkpt lat="43.98432664119732" lon="10.800496368907352"><ele>953.1999999999999</ele><time>2026-05-01T16:31:49.836Z</time></trkpt><trkpt lat="43.984332669282516" lon="10.80066754183059"><ele>950.5999999999999</ele><time>2026-05-01T16:31:50.836Z</time></trkpt><trkpt lat="43.98430107229815" lon="10.800791597436197"><ele>948.0</ele><time>2026-05-01T16:31:51.836Z</time></trkpt><trkpt lat="43.98419972471636" lon="10.800894341566874"><ele>946.0</ele><time>2026-05-01T16:31:52.836Z</time></trkpt><trkpt lat="43.984086513420415" lon="10.801024146706073"><ele>944.0</ele><time>2026-05-01T16:31:53.836Z</time></trkpt><trkpt lat="43.9839638970525" lon="10.80115391981467"><ele>942.0</ele><time>2026-05-01T16:31:54.836Z</time></trkpt><trkpt lat="43.98384023132527" lon="10.801287906996258"><ele>942.0</ele><time>2026-05-01T16:31:55.836Z</time></trkpt><trkpt lat="43.98369689897371" lon="10.801390877485819"><ele>942.0</ele><time>2026-05-01T16:31:56.836Z</time></trkpt><trkpt lat="43.98355167786628" lon="10.801514269287868"><ele>942.0</ele><time>2026-05-01T16:31:57.836Z</time></trkpt><trkpt lat="43.983385710214904" lon="10.801609963112242"><ele>944.0</ele><time>2026-05-01T16:31:58.836Z</time></trkpt><trkpt lat="43.98325914724684" lon="10.801686312786936"><ele>946.0</ele><time>2026-05-01T16:31:59.836Z</time></trkpt><trkpt lat="43.983141401436036" lon="10.801768857141541"><ele>948.0</ele><time>2026-05-01T16:32:00.836Z</time></trkpt><trkpt lat="43.98304466076014" lon="10.801812137476361"><ele>950.0</ele><time>2026-05-01T16:32:01.836Z</time></trkpt><trkpt lat="43.982946184444806" lon="10.801832307680499"><ele>950.0</ele><time>2026-05-01T16:32:02.836Z</time></trkpt><trkpt lat="43.98285825344314" lon="10.801790182775134"><ele>950.0</ele><time>2026-05-01T16:32:03.836Z</time></trkpt><trkpt lat="43.98277262893963" lon="10.801686674467526"><ele>950.0</ele><time>2026-05-01T16:32:04.836Z</time></trkpt><trkpt lat="43.982703242958955" lon="10.801546426907365"><ele>950.0</ele><time>2026-05-01T16:32:05.836Z</time></trkpt><trkpt lat="43.98262356696992" lon="10.801368133433739"><ele>950.0</ele><time>2026-05-01T16:32:06.836Z</time></trkpt><trkpt lat="43.98252036529925" lon="10.801198247229166"><ele>950.0</ele><time>2026-05-01T16:32:07.836Z</time></trkpt><trkpt lat="43.98242320022961" lon="10.801032580913038"><ele>950.0</ele><time>2026-05-01T16:32:08.836Z</time></trkpt><trkpt lat="43.982313579473306" lon="10.800882387670152"><ele>950.25</ele><time>2026-05-01T16:32:09.836Z</time></trkpt><trkpt lat="43.982191260865775" lon="10.800749039762753"><ele>950.5</ele><time>2026-05-01T16:32:10.836Z</time></trkpt><trkpt lat="43.982050429911716" lon="10.800672068989757"><ele>950.75</ele><time>2026-05-01T16:32:11.836Z</time></trkpt><trkpt lat="43.981914765422495" lon="10.800679912004632"><ele>951.0</ele><time>2026-05-01T16:32:12.836Z</time></trkpt><trkpt lat="43.981779735078916" lon="10.800677962551363"><ele>946.3333333333333</ele><time>2026-05-01T16:32:13.836Z</time></trkpt><trkpt lat="43.98161869624557" lon="10.800646072315288"><ele>941.6666666666666</ele><time>2026-05-01T16:32:14.836Z</time></trkpt><trkpt lat="43.98146725846458" lon="10.800641349013775"><ele>937.0</ele><time>2026-05-01T16:32:15.836Z</time></trkpt><trkpt lat="43.981322405691564" lon="10.800701086740787"><ele>937.0</ele><time>2026-05-01T16:32:16.837Z</time></trkpt><trkpt lat="43.98120981607309" lon="10.800740658134131"><ele>937.0</ele><time>2026-05-01T16:32:17.837Z</time></trkpt><trkpt lat="43.98110393954804" lon="10.80079182171673"><ele>937.0</ele><time>2026-05-01T16:32:18.837Z</time></trkpt><trkpt lat="43.98100632388554" lon="10.800816389399635"><ele>937.0</ele><time>2026-05-01T16:32:19.837Z</time></trkpt><trkpt lat="43.98093083624567" lon="10.800792982680509"><ele>937.0</ele><time>2026-05-01T16:32:20.837Z</time></trkpt><trkpt lat="43.98087462040062" lon="10.800686216380887"><ele>937.0</ele><time>2026-05-01T16:32:21.837Z</time></trkpt><trkpt lat="43.98087799522006" lon="10.800537861688575"><ele>937.0</ele><time>2026-05-01T16:32:22.838Z</time></trkpt><trkpt lat="43.98084455016923" lon="10.80040184531941"><ele>937.0</ele><time>2026-05-01T16:32:23.837Z</time></trkpt><trkpt lat="43.98079034604784" lon="10.800283415241163"><ele>937.0</ele><time>2026-05-01T16:32:24.837Z</time></trkpt><trkpt lat="43.980702969296175" lon="10.800193101993969"><ele>937.0</ele><time>2026-05-01T16:32:25.837Z</time></trkpt><trkpt lat="43.980584820585875" lon="10.800212145271693"><ele>935.0</ele><time>2026-05-01T16:32:26.837Z</time></trkpt><trkpt lat="43.98046549563338" lon="10.800252441769276"><ele>933.0</ele><time>2026-05-01T16:32:27.837Z</time></trkpt><trkpt lat="43.98031603210893" lon="10.800265050164588"><ele>931.0</ele><time>2026-05-01T16:32:28.837Z</time></trkpt><trkpt lat="43.9801748314916" lon="10.800249765447992"><ele>929.0</ele><time>2026-05-01T16:32:29.837Z</time></trkpt><trkpt lat="43.98004160111553" lon="10.800216053442659"><ele>929.0</ele><time>2026-05-01T16:32:30.837Z</time></trkpt><trkpt lat="43.97991813708934" lon="10.800156323664167"><ele>929.0</ele><time>2026-05-01T16:32:31.837Z</time></trkpt><trkpt lat="43.979823905000565" lon="10.800062392991954"><ele>929.0</ele><time>2026-05-01T16:32:32.838Z</time></trkpt><trkpt lat="43.979752198124785" lon="10.7999145286872"><ele>929.0</ele><time>2026-05-01T16:32:33.838Z</time></trkpt><trkpt lat="43.97967660593967" lon="10.799753804600584"><ele>929.0</ele><time>2026-05-01T16:32:34.838Z</time></trkpt><trkpt lat="43.97962304389984" lon="10.799576559540398"><ele>929.0</ele><time>2026-05-01T16:32:35.838Z</time></trkpt><trkpt lat="43.97954933688324" lon="10.799419328434427"><ele>929.0</ele><time>2026-05-01T16:32:36.838Z</time></trkpt><trkpt lat="43.97945649343222" lon="10.799266878267039"><ele>929.0</ele><time>2026-05-01T16:32:37.838Z</time></trkpt><trkpt lat="43.97935654226807" lon="10.799131367319765"><ele>927.0</ele><time>2026-05-01T16:32:38.838Z</time></trkpt><trkpt lat="43.97921522733798" lon="10.799050353038602"><ele>925.0</ele><time>2026-05-01T16:32:39.838Z</time></trkpt><trkpt lat="43.979056762030375" lon="10.799042859115586"><ele>923.0</ele><time>2026-05-01T16:32:40.838Z</time></trkpt><trkpt lat="43.97889378941822" lon="10.799013205082277"><ele>923.0</ele><time>2026-05-01T16:32:41.838Z</time></trkpt><trkpt lat="43.978738935379766" lon="10.798919710649397"><ele>923.0</ele><time>2026-05-01T16:32:42.838Z</time></trkpt><trkpt lat="43.97854495371694" lon="10.798781003553712"><ele>923.0</ele><time>2026-05-01T16:32:43.838Z</time></trkpt><trkpt lat="43.97833413442293" lon="10.798660461320654"><ele>925.3333333333334</ele><time>2026-05-01T16:32:44.838Z</time></trkpt><trkpt lat="43.9781541086437" lon="10.798538146683063"><ele>927.6666666666667</ele><time>2026-05-01T16:32:45.838Z</time></trkpt><trkpt lat="43.97797886675901" lon="10.798394108613369"><ele>930.0</ele><time>2026-05-01T16:32:46.838Z</time></trkpt><trkpt lat="43.97781004818931" lon="10.798281192823898"><ele>930.0</ele><time>2026-05-01T16:32:47.838Z</time></trkpt><trkpt lat="43.97764248075048" lon="10.798209398756878"><ele>930.0</ele><time>2026-05-01T16:32:48.838Z</time></trkpt><trkpt lat="43.977492506515944" lon="10.798122607192697"><ele>930.0</ele><time>2026-05-01T16:32:49.838Z</time></trkpt><trkpt lat="43.9773393363778" lon="10.798055420161786"><ele>924.3333333333333</ele><time>2026-05-01T16:32:50.838Z</time></trkpt><trkpt lat="43.977198572947984" lon="10.797978926977096"><ele>918.6666666666666</ele><time>2026-05-01T16:32:51.838Z</time></trkpt><trkpt lat="43.97705096916267" lon="10.797953843867424"><ele>913.0</ele><time>2026-05-01T16:32:52.838Z</time></trkpt><trkpt lat="43.97687982930265" lon="10.797970826377448"><ele>913.0</ele><time>2026-05-01T16:32:53.838Z</time></trkpt><trkpt lat="43.97671053475912" lon="10.797983453337283"><ele>913.0</ele><time>2026-05-01T16:32:54.838Z</time></trkpt><trkpt lat="43.97653957192681" lon="10.797996204726303"><ele>913.0</ele><time>2026-05-01T16:32:55.838Z</time></trkpt><trkpt lat="43.976374235823286" lon="10.798190857853944"><ele>912.6666666666666</ele><time>2026-05-01T16:32:56.838Z</time></trkpt><trkpt lat="43.97618713674233" lon="10.798300119419642"><ele>912.3333333333333</ele><time>2026-05-01T16:32:57.838Z</time></trkpt><trkpt lat="43.97599753728002" lon="10.798419065208247"><ele>912.0</ele><time>2026-05-01T16:32:58.838Z</time></trkpt><trkpt lat="43.97580700816889" lon="10.798532454364551"><ele>907.6666666666667</ele><time>2026-05-01T16:32:59.838Z</time></trkpt><trkpt lat="43.975626153355115" lon="10.798635412511558"><ele>903.3333333333334</ele><time>2026-05-01T16:33:00.838Z</time></trkpt><trkpt lat="43.9754510125364" lon="10.798749151568213"><ele>899.0</ele><time>2026-05-01T16:33:01.838Z</time></trkpt><trkpt lat="43.97530147773339" lon="10.79885553465455"><ele>899.0</ele><time>2026-05-01T16:33:02.838Z</time></trkpt><trkpt lat="43.97514823378816" lon="10.798984057495025"><ele>899.0</ele><time>2026-05-01T16:33:03.838Z</time></trkpt><trkpt lat="43.974990150481844" lon="10.799057387902963"><ele>899.0</ele><time>2026-05-01T16:33:04.838Z</time></trkpt><trkpt lat="43.97482114652466" lon="10.799099695255613"><ele>898.6666666666667</ele><time>2026-05-01T16:33:05.838Z</time></trkpt><trkpt lat="43.97464855031416" lon="10.799129800863621"><ele>898.3333333333333</ele><time>2026-05-01T16:33:06.838Z</time></trkpt><trkpt lat="43.97448495125128" lon="10.799181126918727"><ele>898.0</ele><time>2026-05-01T16:33:07.838Z</time></trkpt><trkpt lat="43.974342886290394" lon="10.799264542511878"><ele>895.25</ele><time>2026-05-01T16:33:08.838Z</time></trkpt><trkpt lat="43.974222766533344" lon="10.799392504184166"><ele>892.5</ele><time>2026-05-01T16:33:09.838Z</time></trkpt><trkpt lat="43.974142918464786" lon="10.799500287165529"><ele>889.75</ele><time>2026-05-01T16:33:10.838Z</time></trkpt><trkpt lat="43.974068787718004" lon="10.799592417226927"><ele>887.0</ele><time>2026-05-01T16:33:11.838Z</time></trkpt><trkpt lat="43.97395578098587" lon="10.799648872683854"><ele>887.0</ele><time>2026-05-01T16:33:12.838Z</time></trkpt><trkpt lat="43.973826188171984" lon="10.799654496359091"><ele>887.0</ele><time>2026-05-01T16:33:13.838Z</time></trkpt><trkpt lat="43.97369174989785" lon="10.799593819254051"><ele>887.0</ele><time>2026-05-01T16:33:14.838Z</time></trkpt><trkpt lat="43.97354322874412" lon="10.799537040332387"><ele>887.0</ele><time>2026-05-01T16:33:15.838Z</time></trkpt><trkpt lat="43.973394532696304" lon="10.79949125224212"><ele>886.75</ele><time>2026-05-01T16:33:16.838Z</time></trkpt><trkpt lat="43.97326301190495" lon="10.799458910981812"><ele>886.5</ele><time>2026-05-01T16:33:17.838Z</time></trkpt><trkpt lat="43.97312893516079" lon="10.799473698263006"><ele>886.25</ele><time>2026-05-01T16:33:18.838Z</time></trkpt><trkpt lat="43.972984468477065" lon="10.799526979444042"><ele>886.0</ele><time>2026-05-01T16:33:19.838Z</time></trkpt><trkpt lat="43.97284270818494" lon="10.79958204512139"><ele>886.0</ele><time>2026-05-01T16:33:20.838Z</time></trkpt><trkpt lat="43.972687734684506" lon="10.799625343194142"><ele>886.0</ele><time>2026-05-01T16:33:21.838Z</time></trkpt><trkpt lat="43.97253078005824" lon="10.799638820977206"><ele>886.0</ele><time>2026-05-01T16:33:22.838Z</time></trkpt><trkpt lat="43.972376365412764" lon="10.799642868954749"><ele>884.75</ele><time>2026-05-01T16:33:23.838Z</time></trkpt><trkpt lat="43.972233863896584" lon="10.799645145600463"><ele>883.5</ele><time>2026-05-01T16:33:24.838Z</time></trkpt><trkpt lat="43.972100327665636" lon="10.799617606356643"><ele>882.25</ele><time>2026-05-01T16:33:25.838Z</time></trkpt><trkpt lat="43.97197249654262" lon="10.799547593392386"><ele>881.0</ele><time>2026-05-01T16:33:26.838Z</time></trkpt><trkpt lat="43.9718374827085" lon="10.799435665847716"><ele>881.0</ele><time>2026-05-01T16:33:27.838Z</time></trkpt><trkpt lat="43.97169260591027" lon="10.799335946037136"><ele>881.0</ele><time>2026-05-01T16:33:28.838Z</time></trkpt><trkpt lat="43.97154326807925" lon="10.799226593446084"><ele>881.0</ele><time>2026-05-01T16:33:29.838Z</time></trkpt><trkpt lat="43.97138630678673" lon="10.799095641655986"><ele>883.0</ele><time>2026-05-01T16:33:30.838Z</time></trkpt><trkpt lat="43.971227136345085" lon="10.79895005542827"><ele>885.0</ele><time>2026-05-01T16:33:31.838Z</time></trkpt><trkpt lat="43.971061250715394" lon="10.798800553681692"><ele>887.0</ele><time>2026-05-01T16:33:32.838Z</time></trkpt><trkpt lat="43.97089105583716" lon="10.798637808917379"><ele>884.3333333333334</ele><time>2026-05-01T16:33:33.838Z</time></trkpt><trkpt lat="43.97072363123686" lon="10.798485035072828"><ele>881.6666666666667</ele><time>2026-05-01T16:33:34.838Z</time></trkpt><trkpt lat="43.97056730351996" lon="10.798319805239792"><ele>879.0</ele><time>2026-05-01T16:33:35.838Z</time></trkpt><trkpt lat="43.97039823864758" lon="10.798165716187915"><ele>879.0</ele><time>2026-05-01T16:33:36.838Z</time></trkpt><trkpt lat="43.97023818900832" lon="10.798008590397188"><ele>879.0</ele><time>2026-05-01T16:33:37.838Z</time></trkpt><trkpt lat="43.970095152040734" lon="10.797861636903075"><ele>879.0</ele><time>2026-05-01T16:33:38.838Z</time></trkpt><trkpt lat="43.96995563490862" lon="10.797733229879588"><ele>878.6666666666667</ele><time>2026-05-01T16:33:39.838Z</time></trkpt><trkpt lat="43.969818679920266" lon="10.797616811263318"><ele>878.3333333333334</ele><time>2026-05-01T16:33:40.838Z</time></trkpt><trkpt lat="43.96968470333133" lon="10.797504758960475"><ele>878.0</ele><time>2026-05-01T16:33:41.838Z</time></trkpt><trkpt lat="43.9695591985055" lon="10.797392576561105"><ele>878.0</ele><time>2026-05-01T16:33:42.838Z</time></trkpt><trkpt lat="43.96944878873693" lon="10.797277796359484"><ele>878.0</ele><time>2026-05-01T16:33:43.838Z</time></trkpt><trkpt lat="43.96932995288207" lon="10.797149255360981"><ele>878.0</ele><time>2026-05-01T16:33:44.838Z</time></trkpt><trkpt lat="43.96921780993202" lon="10.797017363809573"><ele>878.0</ele><time>2026-05-01T16:33:45.838Z</time></trkpt><trkpt lat="43.969100811132456" lon="10.796902104363982"><ele>877.5999999999999</ele><time>2026-05-01T16:33:46.838Z</time></trkpt><trkpt lat="43.96900354599744" lon="10.796789066778274"><ele>877.1999999999999</ele><time>2026-05-01T16:33:47.838Z</time></trkpt><trkpt lat="43.96891377638035" lon="10.796694308558648"><ele>876.8</ele><time>2026-05-01T16:33:48.838Z</time></trkpt><trkpt lat="43.968836505867394" lon="10.796612868363795"><ele>876.4</ele><time>2026-05-01T16:33:49.838Z</time></trkpt><trkpt lat="43.96875567498389" lon="10.796535359565118"><ele>876.0</ele><time>2026-05-01T16:33:50.838Z</time></trkpt><trkpt lat="43.96867325694605" lon="10.796462064255898"><ele>876.0</ele><time>2026-05-01T16:33:51.838Z</time></trkpt><trkpt lat="43.9685867585416" lon="10.796393163614466"><ele>875.9999999999999</ele><time>2026-05-01T16:33:52.838Z</time></trkpt><trkpt lat="43.968490905135376" lon="10.796338113125904"><ele>875.9999999999999</ele><time>2026-05-01T16:33:53.838Z</time></trkpt><trkpt lat="43.96838798656694" lon="10.796291901850424"><ele>876.0</ele><time>2026-05-01T16:33:54.838Z</time></trkpt><trkpt lat="43.9682881141125" lon="10.796249062807506"><ele>876.0</ele><time>2026-05-01T16:33:55.838Z</time></trkpt><trkpt lat="43.968184393781115" lon="10.796197832154885"><ele>875.5999999999999</ele><time>2026-05-01T16:33:56.838Z</time></trkpt><trkpt lat="43.96808721775325" lon="10.796145745621974"><ele>875.1999999999999</ele><time>2026-05-01T16:33:57.838Z</time></trkpt><trkpt lat="43.96799633785118" lon="10.79608696272105"><ele>874.8000000000001</ele><time>2026-05-01T16:33:58.838Z</time></trkpt><trkpt lat="43.96790135204099" lon="10.796011063229319"><ele>874.4000000000001</ele><time>2026-05-01T16:33:59.838Z</time></trkpt><trkpt lat="43.96781323300361" lon="10.795931673748026"><ele>874.0</ele><time>2026-05-01T16:34:00.838Z</time></trkpt><trkpt lat="43.96774527510269" lon="10.795861661614008"><ele>872.0</ele><time>2026-05-01T16:34:01.838Z</time></trkpt><trkpt lat="43.96769404689266" lon="10.795806687293727"><ele>870.0</ele><time>2026-05-01T16:34:02.838Z</time></trkpt><trkpt lat="43.967601161468465" lon="10.795755774552335"><ele>868.0</ele><time>2026-05-01T16:34:04.838Z</time></trkpt><trkpt lat="43.967435411205095" lon="10.795833062653887"><ele>866.0</ele><time>2026-05-01T16:34:07.838Z</time></trkpt><trkpt lat="43.96735145798688" lon="10.795953509234604"><ele>866.5</ele><time>2026-05-01T16:34:08.838Z</time></trkpt><trkpt lat="43.96727164241156" lon="10.796157678290779"><ele>867.0</ele><time>2026-05-01T16:34:09.838Z</time></trkpt><trkpt lat="43.96722942420934" lon="10.796360226929362"><ele>867.5</ele><time>2026-05-01T16:34:10.838Z</time></trkpt><trkpt lat="43.967193005595654" lon="10.796509541460438"><ele>868.0</ele><time>2026-05-01T16:34:11.838Z</time></trkpt><trkpt lat="43.967121142052704" lon="10.796666290799369"><ele>868.0</ele><time>2026-05-01T16:34:12.838Z</time></trkpt><trkpt lat="43.9669911842782" lon="10.796773308802754"><ele>868.0</ele><time>2026-05-01T16:34:13.838Z</time></trkpt><trkpt lat="43.96684507364388" lon="10.796941807668333"><ele>868.0</ele><time>2026-05-01T16:34:14.838Z</time></trkpt><trkpt lat="43.966658798486336" lon="10.79699391795691"><ele>869.3333333333333</ele><time>2026-05-01T16:34:15.838Z</time></trkpt><trkpt lat="43.96647738080792" lon="10.797020401320234"><ele>870.6666666666667</ele><time>2026-05-01T16:34:16.838Z</time></trkpt><trkpt lat="43.96661918081915" lon="10.796781817394454"><ele>872.0</ele><time>2026-05-01T16:34:17.838Z</time></trkpt><trkpt lat="43.96647768499022" lon="10.796727649895299"><ele>868.75</ele><time>2026-05-01T16:34:18.838Z</time></trkpt><trkpt lat="43.96633242987874" lon="10.796711140356612"><ele>865.5</ele><time>2026-05-01T16:34:19.838Z</time></trkpt><trkpt lat="43.966196741279624" lon="10.79670205022583"><ele>862.25</ele><time>2026-05-01T16:34:20.838Z</time></trkpt><trkpt lat="43.96607295881946" lon="10.796723413238992"><ele>859.0</ele><time>2026-05-01T16:34:21.838Z</time></trkpt><trkpt lat="43.965953442377405" lon="10.79674591675522"><ele>859.75</ele><time>2026-05-01T16:34:22.838Z</time></trkpt><trkpt lat="43.96584283684644" lon="10.796800670002039"><ele>860.5</ele><time>2026-05-01T16:34:23.838Z</time></trkpt><trkpt lat="43.96574904492852" lon="10.796897110215937"><ele>861.25</ele><time>2026-05-01T16:34:24.838Z</time></trkpt><trkpt lat="43.965671895099625" lon="10.797021052325645"><ele>862.0</ele><time>2026-05-01T16:34:25.838Z</time></trkpt><trkpt lat="43.96558501485458" lon="10.797102924062829"><ele>862.0</ele><time>2026-05-01T16:34:26.838Z</time></trkpt><trkpt lat="43.96548068830615" lon="10.79714369578376"><ele>862.0</ele><time>2026-05-01T16:34:27.838Z</time></trkpt><trkpt lat="43.965373262441396" lon="10.797115952566866"><ele>862.0</ele><time>2026-05-01T16:34:28.838Z</time></trkpt><trkpt lat="43.96529353698682" lon="10.796978716992545"><ele>862.0</ele><time>2026-05-01T16:34:29.839Z</time></trkpt><trkpt lat="43.96519642453278" lon="10.796876256385515"><ele>858.5</ele><time>2026-05-01T16:34:30.839Z</time></trkpt><trkpt lat="43.96509820300946" lon="10.796784970317024"><ele>855.0</ele><time>2026-05-01T16:34:31.838Z</time></trkpt><trkpt lat="43.96498767814967" lon="10.796723919229617"><ele>851.5</ele><time>2026-05-01T16:34:32.838Z</time></trkpt><trkpt lat="43.964884085641046" lon="10.796643807613302"><ele>848.0</ele><time>2026-05-01T16:34:33.838Z</time></trkpt><trkpt lat="43.96477255715693" lon="10.79658058352193"><ele>845.8</ele><time>2026-05-01T16:34:34.839Z</time></trkpt><trkpt lat="43.96466070091226" lon="10.796528032693633"><ele>843.5999999999999</ele><time>2026-05-01T16:34:35.838Z</time></trkpt><trkpt lat="43.96455621113795" lon="10.796497724237856"><ele>841.4000000000001</ele><time>2026-05-01T16:34:36.838Z</time></trkpt><trkpt lat="43.964463263287996" lon="10.796504202259353"><ele>839.2</ele><time>2026-05-01T16:34:37.838Z</time></trkpt><trkpt lat="43.96438353541762" lon="10.796571245223731"><ele>837.0</ele><time>2026-05-01T16:34:38.838Z</time></trkpt><trkpt lat="43.96433504820322" lon="10.796756543135414"><ele>838.75</ele><time>2026-05-01T16:34:39.838Z</time></trkpt><trkpt lat="43.964291169616175" lon="10.796913466560097"><ele>840.5</ele><time>2026-05-01T16:34:40.838Z</time></trkpt><trkpt lat="43.96422047429152" lon="10.797065580169516"><ele>842.25</ele><time>2026-05-01T16:34:41.838Z</time></trkpt><trkpt lat="43.964118814615475" lon="10.797174607543345"><ele>844.0</ele><time>2026-05-01T16:34:42.838Z</time></trkpt><trkpt lat="43.963987018284676" lon="10.797237408659317"><ele>844.0</ele><time>2026-05-01T16:34:43.838Z</time></trkpt><trkpt lat="43.96385484462621" lon="10.79729662112025"><ele>844.0</ele><time>2026-05-01T16:34:44.838Z</time></trkpt><trkpt lat="43.963746801352485" lon="10.797340452246615"><ele>844.0</ele><time>2026-05-01T16:34:45.838Z</time></trkpt><trkpt lat="43.96362274747119" lon="10.797373814597272"><ele>844.0</ele><time>2026-05-01T16:34:46.838Z</time></trkpt><trkpt lat="43.96350698172167" lon="10.797367748974496"><ele>844.0</ele><time>2026-05-01T16:34:47.838Z</time></trkpt><trkpt lat="43.96341623070585" lon="10.797295031201145"><ele>844.0</ele><time>2026-05-01T16:34:48.838Z</time></trkpt><trkpt lat="43.963299259489084" lon="10.797225617182615"><ele>844.0</ele><time>2026-05-01T16:34:49.838Z</time></trkpt><trkpt lat="43.96320943972732" lon="10.797141726762895"><ele>844.0</ele><time>2026-05-01T16:34:50.838Z</time></trkpt><trkpt lat="43.963119557310705" lon="10.797076898799869"><ele>844.0</ele><time>2026-05-01T16:34:51.838Z</time></trkpt><trkpt lat="43.96301239541056" lon="10.797048121770048"><ele>842.8000000000001</ele><time>2026-05-01T16:34:52.838Z</time></trkpt><trkpt lat="43.96291112534261" lon="10.797020228663774"><ele>841.6</ele><time>2026-05-01T16:34:53.838Z</time></trkpt><trkpt lat="43.96279627385518" lon="10.797036837402304"><ele>840.4</ele><time>2026-05-01T16:34:54.838Z</time></trkpt><trkpt lat="43.96269111199194" lon="10.797083851773408"><ele>839.2</ele><time>2026-05-01T16:34:55.838Z</time></trkpt><trkpt lat="43.96258894407742" lon="10.797142134792978"><ele>838.0</ele><time>2026-05-01T16:34:56.838Z</time></trkpt><trkpt lat="43.9625094904629" lon="10.797218374654555"><ele>838.25</ele><time>2026-05-01T16:34:57.838Z</time></trkpt><trkpt lat="43.96242177066267" lon="10.797329064831933"><ele>838.5</ele><time>2026-05-01T16:34:58.838Z</time></trkpt><trkpt lat="43.96233662480761" lon="10.797458317932998"><ele>838.75</ele><time>2026-05-01T16:34:59.838Z</time></trkpt><trkpt lat="43.9622782802725" lon="10.797635135552655"><ele>839.0</ele><time>2026-05-01T16:35:00.838Z</time></trkpt><trkpt lat="43.962246598450506" lon="10.797804105269211"><ele>839.0</ele><time>2026-05-01T16:35:01.838Z</time></trkpt><trkpt lat="43.96224175224818" lon="10.797994368437747"><ele>839.0</ele><time>2026-05-01T16:35:02.838Z</time></trkpt><trkpt lat="43.96224413638063" lon="10.798197808721204"><ele>839.0</ele><time>2026-05-01T16:35:03.838Z</time></trkpt><trkpt lat="43.96224799158177" lon="10.798390380065806"><ele>839.0</ele><time>2026-05-01T16:35:04.838Z</time></trkpt><trkpt lat="43.96225147291947" lon="10.798564275385013"><ele>840.25</ele><time>2026-05-01T16:35:05.838Z</time></trkpt><trkpt lat="43.962254894475485" lon="10.798735184405004"><ele>841.5</ele><time>2026-05-01T16:35:06.838Z</time></trkpt><trkpt lat="43.962258271694445" lon="10.798903879069988"><ele>842.75</ele><time>2026-05-01T16:35:07.838Z</time></trkpt><trkpt lat="43.96226162962615" lon="10.799071610350875"><ele>844.0</ele><time>2026-05-01T16:35:08.838Z</time></trkpt><trkpt lat="43.962267052000605" lon="10.799245668710897"><ele>840.5</ele><time>2026-05-01T16:35:09.838Z</time></trkpt><trkpt lat="43.962291421003876" lon="10.799423993104266"><ele>837.0</ele><time>2026-05-01T16:35:10.838Z</time></trkpt><trkpt lat="43.96232566273371" lon="10.799596445451897"><ele>833.5</ele><time>2026-05-01T16:35:11.838Z</time></trkpt><trkpt lat="43.962369647738285" lon="10.799764216947828"><ele>830.0</ele><time>2026-05-01T16:35:12.838Z</time></trkpt><trkpt lat="43.96240916995788" lon="10.799911775833815"><ele>830.0</ele><time>2026-05-01T16:35:13.838Z</time></trkpt><trkpt lat="43.96245173496508" lon="10.80007161567199"><ele>830.0</ele><time>2026-05-01T16:35:14.838Z</time></trkpt><trkpt lat="43.96248447596632" lon="10.800216283940111"><ele>830.0</ele><time>2026-05-01T16:35:15.838Z</time></trkpt><trkpt lat="43.96251484882294" lon="10.80037995132792"><ele>830.0</ele><time>2026-05-01T16:35:16.838Z</time></trkpt><trkpt lat="43.96254183379304" lon="10.800542355252087"><ele>830.8</ele><time>2026-05-01T16:35:17.838Z</time></trkpt><trkpt lat="43.96253188995632" lon="10.800704713628805"><ele>831.6</ele><time>2026-05-01T16:35:18.838Z</time></trkpt><trkpt lat="43.96251335128969" lon="10.800846965980055"><ele>832.4000000000001</ele><time>2026-05-01T16:35:19.838Z</time></trkpt><trkpt lat="43.962502718608306" lon="10.800987256820719"><ele>833.2</ele><time>2026-05-01T16:35:20.838Z</time></trkpt><trkpt lat="43.96249399356546" lon="10.801135001714044"><ele>834.0</ele><time>2026-05-01T16:35:21.838Z</time></trkpt><trkpt lat="43.96249654896425" lon="10.80126620687099"><ele>830.25</ele><time>2026-05-01T16:35:22.838Z</time></trkpt><trkpt lat="43.96254091431739" lon="10.801407411390798"><ele>826.5</ele><time>2026-05-01T16:35:24.838Z</time></trkpt><trkpt lat="43.96263315237008" lon="10.801548737202694"><ele>822.75</ele><time>2026-05-01T16:35:26.838Z</time></trkpt><trkpt lat="43.96275831853785" lon="10.801603001086102"><ele>819.0</ele><time>2026-05-01T16:35:27.838Z</time></trkpt><trkpt lat="43.96291819344869" lon="10.80165684325262"><ele>819.0</ele><time>2026-05-01T16:35:28.838Z</time></trkpt><trkpt lat="43.96310483265695" lon="10.80171265599389"><ele>819.0</ele><time>2026-05-01T16:35:29.838Z</time></trkpt><trkpt lat="43.96327268776097" lon="10.801762753900048"><ele>819.0</ele><time>2026-05-01T16:35:30.838Z</time></trkpt><trkpt lat="43.963447356322206" lon="10.801780547977495"><ele>816.3333333333333</ele><time>2026-05-01T16:35:31.838Z</time></trkpt><trkpt lat="43.96363568698306" lon="10.801741154473381"><ele>813.6666666666666</ele><time>2026-05-01T16:35:32.838Z</time></trkpt><trkpt lat="43.963822922085875" lon="10.801722244809431"><ele>811.0</ele><time>2026-05-01T16:35:33.838Z</time></trkpt><trkpt lat="43.963989901030686" lon="10.801688201497507"><ele>811.0</ele><time>2026-05-01T16:35:34.838Z</time></trkpt><trkpt lat="43.9641339588503" lon="10.801661279488664"><ele>811.0</ele><time>2026-05-01T16:35:35.838Z</time></trkpt><trkpt lat="43.96427668052382" lon="10.801634607198332"><ele>811.0</ele><time>2026-05-01T16:35:36.838Z</time></trkpt><trkpt lat="43.96440979800231" lon="10.801610237364898"><ele>811.0</ele><time>2026-05-01T16:35:37.838Z</time></trkpt><trkpt lat="43.96456053727453" lon="10.801576887010583"><ele>811.3333333333333</ele><time>2026-05-01T16:35:38.838Z</time></trkpt><trkpt lat="43.96472821632607" lon="10.801620343116996"><ele>811.6666666666667</ele><time>2026-05-01T16:35:39.838Z</time></trkpt><trkpt lat="43.96493735513297" lon="10.801688955609702"><ele>812.0</ele><time>2026-05-01T16:35:40.838Z</time></trkpt><trkpt lat="43.96519047351352" lon="10.801775509975894"><ele>801.5</ele><time>2026-05-01T16:35:41.838Z</time></trkpt><trkpt lat="43.96542336954467" lon="10.801844758762954"><ele>791.0</ele><time>2026-05-01T16:35:42.838Z</time></trkpt><trkpt lat="43.96564899999041" lon="10.80194456485936"><ele>791.0</ele><time>2026-05-01T16:35:43.838Z</time></trkpt><trkpt lat="43.9658504128316" lon="10.802001006780428"><ele>791.0</ele><time>2026-05-01T16:35:44.838Z</time></trkpt><trkpt lat="43.96603730465762" lon="10.802054665837023"><ele>791.0</ele><time>2026-05-01T16:35:45.838Z</time></trkpt><trkpt lat="43.96620253144018" lon="10.802132335411569"><ele>796.3333333333334</ele><time>2026-05-01T16:35:46.838Z</time></trkpt><trkpt lat="43.96636220226157" lon="10.802257122507378"><ele>801.6666666666667</ele><time>2026-05-01T16:35:47.838Z</time></trkpt><trkpt lat="43.9665159597193" lon="10.802433358388765"><ele>807.0</ele><time>2026-05-01T16:35:48.838Z</time></trkpt><trkpt lat="43.96665252824868" lon="10.802623584807218"><ele>804.6666666666667</ele><time>2026-05-01T16:35:49.838Z</time></trkpt><trkpt lat="43.9667720128099" lon="10.802820541053162"><ele>802.3333333333334</ele><time>2026-05-01T16:35:50.838Z</time></trkpt><trkpt lat="43.96686665603261" lon="10.803017176715288"><ele>800.0</ele><time>2026-05-01T16:35:51.838Z</time></trkpt><trkpt lat="43.96695003259825" lon="10.803224630326767"><ele>800.0</ele><time>2026-05-01T16:35:52.838Z</time></trkpt><trkpt lat="43.96703211116823" lon="10.803431064530637"><ele>800.0</ele><time>2026-05-01T16:35:53.838Z</time></trkpt><trkpt lat="43.96712432568136" lon="10.803603307881572"><ele>800.0</ele><time>2026-05-01T16:35:54.838Z</time></trkpt><trkpt lat="43.967241368879606" lon="10.803764347206165"><ele>792.3333333333334</ele><time>2026-05-01T16:35:55.838Z</time></trkpt><trkpt lat="43.96737265967455" lon="10.803891696656416"><ele>784.6666666666667</ele><time>2026-05-01T16:35:56.838Z</time></trkpt><trkpt lat="43.96753823752362" lon="10.803983119654495"><ele>777.0</ele><time>2026-05-01T16:35:57.838Z</time></trkpt><trkpt lat="43.96769769971338" lon="10.804072129963822"><ele>776.25</ele><time>2026-05-01T16:35:58.838Z</time></trkpt><trkpt lat="43.967832723309094" lon="10.804147638021991"><ele>775.5</ele><time>2026-05-01T16:35:59.838Z</time></trkpt><trkpt lat="43.967947109970645" lon="10.804209057993239"><ele>774.75</ele><time>2026-05-01T16:36:00.838Z</time></trkpt><trkpt lat="43.968049335413525" lon="10.804244862383948"><ele>774.0</ele><time>2026-05-01T16:36:01.838Z</time></trkpt><trkpt lat="43.96815338330289" lon="10.804237816686214"><ele>774.0</ele><time>2026-05-01T16:36:02.838Z</time></trkpt><trkpt lat="43.96825661830401" lon="10.804178465365093"><ele>774.0</ele><time>2026-05-01T16:36:03.838Z</time></trkpt><trkpt lat="43.96836365747724" lon="10.804063363416962"><ele>774.0</ele><time>2026-05-01T16:36:04.838Z</time></trkpt><trkpt lat="43.96846964616803" lon="10.80393981831628"><ele>774.0</ele><time>2026-05-01T16:36:05.838Z</time></trkpt><trkpt lat="43.968565779008834" lon="10.80384507228851"><ele>772.8000000000001</ele><time>2026-05-01T16:36:06.838Z</time></trkpt><trkpt lat="43.96866920859751" lon="10.803802492580173"><ele>771.6</ele><time>2026-05-01T16:36:07.838Z</time></trkpt><trkpt lat="43.96877649473761" lon="10.803811454008384"><ele>770.4</ele><time>2026-05-01T16:36:08.838Z</time></trkpt><trkpt lat="43.96886321615885" lon="10.803898705293348"><ele>769.2</ele><time>2026-05-01T16:36:09.838Z</time></trkpt><trkpt lat="43.96892392139953" lon="10.80403887615239"><ele>768.0</ele><time>2026-05-01T16:36:10.838Z</time></trkpt><trkpt lat="43.968999901819146" lon="10.804168726392467"><ele>768.0</ele><time>2026-05-01T16:36:11.838Z</time></trkpt><trkpt lat="43.9690852806571" lon="10.804236701084935"><ele>768.0</ele><time>2026-05-01T16:36:12.838Z</time></trkpt><trkpt lat="43.9692094530091" lon="10.804230627012512"><ele>768.0</ele><time>2026-05-01T16:36:13.838Z</time></trkpt><trkpt lat="43.9693450470168" lon="10.804168694305373"><ele>768.0</ele><time>2026-05-01T16:36:14.838Z</time></trkpt><trkpt lat="43.96947386555731" lon="10.804102545784051"><ele>767.8</ele><time>2026-05-01T16:36:15.838Z</time></trkpt><trkpt lat="43.96959593459158" lon="10.804045116499937"><ele>767.5999999999999</ele><time>2026-05-01T16:36:16.838Z</time></trkpt><trkpt lat="43.969696938521565" lon="10.804006206670886"><ele>767.4000000000001</ele><time>2026-05-01T16:36:17.838Z</time></trkpt><trkpt lat="43.96978565682983" lon="10.803949653414021"><ele>767.2</ele><time>2026-05-01T16:36:18.838Z</time></trkpt><trkpt lat="43.96987231464579" lon="10.803914106500663"><ele>767.0</ele><time>2026-05-01T16:36:19.838Z</time></trkpt><trkpt lat="43.969975833500264" lon="10.803885940338304"><ele>768.6</ele><time>2026-05-01T16:36:20.838Z</time></trkpt><trkpt lat="43.970074418012985" lon="10.803883542020904"><ele>770.2</ele><time>2026-05-01T16:36:21.838Z</time></trkpt><trkpt lat="43.97017585687179" lon="10.803895887834122"><ele>771.8</ele><time>2026-05-01T16:36:22.838Z</time></trkpt><trkpt lat="43.970270686974395" lon="10.803955519723647"><ele>773.4</ele><time>2026-05-01T16:36:23.838Z</time></trkpt><trkpt lat="43.97032972841778" lon="10.80403670164578"><ele>775.0</ele><time>2026-05-01T16:36:24.838Z</time></trkpt><trkpt lat="43.970392976172086" lon="10.80413337148728"><ele>775.0</ele><time>2026-05-01T16:36:25.838Z</time></trkpt><trkpt lat="43.97042911224977" lon="10.804226828236176"><ele>775.0</ele><time>2026-05-01T16:36:26.838Z</time></trkpt><trkpt lat="43.97048202364449" lon="10.804331219892216"><ele>775.0</ele><time>2026-05-01T16:36:27.838Z</time></trkpt><trkpt lat="43.97054177980657" lon="10.804419516485352"><ele>775.0</ele><time>2026-05-01T16:36:28.839Z</time></trkpt><trkpt lat="43.97062106156139" lon="10.804503609934738"><ele>775.0</ele><time>2026-05-01T16:36:29.839Z</time></trkpt><trkpt lat="43.970708944571065" lon="10.804551893200266"><ele>767.6666666666666</ele><time>2026-05-01T16:36:30.839Z</time></trkpt><trkpt lat="43.97082925999871" lon="10.804550590185142"><ele>760.3333333333333</ele><time>2026-05-01T16:36:31.839Z</time></trkpt><trkpt lat="43.97100356335298" lon="10.804545984739581"><ele>753.0</ele><time>2026-05-01T16:36:32.839Z</time></trkpt><trkpt lat="43.97119447193898" lon="10.80450874906597"><ele>753.0</ele><time>2026-05-01T16:36:33.839Z</time></trkpt><trkpt lat="43.971349064128624" lon="10.804517215885843"><ele>753.0</ele><time>2026-05-01T16:36:34.84Z</time></trkpt><trkpt lat="43.97148956253629" lon="10.804494910865898"><ele>753.0</ele><time>2026-05-01T16:36:35.839Z</time></trkpt><trkpt lat="43.971612281934476" lon="10.804456773066411"><ele>753.0</ele><time>2026-05-01T16:36:36.839Z</time></trkpt><trkpt lat="43.971719416449744" lon="10.804446516654403"><ele>757.75</ele><time>2026-05-01T16:36:37.839Z</time></trkpt><trkpt lat="43.97182411022414" lon="10.804478732539652"><ele>762.5</ele><time>2026-05-01T16:36:38.839Z</time></trkpt><trkpt lat="43.97191965624061" lon="10.804534353364856"><ele>767.25</ele><time>2026-05-01T16:36:39.839Z</time></trkpt><trkpt lat="43.972012158593095" lon="10.804640769317352"><ele>772.0</ele><time>2026-05-01T16:36:40.839Z</time></trkpt><trkpt lat="43.97211541852044" lon="10.804802077499627"><ele>772.0</ele><time>2026-05-01T16:36:41.839Z</time></trkpt><trkpt lat="43.97223095132573" lon="10.80501100158978"><ele>772.0</ele><time>2026-05-01T16:36:42.839Z</time></trkpt><trkpt lat="43.9723373431891" lon="10.805237402343538"><ele>772.0</ele><time>2026-05-01T16:36:43.839Z</time></trkpt><trkpt lat="43.97244839931094" lon="10.805440438377273"><ele>773.3333333333333</ele><time>2026-05-01T16:36:44.839Z</time></trkpt><trkpt lat="43.97256580906105" lon="10.805643830879918"><ele>774.6666666666667</ele><time>2026-05-01T16:36:45.839Z</time></trkpt><trkpt lat="43.97268674403405" lon="10.805851590469029"><ele>776.0</ele><time>2026-05-01T16:36:46.839Z</time></trkpt><trkpt lat="43.97281395947566" lon="10.806057606377019"><ele>772.0</ele><time>2026-05-01T16:36:47.839Z</time></trkpt><trkpt lat="43.972932693830316" lon="10.806265916183541"><ele>768.0</ele><time>2026-05-01T16:36:48.839Z</time></trkpt><trkpt lat="43.973047038289366" lon="10.806461669630737"><ele>764.0</ele><time>2026-05-01T16:36:49.839Z</time></trkpt><trkpt lat="43.97315606806624" lon="10.806640699915672"><ele>765.3333333333333</ele><time>2026-05-01T16:36:50.839Z</time></trkpt><trkpt lat="43.973254504997875" lon="10.806830075109726"><ele>766.6666666666666</ele><time>2026-05-01T16:36:51.839Z</time></trkpt><trkpt lat="43.97334324715817" lon="10.807016217512786"><ele>768.0</ele><time>2026-05-01T16:36:52.839Z</time></trkpt><trkpt lat="43.97340908001299" lon="10.807219687570237"><ele>768.0</ele><time>2026-05-01T16:36:53.839Z</time></trkpt><trkpt lat="43.973458442119195" lon="10.807439485928096"><ele>768.0</ele><time>2026-05-01T16:36:54.839Z</time></trkpt><trkpt lat="43.97349099414964" lon="10.807670918766137"><ele>768.0</ele><time>2026-05-01T16:36:55.839Z</time></trkpt><trkpt lat="43.97349124073334" lon="10.80791996075405"><ele>764.6666666666666</ele><time>2026-05-01T16:36:56.839Z</time></trkpt><trkpt lat="43.973492413807975" lon="10.808198051714173"><ele>761.3333333333333</ele><time>2026-05-01T16:36:57.839Z</time></trkpt><trkpt lat="43.973496951548064" lon="10.808460682714156"><ele>758.0</ele><time>2026-05-01T16:36:58.839Z</time></trkpt><trkpt lat="43.97351438550576" lon="10.808682348428356"><ele>757.0</ele><time>2026-05-01T16:36:59.839Z</time></trkpt><trkpt lat="43.97351819436003" lon="10.808912317816514"><ele>756.0</ele><time>2026-05-01T16:37:00.839Z</time></trkpt><trkpt lat="43.973525372235315" lon="10.80912472219986"><ele>755.0</ele><time>2026-05-01T16:37:01.839Z</time></trkpt><trkpt lat="43.97353021561255" lon="10.809320364671057"><ele>753.6666666666666</ele><time>2026-05-01T16:37:02.839Z</time></trkpt><trkpt lat="43.97353376104623" lon="10.809482010378096"><ele>752.3333333333333</ele><time>2026-05-01T16:37:03.839Z</time></trkpt><trkpt lat="43.97353362424915" lon="10.809608170509163"><ele>751.0</ele><time>2026-05-01T16:37:04.839Z</time></trkpt><trkpt lat="43.97351513999663" lon="10.809698788355776"><ele>749.6666666666666</ele><time>2026-05-01T16:37:05.839Z</time></trkpt><trkpt lat="43.973457812099795" lon="10.809767101838752"><ele>748.3333333333334</ele><time>2026-05-01T16:37:06.839Z</time></trkpt><trkpt lat="43.97337178259165" lon="10.80978977005316"><ele>747.0</ele><time>2026-05-01T16:37:07.839Z</time></trkpt><trkpt lat="43.97328959575887" lon="10.809746578975343"><ele>744.6</ele><time>2026-05-01T16:37:08.839Z</time></trkpt><trkpt lat="43.9732329350721" lon="10.809640024874946"><ele>742.2</ele><time>2026-05-01T16:37:09.839Z</time></trkpt><trkpt lat="43.97316805399425" lon="10.809487435580115"><ele>739.8</ele><time>2026-05-01T16:37:10.839Z</time></trkpt><trkpt lat="43.9730970629555" lon="10.809340194670982"><ele>737.4</ele><time>2026-05-01T16:37:11.839Z</time></trkpt><trkpt lat="43.97303805481564" lon="10.809232916364063"><ele>735.0</ele><time>2026-05-01T16:37:12.839Z</time></trkpt><trkpt lat="43.97297362780966" lon="10.809191895426334"><ele>735.0</ele><time>2026-05-01T16:37:13.839Z</time></trkpt><trkpt lat="43.97289345602439" lon="10.80921792273599"><ele>735.0</ele><time>2026-05-01T16:37:14.839Z</time></trkpt><trkpt lat="43.97283904889497" lon="10.809290959487658"><ele>735.0</ele><time>2026-05-01T16:37:15.839Z</time></trkpt><trkpt lat="43.97280483115384" lon="10.809412683005862"><ele>735.0</ele><time>2026-05-01T16:37:16.839Z</time></trkpt><trkpt lat="43.97281554865091" lon="10.809545762385083"><ele>735.0</ele><time>2026-05-01T16:37:17.839Z</time></trkpt><trkpt lat="43.972855228942855" lon="10.809691732875496"><ele>732.6666666666666</ele><time>2026-05-01T16:37:18.839Z</time></trkpt><trkpt lat="43.972906973826184" lon="10.809879950582138"><ele>730.3333333333333</ele><time>2026-05-01T16:37:19.839Z</time></trkpt><trkpt lat="43.97296457568562" lon="10.810092294164901"><ele>728.0</ele><time>2026-05-01T16:37:20.839Z</time></trkpt><trkpt lat="43.973029322315504" lon="10.8103213006034"><ele>724.6666666666666</ele><time>2026-05-01T16:37:21.839Z</time></trkpt><trkpt lat="43.973102876687264" lon="10.810599498754156"><ele>721.3333333333334</ele><time>2026-05-01T16:37:22.839Z</time></trkpt><trkpt lat="43.97315832231144" lon="10.81089937926992"><ele>718.0</ele><time>2026-05-01T16:37:23.839Z</time></trkpt><trkpt lat="43.97322410285002" lon="10.81117830906484"><ele>715.25</ele><time>2026-05-01T16:37:24.839Z</time></trkpt><trkpt lat="43.973264558560764" lon="10.811437635336311"><ele>712.5</ele><time>2026-05-01T16:37:25.839Z</time></trkpt><trkpt lat="43.97324462511605" lon="10.811250739426262"><ele>709.75</ele><time>2026-05-01T16:37:26.839Z</time></trkpt><trkpt lat="43.97327491459701" lon="10.811389528574948"><ele>707.0</ele><time>2026-05-01T16:37:27.839Z</time></trkpt><trkpt lat="43.97327660988303" lon="10.811504390842243"><ele>707.0</ele><time>2026-05-01T16:37:28.839Z</time></trkpt><trkpt lat="43.97320662638243" lon="10.811585278653338"><ele>707.0</ele><time>2026-05-01T16:37:29.839Z</time></trkpt><trkpt lat="43.97312583263186" lon="10.811612582687289"><ele>707.0</ele><time>2026-05-01T16:37:30.839Z</time></trkpt><trkpt lat="43.97303393035416" lon="10.811590147141624"><ele>707.0</ele><time>2026-05-01T16:37:31.839Z</time></trkpt><trkpt lat="43.97291014081778" lon="10.811535881834297"><ele>707.0</ele><time>2026-05-01T16:37:32.839Z</time></trkpt><trkpt lat="43.97276292504497" lon="10.811480503989355"><ele>707.0</ele><time>2026-05-01T16:37:33.839Z</time></trkpt><trkpt lat="43.97262204562454" lon="10.811427190622144"><ele>707.0</ele><time>2026-05-01T16:37:34.839Z</time></trkpt><trkpt lat="43.972471050620385" lon="10.811369823877534"><ele>707.0</ele><time>2026-05-01T16:37:35.839Z</time></trkpt><trkpt lat="43.97231306249747" lon="10.811322879959622"><ele>706.75</ele><time>2026-05-01T16:37:36.839Z</time></trkpt><trkpt lat="43.972162045653164" lon="10.81126417117417"><ele>706.5</ele><time>2026-05-01T16:37:37.839Z</time></trkpt><trkpt lat="43.972031086261715" lon="10.811195795554468"><ele>706.25</ele><time>2026-05-01T16:37:38.839Z</time></trkpt><trkpt lat="43.97192441968855" lon="10.811085936645563"><ele>706.0</ele><time>2026-05-01T16:37:39.839Z</time></trkpt><trkpt lat="43.97180488168825" lon="10.810967675152547"><ele>701.6666666666667</ele><time>2026-05-01T16:37:40.839Z</time></trkpt><trkpt lat="43.97167397437832" lon="10.810817805572572"><ele>697.3333333333334</ele><time>2026-05-01T16:37:41.839Z</time></trkpt><trkpt lat="43.97154177646012" lon="10.810671449819731"><ele>693.0</ele><time>2026-05-01T16:37:42.839Z</time></trkpt><trkpt lat="43.971411545021226" lon="10.810531698251397"><ele>693.0</ele><time>2026-05-01T16:37:43.839Z</time></trkpt><trkpt lat="43.9712656134218" lon="10.810426916518901"><ele>693.0</ele><time>2026-05-01T16:37:44.839Z</time></trkpt><trkpt lat="43.97113401345325" lon="10.810321888234066"><ele>693.0</ele><time>2026-05-01T16:37:45.839Z</time></trkpt><trkpt lat="43.971007571326" lon="10.810228104540156"><ele>692.0</ele><time>2026-05-01T16:37:46.839Z</time></trkpt><trkpt lat="43.97089416283117" lon="10.810126713990345"><ele>691.0</ele><time>2026-05-01T16:37:47.839Z</time></trkpt><trkpt lat="43.97081676190889" lon="10.80997854666109"><ele>690.0</ele><time>2026-05-01T16:37:48.839Z</time></trkpt><trkpt lat="43.97075450793941" lon="10.809826124870307"><ele>689.0</ele><time>2026-05-01T16:37:49.839Z</time></trkpt><trkpt lat="43.970698128870836" lon="10.809702041606133"><ele>689.0</ele><time>2026-05-01T16:37:50.839Z</time></trkpt><trkpt lat="43.9706318570463" lon="10.80963995566654"><ele>689.0</ele><time>2026-05-01T16:37:51.839Z</time></trkpt><trkpt lat="43.97054439711782" lon="10.809648577102573"><ele>689.0</ele><time>2026-05-01T16:37:52.839Z</time></trkpt><trkpt lat="43.970468139509094" lon="10.809721347128077"><ele>689.0</ele><time>2026-05-01T16:37:53.839Z</time></trkpt><trkpt lat="43.97042104211083" lon="10.809837007622729"><ele>689.0</ele><time>2026-05-01T16:37:54.839Z</time></trkpt><trkpt lat="43.97042277773365" lon="10.809976532619684"><ele>689.0</ele><time>2026-05-01T16:37:55.839Z</time></trkpt><trkpt lat="43.9704744929964" lon="10.810106486987614"><ele>689.0</ele><time>2026-05-01T16:37:56.839Z</time></trkpt><trkpt lat="43.9705711621504" lon="10.810215405911647"><ele>689.0</ele><time>2026-05-01T16:37:57.839Z</time></trkpt><trkpt lat="43.97071211275971" lon="10.810333345680911"><ele>689.0</ele><time>2026-05-01T16:37:58.839Z</time></trkpt><trkpt lat="43.97085450137674" lon="10.810478366326217"><ele>690.3333333333333</ele><time>2026-05-01T16:37:59.839Z</time></trkpt><trkpt lat="43.97100012434646" lon="10.810661861322783"><ele>691.6666666666666</ele><time>2026-05-01T16:38:00.839Z</time></trkpt><trkpt lat="43.97114636416467" lon="10.810851450091572"><ele>693.0</ele><time>2026-05-01T16:38:01.839Z</time></trkpt><trkpt lat="43.97128909932147" lon="10.81104733501106"><ele>685.0</ele><time>2026-05-01T16:38:02.839Z</time></trkpt><trkpt lat="43.97142570351698" lon="10.811258207885686"><ele>677.0</ele><time>2026-05-01T16:38:03.839Z</time></trkpt><trkpt lat="43.97154440867459" lon="10.811471266321686"><ele>669.0</ele><time>2026-05-01T16:38:04.839Z</time></trkpt><trkpt lat="43.97165100831796" lon="10.811679551901596"><ele>668.0</ele><time>2026-05-01T16:38:05.839Z</time></trkpt><trkpt lat="43.971780399436206" lon="10.811867456182233"><ele>667.0</ele><time>2026-05-01T16:38:06.839Z</time></trkpt><trkpt lat="43.97192925096266" lon="10.81203725641536"><ele>666.0</ele><time>2026-05-01T16:38:07.839Z</time></trkpt><trkpt lat="43.97208002254377" lon="10.812190982340427"><ele>666.0</ele><time>2026-05-01T16:38:08.839Z</time></trkpt><trkpt lat="43.972219549755785" lon="10.812355262522313"><ele>666.0</ele><time>2026-05-01T16:38:09.839Z</time></trkpt><trkpt lat="43.97234279028643" lon="10.812493191400632"><ele>666.0</ele><time>2026-05-01T16:38:10.839Z</time></trkpt><trkpt lat="43.97245049926353" lon="10.812634424858214"><ele>667.3333333333334</ele><time>2026-05-01T16:38:11.839Z</time></trkpt><trkpt lat="43.97253534138938" lon="10.812802494954061"><ele>668.6666666666667</ele><time>2026-05-01T16:38:12.839Z</time></trkpt><trkpt lat="43.972587781329096" lon="10.812996937618541"><ele>670.0</ele><time>2026-05-01T16:38:13.839Z</time></trkpt><trkpt lat="43.97264469431413" lon="10.813216273842148"><ele>670.0</ele><time>2026-05-01T16:38:14.839Z</time></trkpt><trkpt lat="43.972701603647614" lon="10.813407203300049"><ele>670.0</ele><time>2026-05-01T16:38:15.839Z</time></trkpt><trkpt lat="43.97273761481072" lon="10.813599226775992"><ele>670.0</ele><time>2026-05-01T16:38:16.839Z</time></trkpt><trkpt lat="43.972753759792134" lon="10.81378872443291"><ele>670.0</ele><time>2026-05-01T16:38:17.839Z</time></trkpt><trkpt lat="43.972711199921925" lon="10.813964376912331"><ele>666.5</ele><time>2026-05-01T16:38:18.839Z</time></trkpt><trkpt lat="43.972672242045824" lon="10.814139490978864"><ele>663.0</ele><time>2026-05-01T16:38:19.839Z</time></trkpt><trkpt lat="43.972624082904005" lon="10.814307722734748"><ele>659.5</ele><time>2026-05-01T16:38:20.839Z</time></trkpt><trkpt lat="43.972575475162984" lon="10.814472135912096"><ele>656.0</ele><time>2026-05-01T16:38:21.839Z</time></trkpt><trkpt lat="43.972518853606616" lon="10.814641938544899"><ele>652.75</ele><time>2026-05-01T16:38:22.839Z</time></trkpt><trkpt lat="43.97245915834724" lon="10.814794121180379"><ele>649.5</ele><time>2026-05-01T16:38:23.839Z</time></trkpt><trkpt lat="43.97239724163243" lon="10.814933105876259"><ele>646.25</ele><time>2026-05-01T16:38:24.839Z</time></trkpt><trkpt lat="43.97235248654205" lon="10.815081905394806"><ele>643.0</ele><time>2026-05-01T16:38:25.839Z</time></trkpt><trkpt lat="43.97232512271127" lon="10.815236496697937"><ele>641.1999999999999</ele><time>2026-05-01T16:38:26.839Z</time></trkpt><trkpt lat="43.97231586518249" lon="10.81538703784004"><ele>639.4</ele><time>2026-05-01T16:38:27.839Z</time></trkpt><trkpt lat="43.97229293645463" lon="10.81553265613845"><ele>637.5999999999999</ele><time>2026-05-01T16:38:28.839Z</time></trkpt><trkpt lat="43.97228501389087" lon="10.815651355170283"><ele>635.8</ele><time>2026-05-01T16:38:29.839Z</time></trkpt><trkpt lat="43.972301354258015" lon="10.815751367195155"><ele>634.0</ele><time>2026-05-01T16:38:30.839Z</time></trkpt><trkpt lat="43.97234517780354" lon="10.815844434156672"><ele>634.0</ele><time>2026-05-01T16:38:31.839Z</time></trkpt><trkpt lat="43.97241488443561" lon="10.815944317457848"><ele>634.0</ele><time>2026-05-01T16:38:32.839Z</time></trkpt><trkpt lat="43.972510683071135" lon="10.81603858595041"><ele>634.0</ele><time>2026-05-01T16:38:33.839Z</time></trkpt><trkpt lat="43.97262977480264" lon="10.816121475377125"><ele>634.0</ele><time>2026-05-01T16:38:34.84Z</time></trkpt><trkpt lat="43.97273333940947" lon="10.816146648949074"><ele>630.8333333333334</ele><time>2026-05-01T16:38:35.84Z</time></trkpt><trkpt lat="43.972798509323646" lon="10.816196635246602"><ele>627.6666666666667</ele><time>2026-05-01T16:38:36.84Z</time></trkpt><trkpt lat="43.97286483763492" lon="10.816247138234282"><ele>624.5</ele><time>2026-05-01T16:38:38.84Z</time></trkpt><trkpt lat="43.97291518531421" lon="10.816314024255293"><ele>621.3333333333334</ele><time>2026-05-01T16:38:40.84Z</time></trkpt><trkpt lat="43.97284599835081" lon="10.816375018791716"><ele>618.1666666666666</ele><time>2026-05-01T16:38:43.841Z</time></trkpt><trkpt lat="43.9727724469973" lon="10.816356853273534"><ele>615.0</ele><time>2026-05-01T16:38:44.84Z</time></trkpt><trkpt lat="43.97267244096844" lon="10.81630039156829"><ele>615.0</ele><time>2026-05-01T16:38:45.84Z</time></trkpt><trkpt lat="43.972559804694804" lon="10.816245901885013"><ele>615.0</ele><time>2026-05-01T16:38:46.84Z</time></trkpt><trkpt lat="43.97244496166481" lon="10.816190527657529"><ele>615.0</ele><time>2026-05-01T16:38:47.84Z</time></trkpt><trkpt lat="43.97232203829331" lon="10.816148939863908"><ele>615.0</ele><time>2026-05-01T16:38:48.84Z</time></trkpt><trkpt lat="43.9721901227402" lon="10.816055869762893"><ele>619.75</ele><time>2026-05-01T16:38:49.84Z</time></trkpt><trkpt lat="43.97207308736497" lon="10.815971132425275"><ele>624.5</ele><time>2026-05-01T16:38:50.84Z</time></trkpt><trkpt lat="43.97197809973826" lon="10.815873436705564"><ele>629.25</ele><time>2026-05-01T16:38:51.84Z</time></trkpt><trkpt lat="43.97190901059712" lon="10.815755099963221"><ele>634.0</ele><time>2026-05-01T16:38:52.84Z</time></trkpt><trkpt lat="43.971892405801285" lon="10.815615869554206"><ele>634.0</ele><time>2026-05-01T16:38:53.84Z</time></trkpt><trkpt lat="43.971884008214154" lon="10.815461709745557"><ele>634.0</ele><time>2026-05-01T16:38:54.84Z</time></trkpt><trkpt lat="43.97185080905333" lon="10.8152884056467"><ele>634.0</ele><time>2026-05-01T16:38:55.84Z</time></trkpt><trkpt lat="43.97182520765819" lon="10.8151209456899"><ele>634.0</ele><time>2026-05-01T16:38:56.84Z</time></trkpt><trkpt lat="43.9717858335783" lon="10.814971340266757"><ele>635.8</ele><time>2026-05-01T16:38:57.84Z</time></trkpt><trkpt lat="43.97171797075156" lon="10.814860755176502"><ele>637.5999999999999</ele><time>2026-05-01T16:38:58.84Z</time></trkpt><trkpt lat="43.97162899457808" lon="10.814782280251528"><ele>639.4</ele><time>2026-05-01T16:38:59.84Z</time></trkpt><trkpt lat="43.971525451404915" lon="10.814733107569957"><ele>641.1999999999999</ele><time>2026-05-01T16:39:00.84Z</time></trkpt><trkpt lat="43.971426333978286" lon="10.814675876207156"><ele>643.0</ele><time>2026-05-01T16:39:01.84Z</time></trkpt><trkpt lat="43.97134411743045" lon="10.814596437668792"><ele>637.8</ele><time>2026-05-01T16:39:02.84Z</time></trkpt><trkpt lat="43.971278389454255" lon="10.814473260218694"><ele>632.5999999999999</ele><time>2026-05-01T16:39:03.84Z</time></trkpt><trkpt lat="43.97124153257441" lon="10.814327752534895"><ele>627.4000000000001</ele><time>2026-05-01T16:39:04.84Z</time></trkpt><trkpt lat="43.97126787486937" lon="10.81416612235228"><ele>622.2</ele><time>2026-05-01T16:39:05.84Z</time></trkpt><trkpt lat="43.971293382623074" lon="10.814022447790148"><ele>617.0</ele><time>2026-05-01T16:39:06.84Z</time></trkpt><trkpt lat="43.97132387645102" lon="10.813845209022032"><ele>617.0</ele><time>2026-05-01T16:39:07.84Z</time></trkpt><trkpt lat="43.97134593840718" lon="10.813662181875051"><ele>617.0</ele><time>2026-05-01T16:39:08.84Z</time></trkpt><trkpt lat="43.97137235401156" lon="10.813489568651724"><ele>617.0</ele><time>2026-05-01T16:39:09.84Z</time></trkpt><trkpt lat="43.97137781292738" lon="10.813315285271848"><ele>617.0</ele><time>2026-05-01T16:39:10.84Z</time></trkpt><trkpt lat="43.97135926080304" lon="10.813145473004282"><ele>617.0</ele><time>2026-05-01T16:39:11.84Z</time></trkpt><trkpt lat="43.97131275972675" lon="10.812980205691973"><ele>617.0</ele><time>2026-05-01T16:39:12.84Z</time></trkpt><trkpt lat="43.9712418334849" lon="10.812826137482817"><ele>617.0</ele><time>2026-05-01T16:39:13.84Z</time></trkpt><trkpt lat="43.971151611365705" lon="10.812702369949896"><ele>617.0</ele><time>2026-05-01T16:39:14.84Z</time></trkpt><trkpt lat="43.9710406983913" lon="10.812615068778944"><ele>614.25</ele><time>2026-05-01T16:39:15.84Z</time></trkpt><trkpt lat="43.97092469985163" lon="10.812537766038869"><ele>611.5</ele><time>2026-05-01T16:39:16.84Z</time></trkpt><trkpt lat="43.97078745954489" lon="10.8125021750727"><ele>608.75</ele><time>2026-05-01T16:39:17.84Z</time></trkpt><trkpt lat="43.97065597126454" lon="10.81245009445659"><ele>606.0</ele><time>2026-05-01T16:39:18.84Z</time></trkpt><trkpt lat="43.970539303681996" lon="10.812380226963501"><ele>606.0</ele><time>2026-05-01T16:39:19.84Z</time></trkpt><trkpt lat="43.97043279589668" lon="10.812295676816218"><ele>606.0</ele><time>2026-05-01T16:39:20.84Z</time></trkpt><trkpt lat="43.97034560400766" lon="10.812213038731072"><ele>606.0</ele><time>2026-05-01T16:39:21.84Z</time></trkpt><trkpt lat="43.97027708058938" lon="10.812146292237312"><ele>606.0</ele><time>2026-05-01T16:39:22.84Z</time></trkpt><trkpt lat="43.970211739751015" lon="10.812141690649174"><ele>606.0</ele><time>2026-05-01T16:39:23.84Z</time></trkpt><trkpt lat="43.97015192073638" lon="10.812216292111156"><ele>606.0</ele><time>2026-05-01T16:39:24.84Z</time></trkpt><trkpt lat="43.97010389988684" lon="10.812295629712104"><ele>606.0</ele><time>2026-05-01T16:39:25.84Z</time></trkpt><trkpt lat="43.970113742363" lon="10.812414465384597"><ele>606.0</ele><time>2026-05-01T16:39:26.84Z</time></trkpt><trkpt lat="43.97013479553338" lon="10.812529335831403"><ele>606.0</ele><time>2026-05-01T16:39:27.84Z</time></trkpt><trkpt lat="43.970239774429416" lon="10.812661175569259"><ele>606.0</ele><time>2026-05-01T16:39:28.84Z</time></trkpt><trkpt lat="43.97035897685105" lon="10.812817849612221"><ele>601.6666666666666</ele><time>2026-05-01T16:39:29.84Z</time></trkpt><trkpt lat="43.9704830134387" lon="10.812960421741666"><ele>597.3333333333333</ele><time>2026-05-01T16:39:30.84Z</time></trkpt><trkpt lat="43.9705875941992" lon="10.813113488335174"><ele>593.0</ele><time>2026-05-01T16:39:31.84Z</time></trkpt><trkpt lat="43.970679878191426" lon="10.813260627698757"><ele>593.0</ele><time>2026-05-01T16:39:32.84Z</time></trkpt><trkpt lat="43.97076356665871" lon="10.813380145194849"><ele>593.0</ele><time>2026-05-01T16:39:33.84Z</time></trkpt><trkpt lat="43.97083441267595" lon="10.813512196361598"><ele>593.0</ele><time>2026-05-01T16:39:34.84Z</time></trkpt><trkpt lat="43.97088050742141" lon="10.81368030332122"><ele>593.0</ele><time>2026-05-01T16:39:35.84Z</time></trkpt><trkpt lat="43.97088578480444" lon="10.813886248671519"><ele>592.6666666666666</ele><time>2026-05-01T16:39:36.84Z</time></trkpt><trkpt lat="43.97085486091012" lon="10.814101413935772"><ele>592.3333333333334</ele><time>2026-05-01T16:39:37.84Z</time></trkpt><trkpt lat="43.97079136506396" lon="10.814287924638942"><ele>592.0</ele><time>2026-05-01T16:39:38.895Z</time></trkpt><trkpt lat="43.970679574081565" lon="10.814422596991616"><ele>592.0</ele><time>2026-05-01T16:39:39.895Z</time></trkpt><trkpt lat="43.97057856511126" lon="10.81459415327066"><ele>592.0</ele><time>2026-05-01T16:39:40.895Z</time></trkpt><trkpt lat="43.970452756350404" lon="10.814752623805017"><ele>592.0</ele><time>2026-05-01T16:39:41.895Z</time></trkpt><trkpt lat="43.97034383194818" lon="10.814912456396884"><ele>592.0</ele><time>2026-05-01T16:39:42.895Z</time></trkpt><trkpt lat="43.97022862159482" lon="10.81507123558692"><ele>592.0</ele><time>2026-05-01T16:39:43.895Z</time></trkpt><trkpt lat="43.970114472311465" lon="10.81522641167391"><ele>592.0</ele><time>2026-05-01T16:39:44.895Z</time></trkpt><trkpt lat="43.97000218280668" lon="10.815382848613574"><ele>589.3333333333334</ele><time>2026-05-01T16:39:45.895Z</time></trkpt><trkpt lat="43.96989457306201" lon="10.815539906384995"><ele>586.6666666666666</ele><time>2026-05-01T16:39:46.895Z</time></trkpt><trkpt lat="43.969785846653494" lon="10.815691782776511"><ele>584.0</ele><time>2026-05-01T16:39:47.895Z</time></trkpt><trkpt lat="43.96967422369077" lon="10.815840588961093"><ele>584.0</ele><time>2026-05-01T16:39:48.895Z</time></trkpt><trkpt lat="43.96957228008184" lon="10.815986022152186"><ele>584.0</ele><time>2026-05-01T16:39:49.895Z</time></trkpt><trkpt lat="43.96947019249494" lon="10.816103579360165"><ele>584.0</ele><time>2026-05-01T16:39:50.895Z</time></trkpt><trkpt lat="43.96936634789692" lon="10.816185178176397"><ele>584.0</ele><time>2026-05-01T16:39:51.895Z</time></trkpt><trkpt lat="43.96925070632484" lon="10.81618442656712"><ele>582.0</ele><time>2026-05-01T16:39:52.895Z</time></trkpt><trkpt lat="43.96911744289643" lon="10.816185088903678"><ele>580.0</ele><time>2026-05-01T16:39:53.895Z</time></trkpt><trkpt lat="43.968970324257796" lon="10.816207459313572"><ele>578.0</ele><time>2026-05-01T16:39:54.895Z</time></trkpt><trkpt lat="43.9688491484533" lon="10.816204127405383"><ele>576.0</ele><time>2026-05-01T16:39:55.895Z</time></trkpt><trkpt lat="43.96875496405571" lon="10.816205567649366"><ele>576.0</ele><time>2026-05-01T16:39:56.895Z</time></trkpt><trkpt lat="43.968687365540625" lon="10.816255515666713"><ele>576.0</ele><time>2026-05-01T16:39:57.895Z</time></trkpt><trkpt lat="43.96864378366081" lon="10.816346686734093"><ele>576.0</ele><time>2026-05-01T16:39:58.895Z</time></trkpt><trkpt lat="43.96863771492452" lon="10.816483450594475"><ele>576.0</ele><time>2026-05-01T16:39:59.895Z</time></trkpt><trkpt lat="43.968690301489964" lon="10.81662315510584"><ele>576.0</ele><time>2026-05-01T16:40:00.895Z</time></trkpt><trkpt lat="43.96877309967111" lon="10.816695659826234"><ele>576.0</ele><time>2026-05-01T16:40:01.895Z</time></trkpt><trkpt lat="43.96887200246757" lon="10.816720151389502"><ele>576.0</ele><time>2026-05-01T16:40:02.895Z</time></trkpt><trkpt lat="43.96899670642711" lon="10.816718839625977"><ele>576.0</ele><time>2026-05-01T16:40:03.895Z</time></trkpt><trkpt lat="43.969143814670794" lon="10.816712576857736"><ele>576.0</ele><time>2026-05-01T16:40:04.895Z</time></trkpt><trkpt lat="43.96928602020472" lon="10.816700972755923"><ele>575.3333333333334</ele><time>2026-05-01T16:40:05.895Z</time></trkpt><trkpt lat="43.96944130315736" lon="10.816691717742017"><ele>574.6666666666667</ele><time>2026-05-01T16:40:06.895Z</time></trkpt><trkpt lat="43.96960068469171" lon="10.816708391685845"><ele>574.0</ele><time>2026-05-01T16:40:07.895Z</time></trkpt><trkpt lat="43.96974612230313" lon="10.816701923317947"><ele>574.0</ele><time>2026-05-01T16:40:08.895Z</time></trkpt><trkpt lat="43.969889947340526" lon="10.816695526688232"><ele>574.0</ele><time>2026-05-01T16:40:09.895Z</time></trkpt><trkpt lat="43.9700123574234" lon="10.816687236810035"><ele>574.0</ele><time>2026-05-01T16:40:10.895Z</time></trkpt><trkpt lat="43.97012314910913" lon="10.816678846128221"><ele>574.0</ele><time>2026-05-01T16:40:11.895Z</time></trkpt><trkpt lat="43.97020988534015" lon="10.816663371965909"><ele>573.8333333333334</ele><time>2026-05-01T16:40:12.895Z</time></trkpt><trkpt lat="43.970276235306144" lon="10.81670933211286"><ele>573.6666666666667</ele><time>2026-05-01T16:40:13.895Z</time></trkpt><trkpt lat="43.97032779377766" lon="10.816785687969109"><ele>573.5</ele><time>2026-05-01T16:40:14.895Z</time></trkpt><trkpt lat="43.97033798283975" lon="10.816909496331526"><ele>573.3333333333334</ele><time>2026-05-01T16:40:15.895Z</time></trkpt><trkpt lat="43.97032601741883" lon="10.817019837232097"><ele>573.1666666666666</ele><time>2026-05-01T16:40:16.895Z</time></trkpt><trkpt lat="43.97025351671962" lon="10.817117821067502"><ele>573.0</ele><time>2026-05-01T16:40:17.895Z</time></trkpt><trkpt lat="43.97015210615575" lon="10.817202733658837"><ele>572.5</ele><time>2026-05-01T16:40:18.895Z</time></trkpt><trkpt lat="43.97003012995158" lon="10.817284404601102"><ele>572.0</ele><time>2026-05-01T16:40:19.895Z</time></trkpt><trkpt lat="43.96991126246508" lon="10.817364071988546"><ele>571.5</ele><time>2026-05-01T16:40:20.895Z</time></trkpt><trkpt lat="43.96980214132343" lon="10.817453872387208"><ele>571.0</ele><time>2026-05-01T16:40:21.895Z</time></trkpt><trkpt lat="43.96968413524826" lon="10.817561348044823"><ele>569.0</ele><time>2026-05-01T16:40:22.895Z</time></trkpt><trkpt lat="43.96956849170622" lon="10.817665402572846"><ele>567.0</ele><time>2026-05-01T16:40:23.895Z</time></trkpt><trkpt lat="43.96945219418646" lon="10.817767099504422"><ele>565.0</ele><time>2026-05-01T16:40:24.895Z</time></trkpt><trkpt lat="43.96933508751675" lon="10.817859785844615"><ele>563.0</ele><time>2026-05-01T16:40:25.895Z</time></trkpt><trkpt lat="43.96922726432796" lon="10.817950320542897"><ele>560.75</ele><time>2026-05-01T16:40:26.895Z</time></trkpt><trkpt lat="43.96912584722145" lon="10.81804914422895"><ele>558.5</ele><time>2026-05-01T16:40:27.895Z</time></trkpt><trkpt lat="43.969044402149684" lon="10.818149060973267"><ele>556.25</ele><time>2026-05-01T16:40:28.895Z</time></trkpt><trkpt lat="43.96895892960499" lon="10.818256160799153"><ele>554.0</ele><time>2026-05-01T16:40:29.895Z</time></trkpt><trkpt lat="43.96888673171008" lon="10.81839679498467"><ele>553.25</ele><time>2026-05-01T16:40:30.895Z</time></trkpt><trkpt lat="43.96883391026685" lon="10.818522486042069"><ele>552.5</ele><time>2026-05-01T16:40:31.895Z</time></trkpt><trkpt lat="43.96879408800804" lon="10.81866823658169"><ele>551.75</ele><time>2026-05-01T16:40:32.895Z</time></trkpt><trkpt lat="43.96879020380376" lon="10.818856475365477"><ele>551.0</ele><time>2026-05-01T16:40:33.895Z</time></trkpt><trkpt lat="43.968787208243356" lon="10.819019427732496"><ele>551.0</ele><time>2026-05-01T16:40:34.895Z</time></trkpt><trkpt lat="43.96880097500864" lon="10.819165212618701"><ele>551.0</ele><time>2026-05-01T16:40:35.895Z</time></trkpt><trkpt lat="43.96883282165485" lon="10.819285187889998"><ele>551.0</ele><time>2026-05-01T16:40:36.895Z</time></trkpt><trkpt lat="43.96890337153207" lon="10.81937176157055"><ele>551.0</ele><time>2026-05-01T16:40:37.896Z</time></trkpt><trkpt lat="43.9689976408265" lon="10.819414853617548"><ele>551.0</ele><time>2026-05-01T16:40:38.896Z</time></trkpt><trkpt lat="43.9691089550499" lon="10.819403436689095"><ele>551.4</ele><time>2026-05-01T16:40:39.896Z</time></trkpt><trkpt lat="43.969223706185154" lon="10.819353898898145"><ele>551.8</ele><time>2026-05-01T16:40:40.896Z</time></trkpt><trkpt lat="43.9693307919206" lon="10.819317438320914"><ele>552.1999999999999</ele><time>2026-05-01T16:40:41.897Z</time></trkpt><trkpt lat="43.96940690302808" lon="10.819293368868333"><ele>552.6</ele><time>2026-05-01T16:40:42.897Z</time></trkpt><trkpt lat="43.96949363705358" lon="10.819333511999485"><ele>553.0</ele><time>2026-05-01T16:40:43.897Z</time></trkpt><trkpt lat="43.9695490906309" lon="10.819403970767656"><ele>549.8</ele><time>2026-05-01T16:40:44.895Z</time></trkpt><trkpt lat="43.969562056833794" lon="10.819515759086979"><ele>546.5999999999999</ele><time>2026-05-01T16:40:45.896Z</time></trkpt><trkpt lat="43.969522990775474" lon="10.819620324335482"><ele>543.4000000000001</ele><time>2026-05-01T16:40:46.896Z</time></trkpt><trkpt lat="43.96943654921729" lon="10.819698607629057"><ele>540.2</ele><time>2026-05-01T16:40:47.896Z</time></trkpt><trkpt lat="43.969314451421724" lon="10.819754930482695"><ele>537.0</ele><time>2026-05-01T16:40:48.896Z</time></trkpt><trkpt lat="43.96918441911272" lon="10.819805791387976"><ele>537.0</ele><time>2026-05-01T16:40:49.896Z</time></trkpt><trkpt lat="43.969054931365264" lon="10.819864924083674"><ele>537.0</ele><time>2026-05-01T16:40:50.897Z</time></trkpt><trkpt lat="43.96892538575386" lon="10.819924786406105"><ele>537.0</ele><time>2026-05-01T16:40:51.897Z</time></trkpt><trkpt lat="43.968801243229265" lon="10.819958183445618"><ele>537.0</ele><time>2026-05-01T16:40:52.896Z</time></trkpt><trkpt lat="43.968692884480596" lon="10.820018125915375"><ele>537.0</ele><time>2026-05-01T16:40:53.897Z</time></trkpt><trkpt lat="43.96860366679511" lon="10.820038936905945"><ele>537.0</ele><time>2026-05-01T16:40:54.897Z</time></trkpt><trkpt lat="43.96850689436949" lon="10.820038188488919"><ele>537.0</ele><time>2026-05-01T16:40:55.897Z</time></trkpt><trkpt lat="43.96841957287243" lon="10.819981143114722"><ele>537.0</ele><time>2026-05-01T16:40:56.897Z</time></trkpt><trkpt lat="43.968355883241784" lon="10.819873991145975"><ele>537.0</ele><time>2026-05-01T16:40:57.897Z</time></trkpt><trkpt lat="43.96832653331624" lon="10.819720165210178"><ele>535.5</ele><time>2026-05-01T16:40:58.897Z</time></trkpt><trkpt lat="43.96834864792098" lon="10.81952512730993"><ele>534.0</ele><time>2026-05-01T16:40:59.897Z</time></trkpt><trkpt lat="43.96833594325048" lon="10.819329681706465"><ele>532.5</ele><time>2026-05-01T16:41:00.897Z</time></trkpt><trkpt lat="43.96834682015076" lon="10.819187436401124"><ele>531.0</ele><time>2026-05-01T16:41:01.897Z</time></trkpt><trkpt lat="43.968326655998304" lon="10.81905594567942"><ele>531.0</ele><time>2026-05-01T16:41:02.897Z</time></trkpt><trkpt lat="43.96827791581161" lon="10.818935033170616"><ele>531.0</ele><time>2026-05-01T16:41:03.897Z</time></trkpt><trkpt lat="43.96820467614311" lon="10.818834695766137"><ele>531.0</ele><time>2026-05-01T16:41:04.897Z</time></trkpt><trkpt lat="43.96811793600553" lon="10.818770705891502"><ele>531.0</ele><time>2026-05-01T16:41:05.897Z</time></trkpt><trkpt lat="43.968003458518375" lon="10.818779652215184"><ele>531.0</ele><time>2026-05-01T16:41:06.897Z</time></trkpt><trkpt lat="43.967888938390416" lon="10.818875964940275"><ele>531.0</ele><time>2026-05-01T16:41:07.897Z</time></trkpt><trkpt lat="43.96779783299856" lon="10.81900160544327"><ele>531.0</ele><time>2026-05-01T16:41:08.897Z</time></trkpt><trkpt lat="43.9677372526765" lon="10.819124897237879"><ele>531.0</ele><time>2026-05-01T16:41:09.897Z</time></trkpt><trkpt lat="43.96773445998593" lon="10.819282242516497"><ele>531.0</ele><time>2026-05-01T16:41:10.897Z</time></trkpt><trkpt lat="43.967731406501095" lon="10.819450537362739"><ele>530.6</ele><time>2026-05-01T16:41:11.897Z</time></trkpt><trkpt lat="43.96775395090002" lon="10.819615433079543"><ele>530.2</ele><time>2026-05-01T16:41:12.897Z</time></trkpt><trkpt lat="43.96780055256826" lon="10.819760761929759"><ele>529.8</ele><time>2026-05-01T16:41:13.897Z</time></trkpt><trkpt lat="43.96784388315032" lon="10.819901288244786"><ele>529.4</ele><time>2026-05-01T16:41:14.897Z</time></trkpt><trkpt lat="43.96787866666893" lon="10.820021233254744"><ele>529.0</ele><time>2026-05-01T16:41:15.897Z</time></trkpt><trkpt lat="43.967886538506285" lon="10.8201286639767"><ele>524.6</ele><time>2026-05-01T16:41:16.897Z</time></trkpt><trkpt lat="43.96785392799576" lon="10.820235056589777"><ele>520.2</ele><time>2026-05-01T16:41:17.897Z</time></trkpt><trkpt lat="43.96776036334545" lon="10.820329132823149"><ele>515.8000000000001</ele><time>2026-05-01T16:41:18.897Z</time></trkpt><trkpt lat="43.96767289345508" lon="10.820341291148013"><ele>511.40000000000003</ele><time>2026-05-01T16:41:19.897Z</time></trkpt><trkpt lat="43.96757591528446" lon="10.82031337073089"><ele>507.0</ele><time>2026-05-01T16:41:20.897Z</time></trkpt><trkpt lat="43.96745943910996" lon="10.820268886767844"><ele>505.8</ele><time>2026-05-01T16:41:21.897Z</time></trkpt><trkpt lat="43.96735899536071" lon="10.820176779179006"><ele>504.6</ele><time>2026-05-01T16:41:22.897Z</time></trkpt><trkpt lat="43.96727742758145" lon="10.820093590763486"><ele>503.40000000000003</ele><time>2026-05-01T16:41:23.897Z</time></trkpt><trkpt lat="43.96719483421353" lon="10.82004479285207"><ele>502.20000000000005</ele><time>2026-05-01T16:41:24.897Z</time></trkpt><trkpt lat="43.96710787444472" lon="10.820073339146436"><ele>501.0</ele><time>2026-05-01T16:41:25.897Z</time></trkpt><trkpt lat="43.9670536559599" lon="10.820143223690073"><ele>498.8</ele><time>2026-05-01T16:41:26.897Z</time></trkpt><trkpt lat="43.966994153461" lon="10.82021989604883"><ele>496.6</ele><time>2026-05-01T16:41:27.897Z</time></trkpt><trkpt lat="43.96698609399321" lon="10.820346702770966"><ele>494.4</ele><time>2026-05-01T16:41:28.897Z</time></trkpt><trkpt lat="43.96701689997766" lon="10.820464514741337"><ele>492.2</ele><time>2026-05-01T16:41:29.897Z</time></trkpt><trkpt lat="43.96710546346382" lon="10.820552519412372"><ele>490.0</ele><time>2026-05-01T16:41:30.897Z</time></trkpt><trkpt lat="43.967173668155844" lon="10.820619780051127"><ele>490.00000000000006</ele><time>2026-05-01T16:41:31.897Z</time></trkpt><trkpt lat="43.96722747989559" lon="10.820700771168882"><ele>490.0</ele><time>2026-05-01T16:41:32.897Z</time></trkpt><trkpt lat="43.96726293406412" lon="10.820790913564162"><ele>490.0</ele><time>2026-05-01T16:41:33.897Z</time></trkpt><trkpt lat="43.96727646255215" lon="10.820890579877652"><ele>490.0</ele><time>2026-05-01T16:41:34.897Z</time></trkpt><trkpt lat="43.96722461937784" lon="10.820998199443205"><ele>490.00000000000006</ele><time>2026-05-01T16:41:35.897Z</time></trkpt><trkpt lat="43.967126438000705" lon="10.82108880043123"><ele>490.0</ele><time>2026-05-01T16:41:36.897Z</time></trkpt><trkpt lat="43.96702005851977" lon="10.82110673886277"><ele>490.0</ele><time>2026-05-01T16:41:37.897Z</time></trkpt><trkpt lat="43.96691692125652" lon="10.82104109667539"><ele>490.0</ele><time>2026-05-01T16:41:38.897Z</time></trkpt><trkpt lat="43.96685942614771" lon="10.82089532743657"><ele>490.0</ele><time>2026-05-01T16:41:39.897Z</time></trkpt><trkpt lat="43.966789844804936" lon="10.820754062924653"><ele>490.0</ele><time>2026-05-01T16:41:40.897Z</time></trkpt><trkpt lat="43.96673535097729" lon="10.820590459337751"><ele>490.0</ele><time>2026-05-01T16:41:41.897Z</time></trkpt><trkpt lat="43.96669847994567" lon="10.82042652254248"><ele>490.0</ele><time>2026-05-01T16:41:42.897Z</time></trkpt><trkpt lat="43.966695634590884" lon="10.820250816556428"><ele>490.0</ele><time>2026-05-01T16:41:43.897Z</time></trkpt><trkpt lat="43.96670808929212" lon="10.820063324640868"><ele>490.0</ele><time>2026-05-01T16:41:44.897Z</time></trkpt><trkpt lat="43.96668861411612" lon="10.819866264510475"><ele>488.75</ele><time>2026-05-01T16:41:45.897Z</time></trkpt><trkpt lat="43.966649605179924" lon="10.819666222667987"><ele>487.5</ele><time>2026-05-01T16:41:46.897Z</time></trkpt><trkpt lat="43.96661483558464" lon="10.819459319649171"><ele>486.25</ele><time>2026-05-01T16:41:47.897Z</time></trkpt><trkpt lat="43.96659304139992" lon="10.81927424757731"><ele>485.0</ele><time>2026-05-01T16:41:48.897Z</time></trkpt><trkpt lat="43.966537708073936" lon="10.81911622526824"><ele>485.0</ele><time>2026-05-01T16:41:49.897Z</time></trkpt><trkpt lat="43.96649078560229" lon="10.81896084039283"><ele>485.0</ele><time>2026-05-01T16:41:50.897Z</time></trkpt><trkpt lat="43.96643084807946" lon="10.818841098477554"><ele>485.0</ele><time>2026-05-01T16:41:51.897Z</time></trkpt><trkpt lat="43.96634174156319" lon="10.818761940013346"><ele>485.0</ele><time>2026-05-01T16:41:52.897Z</time></trkpt><trkpt lat="43.966252333210896" lon="10.81871558522838"><ele>485.0</ele><time>2026-05-01T16:41:53.897Z</time></trkpt><trkpt lat="43.96615522984234" lon="10.818684989332983"><ele>485.0</ele><time>2026-05-01T16:41:54.897Z</time></trkpt><trkpt lat="43.966045060533986" lon="10.818692573426908"><ele>485.0</ele><time>2026-05-01T16:41:55.897Z</time></trkpt><trkpt lat="43.965953089301884" lon="10.81876592358713"><ele>485.0</ele><time>2026-05-01T16:41:56.897Z</time></trkpt><trkpt lat="43.96586439086424" lon="10.818897124502424"><ele>485.0</ele><time>2026-05-01T16:41:57.897Z</time></trkpt><trkpt lat="43.96577676391044" lon="10.819126118998867"><ele>475.0</ele><time>2026-05-01T16:41:58.897Z</time></trkpt><trkpt lat="43.96564710559527" lon="10.819328909456132"><ele>465.0</ele><time>2026-05-01T16:41:59.897Z</time></trkpt><trkpt lat="43.96553078332399" lon="10.819537927157665"><ele>455.0</ele><time>2026-05-01T16:42:00.897Z</time></trkpt><trkpt lat="43.965408428997605" lon="10.819750047484202"><ele>455.0</ele><time>2026-05-01T16:42:01.897Z</time></trkpt><trkpt lat="43.965310103078366" lon="10.819961175352294"><ele>455.0</ele><time>2026-05-01T16:42:02.897Z</time></trkpt><trkpt lat="43.965242750402105" lon="10.820182289042316"><ele>455.0</ele><time>2026-05-01T16:42:03.897Z</time></trkpt><trkpt lat="43.96521832343254" lon="10.820415258390295"><ele>452.25</ele><time>2026-05-01T16:42:04.897Z</time></trkpt><trkpt lat="43.96521569308199" lon="10.820617494710197"><ele>449.5</ele><time>2026-05-01T16:42:05.897Z</time></trkpt><trkpt lat="43.96519987243632" lon="10.820781124616696"><ele>446.75</ele><time>2026-05-01T16:42:06.897Z</time></trkpt><trkpt lat="43.965151860929474" lon="10.820924197040469"><ele>444.0</ele><time>2026-05-01T16:42:07.898Z</time></trkpt><trkpt lat="43.965051412477145" lon="10.82100042251164"><ele>446.66666666666663</ele><time>2026-05-01T16:42:08.898Z</time></trkpt><trkpt lat="43.96493279023416" lon="10.821134955721565"><ele>449.3333333333333</ele><time>2026-05-01T16:42:09.898Z</time></trkpt><trkpt lat="43.964825704815446" lon="10.821299011758427"><ele>452.0</ele><time>2026-05-01T16:42:10.898Z</time></trkpt><trkpt lat="43.96474074933751" lon="10.821497525190416"><ele>452.0</ele><time>2026-05-01T16:42:11.898Z</time></trkpt><trkpt lat="43.96468452414643" lon="10.821692109032256"><ele>452.0</ele><time>2026-05-01T16:42:12.898Z</time></trkpt><trkpt lat="43.96464602362863" lon="10.821885447566027"><ele>452.0</ele><time>2026-05-01T16:42:13.898Z</time></trkpt><trkpt lat="43.9646150331178" lon="10.82207406399165"><ele>452.0</ele><time>2026-05-01T16:42:14.898Z</time></trkpt><trkpt lat="43.96458876366993" lon="10.822238900160354"><ele>447.0</ele><time>2026-05-01T16:42:15.898Z</time></trkpt><trkpt lat="43.96456538017774" lon="10.822392417872663"><ele>442.0</ele><time>2026-05-01T16:42:16.898Z</time></trkpt><trkpt lat="43.964477637881494" lon="10.822522572079553"><ele>437.0</ele><time>2026-05-01T16:42:17.898Z</time></trkpt><trkpt lat="43.964355001664295" lon="10.822566273091416"><ele>432.0</ele><time>2026-05-01T16:42:18.898Z</time></trkpt><trkpt lat="43.964212424870716" lon="10.822552366139645"><ele>439.33333333333337</ele><time>2026-05-01T16:42:19.898Z</time></trkpt><trkpt lat="43.96402700708673" lon="10.822558292991216"><ele>446.6666666666667</ele><time>2026-05-01T16:42:20.898Z</time></trkpt><trkpt lat="43.963871737956524" lon="10.82259067530806"><ele>454.0</ele><time>2026-05-01T16:42:21.898Z</time></trkpt><trkpt lat="43.96371744766177" lon="10.822511650223037"><ele>441.5</ele><time>2026-05-01T16:42:22.898Z</time></trkpt><trkpt lat="43.9636286777583" lon="10.823025728897196"><ele>429.0</ele><time>2026-05-01T16:42:23.898Z</time></trkpt><trkpt lat="43.96345070373774" lon="10.823111438564144"><ele>432.66666666666663</ele><time>2026-05-01T16:42:24.898Z</time></trkpt><trkpt lat="43.963272247115825" lon="10.823224758982358"><ele>436.3333333333333</ele><time>2026-05-01T16:42:25.898Z</time></trkpt><trkpt lat="43.9630928256563" lon="10.823323622962597"><ele>440.0</ele><time>2026-05-01T16:42:26.898Z</time></trkpt><trkpt lat="43.96291941541394" lon="10.823378419357077"><ele>440.0</ele><time>2026-05-01T16:42:27.898Z</time></trkpt><trkpt lat="43.96276795301425" lon="10.823459533037049"><ele>440.0</ele><time>2026-05-01T16:42:28.898Z</time></trkpt><trkpt lat="43.96260393319514" lon="10.823528148990656"><ele>440.0</ele><time>2026-05-01T16:42:29.898Z</time></trkpt><trkpt lat="43.96244723964454" lon="10.823534916349304"><ele>429.0</ele><time>2026-05-01T16:42:30.898Z</time></trkpt><trkpt lat="43.962264996751614" lon="10.823527555328436"><ele>418.0</ele><time>2026-05-01T16:42:31.898Z</time></trkpt><trkpt lat="43.96209005127497" lon="10.823552432713797"><ele>407.0</ele><time>2026-05-01T16:42:32.898Z</time></trkpt><trkpt lat="43.96193098273572" lon="10.823605246988766"><ele>407.0</ele><time>2026-05-01T16:42:33.898Z</time></trkpt><trkpt lat="43.961782436044665" lon="10.823681443685262"><ele>407.0</ele><time>2026-05-01T16:42:34.898Z</time></trkpt><trkpt lat="43.96166770502074" lon="10.823772243218567"><ele>407.0</ele><time>2026-05-01T16:42:35.898Z</time></trkpt><trkpt lat="43.961571695483784" lon="10.823870593217318"><ele>407.0</ele><time>2026-05-01T16:42:36.898Z</time></trkpt><trkpt lat="43.96149534216688" lon="10.824020235196167"><ele>410.0</ele><time>2026-05-01T16:42:37.898Z</time></trkpt><trkpt lat="43.96143609697355" lon="10.824173183546629"><ele>413.0</ele><time>2026-05-01T16:42:38.898Z</time></trkpt><trkpt lat="43.961384729542566" lon="10.824293507774092"><ele>416.0</ele><time>2026-05-01T16:42:39.898Z</time></trkpt><trkpt lat="43.96130093446957" lon="10.824365400990656"><ele>419.0</ele><time>2026-05-01T16:42:40.898Z</time></trkpt><trkpt lat="43.96120351856438" lon="10.824400440924604"><ele>422.0</ele><time>2026-05-01T16:42:41.898Z</time></trkpt><trkpt lat="43.96109681859722" lon="10.82444239741955"><ele>414.25</ele><time>2026-05-01T16:42:42.898Z</time></trkpt><trkpt lat="43.96097780916542" lon="10.824488548807707"><ele>406.5</ele><time>2026-05-01T16:42:43.898Z</time></trkpt><trkpt lat="43.96086057310879" lon="10.824537116409305"><ele>398.75</ele><time>2026-05-01T16:42:44.898Z</time></trkpt><trkpt lat="43.96074801151152" lon="10.824577888813318"><ele>391.0</ele><time>2026-05-01T16:42:45.898Z</time></trkpt><trkpt lat="43.96063721208112" lon="10.8246196864574"><ele>391.0</ele><time>2026-05-01T16:42:46.899Z</time></trkpt><trkpt lat="43.96052534435465" lon="10.824659021263347"><ele>391.0</ele><time>2026-05-01T16:42:47.899Z</time></trkpt><trkpt lat="43.96041265458535" lon="10.824685491104605"><ele>391.0</ele><time>2026-05-01T16:42:48.899Z</time></trkpt><trkpt lat="43.960292483392614" lon="10.824676090747595"><ele>391.0</ele><time>2026-05-01T16:42:49.898Z</time></trkpt><trkpt lat="43.960173647309915" lon="10.824658717795925"><ele>391.0</ele><time>2026-05-01T16:42:50.898Z</time></trkpt><trkpt lat="43.96006879217127" lon="10.824641349836671"><ele>391.0</ele><time>2026-05-01T16:42:51.898Z</time></trkpt><trkpt lat="43.95996015921555" lon="10.824621169267466"><ele>391.0</ele><time>2026-05-01T16:42:52.898Z</time></trkpt><trkpt lat="43.95984077624391" lon="10.824656761318135"><ele>391.0</ele><time>2026-05-01T16:42:53.899Z</time></trkpt><trkpt lat="43.959719109328375" lon="10.82467345358265"><ele>392.0</ele><time>2026-05-01T16:42:54.899Z</time></trkpt><trkpt lat="43.959590420413036" lon="10.824694582134995"><ele>393.0</ele><time>2026-05-01T16:42:55.898Z</time></trkpt><trkpt lat="43.95948125588731" lon="10.82470762364335"><ele>394.0</ele><time>2026-05-01T16:42:56.898Z</time></trkpt><trkpt lat="43.95936506209328" lon="10.824779162308339"><ele>395.0</ele><time>2026-05-01T16:42:57.898Z</time></trkpt><trkpt lat="43.959250461735515" lon="10.824860049898591"><ele>396.0</ele><time>2026-05-01T16:42:58.899Z</time></trkpt><trkpt lat="43.95896701875348" lon="10.825085849214137"><ele>397.0</ele><time>2026-05-01T16:43:01.898Z</time></trkpt><trkpt lat="43.958901755595534" lon="10.825179428659526"><ele>398.0</ele><time>2026-05-01T16:43:02.898Z</time></trkpt><trkpt lat="43.95883011556814" lon="10.82530630724841"><ele>390.25</ele><time>2026-05-01T16:43:03.898Z</time></trkpt><trkpt lat="43.9587627407024" lon="10.825400416190298"><ele>382.5</ele><time>2026-05-01T16:43:04.898Z</time></trkpt><trkpt lat="43.95865789055732" lon="10.825460670931307"><ele>374.75</ele><time>2026-05-01T16:43:05.898Z</time></trkpt><trkpt lat="43.95852673184312" lon="10.825503241274186"><ele>367.0</ele><time>2026-05-01T16:43:06.898Z</time></trkpt><trkpt lat="43.958396904288364" lon="10.825508165220885"><ele>369.25</ele><time>2026-05-01T16:43:07.898Z</time></trkpt><trkpt lat="43.958277397765336" lon="10.825545439287435"><ele>371.5</ele><time>2026-05-01T16:43:08.898Z</time></trkpt><trkpt lat="43.95815943472003" lon="10.825552276611063"><ele>373.75</ele><time>2026-05-01T16:43:09.898Z</time></trkpt><trkpt lat="43.95804577912777" lon="10.82554505688835"><ele>376.0</ele><time>2026-05-01T16:43:10.898Z</time></trkpt><trkpt lat="43.957930628195996" lon="10.825549464818803"><ele>376.0</ele><time>2026-05-01T16:43:11.898Z</time></trkpt><trkpt lat="43.957822667111806" lon="10.825539614001972"><ele>376.0</ele><time>2026-05-01T16:43:12.898Z</time></trkpt><trkpt lat="43.95770745942617" lon="10.825551499965064"><ele>376.0</ele><time>2026-05-01T16:43:13.898Z</time></trkpt><trkpt lat="43.95761082478971" lon="10.825527185568474"><ele>376.0</ele><time>2026-05-01T16:43:14.898Z</time></trkpt><trkpt lat="43.95753334397105" lon="10.825489961206909"><ele>376.0</ele><time>2026-05-01T16:43:15.898Z</time></trkpt><trkpt lat="43.95745636926693" lon="10.82542626302585"><ele>377.20000000000005</ele><time>2026-05-01T16:43:16.898Z</time></trkpt><trkpt lat="43.957390302861405" lon="10.825344614816782"><ele>378.40000000000003</ele><time>2026-05-01T16:43:17.898Z</time></trkpt><trkpt lat="43.95732726265618" lon="10.825225027241077"><ele>379.6</ele><time>2026-05-01T16:43:18.898Z</time></trkpt><trkpt lat="43.95726830969647" lon="10.82507975020283"><ele>380.8</ele><time>2026-05-01T16:43:19.898Z</time></trkpt><trkpt lat="43.95722176443894" lon="10.824910135984045"><ele>382.0</ele><time>2026-05-01T16:43:20.898Z</time></trkpt><trkpt lat="43.957188050819894" lon="10.824755944666187"><ele>382.0</ele><time>2026-05-01T16:43:21.899Z</time></trkpt><trkpt lat="43.95716445501245" lon="10.82462063453863"><ele>382.0</ele><time>2026-05-01T16:43:22.899Z</time></trkpt><trkpt lat="43.95715515789284" lon="10.824500730997087"><ele>382.0</ele><time>2026-05-01T16:43:23.899Z</time></trkpt><trkpt lat="43.95716049621768" lon="10.824382585305658"><ele>382.0</ele><time>2026-05-01T16:43:24.899Z</time></trkpt><trkpt lat="43.95719048218431" lon="10.82426682469253"><ele>382.0</ele><time>2026-05-01T16:43:25.899Z</time></trkpt><trkpt lat="43.957258240360495" lon="10.824160796520292"><ele>381.0</ele><time>2026-05-01T16:43:26.899Z</time></trkpt><trkpt lat="43.95735434133997" lon="10.824033744828732"><ele>380.0</ele><time>2026-05-01T16:43:27.899Z</time></trkpt><trkpt lat="43.95747446077364" lon="10.823886186529108"><ele>379.0</ele><time>2026-05-01T16:43:28.899Z</time></trkpt><trkpt lat="43.95759737764736" lon="10.823704315414236"><ele>388.0</ele><time>2026-05-01T16:43:29.899Z</time></trkpt><trkpt lat="43.95767191204214" lon="10.823484259299049"><ele>397.0</ele><time>2026-05-01T16:43:30.899Z</time></trkpt><trkpt lat="43.95775606212728" lon="10.823289036819011"><ele>406.0</ele><time>2026-05-01T16:43:31.899Z</time></trkpt><trkpt lat="43.95780337210375" lon="10.823133260792446"><ele>406.0</ele><time>2026-05-01T16:43:32.899Z</time></trkpt><trkpt lat="43.95781908150814" lon="10.82299594310875"><ele>406.0</ele><time>2026-05-01T16:43:33.899Z</time></trkpt><trkpt lat="43.95781945642737" lon="10.822865921081892"><ele>406.0</ele><time>2026-05-01T16:43:34.899Z</time></trkpt><trkpt lat="43.95776857506866" lon="10.822748397712243"><ele>406.0</ele><time>2026-05-01T16:43:35.899Z</time></trkpt><trkpt lat="43.95767639090256" lon="10.822678739946571"><ele>406.0</ele><time>2026-05-01T16:43:36.899Z</time></trkpt><trkpt lat="43.95756948616845" lon="10.82265014399912"><ele>395.75</ele><time>2026-05-01T16:43:37.899Z</time></trkpt><trkpt lat="43.957451603633125" lon="10.82266883600513"><ele>385.5</ele><time>2026-05-01T16:43:38.899Z</time></trkpt><trkpt lat="43.95731974083436" lon="10.822738330539591"><ele>375.25</ele><time>2026-05-01T16:43:39.899Z</time></trkpt><trkpt lat="43.9571851822323" lon="10.822825762390384"><ele>365.0</ele><time>2026-05-01T16:43:40.899Z</time></trkpt><trkpt lat="43.95703607832084" lon="10.822933487169868"><ele>365.0</ele><time>2026-05-01T16:43:41.899Z</time></trkpt><trkpt lat="43.95689444470278" lon="10.82304157880467"><ele>365.0</ele><time>2026-05-01T16:43:42.899Z</time></trkpt><trkpt lat="43.95676551381557" lon="10.823124371993805"><ele>365.0</ele><time>2026-05-01T16:43:43.899Z</time></trkpt><trkpt lat="43.95663420963135" lon="10.82319105406936"><ele>365.0</ele><time>2026-05-01T16:43:44.899Z</time></trkpt><trkpt lat="43.95650381250457" lon="10.823210584094822"><ele>362.5</ele><time>2026-05-01T16:43:45.899Z</time></trkpt><trkpt lat="43.9563646242591" lon="10.823199141228573"><ele>360.0</ele><time>2026-05-01T16:43:46.899Z</time></trkpt><trkpt lat="43.95621776201568" lon="10.823140045247344"><ele>357.5</ele><time>2026-05-01T16:43:47.899Z</time></trkpt><trkpt lat="43.95607516105766" lon="10.823055536612447"><ele>355.0</ele><time>2026-05-01T16:43:48.899Z</time></trkpt><trkpt lat="43.95596473082477" lon="10.822954537911691"><ele>355.0</ele><time>2026-05-01T16:43:49.899Z</time></trkpt><trkpt lat="43.95588692577221" lon="10.822817536543436"><ele>355.0</ele><time>2026-05-01T16:43:50.899Z</time></trkpt><trkpt lat="43.95583780108544" lon="10.822676127290448"><ele>355.0</ele><time>2026-05-01T16:43:51.899Z</time></trkpt><trkpt lat="43.95579342464382" lon="10.822551425472682"><ele>355.0</ele><time>2026-05-01T16:43:52.899Z</time></trkpt><trkpt lat="43.95572727811226" lon="10.8224598190903"><ele>355.0</ele><time>2026-05-01T16:43:53.899Z</time></trkpt><trkpt lat="43.95564246595692" lon="10.822442202312573"><ele>355.0</ele><time>2026-05-01T16:43:54.899Z</time></trkpt><trkpt lat="43.95555750294112" lon="10.822491451053212"><ele>355.0</ele><time>2026-05-01T16:43:55.899Z</time></trkpt><trkpt lat="43.95548843922451" lon="10.822558304248664"><ele>355.0</ele><time>2026-05-01T16:43:56.899Z</time></trkpt><trkpt lat="43.95540136119649" lon="10.822665503759753"><ele>355.0</ele><time>2026-05-01T16:43:57.899Z</time></trkpt><trkpt lat="43.95540351544544" lon="10.822834432412922"><ele>355.0</ele><time>2026-05-01T16:43:58.899Z</time></trkpt><trkpt lat="43.95541825756363" lon="10.822987848197759"><ele>355.0</ele><time>2026-05-01T16:43:59.899Z</time></trkpt><trkpt lat="43.95546124267053" lon="10.823118083625122"><ele>355.0</ele><time>2026-05-01T16:44:00.899Z</time></trkpt><trkpt lat="43.955483505295035" lon="10.82324503537392"><ele>355.0</ele><time>2026-05-01T16:44:01.899Z</time></trkpt><trkpt lat="43.95550933445227" lon="10.823359016467398"><ele>355.0</ele><time>2026-05-01T16:44:02.899Z</time></trkpt><trkpt lat="43.9555151080093" lon="10.823466636991292"><ele>355.0</ele><time>2026-05-01T16:44:03.899Z</time></trkpt><trkpt lat="43.955525497826656" lon="10.823579997626032"><ele>355.0</ele><time>2026-05-01T16:44:04.899Z</time></trkpt><trkpt lat="43.955483766690016" lon="10.823679631170263"><ele>352.3333333333333</ele><time>2026-05-01T16:44:05.899Z</time></trkpt><trkpt lat="43.95539750524706" lon="10.82374658618555"><ele>349.66666666666663</ele><time>2026-05-01T16:44:06.899Z</time></trkpt><trkpt lat="43.95534411944059" lon="10.823837701799919"><ele>347.0</ele><time>2026-05-01T16:44:07.899Z</time></trkpt><trkpt lat="43.95528722023635" lon="10.823890092986938"><ele>344.3333333333333</ele><time>2026-05-01T16:44:08.899Z</time></trkpt><trkpt lat="43.955224199489685" lon="10.82396906264228"><ele>341.6666666666667</ele><time>2026-05-01T16:44:10.899Z</time></trkpt><trkpt lat="43.95515659880411" lon="10.824059107325366"><ele>339.0</ele><time>2026-05-01T16:44:12.899Z</time></trkpt><trkpt lat="43.95506353078138" lon="10.824125143737293"><ele>344.0</ele><time>2026-05-01T16:44:14.899Z</time></trkpt><trkpt lat="43.95498290933268" lon="10.824199159345167"><ele>349.0</ele><time>2026-05-01T16:44:16.899Z</time></trkpt><trkpt lat="43.95489082202851" lon="10.824198641092242"><ele>354.0</ele><time>2026-05-01T16:44:18.899Z</time></trkpt><trkpt lat="43.95479034499759" lon="10.824176517527999"><ele>359.0</ele><time>2026-05-01T16:44:20.899Z</time></trkpt><trkpt lat="43.95468147222859" lon="10.82413896798035"><ele>364.0</ele><time>2026-05-01T16:44:22.899Z</time></trkpt><trkpt lat="43.954615721831175" lon="10.824140063689363"><ele>364.0</ele><time>2026-05-01T16:44:23.899Z</time></trkpt><trkpt lat="43.9545616941469" lon="10.824187735442015"><ele>364.0</ele><time>2026-05-01T16:44:24.899Z</time></trkpt><trkpt lat="43.954508756323506" lon="10.824250940705863"><ele>364.0</ele><time>2026-05-01T16:44:25.899Z</time></trkpt><trkpt lat="43.954457420262806" lon="10.824338456251432"><ele>364.0</ele><time>2026-05-01T16:44:26.899Z</time></trkpt><trkpt lat="43.954416920356664" lon="10.824422551178532"><ele>364.0</ele><time>2026-05-01T16:44:27.899Z</time></trkpt><trkpt lat="43.954374426116644" lon="10.82451198475622"><ele>364.0</ele><time>2026-05-01T16:44:28.899Z</time></trkpt><trkpt lat="43.954325584260964" lon="10.824607617850008"><ele>364.0</ele><time>2026-05-01T16:44:29.899Z</time></trkpt><trkpt lat="43.95425602030008" lon="10.824704221876308"><ele>360.75</ele><time>2026-05-01T16:44:30.899Z</time></trkpt><trkpt lat="43.954147709535114" lon="10.824751038586964"><ele>357.5</ele><time>2026-05-01T16:44:31.899Z</time></trkpt><trkpt lat="43.95402170597119" lon="10.824743991978806"><ele>354.25</ele><time>2026-05-01T16:44:32.899Z</time></trkpt><trkpt lat="43.95388491155515" lon="10.824741474061703"><ele>351.0</ele><time>2026-05-01T16:44:33.899Z</time></trkpt><trkpt lat="43.95376199051236" lon="10.824740080013141"><ele>351.0</ele><time>2026-05-01T16:44:34.899Z</time></trkpt><trkpt lat="43.953652747427945" lon="10.824735145672886"><ele>351.0</ele><time>2026-05-01T16:44:35.899Z</time></trkpt><trkpt lat="43.953550555202625" lon="10.82472154721944"><ele>351.0</ele><time>2026-05-01T16:44:36.899Z</time></trkpt><trkpt lat="43.95345299807814" lon="10.824706238736976"><ele>351.0</ele><time>2026-05-01T16:44:37.899Z</time></trkpt><trkpt lat="43.953356591438826" lon="10.824681033008227"><ele>351.0</ele><time>2026-05-01T16:44:38.899Z</time></trkpt><trkpt lat="43.95326449320712" lon="10.824635901546808"><ele>350.0</ele><time>2026-05-01T16:44:39.899Z</time></trkpt><trkpt lat="43.95317035241329" lon="10.824611432291384"><ele>349.0</ele><time>2026-05-01T16:44:40.899Z</time></trkpt><trkpt lat="43.95307839976361" lon="10.824601512533885"><ele>348.0</ele><time>2026-05-01T16:44:41.899Z</time></trkpt><trkpt lat="43.95299122122503" lon="10.824632831235093"><ele>347.0</ele><time>2026-05-01T16:44:42.899Z</time></trkpt><trkpt lat="43.95290986815951" lon="10.824664390036581"><ele>346.0</ele><time>2026-05-01T16:44:43.899Z</time></trkpt><trkpt lat="43.9528285177812" lon="10.824711601777093"><ele>346.0</ele><time>2026-05-01T16:44:44.899Z</time></trkpt><trkpt lat="43.95274080566511" lon="10.824720824973395"><ele>346.0</ele><time>2026-05-01T16:44:45.899Z</time></trkpt><trkpt lat="43.952651064689974" lon="10.824698681356404"><ele>346.0</ele><time>2026-05-01T16:44:46.899Z</time></trkpt><trkpt lat="43.95256572174054" lon="10.82463207181581"><ele>346.0</ele><time>2026-05-01T16:44:47.899Z</time></trkpt><trkpt lat="43.95250701515504" lon="10.824532998072032"><ele>346.0</ele><time>2026-05-01T16:44:48.899Z</time></trkpt><trkpt lat="43.95247628768218" lon="10.824414666144056"><ele>346.16666666666663</ele><time>2026-05-01T16:44:49.899Z</time></trkpt><trkpt lat="43.952465361557344" lon="10.824293123173092"><ele>346.3333333333333</ele><time>2026-05-01T16:44:50.899Z</time></trkpt><trkpt lat="43.952461264814914" lon="10.82417327624031"><ele>346.5</ele><time>2026-05-01T16:44:51.899Z</time></trkpt><trkpt lat="43.95244780866304" lon="10.824058672787087"><ele>346.6666666666667</ele><time>2026-05-01T16:44:52.9Z</time></trkpt><trkpt lat="43.95242809120336" lon="10.823934145689835"><ele>346.83333333333337</ele><time>2026-05-01T16:44:53.9Z</time></trkpt><trkpt lat="43.95240531006784" lon="10.823824380757708"><ele>347.0</ele><time>2026-05-01T16:44:54.9Z</time></trkpt><trkpt lat="43.952360836370815" lon="10.823729599209955"><ele>347.0</ele><time>2026-05-01T16:44:55.901Z</time></trkpt><trkpt lat="43.95229727745726" lon="10.823649427170865"><ele>347.0</ele><time>2026-05-01T16:44:56.901Z</time></trkpt><trkpt lat="43.952227095354374" lon="10.823583491839944"><ele>347.0</ele><time>2026-05-01T16:44:57.901Z</time></trkpt><trkpt lat="43.95215998419779" lon="10.82352644775814"><ele>347.0</ele><time>2026-05-01T16:44:58.901Z</time></trkpt><trkpt lat="43.952071873514626" lon="10.823439161962222"><ele>347.0</ele><time>2026-05-01T16:45:00.9Z</time></trkpt><trkpt lat="43.95200237871889" lon="10.823399817765036"><ele>347.0</ele><time>2026-05-01T16:45:02.901Z</time></trkpt><trkpt lat="43.951932513105646" lon="10.823378553646295"><ele>347.0</ele><time>2026-05-01T16:45:04.9Z</time></trkpt><trkpt lat="43.95185659294857" lon="10.823501028548892"><ele>347.0</ele><time>2026-05-01T16:45:06.9Z</time></trkpt><trkpt lat="43.95188868211656" lon="10.82360040099698"><ele>347.0</ele><time>2026-05-01T16:45:07.9Z</time></trkpt><trkpt lat="43.95193721533244" lon="10.823689412987608"><ele>347.0</ele><time>2026-05-01T16:45:08.9Z</time></trkpt><trkpt lat="43.95199610912582" lon="10.823764696042373"><ele>347.0</ele><time>2026-05-01T16:45:09.9Z</time></trkpt><trkpt lat="43.95207285200426" lon="10.8238286491588"><ele>347.0</ele><time>2026-05-01T16:45:10.9Z</time></trkpt><trkpt lat="43.95212808669019" lon="10.823927284710862"><ele>347.0</ele><time>2026-05-01T16:45:11.9Z</time></trkpt><trkpt lat="43.95216713895585" lon="10.824052560348955"><ele>347.0</ele><time>2026-05-01T16:45:12.9Z</time></trkpt><trkpt lat="43.9521822107359" lon="10.824204653394826"><ele>347.0</ele><time>2026-05-01T16:45:13.9Z</time></trkpt><trkpt lat="43.952182485958396" lon="10.824352101421278"><ele>347.0</ele><time>2026-05-01T16:45:14.9Z</time></trkpt><trkpt lat="43.952183437964074" lon="10.824482837888118"><ele>347.0</ele><time>2026-05-01T16:45:15.9Z</time></trkpt><trkpt lat="43.952213573113674" lon="10.8245882368828"><ele>344.0</ele><time>2026-05-01T16:45:16.9Z</time></trkpt><trkpt lat="43.95223791955166" lon="10.824714252034047"><ele>341.0</ele><time>2026-05-01T16:45:17.9Z</time></trkpt><trkpt lat="43.95228539457316" lon="10.82482512176888"><ele>338.0</ele><time>2026-05-01T16:45:18.9Z</time></trkpt><trkpt lat="43.952345470687725" lon="10.824928680537269"><ele>335.0</ele><time>2026-05-01T16:45:19.9Z</time></trkpt><trkpt lat="43.952401633054784" lon="10.825020626969694"><ele>332.0</ele><time>2026-05-01T16:45:20.9Z</time></trkpt><trkpt lat="43.95246727226206" lon="10.8251180875847"><ele>329.20000000000005</ele><time>2026-05-01T16:45:21.9Z</time></trkpt><trkpt lat="43.95253411386762" lon="10.825206189802284"><ele>326.40000000000003</ele><time>2026-05-01T16:45:22.9Z</time></trkpt><trkpt lat="43.952603083207634" lon="10.825289663141179"><ele>323.6</ele><time>2026-05-01T16:45:23.9Z</time></trkpt><trkpt lat="43.952699882396" lon="10.825304197531215"><ele>320.8</ele><time>2026-05-01T16:45:24.9Z</time></trkpt><trkpt lat="43.95278721360568" lon="10.82530548809275"><ele>318.0</ele><time>2026-05-01T16:45:25.9Z</time></trkpt><trkpt lat="43.95287055257985" lon="10.825283143578178"><ele>318.0</ele><time>2026-05-01T16:45:26.9Z</time></trkpt><trkpt lat="43.95295252135846" lon="10.825274153062598"><ele>318.0</ele><time>2026-05-01T16:45:27.9Z</time></trkpt><trkpt lat="43.95304170635818" lon="10.825290810501938"><ele>318.0</ele><time>2026-05-01T16:45:28.9Z</time></trkpt><trkpt lat="43.95311936859969" lon="10.825358334146715"><ele>318.0</ele><time>2026-05-01T16:45:29.9Z</time></trkpt><trkpt lat="43.95317410908537" lon="10.825435577568987"><ele>318.0</ele><time>2026-05-01T16:45:30.9Z</time></trkpt><trkpt lat="43.95321615680771" lon="10.825544566267633"><ele>318.0</ele><time>2026-05-01T16:45:31.9Z</time></trkpt><trkpt lat="43.953249244170294" lon="10.825656926370339"><ele>318.0</ele><time>2026-05-01T16:45:32.9Z</time></trkpt><trkpt lat="43.953284938882106" lon="10.825752116473401"><ele>318.0</ele><time>2026-05-01T16:45:33.9Z</time></trkpt><trkpt lat="43.95333990291289" lon="10.825844377835185"><ele>318.0</ele><time>2026-05-01T16:45:34.9Z</time></trkpt><trkpt lat="43.95341113707908" lon="10.825917213616657"><ele>318.0</ele><time>2026-05-01T16:45:35.9Z</time></trkpt><trkpt lat="43.95349518015917" lon="10.825974081216005"><ele>318.0</ele><time>2026-05-01T16:45:36.9Z</time></trkpt><trkpt lat="43.95358386690605" lon="10.826011691444776"><ele>318.0</ele><time>2026-05-01T16:45:37.9Z</time></trkpt><trkpt lat="43.95367022279384" lon="10.826016806907026"><ele>316.57142857142856</ele><time>2026-05-01T16:45:38.9Z</time></trkpt><trkpt lat="43.9537428890974" lon="10.826010429299188"><ele>315.14285714285717</ele><time>2026-05-01T16:45:39.9Z</time></trkpt><trkpt lat="43.95381382732397" lon="10.826024733220732"><ele>313.7142857142857</ele><time>2026-05-01T16:45:40.9Z</time></trkpt><trkpt lat="43.95387563788269" lon="10.826073016842807"><ele>312.2857142857143</ele><time>2026-05-01T16:45:41.9Z</time></trkpt><trkpt lat="43.95392040782463" lon="10.826148799347173"><ele>310.8571428571429</ele><time>2026-05-01T16:45:42.9Z</time></trkpt><trkpt lat="43.953939566321594" lon="10.826249859477175"><ele>309.42857142857144</ele><time>2026-05-01T16:45:43.9Z</time></trkpt><trkpt lat="43.95392272977958" lon="10.826347877486059"><ele>308.0</ele><time>2026-05-01T16:45:44.9Z</time></trkpt><trkpt lat="43.95387988618363" lon="10.826425430006045"><ele>308.0</ele><time>2026-05-01T16:45:45.9Z</time></trkpt><trkpt lat="43.953807671274774" lon="10.826450532170686"><ele>308.0</ele><time>2026-05-01T16:45:46.901Z</time></trkpt><trkpt lat="43.95373283345679" lon="10.826458451983612"><ele>308.0</ele><time>2026-05-01T16:45:47.901Z</time></trkpt><trkpt lat="43.95365221790122" lon="10.82648425809286"><ele>308.0</ele><time>2026-05-01T16:45:48.901Z</time></trkpt><trkpt lat="43.953555486141944" lon="10.826484301968884"><ele>308.0</ele><time>2026-05-01T16:45:49.901Z</time></trkpt><trkpt lat="43.95345705874524" lon="10.82649335461742"><ele>308.0</ele><time>2026-05-01T16:45:50.901Z</time></trkpt><trkpt lat="43.95336464332685" lon="10.826493155288658"><ele>307.83333333333337</ele><time>2026-05-01T16:45:51.901Z</time></trkpt><trkpt lat="43.95327689970923" lon="10.826496089170396"><ele>307.6666666666667</ele><time>2026-05-01T16:45:52.901Z</time></trkpt><trkpt lat="43.95318983011173" lon="10.826503214905964"><ele>307.5</ele><time>2026-05-01T16:45:53.901Z</time></trkpt><trkpt lat="43.95309991190921" lon="10.826515040563343"><ele>307.3333333333333</ele><time>2026-05-01T16:45:54.901Z</time></trkpt><trkpt lat="43.95301242156117" lon="10.826550971870113"><ele>307.16666666666663</ele><time>2026-05-01T16:45:55.901Z</time></trkpt><trkpt lat="43.95294056997903" lon="10.826622943549946"><ele>307.0</ele><time>2026-05-01T16:45:56.901Z</time></trkpt><trkpt lat="43.95287567220458" lon="10.82670448286774"><ele>303.75</ele><time>2026-05-01T16:45:57.901Z</time></trkpt><trkpt lat="43.95284745542472" lon="10.826832955661237"><ele>300.5</ele><time>2026-05-01T16:45:58.901Z</time></trkpt><trkpt lat="43.95286183305833" lon="10.82698297663995"><ele>297.25</ele><time>2026-05-01T16:45:59.901Z</time></trkpt><trkpt lat="43.95289807554504" lon="10.827102255047649"><ele>294.0</ele><time>2026-05-01T16:46:00.901Z</time></trkpt><trkpt lat="43.953019541698055" lon="10.827228118985438"><ele>294.0</ele><time>2026-05-01T16:46:03.901Z</time></trkpt><trkpt lat="43.95313055943982" lon="10.827237512104436"><ele>294.0</ele><time>2026-05-01T16:46:04.901Z</time></trkpt><trkpt lat="43.95327715820013" lon="10.827251141943448"><ele>294.0</ele><time>2026-05-01T16:46:05.901Z</time></trkpt><trkpt lat="43.95348194111842" lon="10.827245083977322"><ele>293.5</ele><time>2026-05-01T16:46:06.901Z</time></trkpt><trkpt lat="43.95366097674101" lon="10.827213782754384"><ele>293.0</ele><time>2026-05-01T16:46:07.901Z</time></trkpt><trkpt lat="43.95378175070159" lon="10.827211725468352"><ele>292.5</ele><time>2026-05-01T16:46:08.901Z</time></trkpt><trkpt lat="43.953874012120025" lon="10.827205539002245"><ele>292.0</ele><time>2026-05-01T16:46:09.901Z</time></trkpt><trkpt lat="43.95396501977709" lon="10.827202842977242"><ele>292.0</ele><time>2026-05-01T16:46:10.901Z</time></trkpt><trkpt lat="43.954053981552875" lon="10.827200228294021"><ele>292.0</ele><time>2026-05-01T16:46:11.901Z</time></trkpt><trkpt lat="43.9541409613027" lon="10.827200142362567"><ele>292.0</ele><time>2026-05-01T16:46:12.901Z</time></trkpt><trkpt lat="43.954209510738885" lon="10.827248980180157"><ele>292.0</ele><time>2026-05-01T16:46:13.901Z</time></trkpt><trkpt lat="43.9543038132453" lon="10.827307339554297"><ele>292.0</ele><time>2026-05-01T16:46:15.901Z</time></trkpt><trkpt lat="43.9542838610172" lon="10.827508075734789"><ele>292.0</ele><time>2026-05-01T16:46:18.901Z</time></trkpt><trkpt lat="43.95419757215432" lon="10.827610388835426"><ele>292.0</ele><time>2026-05-01T16:46:20.901Z</time></trkpt><trkpt lat="43.954119674158605" lon="10.82762746814125"><ele>292.0</ele><time>2026-05-01T16:46:21.901Z</time></trkpt><trkpt lat="43.9539930152945" lon="10.827643164873678"><ele>292.0</ele><time>2026-05-01T16:46:22.901Z</time></trkpt><trkpt lat="43.95384592342523" lon="10.827654217385485"><ele>292.0</ele><time>2026-05-01T16:46:23.901Z</time></trkpt><trkpt lat="43.953645705254786" lon="10.827662553490491"><ele>292.0</ele><time>2026-05-01T16:46:24.901Z</time></trkpt><trkpt lat="43.95351796965864" lon="10.82765541302122"><ele>292.0</ele><time>2026-05-01T16:46:25.901Z</time></trkpt><trkpt lat="43.95340537221712" lon="10.82763634140891"><ele>292.0</ele><time>2026-05-01T16:46:26.901Z</time></trkpt><trkpt lat="43.95329059556313" lon="10.827611817148862"><ele>292.4</ele><time>2026-05-01T16:46:27.901Z</time></trkpt><trkpt lat="43.953188210356544" lon="10.827601993061856"><ele>292.79999999999995</ele><time>2026-05-01T16:46:28.901Z</time></trkpt><trkpt lat="43.95308774933359" lon="10.827610044255964"><ele>293.2</ele><time>2026-05-01T16:46:29.901Z</time></trkpt><trkpt lat="43.952984923650476" lon="10.827620193653757"><ele>293.59999999999997</ele><time>2026-05-01T16:46:30.901Z</time></trkpt><trkpt lat="43.95289370147403" lon="10.82766904376542"><ele>294.0</ele><time>2026-05-01T16:46:31.901Z</time></trkpt><trkpt lat="43.952805607968216" lon="10.827728874347242"><ele>290.2</ele><time>2026-05-01T16:46:32.901Z</time></trkpt><trkpt lat="43.952721685239375" lon="10.827799592356705"><ele>286.4</ele><time>2026-05-01T16:46:33.901Z</time></trkpt><trkpt lat="43.95263600253885" lon="10.827883906882983"><ele>282.6</ele><time>2026-05-01T16:46:34.901Z</time></trkpt><trkpt lat="43.95255114663825" lon="10.827957782626545"><ele>278.8</ele><time>2026-05-01T16:46:35.901Z</time></trkpt><trkpt lat="43.9524722977787" lon="10.827968995297608"><ele>275.0</ele><time>2026-05-01T16:46:36.901Z</time></trkpt><trkpt lat="43.95237833619297" lon="10.827966434671742"><ele>274.6</ele><time>2026-05-01T16:46:37.901Z</time></trkpt><trkpt lat="43.95228223768681" lon="10.827943093001203"><ele>274.2</ele><time>2026-05-01T16:46:38.901Z</time></trkpt><trkpt lat="43.952194918771816" lon="10.827889226209011"><ele>273.8</ele><time>2026-05-01T16:46:39.901Z</time></trkpt><trkpt lat="43.95209892086897" lon="10.827860425766525"><ele>273.4</ele><time>2026-05-01T16:46:40.901Z</time></trkpt><trkpt lat="43.9519881775751" lon="10.827878251623924"><ele>273.0</ele><time>2026-05-01T16:46:41.901Z</time></trkpt><trkpt lat="43.951894013420095" lon="10.82792808562447"><ele>273.0</ele><time>2026-05-01T16:46:42.901Z</time></trkpt><trkpt lat="43.9517995723212" lon="10.828022846599646"><ele>273.0</ele><time>2026-05-01T16:46:43.901Z</time></trkpt><trkpt lat="43.95171600509652" lon="10.828148632101827"><ele>273.0</ele><time>2026-05-01T16:46:44.901Z</time></trkpt><trkpt lat="43.95159168146547" lon="10.828326453004951"><ele>273.0</ele><time>2026-05-01T16:46:45.901Z</time></trkpt><trkpt lat="43.95143869847393" lon="10.828559084954943"><ele>269.0</ele><time>2026-05-01T16:46:46.901Z</time></trkpt><trkpt lat="43.95128097190169" lon="10.82886668285858"><ele>265.0</ele><time>2026-05-01T16:46:47.901Z</time></trkpt><trkpt lat="43.95109244575045" lon="10.829149296799109"><ele>263.0</ele><time>2026-05-01T16:46:48.901Z</time></trkpt><trkpt lat="43.95091903757208" lon="10.829377372764661"><ele>261.0</ele><time>2026-05-01T16:46:49.901Z</time></trkpt><trkpt lat="43.95076907481029" lon="10.829603164992749"><ele>261.0</ele><time>2026-05-01T16:46:50.901Z</time></trkpt><trkpt lat="43.95062155869207" lon="10.829826161728407"><ele>261.0</ele><time>2026-05-01T16:46:51.901Z</time></trkpt><trkpt lat="43.9504748338181" lon="10.830065253914272"><ele>261.0</ele><time>2026-05-01T16:46:52.901Z</time></trkpt><trkpt lat="43.95032292416281" lon="10.830315576864715"><ele>259.0</ele><time>2026-05-01T16:46:53.901Z</time></trkpt><trkpt lat="43.950189949664775" lon="10.830556072171087"><ele>257.0</ele><time>2026-05-01T16:46:54.901Z</time></trkpt><trkpt lat="43.95007361780127" lon="10.830778493046868"><ele>255.0</ele><time>2026-05-01T16:46:55.901Z</time></trkpt><trkpt lat="43.949968504427204" lon="10.830985067164168"><ele>253.33333333333331</ele><time>2026-05-01T16:46:56.901Z</time></trkpt><trkpt lat="43.94984987505241" lon="10.831195491679383"><ele>251.66666666666666</ele><time>2026-05-01T16:46:57.901Z</time></trkpt><trkpt lat="43.94973897914073" lon="10.831389137134805"><ele>250.0</ele><time>2026-05-01T16:46:58.902Z</time></trkpt><trkpt lat="43.949650769845555" lon="10.831537513304811"><ele>250.0</ele><time>2026-05-01T16:46:59.903Z</time></trkpt><trkpt lat="43.94956944231811" lon="10.8316661102022"><ele>250.0</ele><time>2026-05-01T16:47:00.903Z</time></trkpt><trkpt lat="43.94949616502616" lon="10.831776158164422"><ele>250.0</ele><time>2026-05-01T16:47:01.902Z</time></trkpt><trkpt lat="43.9494268330001" lon="10.83187475243789"><ele>250.0</ele><time>2026-05-01T16:47:02.902Z</time></trkpt><trkpt lat="43.94934533271172" lon="10.831971893699652"><ele>250.0</ele><time>2026-05-01T16:47:03.902Z</time></trkpt><trkpt lat="43.949261337206764" lon="10.832054394725226"><ele>248.66666666666666</ele><time>2026-05-01T16:47:04.902Z</time></trkpt><trkpt lat="43.9491659324406" lon="10.83214000584355"><ele>247.33333333333331</ele><time>2026-05-01T16:47:05.903Z</time></trkpt><trkpt lat="43.949036780203905" lon="10.83224564147764"><ele>246.0</ele><time>2026-05-01T16:47:06.903Z</time></trkpt><trkpt lat="43.9488549637227" lon="10.832383165477665"><ele>246.0</ele><time>2026-05-01T16:47:07.902Z</time></trkpt><trkpt lat="43.948664831970326" lon="10.83252943296557"><ele>246.0</ele><time>2026-05-01T16:47:08.902Z</time></trkpt><trkpt lat="43.94850928899" lon="10.832653089929947"><ele>246.0</ele><time>2026-05-01T16:47:09.902Z</time></trkpt><trkpt lat="43.94837356067981" lon="10.8327722494895"><ele>244.0</ele><time>2026-05-01T16:47:10.902Z</time></trkpt><trkpt lat="43.948244400720576" lon="10.832886334015914"><ele>242.0</ele><time>2026-05-01T16:47:11.902Z</time></trkpt><trkpt lat="43.948104401812884" lon="10.832978550829624"><ele>240.0</ele><time>2026-05-01T16:47:12.902Z</time></trkpt><trkpt lat="43.94797112151485" lon="10.833044961470199"><ele>240.0</ele><time>2026-05-01T16:47:13.902Z</time></trkpt><trkpt lat="43.94782951949305" lon="10.833094047096898"><ele>240.0</ele><time>2026-05-01T16:47:14.902Z</time></trkpt><trkpt lat="43.94770118734368" lon="10.833141510771092"><ele>240.0</ele><time>2026-05-01T16:47:15.902Z</time></trkpt><trkpt lat="43.947610603154445" lon="10.833286291156444"><ele>240.0</ele><time>2026-05-01T16:47:16.902Z</time></trkpt><trkpt lat="43.9475445113996" lon="10.833449813579445"><ele>239.6</ele><time>2026-05-01T16:47:17.902Z</time></trkpt><trkpt lat="43.94748124896297" lon="10.833597428874516"><ele>239.2</ele><time>2026-05-01T16:47:18.902Z</time></trkpt><trkpt lat="43.94742601909269" lon="10.83372603214257"><ele>238.8</ele><time>2026-05-01T16:47:19.902Z</time></trkpt><trkpt lat="43.947370092353204" lon="10.833826105068143"><ele>238.4</ele><time>2026-05-01T16:47:20.902Z</time></trkpt><trkpt lat="43.94730200562668" lon="10.833894696945698"><ele>238.0</ele><time>2026-05-01T16:47:21.902Z</time></trkpt><trkpt lat="43.94720548908346" lon="10.833953509429517"><ele>238.0</ele><time>2026-05-01T16:47:22.902Z</time></trkpt><trkpt lat="43.94705676497399" lon="10.833946592679"><ele>238.0</ele><time>2026-05-01T16:47:23.902Z</time></trkpt><trkpt lat="43.94693303073306" lon="10.83401265041384"><ele>238.0</ele><time>2026-05-01T16:47:24.902Z</time></trkpt><trkpt lat="43.94685081955497" lon="10.83409050868778"><ele>238.0</ele><time>2026-05-01T16:47:25.902Z</time></trkpt><trkpt lat="43.94676467786849" lon="10.834157329164304"><ele>236.0</ele><time>2026-05-01T16:47:26.902Z</time></trkpt><trkpt lat="43.946660000692155" lon="10.834237480607069"><ele>234.0</ele><time>2026-05-01T16:47:27.902Z</time></trkpt><trkpt lat="43.94654570506607" lon="10.834309289768527"><ele>232.0</ele><time>2026-05-01T16:47:28.902Z</time></trkpt><trkpt lat="43.94640751469853" lon="10.834342605191694"><ele>230.0</ele><time>2026-05-01T16:47:29.902Z</time></trkpt><trkpt lat="43.946273045419005" lon="10.834384449190253"><ele>230.0</ele><time>2026-05-01T16:47:30.903Z</time></trkpt><trkpt lat="43.946165705774234" lon="10.834422325969104"><ele>230.0</ele><time>2026-05-01T16:47:31.903Z</time></trkpt><trkpt lat="43.94604530783998" lon="10.834474645583906"><ele>230.0</ele><time>2026-05-01T16:47:32.903Z</time></trkpt><trkpt lat="43.94594058758275" lon="10.834520477713658"><ele>230.0</ele><time>2026-05-01T16:47:33.903Z</time></trkpt><trkpt lat="43.94584102508478" lon="10.834578294245219"><ele>230.6</ele><time>2026-05-01T16:47:34.903Z</time></trkpt><trkpt lat="43.94576797479096" lon="10.834631477063246"><ele>231.2</ele><time>2026-05-01T16:47:35.903Z</time></trkpt><trkpt lat="43.945711931147265" lon="10.834721221419075"><ele>231.8</ele><time>2026-05-01T16:47:36.903Z</time></trkpt><trkpt lat="43.9456531539683" lon="10.834840295209437"><ele>232.4</ele><time>2026-05-01T16:47:37.903Z</time></trkpt><trkpt lat="43.94558691961201" lon="10.834933049059783"><ele>233.0</ele><time>2026-05-01T16:47:38.903Z</time></trkpt><trkpt lat="43.94549523793738" lon="10.834983788257393"><ele>233.0</ele><time>2026-05-01T16:47:39.903Z</time></trkpt><trkpt lat="43.94541160340211" lon="10.835058918767041"><ele>233.0</ele><time>2026-05-01T16:47:40.903Z</time></trkpt><trkpt lat="43.94531595421229" lon="10.835081971121374"><ele>233.0</ele><time>2026-05-01T16:47:41.903Z</time></trkpt><trkpt lat="43.945234409388036" lon="10.83515059788931"><ele>233.0</ele><time>2026-05-01T16:47:42.903Z</time></trkpt><trkpt lat="43.945154194127134" lon="10.835214555575744"><ele>233.0</ele><time>2026-05-01T16:47:43.903Z</time></trkpt><trkpt lat="43.9450855348489" lon="10.835307931091062"><ele>230.0</ele><time>2026-05-01T16:47:44.903Z</time></trkpt><trkpt lat="43.94500906235423" lon="10.83542473388251"><ele>227.0</ele><time>2026-05-01T16:47:45.903Z</time></trkpt><trkpt lat="43.944910905771295" lon="10.835521427115193"><ele>224.0</ele><time>2026-05-01T16:47:46.903Z</time></trkpt><trkpt lat="43.94480497230409" lon="10.835597515727553"><ele>221.0</ele><time>2026-05-01T16:47:47.903Z</time></trkpt><trkpt lat="43.94466526399777" lon="10.83568402850781"><ele>221.0</ele><time>2026-05-01T16:47:48.903Z</time></trkpt><trkpt lat="43.944492830510235" lon="10.835782094034208"><ele>221.0</ele><time>2026-05-01T16:47:49.903Z</time></trkpt><trkpt lat="43.94425411481964" lon="10.835936499237587"><ele>216.33333333333334</ele><time>2026-05-01T16:47:50.903Z</time></trkpt><trkpt lat="43.94405503108943" lon="10.836114432560196"><ele>211.66666666666669</ele><time>2026-05-01T16:47:51.903Z</time></trkpt><trkpt lat="43.94391710795099" lon="10.836253279199859"><ele>207.0</ele><time>2026-05-01T16:47:52.903Z</time></trkpt><trkpt lat="43.94381532605482" lon="10.836356182260436"><ele>207.0</ele><time>2026-05-01T16:47:53.903Z</time></trkpt><trkpt lat="43.94368788833482" lon="10.836377871573681"><ele>207.0</ele><time>2026-05-01T16:47:54.903Z</time></trkpt><trkpt lat="43.943572244657034" lon="10.836395429620959"><ele>207.0</ele><time>2026-05-01T16:47:55.903Z</time></trkpt><trkpt lat="43.943446402609105" lon="10.836455229057233"><ele>207.0</ele><time>2026-05-01T16:47:56.903Z</time></trkpt><trkpt lat="43.94332351714994" lon="10.8365660031688"><ele>206.66666666666669</ele><time>2026-05-01T16:47:57.903Z</time></trkpt><trkpt lat="43.943208799011046" lon="10.836703885613924"><ele>206.33333333333334</ele><time>2026-05-01T16:47:58.903Z</time></trkpt><trkpt lat="43.943094889745794" lon="10.836896659178858"><ele>206.0</ele><time>2026-05-01T16:47:59.903Z</time></trkpt><trkpt lat="43.94295335150603" lon="10.837084200497738"><ele>206.0</ele><time>2026-05-01T16:48:00.903Z</time></trkpt><trkpt lat="43.942812661051576" lon="10.837266869908175"><ele>206.0</ele><time>2026-05-01T16:48:01.903Z</time></trkpt><trkpt lat="43.94267289887409" lon="10.837463260357486"><ele>206.0</ele><time>2026-05-01T16:48:02.903Z</time></trkpt><trkpt lat="43.94253967361481" lon="10.837661151248458"><ele>205.0</ele><time>2026-05-01T16:48:03.903Z</time></trkpt><trkpt lat="43.942400384698715" lon="10.837824405450334"><ele>204.0</ele><time>2026-05-01T16:48:04.903Z</time></trkpt><trkpt lat="43.94227482838113" lon="10.838001512016703"><ele>203.0</ele><time>2026-05-01T16:48:05.903Z</time></trkpt><trkpt lat="43.94215408704458" lon="10.83817254659465"><ele>203.0</ele><time>2026-05-01T16:48:06.903Z</time></trkpt><trkpt lat="43.94203740994742" lon="10.838337824104805"><ele>203.0</ele><time>2026-05-01T16:48:07.903Z</time></trkpt><trkpt lat="43.94192127190292" lon="10.838502959597777"><ele>203.0</ele><time>2026-05-01T16:48:08.903Z</time></trkpt><trkpt lat="43.94180719436022" lon="10.838670157209535"><ele>202.75</ele><time>2026-05-01T16:48:09.903Z</time></trkpt><trkpt lat="43.94171450935348" lon="10.838854897724334"><ele>202.5</ele><time>2026-05-01T16:48:10.903Z</time></trkpt><trkpt lat="43.94164300307556" lon="10.838998225435965"><ele>202.25</ele><time>2026-05-01T16:48:11.903Z</time></trkpt><trkpt lat="43.941603113409904" lon="10.83912580392434"><ele>202.0</ele><time>2026-05-01T16:48:12.903Z</time></trkpt><trkpt lat="43.94155086173675" lon="10.839239873074618"><ele>200.16666666666666</ele><time>2026-05-01T16:48:13.903Z</time></trkpt><trkpt lat="43.94152953668217" lon="10.83936118846388"><ele>198.33333333333331</ele><time>2026-05-01T16:48:14.903Z</time></trkpt><trkpt lat="43.941517418579274" lon="10.839467072038676"><ele>196.5</ele><time>2026-05-01T16:48:15.903Z</time></trkpt><trkpt lat="43.94148127233395" lon="10.839615716002651"><ele>194.66666666666666</ele><time>2026-05-01T16:48:17.903Z</time></trkpt><trkpt lat="43.94148344578929" lon="10.839729321742974"><ele>192.83333333333331</ele><time>2026-05-01T16:48:19.903Z</time></trkpt><trkpt lat="43.941500361905824" lon="10.839833886142364"><ele>191.0</ele><time>2026-05-01T16:49:18.905Z</time></trkpt><trkpt lat="43.94151998573639" lon="10.839958500456982"><ele>191.0</ele><time>2026-05-01T16:49:21.905Z</time></trkpt><trkpt lat="43.94152308454253" lon="10.840075782098596"><ele>191.0</ele><time>2026-05-01T16:49:22.905Z</time></trkpt><trkpt lat="43.94152676939605" lon="10.840206306964395"><ele>191.0</ele><time>2026-05-01T16:49:23.905Z</time></trkpt><trkpt lat="43.94151424552101" lon="10.840371961405557"><ele>191.0</ele><time>2026-05-01T16:49:24.905Z</time></trkpt><trkpt lat="43.94153029269291" lon="10.840541915383845"><ele>191.0</ele><time>2026-05-01T16:49:25.905Z</time></trkpt><trkpt lat="43.94155807061647" lon="10.840699925771398"><ele>191.0</ele><time>2026-05-01T16:49:26.905Z</time></trkpt><trkpt lat="43.94156447639637" lon="10.84087588923362"><ele>191.0</ele><time>2026-05-01T16:49:27.905Z</time></trkpt><trkpt lat="43.94156146978889" lon="10.841063213024327"><ele>191.0</ele><time>2026-05-01T16:49:28.905Z</time></trkpt><trkpt lat="43.94152715689781" lon="10.841249772333214"><ele>191.0</ele><time>2026-05-01T16:49:29.905Z</time></trkpt><trkpt lat="43.94146654292006" lon="10.841434822455357"><ele>191.0</ele><time>2026-05-01T16:49:30.905Z</time></trkpt><trkpt lat="43.94136196803036" lon="10.84159383715125"><ele>191.0</ele><time>2026-05-01T16:49:31.905Z</time></trkpt><trkpt lat="43.94127344308208" lon="10.841779153324842"><ele>191.0</ele><time>2026-05-01T16:49:32.905Z</time></trkpt><trkpt lat="43.941166853236936" lon="10.841955755567815"><ele>194.0</ele><time>2026-05-01T16:49:33.905Z</time></trkpt><trkpt lat="43.94106638478944" lon="10.842132132734736"><ele>197.0</ele><time>2026-05-01T16:49:34.905Z</time></trkpt><trkpt lat="43.940950444471135" lon="10.842299785741805"><ele>200.0</ele><time>2026-05-01T16:49:35.905Z</time></trkpt><trkpt lat="43.94085484423403" lon="10.842497516873392"><ele>195.0</ele><time>2026-05-01T16:49:36.905Z</time></trkpt><trkpt lat="43.940738314384056" lon="10.842696069024958"><ele>190.0</ele><time>2026-05-01T16:49:37.905Z</time></trkpt><trkpt lat="43.94062421615914" lon="10.842891526226385"><ele>185.0</ele><time>2026-05-01T16:49:38.905Z</time></trkpt><trkpt lat="43.940504889195694" lon="10.843093669643833"><ele>185.0</ele><time>2026-05-01T16:49:39.905Z</time></trkpt><trkpt lat="43.94038744015036" lon="10.843296830126663"><ele>185.0</ele><time>2026-05-01T16:49:40.905Z</time></trkpt><trkpt lat="43.94026493722724" lon="10.843507859400217"><ele>185.0</ele><time>2026-05-01T16:49:41.905Z</time></trkpt><trkpt lat="43.94013979769627" lon="10.843729241284109"><ele>186.0</ele><time>2026-05-01T16:49:42.905Z</time></trkpt><trkpt lat="43.9400125109768" lon="10.843954562402043"><ele>187.0</ele><time>2026-05-01T16:49:43.905Z</time></trkpt><trkpt lat="43.93988719585468" lon="10.84417884053895"><ele>188.0</ele><time>2026-05-01T16:49:44.905Z</time></trkpt><trkpt lat="43.93974424343454" lon="10.844405520129344"><ele>188.0</ele><time>2026-05-01T16:49:45.905Z</time></trkpt><trkpt lat="43.9396138662471" lon="10.844622317384932"><ele>188.0</ele><time>2026-05-01T16:49:46.905Z</time></trkpt><trkpt lat="43.93949425928347" lon="10.84482970164854"><ele>188.0</ele><time>2026-05-01T16:49:47.905Z</time></trkpt><trkpt lat="43.93938213352446" lon="10.845025850672567"><ele>187.66666666666666</ele><time>2026-05-01T16:49:48.905Z</time></trkpt><trkpt lat="43.93926853279051" lon="10.845222031571504"><ele>187.33333333333334</ele><time>2026-05-01T16:49:49.905Z</time></trkpt><trkpt lat="43.93915494704556" lon="10.845415249036751"><ele>187.0</ele><time>2026-05-01T16:49:50.905Z</time></trkpt><trkpt lat="43.93902830069363" lon="10.845608216045042"><ele>187.0</ele><time>2026-05-01T16:49:51.905Z</time></trkpt><trkpt lat="43.93887756399413" lon="10.845780301906826"><ele>187.0</ele><time>2026-05-01T16:49:52.905Z</time></trkpt><trkpt lat="43.93871028081452" lon="10.84593848799848"><ele>187.0</ele><time>2026-05-01T16:49:53.905Z</time></trkpt><trkpt lat="43.93852756599769" lon="10.846086449412674"><ele>182.33333333333334</ele><time>2026-05-01T16:49:54.905Z</time></trkpt><trkpt lat="43.93834649856732" lon="10.846246568061114"><ele>177.66666666666666</ele><time>2026-05-01T16:49:55.905Z</time></trkpt><trkpt lat="43.93816791443896" lon="10.846418385755758"><ele>173.0</ele><time>2026-05-01T16:49:56.905Z</time></trkpt><trkpt lat="43.937994618825094" lon="10.846600314174093"><ele>174.33333333333331</ele><time>2026-05-01T16:49:57.905Z</time></trkpt><trkpt lat="43.93782755310825" lon="10.846803314790135"><ele>175.66666666666666</ele><time>2026-05-01T16:49:58.905Z</time></trkpt><trkpt lat="43.93766473689025" lon="10.847017184207605"><ele>177.0</ele><time>2026-05-01T16:49:59.905Z</time></trkpt><trkpt lat="43.93750661479954" lon="10.847236288499763"><ele>172.66666666666666</ele><time>2026-05-01T16:50:00.905Z</time></trkpt><trkpt lat="43.93734724353716" lon="10.847454636051223"><ele>168.33333333333331</ele><time>2026-05-01T16:50:01.905Z</time></trkpt><trkpt lat="43.93718405912613" lon="10.847663801744003"><ele>164.0</ele><time>2026-05-01T16:50:02.905Z</time></trkpt><trkpt lat="43.93701987293271" lon="10.847867803933307"><ele>164.0</ele><time>2026-05-01T16:50:03.905Z</time></trkpt><trkpt lat="43.93686157912599" lon="10.84807432496484"><ele>164.0</ele><time>2026-05-01T16:50:04.905Z</time></trkpt><trkpt lat="43.936703773808205" lon="10.848285270327178"><ele>164.0</ele><time>2026-05-01T16:50:05.905Z</time></trkpt><trkpt lat="43.93654757094367" lon="10.848493153315655"><ele>161.66666666666666</ele><time>2026-05-01T16:50:06.905Z</time></trkpt><trkpt lat="43.936391597519886" lon="10.848701675806627"><ele>159.33333333333334</ele><time>2026-05-01T16:50:07.905Z</time></trkpt><trkpt lat="43.93624278197519" lon="10.848913793805846"><ele>157.0</ele><time>2026-05-01T16:50:08.905Z</time></trkpt><trkpt lat="43.936105487447605" lon="10.849137810247324"><ele>156.33333333333334</ele><time>2026-05-01T16:50:09.905Z</time></trkpt><trkpt lat="43.93599101133757" lon="10.849373106049738"><ele>155.66666666666666</ele><time>2026-05-01T16:50:10.905Z</time></trkpt><trkpt lat="43.93589240083289" lon="10.849622404361586"><ele>155.0</ele><time>2026-05-01T16:50:11.905Z</time></trkpt><trkpt lat="43.935801417737125" lon="10.849881737742901"><ele>155.0</ele><time>2026-05-01T16:50:12.905Z</time></trkpt><trkpt lat="43.93570469912877" lon="10.850114787576608"><ele>155.0</ele><time>2026-05-01T16:50:13.905Z</time></trkpt><trkpt lat="43.93559421203865" lon="10.85032784894919"><ele>155.0</ele><time>2026-05-01T16:50:14.905Z</time></trkpt><trkpt lat="43.9354522302962" lon="10.850512482151695"><ele>155.33333333333331</ele><time>2026-05-01T16:50:15.905Z</time></trkpt><trkpt lat="43.93530115926792" lon="10.850701902306751"><ele>155.66666666666666</ele><time>2026-05-01T16:50:16.905Z</time></trkpt><trkpt lat="43.93514135480201" lon="10.850900170273414"><ele>156.0</ele><time>2026-05-01T16:50:17.905Z</time></trkpt><trkpt lat="43.93496844787786" lon="10.851113633986612"><ele>156.0</ele><time>2026-05-01T16:50:18.905Z</time></trkpt><trkpt lat="43.93479713629432" lon="10.851343097300104"><ele>156.0</ele><time>2026-05-01T16:50:19.905Z</time></trkpt><trkpt lat="43.93463639311436" lon="10.851604277023753"><ele>164.0</ele><time>2026-05-01T16:50:20.905Z</time></trkpt><trkpt lat="43.93446648301317" lon="10.851886623023798"><ele>172.0</ele><time>2026-05-01T16:50:21.905Z</time></trkpt><trkpt lat="43.93429698307724" lon="10.852172547196751"><ele>164.0</ele><time>2026-05-01T16:50:22.905Z</time></trkpt><trkpt lat="43.93413693918373" lon="10.85246701240989"><ele>156.0</ele><time>2026-05-01T16:50:23.905Z</time></trkpt><trkpt lat="43.934010076694534" lon="10.852775811969602"><ele>156.0</ele><time>2026-05-01T16:50:24.905Z</time></trkpt><trkpt lat="43.93390716072681" lon="10.8530646208875"><ele>156.0</ele><time>2026-05-01T16:50:25.905Z</time></trkpt><trkpt lat="43.93393256578724" lon="10.852924581093438"><ele>156.0</ele><time>2026-05-01T16:50:26.905Z</time></trkpt><trkpt lat="43.933840437107506" lon="10.85319284565708"><ele>156.0</ele><time>2026-05-01T16:50:27.905Z</time></trkpt><trkpt lat="43.933729423128256" lon="10.853435128876333"><ele>156.0</ele><time>2026-05-01T16:50:28.905Z</time></trkpt><trkpt lat="43.93357053612954" lon="10.853653023883503"><ele>156.0</ele><time>2026-05-01T16:50:29.905Z</time></trkpt><trkpt lat="43.93341279075917" lon="10.85385117356627"><ele>153.33333333333334</ele><time>2026-05-01T16:50:30.905Z</time></trkpt><trkpt lat="43.93326962650462" lon="10.854048545047087"><ele>150.66666666666669</ele><time>2026-05-01T16:50:31.905Z</time></trkpt><trkpt lat="43.93313888096142" lon="10.854255785482188"><ele>148.0</ele><time>2026-05-01T16:50:32.906Z</time></trkpt><trkpt lat="43.93301408515186" lon="10.854462111117705"><ele>148.0</ele><time>2026-05-01T16:50:33.906Z</time></trkpt><trkpt lat="43.93290155149465" lon="10.854679926355614"><ele>148.0</ele><time>2026-05-01T16:50:34.906Z</time></trkpt><trkpt lat="43.93279922995468" lon="10.854878266134376"><ele>148.0</ele><time>2026-05-01T16:50:35.906Z</time></trkpt><trkpt lat="43.932692662646495" lon="10.855061716777557"><ele>145.66666666666669</ele><time>2026-05-01T16:50:36.906Z</time></trkpt><trkpt lat="43.932573472676474" lon="10.855243644081813"><ele>143.33333333333334</ele><time>2026-05-01T16:50:37.906Z</time></trkpt><trkpt lat="43.93243912575741" lon="10.855432173545164"><ele>141.0</ele><time>2026-05-01T16:50:38.906Z</time></trkpt><trkpt lat="43.932298653299995" lon="10.855605193911359"><ele>141.0</ele><time>2026-05-01T16:50:39.906Z</time></trkpt><trkpt lat="43.93215318162436" lon="10.855782659013995"><ele>141.0</ele><time>2026-05-01T16:50:40.906Z</time></trkpt><trkpt lat="43.93200966266107" lon="10.855962515551038"><ele>141.0</ele><time>2026-05-01T16:50:41.906Z</time></trkpt><trkpt lat="43.93187016738704" lon="10.85615038437028"><ele>141.33333333333334</ele><time>2026-05-01T16:50:42.906Z</time></trkpt><trkpt lat="43.93173303323915" lon="10.85634770263955"><ele>141.66666666666669</ele><time>2026-05-01T16:50:43.906Z</time></trkpt><trkpt lat="43.93158690221957" lon="10.856558392458188"><ele>142.0</ele><time>2026-05-01T16:50:44.906Z</time></trkpt><trkpt lat="43.93143926496296" lon="10.856780714440427"><ele>139.0</ele><time>2026-05-01T16:50:45.906Z</time></trkpt><trkpt lat="43.93128117662725" lon="10.857007033607442"><ele>136.0</ele><time>2026-05-01T16:50:46.906Z</time></trkpt><trkpt lat="43.93112178619728" lon="10.857232850875317"><ele>136.0</ele><time>2026-05-01T16:50:47.906Z</time></trkpt><trkpt lat="43.930973270005886" lon="10.857440322738734"><ele>136.0</ele><time>2026-05-01T16:50:48.906Z</time></trkpt><trkpt lat="43.93082663305409" lon="10.85763595973539"><ele>136.0</ele><time>2026-05-01T16:50:49.906Z</time></trkpt><trkpt lat="43.93067553884211" lon="10.857826409607112"><ele>134.0</ele><time>2026-05-01T16:50:50.906Z</time></trkpt><trkpt lat="43.93052372826003" lon="10.858012249890034"><ele>132.0</ele><time>2026-05-01T16:50:51.906Z</time></trkpt><trkpt lat="43.93038337409093" lon="10.85819589432398"><ele>130.0</ele><time>2026-05-01T16:50:52.906Z</time></trkpt><trkpt lat="43.930235904734104" lon="10.858381019228048"><ele>130.66666666666669</ele><time>2026-05-01T16:50:53.906Z</time></trkpt><trkpt lat="43.93008779463621" lon="10.858570285034604"><ele>131.33333333333334</ele><time>2026-05-01T16:50:54.906Z</time></trkpt><trkpt lat="43.929938278687345" lon="10.858765998227298"><ele>132.0</ele><time>2026-05-01T16:50:55.906Z</time></trkpt><trkpt lat="43.92979209868418" lon="10.858948953590566"><ele>130.66666666666666</ele><time>2026-05-01T16:50:56.906Z</time></trkpt><trkpt lat="43.92965323096908" lon="10.859119847966548"><ele>129.33333333333331</ele><time>2026-05-01T16:50:57.906Z</time></trkpt><trkpt lat="43.929523006398085" lon="10.859289373889851"><ele>128.0</ele><time>2026-05-01T16:50:58.906Z</time></trkpt><trkpt lat="43.9294022074058" lon="10.8594859331364"><ele>128.0</ele><time>2026-05-01T16:50:59.906Z</time></trkpt><trkpt lat="43.92928690665388" lon="10.859720953030761"><ele>128.0</ele><time>2026-05-01T16:51:00.906Z</time></trkpt><trkpt lat="43.929182868671184" lon="10.859985998732398"><ele>128.0</ele><time>2026-05-01T16:51:01.906Z</time></trkpt><trkpt lat="43.92907777900155" lon="10.860265269172189"><ele>125.0</ele><time>2026-05-01T16:51:02.906Z</time></trkpt><trkpt lat="43.9289801375785" lon="10.860610603310002"><ele>122.0</ele><time>2026-05-01T16:51:03.906Z</time></trkpt><trkpt lat="43.92889493431296" lon="10.860967481937188"><ele>122.0</ele><time>2026-05-01T16:51:04.906Z</time></trkpt><trkpt lat="43.92881866657899" lon="10.861287368648583"><ele>122.0</ele><time>2026-05-01T16:51:05.906Z</time></trkpt><trkpt lat="43.92875294212094" lon="10.861604438578658"><ele>122.0</ele><time>2026-05-01T16:51:06.906Z</time></trkpt><trkpt lat="43.92870230193823" lon="10.86193051656777"><ele>122.0</ele><time>2026-05-01T16:51:07.906Z</time></trkpt><trkpt lat="43.92866520760944" lon="10.862262548160427"><ele>122.0</ele><time>2026-05-01T16:51:08.906Z</time></trkpt><trkpt lat="43.92862910837291" lon="10.862595978878087"><ele>122.0</ele><time>2026-05-01T16:51:09.907Z</time></trkpt><trkpt lat="43.9285879303437" lon="10.862920479823932"><ele>122.5</ele><time>2026-05-01T16:51:10.906Z</time></trkpt><trkpt lat="43.928541746294705" lon="10.863242608605487"><ele>123.0</ele><time>2026-05-01T16:51:11.906Z</time></trkpt><trkpt lat="43.92850183949722" lon="10.863557889998624"><ele>123.0</ele><time>2026-05-01T16:51:12.906Z</time></trkpt><trkpt lat="43.92846359510532" lon="10.863862810345674"><ele>123.0</ele><time>2026-05-01T16:51:13.907Z</time></trkpt><trkpt lat="43.928428058741545" lon="10.864149280605712"><ele>123.0</ele><time>2026-05-01T16:51:14.907Z</time></trkpt><trkpt lat="43.928400967525235" lon="10.864422261891876"><ele>120.33333333333334</ele><time>2026-05-01T16:51:15.906Z</time></trkpt><trkpt lat="43.92838588197101" lon="10.864699005001619"><ele>117.66666666666667</ele><time>2026-05-01T16:51:16.906Z</time></trkpt><trkpt lat="43.928383702011566" lon="10.864984434142494"><ele>115.0</ele><time>2026-05-01T16:51:17.906Z</time></trkpt><trkpt lat="43.928391012271355" lon="10.865278194151891"><ele>116.0</ele><time>2026-05-01T16:51:18.907Z</time></trkpt><trkpt lat="43.92840366809346" lon="10.865571821345739"><ele>117.0</ele><time>2026-05-01T16:51:19.907Z</time></trkpt><trkpt lat="43.92841073875639" lon="10.865860887372383"><ele>118.0</ele><time>2026-05-01T16:51:20.907Z</time></trkpt><trkpt lat="43.92841999263876" lon="10.866140240286605"><ele>118.0</ele><time>2026-05-01T16:51:21.907Z</time></trkpt><trkpt lat="43.928419426217495" lon="10.866434295239511"><ele>118.0</ele><time>2026-05-01T16:51:22.907Z</time></trkpt><trkpt lat="43.92841321756353" lon="10.866735808913186"><ele>118.0</ele><time>2026-05-01T16:51:23.907Z</time></trkpt><trkpt lat="43.9284075700324" lon="10.867031557722688"><ele>116.33333333333334</ele><time>2026-05-01T16:51:24.907Z</time></trkpt><trkpt lat="43.92840147531535" lon="10.86731042485463"><ele>114.66666666666666</ele><time>2026-05-01T16:51:25.907Z</time></trkpt><trkpt lat="43.92840629849189" lon="10.867581117844427"><ele>113.0</ele><time>2026-05-01T16:51:26.907Z</time></trkpt><trkpt lat="43.928407346640725" lon="10.867857356239034"><ele>112.66666666666666</ele><time>2026-05-01T16:51:27.907Z</time></trkpt><trkpt lat="43.928403462333534" lon="10.868134280255395"><ele>112.33333333333334</ele><time>2026-05-01T16:51:28.907Z</time></trkpt><trkpt lat="43.92839602769867" lon="10.868408972126502"><ele>112.0</ele><time>2026-05-01T16:51:29.907Z</time></trkpt><trkpt lat="43.92839662415072" lon="10.868679813856316"><ele>112.0</ele><time>2026-05-01T16:51:30.907Z</time></trkpt><trkpt lat="43.92839369229207" lon="10.868955824128067"><ele>112.0</ele><time>2026-05-01T16:51:31.907Z</time></trkpt><trkpt lat="43.92840416642388" lon="10.869230635168257"><ele>112.0</ele><time>2026-05-01T16:51:32.907Z</time></trkpt><trkpt lat="43.92842332548197" lon="10.869501957808989"><ele>110.33333333333334</ele><time>2026-05-01T16:51:33.907Z</time></trkpt><trkpt lat="43.928436953125996" lon="10.869771465755289"><ele>108.66666666666666</ele><time>2026-05-01T16:51:34.907Z</time></trkpt><trkpt lat="43.92845503325425" lon="10.870056496768287"><ele>107.0</ele><time>2026-05-01T16:51:35.907Z</time></trkpt><trkpt lat="43.928470919214966" lon="10.870346099914192"><ele>106.0</ele><time>2026-05-01T16:51:36.907Z</time></trkpt><trkpt lat="43.92848650240629" lon="10.87063268636276"><ele>105.0</ele><time>2026-05-01T16:51:37.907Z</time></trkpt><trkpt lat="43.9284999971871" lon="10.870919153930318"><ele>104.0</ele><time>2026-05-01T16:51:38.907Z</time></trkpt><trkpt lat="43.92851116036417" lon="10.871202510654925"><ele>103.66666666666666</ele><time>2026-05-01T16:51:39.907Z</time></trkpt><trkpt lat="43.92852536592021" lon="10.871488398335345"><ele>103.33333333333334</ele><time>2026-05-01T16:51:40.907Z</time></trkpt><trkpt lat="43.92854192184806" lon="10.871772335219127"><ele>103.0</ele><time>2026-05-01T16:51:41.907Z</time></trkpt><trkpt lat="43.92856087483913" lon="10.872055840005823"><ele>103.66666666666667</ele><time>2026-05-01T16:51:42.907Z</time></trkpt><trkpt lat="43.9285762806715" lon="10.872337199969829"><ele>104.33333333333334</ele><time>2026-05-01T16:51:43.907Z</time></trkpt><trkpt lat="43.92859793097618" lon="10.87262282732082"><ele>105.0</ele><time>2026-05-01T16:51:44.907Z</time></trkpt><trkpt lat="43.9286121781196" lon="10.872906914957234"><ele>103.66666666666666</ele><time>2026-05-01T16:51:45.907Z</time></trkpt><trkpt lat="43.92865448194032" lon="10.87318802465736"><ele>102.33333333333333</ele><time>2026-05-01T16:51:46.907Z</time></trkpt><trkpt lat="43.92870596397307" lon="10.873471819092401"><ele>101.0</ele><time>2026-05-01T16:51:47.907Z</time></trkpt><trkpt lat="43.92876929795908" lon="10.873764255016392"><ele>98.0</ele><time>2026-05-01T16:51:48.907Z</time></trkpt><trkpt lat="43.92884976110966" lon="10.874084634429456"><ele>95.0</ele><time>2026-05-01T16:51:49.907Z</time></trkpt><trkpt lat="43.928954110874734" lon="10.874441435226192"><ele>94.0</ele><time>2026-05-01T16:51:50.907Z</time></trkpt><trkpt lat="43.92908352445504" lon="10.87480700796381"><ele>93.0</ele><time>2026-05-01T16:51:51.907Z</time></trkpt><trkpt lat="43.929212389296545" lon="10.875132005987922"><ele>95.5</ele><time>2026-05-01T16:51:52.907Z</time></trkpt><trkpt lat="43.92933701420172" lon="10.875408414966541"><ele>98.0</ele><time>2026-05-01T16:51:53.907Z</time></trkpt><trkpt lat="43.92945035119078" lon="10.875674782129751"><ele>98.0</ele><time>2026-05-01T16:51:54.907Z</time></trkpt><trkpt lat="43.92955916456666" lon="10.875919420534094"><ele>98.0</ele><time>2026-05-01T16:51:55.907Z</time></trkpt><trkpt lat="43.9296569650654" lon="10.876156085810933"><ele>98.0</ele><time>2026-05-01T16:51:56.907Z</time></trkpt><trkpt lat="43.92974746715178" lon="10.876406558971116"><ele>97.33333333333333</ele><time>2026-05-01T16:51:57.907Z</time></trkpt><trkpt lat="43.92984226678249" lon="10.876663275165477"><ele>96.66666666666666</ele><time>2026-05-01T16:51:58.907Z</time></trkpt><trkpt lat="43.929922068226304" lon="10.876925829398687"><ele>96.0</ele><time>2026-05-01T16:51:59.907Z</time></trkpt><trkpt lat="43.92998849250493" lon="10.877207013060513"><ele>96.0</ele><time>2026-05-01T16:52:00.907Z</time></trkpt><trkpt lat="43.93004748561668" lon="10.877499961091125"><ele>96.0</ele><time>2026-05-01T16:52:01.907Z</time></trkpt><trkpt lat="43.93009728345396" lon="10.87779686668921"><ele>96.0</ele><time>2026-05-01T16:52:02.907Z</time></trkpt><trkpt lat="43.93014749984988" lon="10.878089194861642"><ele>98.33333333333334</ele><time>2026-05-01T16:52:03.907Z</time></trkpt><trkpt lat="43.93019230553481" lon="10.87838513597929"><ele>100.66666666666667</ele><time>2026-05-01T16:52:04.907Z</time></trkpt><trkpt lat="43.930241967966495" lon="10.878686302034394"><ele>103.0</ele><time>2026-05-01T16:52:05.907Z</time></trkpt><trkpt lat="43.93028102483629" lon="10.878987497548383"><ele>102.0</ele><time>2026-05-01T16:52:06.907Z</time></trkpt><trkpt lat="43.93032063948571" lon="10.879283699340107"><ele>101.0</ele><time>2026-05-01T16:52:07.907Z</time></trkpt><trkpt lat="43.930360968206045" lon="10.879576024397524"><ele>100.0</ele><time>2026-05-01T16:52:08.907Z</time></trkpt><trkpt lat="43.93040273930844" lon="10.879866824303848"><ele>99.66666666666667</ele><time>2026-05-01T16:52:09.907Z</time></trkpt><trkpt lat="43.930442326387926" lon="10.880163570388298"><ele>99.33333333333334</ele><time>2026-05-01T16:52:10.907Z</time></trkpt><trkpt lat="43.9304864143545" lon="10.88046420606002"><ele>99.0</ele><time>2026-05-01T16:52:11.907Z</time></trkpt><trkpt lat="43.9305270507979" lon="10.88076430213784"><ele>99.0</ele><time>2026-05-01T16:52:12.907Z</time></trkpt><trkpt lat="43.930571200964636" lon="10.88106455987751"><ele>99.0</ele><time>2026-05-01T16:52:13.907Z</time></trkpt><trkpt lat="43.93061506848582" lon="10.88136512990374"><ele>99.0</ele><time>2026-05-01T16:52:14.907Z</time></trkpt><trkpt lat="43.93065645485046" lon="10.881663637139605"><ele>98.66666666666666</ele><time>2026-05-01T16:52:15.907Z</time></trkpt><trkpt lat="43.93069693325108" lon="10.881946886211926"><ele>98.33333333333333</ele><time>2026-05-01T16:52:16.907Z</time></trkpt><trkpt lat="43.93073854236004" lon="10.882232918378534"><ele>98.0</ele><time>2026-05-01T16:52:17.907Z</time></trkpt><trkpt lat="43.930774955481205" lon="10.882515597061465"><ele>97.33333333333333</ele><time>2026-05-01T16:52:18.907Z</time></trkpt><trkpt lat="43.93081305525715" lon="10.882789316141036"><ele>96.66666666666666</ele><time>2026-05-01T16:52:19.907Z</time></trkpt><trkpt lat="43.93085943028575" lon="10.883071513918118"><ele>96.0</ele><time>2026-05-01T16:52:20.907Z</time></trkpt><trkpt lat="43.93089550763605" lon="10.88335277710891"><ele>92.33333333333333</ele><time>2026-05-01T16:52:21.907Z</time></trkpt><trkpt lat="43.93093471666336" lon="10.883637058973692"><ele>88.66666666666666</ele><time>2026-05-01T16:52:22.907Z</time></trkpt><trkpt lat="43.93097683832493" lon="10.883926297162125"><ele>85.0</ele><time>2026-05-01T16:52:23.907Z</time></trkpt><trkpt lat="43.931021728947705" lon="10.884240402116632"><ele>84.66666666666666</ele><time>2026-05-01T16:52:24.907Z</time></trkpt><trkpt lat="43.93105906082843" lon="10.88453623681992"><ele>84.33333333333333</ele><time>2026-05-01T16:52:25.907Z</time></trkpt><trkpt lat="43.9310968599234" lon="10.884821120174834"><ele>84.0</ele><time>2026-05-01T16:52:26.907Z</time></trkpt><trkpt lat="43.93113114233999" lon="10.885089036982887"><ele>82.66666666666667</ele><time>2026-05-01T16:52:27.907Z</time></trkpt><trkpt lat="43.931158619959994" lon="10.885360912338555"><ele>81.33333333333334</ele><time>2026-05-01T16:52:28.907Z</time></trkpt><trkpt lat="43.93119891263686" lon="10.885622876875987"><ele>80.0</ele><time>2026-05-01T16:52:29.907Z</time></trkpt><trkpt lat="43.9312386381344" lon="10.885878725589762"><ele>78.0</ele><time>2026-05-01T16:52:30.907Z</time></trkpt><trkpt lat="43.931278940953895" lon="10.886123461224582"><ele>76.0</ele><time>2026-05-01T16:52:31.908Z</time></trkpt><trkpt lat="43.931310651440405" lon="10.886363184621738"><ele>74.0</ele><time>2026-05-01T16:52:32.908Z</time></trkpt><trkpt lat="43.931346666928405" lon="10.886591812862399"><ele>73.66666666666667</ele><time>2026-05-01T16:52:33.908Z</time></trkpt><trkpt lat="43.931380004005604" lon="10.886826271274515"><ele>73.33333333333333</ele><time>2026-05-01T16:52:34.908Z</time></trkpt><trkpt lat="43.931413574748674" lon="10.887063934561814"><ele>73.0</ele><time>2026-05-01T16:52:35.908Z</time></trkpt><trkpt lat="43.93144541774263" lon="10.887302248755445"><ele>73.0</ele><time>2026-05-01T16:52:36.908Z</time></trkpt><trkpt lat="43.93147660869462" lon="10.88752868681367"><ele>73.0</ele><time>2026-05-01T16:52:37.908Z</time></trkpt><trkpt lat="43.93150843093152" lon="10.887744807002147"><ele>73.0</ele><time>2026-05-01T16:52:38.908Z</time></trkpt><trkpt lat="43.93154635373184" lon="10.887971593145785"><ele>73.0</ele><time>2026-05-01T16:52:39.908Z</time></trkpt><trkpt lat="43.93158326400354" lon="10.88820880213464"><ele>73.0</ele><time>2026-05-01T16:52:40.908Z</time></trkpt><trkpt lat="43.93161520340891" lon="10.888451958084437"><ele>73.0</ele><time>2026-05-01T16:52:41.908Z</time></trkpt><trkpt lat="43.9316502139651" lon="10.888694991222904"><ele>73.0</ele><time>2026-05-01T16:52:42.908Z</time></trkpt><trkpt lat="43.931682345719786" lon="10.888927450975046"><ele>73.0</ele><time>2026-05-01T16:52:43.908Z</time></trkpt><trkpt lat="43.93171636654724" lon="10.889162349604252"><ele>73.0</ele><time>2026-05-01T16:52:44.908Z</time></trkpt><trkpt lat="43.93174720998978" lon="10.889396932086543"><ele>72.66666666666666</ele><time>2026-05-01T16:52:45.908Z</time></trkpt><trkpt lat="43.93177787868672" lon="10.889636112752584"><ele>72.33333333333333</ele><time>2026-05-01T16:52:46.908Z</time></trkpt><trkpt lat="43.93180583583979" lon="10.889878121217604"><ele>72.0</ele><time>2026-05-01T16:52:47.908Z</time></trkpt><trkpt lat="43.93183284173349" lon="10.890123021628865"><ele>72.0</ele><time>2026-05-01T16:52:48.908Z</time></trkpt><trkpt lat="43.931856881595635" lon="10.890348565651482"><ele>72.0</ele><time>2026-05-01T16:52:49.908Z</time></trkpt><trkpt lat="43.931878783956" lon="10.890552413707734"><ele>72.0</ele><time>2026-05-01T16:52:50.908Z</time></trkpt><trkpt lat="43.93189486572833" lon="10.890730590441956"><ele>72.0</ele><time>2026-05-01T16:52:51.908Z</time></trkpt><trkpt lat="43.93189596182551" lon="10.890880989385098"><ele>72.0</ele><time>2026-05-01T16:52:52.908Z</time></trkpt><trkpt lat="43.93187396452599" lon="10.891012750325327"><ele>72.0</ele><time>2026-05-01T16:52:53.908Z</time></trkpt><trkpt lat="43.93181582690403" lon="10.891121641350713"><ele>72.0</ele><time>2026-05-01T16:52:54.908Z</time></trkpt><trkpt lat="43.93173055427829" lon="10.891186295655524"><ele>72.0</ele><time>2026-05-01T16:52:55.908Z</time></trkpt><trkpt lat="43.93162943258305" lon="10.89122336928288"><ele>72.0</ele><time>2026-05-01T16:52:56.908Z</time></trkpt><trkpt lat="43.931518705460384" lon="10.891259747379832"><ele>72.25</ele><time>2026-05-01T16:52:57.908Z</time></trkpt><trkpt lat="43.93142447446879" lon="10.891330110400547"><ele>72.5</ele><time>2026-05-01T16:52:58.908Z</time></trkpt><trkpt lat="43.93137140844055" lon="10.891460194773448"><ele>72.75</ele><time>2026-05-01T16:52:59.908Z</time></trkpt><trkpt lat="43.93132982435305" lon="10.89162082715859"><ele>73.0</ele><time>2026-05-01T16:53:00.908Z</time></trkpt><trkpt lat="43.931304859077784" lon="10.8918290130332"><ele>73.0</ele><time>2026-05-01T16:53:01.908Z</time></trkpt><trkpt lat="43.93129138778975" lon="10.892111258953792"><ele>73.0</ele><time>2026-05-01T16:53:02.908Z</time></trkpt><trkpt lat="43.931266555688225" lon="10.892388176183008"><ele>73.0</ele><time>2026-05-01T16:53:03.908Z</time></trkpt><trkpt lat="43.931243651789416" lon="10.892602135607833"><ele>72.8</ele><time>2026-05-01T16:53:04.908Z</time></trkpt><trkpt lat="43.931223505259624" lon="10.892759926283214"><ele>72.6</ele><time>2026-05-01T16:53:05.908Z</time></trkpt><trkpt lat="43.93119737156087" lon="10.892890103963849"><ele>72.4</ele><time>2026-05-01T16:53:06.908Z</time></trkpt><trkpt lat="43.93115579740107" lon="10.893010878650319"><ele>72.2</ele><time>2026-05-01T16:53:07.908Z</time></trkpt><trkpt lat="43.9310935425992" lon="10.893113055656961"><ele>72.0</ele><time>2026-05-01T16:53:08.908Z</time></trkpt><trkpt lat="43.9309913300887" lon="10.893203003080739"><ele>71.66666666666667</ele><time>2026-05-01T16:53:09.908Z</time></trkpt><trkpt lat="43.930868451689975" lon="10.893257259805827"><ele>71.33333333333334</ele><time>2026-05-01T16:53:10.908Z</time></trkpt><trkpt lat="43.930713006364535" lon="10.893277809827055"><ele>71.0</ele><time>2026-05-01T16:53:11.908Z</time></trkpt><trkpt lat="43.930507098545306" lon="10.89327447301728"><ele>71.0</ele><time>2026-05-01T16:53:12.908Z</time></trkpt><trkpt lat="43.93024662206499" lon="10.893287055616048"><ele>71.0</ele><time>2026-05-01T16:53:13.908Z</time></trkpt><trkpt lat="43.93002059930701" lon="10.893290164602844"><ele>70.66666666666667</ele><time>2026-05-01T16:53:14.908Z</time></trkpt><trkpt lat="43.929804247604004" lon="10.893296639589511"><ele>70.33333333333333</ele><time>2026-05-01T16:53:15.908Z</time></trkpt><trkpt lat="43.9295797644849" lon="10.893295034597031"><ele>70.0</ele><time>2026-05-01T16:53:16.908Z</time></trkpt><trkpt lat="43.92938822394182" lon="10.89334061581652"><ele>69.66666666666666</ele><time>2026-05-01T16:53:17.908Z</time></trkpt><trkpt lat="43.929169141000344" lon="10.893366137909723"><ele>69.33333333333333</ele><time>2026-05-01T16:53:18.908Z</time></trkpt><trkpt lat="43.928950803550755" lon="10.89340574610355"><ele>69.0</ele><time>2026-05-01T16:53:19.908Z</time></trkpt><trkpt lat="43.92873701602142" lon="10.89346380752678"><ele>69.0</ele><time>2026-05-01T16:53:20.908Z</time></trkpt><trkpt lat="43.92852816296089" lon="10.893526825609806"><ele>69.0</ele><time>2026-05-01T16:53:21.908Z</time></trkpt><trkpt lat="43.92831431308968" lon="10.893602603324817"><ele>69.0</ele><time>2026-05-01T16:53:22.908Z</time></trkpt><trkpt lat="43.92810079228101" lon="10.893693563914498"><ele>68.66666666666667</ele><time>2026-05-01T16:53:23.908Z</time></trkpt><trkpt lat="43.927889426937426" lon="10.893802100564034"><ele>68.33333333333334</ele><time>2026-05-01T16:53:24.908Z</time></trkpt><trkpt lat="43.92768068813789" lon="10.893913978158762"><ele>68.0</ele><time>2026-05-01T16:53:25.908Z</time></trkpt><trkpt lat="43.92747657807952" lon="10.8940411369971"><ele>68.0</ele><time>2026-05-01T16:53:26.908Z</time></trkpt><trkpt lat="43.92727814990123" lon="10.894184263473209"><ele>68.0</ele><time>2026-05-01T16:53:27.908Z</time></trkpt><trkpt lat="43.92708929465913" lon="10.894337193978718"><ele>68.0</ele><time>2026-05-01T16:53:28.908Z</time></trkpt><trkpt lat="43.92690328066461" lon="10.894491399030217"><ele>68.0</ele><time>2026-05-01T16:53:29.908Z</time></trkpt><trkpt lat="43.9267242571449" lon="10.894659208381427"><ele>68.0</ele><time>2026-05-01T16:53:30.908Z</time></trkpt><trkpt lat="43.92655462349811" lon="10.894837225686514"><ele>68.0</ele><time>2026-05-01T16:53:31.908Z</time></trkpt><trkpt lat="43.92638737471313" lon="10.895020434759028"><ele>68.0</ele><time>2026-05-01T16:53:32.908Z</time></trkpt><trkpt lat="43.92621590007896" lon="10.895198139965547"><ele>68.0</ele><time>2026-05-01T16:53:33.908Z</time></trkpt><trkpt lat="43.92603913412608" lon="10.895376083182953"><ele>68.0</ele><time>2026-05-01T16:53:34.908Z</time></trkpt><trkpt lat="43.92586129739139" lon="10.895551397383915"><ele>68.0</ele><time>2026-05-01T16:53:35.908Z</time></trkpt><trkpt lat="43.92568813711395" lon="10.895725012200444"><ele>68.0</ele><time>2026-05-01T16:53:36.908Z</time></trkpt><trkpt lat="43.9255164000798" lon="10.895902329303835"><ele>68.0</ele><time>2026-05-01T16:53:37.908Z</time></trkpt><trkpt lat="43.92534565765897" lon="10.896080744321733"><ele>68.0</ele><time>2026-05-01T16:53:38.908Z</time></trkpt><trkpt lat="43.92517837260241" lon="10.896263357847483"><ele>68.0</ele><time>2026-05-01T16:53:39.908Z</time></trkpt><trkpt lat="43.92500552462852" lon="10.896447116322003"><ele>68.0</ele><time>2026-05-01T16:53:40.908Z</time></trkpt><trkpt lat="43.92482469350273" lon="10.896635751421089"><ele>67.0</ele><time>2026-05-01T16:53:41.908Z</time></trkpt><trkpt lat="43.92464204579537" lon="10.896821627024108"><ele>66.0</ele><time>2026-05-01T16:53:42.908Z</time></trkpt><trkpt lat="43.92445341477671" lon="10.89700694369314"><ele>66.0</ele><time>2026-05-01T16:53:43.908Z</time></trkpt><trkpt lat="43.92426369501795" lon="10.897193393797505"><ele>66.0</ele><time>2026-05-01T16:53:44.908Z</time></trkpt><trkpt lat="43.92407442731708" lon="10.897379182813902"><ele>66.0</ele><time>2026-05-01T16:53:45.908Z</time></trkpt><trkpt lat="43.92388524202754" lon="10.8975618759045"><ele>66.0</ele><time>2026-05-01T16:53:46.908Z</time></trkpt><trkpt lat="43.92369496894882" lon="10.89775360566925"><ele>66.0</ele><time>2026-05-01T16:53:47.908Z</time></trkpt><trkpt lat="43.92350310053193" lon="10.89795046633018"><ele>66.0</ele><time>2026-05-01T16:53:48.908Z</time></trkpt><trkpt lat="43.92330736960452" lon="10.898138591844923"><ele>64.5</ele><time>2026-05-01T16:53:49.908Z</time></trkpt><trkpt lat="43.92312133740853" lon="10.898330746763103"><ele>63.0</ele><time>2026-05-01T16:53:50.908Z</time></trkpt><trkpt lat="43.922944025048636" lon="10.898515992311507"><ele>63.0</ele><time>2026-05-01T16:53:51.908Z</time></trkpt><trkpt lat="43.922756066727985" lon="10.898698263350363"><ele>63.0</ele><time>2026-05-01T16:53:52.908Z</time></trkpt><trkpt lat="43.922569083232275" lon="10.8988877285247"><ele>63.0</ele><time>2026-05-01T16:53:53.908Z</time></trkpt><trkpt lat="43.922380375546545" lon="10.899080288104901"><ele>63.0</ele><time>2026-05-01T16:53:54.908Z</time></trkpt><trkpt lat="43.92219663848132" lon="10.89926667325534"><ele>62.66666666666667</ele><time>2026-05-01T16:53:55.908Z</time></trkpt><trkpt lat="43.92203333441652" lon="10.899456715035425"><ele>62.333333333333336</ele><time>2026-05-01T16:53:56.908Z</time></trkpt><trkpt lat="43.92186411193477" lon="10.899652994259288"><ele>62.0</ele><time>2026-05-01T16:53:57.908Z</time></trkpt><trkpt lat="43.92170367539627" lon="10.899886868163549"><ele>63.0</ele><time>2026-05-01T16:53:58.908Z</time></trkpt><trkpt lat="43.92154946516877" lon="10.90013756507792"><ele>64.0</ele><time>2026-05-01T16:53:59.908Z</time></trkpt><trkpt lat="43.921383629958704" lon="10.900428996127872"><ele>64.0</ele><time>2026-05-01T16:54:00.908Z</time></trkpt><trkpt lat="43.92121409107421" lon="10.90075504639115"><ele>64.0</ele><time>2026-05-01T16:54:01.908Z</time></trkpt><trkpt lat="43.921067242090324" lon="10.901084286423771"><ele>64.5</ele><time>2026-05-01T16:54:02.908Z</time></trkpt><trkpt lat="43.92094849428542" lon="10.901392065847409"><ele>65.0</ele><time>2026-05-01T16:54:03.908Z</time></trkpt><trkpt lat="43.92085002891536" lon="10.901696999469694"><ele>63.0</ele><time>2026-05-01T16:54:04.908Z</time></trkpt><trkpt lat="43.92075641828718" lon="10.902014479355811"><ele>61.0</ele><time>2026-05-01T16:54:05.908Z</time></trkpt><trkpt lat="43.92068663260771" lon="10.902337528260471"><ele>61.5</ele><time>2026-05-01T16:54:06.908Z</time></trkpt><trkpt lat="43.92061779988745" lon="10.902672392225572"><ele>62.0</ele><time>2026-05-01T16:54:07.908Z</time></trkpt><trkpt lat="43.920565521586774" lon="10.903003479623132"><ele>62.0</ele><time>2026-05-01T16:54:08.908Z</time></trkpt><trkpt lat="43.92052796690234" lon="10.903333009360384"><ele>62.0</ele><time>2026-05-01T16:54:09.908Z</time></trkpt><trkpt lat="43.92050412935491" lon="10.903653106544677"><ele>63.0</ele><time>2026-05-01T16:54:10.908Z</time></trkpt><trkpt lat="43.92049305520507" lon="10.903946980898692"><ele>64.0</ele><time>2026-05-01T16:54:11.908Z</time></trkpt><trkpt lat="43.92049253431654" lon="10.904220490186146"><ele>65.0</ele><time>2026-05-01T16:54:12.908Z</time></trkpt><trkpt lat="43.92049800720871" lon="10.904494434373445"><ele>65.0</ele><time>2026-05-01T16:54:13.908Z</time></trkpt><trkpt lat="43.9205050519765" lon="10.904770369976733"><ele>65.0</ele><time>2026-05-01T16:54:14.909Z</time></trkpt><trkpt lat="43.920515872420836" lon="10.905061479426866"><ele>65.0</ele><time>2026-05-01T16:54:15.909Z</time></trkpt><trkpt lat="43.9205287735079" lon="10.905360327541185"><ele>65.0</ele><time>2026-05-01T16:54:16.909Z</time></trkpt><trkpt lat="43.92054575307678" lon="10.905667081520216"><ele>65.0</ele><time>2026-05-01T16:54:17.909Z</time></trkpt><trkpt lat="43.92056385530942" lon="10.905978275366941"><ele>65.0</ele><time>2026-05-01T16:54:18.909Z</time></trkpt><trkpt lat="43.92058298004759" lon="10.906291335812305"><ele>64.0</ele><time>2026-05-01T16:54:19.909Z</time></trkpt><trkpt lat="43.920602546752086" lon="10.906609128713702"><ele>63.0</ele><time>2026-05-01T16:54:20.909Z</time></trkpt><trkpt lat="43.920623755641046" lon="10.906930643949122"><ele>63.0</ele><time>2026-05-01T16:54:21.909Z</time></trkpt><trkpt lat="43.92064449701569" lon="10.907258357803709"><ele>63.0</ele><time>2026-05-01T16:54:22.909Z</time></trkpt><trkpt lat="43.92066401648309" lon="10.90758857221612"><ele>63.33333333333333</ele><time>2026-05-01T16:54:23.909Z</time></trkpt><trkpt lat="43.9206807033547" lon="10.907908512560496"><ele>63.666666666666664</ele><time>2026-05-01T16:54:24.909Z</time></trkpt><trkpt lat="43.92069571952478" lon="10.908206716491236"><ele>64.0</ele><time>2026-05-01T16:54:25.909Z</time></trkpt><trkpt lat="43.92071608887031" lon="10.908490279507069"><ele>63.0</ele><time>2026-05-01T16:54:26.909Z</time></trkpt><trkpt lat="43.92073321685906" lon="10.908762050984096"><ele>62.0</ele><time>2026-05-01T16:54:27.909Z</time></trkpt><trkpt lat="43.920745660945926" lon="10.909031879710648"><ele>61.0</ele><time>2026-05-01T16:54:28.909Z</time></trkpt><trkpt lat="43.920759339578126" lon="10.909310468795404"><ele>60.33333333333333</ele><time>2026-05-01T16:54:29.909Z</time></trkpt><trkpt lat="43.920772855924" lon="10.909585739871392"><ele>59.66666666666667</ele><time>2026-05-01T16:54:30.909Z</time></trkpt><trkpt lat="43.92078838744824" lon="10.909857445061064"><ele>59.0</ele><time>2026-05-01T16:54:31.909Z</time></trkpt><trkpt lat="43.920804564338354" lon="10.910134356177439"><ele>59.0</ele><time>2026-05-01T16:54:32.909Z</time></trkpt><trkpt lat="43.92082237142451" lon="10.910401760683122"><ele>59.0</ele><time>2026-05-01T16:54:33.909Z</time></trkpt><trkpt lat="43.920839964769236" lon="10.91067953530455"><ele>59.0</ele><time>2026-05-01T16:54:34.909Z</time></trkpt><trkpt lat="43.920855141088765" lon="10.910950672729662"><ele>59.333333333333336</ele><time>2026-05-01T16:54:35.909Z</time></trkpt><trkpt lat="43.9208680078712" lon="10.911222870499556"><ele>59.66666666666667</ele><time>2026-05-01T16:54:36.909Z</time></trkpt><trkpt lat="43.92088252421516" lon="10.911499431883014"><ele>60.0</ele><time>2026-05-01T16:54:37.909Z</time></trkpt><trkpt lat="43.920898663990606" lon="10.911774864915671"><ele>60.33333333333333</ele><time>2026-05-01T16:54:38.909Z</time></trkpt><trkpt lat="43.92092346984228" lon="10.912061111530273"><ele>60.666666666666664</ele><time>2026-05-01T16:54:39.909Z</time></trkpt><trkpt lat="43.92095079253318" lon="10.91233827314675"><ele>61.0</ele><time>2026-05-01T16:54:40.909Z</time></trkpt><trkpt lat="43.920979622232664" lon="10.912624200391638"><ele>61.0</ele><time>2026-05-01T16:54:41.909Z</time></trkpt><trkpt lat="43.921027962909335" lon="10.912914840403095"><ele>61.0</ele><time>2026-05-01T16:54:42.909Z</time></trkpt><trkpt lat="43.921080553882334" lon="10.91326634408436"><ele>60.0</ele><time>2026-05-01T16:54:43.909Z</time></trkpt><trkpt lat="43.92113635317034" lon="10.913647257621957"><ele>59.0</ele><time>2026-05-01T16:54:44.909Z</time></trkpt><trkpt lat="43.92118758909187" lon="10.914028682151155"><ele>59.0</ele><time>2026-05-01T16:54:45.909Z</time></trkpt><trkpt lat="43.921242393943395" lon="10.914373685720696"><ele>59.0</ele><time>2026-05-01T16:54:46.909Z</time></trkpt><trkpt lat="43.921285639506145" lon="10.914698536846066"><ele>59.0</ele><time>2026-05-01T16:54:47.909Z</time></trkpt><trkpt lat="43.921337212893086" lon="10.915004117692229"><ele>59.0</ele><time>2026-05-01T16:54:48.909Z</time></trkpt><trkpt lat="43.92138296142591" lon="10.915284057389949"><ele>59.0</ele><time>2026-05-01T16:54:49.909Z</time></trkpt><trkpt lat="43.92143290405575" lon="10.915558566050862"><ele>58.66666666666667</ele><time>2026-05-01T16:54:50.909Z</time></trkpt><trkpt lat="43.921475062536345" lon="10.915822557604603"><ele>58.33333333333333</ele><time>2026-05-01T16:54:51.909Z</time></trkpt><trkpt lat="43.92151144238127" lon="10.916067009622909"><ele>58.0</ele><time>2026-05-01T16:54:52.909Z</time></trkpt><trkpt lat="43.92154554601916" lon="10.916298473314034"><ele>58.0</ele><time>2026-05-01T16:54:53.909Z</time></trkpt><trkpt lat="43.9215807491838" lon="10.91652681473108"><ele>58.0</ele><time>2026-05-01T16:54:54.909Z</time></trkpt><trkpt lat="43.92161741096855" lon="10.916742155751272"><ele>58.0</ele><time>2026-05-01T16:54:55.909Z</time></trkpt><trkpt lat="43.92164904512479" lon="10.916945643936478"><ele>58.25</ele><time>2026-05-01T16:54:56.909Z</time></trkpt><trkpt lat="43.92166194334098" lon="10.917119708942218"><ele>58.5</ele><time>2026-05-01T16:54:57.909Z</time></trkpt><trkpt lat="43.92164783342756" lon="10.917285851450544"><ele>58.75</ele><time>2026-05-01T16:54:58.909Z</time></trkpt><trkpt lat="43.92159455601582" lon="10.917429640322615"><ele>59.0</ele><time>2026-05-01T16:54:59.909Z</time></trkpt><trkpt lat="43.92151833476834" lon="10.917574934105852"><ele>58.400000000000006</ele><time>2026-05-01T16:55:00.909Z</time></trkpt><trkpt lat="43.921441665610814" lon="10.917710113539803"><ele>57.800000000000004</ele><time>2026-05-01T16:55:01.909Z</time></trkpt><trkpt lat="43.921393974346756" lon="10.917855248331524"><ele>57.199999999999996</ele><time>2026-05-01T16:55:02.909Z</time></trkpt><trkpt lat="43.921386769213704" lon="10.917998825547901"><ele>56.599999999999994</ele><time>2026-05-01T16:55:03.909Z</time></trkpt><trkpt lat="43.921425060478" lon="10.918125846048627"><ele>56.0</ele><time>2026-05-01T16:55:04.909Z</time></trkpt><trkpt lat="43.92150582681039" lon="10.918217725495506"><ele>56.0</ele><time>2026-05-01T16:55:05.909Z</time></trkpt><trkpt lat="43.921618173803516" lon="10.918299419664441"><ele>56.0</ele><time>2026-05-01T16:55:06.909Z</time></trkpt><trkpt lat="43.9217516186613" lon="10.918398592315395"><ele>56.0</ele><time>2026-05-01T16:55:07.909Z</time></trkpt><trkpt lat="43.921870458380106" lon="10.91857046986335"><ele>56.333333333333336</ele><time>2026-05-01T16:55:08.909Z</time></trkpt><trkpt lat="43.92194887994062" lon="10.918770250692598"><ele>56.66666666666667</ele><time>2026-05-01T16:55:09.909Z</time></trkpt><trkpt lat="43.922006023681725" lon="10.918996818908818"><ele>57.0</ele><time>2026-05-01T16:55:10.909Z</time></trkpt><trkpt lat="43.92200622117907" lon="10.919253522000322"><ele>57.0</ele><time>2026-05-01T16:55:11.909Z</time></trkpt><trkpt lat="43.922007427139945" lon="10.91950667184746"><ele>57.0</ele><time>2026-05-01T16:55:12.909Z</time></trkpt><trkpt lat="43.922021136530056" lon="10.91973314842473"><ele>57.0</ele><time>2026-05-01T16:55:13.909Z</time></trkpt><trkpt lat="43.92203648508861" lon="10.91996320370235"><ele>56.66666666666667</ele><time>2026-05-01T16:55:14.909Z</time></trkpt><trkpt lat="43.92205370998238" lon="10.920198286782671"><ele>56.333333333333336</ele><time>2026-05-01T16:55:15.909Z</time></trkpt><trkpt lat="43.9220727356647" lon="10.920438157688093"><ele>56.0</ele><time>2026-05-01T16:55:16.909Z</time></trkpt><trkpt lat="43.92209827221635" lon="10.92067984422182"><ele>56.0</ele><time>2026-05-01T16:55:17.909Z</time></trkpt><trkpt lat="43.92212578039165" lon="10.920925781468496"><ele>56.0</ele><time>2026-05-01T16:55:18.909Z</time></trkpt><trkpt lat="43.922154940395664" lon="10.921165059789683"><ele>56.0</ele><time>2026-05-01T16:55:19.909Z</time></trkpt><trkpt lat="43.922184141833704" lon="10.921401886312044"><ele>56.0</ele><time>2026-05-01T16:55:20.909Z</time></trkpt><trkpt lat="43.92220969881359" lon="10.921613579419128"><ele>56.0</ele><time>2026-05-01T16:55:21.91Z</time></trkpt><trkpt lat="43.922239503327695" lon="10.921816193458163"><ele>56.0</ele><time>2026-05-01T16:55:22.909Z</time></trkpt><trkpt lat="43.92227672383553" lon="10.922017833958332"><ele>56.0</ele><time>2026-05-01T16:55:23.909Z</time></trkpt><trkpt lat="43.92231431718302" lon="10.922223061655538"><ele>56.0</ele><time>2026-05-01T16:55:24.909Z</time></trkpt><trkpt lat="43.92234907087941" lon="10.9224034358748"><ele>56.0</ele><time>2026-05-01T16:55:25.909Z</time></trkpt><trkpt lat="43.922386494051835" lon="10.9225594273354"><ele>56.0</ele><time>2026-05-01T16:55:26.909Z</time></trkpt><trkpt lat="43.92242274334327" lon="10.922707633549962"><ele>56.16666666666667</ele><time>2026-05-01T16:55:27.909Z</time></trkpt><trkpt lat="43.92245919793263" lon="10.922837298392427"><ele>56.333333333333336</ele><time>2026-05-01T16:55:28.91Z</time></trkpt><trkpt lat="43.9224906657377" lon="10.922958815559706"><ele>56.5</ele><time>2026-05-01T16:55:29.91Z</time></trkpt><trkpt lat="43.92251919857266" lon="10.92307677452791"><ele>56.66666666666667</ele><time>2026-05-01T16:55:30.909Z</time></trkpt><trkpt lat="43.922543177876776" lon="10.923182015185018"><ele>56.833333333333336</ele><time>2026-05-01T16:55:31.91Z</time></trkpt><trkpt lat="43.92257336798481" lon="10.923281924934345"><ele>57.0</ele><time>2026-05-01T16:55:32.91Z</time></trkpt><trkpt lat="43.922606220129566" lon="10.923380406394571"><ele>56.833333333333336</ele><time>2026-05-01T16:55:33.91Z</time></trkpt><trkpt lat="43.922638382359345" lon="10.923486612768563"><ele>56.66666666666667</ele><time>2026-05-01T16:55:34.909Z</time></trkpt><trkpt lat="43.92267142084829" lon="10.923603380720754"><ele>56.5</ele><time>2026-05-01T16:55:35.909Z</time></trkpt><trkpt lat="43.92270471336799" lon="10.923718288626358"><ele>56.333333333333336</ele><time>2026-05-01T16:55:36.909Z</time></trkpt><trkpt lat="43.922734307405" lon="10.923827058325902"><ele>56.16666666666667</ele><time>2026-05-01T16:55:37.91Z</time></trkpt><trkpt lat="43.922763968676044" lon="10.92392182083551"><ele>56.0</ele><time>2026-05-01T16:55:38.912Z</time></trkpt><trkpt lat="43.92279728593604" lon="10.924031260029361"><ele>56.0</ele><time>2026-05-01T16:55:39.914Z</time></trkpt><trkpt lat="43.922839613232576" lon="10.924166559703856"><ele>56.0</ele><time>2026-05-01T16:55:40.915Z</time></trkpt><trkpt lat="43.922888059602265" lon="10.924331736322454"><ele>56.0</ele><time>2026-05-01T16:55:41.917Z</time></trkpt><trkpt lat="43.9229306650944" lon="10.924501690778847"><ele>56.0</ele><time>2026-05-01T16:55:42.918Z</time></trkpt><trkpt lat="43.92297289811002" lon="10.924666585328046"><ele>56.0</ele><time>2026-05-01T16:55:43.919Z</time></trkpt><trkpt lat="43.92302011449885" lon="10.92483572519457"><ele>56.0</ele><time>2026-05-01T16:55:44.921Z</time></trkpt><trkpt lat="43.923074935543845" lon="10.92502908735375"><ele>56.0</ele><time>2026-05-01T16:55:45.922Z</time></trkpt><trkpt lat="43.92313499645023" lon="10.9252385203786"><ele>56.0</ele><time>2026-05-01T16:55:46.923Z</time></trkpt><trkpt lat="43.92319081978985" lon="10.925435457540988"><ele>56.0</ele><time>2026-05-01T16:55:47.924Z</time></trkpt><trkpt lat="43.923242089398414" lon="10.925609834416294"><ele>56.0</ele><time>2026-05-01T16:55:48.925Z</time></trkpt><trkpt lat="43.92328625319472" lon="10.925778420538768"><ele>56.0</ele><time>2026-05-01T16:55:49.926Z</time></trkpt><trkpt lat="43.92333243550199" lon="10.925959810652424"><ele>56.0</ele><time>2026-05-01T16:55:50.927Z</time></trkpt><trkpt lat="43.923372500623636" lon="10.926131424200193"><ele>55.8</ele><time>2026-05-01T16:55:51.928Z</time></trkpt><trkpt lat="43.92339914879332" lon="10.926270048922278"><ele>55.599999999999994</ele><time>2026-05-01T16:55:52.928Z</time></trkpt><trkpt lat="43.92340940498823" lon="10.9263913717431"><ele>55.4</ele><time>2026-05-01T16:55:53.929Z</time></trkpt><trkpt lat="43.92340412724634" lon="10.926510993995658"><ele>55.2</ele><time>2026-05-01T16:55:54.93Z</time></trkpt><trkpt lat="43.9233919342481" lon="10.926623863793123"><ele>55.0</ele><time>2026-05-01T16:55:55.93Z</time></trkpt><trkpt lat="43.923367683311156" lon="10.926748193036467"><ele>54.666666666666664</ele><time>2026-05-01T16:55:56.931Z</time></trkpt><trkpt lat="43.92335711052151" lon="10.926868574326644"><ele>54.33333333333333</ele><time>2026-05-01T16:55:57.931Z</time></trkpt><trkpt lat="43.92336325729615" lon="10.92697918404068"><ele>54.0</ele><time>2026-05-01T16:55:58.932Z</time></trkpt><trkpt lat="43.92339104459334" lon="10.927073982146172"><ele>53.66666666666667</ele><time>2026-05-01T16:55:59.932Z</time></trkpt><trkpt lat="43.923442286650115" lon="10.927159578604973"><ele>53.333333333333336</ele><time>2026-05-01T16:56:00.933Z</time></trkpt><trkpt lat="43.92352267305462" lon="10.927277224108805"><ele>53.0</ele><time>2026-05-01T16:56:01.933Z</time></trkpt><trkpt lat="43.92359891524032" lon="10.927447105106877"><ele>52.66666666666667</ele><time>2026-05-01T16:56:02.934Z</time></trkpt><trkpt lat="43.92364511514362" lon="10.92762775476875"><ele>52.33333333333333</ele><time>2026-05-01T16:56:03.934Z</time></trkpt><trkpt lat="43.923683686261555" lon="10.927840126945412"><ele>52.0</ele><time>2026-05-01T16:56:04.935Z</time></trkpt><trkpt lat="43.92370219926843" lon="10.928058675655612"><ele>52.0</ele><time>2026-05-01T16:56:05.935Z</time></trkpt><trkpt lat="43.92369580963817" lon="10.928253847506237"><ele>52.0</ele><time>2026-05-01T16:56:06.935Z</time></trkpt><trkpt lat="43.92370182709904" lon="10.928444513908651"><ele>52.0</ele><time>2026-05-01T16:56:07.935Z</time></trkpt><trkpt lat="43.92371675095689" lon="10.92863744206256"><ele>52.0</ele><time>2026-05-01T16:56:08.936Z</time></trkpt><trkpt lat="43.92371294910694" lon="10.92883064137039"><ele>52.0</ele><time>2026-05-01T16:56:09.936Z</time></trkpt><trkpt lat="43.92370556691759" lon="10.929028002099445"><ele>52.0</ele><time>2026-05-01T16:56:10.936Z</time></trkpt><trkpt lat="43.92370173019699" lon="10.92921059570938"><ele>52.0</ele><time>2026-05-01T16:56:11.936Z</time></trkpt><trkpt lat="43.92369195109657" lon="10.929391645890043"><ele>52.0</ele><time>2026-05-01T16:56:12.937Z</time></trkpt><trkpt lat="43.923685853808074" lon="10.929578489237056"><ele>52.5</ele><time>2026-05-01T16:56:13.937Z</time></trkpt><trkpt lat="43.92368555339057" lon="10.929771605966142"><ele>53.0</ele><time>2026-05-01T16:56:14.937Z</time></trkpt><trkpt lat="43.923687831696625" lon="10.929957432313726"><ele>53.5</ele><time>2026-05-01T16:56:15.937Z</time></trkpt><trkpt lat="43.92367244536558" lon="10.930141043047477"><ele>54.0</ele><time>2026-05-01T16:56:16.937Z</time></trkpt><trkpt lat="43.92366460173956" lon="10.930316569918794"><ele>54.0</ele><time>2026-05-01T16:56:17.938Z</time></trkpt><trkpt lat="43.92365542588822" lon="10.93048505423116"><ele>54.0</ele><time>2026-05-01T16:56:18.938Z</time></trkpt><trkpt lat="43.92364692049977" lon="10.93064941069775"><ele>54.0</ele><time>2026-05-01T16:56:19.938Z</time></trkpt><trkpt lat="43.92364204982633" lon="10.930804227048565"><ele>54.0</ele><time>2026-05-01T16:56:20.938Z</time></trkpt><trkpt lat="43.92364011210036" lon="10.930965073626584"><ele>53.800000000000004</ele><time>2026-05-01T16:56:21.938Z</time></trkpt><trkpt lat="43.9236354673325" lon="10.931125721795162"><ele>53.60000000000001</ele><time>2026-05-01T16:56:22.938Z</time></trkpt><trkpt lat="43.923626909638585" lon="10.931260802674517"><ele>53.4</ele><time>2026-05-01T16:56:23.938Z</time></trkpt><trkpt lat="43.92361836283253" lon="10.931379751895644"><ele>53.2</ele><time>2026-05-01T16:56:24.939Z</time></trkpt><trkpt lat="43.92360770089029" lon="10.931485491787534"><ele>53.0</ele><time>2026-05-01T16:56:25.939Z</time></trkpt><trkpt lat="43.92356967638326" lon="10.931618468524896"><ele>53.0</ele><time>2026-05-01T16:56:27.939Z</time></trkpt><trkpt lat="43.923528056957494" lon="10.931701977329134"><ele>53.0</ele><time>2026-05-01T16:56:28.939Z</time></trkpt><trkpt lat="43.923457952809386" lon="10.931791968236295"><ele>53.0</ele><time>2026-05-01T16:56:29.939Z</time></trkpt><trkpt lat="43.92334826743124" lon="10.931880520245738"><ele>53.0</ele><time>2026-05-01T16:56:30.939Z</time></trkpt><trkpt lat="43.92323801710205" lon="10.931948243986906"><ele>53.0</ele><time>2026-05-01T16:56:31.939Z</time></trkpt><trkpt lat="43.92315214199626" lon="10.93204405716818"><ele>53.0</ele><time>2026-05-01T16:56:32.939Z</time></trkpt><trkpt lat="43.92307635129569" lon="10.932185904057183"><ele>53.0</ele><time>2026-05-01T16:56:33.939Z</time></trkpt><trkpt lat="43.923019121765066" lon="10.932348698593751"><ele>53.0</ele><time>2026-05-01T16:56:34.939Z</time></trkpt><trkpt lat="43.92299290081433" lon="10.932523132926622"><ele>53.0</ele><time>2026-05-01T16:56:35.939Z</time></trkpt><trkpt lat="43.922985591301234" lon="10.932680347562648"><ele>53.0</ele><time>2026-05-01T16:56:36.939Z</time></trkpt><trkpt lat="43.92299733812853" lon="10.932804828391955"><ele>53.0</ele><time>2026-05-01T16:56:37.94Z</time></trkpt><trkpt lat="43.92304354303073" lon="10.932919839438643"><ele>53.0</ele><time>2026-05-01T16:56:39.94Z</time></trkpt><trkpt lat="43.92317767405469" lon="10.933302141300747"><ele>53.25</ele><time>2026-05-01T16:56:40.94Z</time></trkpt><trkpt lat="43.923284561141315" lon="10.933408743764138"><ele>53.5</ele><time>2026-05-01T16:56:41.94Z</time></trkpt><trkpt lat="43.92334274246141" lon="10.933606607867372"><ele>53.75</ele><time>2026-05-01T16:56:42.94Z</time></trkpt><trkpt lat="43.92336006335229" lon="10.933799433586232"><ele>54.0</ele><time>2026-05-01T16:56:43.94Z</time></trkpt><trkpt lat="43.92331647497714" lon="10.9340014049756"><ele>54.0</ele><time>2026-05-01T16:56:44.94Z</time></trkpt><trkpt lat="43.92320513695798" lon="10.934173741059233"><ele>54.0</ele><time>2026-05-01T16:56:45.94Z</time></trkpt><trkpt lat="43.923127989253096" lon="10.934399219353386"><ele>54.0</ele><time>2026-05-01T16:56:46.94Z</time></trkpt><trkpt lat="43.92305653228035" lon="10.93460891053301"><ele>54.0</ele><time>2026-05-01T16:56:47.94Z</time></trkpt><trkpt lat="43.923002247434134" lon="10.934817505329297"><ele>54.0</ele><time>2026-05-01T16:56:48.94Z</time></trkpt><trkpt lat="43.922921606339685" lon="10.935016118669125"><ele>54.0</ele><time>2026-05-01T16:56:49.94Z</time></trkpt><trkpt lat="43.922851292272604" lon="10.93523552639426"><ele>53.66666666666667</ele><time>2026-05-01T16:56:50.94Z</time></trkpt><trkpt lat="43.92277799273473" lon="10.935463697404506"><ele>53.333333333333336</ele><time>2026-05-01T16:56:51.94Z</time></trkpt><trkpt lat="43.92270516806521" lon="10.935679106226527"><ele>53.0</ele><time>2026-05-01T16:56:52.94Z</time></trkpt><trkpt lat="43.922635798499286" lon="10.935864729929909"><ele>52.75</ele><time>2026-05-01T16:56:53.94Z</time></trkpt><trkpt lat="43.92257398534491" lon="10.936039663076912"><ele>52.5</ele><time>2026-05-01T16:56:54.94Z</time></trkpt><trkpt lat="43.9225156782771" lon="10.936218519969188"><ele>52.25</ele><time>2026-05-01T16:56:55.94Z</time></trkpt><trkpt lat="43.922450636706934" lon="10.936397186343093"><ele>52.0</ele><time>2026-05-01T16:56:56.94Z</time></trkpt><trkpt lat="43.92238596449797" lon="10.936580974918328"><ele>51.75</ele><time>2026-05-01T16:56:57.94Z</time></trkpt><trkpt lat="43.922326200241" lon="10.936751049590857"><ele>51.5</ele><time>2026-05-01T16:56:58.94Z</time></trkpt><trkpt lat="43.92227401364755" lon="10.936906741303034"><ele>51.25</ele><time>2026-05-01T16:56:59.94Z</time></trkpt><trkpt lat="43.92222223337681" lon="10.93705699919796"><ele>51.0</ele><time>2026-05-01T16:57:00.94Z</time></trkpt><trkpt lat="43.92217429333153" lon="10.937209052451234"><ele>51.0</ele><time>2026-05-01T16:57:01.94Z</time></trkpt><trkpt lat="43.92211950711318" lon="10.937363881494582"><ele>51.0</ele><time>2026-05-01T16:57:02.94Z</time></trkpt><trkpt lat="43.92206748747186" lon="10.937511572294628"><ele>51.0</ele><time>2026-05-01T16:57:03.94Z</time></trkpt><trkpt lat="43.922022379740255" lon="10.937630002096162"><ele>51.0</ele><time>2026-05-01T16:57:04.94Z</time></trkpt><trkpt lat="43.92198173383724" lon="10.937755198991669"><ele>51.0</ele><time>2026-05-01T16:57:05.941Z</time></trkpt><trkpt lat="43.92194308997275" lon="10.937874766003633"><ele>51.25</ele><time>2026-05-01T16:57:06.941Z</time></trkpt><trkpt lat="43.921891361010395" lon="10.937989538303437"><ele>51.5</ele><time>2026-05-01T16:57:07.941Z</time></trkpt><trkpt lat="43.92184902894424" lon="10.938118433032907"><ele>51.75</ele><time>2026-05-01T16:57:08.941Z</time></trkpt><trkpt lat="43.9218021909035" lon="10.938267113201714"><ele>52.0</ele><time>2026-05-01T16:57:09.941Z</time></trkpt><trkpt lat="43.92173545955347" lon="10.93848359736947"><ele>51.5</ele><time>2026-05-01T16:57:10.941Z</time></trkpt><trkpt lat="43.921626036990844" lon="10.93875819718273"><ele>51.0</ele><time>2026-05-01T16:57:11.941Z</time></trkpt><trkpt lat="43.92150031899561" lon="10.9390984931371"><ele>51.0</ele><time>2026-05-01T16:57:12.941Z</time></trkpt><trkpt lat="43.92137683698715" lon="10.93945012170811"><ele>51.0</ele><time>2026-05-01T16:57:13.941Z</time></trkpt><trkpt lat="43.92126453771407" lon="10.939772641598468"><ele>51.0</ele><time>2026-05-01T16:57:14.941Z</time></trkpt><trkpt lat="43.92116332058676" lon="10.940065288654715"><ele>51.0</ele><time>2026-05-01T16:57:15.941Z</time></trkpt><trkpt lat="43.92107075711911" lon="10.940327196468207"><ele>51.0</ele><time>2026-05-01T16:57:16.941Z</time></trkpt><trkpt lat="43.92098504305702" lon="10.940577023572246"><ele>51.0</ele><time>2026-05-01T16:57:17.941Z</time></trkpt><trkpt lat="43.92090054009126" lon="10.940822031857431"><ele>51.0</ele><time>2026-05-01T16:57:18.941Z</time></trkpt><trkpt lat="43.920818118229455" lon="10.941054598584651"><ele>51.0</ele><time>2026-05-01T16:57:19.941Z</time></trkpt><trkpt lat="43.92073814415986" lon="10.941286337583296"><ele>51.0</ele><time>2026-05-01T16:57:20.941Z</time></trkpt><trkpt lat="43.92066270207265" lon="10.941516751626898"><ele>51.0</ele><time>2026-05-01T16:57:21.941Z</time></trkpt><trkpt lat="43.92058567861877" lon="10.941745822678417"><ele>51.0</ele><time>2026-05-01T16:57:22.941Z</time></trkpt><trkpt lat="43.920508106524856" lon="10.941965838033939"><ele>51.0</ele><time>2026-05-01T16:57:23.941Z</time></trkpt><trkpt lat="43.92043368460455" lon="10.942183894163223"><ele>51.0</ele><time>2026-05-01T16:57:24.941Z</time></trkpt><trkpt lat="43.92035526700868" lon="10.942402506968046"><ele>51.0</ele><time>2026-05-01T16:57:25.941Z</time></trkpt><trkpt lat="43.92028378966811" lon="10.942617142719042"><ele>51.33333333333333</ele><time>2026-05-01T16:57:26.941Z</time></trkpt><trkpt lat="43.92021534622978" lon="10.942816111324516"><ele>51.666666666666664</ele><time>2026-05-01T16:57:27.941Z</time></trkpt><trkpt lat="43.92014825926571" lon="10.943003096183071"><ele>52.0</ele><time>2026-05-01T16:57:28.941Z</time></trkpt><trkpt lat="43.92008577610326" lon="10.943178264033877"><ele>52.25</ele><time>2026-05-01T16:57:29.941Z</time></trkpt><trkpt lat="43.92002623646617" lon="10.943361211720804"><ele>52.5</ele><time>2026-05-01T16:57:30.941Z</time></trkpt><trkpt lat="43.9199667198383" lon="10.943546696215165"><ele>52.75</ele><time>2026-05-01T16:57:31.941Z</time></trkpt><trkpt lat="43.91990621385995" lon="10.94373141715587"><ele>53.0</ele><time>2026-05-01T16:57:32.941Z</time></trkpt><trkpt lat="43.9198476703051" lon="10.943906292619415"><ele>52.25</ele><time>2026-05-01T16:57:33.94Z</time></trkpt><trkpt lat="43.91979014630894" lon="10.944070549160394"><ele>51.5</ele><time>2026-05-01T16:57:34.941Z</time></trkpt><trkpt lat="43.9197291251623" lon="10.94425329384346"><ele>50.75</ele><time>2026-05-01T16:57:35.941Z</time></trkpt><trkpt lat="43.91966716240583" lon="10.944445121959152"><ele>50.0</ele><time>2026-05-01T16:57:36.941Z</time></trkpt><trkpt lat="43.919602508856855" lon="10.944638656368632"><ele>50.0</ele><time>2026-05-01T16:57:37.941Z</time></trkpt><trkpt lat="43.91954117015403" lon="10.944839212225396"><ele>50.0</ele><time>2026-05-01T16:57:38.941Z</time></trkpt><trkpt lat="43.919481166886065" lon="10.945044691064927"><ele>50.0</ele><time>2026-05-01T16:57:39.941Z</time></trkpt><trkpt lat="43.91940627345" lon="10.945249312901938"><ele>50.333333333333336</ele><time>2026-05-01T16:57:40.941Z</time></trkpt><trkpt lat="43.919350938273524" lon="10.945454013836466"><ele>50.66666666666667</ele><time>2026-05-01T16:57:41.941Z</time></trkpt><trkpt lat="43.91930040818318" lon="10.945649052996606"><ele>51.0</ele><time>2026-05-01T16:57:42.941Z</time></trkpt><trkpt lat="43.91925409365184" lon="10.945851746139146"><ele>50.33333333333333</ele><time>2026-05-01T16:57:43.941Z</time></trkpt><trkpt lat="43.919215701086245" lon="10.946068648588367"><ele>49.666666666666664</ele><time>2026-05-01T16:57:44.941Z</time></trkpt><trkpt lat="43.91918229059095" lon="10.946289529296505"><ele>49.0</ele><time>2026-05-01T16:57:45.941Z</time></trkpt><trkpt lat="43.91915231358311" lon="10.946503844843894"><ele>49.0</ele><time>2026-05-01T16:57:46.941Z</time></trkpt><trkpt lat="43.91912609127092" lon="10.946708270708362"><ele>49.0</ele><time>2026-05-01T16:57:47.941Z</time></trkpt><trkpt lat="43.91909981955637" lon="10.946908881280608"><ele>49.0</ele><time>2026-05-01T16:57:48.941Z</time></trkpt><trkpt lat="43.91907288803007" lon="10.947104079542779"><ele>49.0</ele><time>2026-05-01T16:57:49.941Z</time></trkpt><trkpt lat="43.91904488930783" lon="10.947292654799682"><ele>48.666666666666664</ele><time>2026-05-01T16:57:50.941Z</time></trkpt><trkpt lat="43.91902196122894" lon="10.947489017621375"><ele>48.33333333333333</ele><time>2026-05-01T16:57:51.941Z</time></trkpt><trkpt lat="43.91899789366456" lon="10.9477353910537"><ele>48.0</ele><time>2026-05-01T16:57:52.941Z</time></trkpt><trkpt lat="43.91896405579893" lon="10.948046608832238"><ele>48.0</ele><time>2026-05-01T16:57:53.941Z</time></trkpt><trkpt lat="43.918916024037436" lon="10.948408514892959"><ele>48.0</ele><time>2026-05-01T16:57:54.941Z</time></trkpt><trkpt lat="43.918868684351956" lon="10.948743058176879"><ele>48.0</ele><time>2026-05-01T16:57:55.941Z</time></trkpt><trkpt lat="43.91882907758065" lon="10.94903107626273"><ele>48.0</ele><time>2026-05-01T16:57:56.941Z</time></trkpt><trkpt lat="43.91878801453561" lon="10.949336404912884"><ele>48.0</ele><time>2026-05-01T16:57:57.941Z</time></trkpt><trkpt lat="43.91874375827674" lon="10.949702666073774"><ele>48.0</ele><time>2026-05-01T16:57:58.941Z</time></trkpt><trkpt lat="43.918699363397394" lon="10.950051917191173"><ele>48.0</ele><time>2026-05-01T16:57:59.941Z</time></trkpt><trkpt lat="43.91865923537252" lon="10.950341798440714"><ele>48.0</ele><time>2026-05-01T16:58:00.941Z</time></trkpt><trkpt lat="43.91862331725842" lon="10.950602430530468"><ele>48.0</ele><time>2026-05-01T16:58:01.941Z</time></trkpt><trkpt lat="43.91858940436459" lon="10.950895354148631"><ele>48.0</ele><time>2026-05-01T16:58:02.941Z</time></trkpt><trkpt lat="43.91853864808467" lon="10.951257326429616"><ele>48.0</ele><time>2026-05-01T16:58:03.941Z</time></trkpt><trkpt lat="43.91847837924156" lon="10.951654826472195"><ele>48.0</ele><time>2026-05-01T16:58:04.941Z</time></trkpt><trkpt lat="43.91841895039528" lon="10.952037850835428"><ele>47.5</ele><time>2026-05-01T16:58:05.941Z</time></trkpt><trkpt lat="43.918372035015366" lon="10.952399597652423"><ele>47.0</ele><time>2026-05-01T16:58:06.942Z</time></trkpt><trkpt lat="43.918330687445035" lon="10.952731607274186"><ele>47.0</ele><time>2026-05-01T16:58:07.942Z</time></trkpt><trkpt lat="43.91828749188565" lon="10.953043959458922"><ele>47.0</ele><time>2026-05-01T16:58:08.942Z</time></trkpt><trkpt lat="43.91825001107844" lon="10.95334280165664"><ele>47.0</ele><time>2026-05-01T16:58:09.942Z</time></trkpt><trkpt lat="43.91821136521085" lon="10.953640812054392"><ele>47.0</ele><time>2026-05-01T16:58:10.942Z</time></trkpt><trkpt lat="43.918173610488594" lon="10.953946848991102"><ele>47.0</ele><time>2026-05-01T16:58:11.942Z</time></trkpt><trkpt lat="43.91813446514968" lon="10.954253319064607"><ele>47.0</ele><time>2026-05-01T16:58:12.942Z</time></trkpt><trkpt lat="43.91809850593504" lon="10.954559578534901"><ele>47.0</ele><time>2026-05-01T16:58:13.942Z</time></trkpt><trkpt lat="43.918059115616195" lon="10.954872912846128"><ele>47.0</ele><time>2026-05-01T16:58:14.942Z</time></trkpt><trkpt lat="43.9180172707542" lon="10.955187127068704"><ele>47.0</ele><time>2026-05-01T16:58:15.942Z</time></trkpt><trkpt lat="43.917973417193764" lon="10.9555020917676"><ele>47.0</ele><time>2026-05-01T16:58:16.942Z</time></trkpt><trkpt lat="43.91793402418696" lon="10.955823612491269"><ele>47.0</ele><time>2026-05-01T16:58:17.942Z</time></trkpt><trkpt lat="43.91789082155838" lon="10.95614650202152"><ele>47.0</ele><time>2026-05-01T16:58:18.942Z</time></trkpt><trkpt lat="43.917850429078115" lon="10.956468552448614"><ele>47.33333333333333</ele><time>2026-05-01T16:58:19.942Z</time></trkpt><trkpt lat="43.9178109210088" lon="10.956762983789123"><ele>47.666666666666664</ele><time>2026-05-01T16:58:20.942Z</time></trkpt><trkpt lat="43.91777346923953" lon="10.95703436171094"><ele>48.0</ele><time>2026-05-01T16:58:21.942Z</time></trkpt><trkpt lat="43.91773401315535" lon="10.957285031265956"><ele>48.0</ele><time>2026-05-01T16:58:22.942Z</time></trkpt><trkpt lat="43.91769548367613" lon="10.957525457238997"><ele>48.0</ele><time>2026-05-01T16:58:23.942Z</time></trkpt><trkpt lat="43.917660692509024" lon="10.95776350807334"><ele>48.0</ele><time>2026-05-01T16:58:24.942Z</time></trkpt><trkpt lat="43.91762934496661" lon="10.958006809652344"><ele>47.333333333333336</ele><time>2026-05-01T16:58:25.942Z</time></trkpt><trkpt lat="43.917601889445855" lon="10.958258976740476"><ele>46.66666666666667</ele><time>2026-05-01T16:58:26.942Z</time></trkpt><trkpt lat="43.91757847255131" lon="10.958517636634106"><ele>46.0</ele><time>2026-05-01T16:58:27.942Z</time></trkpt><trkpt lat="43.917546943395486" lon="10.958783230231978"><ele>46.0</ele><time>2026-05-01T16:58:28.942Z</time></trkpt><trkpt lat="43.91750602487985" lon="10.959058543262174"><ele>46.0</ele><time>2026-05-01T16:58:29.942Z</time></trkpt><trkpt lat="43.91746219736667" lon="10.959347713106803"><ele>46.0</ele><time>2026-05-01T16:58:30.942Z</time></trkpt><trkpt lat="43.917420564913094" lon="10.959636341664629"><ele>46.333333333333336</ele><time>2026-05-01T16:58:31.942Z</time></trkpt><trkpt lat="43.91738013518715" lon="10.95992861253644"><ele>46.666666666666664</ele><time>2026-05-01T16:58:32.942Z</time></trkpt><trkpt lat="43.91734349247243" lon="10.960221524953516"><ele>47.0</ele><time>2026-05-01T16:58:33.942Z</time></trkpt><trkpt lat="43.91731252716704" lon="10.960492479316926"><ele>47.0</ele><time>2026-05-01T16:58:34.942Z</time></trkpt><trkpt lat="43.91728157129469" lon="10.960755008601765"><ele>47.0</ele><time>2026-05-01T16:58:35.942Z</time></trkpt><trkpt lat="43.91724580254995" lon="10.961028979784443"><ele>47.0</ele><time>2026-05-01T16:58:36.942Z</time></trkpt><trkpt lat="43.91720899404551" lon="10.961306522382076"><ele>47.0</ele><time>2026-05-01T16:58:37.942Z</time></trkpt><trkpt lat="43.91717484008975" lon="10.961564507019112"><ele>47.0</ele><time>2026-05-01T16:58:38.942Z</time></trkpt><trkpt lat="43.91714636799816" lon="10.961789064844783"><ele>47.0</ele><time>2026-05-01T16:58:39.942Z</time></trkpt><trkpt lat="43.917126907806086" lon="10.961970242364458"><ele>46.8</ele><time>2026-05-01T16:58:40.942Z</time></trkpt><trkpt lat="43.91710808499475" lon="10.962126100117374"><ele>46.6</ele><time>2026-05-01T16:58:41.942Z</time></trkpt><trkpt lat="43.91708942431935" lon="10.962261834249372"><ele>46.4</ele><time>2026-05-01T16:58:42.942Z</time></trkpt><trkpt lat="43.91707775213198" lon="10.962382820867907"><ele>46.199999999999996</ele><time>2026-05-01T16:58:43.942Z</time></trkpt><trkpt lat="43.91706049735245" lon="10.962498757464829"><ele>46.0</ele><time>2026-05-01T16:58:44.942Z</time></trkpt><trkpt lat="43.91704422484654" lon="10.96260735078049"><ele>46.0</ele><time>2026-05-01T16:58:45.942Z</time></trkpt><trkpt lat="43.9170292405088" lon="10.962712723904316"><ele>46.0</ele><time>2026-05-01T16:58:46.942Z</time></trkpt><trkpt lat="43.91701499964549" lon="10.962837452950012"><ele>46.0</ele><time>2026-05-01T16:58:47.942Z</time></trkpt><trkpt lat="43.91699749002516" lon="10.962981637335295"><ele>46.0</ele><time>2026-05-01T16:58:48.942Z</time></trkpt><trkpt lat="43.91697644293368" lon="10.96312929558449"><ele>46.0</ele><time>2026-05-01T16:58:49.942Z</time></trkpt><trkpt lat="43.91695599850446" lon="10.963263105096106"><ele>46.0</ele><time>2026-05-01T16:58:50.942Z</time></trkpt><trkpt lat="43.91693970769407" lon="10.963385011662156"><ele>46.0</ele><time>2026-05-01T16:58:51.942Z</time></trkpt><trkpt lat="43.9169261417959" lon="10.963499192796416"><ele>46.0</ele><time>2026-05-01T16:58:52.942Z</time></trkpt><trkpt lat="43.9169144904328" lon="10.963610385944817"><ele>46.0</ele><time>2026-05-01T16:58:53.942Z</time></trkpt><trkpt lat="43.91689899820708" lon="10.963739803266847"><ele>46.0</ele><time>2026-05-01T16:58:54.942Z</time></trkpt><trkpt lat="43.916880633000154" lon="10.963883917434524"><ele>46.0</ele><time>2026-05-01T16:58:55.942Z</time></trkpt><trkpt lat="43.9168630756659" lon="10.964010036644689"><ele>46.0</ele><time>2026-05-01T16:58:56.942Z</time></trkpt><trkpt lat="43.91685007729614" lon="10.9641092340865"><ele>46.0</ele><time>2026-05-01T16:58:57.942Z</time></trkpt><trkpt lat="43.91683516604023" lon="10.964247792407768"><ele>46.0</ele><time>2026-05-01T16:58:59.942Z</time></trkpt><trkpt lat="43.916793770799714" lon="10.964332426030222"><ele>46.0</ele><time>2026-05-01T16:59:02.942Z</time></trkpt><trkpt lat="43.916760832220874" lon="10.96445894597995"><ele>46.0</ele><time>2026-05-01T16:59:21.943Z</time></trkpt><trkpt lat="43.916753457408866" lon="10.964595796690158"><ele>45.66666666666667</ele><time>2026-05-01T16:59:22.943Z</time></trkpt><trkpt lat="43.91674641508175" lon="10.964796708910663"><ele>45.333333333333336</ele><time>2026-05-01T16:59:23.943Z</time></trkpt><trkpt lat="43.91672301411088" lon="10.96503137603137"><ele>45.0</ele><time>2026-05-01T16:59:24.943Z</time></trkpt><trkpt lat="43.91670607970659" lon="10.965327825128359"><ele>45.0</ele><time>2026-05-01T16:59:25.943Z</time></trkpt><trkpt lat="43.916695004791585" lon="10.965690504145993"><ele>45.0</ele><time>2026-05-01T16:59:26.943Z</time></trkpt><trkpt lat="43.916699408640824" lon="10.966105896909037"><ele>44.5</ele><time>2026-05-01T16:59:27.943Z</time></trkpt><trkpt lat="43.916705435539114" lon="10.96652839557138"><ele>44.0</ele><time>2026-05-01T16:59:28.943Z</time></trkpt><trkpt lat="43.91670617032036" lon="10.966917649184417"><ele>44.0</ele><time>2026-05-01T16:59:29.943Z</time></trkpt><trkpt lat="43.91669581122431" lon="10.967271257429399"><ele>44.0</ele><time>2026-05-01T16:59:30.943Z</time></trkpt><trkpt lat="43.91662406728722" lon="10.96752785891194"><ele>44.0</ele><time>2026-05-01T16:59:31.943Z</time></trkpt><trkpt lat="43.91659444680507" lon="10.967861942704078"><ele>44.0</ele><time>2026-05-01T16:59:32.943Z</time></trkpt><trkpt lat="43.91654279175544" lon="10.968193394730527"><ele>44.0</ele><time>2026-05-01T16:59:33.943Z</time></trkpt><trkpt lat="43.91652130610593" lon="10.96854367073816"><ele>44.0</ele><time>2026-05-01T16:59:34.942Z</time></trkpt><trkpt lat="43.9164998627936" lon="10.968898996381549"><ele>43.5</ele><time>2026-05-01T16:59:35.942Z</time></trkpt><trkpt lat="43.91647918725679" lon="10.969250152393196"><ele>43.0</ele><time>2026-05-01T16:59:36.943Z</time></trkpt><trkpt lat="43.91645903333501" lon="10.969594193935519"><ele>43.0</ele><time>2026-05-01T16:59:37.942Z</time></trkpt><trkpt lat="43.916438182992096" lon="10.96994158404791"><ele>43.0</ele><time>2026-05-01T16:59:38.942Z</time></trkpt><trkpt lat="43.91642746699966" lon="10.970286411928932"><ele>43.0</ele><time>2026-05-01T16:59:39.943Z</time></trkpt><trkpt lat="43.916401878168685" lon="10.970634672270437"><ele>43.0</ele><time>2026-05-01T16:59:40.942Z</time></trkpt><trkpt lat="43.91637685788161" lon="10.970981557773028"><ele>44.0</ele><time>2026-05-01T16:59:41.942Z</time></trkpt><trkpt lat="43.91635680992059" lon="10.971325949189282"><ele>45.0</ele><time>2026-05-01T16:59:42.943Z</time></trkpt><trkpt lat="43.91633807031907" lon="10.971670400948414"><ele>45.5</ele><time>2026-05-01T16:59:43.943Z</time></trkpt><trkpt lat="43.91631806696202" lon="10.972017774586329"><ele>46.0</ele><time>2026-05-01T16:59:44.943Z</time></trkpt><trkpt lat="43.916296154002545" lon="10.972362876093856"><ele>45.5</ele><time>2026-05-01T16:59:45.943Z</time></trkpt><trkpt lat="43.916270358193486" lon="10.972707297392333"><ele>45.0</ele><time>2026-05-01T16:59:46.943Z</time></trkpt><trkpt lat="43.91624954641296" lon="10.973059914838469"><ele>44.0</ele><time>2026-05-01T16:59:47.943Z</time></trkpt><trkpt lat="43.91622744153718" lon="10.973413307330576"><ele>43.0</ele><time>2026-05-01T16:59:48.943Z</time></trkpt><trkpt lat="43.91620198162936" lon="10.973764529952483"><ele>43.0</ele><time>2026-05-01T16:59:49.943Z</time></trkpt><trkpt lat="43.91618040507754" lon="10.974116477201909"><ele>43.0</ele><time>2026-05-01T16:59:50.943Z</time></trkpt><trkpt lat="43.91616092348161" lon="10.974465214424866"><ele>43.0</ele><time>2026-05-01T16:59:51.943Z</time></trkpt><trkpt lat="43.916142628360525" lon="10.974819427080488"><ele>43.0</ele><time>2026-05-01T16:59:52.943Z</time></trkpt><trkpt lat="43.91612134741085" lon="10.975166968289574"><ele>43.5</ele><time>2026-05-01T16:59:53.943Z</time></trkpt><trkpt lat="43.91609816336364" lon="10.975510790395983"><ele>44.0</ele><time>2026-05-01T16:59:54.943Z</time></trkpt><trkpt lat="43.91607306898503" lon="10.975854861180045"><ele>44.0</ele><time>2026-05-01T16:59:55.943Z</time></trkpt><trkpt lat="43.91605245169428" lon="10.976199842014198"><ele>44.0</ele><time>2026-05-01T16:59:56.943Z</time></trkpt><trkpt lat="43.91603329216379" lon="10.976538070578147"><ele>44.0</ele><time>2026-05-01T16:59:57.943Z</time></trkpt><trkpt lat="43.91601056619091" lon="10.97687643644167"><ele>44.0</ele><time>2026-05-01T16:59:58.943Z</time></trkpt><trkpt lat="43.91599006580721" lon="10.977217448717226"><ele>44.0</ele><time>2026-05-01T16:59:59.943Z</time></trkpt><trkpt lat="43.915972606640224" lon="10.977553271314497"><ele>44.0</ele><time>2026-05-01T17:00:00.943Z</time></trkpt><trkpt lat="43.91595141501366" lon="10.977893605988262"><ele>44.0</ele><time>2026-05-01T17:00:01.943Z</time></trkpt><trkpt lat="43.91592585821572" lon="10.978233110583483"><ele>44.0</ele><time>2026-05-01T17:00:02.943Z</time></trkpt><trkpt lat="43.91590212149133" lon="10.978569426140472"><ele>43.5</ele><time>2026-05-01T17:00:03.943Z</time></trkpt><trkpt lat="43.915878562469175" lon="10.978909281886628"><ele>43.0</ele><time>2026-05-01T17:00:04.943Z</time></trkpt><trkpt lat="43.91585683487483" lon="10.979250603762681"><ele>43.0</ele><time>2026-05-01T17:00:05.943Z</time></trkpt><trkpt lat="43.91583645143768" lon="10.979594907456496"><ele>43.0</ele><time>2026-05-01T17:00:06.943Z</time></trkpt><trkpt lat="43.915815430849484" lon="10.97993990594883"><ele>43.0</ele><time>2026-05-01T17:00:07.943Z</time></trkpt><trkpt lat="43.915794987751696" lon="10.980280396724165"><ele>43.0</ele><time>2026-05-01T17:00:08.943Z</time></trkpt><trkpt lat="43.915775580428004" lon="10.980625174473545"><ele>42.5</ele><time>2026-05-01T17:00:09.943Z</time></trkpt><trkpt lat="43.9157565787023" lon="10.980960278064476"><ele>42.0</ele><time>2026-05-01T17:00:10.943Z</time></trkpt><trkpt lat="43.91573718223741" lon="10.98126756904609"><ele>42.0</ele><time>2026-05-01T17:00:11.943Z</time></trkpt><trkpt lat="43.91571983109494" lon="10.98155452413165"><ele>42.0</ele><time>2026-05-01T17:00:12.943Z</time></trkpt><trkpt lat="43.91570305147309" lon="10.981826000020684"><ele>42.0</ele><time>2026-05-01T17:00:13.943Z</time></trkpt><trkpt lat="43.91568889972761" lon="10.98208773761982"><ele>42.333333333333336</ele><time>2026-05-01T17:00:14.943Z</time></trkpt><trkpt lat="43.91566896130836" lon="10.982356819821943"><ele>42.66666666666667</ele><time>2026-05-01T17:00:15.943Z</time></trkpt><trkpt lat="43.915652019253876" lon="10.982631022830773"><ele>43.0</ele><time>2026-05-01T17:00:16.943Z</time></trkpt><trkpt lat="43.9156363697194" lon="10.982919601474542"><ele>43.0</ele><time>2026-05-01T17:00:17.943Z</time></trkpt><trkpt lat="43.915621790546275" lon="10.983202974438397"><ele>43.0</ele><time>2026-05-01T17:00:18.943Z</time></trkpt><trkpt lat="43.91560245755921" lon="10.983482492805203"><ele>43.0</ele><time>2026-05-01T17:00:19.944Z</time></trkpt><trkpt lat="43.915579629347555" lon="10.98376112015351"><ele>43.0</ele><time>2026-05-01T17:00:20.944Z</time></trkpt><trkpt lat="43.91555128691612" lon="10.984042487402087"><ele>43.0</ele><time>2026-05-01T17:00:21.944Z</time></trkpt><trkpt lat="43.91551424299468" lon="10.98433071631633"><ele>43.0</ele><time>2026-05-01T17:00:22.944Z</time></trkpt><trkpt lat="43.91546779412156" lon="10.984615535803252"><ele>43.333333333333336</ele><time>2026-05-01T17:00:23.944Z</time></trkpt><trkpt lat="43.91541513851445" lon="10.984899858207937"><ele>43.666666666666664</ele><time>2026-05-01T17:00:24.944Z</time></trkpt><trkpt lat="43.91535669735766" lon="10.9851829303248"><ele>44.0</ele><time>2026-05-01T17:00:25.944Z</time></trkpt><trkpt lat="43.91528679158851" lon="10.985469272514527"><ele>44.0</ele><time>2026-05-01T17:00:26.944Z</time></trkpt><trkpt lat="43.915204764289754" lon="10.985751178552196"><ele>44.0</ele><time>2026-05-01T17:00:27.944Z</time></trkpt><trkpt lat="43.91511912039149" lon="10.986012678247677"><ele>44.0</ele><time>2026-05-01T17:00:28.944Z</time></trkpt><trkpt lat="43.915034783331016" lon="10.986260291591972"><ele>44.0</ele><time>2026-05-01T17:00:29.944Z</time></trkpt><trkpt lat="43.91495612325849" lon="10.986482005493855"><ele>44.0</ele><time>2026-05-01T17:00:30.944Z</time></trkpt><trkpt lat="43.91489270276291" lon="10.986668322358968"><ele>44.0</ele><time>2026-05-01T17:00:31.944Z</time></trkpt><trkpt lat="43.914818354888446" lon="10.986842083079912"><ele>44.0</ele><time>2026-05-01T17:00:32.944Z</time></trkpt><trkpt lat="43.914734652491276" lon="10.987009999356623"><ele>44.0</ele><time>2026-05-01T17:00:33.944Z</time></trkpt><trkpt lat="43.91465039987804" lon="10.987235395142596"><ele>44.0</ele><time>2026-05-01T17:00:34.944Z</time></trkpt><trkpt lat="43.914572937457336" lon="10.987387984500646"><ele>44.0</ele><time>2026-05-01T17:00:35.944Z</time></trkpt><trkpt lat="43.91448932498741" lon="10.987562193962079"><ele>44.0</ele><time>2026-05-01T17:00:36.944Z</time></trkpt><trkpt lat="43.914400157529236" lon="10.987716010740586"><ele>44.0</ele><time>2026-05-01T17:00:37.944Z</time></trkpt><trkpt lat="43.914320173379565" lon="10.987841083265458"><ele>44.0</ele><time>2026-05-01T17:00:38.944Z</time></trkpt><trkpt lat="43.91423604340641" lon="10.987961193792573"><ele>44.0</ele><time>2026-05-01T17:00:39.944Z</time></trkpt><trkpt lat="43.91414725375953" lon="10.98809405713188"><ele>44.0</ele><time>2026-05-01T17:00:40.944Z</time></trkpt><trkpt lat="43.91404745666364" lon="10.988252626992756"><ele>44.0</ele><time>2026-05-01T17:00:41.944Z</time></trkpt><trkpt lat="43.913917033484914" lon="10.988452524831056"><ele>44.0</ele><time>2026-05-01T17:00:42.944Z</time></trkpt><trkpt lat="43.91375262574109" lon="10.988664828039072"><ele>44.0</ele><time>2026-05-01T17:00:43.944Z</time></trkpt><trkpt lat="43.91361481436634" lon="10.988821465696853"><ele>44.0</ele><time>2026-05-01T17:00:44.944Z</time></trkpt><trkpt lat="43.913482749931035" lon="10.988972541454833"><ele>44.0</ele><time>2026-05-01T17:00:45.944Z</time></trkpt><trkpt lat="43.9133132743473" lon="10.989167290180326"><ele>44.0</ele><time>2026-05-01T17:00:46.944Z</time></trkpt><trkpt lat="43.913112206293086" lon="10.989371824725911"><ele>44.0</ele><time>2026-05-01T17:00:47.944Z</time></trkpt><trkpt lat="43.91291337138772" lon="10.989541658372037"><ele>44.0</ele><time>2026-05-01T17:00:48.944Z</time></trkpt><trkpt lat="43.91273192371711" lon="10.989684791178123"><ele>44.0</ele><time>2026-05-01T17:00:49.944Z</time></trkpt><trkpt lat="43.91257146775426" lon="10.98980816765592"><ele>44.33333333333333</ele><time>2026-05-01T17:00:50.944Z</time></trkpt><trkpt lat="43.91242508168842" lon="10.989906031906031"><ele>44.666666666666664</ele><time>2026-05-01T17:00:51.944Z</time></trkpt><trkpt lat="43.9122682391392" lon="10.990004910917051"><ele>45.0</ele><time>2026-05-01T17:00:52.944Z</time></trkpt><trkpt lat="43.912087942519086" lon="10.990126161099818"><ele>45.0</ele><time>2026-05-01T17:00:53.944Z</time></trkpt><trkpt lat="43.911876492745876" lon="10.990267217559738"><ele>45.0</ele><time>2026-05-01T17:00:54.944Z</time></trkpt><trkpt lat="43.911663066036766" lon="10.990387606305923"><ele>44.666666666666664</ele><time>2026-05-01T17:00:55.944Z</time></trkpt><trkpt lat="43.91147326693373" lon="10.990489054195804"><ele>44.33333333333333</ele><time>2026-05-01T17:00:56.944Z</time></trkpt><trkpt lat="43.91129659744541" lon="10.990569978851022"><ele>44.0</ele><time>2026-05-01T17:00:57.944Z</time></trkpt><trkpt lat="43.91100193172121" lon="10.990764981945961"><ele>44.25</ele><time>2026-05-01T17:00:59.944Z</time></trkpt><trkpt lat="43.91087036529673" lon="10.9908623754252"><ele>44.5</ele><time>2026-05-01T17:01:00.944Z</time></trkpt><trkpt lat="43.91073251449479" lon="10.990941722144164"><ele>44.75</ele><time>2026-05-01T17:01:01.944Z</time></trkpt><trkpt lat="43.91060956198255" lon="10.99101191187105"><ele>45.0</ele><time>2026-05-01T17:01:02.944Z</time></trkpt><trkpt lat="43.91048352127692" lon="10.991087628027524"><ele>45.0</ele><time>2026-05-01T17:01:03.944Z</time></trkpt><trkpt lat="43.910375328430725" lon="10.99116507293571"><ele>45.0</ele><time>2026-05-01T17:01:04.944Z</time></trkpt><trkpt lat="43.910270887109526" lon="10.991233086617605"><ele>45.0</ele><time>2026-05-01T17:01:05.944Z</time></trkpt><trkpt lat="43.910161807380526" lon="10.991302209491078"><ele>45.0</ele><time>2026-05-01T17:01:06.944Z</time></trkpt><trkpt lat="43.910046406052814" lon="10.991372116561196"><ele>44.6</ele><time>2026-05-01T17:01:07.944Z</time></trkpt><trkpt lat="43.90994220545179" lon="10.991437627649153"><ele>44.2</ele><time>2026-05-01T17:01:08.944Z</time></trkpt><trkpt lat="43.90985050742466" lon="10.991503672685347"><ele>43.8</ele><time>2026-05-01T17:01:09.944Z</time></trkpt><trkpt lat="43.909759341487835" lon="10.991557165684739"><ele>43.4</ele><time>2026-05-01T17:01:10.944Z</time></trkpt><trkpt lat="43.909676333893294" lon="10.991595471995758"><ele>43.0</ele><time>2026-05-01T17:01:11.944Z</time></trkpt><trkpt lat="43.90959385608443" lon="10.991603656634263"><ele>43.0</ele><time>2026-05-01T17:01:12.944Z</time></trkpt><trkpt lat="43.90950703483656" lon="10.99158908832359"><ele>43.0</ele><time>2026-05-01T17:01:13.944Z</time></trkpt><trkpt lat="43.9094014303362" lon="10.991570114977202"><ele>43.0</ele><time>2026-05-01T17:01:14.944Z</time></trkpt><trkpt lat="43.90928347616551" lon="10.99153011120876"><ele>43.0</ele><time>2026-05-01T17:01:15.944Z</time></trkpt><trkpt lat="43.90915187327655" lon="10.9914711857702"><ele>42.75</ele><time>2026-05-01T17:01:16.944Z</time></trkpt><trkpt lat="43.909020815435504" lon="10.991436937374285"><ele>42.5</ele><time>2026-05-01T17:01:17.944Z</time></trkpt><trkpt lat="43.90890858669003" lon="10.991450945987555"><ele>42.25</ele><time>2026-05-01T17:01:18.944Z</time></trkpt><trkpt lat="43.9087947207621" lon="10.991520277321449"><ele>42.0</ele><time>2026-05-01T17:01:19.945Z</time></trkpt><trkpt lat="43.9087040865519" lon="10.991629719773682"><ele>42.0</ele><time>2026-05-01T17:01:20.945Z</time></trkpt><trkpt lat="43.90864064360497" lon="10.991775202924332"><ele>42.0</ele><time>2026-05-01T17:01:21.945Z</time></trkpt><trkpt lat="43.90860871958272" lon="10.991954029799688"><ele>42.0</ele><time>2026-05-01T17:01:22.945Z</time></trkpt><trkpt lat="43.90860993668798" lon="10.992141722106362"><ele>42.0</ele><time>2026-05-01T17:01:23.945Z</time></trkpt><trkpt lat="43.90864375259349" lon="10.992301949326755"><ele>42.0</ele><time>2026-05-01T17:01:24.945Z</time></trkpt><trkpt lat="43.908717856775155" lon="10.992447854235165"><ele>42.0</ele><time>2026-05-01T17:01:25.945Z</time></trkpt><trkpt lat="43.90882048766582" lon="10.992565761168375"><ele>42.0</ele><time>2026-05-01T17:01:26.945Z</time></trkpt><trkpt lat="43.908946146418934" lon="10.992667683723036"><ele>42.0</ele><time>2026-05-01T17:01:27.945Z</time></trkpt><trkpt lat="43.90908775669622" lon="10.99277172522924"><ele>41.75</ele><time>2026-05-01T17:01:28.945Z</time></trkpt><trkpt lat="43.90919466623651" lon="10.992908487995857"><ele>41.5</ele><time>2026-05-01T17:01:29.945Z</time></trkpt><trkpt lat="43.90926431183473" lon="10.993096345819604"><ele>41.25</ele><time>2026-05-01T17:01:30.945Z</time></trkpt><trkpt lat="43.90932527771258" lon="10.993279939433043"><ele>41.0</ele><time>2026-05-01T17:01:31.945Z</time></trkpt><trkpt lat="43.909293436358396" lon="10.993523503600377"><ele>41.666666666666664</ele><time>2026-05-01T17:01:32.945Z</time></trkpt><trkpt lat="43.90928120223584" lon="10.993773813208636"><ele>42.333333333333336</ele><time>2026-05-01T17:01:33.945Z</time></trkpt><trkpt lat="43.909282461037655" lon="10.994034691912756"><ele>43.0</ele><time>2026-05-01T17:01:34.945Z</time></trkpt><trkpt lat="43.90929826965977" lon="10.994291747591964"><ele>43.66666666666667</ele><time>2026-05-01T17:01:35.945Z</time></trkpt><trkpt lat="43.90930957515098" lon="10.99455353050143"><ele>44.333333333333336</ele><time>2026-05-01T17:01:36.945Z</time></trkpt><trkpt lat="43.909320224280926" lon="10.994821238714684"><ele>45.0</ele><time>2026-05-01T17:01:37.945Z</time></trkpt><trkpt lat="43.909325818423646" lon="10.99509579783638"><ele>45.0</ele><time>2026-05-01T17:01:38.945Z</time></trkpt><trkpt lat="43.90932735454181" lon="10.995361018886731"><ele>45.0</ele><time>2026-05-01T17:01:39.945Z</time></trkpt><trkpt lat="43.9093336501281" lon="10.995623770111349"><ele>45.0</ele><time>2026-05-01T17:01:40.945Z</time></trkpt><trkpt lat="43.909350439126726" lon="10.995896067919384"><ele>45.333333333333336</ele><time>2026-05-01T17:01:41.945Z</time></trkpt><trkpt lat="43.909364737405134" lon="10.99616311006694"><ele>45.66666666666667</ele><time>2026-05-01T17:01:42.945Z</time></trkpt><trkpt lat="43.90936366783319" lon="10.996421959318864"><ele>46.0</ele><time>2026-05-01T17:01:43.945Z</time></trkpt><trkpt lat="43.909395527435336" lon="10.996659987412091"><ele>45.75</ele><time>2026-05-01T17:01:44.945Z</time></trkpt><trkpt lat="43.90939894732125" lon="10.996872192730123"><ele>45.5</ele><time>2026-05-01T17:01:45.945Z</time></trkpt><trkpt lat="43.909400284071836" lon="10.997057937391146"><ele>45.25</ele><time>2026-05-01T17:01:46.945Z</time></trkpt><trkpt lat="43.9093972638079" lon="10.997215842560161"><ele>45.0</ele><time>2026-05-01T17:01:47.945Z</time></trkpt><trkpt lat="43.90936647421514" lon="10.99735012810993"><ele>45.0</ele><time>2026-05-01T17:01:48.945Z</time></trkpt><trkpt lat="43.909342339304104" lon="10.997489628088971"><ele>45.0</ele><time>2026-05-01T17:01:49.945Z</time></trkpt><trkpt lat="43.90937380193797" lon="10.997633818257619"><ele>45.0</ele><time>2026-05-01T17:01:50.945Z</time></trkpt><trkpt lat="43.909418053639655" lon="10.99781148623656"><ele>45.0</ele><time>2026-05-01T17:01:51.945Z</time></trkpt><trkpt lat="43.90941177936347" lon="10.998042559188088"><ele>44.666666666666664</ele><time>2026-05-01T17:01:52.945Z</time></trkpt><trkpt lat="43.90941771840367" lon="10.998284831150505"><ele>44.33333333333333</ele><time>2026-05-01T17:01:53.945Z</time></trkpt><trkpt lat="43.909423263658844" lon="10.99849895682294"><ele>44.0</ele><time>2026-05-01T17:01:54.945Z</time></trkpt><trkpt lat="43.90942959653353" lon="10.998680780805657"><ele>43.75</ele><time>2026-05-01T17:01:55.945Z</time></trkpt><trkpt lat="43.90943537689786" lon="10.998846741567656"><ele>43.5</ele><time>2026-05-01T17:01:56.945Z</time></trkpt><trkpt lat="43.90943752498792" lon="10.999005591329365"><ele>43.25</ele><time>2026-05-01T17:01:57.945Z</time></trkpt><trkpt lat="43.909431686146114" lon="10.999172489735221"><ele>43.0</ele><time>2026-05-01T17:01:58.945Z</time></trkpt><trkpt lat="43.90939723936748" lon="10.999347812255849"><ele>42.75</ele><time>2026-05-01T17:01:59.945Z</time></trkpt><trkpt lat="43.90939855790849" lon="10.999573188898523"><ele>42.5</ele><time>2026-05-01T17:02:00.945Z</time></trkpt><trkpt lat="43.909350390682455" lon="10.999748312421064"><ele>42.25</ele><time>2026-05-01T17:02:01.945Z</time></trkpt><trkpt lat="43.909313917025855" lon="10.999918027218555"><ele>42.0</ele><time>2026-05-01T17:02:02.945Z</time></trkpt><trkpt lat="43.909248373536386" lon="11.000091483575531"><ele>42.666666666666664</ele><time>2026-05-01T17:02:03.945Z</time></trkpt><trkpt lat="43.9091892884574" lon="11.000286721244596"><ele>43.33333333333333</ele><time>2026-05-01T17:02:04.945Z</time></trkpt><trkpt lat="43.909130466284694" lon="11.000481090173142"><ele>44.0</ele><time>2026-05-01T17:02:05.945Z</time></trkpt><trkpt lat="43.90908755274871" lon="11.000677791723207"><ele>43.33333333333333</ele><time>2026-05-01T17:02:06.945Z</time></trkpt><trkpt lat="43.90901249914451" lon="11.000855351612397"><ele>42.666666666666664</ele><time>2026-05-01T17:02:07.945Z</time></trkpt><trkpt lat="43.908956892020306" lon="11.001068824293977"><ele>42.0</ele><time>2026-05-01T17:02:08.945Z</time></trkpt><trkpt lat="43.90890094135229" lon="11.001267889662534"><ele>42.0</ele><time>2026-05-01T17:02:09.945Z</time></trkpt><trkpt lat="43.9088418003946" lon="11.001448713799574"><ele>42.0</ele><time>2026-05-01T17:02:10.945Z</time></trkpt><trkpt lat="43.908785849930034" lon="11.00161745448341"><ele>42.0</ele><time>2026-05-01T17:02:11.945Z</time></trkpt><trkpt lat="43.90873725026066" lon="11.001785388930383"><ele>42.0</ele><time>2026-05-01T17:02:12.945Z</time></trkpt><trkpt lat="43.908697496860874" lon="11.001913587028348"><ele>42.5</ele><time>2026-05-01T17:02:13.945Z</time></trkpt><trkpt lat="43.90866153429823" lon="11.002073869493334"><ele>43.0</ele><time>2026-05-01T17:02:14.945Z</time></trkpt><trkpt lat="43.908608355170045" lon="11.00224108436552"><ele>43.5</ele><time>2026-05-01T17:02:15.945Z</time></trkpt><trkpt lat="43.9085477709616" lon="11.002413547528413"><ele>44.0</ele><time>2026-05-01T17:02:16.945Z</time></trkpt><trkpt lat="43.90849105285215" lon="11.002575663861835"><ele>44.0</ele><time>2026-05-01T17:02:17.945Z</time></trkpt><trkpt lat="43.908444911392806" lon="11.002676245595246"><ele>44.0</ele><time>2026-05-01T17:02:18.945Z</time></trkpt><trkpt lat="43.90839026398061" lon="11.002766103625078"><ele>44.0</ele><time>2026-05-01T17:02:19.945Z</time></trkpt><trkpt lat="43.908347155788924" lon="11.002839407589612"><ele>44.0</ele><time>2026-05-01T17:02:20.945Z</time></trkpt><trkpt lat="43.908366424317215" lon="11.002987841554372"><ele>44.0</ele><time>2026-05-01T17:02:22.945Z</time></trkpt><trkpt lat="43.90841971891149" lon="11.003037627286036"><ele>44.0</ele><time>2026-05-01T17:02:23.945Z</time></trkpt><trkpt lat="43.9085106273205" lon="11.003044237309528"><ele>44.0</ele><time>2026-05-01T17:02:24.945Z</time></trkpt><trkpt lat="43.90861654155392" lon="11.003050881599362"><ele>44.0</ele><time>2026-05-01T17:02:25.945Z</time></trkpt><trkpt lat="43.90875518593252" lon="11.003097554234378"><ele>44.0</ele><time>2026-05-01T17:02:26.945Z</time></trkpt><trkpt lat="43.9088951500113" lon="11.00315891471252"><ele>44.0</ele><time>2026-05-01T17:02:27.945Z</time></trkpt><trkpt lat="43.909030202132556" lon="11.003232613834793"><ele>44.0</ele><time>2026-05-01T17:02:28.945Z</time></trkpt><trkpt lat="43.90917804609259" lon="11.003314740462889"><ele>44.0</ele><time>2026-05-01T17:02:29.945Z</time></trkpt><trkpt lat="43.90932576021553" lon="11.003418048785992"><ele>44.0</ele><time>2026-05-01T17:02:30.945Z</time></trkpt><trkpt lat="43.90947494183919" lon="11.003488552001114"><ele>44.33333333333333</ele><time>2026-05-01T17:02:31.945Z</time></trkpt><trkpt lat="43.90962594934742" lon="11.00358375713101"><ele>44.666666666666664</ele><time>2026-05-01T17:02:32.945Z</time></trkpt><trkpt lat="43.90978230695116" lon="11.00367828248347"><ele>45.0</ele><time>2026-05-01T17:02:33.945Z</time></trkpt><trkpt lat="43.909940245828906" lon="11.003796962645742"><ele>45.333333333333336</ele><time>2026-05-01T17:02:34.945Z</time></trkpt><trkpt lat="43.91009934874143" lon="11.003900430659655"><ele>45.66666666666667</ele><time>2026-05-01T17:02:35.945Z</time></trkpt><trkpt lat="43.91026191439516" lon="11.004006686294558"><ele>46.0</ele><time>2026-05-01T17:02:36.945Z</time></trkpt><trkpt lat="43.91041474888333" lon="11.004119085151705"><ele>46.0</ele><time>2026-05-01T17:02:37.945Z</time></trkpt><trkpt lat="43.91054819521987" lon="11.00421956997699"><ele>46.0</ele><time>2026-05-01T17:02:38.945Z</time></trkpt><trkpt lat="43.91065813929395" lon="11.004320758253485"><ele>46.0</ele><time>2026-05-01T17:02:39.945Z</time></trkpt><trkpt lat="43.910769672545115" lon="11.004395928620085"><ele>46.0</ele><time>2026-05-01T17:02:40.945Z</time></trkpt><trkpt lat="43.91087022468934" lon="11.004485434873526"><ele>45.75</ele><time>2026-05-01T17:02:41.945Z</time></trkpt><trkpt lat="43.910959518580114" lon="11.004568171631865"><ele>45.5</ele><time>2026-05-01T17:02:42.945Z</time></trkpt><trkpt lat="43.91106125545178" lon="11.004662672137256"><ele>45.25</ele><time>2026-05-01T17:02:43.945Z</time></trkpt><trkpt lat="43.91115894236738" lon="11.004765397643032"><ele>45.0</ele><time>2026-05-01T17:02:44.945Z</time></trkpt><trkpt lat="43.91125826413464" lon="11.004871856659445"><ele>45.0</ele><time>2026-05-01T17:02:45.945Z</time></trkpt><trkpt lat="43.91134562836908" lon="11.00496626364311"><ele>45.0</ele><time>2026-05-01T17:02:46.945Z</time></trkpt><trkpt lat="43.91142602652553" lon="11.00506222970424"><ele>45.0</ele><time>2026-05-01T17:02:47.945Z</time></trkpt><trkpt lat="43.911497150557864" lon="11.005154642464463"><ele>45.0</ele><time>2026-05-01T17:02:48.946Z</time></trkpt><trkpt lat="43.91155850896235" lon="11.0052422420663"><ele>45.0</ele><time>2026-05-01T17:02:49.946Z</time></trkpt><trkpt lat="43.911608227829866" lon="11.005345438166561"><ele>45.333333333333336</ele><time>2026-05-01T17:02:50.946Z</time></trkpt><trkpt lat="43.911678904393554" lon="11.00543993336059"><ele>45.666666666666664</ele><time>2026-05-01T17:02:51.946Z</time></trkpt><trkpt lat="43.91173702567874" lon="11.00553131721574"><ele>46.0</ele><time>2026-05-01T17:02:52.946Z</time></trkpt><trkpt lat="43.91179252673443" lon="11.005607872397315"><ele>46.33333333333333</ele><time>2026-05-01T17:02:53.946Z</time></trkpt><trkpt lat="43.91183755555576" lon="11.005673991543302"><ele>46.666666666666664</ele><time>2026-05-01T17:02:54.946Z</time></trkpt><trkpt lat="43.911869261932225" lon="11.00576111196747"><ele>47.0</ele><time>2026-05-01T17:02:56.946Z</time></trkpt><trkpt lat="43.91179290425507" lon="11.005900811614525"><ele>47.33333333333333</ele><time>2026-05-01T17:03:00.946Z</time></trkpt><trkpt lat="43.911722515419555" lon="11.005988026795603"><ele>47.666666666666664</ele><time>2026-05-01T17:03:01.946Z</time></trkpt><trkpt lat="43.91166236658539" lon="11.006062554056934"><ele>48.0</ele><time>2026-05-01T17:03:02.946Z</time></trkpt><trkpt lat="43.91161268411016" lon="11.00612411301761"><ele>48.33333333333333</ele><time>2026-05-01T17:03:03.946Z</time></trkpt><trkpt lat="43.91156232130212" lon="11.006181798886836"><ele>48.666666666666664</ele><time>2026-05-01T17:03:04.946Z</time></trkpt><trkpt lat="43.911468256590744" lon="11.006315535548671"><ele>49.0</ele><time>2026-05-01T17:03:06.946Z</time></trkpt><trkpt lat="43.911418139465376" lon="11.006379328742376"><ele>49.0</ele><time>2026-05-01T17:03:07.946Z</time></trkpt><trkpt lat="43.91134407018417" lon="11.00646740575527"><ele>49.0</ele><time>2026-05-01T17:03:09.946Z</time></trkpt><trkpt lat="43.911288308141536" lon="11.006524690248233"><ele>49.0</ele><time>2026-05-01T17:03:11.946Z</time></trkpt><trkpt lat="43.91145247108443" lon="11.00677539796269"><ele>49.0</ele><time>2026-05-01T17:03:15.946Z</time></trkpt><trkpt lat="43.91151604308205" lon="11.006837753362916"><ele>49.0</ele><time>2026-05-01T17:03:16.946Z</time></trkpt><trkpt lat="43.91157422896615" lon="11.006890201268908"><ele>49.0</ele><time>2026-05-01T17:03:17.946Z</time></trkpt><trkpt lat="43.911632735560694" lon="11.006946364177333"><ele>49.0</ele><time>2026-05-01T17:03:18.946Z</time></trkpt><trkpt lat="43.91168518964674" lon="11.007000654091021"><ele>49.0</ele><time>2026-05-01T17:03:19.946Z</time></trkpt><trkpt lat="43.911737978210596" lon="11.007069714095216"><ele>49.0</ele><time>2026-05-01T17:03:21.946Z</time></trkpt><trkpt lat="43.91181193212417" lon="11.007144079932699"><ele>49.0</ele><time>2026-05-01T17:03:25.946Z</time></trkpt><trkpt lat="43.911875021090694" lon="11.00720305281715"><ele>49.0</ele><time>2026-05-01T17:03:27.946Z</time></trkpt><trkpt lat="43.911933909404006" lon="11.007254965522652"><ele>48.99999999999999</ele><time>2026-05-01T17:03:29.946Z</time></trkpt><trkpt lat="43.91198118569413" lon="11.007333253184221"><ele>49.0</ele><time>2026-05-01T17:03:31.946Z</time></trkpt><trkpt lat="43.91195740566745" lon="11.007446333598406"><ele>49.0</ele><time>2026-05-01T17:03:33.946Z</time></trkpt><trkpt lat="43.91186499830137" lon="11.007580600074528"><ele>49.0</ele><time>2026-05-01T17:03:35.946Z</time></trkpt><trkpt lat="43.911820768833714" lon="11.007658647032121"><ele>48.99999999999999</ele><time>2026-05-01T17:03:36.946Z</time></trkpt><trkpt lat="43.91177922531493" lon="11.00773095460407"><ele>49.0</ele><time>2026-05-01T17:03:37.946Z</time></trkpt><trkpt lat="43.91173927625453" lon="11.007798758983975"><ele>49.0</ele><time>2026-05-01T17:03:38.946Z</time></trkpt><trkpt lat="43.91169728540926" lon="11.007870518477096"><ele>49.0</ele><time>2026-05-01T17:03:39.946Z</time></trkpt><trkpt lat="43.91164909642836" lon="11.007938452909167"><ele>49.0</ele><time>2026-05-01T17:03:40.946Z</time></trkpt><trkpt lat="43.91162069017846" lon="11.008018379358063"><ele>49.0</ele><time>2026-05-01T17:03:41.946Z</time></trkpt><trkpt lat="43.911654891482584" lon="11.008178615735137"><ele>49.0</ele><time>2026-05-01T17:03:43.946Z</time></trkpt><trkpt lat="43.911757076439876" lon="11.008296424040365"><ele>49.0</ele><time>2026-05-01T17:03:45.946Z</time></trkpt><trkpt lat="43.91180661506944" lon="11.008380161195314"><ele>49.0</ele><time>2026-05-01T17:03:46.947Z</time></trkpt><trkpt lat="43.91186081611197" lon="11.008473269647917"><ele>49.0</ele><time>2026-05-01T17:03:47.947Z</time></trkpt><trkpt lat="43.91192979582688" lon="11.008562269066301"><ele>49.0</ele><time>2026-05-01T17:03:48.946Z</time></trkpt><trkpt lat="43.91200240425432" lon="11.0086520584525"><ele>49.0</ele><time>2026-05-01T17:03:49.947Z</time></trkpt><trkpt lat="43.912077467754024" lon="11.008736593324185"><ele>49.0</ele><time>2026-05-01T17:03:50.947Z</time></trkpt><trkpt lat="43.912153132506184" lon="11.008819182654495"><ele>49.0</ele><time>2026-05-01T17:03:51.947Z</time></trkpt><trkpt lat="43.91222879168215" lon="11.008901330557933"><ele>49.0</ele><time>2026-05-01T17:03:52.947Z</time></trkpt><trkpt lat="43.9123047077542" lon="11.008988035871667"><ele>49.0</ele><time>2026-05-01T17:03:53.947Z</time></trkpt><trkpt lat="43.912383566725346" lon="11.00908128852335"><ele>49.0</ele><time>2026-05-01T17:03:54.947Z</time></trkpt><trkpt lat="43.91246747442453" lon="11.009179822447742"><ele>49.0</ele><time>2026-05-01T17:03:55.947Z</time></trkpt><trkpt lat="43.91256709628884" lon="11.00930089482529"><ele>49.0</ele><time>2026-05-01T17:03:56.947Z</time></trkpt><trkpt lat="43.91268050413553" lon="11.009438139173852"><ele>49.0</ele><time>2026-05-01T17:03:57.947Z</time></trkpt><trkpt lat="43.9127788220619" lon="11.009520767830079"><ele>49.0</ele><time>2026-05-01T17:03:58.947Z</time></trkpt><trkpt lat="43.91285067768491" lon="11.009632264623077"><ele>49.0</ele><time>2026-05-01T17:03:59.947Z</time></trkpt><trkpt lat="43.912948588960745" lon="11.009763261689987"><ele>49.0</ele><time>2026-05-01T17:04:00.947Z</time></trkpt><trkpt lat="43.91307308192471" lon="11.009910053141974"><ele>49.0</ele><time>2026-05-01T17:04:01.947Z</time></trkpt><trkpt lat="43.913031014015154" lon="11.009813985342134"><ele>49.0</ele><time>2026-05-01T17:04:02.947Z</time></trkpt><trkpt lat="43.91310693466775" lon="11.009900413604472"><ele>48.99999999999999</ele><time>2026-05-01T17:04:03.947Z</time></trkpt><trkpt lat="43.913183739508305" lon="11.009985374520706"><ele>49.0</ele><time>2026-05-01T17:04:04.947Z</time></trkpt><trkpt lat="43.91324741625979" lon="11.010087359266581"><ele>49.0</ele><time>2026-05-01T17:04:05.947Z</time></trkpt><trkpt lat="43.91331365761064" lon="11.010163295076216"><ele>49.0</ele><time>2026-05-01T17:04:06.947Z</time></trkpt><trkpt lat="43.91337659027274" lon="11.010232777736748"><ele>48.99999999999999</ele><time>2026-05-01T17:04:07.947Z</time></trkpt><trkpt lat="43.913435098042434" lon="11.010298732116638"><ele>49.0</ele><time>2026-05-01T17:04:08.947Z</time></trkpt><trkpt lat="43.913489610281125" lon="11.01036259847983"><ele>49.6</ele><time>2026-05-01T17:04:09.947Z</time></trkpt><trkpt lat="43.91354125476565" lon="11.010419089664897"><ele>50.2</ele><time>2026-05-01T17:04:10.947Z</time></trkpt><trkpt lat="43.913622819808" lon="11.010509340155442"><ele>50.800000000000004</ele><time>2026-05-01T17:04:12.947Z</time></trkpt><trkpt lat="43.91372060048031" lon="11.010398320456463"><ele>51.400000000000006</ele><time>2026-05-01T17:04:13.947Z</time></trkpt><trkpt lat="43.91377695285482" lon="11.010325864796052"><ele>52.0</ele><time>2026-05-01T17:04:14.947Z</time></trkpt><trkpt lat="43.91382832103188" lon="11.010240660612101"><ele>51.99999999999999</ele><time>2026-05-01T17:04:15.947Z</time></trkpt><trkpt lat="43.91388031003138" lon="11.01014749910766"><ele>52.0</ele><time>2026-05-01T17:04:16.947Z</time></trkpt><trkpt lat="43.91393106329908" lon="11.010056170020611"><ele>52.0</ele><time>2026-05-01T17:04:17.947Z</time></trkpt><trkpt lat="43.91398715962908" lon="11.009968692396418"><ele>52.0</ele><time>2026-05-01T17:04:18.947Z</time></trkpt><trkpt lat="43.91403640710011" lon="11.009880765707319"><ele>51.99999999999999</ele><time>2026-05-01T17:04:19.947Z</time></trkpt><trkpt lat="43.914083349388676" lon="11.00980077091145"><ele>52.0</ele><time>2026-05-01T17:04:20.947Z</time></trkpt><trkpt lat="43.914129750529675" lon="11.009735955045228"><ele>51.6</ele><time>2026-05-01T17:04:21.947Z</time></trkpt><trkpt lat="43.9142239716725" lon="11.00963699924015"><ele>51.2</ele><time>2026-05-01T17:04:23.947Z</time></trkpt><trkpt lat="43.91434031720942" lon="11.009590562924496"><ele>50.8</ele><time>2026-05-01T17:04:25.947Z</time></trkpt><trkpt lat="43.91441272617725" lon="11.009601913000303"><ele>50.4</ele><time>2026-05-01T17:04:26.947Z</time></trkpt><trkpt lat="43.91448665246496" lon="11.00963411248063"><ele>50.0</ele><time>2026-05-01T17:04:27.947Z</time></trkpt><trkpt lat="43.91456212283783" lon="11.00968516176608"><ele>49.75</ele><time>2026-05-01T17:04:28.947Z</time></trkpt><trkpt lat="43.91464017953178" lon="11.009779735854305"><ele>49.5</ele><time>2026-05-01T17:04:29.947Z</time></trkpt><trkpt lat="43.91472278423472" lon="11.00985942553154"><ele>49.25</ele><time>2026-05-01T17:04:30.948Z</time></trkpt><trkpt lat="43.91480704706123" lon="11.009975613720291"><ele>49.0</ele><time>2026-05-01T17:04:31.948Z</time></trkpt><trkpt lat="43.91494893385072" lon="11.010101761950276"><ele>50.5</ele><time>2026-05-01T17:04:32.948Z</time></trkpt><trkpt lat="43.915151517500604" lon="11.010282162555283"><ele>52.0</ele><time>2026-05-01T17:04:33.948Z</time></trkpt><trkpt lat="43.91538353937781" lon="11.010490351209961"><ele>52.0</ele><time>2026-05-01T17:04:34.948Z</time></trkpt><trkpt lat="43.91563179508396" lon="11.010708616599558"><ele>52.0</ele><time>2026-05-01T17:04:35.948Z</time></trkpt><trkpt lat="43.91586535178403" lon="11.010892933181916"><ele>52.5</ele><time>2026-05-01T17:04:36.948Z</time></trkpt><trkpt lat="43.916057008313004" lon="11.011088092200604"><ele>53.0</ele><time>2026-05-01T17:04:37.948Z</time></trkpt><trkpt lat="43.91623871061267" lon="11.011246269262807"><ele>53.0</ele><time>2026-05-01T17:04:38.948Z</time></trkpt><trkpt lat="43.91641604185045" lon="11.011397498294569"><ele>53.0</ele><time>2026-05-01T17:04:39.948Z</time></trkpt><trkpt lat="43.91660411198982" lon="11.011534069550347"><ele>53.0</ele><time>2026-05-01T17:04:40.948Z</time></trkpt><trkpt lat="43.91679606838322" lon="11.011688883476264"><ele>52.66666666666667</ele><time>2026-05-01T17:04:41.948Z</time></trkpt><trkpt lat="43.9169954563184" lon="11.011815823765303"><ele>52.33333333333333</ele><time>2026-05-01T17:04:42.948Z</time></trkpt><trkpt lat="43.9171913882508" lon="11.011947426055668"><ele>52.0</ele><time>2026-05-01T17:04:43.948Z</time></trkpt><trkpt lat="43.91739207477227" lon="11.012066422083581"><ele>52.0</ele><time>2026-05-01T17:04:44.948Z</time></trkpt><trkpt lat="43.9175932400823" lon="11.012203453847217"><ele>52.0</ele><time>2026-05-01T17:04:45.948Z</time></trkpt><trkpt lat="43.91779178723474" lon="11.01233225075838"><ele>52.0</ele><time>2026-05-01T17:04:46.948Z</time></trkpt><trkpt lat="43.91798424426846" lon="11.0124666101427"><ele>52.666666666666664</ele><time>2026-05-01T17:04:47.948Z</time></trkpt><trkpt lat="43.91817730389612" lon="11.012597526935036"><ele>53.33333333333333</ele><time>2026-05-01T17:04:48.948Z</time></trkpt><trkpt lat="43.91837323072589" lon="11.012731863405438"><ele>54.0</ele><time>2026-05-01T17:04:49.948Z</time></trkpt><trkpt lat="43.91856838513261" lon="11.012872336580358"><ele>54.0</ele><time>2026-05-01T17:04:50.948Z</time></trkpt><trkpt lat="43.918757067310075" lon="11.013013213724632"><ele>54.0</ele><time>2026-05-01T17:04:51.948Z</time></trkpt><trkpt lat="43.918945198735486" lon="11.013175547140055"><ele>54.0</ele><time>2026-05-01T17:04:52.948Z</time></trkpt><trkpt lat="43.919129038549784" lon="11.013338163485871"><ele>54.33333333333333</ele><time>2026-05-01T17:04:53.948Z</time></trkpt><trkpt lat="43.91930532328433" lon="11.01351179905816"><ele>54.666666666666664</ele><time>2026-05-01T17:04:54.948Z</time></trkpt><trkpt lat="43.91947404698078" lon="11.013707295569093"><ele>55.0</ele><time>2026-05-01T17:04:55.948Z</time></trkpt><trkpt lat="43.919633387460294" lon="11.01391376375253"><ele>55.0</ele><time>2026-05-01T17:04:56.948Z</time></trkpt><trkpt lat="43.91979589182574" lon="11.01412247757653"><ele>55.0</ele><time>2026-05-01T17:04:57.948Z</time></trkpt><trkpt lat="43.91995786975594" lon="11.014322980305911"><ele>55.0</ele><time>2026-05-01T17:04:58.948Z</time></trkpt><trkpt lat="43.92011912419491" lon="11.014524267100882"><ele>55.33333333333333</ele><time>2026-05-01T17:04:59.948Z</time></trkpt><trkpt lat="43.9202799390197" lon="11.014724330031815"><ele>55.66666666666667</ele><time>2026-05-01T17:05:00.948Z</time></trkpt><trkpt lat="43.92043952709816" lon="11.01492280083194"><ele>56.0</ele><time>2026-05-01T17:05:01.948Z</time></trkpt><trkpt lat="43.92060456764119" lon="11.01511279784348"><ele>56.333333333333336</ele><time>2026-05-01T17:05:02.948Z</time></trkpt><trkpt lat="43.92077790985422" lon="11.01528642516844"><ele>56.66666666666667</ele><time>2026-05-01T17:05:03.948Z</time></trkpt><trkpt lat="43.92095827007341" lon="11.015433688098668"><ele>57.0</ele><time>2026-05-01T17:05:04.948Z</time></trkpt><trkpt lat="43.92114886541056" lon="11.015562103523608"><ele>57.0</ele><time>2026-05-01T17:05:05.948Z</time></trkpt><trkpt lat="43.92134505267352" lon="11.015675795015133"><ele>57.0</ele><time>2026-05-01T17:05:06.948Z</time></trkpt><trkpt lat="43.92153012603935" lon="11.015817394674661"><ele>57.0</ele><time>2026-05-01T17:05:07.948Z</time></trkpt><trkpt lat="43.92172186880633" lon="11.015943497820672"><ele>56.66666666666667</ele><time>2026-05-01T17:05:08.948Z</time></trkpt><trkpt lat="43.92190566791096" lon="11.016087927079877"><ele>56.333333333333336</ele><time>2026-05-01T17:05:09.948Z</time></trkpt><trkpt lat="43.92209695107817" lon="11.016195269531917"><ele>56.0</ele><time>2026-05-01T17:05:10.948Z</time></trkpt><trkpt lat="43.92227835477802" lon="11.01634711636161"><ele>56.0</ele><time>2026-05-01T17:05:11.948Z</time></trkpt><trkpt lat="43.92246561679636" lon="11.016476935434696"><ele>56.0</ele><time>2026-05-01T17:05:12.948Z</time></trkpt><trkpt lat="43.92265488581359" lon="11.01660410953309"><ele>56.0</ele><time>2026-05-01T17:05:13.948Z</time></trkpt><trkpt lat="43.9228489173633" lon="11.016718058828742"><ele>57.66666666666667</ele><time>2026-05-01T17:05:14.948Z</time></trkpt><trkpt lat="43.923035425178476" lon="11.016843204457576"><ele>59.33333333333333</ele><time>2026-05-01T17:05:15.948Z</time></trkpt><trkpt lat="43.92321346988467" lon="11.01697392994628"><ele>61.0</ele><time>2026-05-01T17:05:16.948Z</time></trkpt><trkpt lat="43.92340664876205" lon="11.017091004951979"><ele>61.0</ele><time>2026-05-01T17:05:17.948Z</time></trkpt><trkpt lat="43.923592093905754" lon="11.017210597099965"><ele>61.0</ele><time>2026-05-01T17:05:18.948Z</time></trkpt><trkpt lat="43.92377750221713" lon="11.017334343319291"><ele>61.0</ele><time>2026-05-01T17:05:19.948Z</time></trkpt><trkpt lat="43.923961782401136" lon="11.017463440864342"><ele>61.33333333333333</ele><time>2026-05-01T17:05:20.948Z</time></trkpt><trkpt lat="43.92414027717406" lon="11.01759900827631"><ele>61.66666666666667</ele><time>2026-05-01T17:05:21.948Z</time></trkpt><trkpt lat="43.92432318630357" lon="11.01772618379286"><ele>62.0</ele><time>2026-05-01T17:05:22.948Z</time></trkpt><trkpt lat="43.92450795797514" lon="11.017850645679474"><ele>62.0</ele><time>2026-05-01T17:05:23.948Z</time></trkpt><trkpt lat="43.92469053995962" lon="11.01796272650561"><ele>62.0</ele><time>2026-05-01T17:05:24.948Z</time></trkpt><trkpt lat="43.92487729701786" lon="11.01806052499006"><ele>62.0</ele><time>2026-05-01T17:05:25.948Z</time></trkpt><trkpt lat="43.92506396747551" lon="11.018160598039966"><ele>62.333333333333336</ele><time>2026-05-01T17:05:26.948Z</time></trkpt><trkpt lat="43.925246675114614" lon="11.01825769327581"><ele>62.66666666666667</ele><time>2026-05-01T17:05:27.948Z</time></trkpt><trkpt lat="43.92542948602783" lon="11.018343387162508"><ele>63.0</ele><time>2026-05-01T17:05:28.948Z</time></trkpt><trkpt lat="43.92561717034839" lon="11.018426486118846"><ele>63.66666666666667</ele><time>2026-05-01T17:05:29.948Z</time></trkpt><trkpt lat="43.92579583037482" lon="11.018515543852365"><ele>64.33333333333334</ele><time>2026-05-01T17:05:30.948Z</time></trkpt><trkpt lat="43.92596464404602" lon="11.018592124595877"><ele>65.0</ele><time>2026-05-01T17:05:31.949Z</time></trkpt><trkpt lat="43.92613528314029" lon="11.01868742267301"><ele>65.66666666666667</ele><time>2026-05-01T17:05:32.949Z</time></trkpt><trkpt lat="43.92630959966218" lon="11.018795101449658"><ele>66.33333333333333</ele><time>2026-05-01T17:05:33.949Z</time></trkpt><trkpt lat="43.9264847039978" lon="11.018913226018563"><ele>67.0</ele><time>2026-05-01T17:05:34.949Z</time></trkpt><trkpt lat="43.92664069479033" lon="11.019025847974731"><ele>67.0</ele><time>2026-05-01T17:05:35.949Z</time></trkpt><trkpt lat="43.92679486277112" lon="11.019136973579743"><ele>67.0</ele><time>2026-05-01T17:05:36.949Z</time></trkpt><trkpt lat="43.9269392579311" lon="11.019244826076473"><ele>67.0</ele><time>2026-05-01T17:05:37.949Z</time></trkpt><trkpt lat="43.92707040318118" lon="11.019352519258538"><ele>66.75</ele><time>2026-05-01T17:05:38.949Z</time></trkpt><trkpt lat="43.92719425548592" lon="11.019457512900804"><ele>66.5</ele><time>2026-05-01T17:05:39.949Z</time></trkpt><trkpt lat="43.92731689088017" lon="11.019563649608575"><ele>66.25</ele><time>2026-05-01T17:05:40.949Z</time></trkpt><trkpt lat="43.927426659657456" lon="11.019667234444265"><ele>66.0</ele><time>2026-05-01T17:05:41.949Z</time></trkpt><trkpt lat="43.92750222557784" lon="11.019761303431215"><ele>66.0</ele><time>2026-05-01T17:05:42.949Z</time></trkpt><trkpt lat="43.92754585698032" lon="11.019848605293468"><ele>66.0</ele><time>2026-05-01T17:05:43.949Z</time></trkpt><trkpt lat="43.92758100829481" lon="11.019994133029154"><ele>66.0</ele><time>2026-05-01T17:05:45.949Z</time></trkpt><trkpt lat="43.92758714871567" lon="11.020083259423817"><ele>66.0</ele><time>2026-05-01T17:05:46.949Z</time></trkpt><trkpt lat="43.92759724716383" lon="11.020204820755223"><ele>66.0</ele><time>2026-05-01T17:05:47.949Z</time></trkpt><trkpt lat="43.927626798687726" lon="11.020336355100685"><ele>66.0</ele><time>2026-05-01T17:05:48.949Z</time></trkpt><trkpt lat="43.9276802035197" lon="11.020462802766833"><ele>67.0</ele><time>2026-05-01T17:05:49.949Z</time></trkpt><trkpt lat="43.92776692541323" lon="11.020571827170427"><ele>68.0</ele><time>2026-05-01T17:05:50.948Z</time></trkpt><trkpt lat="43.92788071218115" lon="11.020635572084057"><ele>69.0</ele><time>2026-05-01T17:05:51.948Z</time></trkpt><trkpt lat="43.92800447667876" lon="11.020651455655903"><ele>70.0</ele><time>2026-05-01T17:05:52.948Z</time></trkpt><trkpt lat="43.92813658947761" lon="11.02062296992447"><ele>70.0</ele><time>2026-05-01T17:05:53.948Z</time></trkpt><trkpt lat="43.928278505883775" lon="11.020593455914195"><ele>70.0</ele><time>2026-05-01T17:05:54.948Z</time></trkpt><trkpt lat="43.92840753013823" lon="11.020615533824408"><ele>70.0</ele><time>2026-05-01T17:05:55.948Z</time></trkpt><trkpt lat="43.928526344086215" lon="11.020656257024456"><ele>70.0</ele><time>2026-05-01T17:05:56.948Z</time></trkpt><trkpt lat="43.92861887007696" lon="11.020838672619911"><ele>70.25</ele><time>2026-05-01T17:05:57.948Z</time></trkpt><trkpt lat="43.928742660999866" lon="11.020938583165886"><ele>70.5</ele><time>2026-05-01T17:05:58.948Z</time></trkpt><trkpt lat="43.92885526445527" lon="11.02106482697611"><ele>70.75</ele><time>2026-05-01T17:05:59.948Z</time></trkpt><trkpt lat="43.928969224138974" lon="11.021190669253432"><ele>71.0</ele><time>2026-05-01T17:06:00.948Z</time></trkpt><trkpt lat="43.92908253003678" lon="11.02130309637398"><ele>71.0</ele><time>2026-05-01T17:06:01.948Z</time></trkpt><trkpt lat="43.929192250246096" lon="11.021414127874763"><ele>71.0</ele><time>2026-05-01T17:06:02.948Z</time></trkpt><trkpt lat="43.92929689962862" lon="11.021520264835932"><ele>71.0</ele><time>2026-05-01T17:06:03.948Z</time></trkpt><trkpt lat="43.9294001174618" lon="11.021635283754058"><ele>71.0</ele><time>2026-05-01T17:06:04.948Z</time></trkpt><trkpt lat="43.929503449000514" lon="11.021746259639935"><ele>71.75</ele><time>2026-05-01T17:06:05.948Z</time></trkpt><trkpt lat="43.92960421916417" lon="11.021854616795386"><ele>72.5</ele><time>2026-05-01T17:06:06.948Z</time></trkpt><trkpt lat="43.929705053611855" lon="11.02196748932609"><ele>73.25</ele><time>2026-05-01T17:06:07.948Z</time></trkpt><trkpt lat="43.92980454069001" lon="11.022077000575376"><ele>74.0</ele><time>2026-05-01T17:06:08.948Z</time></trkpt><trkpt lat="43.92989592652131" lon="11.022175564763515"><ele>74.0</ele><time>2026-05-01T17:06:09.948Z</time></trkpt><trkpt lat="43.929978110309676" lon="11.022265914804564"><ele>74.0</ele><time>2026-05-01T17:06:10.948Z</time></trkpt><trkpt lat="43.9300554632581" lon="11.022348116789109"><ele>74.0</ele><time>2026-05-01T17:06:11.948Z</time></trkpt><trkpt lat="43.93013790433123" lon="11.022444496401087"><ele>74.0</ele><time>2026-05-01T17:06:12.948Z</time></trkpt><trkpt lat="43.930224414683344" lon="11.022539806095306"><ele>74.0</ele><time>2026-05-01T17:06:13.948Z</time></trkpt><trkpt lat="43.93031695519382" lon="11.022639453786994"><ele>75.4</ele><time>2026-05-01T17:06:14.948Z</time></trkpt><trkpt lat="43.93041158445091" lon="11.022744159003958"><ele>76.80000000000001</ele><time>2026-05-01T17:06:15.948Z</time></trkpt><trkpt lat="43.9305018066043" lon="11.022844016464376"><ele>78.19999999999999</ele><time>2026-05-01T17:06:16.948Z</time></trkpt><trkpt lat="43.930581248508986" lon="11.02294015344339"><ele>79.6</ele><time>2026-05-01T17:06:17.948Z</time></trkpt><trkpt lat="43.93066243055328" lon="11.023032568470304"><ele>81.0</ele><time>2026-05-01T17:06:18.948Z</time></trkpt><trkpt lat="43.9307468865705" lon="11.023121782864274"><ele>81.0</ele><time>2026-05-01T17:06:19.948Z</time></trkpt><trkpt lat="43.93083185202062" lon="11.023204457962866"><ele>81.0</ele><time>2026-05-01T17:06:20.948Z</time></trkpt><trkpt lat="43.93091272633094" lon="11.023286224527377"><ele>81.0</ele><time>2026-05-01T17:06:21.948Z</time></trkpt><trkpt lat="43.93098501764409" lon="11.023356860034355"><ele>81.0</ele><time>2026-05-01T17:06:22.948Z</time></trkpt><trkpt lat="43.931042478406326" lon="11.023418760892968"><ele>81.0</ele><time>2026-05-01T17:06:23.948Z</time></trkpt><trkpt lat="43.93110412518738" lon="11.023480132458108"><ele>81.0</ele><time>2026-05-01T17:06:24.948Z</time></trkpt><trkpt lat="43.93120499321893" lon="11.023578695323193"><ele>80.83333333333333</ele><time>2026-05-01T17:06:26.948Z</time></trkpt><trkpt lat="43.93129619793198" lon="11.023668643787854"><ele>80.66666666666667</ele><time>2026-05-01T17:06:28.948Z</time></trkpt><trkpt lat="43.93134780097967" lon="11.023722712434326"><ele>80.5</ele><time>2026-05-01T17:06:29.948Z</time></trkpt><trkpt lat="43.93139633318266" lon="11.023785570889098"><ele>80.33333333333334</ele><time>2026-05-01T17:06:30.948Z</time></trkpt><trkpt lat="43.93146564776935" lon="11.023875929571076"><ele>80.16666666666667</ele><time>2026-05-01T17:06:32.948Z</time></trkpt><trkpt lat="43.9315199487018" lon="11.023942424883348"><ele>80.0</ele><time>2026-05-01T17:06:34.948Z</time></trkpt><trkpt lat="43.931553953542604" lon="11.024028875158619"><ele>80.2</ele><time>2026-05-01T17:06:36.948Z</time></trkpt><trkpt lat="43.93149523336403" lon="11.024204956530863"><ele>80.4</ele><time>2026-05-01T17:06:38.948Z</time></trkpt><trkpt lat="43.93146755794921" lon="11.024332893834947"><ele>80.6</ele><time>2026-05-01T17:06:39.948Z</time></trkpt><trkpt lat="43.931434080795015" lon="11.024461481243394"><ele>80.8</ele><time>2026-05-01T17:06:40.948Z</time></trkpt><trkpt lat="43.931394545013156" lon="11.024605007988258"><ele>81.0</ele><time>2026-05-01T17:06:41.948Z</time></trkpt><trkpt lat="43.931364660223764" lon="11.024719808820594"><ele>81.0</ele><time>2026-05-01T17:06:42.948Z</time></trkpt><trkpt lat="43.93134466553114" lon="11.024811325476717"><ele>81.0</ele><time>2026-05-01T17:06:43.948Z</time></trkpt><trkpt lat="43.9313196359069" lon="11.024896722543009"><ele>81.0</ele><time>2026-05-01T17:06:44.948Z</time></trkpt><trkpt lat="43.93128273126069" lon="11.024971478948835"><ele>81.0</ele><time>2026-05-01T17:06:45.948Z</time></trkpt><trkpt lat="43.93124347718616" lon="11.02513190763067"><ele>81.0</ele><time>2026-05-01T17:06:47.948Z</time></trkpt><trkpt lat="43.93122655246923" lon="11.025268363357645"><ele>81.0</ele><time>2026-05-01T17:06:49.948Z</time></trkpt><trkpt lat="43.93119199827212" lon="11.025358038418199"><ele>81.0</ele><time>2026-05-01T17:06:51.948Z</time></trkpt><trkpt lat="43.93117746897255" lon="11.025456825579576"><ele>81.0</ele><time>2026-05-01T17:06:54.948Z</time></trkpt><trkpt lat="43.931165001196284" lon="11.025566135700075"><ele>81.0</ele><time>2026-05-01T17:07:42.949Z</time></trkpt><trkpt lat="43.93111309543303" lon="11.025767272984465"><ele>81.0</ele><time>2026-05-01T17:07:44.949Z</time></trkpt><trkpt lat="43.93108993808883" lon="11.025899589107084"><ele>81.0</ele><time>2026-05-01T17:07:45.949Z</time></trkpt><trkpt lat="43.9310533367093" lon="11.026052627948028"><ele>81.0</ele><time>2026-05-01T17:07:46.949Z</time></trkpt><trkpt lat="43.9310098629015" lon="11.026213876517229"><ele>81.0</ele><time>2026-05-01T17:07:47.949Z</time></trkpt><trkpt lat="43.93096705599819" lon="11.02637731259415"><ele>81.0</ele><time>2026-05-01T17:07:48.949Z</time></trkpt><trkpt lat="43.93089907179826" lon="11.026533335264173"><ele>81.0</ele><time>2026-05-01T17:07:49.949Z</time></trkpt><trkpt lat="43.930849455063715" lon="11.026714167913171"><ele>80.75</ele><time>2026-05-01T17:07:50.949Z</time></trkpt><trkpt lat="43.93079284767668" lon="11.026883200098597"><ele>80.5</ele><time>2026-05-01T17:07:51.949Z</time></trkpt><trkpt lat="43.930749244472985" lon="11.027062966770425"><ele>80.25</ele><time>2026-05-01T17:07:52.949Z</time></trkpt><trkpt lat="43.93072990909209" lon="11.027254249549069"><ele>80.0</ele><time>2026-05-01T17:07:53.949Z</time></trkpt><trkpt lat="43.93072710256716" lon="11.027467321697314"><ele>80.0</ele><time>2026-05-01T17:07:54.949Z</time></trkpt><trkpt lat="43.9307363569119" lon="11.027679277198029"><ele>80.0</ele><time>2026-05-01T17:07:55.949Z</time></trkpt><trkpt lat="43.93074243569819" lon="11.027889510136749"><ele>80.0</ele><time>2026-05-01T17:07:56.95Z</time></trkpt><trkpt lat="43.930750203772774" lon="11.02810302938489"><ele>80.25</ele><time>2026-05-01T17:07:57.95Z</time></trkpt><trkpt lat="43.930754368175045" lon="11.028311109118771"><ele>80.5</ele><time>2026-05-01T17:07:58.95Z</time></trkpt><trkpt lat="43.93075329595927" lon="11.028524738809045"><ele>80.75</ele><time>2026-05-01T17:07:59.95Z</time></trkpt><trkpt lat="43.930751102690266" lon="11.02872515349483"><ele>81.0</ele><time>2026-05-01T17:08:00.95Z</time></trkpt><trkpt lat="43.93074164141664" lon="11.02893886150432"><ele>81.0</ele><time>2026-05-01T17:08:01.95Z</time></trkpt><trkpt lat="43.930736068393394" lon="11.029172321818429"><ele>81.0</ele><time>2026-05-01T17:08:02.95Z</time></trkpt><trkpt lat="43.93071776944754" lon="11.02937611274218"><ele>81.0</ele><time>2026-05-01T17:08:03.951Z</time></trkpt><trkpt lat="43.93069290136789" lon="11.029572991991595"><ele>81.0</ele><time>2026-05-01T17:08:04.951Z</time></trkpt><trkpt lat="43.93064641760448" lon="11.02976293173191"><ele>81.0</ele><time>2026-05-01T17:08:05.95Z</time></trkpt><trkpt lat="43.930548676005095" lon="11.029903012699432"><ele>81.0</ele><time>2026-05-01T17:08:06.95Z</time></trkpt><trkpt lat="43.93048563055768" lon="11.030086494071895"><ele>81.0</ele><time>2026-05-01T17:08:07.95Z</time></trkpt><trkpt lat="43.930409571358126" lon="11.030269391865835"><ele>81.0</ele><time>2026-05-01T17:08:08.95Z</time></trkpt><trkpt lat="43.93033754943226" lon="11.030465789154547"><ele>81.0</ele><time>2026-05-01T17:08:09.95Z</time></trkpt><trkpt lat="43.93026878728292" lon="11.030648143785456"><ele>81.0</ele><time>2026-05-01T17:08:10.95Z</time></trkpt><trkpt lat="43.93020894344088" lon="11.03082727306582"><ele>81.0</ele><time>2026-05-01T17:08:11.95Z</time></trkpt><trkpt lat="43.930156754330596" lon="11.031018507934988"><ele>81.0</ele><time>2026-05-01T17:08:12.95Z</time></trkpt><trkpt lat="43.930103506094504" lon="11.031209215577823"><ele>81.0</ele><time>2026-05-01T17:08:13.95Z</time></trkpt><trkpt lat="43.93004257256766" lon="11.031402666113282"><ele>81.0</ele><time>2026-05-01T17:08:14.95Z</time></trkpt><trkpt lat="43.92996776281607" lon="11.031579510142109"><ele>81.0</ele><time>2026-05-01T17:08:15.95Z</time></trkpt><trkpt lat="43.92988032299071" lon="11.031722944497979"><ele>80.25</ele><time>2026-05-01T17:08:16.95Z</time></trkpt><trkpt lat="43.92978808569965" lon="11.03185338760117"><ele>79.5</ele><time>2026-05-01T17:08:17.95Z</time></trkpt><trkpt lat="43.92969633616571" lon="11.031963912510616"><ele>78.75</ele><time>2026-05-01T17:08:18.95Z</time></trkpt><trkpt lat="43.929613544015005" lon="11.032066890925451"><ele>78.0</ele><time>2026-05-01T17:08:19.95Z</time></trkpt><trkpt lat="43.92953954821801" lon="11.032163639011968"><ele>78.0</ele><time>2026-05-01T17:08:20.95Z</time></trkpt><trkpt lat="43.929463162726705" lon="11.03224100476609"><ele>78.0</ele><time>2026-05-01T17:08:21.95Z</time></trkpt><trkpt lat="43.929385825013505" lon="11.032293787905397"><ele>78.0</ele><time>2026-05-01T17:08:22.95Z</time></trkpt><trkpt lat="43.929321800556025" lon="11.032365942680457"><ele>78.0</ele><time>2026-05-01T17:08:23.95Z</time></trkpt><trkpt lat="43.92928170948775" lon="11.032465055262998"><ele>78.0</ele><time>2026-05-01T17:08:24.95Z</time></trkpt><trkpt lat="43.92924407640154" lon="11.032601654129254"><ele>77.5</ele><time>2026-05-01T17:08:25.95Z</time></trkpt><trkpt lat="43.929173357551576" lon="11.032733001073668"><ele>77.0</ele><time>2026-05-01T17:08:26.95Z</time></trkpt><trkpt lat="43.92908427919404" lon="11.032852804742626"><ele>76.5</ele><time>2026-05-01T17:08:27.95Z</time></trkpt><trkpt lat="43.92897677107033" lon="11.032961118861202"><ele>76.0</ele><time>2026-05-01T17:08:28.95Z</time></trkpt><trkpt lat="43.92889733653115" lon="11.033077220821255"><ele>76.0</ele><time>2026-05-01T17:08:29.95Z</time></trkpt><trkpt lat="43.92884562992394" lon="11.033204480487475"><ele>76.0</ele><time>2026-05-01T17:08:30.95Z</time></trkpt><trkpt lat="43.92879390907148" lon="11.033316855481493"><ele>76.0</ele><time>2026-05-01T17:08:31.95Z</time></trkpt><trkpt lat="43.928732011972755" lon="11.033428354364222"><ele>76.0</ele><time>2026-05-01T17:08:32.951Z</time></trkpt><trkpt lat="43.92868698512609" lon="11.033553223349482"><ele>76.0</ele><time>2026-05-01T17:08:33.951Z</time></trkpt><trkpt lat="43.9286425077698" lon="11.033681191694109"><ele>76.0</ele><time>2026-05-01T17:08:34.951Z</time></trkpt><trkpt lat="43.92860078335059" lon="11.0338006798412"><ele>76.0</ele><time>2026-05-01T17:08:35.951Z</time></trkpt><trkpt lat="43.928559249678315" lon="11.033917092820138"><ele>76.0</ele><time>2026-05-01T17:08:36.951Z</time></trkpt><trkpt lat="43.928515107945046" lon="11.034040815858317"><ele>76.0</ele><time>2026-05-01T17:08:37.951Z</time></trkpt><trkpt lat="43.92846568144228" lon="11.034167386540222"><ele>76.0</ele><time>2026-05-01T17:08:38.951Z</time></trkpt><trkpt lat="43.92842553651451" lon="11.034289189497168"><ele>76.0</ele><time>2026-05-01T17:08:39.951Z</time></trkpt><trkpt lat="43.92838395837831" lon="11.034401735181499"><ele>76.0</ele><time>2026-05-01T17:08:40.951Z</time></trkpt><trkpt lat="43.9283457783751" lon="11.034503754669075"><ele>76.0</ele><time>2026-05-01T17:08:41.951Z</time></trkpt><trkpt lat="43.92831139241836" lon="11.034615474381583"><ele>76.0</ele><time>2026-05-01T17:08:42.951Z</time></trkpt><trkpt lat="43.92827825596013" lon="11.0347118099741"><ele>76.0</ele><time>2026-05-01T17:08:43.951Z</time></trkpt><trkpt lat="43.928236046047616" lon="11.03481582643128"><ele>76.0</ele><time>2026-05-01T17:08:44.951Z</time></trkpt><trkpt lat="43.92818811315607" lon="11.034926688316908"><ele>75.83333333333333</ele><time>2026-05-01T17:08:45.951Z</time></trkpt><trkpt lat="43.92811929458031" lon="11.035019748789988"><ele>75.66666666666666</ele><time>2026-05-01T17:08:46.951Z</time></trkpt><trkpt lat="43.92805301066505" lon="11.035109774236876"><ele>75.5</ele><time>2026-05-01T17:08:47.951Z</time></trkpt><trkpt lat="43.92801391560972" lon="11.035180456940783"><ele>75.33333333333333</ele><time>2026-05-01T17:08:48.951Z</time></trkpt><trkpt lat="43.927944886251474" lon="11.035268976978976"><ele>75.16666666666667</ele><time>2026-05-01T17:08:50.951Z</time></trkpt><trkpt lat="43.927882428698645" lon="11.035358910165227"><ele>75.0</ele><time>2026-05-01T17:08:52.951Z</time></trkpt><trkpt lat="43.9277993986188" lon="11.035377312585132"><ele>75.0</ele><time>2026-05-01T17:08:54.951Z</time></trkpt><trkpt lat="43.927715219781604" lon="11.035287311607476"><ele>75.0</ele><time>2026-05-01T17:08:56.951Z</time></trkpt><trkpt lat="43.92760573926061" lon="11.035186542088967"><ele>75.0</ele><time>2026-05-01T17:08:58.951Z</time></trkpt><trkpt lat="43.927548870318304" lon="11.035126128035891"><ele>75.0</ele><time>2026-05-01T17:08:59.951Z</time></trkpt><trkpt lat="43.92749254864415" lon="11.035060897347607"><ele>75.0</ele><time>2026-05-01T17:09:00.951Z</time></trkpt><trkpt lat="43.92742344588033" lon="11.034986088267557"><ele>74.6</ele><time>2026-05-01T17:09:01.951Z</time></trkpt><trkpt lat="43.92733451592587" lon="11.034912731665692"><ele>74.2</ele><time>2026-05-01T17:09:02.951Z</time></trkpt><trkpt lat="43.927259815043875" lon="11.034825660100699"><ele>73.8</ele><time>2026-05-01T17:09:03.951Z</time></trkpt><trkpt lat="43.92717184478777" lon="11.03474755153913"><ele>73.4</ele><time>2026-05-01T17:09:04.951Z</time></trkpt><trkpt lat="43.927075726370724" lon="11.034667391314276"><ele>73.0</ele><time>2026-05-01T17:09:05.951Z</time></trkpt><trkpt lat="43.92698251822433" lon="11.034596818987032"><ele>73.0</ele><time>2026-05-01T17:09:06.951Z</time></trkpt><trkpt lat="43.92690583503728" lon="11.034534060880942"><ele>73.0</ele><time>2026-05-01T17:09:07.951Z</time></trkpt><trkpt lat="43.92684171426522" lon="11.034482649254935"><ele>73.0</ele><time>2026-05-01T17:09:08.951Z</time></trkpt><trkpt lat="43.92678964440631" lon="11.034432913908324"><ele>73.0</ele><time>2026-05-01T17:09:09.951Z</time></trkpt><trkpt lat="43.92669612172798" lon="11.03435780542005"><ele>73.0</ele><time>2026-05-01T17:09:11.951Z</time></trkpt><trkpt lat="43.92664098919589" lon="11.034311606520747"><ele>73.0</ele><time>2026-05-01T17:09:12.951Z</time></trkpt><trkpt lat="43.92658282407818" lon="11.03427613434326"><ele>73.2</ele><time>2026-05-01T17:09:13.951Z</time></trkpt><trkpt lat="43.926480255678705" lon="11.034340230837174"><ele>73.4</ele><time>2026-05-01T17:09:15.951Z</time></trkpt><trkpt lat="43.92646254924771" lon="11.034464956553467"><ele>73.60000000000001</ele><time>2026-05-01T17:09:16.951Z</time></trkpt><trkpt lat="43.92643423613002" lon="11.034591608940254"><ele>73.8</ele><time>2026-05-01T17:09:17.951Z</time></trkpt><trkpt lat="43.926388370450994" lon="11.034720557704452"><ele>74.0</ele><time>2026-05-01T17:09:18.951Z</time></trkpt><trkpt lat="43.9263359984278" lon="11.034839818959737"><ele>74.0</ele><time>2026-05-01T17:09:19.951Z</time></trkpt><trkpt lat="43.92625225357955" lon="11.034933087403791"><ele>74.0</ele><time>2026-05-01T17:09:20.951Z</time></trkpt><trkpt lat="43.92619723106061" lon="11.035063328931555"><ele>74.0</ele><time>2026-05-01T17:09:21.951Z</time></trkpt><trkpt lat="43.92613456936642" lon="11.035222973140462"><ele>74.0</ele><time>2026-05-01T17:09:22.951Z</time></trkpt><trkpt lat="43.926082938716796" lon="11.035352646478538"><ele>73.83333333333334</ele><time>2026-05-01T17:09:23.951Z</time></trkpt><trkpt lat="43.92603289557367" lon="11.035468601759282"><ele>73.66666666666667</ele><time>2026-05-01T17:09:24.951Z</time></trkpt><trkpt lat="43.92598512697474" lon="11.035583262926544"><ele>73.5</ele><time>2026-05-01T17:09:25.951Z</time></trkpt><trkpt lat="43.925937995053815" lon="11.03568958194021"><ele>73.33333333333333</ele><time>2026-05-01T17:09:26.951Z</time></trkpt><trkpt lat="43.9258961980389" lon="11.035784924704563"><ele>73.16666666666666</ele><time>2026-05-01T17:09:27.951Z</time></trkpt><trkpt lat="43.925857216458" lon="11.035870342874372"><ele>73.0</ele><time>2026-05-01T17:09:28.951Z</time></trkpt><trkpt lat="43.9258018950571" lon="11.036014370141803"><ele>73.0</ele><time>2026-05-01T17:09:30.951Z</time></trkpt><trkpt lat="43.92576953144439" lon="11.036158749535653"><ele>73.0</ele><time>2026-05-01T17:09:32.951Z</time></trkpt><trkpt lat="43.92580370800836" lon="11.036299384004705"><ele>73.0</ele><time>2026-05-01T17:09:34.952Z</time></trkpt><trkpt lat="43.9258630481702" lon="11.036331440917216"><ele>73.0</ele><time>2026-05-01T17:09:35.952Z</time></trkpt><trkpt lat="43.92592976151213" lon="11.036342090050187"><ele>73.0</ele><time>2026-05-01T17:09:36.952Z</time></trkpt><trkpt lat="43.926005871397784" lon="11.036362637663862"><ele>73.0</ele><time>2026-05-01T17:09:37.952Z</time></trkpt><trkpt lat="43.92608310712616" lon="11.036417890356793"><ele>73.0</ele><time>2026-05-01T17:09:38.952Z</time></trkpt><trkpt lat="43.926168816386514" lon="11.036496200408607"><ele>73.0</ele><time>2026-05-01T17:09:39.952Z</time></trkpt><trkpt lat="43.92625607867855" lon="11.036561981172554"><ele>73.0</ele><time>2026-05-01T17:09:40.952Z</time></trkpt><trkpt lat="43.9263551972614" lon="11.036636798445814"><ele>73.0</ele><time>2026-05-01T17:09:41.952Z</time></trkpt><trkpt lat="43.926449411221284" lon="11.03670787705882"><ele>73.0</ele><time>2026-05-01T17:09:42.952Z</time></trkpt><trkpt lat="43.92652816236333" lon="11.036762929536074"><ele>73.16666666666666</ele><time>2026-05-01T17:09:43.952Z</time></trkpt><trkpt lat="43.92659285272323" lon="11.03682675677409"><ele>73.33333333333333</ele><time>2026-05-01T17:09:44.952Z</time></trkpt><trkpt lat="43.92665923350897" lon="11.036882254570228"><ele>73.5</ele><time>2026-05-01T17:09:45.952Z</time></trkpt><trkpt lat="43.92671875062337" lon="11.036929961313295"><ele>73.66666666666667</ele><time>2026-05-01T17:09:46.952Z</time></trkpt><trkpt lat="43.926775308676945" lon="11.036973519385834"><ele>73.83333333333334</ele><time>2026-05-01T17:09:47.952Z</time></trkpt><trkpt lat="43.92685617096987" lon="11.037046400110475"><ele>74.0</ele><time>2026-05-01T17:09:49.952Z</time></trkpt><trkpt lat="43.92693862273251" lon="11.036973964476815"><ele>74.0</ele><time>2026-05-01T17:09:51.952Z</time></trkpt><trkpt lat="43.926923970860756" lon="11.036827724782773"><ele>74.0</ele><time>2026-05-01T17:09:53.952Z</time></trkpt><trkpt lat="43.92680057062502" lon="11.036786958001697"><ele>74.0</ele><time>2026-05-01T17:09:55.952Z</time></trkpt><trkpt lat="43.926672478541896" lon="11.036807192656912"><ele>74.0</ele><time>2026-05-01T17:09:57.952Z</time></trkpt><trkpt lat="43.92660641661072" lon="11.036797006425243"><ele>74.0</ele><time>2026-05-01T17:09:58.952Z</time></trkpt><trkpt lat="43.92649843762554" lon="11.036709507191524"><ele>74.0</ele><time>2026-05-01T17:10:00.952Z</time></trkpt><trkpt lat="43.92643723845282" lon="11.036661205695829"><ele>74.0</ele><time>2026-05-01T17:10:01.952Z</time></trkpt><trkpt lat="43.92638181503085" lon="11.036610728701332"><ele>74.0</ele><time>2026-05-01T17:10:02.951Z</time></trkpt><trkpt lat="43.92632020292503" lon="11.036563568048825"><ele>74.0</ele><time>2026-05-01T17:10:03.952Z</time></trkpt><trkpt lat="43.92622203677104" lon="11.036497842110814"><ele>74.0</ele><time>2026-05-01T17:10:05.952Z</time></trkpt><trkpt lat="43.92614486014594" lon="11.036392189529748"><ele>74.0</ele><time>2026-05-01T17:10:07.952Z</time></trkpt><trkpt lat="43.92606323584388" lon="11.036338392161234"><ele>73.8</ele><time>2026-05-01T17:10:09.952Z</time></trkpt><trkpt lat="43.9259856818226" lon="11.036244997488943"><ele>73.60000000000001</ele><time>2026-05-01T17:10:11.952Z</time></trkpt><trkpt lat="43.92590578737874" lon="11.036184194146138"><ele>73.4</ele><time>2026-05-01T17:10:13.951Z</time></trkpt><trkpt lat="43.925890788779526" lon="11.03609250158312"><ele>73.2</ele><time>2026-05-01T17:10:14.952Z</time></trkpt><trkpt lat="43.92579713225753" lon="11.036083996554453"><ele>73.0</ele><time>2026-05-01T17:10:15.951Z</time></trkpt><trkpt lat="43.92570269574853" lon="11.036051300559679"><ele>72.8</ele><time>2026-05-01T17:10:16.951Z</time></trkpt><trkpt lat="43.925623056441125" lon="11.035973164358067"><ele>72.6</ele><time>2026-05-01T17:10:17.951Z</time></trkpt><trkpt lat="43.925519713844494" lon="11.035898987529862"><ele>72.4</ele><time>2026-05-01T17:10:18.951Z</time></trkpt><trkpt lat="43.92543321299843" lon="11.035815236048066"><ele>72.2</ele><time>2026-05-01T17:10:19.951Z</time></trkpt><trkpt lat="43.92532340807836" lon="11.035747592991044"><ele>72.0</ele><time>2026-05-01T17:10:20.951Z</time></trkpt><trkpt lat="43.925216504377104" lon="11.03566841049764"><ele>71.75</ele><time>2026-05-01T17:10:21.951Z</time></trkpt><trkpt lat="43.925114916279256" lon="11.035585670623695"><ele>71.5</ele><time>2026-05-01T17:10:22.951Z</time></trkpt><trkpt lat="43.92500726643546" lon="11.035508781959802"><ele>71.25</ele><time>2026-05-01T17:10:23.951Z</time></trkpt><trkpt lat="43.92488906824888" lon="11.035413642413591"><ele>71.0</ele><time>2026-05-01T17:10:24.951Z</time></trkpt><trkpt lat="43.92477854591053" lon="11.03531832714902"><ele>70.5</ele><time>2026-05-01T17:10:25.951Z</time></trkpt><trkpt lat="43.92467695186513" lon="11.03523219546848"><ele>70.0</ele><time>2026-05-01T17:10:26.951Z</time></trkpt><trkpt lat="43.9245777159845" lon="11.035155851467026"><ele>69.5</ele><time>2026-05-01T17:10:27.951Z</time></trkpt><trkpt lat="43.924484025494785" lon="11.03507770832123"><ele>69.0</ele><time>2026-05-01T17:10:28.952Z</time></trkpt><trkpt lat="43.92438941033862" lon="11.03500316869698"><ele>69.0</ele><time>2026-05-01T17:10:29.952Z</time></trkpt><trkpt lat="43.92429452244491" lon="11.034939124925428"><ele>69.0</ele><time>2026-05-01T17:10:30.952Z</time></trkpt><trkpt lat="43.92420175827176" lon="11.034831563073118"><ele>69.0</ele><time>2026-05-01T17:10:31.952Z</time></trkpt><trkpt lat="43.92410520765427" lon="11.034746449967837"><ele>69.0</ele><time>2026-05-01T17:10:32.952Z</time></trkpt><trkpt lat="43.92400849705978" lon="11.034669778938978"><ele>68.2</ele><time>2026-05-01T17:10:33.952Z</time></trkpt><trkpt lat="43.92391043019958" lon="11.03458996123441"><ele>67.4</ele><time>2026-05-01T17:10:34.952Z</time></trkpt><trkpt lat="43.92381702765693" lon="11.034512116269807"><ele>66.6</ele><time>2026-05-01T17:10:35.952Z</time></trkpt><trkpt lat="43.923741505838464" lon="11.034432050039921"><ele>65.8</ele><time>2026-05-01T17:10:36.952Z</time></trkpt><trkpt lat="43.92367333448889" lon="11.034359164017564"><ele>65.0</ele><time>2026-05-01T17:10:37.952Z</time></trkpt><trkpt lat="43.92362105765428" lon="11.034268028704407"><ele>65.0</ele><time>2026-05-01T17:10:38.952Z</time></trkpt><trkpt lat="43.923556285315925" lon="11.034197970054198"><ele>65.0</ele><time>2026-05-01T17:10:39.952Z</time></trkpt><trkpt lat="43.92347940587109" lon="11.034161086751256"><ele>65.0</ele><time>2026-05-01T17:10:40.952Z</time></trkpt><trkpt lat="43.923378629346594" lon="11.034172557359623"><ele>65.0</ele><time>2026-05-01T17:10:41.952Z</time></trkpt><trkpt lat="43.92323816668145" lon="11.034164281990142"><ele>65.0</ele><time>2026-05-01T17:10:42.952Z</time></trkpt><trkpt lat="43.92309801245698" lon="11.034125137173024"><ele>64.25</ele><time>2026-05-01T17:10:43.952Z</time></trkpt><trkpt lat="43.92295661046014" lon="11.0340345786411"><ele>63.5</ele><time>2026-05-01T17:10:44.952Z</time></trkpt><trkpt lat="43.92282215906831" lon="11.03398371303128"><ele>62.75</ele><time>2026-05-01T17:10:45.952Z</time></trkpt><trkpt lat="43.922701537450216" lon="11.033952484012705"><ele>62.0</ele><time>2026-05-01T17:10:46.952Z</time></trkpt><trkpt lat="43.92259595681202" lon="11.033904492737506"><ele>61.8</ele><time>2026-05-01T17:10:47.952Z</time></trkpt><trkpt lat="43.92249103489906" lon="11.033867805020195"><ele>61.6</ele><time>2026-05-01T17:10:48.952Z</time></trkpt><trkpt lat="43.922394083297924" lon="11.033824715366192"><ele>61.39999999999999</ele><time>2026-05-01T17:10:49.952Z</time></trkpt><trkpt lat="43.9223030253441" lon="11.033782868340626"><ele>61.199999999999996</ele><time>2026-05-01T17:10:50.952Z</time></trkpt><trkpt lat="43.92221095122133" lon="11.033749004237862"><ele>61.0</ele><time>2026-05-01T17:10:51.952Z</time></trkpt><trkpt lat="43.922117574110814" lon="11.033710757365641"><ele>61.0</ele><time>2026-05-01T17:10:52.952Z</time></trkpt><trkpt lat="43.922023957643816" lon="11.03368015487041"><ele>60.99999999999999</ele><time>2026-05-01T17:10:53.952Z</time></trkpt><trkpt lat="43.921926822566" lon="11.03364551719722"><ele>60.99999999999999</ele><time>2026-05-01T17:10:54.952Z</time></trkpt><trkpt lat="43.921832921596426" lon="11.033608760953232"><ele>61.0</ele><time>2026-05-01T17:10:55.952Z</time></trkpt><trkpt lat="43.92173681023092" lon="11.033571333753018"><ele>61.0</ele><time>2026-05-01T17:10:56.952Z</time></trkpt><trkpt lat="43.92164510958612" lon="11.033537363988122"><ele>60.33333333333333</ele><time>2026-05-01T17:10:57.952Z</time></trkpt><trkpt lat="43.92155541008226" lon="11.033500988219568"><ele>59.666666666666664</ele><time>2026-05-01T17:10:58.952Z</time></trkpt><trkpt lat="43.92148973001247" lon="11.03347429054947"><ele>59.0</ele><time>2026-05-01T17:10:59.952Z</time></trkpt><trkpt lat="43.92136979047306" lon="11.033427121862223"><ele>58.33333333333333</ele><time>2026-05-01T17:11:01.952Z</time></trkpt><trkpt lat="43.92132775107884" lon="11.033341746810597"><ele>57.666666666666664</ele><time>2026-05-01T17:11:02.952Z</time></trkpt><trkpt lat="43.9212819162373" lon="11.033256422192837"><ele>57.0</ele><time>2026-05-01T17:11:03.952Z</time></trkpt><trkpt lat="43.921225840567764" lon="11.03317275743993"><ele>57.0</ele><time>2026-05-01T17:11:04.952Z</time></trkpt><trkpt lat="43.92121227297329" lon="11.033031899175041"><ele>57.0</ele><time>2026-05-01T17:11:05.952Z</time></trkpt><trkpt lat="43.9211781131782" lon="11.032908901213048"><ele>57.0</ele><time>2026-05-01T17:11:06.952Z</time></trkpt><trkpt lat="43.921119678557766" lon="11.032834100684353"><ele>57.0</ele><time>2026-05-01T17:11:07.952Z</time></trkpt><trkpt lat="43.92111215117848" lon="11.03273054984457"><ele>57.0</ele><time>2026-05-01T17:11:08.952Z</time></trkpt><trkpt lat="43.92108834743382" lon="11.032648713019643"><ele>57.0</ele><time>2026-05-01T17:11:09.952Z</time></trkpt><trkpt lat="43.921076949119175" lon="11.032557520025088"><ele>57.166666666666664</ele><time>2026-05-01T17:11:10.952Z</time></trkpt><trkpt lat="43.92108543971227" lon="11.032453752400562"><ele>57.33333333333333</ele><time>2026-05-01T17:11:11.952Z</time></trkpt><trkpt lat="43.921109810120946" lon="11.032360933474164"><ele>57.5</ele><time>2026-05-01T17:11:12.952Z</time></trkpt><trkpt lat="43.92113864338545" lon="11.032264590062145"><ele>57.666666666666664</ele><time>2026-05-01T17:11:13.952Z</time></trkpt><trkpt lat="43.92116886319486" lon="11.032169035425452"><ele>57.83333333333333</ele><time>2026-05-01T17:11:14.952Z</time></trkpt><trkpt lat="43.92123065751602" lon="11.032035963499098"><ele>58.0</ele><time>2026-05-01T17:11:15.952Z</time></trkpt><trkpt lat="43.92128747356523" lon="11.031835479177555"><ele>58.666666666666664</ele><time>2026-05-01T17:11:16.952Z</time></trkpt><trkpt lat="43.921391957647195" lon="11.031576011824217"><ele>59.33333333333333</ele><time>2026-05-01T17:11:17.952Z</time></trkpt><trkpt lat="43.921497762472335" lon="11.031309888789528"><ele>60.0</ele><time>2026-05-01T17:11:18.952Z</time></trkpt><trkpt lat="43.921590275991875" lon="11.03105505123841"><ele>60.5</ele><time>2026-05-01T17:11:19.952Z</time></trkpt><trkpt lat="43.92169939108111" lon="11.030742617256134"><ele>61.0</ele><time>2026-05-01T17:11:20.952Z</time></trkpt><trkpt lat="43.921815271820094" lon="11.030394683621923"><ele>62.0</ele><time>2026-05-01T17:11:21.952Z</time></trkpt><trkpt lat="43.921925348428246" lon="11.030059163153902"><ele>63.0</ele><time>2026-05-01T17:11:22.952Z</time></trkpt><trkpt lat="43.922038014115365" lon="11.02973794877092"><ele>63.5</ele><time>2026-05-01T17:11:23.952Z</time></trkpt><trkpt lat="43.92215143585967" lon="11.029411246870989"><ele>64.0</ele><time>2026-05-01T17:11:24.952Z</time></trkpt><trkpt lat="43.9222550040958" lon="11.029113285031546"><ele>64.0</ele><time>2026-05-01T17:11:25.952Z</time></trkpt><trkpt lat="43.92234290346741" lon="11.028829899636808"><ele>64.0</ele><time>2026-05-01T17:11:26.952Z</time></trkpt><trkpt lat="43.92244289541646" lon="11.028545854641765"><ele>64.0</ele><time>2026-05-01T17:11:27.952Z</time></trkpt><trkpt lat="43.92254499650685" lon="11.02827004283321"><ele>64.0</ele><time>2026-05-01T17:11:28.952Z</time></trkpt><trkpt lat="43.922659287373286" lon="11.028012686243729"><ele>64.0</ele><time>2026-05-01T17:11:29.953Z</time></trkpt><trkpt lat="43.922807744664304" lon="11.02779235496826"><ele>64.0</ele><time>2026-05-01T17:11:30.953Z</time></trkpt><trkpt lat="43.92294792308608" lon="11.027557412240979"><ele>64.0</ele><time>2026-05-01T17:11:31.953Z</time></trkpt><trkpt lat="43.9231366403638" lon="11.027371477698768"><ele>64.5</ele><time>2026-05-01T17:11:32.953Z</time></trkpt><trkpt lat="43.92334726119226" lon="11.027157337726011"><ele>65.0</ele><time>2026-05-01T17:11:33.953Z</time></trkpt><trkpt lat="43.92355492501176" lon="11.026934425690765"><ele>65.0</ele><time>2026-05-01T17:11:34.953Z</time></trkpt><trkpt lat="43.923759773129674" lon="11.026741793064494"><ele>65.0</ele><time>2026-05-01T17:11:35.953Z</time></trkpt><trkpt lat="43.92395408468007" lon="11.026547630082563"><ele>65.0</ele><time>2026-05-01T17:11:36.953Z</time></trkpt><trkpt lat="43.92413575793585" lon="11.026362409332185"><ele>65.0</ele><time>2026-05-01T17:11:37.952Z</time></trkpt><trkpt lat="43.92430717477551" lon="11.02619011910956"><ele>65.0</ele><time>2026-05-01T17:11:38.951Z</time></trkpt><trkpt lat="43.92448143405056" lon="11.026038830665161"><ele>65.0</ele><time>2026-05-01T17:11:39.95Z</time></trkpt><trkpt lat="43.92464136634027" lon="11.025862879898582"><ele>65.0</ele><time>2026-05-01T17:11:40.948Z</time></trkpt><trkpt lat="43.92481521768593" lon="11.025687379275695"><ele>65.0</ele><time>2026-05-01T17:11:41.947Z</time></trkpt><trkpt lat="43.924982600086274" lon="11.025509826482315"><ele>65.66666666666667</ele><time>2026-05-01T17:11:42.946Z</time></trkpt><trkpt lat="43.92514751515915" lon="11.025338806913876"><ele>66.33333333333333</ele><time>2026-05-01T17:11:43.946Z</time></trkpt><trkpt lat="43.925302088967904" lon="11.025162262009609"><ele>67.0</ele><time>2026-05-01T17:11:44.945Z</time></trkpt><trkpt lat="43.92546112574409" lon="11.024981272880146"><ele>67.66666666666666</ele><time>2026-05-01T17:11:45.944Z</time></trkpt><trkpt lat="43.925600736384375" lon="11.024789179306596"><ele>68.33333333333333</ele><time>2026-05-01T17:11:46.943Z</time></trkpt><trkpt lat="43.92571988402724" lon="11.024588082139879"><ele>69.0</ele><time>2026-05-01T17:11:47.942Z</time></trkpt><trkpt lat="43.925840899685014" lon="11.024377366957273"><ele>69.33333333333333</ele><time>2026-05-01T17:11:48.942Z</time></trkpt><trkpt lat="43.92595852457614" lon="11.024169074606615"><ele>69.66666666666666</ele><time>2026-05-01T17:11:49.941Z</time></trkpt><trkpt lat="43.926073886370276" lon="11.023955200610722"><ele>70.0</ele><time>2026-05-01T17:11:50.941Z</time></trkpt><trkpt lat="43.92618791553331" lon="11.02374668509856"><ele>70.0</ele><time>2026-05-01T17:11:51.94Z</time></trkpt><trkpt lat="43.926293458427" lon="11.023533766466409"><ele>70.0</ele><time>2026-05-01T17:11:52.939Z</time></trkpt><trkpt lat="43.92639189121693" lon="11.023324525194404"><ele>70.0</ele><time>2026-05-01T17:11:53.939Z</time></trkpt><trkpt lat="43.92649183489115" lon="11.023130733115972"><ele>70.0</ele><time>2026-05-01T17:11:54.939Z</time></trkpt><trkpt lat="43.92658719375669" lon="11.022952451860526"><ele>70.0</ele><time>2026-05-01T17:11:55.938Z</time></trkpt><trkpt lat="43.92668969190754" lon="11.022736287606156"><ele>70.0</ele><time>2026-05-01T17:11:56.938Z</time></trkpt><trkpt lat="43.92678003793098" lon="11.022555706331575"><ele>70.0</ele><time>2026-05-01T17:11:57.937Z</time></trkpt><trkpt lat="43.92686634233274" lon="11.0223752504861"><ele>70.0</ele><time>2026-05-01T17:11:58.937Z</time></trkpt><trkpt lat="43.92694987280461" lon="11.022207591312418"><ele>70.0</ele><time>2026-05-01T17:11:59.937Z</time></trkpt><trkpt lat="43.92702964014335" lon="11.022043813409503"><ele>70.0</ele><time>2026-05-01T17:12:00.936Z</time></trkpt><trkpt lat="43.92710632128402" lon="11.021881631114775"><ele>70.0</ele><time>2026-05-01T17:12:01.936Z</time></trkpt><trkpt lat="43.92718309270464" lon="11.021727034846155"><ele>70.0</ele><time>2026-05-01T17:12:02.936Z</time></trkpt><trkpt lat="43.92725431447308" lon="11.021573556523707"><ele>70.0</ele><time>2026-05-01T17:12:03.936Z</time></trkpt><trkpt lat="43.92732725070764" lon="11.021427681387758"><ele>70.0</ele><time>2026-05-01T17:12:04.935Z</time></trkpt><trkpt lat="43.92741683331677" lon="11.021305431641558"><ele>70.0</ele><time>2026-05-01T17:12:05.935Z</time></trkpt><trkpt lat="43.927484571601234" lon="11.02116451816942"><ele>70.0</ele><time>2026-05-01T17:12:06.935Z</time></trkpt><trkpt lat="43.92755121072539" lon="11.021029362915897"><ele>70.0</ele><time>2026-05-01T17:12:07.935Z</time></trkpt><trkpt lat="43.927616173051234" lon="11.020895699663601"><ele>70.0</ele><time>2026-05-01T17:12:08.935Z</time></trkpt><trkpt lat="43.92767533902171" lon="11.020777692830816"><ele>70.0</ele><time>2026-05-01T17:12:09.935Z</time></trkpt><trkpt lat="43.927730360751205" lon="11.02069663883782"><ele>70.0</ele><time>2026-05-01T17:12:10.934Z</time></trkpt><trkpt lat="43.927785881058455" lon="11.02064570946837"><ele>70.0</ele><time>2026-05-01T17:12:11.935Z</time></trkpt><trkpt lat="43.92784976769486" lon="11.02062003324693"><ele>70.0</ele><time>2026-05-01T17:12:12.934Z</time></trkpt><trkpt lat="43.927922788802555" lon="11.020620074614024"><ele>70.0</ele><time>2026-05-01T17:12:13.934Z</time></trkpt><trkpt lat="43.92801298543371" lon="11.020627236510068"><ele>70.0</ele><time>2026-05-01T17:12:14.935Z</time></trkpt><trkpt lat="43.92811747668393" lon="11.02060296012998"><ele>70.0</ele><time>2026-05-01T17:12:15.934Z</time></trkpt><trkpt lat="43.928236960629796" lon="11.02057261211245"><ele>70.0</ele><time>2026-05-01T17:12:16.934Z</time></trkpt><trkpt lat="43.92836358757523" lon="11.020608799419179"><ele>70.0</ele><time>2026-05-01T17:12:17.933Z</time></trkpt><trkpt lat="43.9284908478935" lon="11.020650960693036"><ele>70.0</ele><time>2026-05-01T17:12:18.933Z</time></trkpt><trkpt lat="43.92860372564021" lon="11.020785238363898"><ele>70.33333333333333</ele><time>2026-05-01T17:12:19.933Z</time></trkpt><trkpt lat="43.92872332180397" lon="11.020916094097075"><ele>70.66666666666667</ele><time>2026-05-01T17:12:20.933Z</time></trkpt><trkpt lat="43.92885874694455" lon="11.021062893346505"><ele>71.0</ele><time>2026-05-01T17:12:21.933Z</time></trkpt><trkpt lat="43.92901583137189" lon="11.021215125586815"><ele>71.0</ele><time>2026-05-01T17:12:22.933Z</time></trkpt><trkpt lat="43.92917442082619" lon="11.021413230943937"><ele>71.0</ele><time>2026-05-01T17:12:23.933Z</time></trkpt><trkpt lat="43.929367673261254" lon="11.021618823274428"><ele>72.5</ele><time>2026-05-01T17:12:24.933Z</time></trkpt><trkpt lat="43.92956506392793" lon="11.02183234914047"><ele>74.0</ele><time>2026-05-01T17:12:25.933Z</time></trkpt><trkpt lat="43.929737156098966" lon="11.022031094277631"><ele>74.0</ele><time>2026-05-01T17:12:26.933Z</time></trkpt><trkpt lat="43.9299050888426" lon="11.022215698629894"><ele>74.0</ele><time>2026-05-01T17:12:27.933Z</time></trkpt><trkpt lat="43.930077511734886" lon="11.02239382964026"><ele>74.0</ele><time>2026-05-01T17:12:28.933Z</time></trkpt><trkpt lat="43.93024609182825" lon="11.022579770300322"><ele>76.33333333333334</ele><time>2026-05-01T17:12:29.933Z</time></trkpt><trkpt lat="43.93039535040725" lon="11.022744416176728"><ele>78.66666666666667</ele><time>2026-05-01T17:12:30.933Z</time></trkpt><trkpt lat="43.930540160192116" lon="11.022911726508045"><ele>81.0</ele><time>2026-05-01T17:12:31.933Z</time></trkpt><trkpt lat="43.930685964447036" lon="11.023066817070298"><ele>81.0</ele><time>2026-05-01T17:12:32.933Z</time></trkpt><trkpt lat="43.93082015578491" lon="11.023221169528094"><ele>81.0</ele><time>2026-05-01T17:12:33.933Z</time></trkpt><trkpt lat="43.9309671448555" lon="11.02336108659635"><ele>81.0</ele><time>2026-05-01T17:12:34.933Z</time></trkpt><trkpt lat="43.93110554475163" lon="11.023497183210077"><ele>80.75</ele><time>2026-05-01T17:12:35.933Z</time></trkpt><trkpt lat="43.93121699135461" lon="11.0236232305253"><ele>80.5</ele><time>2026-05-01T17:12:36.933Z</time></trkpt><trkpt lat="43.93132593035997" lon="11.023731260827152"><ele>80.25</ele><time>2026-05-01T17:12:37.932Z</time></trkpt><trkpt lat="43.93142924491047" lon="11.023809676404513"><ele>80.0</ele><time>2026-05-01T17:12:38.932Z</time></trkpt><trkpt lat="43.93148925063451" lon="11.023923363114037"><ele>80.0</ele><time>2026-05-01T17:12:39.932Z</time></trkpt><trkpt lat="43.9315536973714" lon="11.023983119889419"><ele>80.0</ele><time>2026-05-01T17:12:40.932Z</time></trkpt><trkpt lat="43.93162110920653" lon="11.02399494328503"><ele>80.0</ele><time>2026-05-01T17:12:41.932Z</time></trkpt><trkpt lat="43.93168969058214" lon="11.023886479109683"><ele>80.0</ele><time>2026-05-01T17:12:43.932Z</time></trkpt><trkpt lat="43.931702820397966" lon="11.023778814022004"><ele>80.0</ele><time>2026-05-01T17:12:44.932Z</time></trkpt><trkpt lat="43.93171402943481" lon="11.023646931600144"><ele>80.0</ele><time>2026-05-01T17:12:45.932Z</time></trkpt><trkpt lat="43.93176442939721" lon="11.023497178294631"><ele>80.25</ele><time>2026-05-01T17:12:46.932Z</time></trkpt><trkpt lat="43.931832801431426" lon="11.023354138682814"><ele>80.5</ele><time>2026-05-01T17:12:47.932Z</time></trkpt><trkpt lat="43.931903381458234" lon="11.023215394274292"><ele>80.75</ele><time>2026-05-01T17:12:48.932Z</time></trkpt><trkpt lat="43.93198375459081" lon="11.023072306533004"><ele>81.0</ele><time>2026-05-01T17:12:49.932Z</time></trkpt><trkpt lat="43.93207407109488" lon="11.022923152914492"><ele>80.5</ele><time>2026-05-01T17:12:50.932Z</time></trkpt><trkpt lat="43.932167771361456" lon="11.022782626223457"><ele>80.0</ele><time>2026-05-01T17:12:51.932Z</time></trkpt><trkpt lat="43.93226747808487" lon="11.022654381495402"><ele>79.5</ele><time>2026-05-01T17:12:52.932Z</time></trkpt><trkpt lat="43.93239417230741" lon="11.022573895671984"><ele>79.0</ele><time>2026-05-01T17:12:53.932Z</time></trkpt><trkpt lat="43.93251205684016" lon="11.022492222434336"><ele>80.0</ele><time>2026-05-01T17:12:54.932Z</time></trkpt><trkpt lat="43.932620939522444" lon="11.022442630349563"><ele>81.0</ele><time>2026-05-01T17:12:55.932Z</time></trkpt><trkpt lat="43.93273152104296" lon="11.022394686994662"><ele>82.0</ele><time>2026-05-01T17:12:56.932Z</time></trkpt><trkpt lat="43.932844327409086" lon="11.022347421116484"><ele>83.0</ele><time>2026-05-01T17:12:57.932Z</time></trkpt><trkpt lat="43.93295194216693" lon="11.022309113641038"><ele>83.0</ele><time>2026-05-01T17:12:58.932Z</time></trkpt><trkpt lat="43.933083638431306" lon="11.022263381873225"><ele>83.0</ele><time>2026-05-01T17:12:59.932Z</time></trkpt><trkpt lat="43.93319870311373" lon="11.02221475090556"><ele>83.0</ele><time>2026-05-01T17:13:00.932Z</time></trkpt><trkpt lat="43.93330947819076" lon="11.02217831033802"><ele>83.0</ele><time>2026-05-01T17:13:01.932Z</time></trkpt><trkpt lat="43.93341156810266" lon="11.022133251509883"><ele>83.0</ele><time>2026-05-01T17:13:02.932Z</time></trkpt><trkpt lat="43.93349566679654" lon="11.0220818167605"><ele>83.0</ele><time>2026-05-01T17:13:03.932Z</time></trkpt><trkpt lat="43.9335641880707" lon="11.0220204849148"><ele>83.0</ele><time>2026-05-01T17:13:04.932Z</time></trkpt><trkpt lat="43.93360708867163" lon="11.021925116507761"><ele>83.0</ele><time>2026-05-01T17:13:05.932Z</time></trkpt><trkpt lat="43.93362946991488" lon="11.02182113634581"><ele>83.0</ele><time>2026-05-01T17:13:06.932Z</time></trkpt><trkpt lat="43.93364482765444" lon="11.021725525767284"><ele>83.0</ele><time>2026-05-01T17:13:07.932Z</time></trkpt><trkpt lat="43.933678990644715" lon="11.021586045323037"><ele>83.0</ele><time>2026-05-01T17:13:09.933Z</time></trkpt><trkpt lat="43.933742587101584" lon="11.02148121448454"><ele>83.0</ele><time>2026-05-01T17:13:11.933Z</time></trkpt><trkpt lat="43.933900709386506" lon="11.02159444677653"><ele>83.0</ele><time>2026-05-01T17:13:13.933Z</time></trkpt><trkpt lat="43.93397942116732" lon="11.021667434333256"><ele>83.0</ele><time>2026-05-01T17:13:14.933Z</time></trkpt><trkpt lat="43.934072826049785" lon="11.02175250006026"><ele>83.25</ele><time>2026-05-01T17:13:15.933Z</time></trkpt><trkpt lat="43.93417358919457" lon="11.021839146635216"><ele>83.5</ele><time>2026-05-01T17:13:16.933Z</time></trkpt><trkpt lat="43.93426743638517" lon="11.021913527586532"><ele>83.75</ele><time>2026-05-01T17:13:17.933Z</time></trkpt><trkpt lat="43.934362709150484" lon="11.021989138689767"><ele>84.0</ele><time>2026-05-01T17:13:18.933Z</time></trkpt><trkpt lat="43.93446760472191" lon="11.022068477894729"><ele>84.4</ele><time>2026-05-01T17:13:19.933Z</time></trkpt><trkpt lat="43.93455576591977" lon="11.022113400086518"><ele>84.80000000000001</ele><time>2026-05-01T17:13:20.933Z</time></trkpt><trkpt lat="43.93463948696219" lon="11.022133817335183"><ele>85.19999999999999</ele><time>2026-05-01T17:13:21.933Z</time></trkpt><trkpt lat="43.934706277915296" lon="11.022150235179911"><ele>85.6</ele><time>2026-05-01T17:13:22.933Z</time></trkpt><trkpt lat="43.934797038957534" lon="11.022149364978091"><ele>86.0</ele><time>2026-05-01T17:13:24.933Z</time></trkpt><trkpt lat="43.93484813968871" lon="11.02200246510198"><ele>86.0</ele><time>2026-05-01T17:13:25.933Z</time></trkpt><trkpt lat="43.9348993749641" lon="11.021908237809976"><ele>86.0</ele><time>2026-05-01T17:13:26.933Z</time></trkpt><trkpt lat="43.93493716604686" lon="11.021804585556024"><ele>86.0</ele><time>2026-05-01T17:13:27.933Z</time></trkpt><trkpt lat="43.934953780191535" lon="11.021682173609314"><ele>86.0</ele><time>2026-05-01T17:13:28.933Z</time></trkpt><trkpt lat="43.9349746667919" lon="11.021581564274403"><ele>86.0</ele><time>2026-05-01T17:13:29.933Z</time></trkpt><trkpt lat="43.93500550662616" lon="11.021501653763497"><ele>86.0</ele><time>2026-05-01T17:13:30.933Z</time></trkpt><trkpt lat="43.93504128406928" lon="11.021410195539605"><ele>86.33333333333334</ele><time>2026-05-01T17:13:31.933Z</time></trkpt><trkpt lat="43.93515365997028" lon="11.021346725143168"><ele>86.66666666666667</ele><time>2026-05-01T17:13:33.933Z</time></trkpt><trkpt lat="43.93522754524799" lon="11.02135828518348"><ele>87.0</ele><time>2026-05-01T17:13:34.933Z</time></trkpt><trkpt lat="43.93530007731474" lon="11.021392424582686"><ele>87.33333333333333</ele><time>2026-05-01T17:13:35.933Z</time></trkpt><trkpt lat="43.93536643095449" lon="11.021423120400684"><ele>87.66666666666666</ele><time>2026-05-01T17:13:36.933Z</time></trkpt><trkpt lat="43.93543565698756" lon="11.021448398992966"><ele>88.0</ele><time>2026-05-01T17:13:37.933Z</time></trkpt><trkpt lat="43.935509952003855" lon="11.02148213438012"><ele>88.0</ele><time>2026-05-01T17:13:38.933Z</time></trkpt><trkpt lat="43.93558490919545" lon="11.021511956779404"><ele>88.0</ele><time>2026-05-01T17:13:39.933Z</time></trkpt><trkpt lat="43.935671204582064" lon="11.021530343976028"><ele>88.0</ele><time>2026-05-01T17:13:40.933Z</time></trkpt><trkpt lat="43.93575500058764" lon="11.02151668963085"><ele>88.0</ele><time>2026-05-01T17:13:41.933Z</time></trkpt><trkpt lat="43.93583445604404" lon="11.021476272946076"><ele>88.0</ele><time>2026-05-01T17:13:42.933Z</time></trkpt><trkpt lat="43.935903547408635" lon="11.021415201462684"><ele>88.0</ele><time>2026-05-01T17:13:43.933Z</time></trkpt><trkpt lat="43.935961371041266" lon="11.02134790376419"><ele>88.42857142857143</ele><time>2026-05-01T17:13:44.933Z</time></trkpt><trkpt lat="43.93600696382616" lon="11.021257885956167"><ele>88.85714285714286</ele><time>2026-05-01T17:13:45.933Z</time></trkpt><trkpt lat="43.93603995877118" lon="11.021152210123228"><ele>89.28571428571428</ele><time>2026-05-01T17:13:46.933Z</time></trkpt><trkpt lat="43.93606887725844" lon="11.021048642185372"><ele>89.71428571428572</ele><time>2026-05-01T17:13:47.933Z</time></trkpt><trkpt lat="43.93610042238802" lon="11.020956393993835"><ele>90.14285714285714</ele><time>2026-05-01T17:13:48.933Z</time></trkpt><trkpt lat="43.93613275555016" lon="11.020877853202162"><ele>90.57142857142857</ele><time>2026-05-01T17:13:49.933Z</time></trkpt><trkpt lat="43.93616009077135" lon="11.02079706821471"><ele>91.0</ele><time>2026-05-01T17:13:50.933Z</time></trkpt><trkpt lat="43.93619373858334" lon="11.020705130458042"><ele>91.0</ele><time>2026-05-01T17:13:51.933Z</time></trkpt><trkpt lat="43.93622073026502" lon="11.020605325429985"><ele>91.0</ele><time>2026-05-01T17:13:52.933Z</time></trkpt><trkpt lat="43.93626047374227" lon="11.020512123670551"><ele>91.0</ele><time>2026-05-01T17:13:53.933Z</time></trkpt><trkpt lat="43.9362952102652" lon="11.020417819602796"><ele>91.0</ele><time>2026-05-01T17:13:54.933Z</time></trkpt><trkpt lat="43.9363534393209" lon="11.020331725501768"><ele>91.0</ele><time>2026-05-01T17:13:55.933Z</time></trkpt><trkpt lat="43.93638788800789" lon="11.020239003146527"><ele>91.0</ele><time>2026-05-01T17:13:56.933Z</time></trkpt><trkpt lat="43.93642197641497" lon="11.02015102253126"><ele>91.0</ele><time>2026-05-01T17:13:57.933Z</time></trkpt><trkpt lat="43.93645423654968" lon="11.020067760754527"><ele>91.0</ele><time>2026-05-01T17:13:58.933Z</time></trkpt><trkpt lat="43.936505189682876" lon="11.01993625314521"><ele>91.0</ele><time>2026-05-01T17:14:00.933Z</time></trkpt><trkpt lat="43.93655806681817" lon="11.019879723126758"><ele>91.0</ele><time>2026-05-01T17:14:02.933Z</time></trkpt><trkpt lat="43.93660135524904" lon="11.019799744159448"><ele>91.0</ele><time>2026-05-01T17:14:03.933Z</time></trkpt><trkpt lat="43.93666275488479" lon="11.019967874144951"><ele>91.6</ele><time>2026-05-01T17:14:04.933Z</time></trkpt><trkpt lat="43.93673677245366" lon="11.020013411601994"><ele>92.19999999999999</ele><time>2026-05-01T17:14:05.933Z</time></trkpt><trkpt lat="43.93679433119038" lon="11.020072315267788"><ele>92.80000000000001</ele><time>2026-05-01T17:14:06.933Z</time></trkpt><trkpt lat="43.93690124170387" lon="11.02013062873873"><ele>93.4</ele><time>2026-05-01T17:14:08.933Z</time></trkpt><trkpt lat="43.93698543983531" lon="11.020180880257664"><ele>94.0</ele><time>2026-05-01T17:14:10.933Z</time></trkpt><trkpt lat="43.93708433854109" lon="11.020010722219315"><ele>94.0</ele><time>2026-05-01T17:14:11.933Z</time></trkpt><trkpt lat="43.93713784416907" lon="11.019918645729353"><ele>94.0</ele><time>2026-05-01T17:14:12.933Z</time></trkpt><trkpt lat="43.93720220281577" lon="11.019811265168656"><ele>94.0</ele><time>2026-05-01T17:14:14.934Z</time></trkpt><trkpt lat="43.93728059130913" lon="11.019678364203962"><ele>94.0</ele><time>2026-05-01T17:14:16.934Z</time></trkpt><trkpt lat="43.93734246529559" lon="11.019557070257292"><ele>94.0</ele><time>2026-05-01T17:14:17.933Z</time></trkpt><trkpt lat="43.937409833563365" lon="11.019360438007379"><ele>94.0</ele><time>2026-05-01T17:14:18.933Z</time></trkpt><trkpt lat="43.937464604031675" lon="11.019136042921208"><ele>94.0</ele><time>2026-05-01T17:14:19.934Z</time></trkpt><trkpt lat="43.937516428200546" lon="11.01893729198394"><ele>94.0</ele><time>2026-05-01T17:14:20.934Z</time></trkpt><trkpt lat="43.937576047563866" lon="11.018722933576278"><ele>95.25</ele><time>2026-05-01T17:14:21.934Z</time></trkpt><trkpt lat="43.93762929252611" lon="11.018538136090731"><ele>96.5</ele><time>2026-05-01T17:14:22.934Z</time></trkpt><trkpt lat="43.93767589086526" lon="11.018394343712734"><ele>97.75</ele><time>2026-05-01T17:14:23.933Z</time></trkpt><trkpt lat="43.93772657889673" lon="11.018237838236123"><ele>99.0</ele><time>2026-05-01T17:14:24.933Z</time></trkpt><trkpt lat="43.93780068352844" lon="11.018077928153765"><ele>99.0</ele><time>2026-05-01T17:14:25.934Z</time></trkpt><trkpt lat="43.937882827211155" lon="11.017930184333103"><ele>99.0</ele><time>2026-05-01T17:14:26.934Z</time></trkpt><trkpt lat="43.9379573621348" lon="11.01778574944481"><ele>99.0</ele><time>2026-05-01T17:14:27.934Z</time></trkpt><trkpt lat="43.93803012855119" lon="11.017633355806051"><ele>99.0</ele><time>2026-05-01T17:14:28.934Z</time></trkpt><trkpt lat="43.93809243543718" lon="11.017485497665632"><ele>98.4</ele><time>2026-05-01T17:14:29.934Z</time></trkpt><trkpt lat="43.938158449452395" lon="11.017345586230933"><ele>97.80000000000001</ele><time>2026-05-01T17:14:30.934Z</time></trkpt><trkpt lat="43.93821908228659" lon="11.017203425913635"><ele>97.19999999999999</ele><time>2026-05-01T17:14:31.934Z</time></trkpt><trkpt lat="43.938284351885656" lon="11.017081464464734"><ele>96.6</ele><time>2026-05-01T17:14:32.934Z</time></trkpt><trkpt lat="43.938333579309976" lon="11.01696872029207"><ele>96.0</ele><time>2026-05-01T17:14:33.934Z</time></trkpt><trkpt lat="43.938381457891204" lon="11.01687275740876"><ele>96.5</ele><time>2026-05-01T17:14:34.934Z</time></trkpt><trkpt lat="43.9384465574593" lon="11.016757675006517"><ele>97.0</ele><time>2026-05-01T17:14:36.934Z</time></trkpt><trkpt lat="43.93848674093442" lon="11.016673138063783"><ele>97.5</ele><time>2026-05-01T17:14:37.934Z</time></trkpt><trkpt lat="43.93852890689379" lon="11.016579815384276"><ele>98.0</ele><time>2026-05-01T17:14:38.934Z</time></trkpt><trkpt lat="43.93857925123891" lon="11.016487373014407"><ele>98.5</ele><time>2026-05-01T17:14:39.934Z</time></trkpt><trkpt lat="43.93862030072757" lon="11.016397972249102"><ele>99.0</ele><time>2026-05-01T17:14:40.934Z</time></trkpt><trkpt lat="43.938655282157214" lon="11.016317705769135"><ele>99.0</ele><time>2026-05-01T17:14:41.934Z</time></trkpt><trkpt lat="43.938712986786065" lon="11.016179226926795"><ele>99.0</ele><time>2026-05-01T17:14:43.934Z</time></trkpt><trkpt lat="43.93875659189995" lon="11.01610265854128"><ele>99.0</ele><time>2026-05-01T17:14:46.934Z</time></trkpt><trkpt lat="43.9385934399408" lon="11.01601267622072"><ele>99.0</ele><time>2026-05-01T17:14:49.934Z</time></trkpt><trkpt lat="43.93853022495935" lon="11.016042107006415"><ele>99.0</ele><time>2026-05-01T17:14:51.934Z</time></trkpt></trkseg></trk></gpx>